<?xml version="1.0" encoding="UTF-8" standalone="no" ?>
<gpx xmlns="http://www.topografix.com/GPX/1/1" xmlns:xsi="http://www.w3.org/2001/XMLSchema-instance" xsi:schemaLocation="http://www.topografix.com/GPX/1/1 http://www.topografix.com/GPX/1/1/gpx.xsd" version="1.1" creator="VisuGPX - https://www.visugpx.com">
  <metadata>
    <name>Chimay Cyclisme sur route</name>
  </metadata>
  <trk>
    <name><![CDATA[Chimay Cyclisme sur route_1]]></name>
    <trkseg>
      <trkpt lat="50.02301" lon="4.32094">
        <ele>254.8</ele>
        <time>2024-04-28T06:40:17Z</time>
      </trkpt>
      <trkpt lat="50.02301" lon="4.32094">
        <ele>255.6</ele>
        <time>2024-04-28T06:40:18Z</time>
      </trkpt>
      <trkpt lat="50.02277" lon="4.32104">
        <ele>258</ele>
        <time>2024-04-28T06:41:14Z</time>
      </trkpt>
      <trkpt lat="50.02276" lon="4.32101">
        <ele>258</ele>
        <time>2024-04-28T06:41:15Z</time>
      </trkpt>
      <trkpt lat="50.02277" lon="4.32098">
        <ele>258.2</ele>
        <time>2024-04-28T06:41:16Z</time>
      </trkpt>
      <trkpt lat="50.02277" lon="4.32094">
        <ele>258.2</ele>
        <time>2024-04-28T06:41:17Z</time>
      </trkpt>
      <trkpt lat="50.02277" lon="4.3209">
        <ele>258.2</ele>
        <time>2024-04-28T06:41:18Z</time>
      </trkpt>
      <trkpt lat="50.02277" lon="4.32086">
        <ele>258.4</ele>
        <time>2024-04-28T06:41:19Z</time>
      </trkpt>
      <trkpt lat="50.02277" lon="4.32083">
        <ele>258.6</ele>
        <time>2024-04-28T06:41:20Z</time>
      </trkpt>
      <trkpt lat="50.02277" lon="4.3208">
        <ele>258.6</ele>
        <time>2024-04-28T06:41:21Z</time>
      </trkpt>
      <trkpt lat="50.02276" lon="4.32077">
        <ele>258.8</ele>
        <time>2024-04-28T06:41:22Z</time>
      </trkpt>
      <trkpt lat="50.02276" lon="4.32074">
        <ele>259</ele>
        <time>2024-04-28T06:41:23Z</time>
      </trkpt>
      <trkpt lat="50.02275" lon="4.32071">
        <ele>259.4</ele>
        <time>2024-04-28T06:41:24Z</time>
      </trkpt>
      <trkpt lat="50.02274" lon="4.32068">
        <ele>259.8</ele>
        <time>2024-04-28T06:41:25Z</time>
      </trkpt>
      <trkpt lat="50.02273" lon="4.32065">
        <ele>260</ele>
        <time>2024-04-28T06:41:26Z</time>
      </trkpt>
      <trkpt lat="50.02272" lon="4.32062">
        <ele>260</ele>
        <time>2024-04-28T06:41:27Z</time>
      </trkpt>
      <trkpt lat="50.02271" lon="4.3206">
        <ele>260.6</ele>
        <time>2024-04-28T06:41:28Z</time>
      </trkpt>
      <trkpt lat="50.0227" lon="4.32057">
        <ele>260.8</ele>
        <time>2024-04-28T06:41:29Z</time>
      </trkpt>
      <trkpt lat="50.02268" lon="4.32054">
        <ele>261</ele>
        <time>2024-04-28T06:41:30Z</time>
      </trkpt>
      <trkpt lat="50.02267" lon="4.32052">
        <ele>261.2</ele>
        <time>2024-04-28T06:41:31Z</time>
      </trkpt>
      <trkpt lat="50.02265" lon="4.32049">
        <ele>261.4</ele>
        <time>2024-04-28T06:41:32Z</time>
      </trkpt>
      <trkpt lat="50.02264" lon="4.32046">
        <ele>261.6</ele>
        <time>2024-04-28T06:41:33Z</time>
      </trkpt>
      <trkpt lat="50.02263" lon="4.32044">
        <ele>261.8</ele>
        <time>2024-04-28T06:41:34Z</time>
      </trkpt>
      <trkpt lat="50.02261" lon="4.32041">
        <ele>262</ele>
        <time>2024-04-28T06:41:35Z</time>
      </trkpt>
      <trkpt lat="50.02259" lon="4.32038">
        <ele>262.2</ele>
        <time>2024-04-28T06:41:36Z</time>
      </trkpt>
      <trkpt lat="50.02258" lon="4.32036">
        <ele>262.2</ele>
        <time>2024-04-28T06:41:37Z</time>
      </trkpt>
      <trkpt lat="50.02256" lon="4.32032">
        <ele>263.2</ele>
        <time>2024-04-28T06:41:38Z</time>
      </trkpt>
      <trkpt lat="50.02255" lon="4.32029">
        <ele>264</ele>
        <time>2024-04-28T06:41:39Z</time>
      </trkpt>
      <trkpt lat="50.02253" lon="4.32025">
        <ele>264.4</ele>
        <time>2024-04-28T06:41:40Z</time>
      </trkpt>
      <trkpt lat="50.02252" lon="4.32021">
        <ele>264.8</ele>
        <time>2024-04-28T06:41:41Z</time>
      </trkpt>
      <trkpt lat="50.02251" lon="4.32017">
        <ele>264.8</ele>
        <time>2024-04-28T06:41:42Z</time>
      </trkpt>
      <trkpt lat="50.0225" lon="4.32013">
        <ele>265.2</ele>
        <time>2024-04-28T06:41:43Z</time>
      </trkpt>
      <trkpt lat="50.02248" lon="4.32008">
        <ele>265.4</ele>
        <time>2024-04-28T06:41:44Z</time>
      </trkpt>
      <trkpt lat="50.02247" lon="4.32003">
        <ele>265.8</ele>
        <time>2024-04-28T06:41:45Z</time>
      </trkpt>
      <trkpt lat="50.02247" lon="4.31997">
        <ele>265.8</ele>
        <time>2024-04-28T06:41:46Z</time>
      </trkpt>
      <trkpt lat="50.02248" lon="4.3199">
        <ele>266.4</ele>
        <time>2024-04-28T06:41:47Z</time>
      </trkpt>
      <trkpt lat="50.02251" lon="4.31983">
        <ele>266.8</ele>
        <time>2024-04-28T06:41:48Z</time>
      </trkpt>
      <trkpt lat="50.02254" lon="4.31974">
        <ele>266.8</ele>
        <time>2024-04-28T06:41:49Z</time>
      </trkpt>
      <trkpt lat="50.02258" lon="4.31965">
        <ele>266.8</ele>
        <time>2024-04-28T06:41:50Z</time>
      </trkpt>
      <trkpt lat="50.02262" lon="4.31956">
        <ele>267</ele>
        <time>2024-04-28T06:41:51Z</time>
      </trkpt>
      <trkpt lat="50.02266" lon="4.31947">
        <ele>266.8</ele>
        <time>2024-04-28T06:41:52Z</time>
      </trkpt>
      <trkpt lat="50.0227" lon="4.31938">
        <ele>267</ele>
        <time>2024-04-28T06:41:53Z</time>
      </trkpt>
      <trkpt lat="50.02274" lon="4.3193">
        <ele>266.8</ele>
        <time>2024-04-28T06:41:54Z</time>
      </trkpt>
      <trkpt lat="50.02278" lon="4.31922">
        <ele>267</ele>
        <time>2024-04-28T06:41:55Z</time>
      </trkpt>
      <trkpt lat="50.02281" lon="4.31915">
        <ele>267</ele>
        <time>2024-04-28T06:41:56Z</time>
      </trkpt>
      <trkpt lat="50.02285" lon="4.31908">
        <ele>267</ele>
        <time>2024-04-28T06:41:57Z</time>
      </trkpt>
      <trkpt lat="50.02288" lon="4.31901">
        <ele>266.6</ele>
        <time>2024-04-28T06:41:58Z</time>
      </trkpt>
      <trkpt lat="50.0229" lon="4.31894">
        <ele>266.6</ele>
        <time>2024-04-28T06:41:59Z</time>
      </trkpt>
      <trkpt lat="50.02293" lon="4.31888">
        <ele>266.2</ele>
        <time>2024-04-28T06:42:00Z</time>
      </trkpt>
      <trkpt lat="50.02295" lon="4.31882">
        <ele>266.2</ele>
        <time>2024-04-28T06:42:01Z</time>
      </trkpt>
      <trkpt lat="50.02297" lon="4.31877">
        <ele>266.2</ele>
        <time>2024-04-28T06:42:02Z</time>
      </trkpt>
      <trkpt lat="50.023" lon="4.31872">
        <ele>266.2</ele>
        <time>2024-04-28T06:42:03Z</time>
      </trkpt>
      <trkpt lat="50.02302" lon="4.31867">
        <ele>266.2</ele>
        <time>2024-04-28T06:42:04Z</time>
      </trkpt>
      <trkpt lat="50.02304" lon="4.31862">
        <ele>266.2</ele>
        <time>2024-04-28T06:42:05Z</time>
      </trkpt>
      <trkpt lat="50.02305" lon="4.31857">
        <ele>266.2</ele>
        <time>2024-04-28T06:42:06Z</time>
      </trkpt>
      <trkpt lat="50.02306" lon="4.31852">
        <ele>266.2</ele>
        <time>2024-04-28T06:42:07Z</time>
      </trkpt>
      <trkpt lat="50.02305" lon="4.31846">
        <ele>266.2</ele>
        <time>2024-04-28T06:42:08Z</time>
      </trkpt>
      <trkpt lat="50.02305" lon="4.31841">
        <ele>267</ele>
        <time>2024-04-28T06:42:09Z</time>
      </trkpt>
      <trkpt lat="50.02304" lon="4.31836">
        <ele>267.2</ele>
        <time>2024-04-28T06:42:10Z</time>
      </trkpt>
      <trkpt lat="50.02302" lon="4.31832">
        <ele>267.2</ele>
        <time>2024-04-28T06:42:11Z</time>
      </trkpt>
      <trkpt lat="50.02301" lon="4.31828">
        <ele>268.2</ele>
        <time>2024-04-28T06:42:12Z</time>
      </trkpt>
      <trkpt lat="50.02299" lon="4.31823">
        <ele>268.8</ele>
        <time>2024-04-28T06:42:13Z</time>
      </trkpt>
      <trkpt lat="50.02298" lon="4.31819">
        <ele>269.4</ele>
        <time>2024-04-28T06:42:14Z</time>
      </trkpt>
      <trkpt lat="50.02296" lon="4.31815">
        <ele>269.4</ele>
        <time>2024-04-28T06:42:15Z</time>
      </trkpt>
      <trkpt lat="50.02294" lon="4.31811">
        <ele>269.8</ele>
        <time>2024-04-28T06:42:16Z</time>
      </trkpt>
      <trkpt lat="50.02292" lon="4.31806">
        <ele>269.8</ele>
        <time>2024-04-28T06:42:17Z</time>
      </trkpt>
      <trkpt lat="50.0229" lon="4.31802">
        <ele>270</ele>
        <time>2024-04-28T06:42:18Z</time>
      </trkpt>
      <trkpt lat="50.02289" lon="4.31799">
        <ele>270.2</ele>
        <time>2024-04-28T06:42:19Z</time>
      </trkpt>
      <trkpt lat="50.02287" lon="4.31795">
        <ele>270.4</ele>
        <time>2024-04-28T06:42:20Z</time>
      </trkpt>
      <trkpt lat="50.02285" lon="4.31791">
        <ele>270.6</ele>
        <time>2024-04-28T06:42:21Z</time>
      </trkpt>
      <trkpt lat="50.02283" lon="4.31787">
        <ele>271</ele>
        <time>2024-04-28T06:42:22Z</time>
      </trkpt>
      <trkpt lat="50.02281" lon="4.31782">
        <ele>271.2</ele>
        <time>2024-04-28T06:42:23Z</time>
      </trkpt>
      <trkpt lat="50.02279" lon="4.31778">
        <ele>271.2</ele>
        <time>2024-04-28T06:42:24Z</time>
      </trkpt>
      <trkpt lat="50.02277" lon="4.31774">
        <ele>271.4</ele>
        <time>2024-04-28T06:42:25Z</time>
      </trkpt>
      <trkpt lat="50.02275" lon="4.3177">
        <ele>271.4</ele>
        <time>2024-04-28T06:42:26Z</time>
      </trkpt>
      <trkpt lat="50.02273" lon="4.31766">
        <ele>271.6</ele>
        <time>2024-04-28T06:42:27Z</time>
      </trkpt>
      <trkpt lat="50.0227" lon="4.31762">
        <ele>271.6</ele>
        <time>2024-04-28T06:42:28Z</time>
      </trkpt>
      <trkpt lat="50.02268" lon="4.31758">
        <ele>271.8</ele>
        <time>2024-04-28T06:42:29Z</time>
      </trkpt>
      <trkpt lat="50.02266" lon="4.31753">
        <ele>272</ele>
        <time>2024-04-28T06:42:30Z</time>
      </trkpt>
      <trkpt lat="50.02264" lon="4.31749">
        <ele>272.2</ele>
        <time>2024-04-28T06:42:31Z</time>
      </trkpt>
      <trkpt lat="50.02262" lon="4.31745">
        <ele>272.4</ele>
        <time>2024-04-28T06:42:32Z</time>
      </trkpt>
      <trkpt lat="50.02259" lon="4.31741">
        <ele>272.4</ele>
        <time>2024-04-28T06:42:33Z</time>
      </trkpt>
      <trkpt lat="50.02257" lon="4.31736">
        <ele>272.6</ele>
        <time>2024-04-28T06:42:34Z</time>
      </trkpt>
      <trkpt lat="50.02256" lon="4.31732">
        <ele>273.4</ele>
        <time>2024-04-28T06:42:35Z</time>
      </trkpt>
      <trkpt lat="50.02254" lon="4.31727">
        <ele>273.6</ele>
        <time>2024-04-28T06:42:36Z</time>
      </trkpt>
      <trkpt lat="50.02252" lon="4.31723">
        <ele>274</ele>
        <time>2024-04-28T06:42:37Z</time>
      </trkpt>
      <trkpt lat="50.0225" lon="4.31719">
        <ele>274.2</ele>
        <time>2024-04-28T06:42:38Z</time>
      </trkpt>
      <trkpt lat="50.02248" lon="4.31715">
        <ele>274.4</ele>
        <time>2024-04-28T06:42:39Z</time>
      </trkpt>
      <trkpt lat="50.02246" lon="4.3171">
        <ele>274.4</ele>
        <time>2024-04-28T06:42:40Z</time>
      </trkpt>
      <trkpt lat="50.02244" lon="4.31706">
        <ele>274.6</ele>
        <time>2024-04-28T06:42:41Z</time>
      </trkpt>
      <trkpt lat="50.02242" lon="4.31702">
        <ele>275</ele>
        <time>2024-04-28T06:42:42Z</time>
      </trkpt>
      <trkpt lat="50.0224" lon="4.31698">
        <ele>275.4</ele>
        <time>2024-04-28T06:42:43Z</time>
      </trkpt>
      <trkpt lat="50.02238" lon="4.31694">
        <ele>275.8</ele>
        <time>2024-04-28T06:42:44Z</time>
      </trkpt>
      <trkpt lat="50.02236" lon="4.3169">
        <ele>276.2</ele>
        <time>2024-04-28T06:42:45Z</time>
      </trkpt>
      <trkpt lat="50.02234" lon="4.31685">
        <ele>276.6</ele>
        <time>2024-04-28T06:42:46Z</time>
      </trkpt>
      <trkpt lat="50.02232" lon="4.31681">
        <ele>276.6</ele>
        <time>2024-04-28T06:42:47Z</time>
      </trkpt>
      <trkpt lat="50.0223" lon="4.31676">
        <ele>276.8</ele>
        <time>2024-04-28T06:42:48Z</time>
      </trkpt>
      <trkpt lat="50.02227" lon="4.31672">
        <ele>277</ele>
        <time>2024-04-28T06:42:49Z</time>
      </trkpt>
      <trkpt lat="50.02225" lon="4.31668">
        <ele>277</ele>
        <time>2024-04-28T06:42:50Z</time>
      </trkpt>
      <trkpt lat="50.02223" lon="4.31664">
        <ele>277</ele>
        <time>2024-04-28T06:42:51Z</time>
      </trkpt>
      <trkpt lat="50.02221" lon="4.3166">
        <ele>277.2</ele>
        <time>2024-04-28T06:42:52Z</time>
      </trkpt>
      <trkpt lat="50.02219" lon="4.31655">
        <ele>277.4</ele>
        <time>2024-04-28T06:42:53Z</time>
      </trkpt>
      <trkpt lat="50.02218" lon="4.31651">
        <ele>277.4</ele>
        <time>2024-04-28T06:42:54Z</time>
      </trkpt>
      <trkpt lat="50.02215" lon="4.31647">
        <ele>277.4</ele>
        <time>2024-04-28T06:42:55Z</time>
      </trkpt>
      <trkpt lat="50.02213" lon="4.31642">
        <ele>277.8</ele>
        <time>2024-04-28T06:42:56Z</time>
      </trkpt>
      <trkpt lat="50.02211" lon="4.31638">
        <ele>278</ele>
        <time>2024-04-28T06:42:57Z</time>
      </trkpt>
      <trkpt lat="50.02209" lon="4.31634">
        <ele>278.2</ele>
        <time>2024-04-28T06:42:58Z</time>
      </trkpt>
      <trkpt lat="50.02206" lon="4.3163">
        <ele>278.4</ele>
        <time>2024-04-28T06:42:59Z</time>
      </trkpt>
      <trkpt lat="50.02204" lon="4.31626">
        <ele>278.8</ele>
        <time>2024-04-28T06:43:00Z</time>
      </trkpt>
      <trkpt lat="50.02201" lon="4.31623">
        <ele>279</ele>
        <time>2024-04-28T06:43:01Z</time>
      </trkpt>
      <trkpt lat="50.02198" lon="4.31619">
        <ele>279.4</ele>
        <time>2024-04-28T06:43:02Z</time>
      </trkpt>
      <trkpt lat="50.02195" lon="4.31616">
        <ele>279.6</ele>
        <time>2024-04-28T06:43:03Z</time>
      </trkpt>
      <trkpt lat="50.02192" lon="4.31613">
        <ele>279.8</ele>
        <time>2024-04-28T06:43:04Z</time>
      </trkpt>
      <trkpt lat="50.02189" lon="4.31609">
        <ele>279.8</ele>
        <time>2024-04-28T06:43:05Z</time>
      </trkpt>
      <trkpt lat="50.02186" lon="4.31607">
        <ele>280</ele>
        <time>2024-04-28T06:43:06Z</time>
      </trkpt>
      <trkpt lat="50.02183" lon="4.31604">
        <ele>280.2</ele>
        <time>2024-04-28T06:43:07Z</time>
      </trkpt>
      <trkpt lat="50.02179" lon="4.31602">
        <ele>280.6</ele>
        <time>2024-04-28T06:43:08Z</time>
      </trkpt>
      <trkpt lat="50.02176" lon="4.316">
        <ele>280.6</ele>
        <time>2024-04-28T06:43:09Z</time>
      </trkpt>
      <trkpt lat="50.02173" lon="4.31597">
        <ele>280.8</ele>
        <time>2024-04-28T06:43:10Z</time>
      </trkpt>
      <trkpt lat="50.02169" lon="4.31595">
        <ele>281</ele>
        <time>2024-04-28T06:43:11Z</time>
      </trkpt>
      <trkpt lat="50.02166" lon="4.31593">
        <ele>281</ele>
        <time>2024-04-28T06:43:12Z</time>
      </trkpt>
      <trkpt lat="50.02162" lon="4.31591">
        <ele>281.2</ele>
        <time>2024-04-28T06:43:13Z</time>
      </trkpt>
      <trkpt lat="50.02159" lon="4.31589">
        <ele>281.2</ele>
        <time>2024-04-28T06:43:14Z</time>
      </trkpt>
      <trkpt lat="50.02156" lon="4.31587">
        <ele>281.4</ele>
        <time>2024-04-28T06:43:15Z</time>
      </trkpt>
      <trkpt lat="50.02152" lon="4.31584">
        <ele>281.4</ele>
        <time>2024-04-28T06:43:16Z</time>
      </trkpt>
      <trkpt lat="50.02148" lon="4.31583">
        <ele>281.4</ele>
        <time>2024-04-28T06:43:17Z</time>
      </trkpt>
      <trkpt lat="50.02144" lon="4.31581">
        <ele>281.4</ele>
        <time>2024-04-28T06:43:18Z</time>
      </trkpt>
      <trkpt lat="50.0214" lon="4.3158">
        <ele>281.6</ele>
        <time>2024-04-28T06:43:19Z</time>
      </trkpt>
      <trkpt lat="50.02136" lon="4.31578">
        <ele>281.4</ele>
        <time>2024-04-28T06:43:20Z</time>
      </trkpt>
      <trkpt lat="50.02132" lon="4.31576">
        <ele>281.8</ele>
        <time>2024-04-28T06:43:21Z</time>
      </trkpt>
      <trkpt lat="50.02128" lon="4.31574">
        <ele>282</ele>
        <time>2024-04-28T06:43:22Z</time>
      </trkpt>
      <trkpt lat="50.02123" lon="4.31573">
        <ele>282</ele>
        <time>2024-04-28T06:43:23Z</time>
      </trkpt>
      <trkpt lat="50.02119" lon="4.31571">
        <ele>282.2</ele>
        <time>2024-04-28T06:43:24Z</time>
      </trkpt>
      <trkpt lat="50.02115" lon="4.3157">
        <ele>282.2</ele>
        <time>2024-04-28T06:43:25Z</time>
      </trkpt>
      <trkpt lat="50.02111" lon="4.31568">
        <ele>282.4</ele>
        <time>2024-04-28T06:43:26Z</time>
      </trkpt>
      <trkpt lat="50.02107" lon="4.31567">
        <ele>282.6</ele>
        <time>2024-04-28T06:43:27Z</time>
      </trkpt>
      <trkpt lat="50.02103" lon="4.31565">
        <ele>282.8</ele>
        <time>2024-04-28T06:43:28Z</time>
      </trkpt>
      <trkpt lat="50.021" lon="4.31563">
        <ele>283.4</ele>
        <time>2024-04-28T06:43:29Z</time>
      </trkpt>
      <trkpt lat="50.02096" lon="4.31562">
        <ele>283.8</ele>
        <time>2024-04-28T06:43:30Z</time>
      </trkpt>
      <trkpt lat="50.02092" lon="4.3156">
        <ele>284</ele>
        <time>2024-04-28T06:43:31Z</time>
      </trkpt>
      <trkpt lat="50.02088" lon="4.31559">
        <ele>284.2</ele>
        <time>2024-04-28T06:43:32Z</time>
      </trkpt>
      <trkpt lat="50.02084" lon="4.31557">
        <ele>284.2</ele>
        <time>2024-04-28T06:43:33Z</time>
      </trkpt>
      <trkpt lat="50.0208" lon="4.31555">
        <ele>284.4</ele>
        <time>2024-04-28T06:43:34Z</time>
      </trkpt>
      <trkpt lat="50.02076" lon="4.31554">
        <ele>284.6</ele>
        <time>2024-04-28T06:43:35Z</time>
      </trkpt>
      <trkpt lat="50.02072" lon="4.31552">
        <ele>284.6</ele>
        <time>2024-04-28T06:43:36Z</time>
      </trkpt>
      <trkpt lat="50.02068" lon="4.3155">
        <ele>284.6</ele>
        <time>2024-04-28T06:43:37Z</time>
      </trkpt>
      <trkpt lat="50.02064" lon="4.31548">
        <ele>285</ele>
        <time>2024-04-28T06:43:38Z</time>
      </trkpt>
      <trkpt lat="50.02059" lon="4.31547">
        <ele>284.8</ele>
        <time>2024-04-28T06:43:39Z</time>
      </trkpt>
      <trkpt lat="50.02055" lon="4.31545">
        <ele>285.2</ele>
        <time>2024-04-28T06:43:40Z</time>
      </trkpt>
      <trkpt lat="50.02051" lon="4.31543">
        <ele>285.4</ele>
        <time>2024-04-28T06:43:41Z</time>
      </trkpt>
      <trkpt lat="50.02047" lon="4.31541">
        <ele>285.6</ele>
        <time>2024-04-28T06:43:42Z</time>
      </trkpt>
      <trkpt lat="50.02043" lon="4.31539">
        <ele>285.6</ele>
        <time>2024-04-28T06:43:43Z</time>
      </trkpt>
      <trkpt lat="50.02039" lon="4.31538">
        <ele>285.6</ele>
        <time>2024-04-28T06:43:44Z</time>
      </trkpt>
      <trkpt lat="50.02035" lon="4.31536">
        <ele>285.8</ele>
        <time>2024-04-28T06:43:45Z</time>
      </trkpt>
      <trkpt lat="50.02031" lon="4.31535">
        <ele>285.8</ele>
        <time>2024-04-28T06:43:46Z</time>
      </trkpt>
      <trkpt lat="50.02027" lon="4.31533">
        <ele>285.8</ele>
        <time>2024-04-28T06:43:47Z</time>
      </trkpt>
      <trkpt lat="50.02022" lon="4.31531">
        <ele>286</ele>
        <time>2024-04-28T06:43:48Z</time>
      </trkpt>
      <trkpt lat="50.02018" lon="4.3153">
        <ele>286.4</ele>
        <time>2024-04-28T06:43:49Z</time>
      </trkpt>
      <trkpt lat="50.02014" lon="4.31528">
        <ele>286.6</ele>
        <time>2024-04-28T06:43:50Z</time>
      </trkpt>
      <trkpt lat="50.0201" lon="4.31526">
        <ele>287</ele>
        <time>2024-04-28T06:43:51Z</time>
      </trkpt>
      <trkpt lat="50.02005" lon="4.31525">
        <ele>287.2</ele>
        <time>2024-04-28T06:43:52Z</time>
      </trkpt>
      <trkpt lat="50.02001" lon="4.31523">
        <ele>287.4</ele>
        <time>2024-04-28T06:43:53Z</time>
      </trkpt>
      <trkpt lat="50.01997" lon="4.31522">
        <ele>287.6</ele>
        <time>2024-04-28T06:43:54Z</time>
      </trkpt>
      <trkpt lat="50.01993" lon="4.3152">
        <ele>287.8</ele>
        <time>2024-04-28T06:43:55Z</time>
      </trkpt>
      <trkpt lat="50.01989" lon="4.31518">
        <ele>287.8</ele>
        <time>2024-04-28T06:43:56Z</time>
      </trkpt>
      <trkpt lat="50.01985" lon="4.31517">
        <ele>288</ele>
        <time>2024-04-28T06:43:57Z</time>
      </trkpt>
      <trkpt lat="50.01981" lon="4.31515">
        <ele>288</ele>
        <time>2024-04-28T06:43:58Z</time>
      </trkpt>
      <trkpt lat="50.01977" lon="4.31514">
        <ele>288.4</ele>
        <time>2024-04-28T06:43:59Z</time>
      </trkpt>
      <trkpt lat="50.01973" lon="4.31512">
        <ele>288.4</ele>
        <time>2024-04-28T06:44:00Z</time>
      </trkpt>
      <trkpt lat="50.01968" lon="4.31511">
        <ele>288.4</ele>
        <time>2024-04-28T06:44:01Z</time>
      </trkpt>
      <trkpt lat="50.01964" lon="4.31509">
        <ele>288.4</ele>
        <time>2024-04-28T06:44:02Z</time>
      </trkpt>
      <trkpt lat="50.0196" lon="4.31507">
        <ele>288.6</ele>
        <time>2024-04-28T06:44:03Z</time>
      </trkpt>
      <trkpt lat="50.01956" lon="4.31506">
        <ele>288.4</ele>
        <time>2024-04-28T06:44:04Z</time>
      </trkpt>
      <trkpt lat="50.01952" lon="4.31505">
        <ele>288.6</ele>
        <time>2024-04-28T06:44:05Z</time>
      </trkpt>
      <trkpt lat="50.01948" lon="4.31503">
        <ele>288.6</ele>
        <time>2024-04-28T06:44:06Z</time>
      </trkpt>
      <trkpt lat="50.01944" lon="4.31502">
        <ele>288.4</ele>
        <time>2024-04-28T06:44:07Z</time>
      </trkpt>
      <trkpt lat="50.0194" lon="4.31501">
        <ele>288.4</ele>
        <time>2024-04-28T06:44:08Z</time>
      </trkpt>
      <trkpt lat="50.01936" lon="4.31499">
        <ele>288.4</ele>
        <time>2024-04-28T06:44:09Z</time>
      </trkpt>
      <trkpt lat="50.01932" lon="4.31498">
        <ele>288.4</ele>
        <time>2024-04-28T06:44:10Z</time>
      </trkpt>
      <trkpt lat="50.01929" lon="4.31496">
        <ele>288.4</ele>
        <time>2024-04-28T06:44:11Z</time>
      </trkpt>
      <trkpt lat="50.01925" lon="4.31495">
        <ele>288.4</ele>
        <time>2024-04-28T06:44:12Z</time>
      </trkpt>
      <trkpt lat="50.0192" lon="4.31493">
        <ele>288.4</ele>
        <time>2024-04-28T06:44:13Z</time>
      </trkpt>
      <trkpt lat="50.01916" lon="4.31492">
        <ele>288.6</ele>
        <time>2024-04-28T06:44:14Z</time>
      </trkpt>
      <trkpt lat="50.01912" lon="4.31491">
        <ele>288.4</ele>
        <time>2024-04-28T06:44:15Z</time>
      </trkpt>
      <trkpt lat="50.01908" lon="4.3149">
        <ele>288.4</ele>
        <time>2024-04-28T06:44:16Z</time>
      </trkpt>
      <trkpt lat="50.01904" lon="4.31489">
        <ele>288.6</ele>
        <time>2024-04-28T06:44:17Z</time>
      </trkpt>
      <trkpt lat="50.019" lon="4.31487">
        <ele>288.8</ele>
        <time>2024-04-28T06:44:18Z</time>
      </trkpt>
      <trkpt lat="50.01895" lon="4.31486">
        <ele>288.8</ele>
        <time>2024-04-28T06:44:19Z</time>
      </trkpt>
      <trkpt lat="50.01891" lon="4.31484">
        <ele>288.8</ele>
        <time>2024-04-28T06:44:20Z</time>
      </trkpt>
      <trkpt lat="50.01887" lon="4.31483">
        <ele>289.8</ele>
        <time>2024-04-28T06:44:21Z</time>
      </trkpt>
      <trkpt lat="50.01882" lon="4.31481">
        <ele>290.6</ele>
        <time>2024-04-28T06:44:22Z</time>
      </trkpt>
      <trkpt lat="50.01878" lon="4.3148">
        <ele>290.8</ele>
        <time>2024-04-28T06:44:23Z</time>
      </trkpt>
      <trkpt lat="50.01874" lon="4.31478">
        <ele>291.2</ele>
        <time>2024-04-28T06:44:24Z</time>
      </trkpt>
      <trkpt lat="50.01869" lon="4.31476">
        <ele>291.4</ele>
        <time>2024-04-28T06:44:25Z</time>
      </trkpt>
      <trkpt lat="50.01865" lon="4.31474">
        <ele>291.6</ele>
        <time>2024-04-28T06:44:26Z</time>
      </trkpt>
      <trkpt lat="50.01861" lon="4.31472">
        <ele>291.8</ele>
        <time>2024-04-28T06:44:27Z</time>
      </trkpt>
      <trkpt lat="50.01857" lon="4.3147">
        <ele>292</ele>
        <time>2024-04-28T06:44:28Z</time>
      </trkpt>
      <trkpt lat="50.01852" lon="4.31468">
        <ele>292</ele>
        <time>2024-04-28T06:44:29Z</time>
      </trkpt>
      <trkpt lat="50.01848" lon="4.31466">
        <ele>292</ele>
        <time>2024-04-28T06:44:30Z</time>
      </trkpt>
      <trkpt lat="50.01844" lon="4.31464">
        <ele>292</ele>
        <time>2024-04-28T06:44:31Z</time>
      </trkpt>
      <trkpt lat="50.0184" lon="4.31462">
        <ele>292</ele>
        <time>2024-04-28T06:44:32Z</time>
      </trkpt>
      <trkpt lat="50.01836" lon="4.3146">
        <ele>292</ele>
        <time>2024-04-28T06:44:33Z</time>
      </trkpt>
      <trkpt lat="50.01832" lon="4.31458">
        <ele>292</ele>
        <time>2024-04-28T06:44:34Z</time>
      </trkpt>
      <trkpt lat="50.01828" lon="4.31456">
        <ele>292.2</ele>
        <time>2024-04-28T06:44:35Z</time>
      </trkpt>
      <trkpt lat="50.01824" lon="4.31454">
        <ele>292.2</ele>
        <time>2024-04-28T06:44:36Z</time>
      </trkpt>
      <trkpt lat="50.01819" lon="4.31452">
        <ele>292.4</ele>
        <time>2024-04-28T06:44:37Z</time>
      </trkpt>
      <trkpt lat="50.01815" lon="4.3145">
        <ele>292.4</ele>
        <time>2024-04-28T06:44:38Z</time>
      </trkpt>
      <trkpt lat="50.01811" lon="4.31448">
        <ele>292.8</ele>
        <time>2024-04-28T06:44:39Z</time>
      </trkpt>
      <trkpt lat="50.01807" lon="4.31446">
        <ele>292.8</ele>
        <time>2024-04-28T06:44:40Z</time>
      </trkpt>
      <trkpt lat="50.01803" lon="4.31444">
        <ele>292.8</ele>
        <time>2024-04-28T06:44:41Z</time>
      </trkpt>
      <trkpt lat="50.01799" lon="4.31442">
        <ele>293</ele>
        <time>2024-04-28T06:44:42Z</time>
      </trkpt>
      <trkpt lat="50.01795" lon="4.3144">
        <ele>293.2</ele>
        <time>2024-04-28T06:44:43Z</time>
      </trkpt>
      <trkpt lat="50.01791" lon="4.31438">
        <ele>293.2</ele>
        <time>2024-04-28T06:44:44Z</time>
      </trkpt>
      <trkpt lat="50.01787" lon="4.31435">
        <ele>293.4</ele>
        <time>2024-04-28T06:44:45Z</time>
      </trkpt>
      <trkpt lat="50.01783" lon="4.31433">
        <ele>293.6</ele>
        <time>2024-04-28T06:44:46Z</time>
      </trkpt>
      <trkpt lat="50.01779" lon="4.3143">
        <ele>293.6</ele>
        <time>2024-04-28T06:44:47Z</time>
      </trkpt>
      <trkpt lat="50.01775" lon="4.31427">
        <ele>293.6</ele>
        <time>2024-04-28T06:44:48Z</time>
      </trkpt>
      <trkpt lat="50.01771" lon="4.31424">
        <ele>293.8</ele>
        <time>2024-04-28T06:44:49Z</time>
      </trkpt>
      <trkpt lat="50.01767" lon="4.31421">
        <ele>294</ele>
        <time>2024-04-28T06:44:50Z</time>
      </trkpt>
      <trkpt lat="50.01764" lon="4.31417">
        <ele>294</ele>
        <time>2024-04-28T06:44:51Z</time>
      </trkpt>
      <trkpt lat="50.0176" lon="4.31414">
        <ele>294.2</ele>
        <time>2024-04-28T06:44:52Z</time>
      </trkpt>
      <trkpt lat="50.01756" lon="4.31411">
        <ele>294.2</ele>
        <time>2024-04-28T06:44:53Z</time>
      </trkpt>
      <trkpt lat="50.01752" lon="4.31408">
        <ele>294.2</ele>
        <time>2024-04-28T06:44:54Z</time>
      </trkpt>
      <trkpt lat="50.01749" lon="4.31405">
        <ele>294.2</ele>
        <time>2024-04-28T06:44:55Z</time>
      </trkpt>
      <trkpt lat="50.01745" lon="4.31402">
        <ele>294.2</ele>
        <time>2024-04-28T06:44:56Z</time>
      </trkpt>
      <trkpt lat="50.01741" lon="4.31398">
        <ele>294.2</ele>
        <time>2024-04-28T06:44:57Z</time>
      </trkpt>
      <trkpt lat="50.01738" lon="4.31395">
        <ele>294.4</ele>
        <time>2024-04-28T06:44:58Z</time>
      </trkpt>
      <trkpt lat="50.01734" lon="4.31392">
        <ele>294.4</ele>
        <time>2024-04-28T06:44:59Z</time>
      </trkpt>
      <trkpt lat="50.01731" lon="4.31389">
        <ele>294.6</ele>
        <time>2024-04-28T06:45:00Z</time>
      </trkpt>
      <trkpt lat="50.01727" lon="4.31385">
        <ele>294.6</ele>
        <time>2024-04-28T06:45:01Z</time>
      </trkpt>
      <trkpt lat="50.01723" lon="4.31383">
        <ele>294.6</ele>
        <time>2024-04-28T06:45:02Z</time>
      </trkpt>
      <trkpt lat="50.01719" lon="4.3138">
        <ele>294.6</ele>
        <time>2024-04-28T06:45:03Z</time>
      </trkpt>
      <trkpt lat="50.01715" lon="4.31377">
        <ele>294.8</ele>
        <time>2024-04-28T06:45:04Z</time>
      </trkpt>
      <trkpt lat="50.01711" lon="4.31375">
        <ele>295.2</ele>
        <time>2024-04-28T06:45:05Z</time>
      </trkpt>
      <trkpt lat="50.01707" lon="4.31372">
        <ele>295.6</ele>
        <time>2024-04-28T06:45:06Z</time>
      </trkpt>
      <trkpt lat="50.01703" lon="4.3137">
        <ele>295.8</ele>
        <time>2024-04-28T06:45:07Z</time>
      </trkpt>
      <trkpt lat="50.01699" lon="4.31368">
        <ele>296.2</ele>
        <time>2024-04-28T06:45:08Z</time>
      </trkpt>
      <trkpt lat="50.01695" lon="4.31366">
        <ele>296.6</ele>
        <time>2024-04-28T06:45:09Z</time>
      </trkpt>
      <trkpt lat="50.0169" lon="4.31364">
        <ele>296.8</ele>
        <time>2024-04-28T06:45:10Z</time>
      </trkpt>
      <trkpt lat="50.01686" lon="4.31362">
        <ele>297.2</ele>
        <time>2024-04-28T06:45:11Z</time>
      </trkpt>
      <trkpt lat="50.01682" lon="4.3136">
        <ele>297.2</ele>
        <time>2024-04-28T06:45:12Z</time>
      </trkpt>
      <trkpt lat="50.01678" lon="4.31358">
        <ele>297.4</ele>
        <time>2024-04-28T06:45:13Z</time>
      </trkpt>
      <trkpt lat="50.01673" lon="4.31356">
        <ele>297.6</ele>
        <time>2024-04-28T06:45:14Z</time>
      </trkpt>
      <trkpt lat="50.01669" lon="4.31354">
        <ele>297.6</ele>
        <time>2024-04-28T06:45:15Z</time>
      </trkpt>
      <trkpt lat="50.01665" lon="4.31351">
        <ele>297.8</ele>
        <time>2024-04-28T06:45:16Z</time>
      </trkpt>
      <trkpt lat="50.01661" lon="4.31349">
        <ele>297.8</ele>
        <time>2024-04-28T06:45:17Z</time>
      </trkpt>
      <trkpt lat="50.01657" lon="4.31346">
        <ele>297.8</ele>
        <time>2024-04-28T06:45:18Z</time>
      </trkpt>
      <trkpt lat="50.01653" lon="4.31344">
        <ele>297.8</ele>
        <time>2024-04-28T06:45:19Z</time>
      </trkpt>
      <trkpt lat="50.01649" lon="4.31341">
        <ele>298</ele>
        <time>2024-04-28T06:45:20Z</time>
      </trkpt>
      <trkpt lat="50.01646" lon="4.31338">
        <ele>298.2</ele>
        <time>2024-04-28T06:45:21Z</time>
      </trkpt>
      <trkpt lat="50.01642" lon="4.31335">
        <ele>298.2</ele>
        <time>2024-04-28T06:45:22Z</time>
      </trkpt>
      <trkpt lat="50.01638" lon="4.31331">
        <ele>298.2</ele>
        <time>2024-04-28T06:45:23Z</time>
      </trkpt>
      <trkpt lat="50.01634" lon="4.31328">
        <ele>298.2</ele>
        <time>2024-04-28T06:45:24Z</time>
      </trkpt>
      <trkpt lat="50.01631" lon="4.31325">
        <ele>298.2</ele>
        <time>2024-04-28T06:45:25Z</time>
      </trkpt>
      <trkpt lat="50.01627" lon="4.31321">
        <ele>298.4</ele>
        <time>2024-04-28T06:45:26Z</time>
      </trkpt>
      <trkpt lat="50.01623" lon="4.31317">
        <ele>298.6</ele>
        <time>2024-04-28T06:45:27Z</time>
      </trkpt>
      <trkpt lat="50.0162" lon="4.31313">
        <ele>298.6</ele>
        <time>2024-04-28T06:45:28Z</time>
      </trkpt>
      <trkpt lat="50.01617" lon="4.31309">
        <ele>298.8</ele>
        <time>2024-04-28T06:45:29Z</time>
      </trkpt>
      <trkpt lat="50.01613" lon="4.31306">
        <ele>299</ele>
        <time>2024-04-28T06:45:30Z</time>
      </trkpt>
      <trkpt lat="50.0161" lon="4.31303">
        <ele>299.2</ele>
        <time>2024-04-28T06:45:31Z</time>
      </trkpt>
      <trkpt lat="50.01606" lon="4.313">
        <ele>299.2</ele>
        <time>2024-04-28T06:45:32Z</time>
      </trkpt>
      <trkpt lat="50.01603" lon="4.31296">
        <ele>299.6</ele>
        <time>2024-04-28T06:45:33Z</time>
      </trkpt>
      <trkpt lat="50.016" lon="4.31293">
        <ele>299.8</ele>
        <time>2024-04-28T06:45:34Z</time>
      </trkpt>
      <trkpt lat="50.01597" lon="4.31289">
        <ele>299.8</ele>
        <time>2024-04-28T06:45:35Z</time>
      </trkpt>
      <trkpt lat="50.01593" lon="4.31285">
        <ele>300.2</ele>
        <time>2024-04-28T06:45:36Z</time>
      </trkpt>
      <trkpt lat="50.01591" lon="4.3128">
        <ele>300.2</ele>
        <time>2024-04-28T06:45:37Z</time>
      </trkpt>
      <trkpt lat="50.01588" lon="4.31275">
        <ele>300.6</ele>
        <time>2024-04-28T06:45:38Z</time>
      </trkpt>
      <trkpt lat="50.01587" lon="4.31268">
        <ele>300.6</ele>
        <time>2024-04-28T06:45:39Z</time>
      </trkpt>
      <trkpt lat="50.01587" lon="4.31261">
        <ele>300.8</ele>
        <time>2024-04-28T06:45:40Z</time>
      </trkpt>
      <trkpt lat="50.01587" lon="4.31254">
        <ele>301</ele>
        <time>2024-04-28T06:45:41Z</time>
      </trkpt>
      <trkpt lat="50.01588" lon="4.31247">
        <ele>301.2</ele>
        <time>2024-04-28T06:45:42Z</time>
      </trkpt>
      <trkpt lat="50.01588" lon="4.31239">
        <ele>301.2</ele>
        <time>2024-04-28T06:45:43Z</time>
      </trkpt>
      <trkpt lat="50.01589" lon="4.31231">
        <ele>301.4</ele>
        <time>2024-04-28T06:45:44Z</time>
      </trkpt>
      <trkpt lat="50.0159" lon="4.31223">
        <ele>301.4</ele>
        <time>2024-04-28T06:45:45Z</time>
      </trkpt>
      <trkpt lat="50.01592" lon="4.31215">
        <ele>301.6</ele>
        <time>2024-04-28T06:45:46Z</time>
      </trkpt>
      <trkpt lat="50.01593" lon="4.31208">
        <ele>301.8</ele>
        <time>2024-04-28T06:45:47Z</time>
      </trkpt>
      <trkpt lat="50.01595" lon="4.31199">
        <ele>301.8</ele>
        <time>2024-04-28T06:45:48Z</time>
      </trkpt>
      <trkpt lat="50.01597" lon="4.31191">
        <ele>302</ele>
        <time>2024-04-28T06:45:49Z</time>
      </trkpt>
      <trkpt lat="50.01598" lon="4.31183">
        <ele>302</ele>
        <time>2024-04-28T06:45:50Z</time>
      </trkpt>
      <trkpt lat="50.016" lon="4.31175">
        <ele>302</ele>
        <time>2024-04-28T06:45:51Z</time>
      </trkpt>
      <trkpt lat="50.01602" lon="4.31166">
        <ele>302</ele>
        <time>2024-04-28T06:45:52Z</time>
      </trkpt>
      <trkpt lat="50.01605" lon="4.31158">
        <ele>302</ele>
        <time>2024-04-28T06:45:53Z</time>
      </trkpt>
      <trkpt lat="50.01607" lon="4.31149">
        <ele>302</ele>
        <time>2024-04-28T06:45:54Z</time>
      </trkpt>
      <trkpt lat="50.01609" lon="4.31139">
        <ele>301.8</ele>
        <time>2024-04-28T06:45:55Z</time>
      </trkpt>
      <trkpt lat="50.01611" lon="4.3113">
        <ele>302</ele>
        <time>2024-04-28T06:45:56Z</time>
      </trkpt>
      <trkpt lat="50.01613" lon="4.3112">
        <ele>302</ele>
        <time>2024-04-28T06:45:57Z</time>
      </trkpt>
      <trkpt lat="50.01615" lon="4.3111">
        <ele>301.8</ele>
        <time>2024-04-28T06:45:58Z</time>
      </trkpt>
      <trkpt lat="50.01617" lon="4.31099">
        <ele>301.6</ele>
        <time>2024-04-28T06:45:59Z</time>
      </trkpt>
      <trkpt lat="50.01619" lon="4.31088">
        <ele>301.4</ele>
        <time>2024-04-28T06:46:00Z</time>
      </trkpt>
      <trkpt lat="50.01621" lon="4.31077">
        <ele>301.4</ele>
        <time>2024-04-28T06:46:01Z</time>
      </trkpt>
      <trkpt lat="50.01624" lon="4.31065">
        <ele>301.4</ele>
        <time>2024-04-28T06:46:02Z</time>
      </trkpt>
      <trkpt lat="50.01626" lon="4.31054">
        <ele>301</ele>
        <time>2024-04-28T06:46:03Z</time>
      </trkpt>
      <trkpt lat="50.01628" lon="4.31042">
        <ele>301</ele>
        <time>2024-04-28T06:46:04Z</time>
      </trkpt>
      <trkpt lat="50.01631" lon="4.3103">
        <ele>300.6</ele>
        <time>2024-04-28T06:46:05Z</time>
      </trkpt>
      <trkpt lat="50.01634" lon="4.31018">
        <ele>300.6</ele>
        <time>2024-04-28T06:46:06Z</time>
      </trkpt>
      <trkpt lat="50.01636" lon="4.31006">
        <ele>300.6</ele>
        <time>2024-04-28T06:46:07Z</time>
      </trkpt>
      <trkpt lat="50.01639" lon="4.30993">
        <ele>300.2</ele>
        <time>2024-04-28T06:46:08Z</time>
      </trkpt>
      <trkpt lat="50.01641" lon="4.30981">
        <ele>300.2</ele>
        <time>2024-04-28T06:46:09Z</time>
      </trkpt>
      <trkpt lat="50.01644" lon="4.30968">
        <ele>300.2</ele>
        <time>2024-04-28T06:46:10Z</time>
      </trkpt>
      <trkpt lat="50.01646" lon="4.30955">
        <ele>299.8</ele>
        <time>2024-04-28T06:46:11Z</time>
      </trkpt>
      <trkpt lat="50.01649" lon="4.30941">
        <ele>299.8</ele>
        <time>2024-04-28T06:46:12Z</time>
      </trkpt>
      <trkpt lat="50.01652" lon="4.30928">
        <ele>299.2</ele>
        <time>2024-04-28T06:46:13Z</time>
      </trkpt>
      <trkpt lat="50.01654" lon="4.30915">
        <ele>299.2</ele>
        <time>2024-04-28T06:46:14Z</time>
      </trkpt>
      <trkpt lat="50.01657" lon="4.30902">
        <ele>298.6</ele>
        <time>2024-04-28T06:46:15Z</time>
      </trkpt>
      <trkpt lat="50.0166" lon="4.30888">
        <ele>298.2</ele>
        <time>2024-04-28T06:46:16Z</time>
      </trkpt>
      <trkpt lat="50.01663" lon="4.30875">
        <ele>298</ele>
        <time>2024-04-28T06:46:17Z</time>
      </trkpt>
      <trkpt lat="50.01666" lon="4.30862">
        <ele>297.8</ele>
        <time>2024-04-28T06:46:18Z</time>
      </trkpt>
      <trkpt lat="50.01669" lon="4.30849">
        <ele>297.6</ele>
        <time>2024-04-28T06:46:19Z</time>
      </trkpt>
      <trkpt lat="50.01672" lon="4.30835">
        <ele>297.2</ele>
        <time>2024-04-28T06:46:20Z</time>
      </trkpt>
      <trkpt lat="50.01675" lon="4.30822">
        <ele>296.8</ele>
        <time>2024-04-28T06:46:21Z</time>
      </trkpt>
      <trkpt lat="50.01678" lon="4.30809">
        <ele>296.6</ele>
        <time>2024-04-28T06:46:22Z</time>
      </trkpt>
      <trkpt lat="50.01682" lon="4.30795">
        <ele>296.4</ele>
        <time>2024-04-28T06:46:23Z</time>
      </trkpt>
      <trkpt lat="50.01685" lon="4.30782">
        <ele>296.2</ele>
        <time>2024-04-28T06:46:24Z</time>
      </trkpt>
      <trkpt lat="50.01688" lon="4.3077">
        <ele>295.8</ele>
        <time>2024-04-28T06:46:25Z</time>
      </trkpt>
      <trkpt lat="50.01691" lon="4.30757">
        <ele>295.4</ele>
        <time>2024-04-28T06:46:26Z</time>
      </trkpt>
      <trkpt lat="50.01693" lon="4.30745">
        <ele>295.4</ele>
        <time>2024-04-28T06:46:27Z</time>
      </trkpt>
      <trkpt lat="50.01696" lon="4.30733">
        <ele>295.2</ele>
        <time>2024-04-28T06:46:28Z</time>
      </trkpt>
      <trkpt lat="50.01698" lon="4.30721">
        <ele>295</ele>
        <time>2024-04-28T06:46:29Z</time>
      </trkpt>
      <trkpt lat="50.01701" lon="4.30709">
        <ele>295</ele>
        <time>2024-04-28T06:46:30Z</time>
      </trkpt>
      <trkpt lat="50.01703" lon="4.30697">
        <ele>295</ele>
        <time>2024-04-28T06:46:31Z</time>
      </trkpt>
      <trkpt lat="50.01706" lon="4.30686">
        <ele>295</ele>
        <time>2024-04-28T06:46:32Z</time>
      </trkpt>
      <trkpt lat="50.01708" lon="4.30674">
        <ele>295</ele>
        <time>2024-04-28T06:46:33Z</time>
      </trkpt>
      <trkpt lat="50.01711" lon="4.30663">
        <ele>295</ele>
        <time>2024-04-28T06:46:34Z</time>
      </trkpt>
      <trkpt lat="50.01713" lon="4.30651">
        <ele>294.8</ele>
        <time>2024-04-28T06:46:35Z</time>
      </trkpt>
      <trkpt lat="50.01715" lon="4.3064">
        <ele>295</ele>
        <time>2024-04-28T06:46:36Z</time>
      </trkpt>
      <trkpt lat="50.01718" lon="4.3063">
        <ele>295</ele>
        <time>2024-04-28T06:46:37Z</time>
      </trkpt>
      <trkpt lat="50.0172" lon="4.30619">
        <ele>295.4</ele>
        <time>2024-04-28T06:46:38Z</time>
      </trkpt>
      <trkpt lat="50.01722" lon="4.30608">
        <ele>295.6</ele>
        <time>2024-04-28T06:46:39Z</time>
      </trkpt>
      <trkpt lat="50.01724" lon="4.30598">
        <ele>295.8</ele>
        <time>2024-04-28T06:46:40Z</time>
      </trkpt>
      <trkpt lat="50.01727" lon="4.30588">
        <ele>295.8</ele>
        <time>2024-04-28T06:46:41Z</time>
      </trkpt>
      <trkpt lat="50.01729" lon="4.30578">
        <ele>296</ele>
        <time>2024-04-28T06:46:42Z</time>
      </trkpt>
      <trkpt lat="50.01731" lon="4.30568">
        <ele>295.8</ele>
        <time>2024-04-28T06:46:43Z</time>
      </trkpt>
      <trkpt lat="50.01733" lon="4.30558">
        <ele>296</ele>
        <time>2024-04-28T06:46:44Z</time>
      </trkpt>
      <trkpt lat="50.01735" lon="4.30548">
        <ele>296</ele>
        <time>2024-04-28T06:46:45Z</time>
      </trkpt>
      <trkpt lat="50.01737" lon="4.30539">
        <ele>296.4</ele>
        <time>2024-04-28T06:46:46Z</time>
      </trkpt>
      <trkpt lat="50.01739" lon="4.30529">
        <ele>296.6</ele>
        <time>2024-04-28T06:46:47Z</time>
      </trkpt>
      <trkpt lat="50.01741" lon="4.3052">
        <ele>296.8</ele>
        <time>2024-04-28T06:46:48Z</time>
      </trkpt>
      <trkpt lat="50.01743" lon="4.3051">
        <ele>297</ele>
        <time>2024-04-28T06:46:49Z</time>
      </trkpt>
      <trkpt lat="50.01745" lon="4.30501">
        <ele>297</ele>
        <time>2024-04-28T06:46:50Z</time>
      </trkpt>
      <trkpt lat="50.01747" lon="4.30492">
        <ele>297</ele>
        <time>2024-04-28T06:46:51Z</time>
      </trkpt>
      <trkpt lat="50.01749" lon="4.30483">
        <ele>297.2</ele>
        <time>2024-04-28T06:46:52Z</time>
      </trkpt>
      <trkpt lat="50.01751" lon="4.30474">
        <ele>297.4</ele>
        <time>2024-04-28T06:46:53Z</time>
      </trkpt>
      <trkpt lat="50.01753" lon="4.30465">
        <ele>297.6</ele>
        <time>2024-04-28T06:46:54Z</time>
      </trkpt>
      <trkpt lat="50.01755" lon="4.30456">
        <ele>297.6</ele>
        <time>2024-04-28T06:46:55Z</time>
      </trkpt>
      <trkpt lat="50.01757" lon="4.30447">
        <ele>297.6</ele>
        <time>2024-04-28T06:46:56Z</time>
      </trkpt>
      <trkpt lat="50.01758" lon="4.30438">
        <ele>297.8</ele>
        <time>2024-04-28T06:46:57Z</time>
      </trkpt>
      <trkpt lat="50.0176" lon="4.30429">
        <ele>298</ele>
        <time>2024-04-28T06:46:58Z</time>
      </trkpt>
      <trkpt lat="50.01762" lon="4.30421">
        <ele>298.2</ele>
        <time>2024-04-28T06:46:59Z</time>
      </trkpt>
      <trkpt lat="50.01763" lon="4.30411">
        <ele>298.2</ele>
        <time>2024-04-28T06:47:00Z</time>
      </trkpt>
      <trkpt lat="50.01763" lon="4.30402">
        <ele>298.2</ele>
        <time>2024-04-28T06:47:01Z</time>
      </trkpt>
      <trkpt lat="50.01763" lon="4.30392">
        <ele>298.4</ele>
        <time>2024-04-28T06:47:02Z</time>
      </trkpt>
      <trkpt lat="50.01761" lon="4.30383">
        <ele>298.6</ele>
        <time>2024-04-28T06:47:03Z</time>
      </trkpt>
      <trkpt lat="50.0176" lon="4.30374">
        <ele>298.6</ele>
        <time>2024-04-28T06:47:04Z</time>
      </trkpt>
      <trkpt lat="50.01758" lon="4.30364">
        <ele>299</ele>
        <time>2024-04-28T06:47:05Z</time>
      </trkpt>
      <trkpt lat="50.01756" lon="4.30355">
        <ele>298.8</ele>
        <time>2024-04-28T06:47:06Z</time>
      </trkpt>
      <trkpt lat="50.01754" lon="4.30346">
        <ele>299.2</ele>
        <time>2024-04-28T06:47:07Z</time>
      </trkpt>
      <trkpt lat="50.01752" lon="4.30337">
        <ele>299</ele>
        <time>2024-04-28T06:47:08Z</time>
      </trkpt>
      <trkpt lat="50.0175" lon="4.30328">
        <ele>299.2</ele>
        <time>2024-04-28T06:47:09Z</time>
      </trkpt>
      <trkpt lat="50.01748" lon="4.30319">
        <ele>299.2</ele>
        <time>2024-04-28T06:47:10Z</time>
      </trkpt>
      <trkpt lat="50.01746" lon="4.30309">
        <ele>299.2</ele>
        <time>2024-04-28T06:47:11Z</time>
      </trkpt>
      <trkpt lat="50.01745" lon="4.303">
        <ele>299.4</ele>
        <time>2024-04-28T06:47:12Z</time>
      </trkpt>
      <trkpt lat="50.01743" lon="4.30291">
        <ele>299.4</ele>
        <time>2024-04-28T06:47:13Z</time>
      </trkpt>
      <trkpt lat="50.01741" lon="4.30282">
        <ele>299.4</ele>
        <time>2024-04-28T06:47:14Z</time>
      </trkpt>
      <trkpt lat="50.01739" lon="4.30273">
        <ele>299.4</ele>
        <time>2024-04-28T06:47:15Z</time>
      </trkpt>
      <trkpt lat="50.01737" lon="4.30264">
        <ele>299.6</ele>
        <time>2024-04-28T06:47:16Z</time>
      </trkpt>
      <trkpt lat="50.01735" lon="4.30256">
        <ele>299.6</ele>
        <time>2024-04-28T06:47:17Z</time>
      </trkpt>
      <trkpt lat="50.01733" lon="4.30247">
        <ele>299.6</ele>
        <time>2024-04-28T06:47:18Z</time>
      </trkpt>
      <trkpt lat="50.01731" lon="4.30239">
        <ele>299.6</ele>
        <time>2024-04-28T06:47:19Z</time>
      </trkpt>
      <trkpt lat="50.01729" lon="4.3023">
        <ele>299.6</ele>
        <time>2024-04-28T06:47:20Z</time>
      </trkpt>
      <trkpt lat="50.01728" lon="4.30221">
        <ele>299.6</ele>
        <time>2024-04-28T06:47:21Z</time>
      </trkpt>
      <trkpt lat="50.01726" lon="4.30212">
        <ele>299.6</ele>
        <time>2024-04-28T06:47:22Z</time>
      </trkpt>
      <trkpt lat="50.01724" lon="4.30203">
        <ele>299.6</ele>
        <time>2024-04-28T06:47:23Z</time>
      </trkpt>
      <trkpt lat="50.01722" lon="4.30195">
        <ele>299.6</ele>
        <time>2024-04-28T06:47:24Z</time>
      </trkpt>
      <trkpt lat="50.0172" lon="4.30186">
        <ele>299.4</ele>
        <time>2024-04-28T06:47:25Z</time>
      </trkpt>
      <trkpt lat="50.01718" lon="4.30177">
        <ele>299.4</ele>
        <time>2024-04-28T06:47:26Z</time>
      </trkpt>
      <trkpt lat="50.01716" lon="4.30168">
        <ele>299.4</ele>
        <time>2024-04-28T06:47:27Z</time>
      </trkpt>
      <trkpt lat="50.01714" lon="4.30159">
        <ele>299.4</ele>
        <time>2024-04-28T06:47:28Z</time>
      </trkpt>
      <trkpt lat="50.01711" lon="4.3015">
        <ele>299.4</ele>
        <time>2024-04-28T06:47:29Z</time>
      </trkpt>
      <trkpt lat="50.01709" lon="4.3014">
        <ele>299.4</ele>
        <time>2024-04-28T06:47:30Z</time>
      </trkpt>
      <trkpt lat="50.01707" lon="4.3013">
        <ele>299.4</ele>
        <time>2024-04-28T06:47:31Z</time>
      </trkpt>
      <trkpt lat="50.01705" lon="4.3012">
        <ele>299.6</ele>
        <time>2024-04-28T06:47:32Z</time>
      </trkpt>
      <trkpt lat="50.01703" lon="4.3011">
        <ele>299.6</ele>
        <time>2024-04-28T06:47:33Z</time>
      </trkpt>
      <trkpt lat="50.01701" lon="4.301">
        <ele>299.6</ele>
        <time>2024-04-28T06:47:34Z</time>
      </trkpt>
      <trkpt lat="50.01699" lon="4.3009">
        <ele>299.8</ele>
        <time>2024-04-28T06:47:35Z</time>
      </trkpt>
      <trkpt lat="50.01697" lon="4.3008">
        <ele>300</ele>
        <time>2024-04-28T06:47:36Z</time>
      </trkpt>
      <trkpt lat="50.01695" lon="4.3007">
        <ele>299.8</ele>
        <time>2024-04-28T06:47:37Z</time>
      </trkpt>
      <trkpt lat="50.01692" lon="4.3006">
        <ele>299.8</ele>
        <time>2024-04-28T06:47:38Z</time>
      </trkpt>
      <trkpt lat="50.0169" lon="4.3005">
        <ele>299.6</ele>
        <time>2024-04-28T06:47:39Z</time>
      </trkpt>
      <trkpt lat="50.01688" lon="4.3004">
        <ele>299.6</ele>
        <time>2024-04-28T06:47:40Z</time>
      </trkpt>
      <trkpt lat="50.01686" lon="4.3003">
        <ele>299.6</ele>
        <time>2024-04-28T06:47:41Z</time>
      </trkpt>
      <trkpt lat="50.01684" lon="4.3002">
        <ele>299.6</ele>
        <time>2024-04-28T06:47:42Z</time>
      </trkpt>
      <trkpt lat="50.01681" lon="4.3001">
        <ele>299.6</ele>
        <time>2024-04-28T06:47:43Z</time>
      </trkpt>
      <trkpt lat="50.01679" lon="4.3">
        <ele>299.6</ele>
        <time>2024-04-28T06:47:44Z</time>
      </trkpt>
      <trkpt lat="50.01677" lon="4.29991">
        <ele>299.6</ele>
        <time>2024-04-28T06:47:45Z</time>
      </trkpt>
      <trkpt lat="50.01675" lon="4.29981">
        <ele>299.6</ele>
        <time>2024-04-28T06:47:46Z</time>
      </trkpt>
      <trkpt lat="50.01673" lon="4.29971">
        <ele>299.6</ele>
        <time>2024-04-28T06:47:47Z</time>
      </trkpt>
      <trkpt lat="50.0167" lon="4.29961">
        <ele>299.4</ele>
        <time>2024-04-28T06:47:48Z</time>
      </trkpt>
      <trkpt lat="50.01669" lon="4.29952">
        <ele>299.4</ele>
        <time>2024-04-28T06:47:49Z</time>
      </trkpt>
      <trkpt lat="50.01667" lon="4.29942">
        <ele>299.4</ele>
        <time>2024-04-28T06:47:50Z</time>
      </trkpt>
      <trkpt lat="50.01664" lon="4.29933">
        <ele>299.4</ele>
        <time>2024-04-28T06:47:51Z</time>
      </trkpt>
      <trkpt lat="50.01662" lon="4.29923">
        <ele>299.4</ele>
        <time>2024-04-28T06:47:52Z</time>
      </trkpt>
      <trkpt lat="50.0166" lon="4.29913">
        <ele>299.4</ele>
        <time>2024-04-28T06:47:53Z</time>
      </trkpt>
      <trkpt lat="50.01658" lon="4.29904">
        <ele>299.4</ele>
        <time>2024-04-28T06:47:54Z</time>
      </trkpt>
      <trkpt lat="50.01656" lon="4.29893">
        <ele>299.4</ele>
        <time>2024-04-28T06:47:55Z</time>
      </trkpt>
      <trkpt lat="50.01653" lon="4.29884">
        <ele>299.4</ele>
        <time>2024-04-28T06:47:56Z</time>
      </trkpt>
      <trkpt lat="50.01652" lon="4.29873">
        <ele>299.4</ele>
        <time>2024-04-28T06:47:57Z</time>
      </trkpt>
      <trkpt lat="50.0165" lon="4.29862">
        <ele>299.6</ele>
        <time>2024-04-28T06:47:58Z</time>
      </trkpt>
      <trkpt lat="50.01648" lon="4.29852">
        <ele>299.4</ele>
        <time>2024-04-28T06:47:59Z</time>
      </trkpt>
      <trkpt lat="50.01646" lon="4.29841">
        <ele>299.6</ele>
        <time>2024-04-28T06:48:00Z</time>
      </trkpt>
      <trkpt lat="50.01643" lon="4.29831">
        <ele>299.4</ele>
        <time>2024-04-28T06:48:01Z</time>
      </trkpt>
      <trkpt lat="50.01641" lon="4.29821">
        <ele>299.4</ele>
        <time>2024-04-28T06:48:02Z</time>
      </trkpt>
      <trkpt lat="50.01638" lon="4.2981">
        <ele>299.6</ele>
        <time>2024-04-28T06:48:03Z</time>
      </trkpt>
      <trkpt lat="50.01636" lon="4.29799">
        <ele>299.6</ele>
        <time>2024-04-28T06:48:04Z</time>
      </trkpt>
      <trkpt lat="50.01634" lon="4.29788">
        <ele>299.8</ele>
        <time>2024-04-28T06:48:05Z</time>
      </trkpt>
      <trkpt lat="50.01632" lon="4.29778">
        <ele>299.8</ele>
        <time>2024-04-28T06:48:06Z</time>
      </trkpt>
      <trkpt lat="50.01629" lon="4.29766">
        <ele>300</ele>
        <time>2024-04-28T06:48:07Z</time>
      </trkpt>
      <trkpt lat="50.01627" lon="4.29755">
        <ele>300</ele>
        <time>2024-04-28T06:48:08Z</time>
      </trkpt>
      <trkpt lat="50.01625" lon="4.29745">
        <ele>300</ele>
        <time>2024-04-28T06:48:09Z</time>
      </trkpt>
      <trkpt lat="50.01622" lon="4.29734">
        <ele>300</ele>
        <time>2024-04-28T06:48:10Z</time>
      </trkpt>
      <trkpt lat="50.0162" lon="4.29723">
        <ele>299.8</ele>
        <time>2024-04-28T06:48:11Z</time>
      </trkpt>
      <trkpt lat="50.01618" lon="4.29712">
        <ele>299.6</ele>
        <time>2024-04-28T06:48:12Z</time>
      </trkpt>
      <trkpt lat="50.01616" lon="4.29701">
        <ele>299.2</ele>
        <time>2024-04-28T06:48:13Z</time>
      </trkpt>
      <trkpt lat="50.01613" lon="4.29691">
        <ele>299.2</ele>
        <time>2024-04-28T06:48:14Z</time>
      </trkpt>
      <trkpt lat="50.0161" lon="4.2968">
        <ele>299</ele>
        <time>2024-04-28T06:48:15Z</time>
      </trkpt>
      <trkpt lat="50.01608" lon="4.29669">
        <ele>299</ele>
        <time>2024-04-28T06:48:16Z</time>
      </trkpt>
      <trkpt lat="50.01605" lon="4.29659">
        <ele>298.8</ele>
        <time>2024-04-28T06:48:17Z</time>
      </trkpt>
      <trkpt lat="50.01603" lon="4.29648">
        <ele>298.6</ele>
        <time>2024-04-28T06:48:18Z</time>
      </trkpt>
      <trkpt lat="50.016" lon="4.29637">
        <ele>298.6</ele>
        <time>2024-04-28T06:48:19Z</time>
      </trkpt>
      <trkpt lat="50.01598" lon="4.29625">
        <ele>298.6</ele>
        <time>2024-04-28T06:48:20Z</time>
      </trkpt>
      <trkpt lat="50.01595" lon="4.29613">
        <ele>298.4</ele>
        <time>2024-04-28T06:48:21Z</time>
      </trkpt>
      <trkpt lat="50.01592" lon="4.29602">
        <ele>298</ele>
        <time>2024-04-28T06:48:22Z</time>
      </trkpt>
      <trkpt lat="50.01589" lon="4.2959">
        <ele>298.2</ele>
        <time>2024-04-28T06:48:23Z</time>
      </trkpt>
      <trkpt lat="50.01587" lon="4.29578">
        <ele>298</ele>
        <time>2024-04-28T06:48:24Z</time>
      </trkpt>
      <trkpt lat="50.01584" lon="4.29567">
        <ele>298.2</ele>
        <time>2024-04-28T06:48:25Z</time>
      </trkpt>
      <trkpt lat="50.01582" lon="4.29556">
        <ele>298.2</ele>
        <time>2024-04-28T06:48:26Z</time>
      </trkpt>
      <trkpt lat="50.0158" lon="4.29544">
        <ele>298</ele>
        <time>2024-04-28T06:48:27Z</time>
      </trkpt>
      <trkpt lat="50.01578" lon="4.29533">
        <ele>297.8</ele>
        <time>2024-04-28T06:48:28Z</time>
      </trkpt>
      <trkpt lat="50.01575" lon="4.29521">
        <ele>297.8</ele>
        <time>2024-04-28T06:48:29Z</time>
      </trkpt>
      <trkpt lat="50.01573" lon="4.2951">
        <ele>297.6</ele>
        <time>2024-04-28T06:48:30Z</time>
      </trkpt>
      <trkpt lat="50.0157" lon="4.29499">
        <ele>297.6</ele>
        <time>2024-04-28T06:48:31Z</time>
      </trkpt>
      <trkpt lat="50.01568" lon="4.29487">
        <ele>297.6</ele>
        <time>2024-04-28T06:48:32Z</time>
      </trkpt>
      <trkpt lat="50.01565" lon="4.29477">
        <ele>297.4</ele>
        <time>2024-04-28T06:48:33Z</time>
      </trkpt>
      <trkpt lat="50.01563" lon="4.29465">
        <ele>297.2</ele>
        <time>2024-04-28T06:48:34Z</time>
      </trkpt>
      <trkpt lat="50.0156" lon="4.29454">
        <ele>297.2</ele>
        <time>2024-04-28T06:48:35Z</time>
      </trkpt>
      <trkpt lat="50.01558" lon="4.29443">
        <ele>297.2</ele>
        <time>2024-04-28T06:48:36Z</time>
      </trkpt>
      <trkpt lat="50.01556" lon="4.29432">
        <ele>297.2</ele>
        <time>2024-04-28T06:48:37Z</time>
      </trkpt>
      <trkpt lat="50.01554" lon="4.29421">
        <ele>297</ele>
        <time>2024-04-28T06:48:38Z</time>
      </trkpt>
      <trkpt lat="50.01551" lon="4.29411">
        <ele>297</ele>
        <time>2024-04-28T06:48:39Z</time>
      </trkpt>
      <trkpt lat="50.01549" lon="4.29399">
        <ele>297</ele>
        <time>2024-04-28T06:48:40Z</time>
      </trkpt>
      <trkpt lat="50.01547" lon="4.29389">
        <ele>297</ele>
        <time>2024-04-28T06:48:41Z</time>
      </trkpt>
      <trkpt lat="50.01544" lon="4.29378">
        <ele>296.8</ele>
        <time>2024-04-28T06:48:42Z</time>
      </trkpt>
      <trkpt lat="50.01542" lon="4.29366">
        <ele>296.6</ele>
        <time>2024-04-28T06:48:43Z</time>
      </trkpt>
      <trkpt lat="50.01539" lon="4.29355">
        <ele>296.6</ele>
        <time>2024-04-28T06:48:44Z</time>
      </trkpt>
      <trkpt lat="50.01537" lon="4.29344">
        <ele>296.6</ele>
        <time>2024-04-28T06:48:45Z</time>
      </trkpt>
      <trkpt lat="50.01535" lon="4.29333">
        <ele>296.4</ele>
        <time>2024-04-28T06:48:46Z</time>
      </trkpt>
      <trkpt lat="50.01532" lon="4.29322">
        <ele>296.4</ele>
        <time>2024-04-28T06:48:47Z</time>
      </trkpt>
      <trkpt lat="50.01529" lon="4.29312">
        <ele>296.4</ele>
        <time>2024-04-28T06:48:48Z</time>
      </trkpt>
      <trkpt lat="50.01526" lon="4.29301">
        <ele>296.4</ele>
        <time>2024-04-28T06:48:49Z</time>
      </trkpt>
      <trkpt lat="50.01524" lon="4.2929">
        <ele>296.4</ele>
        <time>2024-04-28T06:48:50Z</time>
      </trkpt>
      <trkpt lat="50.01522" lon="4.29279">
        <ele>296.4</ele>
        <time>2024-04-28T06:48:51Z</time>
      </trkpt>
      <trkpt lat="50.0152" lon="4.29268">
        <ele>296.2</ele>
        <time>2024-04-28T06:48:52Z</time>
      </trkpt>
      <trkpt lat="50.01518" lon="4.29257">
        <ele>296.4</ele>
        <time>2024-04-28T06:48:53Z</time>
      </trkpt>
      <trkpt lat="50.01515" lon="4.29246">
        <ele>296.4</ele>
        <time>2024-04-28T06:48:54Z</time>
      </trkpt>
      <trkpt lat="50.01513" lon="4.29235">
        <ele>296.4</ele>
        <time>2024-04-28T06:48:55Z</time>
      </trkpt>
      <trkpt lat="50.0151" lon="4.29224">
        <ele>296.4</ele>
        <time>2024-04-28T06:48:56Z</time>
      </trkpt>
      <trkpt lat="50.01508" lon="4.29213">
        <ele>296.2</ele>
        <time>2024-04-28T06:48:57Z</time>
      </trkpt>
      <trkpt lat="50.01506" lon="4.29202">
        <ele>296.2</ele>
        <time>2024-04-28T06:48:58Z</time>
      </trkpt>
      <trkpt lat="50.01503" lon="4.29191">
        <ele>296.4</ele>
        <time>2024-04-28T06:48:59Z</time>
      </trkpt>
      <trkpt lat="50.01501" lon="4.2918">
        <ele>296.2</ele>
        <time>2024-04-28T06:49:00Z</time>
      </trkpt>
      <trkpt lat="50.01499" lon="4.29169">
        <ele>296.2</ele>
        <time>2024-04-28T06:49:01Z</time>
      </trkpt>
      <trkpt lat="50.01496" lon="4.29158">
        <ele>296.2</ele>
        <time>2024-04-28T06:49:02Z</time>
      </trkpt>
      <trkpt lat="50.01494" lon="4.29147">
        <ele>296.2</ele>
        <time>2024-04-28T06:49:03Z</time>
      </trkpt>
      <trkpt lat="50.01491" lon="4.29136">
        <ele>296</ele>
        <time>2024-04-28T06:49:04Z</time>
      </trkpt>
      <trkpt lat="50.01489" lon="4.29125">
        <ele>296</ele>
        <time>2024-04-28T06:49:05Z</time>
      </trkpt>
      <trkpt lat="50.01487" lon="4.29114">
        <ele>296</ele>
        <time>2024-04-28T06:49:06Z</time>
      </trkpt>
      <trkpt lat="50.01485" lon="4.29103">
        <ele>296</ele>
        <time>2024-04-28T06:49:07Z</time>
      </trkpt>
      <trkpt lat="50.01483" lon="4.29092">
        <ele>296.2</ele>
        <time>2024-04-28T06:49:08Z</time>
      </trkpt>
      <trkpt lat="50.0148" lon="4.2908">
        <ele>296</ele>
        <time>2024-04-28T06:49:09Z</time>
      </trkpt>
      <trkpt lat="50.01478" lon="4.29069">
        <ele>296</ele>
        <time>2024-04-28T06:49:10Z</time>
      </trkpt>
      <trkpt lat="50.01476" lon="4.29058">
        <ele>295.6</ele>
        <time>2024-04-28T06:49:11Z</time>
      </trkpt>
      <trkpt lat="50.01473" lon="4.29047">
        <ele>295.4</ele>
        <time>2024-04-28T06:49:12Z</time>
      </trkpt>
      <trkpt lat="50.01471" lon="4.29036">
        <ele>295.2</ele>
        <time>2024-04-28T06:49:13Z</time>
      </trkpt>
      <trkpt lat="50.01469" lon="4.29025">
        <ele>295.2</ele>
        <time>2024-04-28T06:49:14Z</time>
      </trkpt>
      <trkpt lat="50.01466" lon="4.29013">
        <ele>295</ele>
        <time>2024-04-28T06:49:15Z</time>
      </trkpt>
      <trkpt lat="50.01464" lon="4.29002">
        <ele>295</ele>
        <time>2024-04-28T06:49:16Z</time>
      </trkpt>
      <trkpt lat="50.01462" lon="4.28991">
        <ele>294.8</ele>
        <time>2024-04-28T06:49:17Z</time>
      </trkpt>
      <trkpt lat="50.01459" lon="4.28979">
        <ele>294.8</ele>
        <time>2024-04-28T06:49:18Z</time>
      </trkpt>
      <trkpt lat="50.01457" lon="4.28968">
        <ele>294.8</ele>
        <time>2024-04-28T06:49:19Z</time>
      </trkpt>
      <trkpt lat="50.01454" lon="4.28957">
        <ele>294.8</ele>
        <time>2024-04-28T06:49:20Z</time>
      </trkpt>
      <trkpt lat="50.01452" lon="4.28945">
        <ele>295</ele>
        <time>2024-04-28T06:49:21Z</time>
      </trkpt>
      <trkpt lat="50.0145" lon="4.28934">
        <ele>295</ele>
        <time>2024-04-28T06:49:22Z</time>
      </trkpt>
      <trkpt lat="50.01447" lon="4.28923">
        <ele>295</ele>
        <time>2024-04-28T06:49:23Z</time>
      </trkpt>
      <trkpt lat="50.01445" lon="4.28912">
        <ele>294.8</ele>
        <time>2024-04-28T06:49:24Z</time>
      </trkpt>
      <trkpt lat="50.01442" lon="4.28901">
        <ele>294.8</ele>
        <time>2024-04-28T06:49:25Z</time>
      </trkpt>
      <trkpt lat="50.0144" lon="4.28891">
        <ele>295</ele>
        <time>2024-04-28T06:49:26Z</time>
      </trkpt>
      <trkpt lat="50.01438" lon="4.2888">
        <ele>295</ele>
        <time>2024-04-28T06:49:27Z</time>
      </trkpt>
      <trkpt lat="50.01435" lon="4.28869">
        <ele>295</ele>
        <time>2024-04-28T06:49:28Z</time>
      </trkpt>
      <trkpt lat="50.01433" lon="4.28858">
        <ele>294.8</ele>
        <time>2024-04-28T06:49:29Z</time>
      </trkpt>
      <trkpt lat="50.01431" lon="4.28847">
        <ele>294.8</ele>
        <time>2024-04-28T06:49:30Z</time>
      </trkpt>
      <trkpt lat="50.01428" lon="4.28836">
        <ele>294.6</ele>
        <time>2024-04-28T06:49:31Z</time>
      </trkpt>
      <trkpt lat="50.01426" lon="4.28825">
        <ele>294.6</ele>
        <time>2024-04-28T06:49:32Z</time>
      </trkpt>
      <trkpt lat="50.01424" lon="4.28814">
        <ele>294.2</ele>
        <time>2024-04-28T06:49:33Z</time>
      </trkpt>
      <trkpt lat="50.01421" lon="4.28803">
        <ele>294</ele>
        <time>2024-04-28T06:49:34Z</time>
      </trkpt>
      <trkpt lat="50.01419" lon="4.28792">
        <ele>294.2</ele>
        <time>2024-04-28T06:49:35Z</time>
      </trkpt>
      <trkpt lat="50.01416" lon="4.28781">
        <ele>294</ele>
        <time>2024-04-28T06:49:36Z</time>
      </trkpt>
      <trkpt lat="50.01414" lon="4.28771">
        <ele>294</ele>
        <time>2024-04-28T06:49:37Z</time>
      </trkpt>
      <trkpt lat="50.01412" lon="4.2876">
        <ele>294</ele>
        <time>2024-04-28T06:49:38Z</time>
      </trkpt>
      <trkpt lat="50.01409" lon="4.28749">
        <ele>293.8</ele>
        <time>2024-04-28T06:49:39Z</time>
      </trkpt>
      <trkpt lat="50.01407" lon="4.28738">
        <ele>294</ele>
        <time>2024-04-28T06:49:40Z</time>
      </trkpt>
      <trkpt lat="50.01405" lon="4.28727">
        <ele>294</ele>
        <time>2024-04-28T06:49:41Z</time>
      </trkpt>
      <trkpt lat="50.01402" lon="4.28716">
        <ele>294</ele>
        <time>2024-04-28T06:49:42Z</time>
      </trkpt>
      <trkpt lat="50.014" lon="4.28705">
        <ele>294</ele>
        <time>2024-04-28T06:49:43Z</time>
      </trkpt>
      <trkpt lat="50.01397" lon="4.28694">
        <ele>293.8</ele>
        <time>2024-04-28T06:49:44Z</time>
      </trkpt>
      <trkpt lat="50.01395" lon="4.28683">
        <ele>293.8</ele>
        <time>2024-04-28T06:49:45Z</time>
      </trkpt>
      <trkpt lat="50.01393" lon="4.28671">
        <ele>293.8</ele>
        <time>2024-04-28T06:49:46Z</time>
      </trkpt>
      <trkpt lat="50.01391" lon="4.2866">
        <ele>293.8</ele>
        <time>2024-04-28T06:49:47Z</time>
      </trkpt>
      <trkpt lat="50.01388" lon="4.28648">
        <ele>293.8</ele>
        <time>2024-04-28T06:49:48Z</time>
      </trkpt>
      <trkpt lat="50.01386" lon="4.28636">
        <ele>293.6</ele>
        <time>2024-04-28T06:49:49Z</time>
      </trkpt>
      <trkpt lat="50.01383" lon="4.28624">
        <ele>293.6</ele>
        <time>2024-04-28T06:49:50Z</time>
      </trkpt>
      <trkpt lat="50.01381" lon="4.28612">
        <ele>293.2</ele>
        <time>2024-04-28T06:49:51Z</time>
      </trkpt>
      <trkpt lat="50.01378" lon="4.286">
        <ele>293.2</ele>
        <time>2024-04-28T06:49:52Z</time>
      </trkpt>
      <trkpt lat="50.01376" lon="4.28587">
        <ele>293</ele>
        <time>2024-04-28T06:49:53Z</time>
      </trkpt>
      <trkpt lat="50.01373" lon="4.28574">
        <ele>292.8</ele>
        <time>2024-04-28T06:49:54Z</time>
      </trkpt>
      <trkpt lat="50.0137" lon="4.28562">
        <ele>292.4</ele>
        <time>2024-04-28T06:49:55Z</time>
      </trkpt>
      <trkpt lat="50.01367" lon="4.28549">
        <ele>292.2</ele>
        <time>2024-04-28T06:49:56Z</time>
      </trkpt>
      <trkpt lat="50.01364" lon="4.28536">
        <ele>292</ele>
        <time>2024-04-28T06:49:57Z</time>
      </trkpt>
      <trkpt lat="50.01361" lon="4.28523">
        <ele>292</ele>
        <time>2024-04-28T06:49:58Z</time>
      </trkpt>
      <trkpt lat="50.01358" lon="4.2851">
        <ele>291.6</ele>
        <time>2024-04-28T06:49:59Z</time>
      </trkpt>
      <trkpt lat="50.01355" lon="4.28497">
        <ele>291.4</ele>
        <time>2024-04-28T06:50:00Z</time>
      </trkpt>
      <trkpt lat="50.01352" lon="4.28483">
        <ele>291.2</ele>
        <time>2024-04-28T06:50:01Z</time>
      </trkpt>
      <trkpt lat="50.01349" lon="4.2847">
        <ele>291.2</ele>
        <time>2024-04-28T06:50:02Z</time>
      </trkpt>
      <trkpt lat="50.01346" lon="4.28456">
        <ele>291</ele>
        <time>2024-04-28T06:50:03Z</time>
      </trkpt>
      <trkpt lat="50.01343" lon="4.28442">
        <ele>291</ele>
        <time>2024-04-28T06:50:04Z</time>
      </trkpt>
      <trkpt lat="50.0134" lon="4.28428">
        <ele>290.4</ele>
        <time>2024-04-28T06:50:05Z</time>
      </trkpt>
      <trkpt lat="50.01337" lon="4.28414">
        <ele>289.8</ele>
        <time>2024-04-28T06:50:06Z</time>
      </trkpt>
      <trkpt lat="50.01334" lon="4.284">
        <ele>289.4</ele>
        <time>2024-04-28T06:50:07Z</time>
      </trkpt>
      <trkpt lat="50.01331" lon="4.28386">
        <ele>289.2</ele>
        <time>2024-04-28T06:50:08Z</time>
      </trkpt>
      <trkpt lat="50.01328" lon="4.28372">
        <ele>288.8</ele>
        <time>2024-04-28T06:50:09Z</time>
      </trkpt>
      <trkpt lat="50.01324" lon="4.28358">
        <ele>288.6</ele>
        <time>2024-04-28T06:50:10Z</time>
      </trkpt>
      <trkpt lat="50.01321" lon="4.28343">
        <ele>288.4</ele>
        <time>2024-04-28T06:50:11Z</time>
      </trkpt>
      <trkpt lat="50.01318" lon="4.28329">
        <ele>287.4</ele>
        <time>2024-04-28T06:50:12Z</time>
      </trkpt>
      <trkpt lat="50.01315" lon="4.28315">
        <ele>286.8</ele>
        <time>2024-04-28T06:50:13Z</time>
      </trkpt>
      <trkpt lat="50.01312" lon="4.28301">
        <ele>286.2</ele>
        <time>2024-04-28T06:50:14Z</time>
      </trkpt>
      <trkpt lat="50.01308" lon="4.28286">
        <ele>285.8</ele>
        <time>2024-04-28T06:50:15Z</time>
      </trkpt>
      <trkpt lat="50.01305" lon="4.28271">
        <ele>285.4</ele>
        <time>2024-04-28T06:50:16Z</time>
      </trkpt>
      <trkpt lat="50.01302" lon="4.28257">
        <ele>284.8</ele>
        <time>2024-04-28T06:50:17Z</time>
      </trkpt>
      <trkpt lat="50.01299" lon="4.28242">
        <ele>284.4</ele>
        <time>2024-04-28T06:50:18Z</time>
      </trkpt>
      <trkpt lat="50.01296" lon="4.28228">
        <ele>284</ele>
        <time>2024-04-28T06:50:19Z</time>
      </trkpt>
      <trkpt lat="50.01293" lon="4.28213">
        <ele>283.6</ele>
        <time>2024-04-28T06:50:20Z</time>
      </trkpt>
      <trkpt lat="50.0129" lon="4.28199">
        <ele>283.4</ele>
        <time>2024-04-28T06:50:21Z</time>
      </trkpt>
      <trkpt lat="50.01286" lon="4.28185">
        <ele>282.8</ele>
        <time>2024-04-28T06:50:22Z</time>
      </trkpt>
      <trkpt lat="50.01283" lon="4.2817">
        <ele>282.4</ele>
        <time>2024-04-28T06:50:23Z</time>
      </trkpt>
      <trkpt lat="50.0128" lon="4.28155">
        <ele>282.4</ele>
        <time>2024-04-28T06:50:24Z</time>
      </trkpt>
      <trkpt lat="50.01278" lon="4.28141">
        <ele>282.2</ele>
        <time>2024-04-28T06:50:25Z</time>
      </trkpt>
      <trkpt lat="50.01275" lon="4.28127">
        <ele>281.8</ele>
        <time>2024-04-28T06:50:26Z</time>
      </trkpt>
      <trkpt lat="50.01272" lon="4.28114">
        <ele>281.2</ele>
        <time>2024-04-28T06:50:27Z</time>
      </trkpt>
      <trkpt lat="50.01269" lon="4.281">
        <ele>281</ele>
        <time>2024-04-28T06:50:28Z</time>
      </trkpt>
      <trkpt lat="50.01267" lon="4.28086">
        <ele>280.6</ele>
        <time>2024-04-28T06:50:29Z</time>
      </trkpt>
      <trkpt lat="50.01264" lon="4.28073">
        <ele>280.8</ele>
        <time>2024-04-28T06:50:30Z</time>
      </trkpt>
      <trkpt lat="50.01261" lon="4.2806">
        <ele>280.6</ele>
        <time>2024-04-28T06:50:31Z</time>
      </trkpt>
      <trkpt lat="50.01259" lon="4.28047">
        <ele>280.6</ele>
        <time>2024-04-28T06:50:32Z</time>
      </trkpt>
      <trkpt lat="50.01256" lon="4.28035">
        <ele>280.6</ele>
        <time>2024-04-28T06:50:33Z</time>
      </trkpt>
      <trkpt lat="50.01254" lon="4.28022">
        <ele>280.6</ele>
        <time>2024-04-28T06:50:34Z</time>
      </trkpt>
      <trkpt lat="50.01251" lon="4.28009">
        <ele>280.6</ele>
        <time>2024-04-28T06:50:35Z</time>
      </trkpt>
      <trkpt lat="50.01249" lon="4.27997">
        <ele>280.4</ele>
        <time>2024-04-28T06:50:36Z</time>
      </trkpt>
      <trkpt lat="50.01246" lon="4.27985">
        <ele>280.6</ele>
        <time>2024-04-28T06:50:37Z</time>
      </trkpt>
      <trkpt lat="50.01243" lon="4.27973">
        <ele>280.6</ele>
        <time>2024-04-28T06:50:38Z</time>
      </trkpt>
      <trkpt lat="50.01241" lon="4.27961">
        <ele>280.8</ele>
        <time>2024-04-28T06:50:39Z</time>
      </trkpt>
      <trkpt lat="50.01238" lon="4.27949">
        <ele>280.8</ele>
        <time>2024-04-28T06:50:40Z</time>
      </trkpt>
      <trkpt lat="50.01236" lon="4.27937">
        <ele>281</ele>
        <time>2024-04-28T06:50:41Z</time>
      </trkpt>
      <trkpt lat="50.01233" lon="4.27925">
        <ele>281.4</ele>
        <time>2024-04-28T06:50:42Z</time>
      </trkpt>
      <trkpt lat="50.0123" lon="4.27913">
        <ele>281.2</ele>
        <time>2024-04-28T06:50:43Z</time>
      </trkpt>
      <trkpt lat="50.01227" lon="4.27902">
        <ele>281.4</ele>
        <time>2024-04-28T06:50:44Z</time>
      </trkpt>
      <trkpt lat="50.01225" lon="4.2789">
        <ele>281.4</ele>
        <time>2024-04-28T06:50:45Z</time>
      </trkpt>
      <trkpt lat="50.01222" lon="4.27879">
        <ele>281.4</ele>
        <time>2024-04-28T06:50:46Z</time>
      </trkpt>
      <trkpt lat="50.01219" lon="4.27867">
        <ele>281.4</ele>
        <time>2024-04-28T06:50:47Z</time>
      </trkpt>
      <trkpt lat="50.01217" lon="4.27856">
        <ele>281.4</ele>
        <time>2024-04-28T06:50:48Z</time>
      </trkpt>
      <trkpt lat="50.01215" lon="4.27844">
        <ele>281.4</ele>
        <time>2024-04-28T06:50:49Z</time>
      </trkpt>
      <trkpt lat="50.01212" lon="4.27833">
        <ele>281.4</ele>
        <time>2024-04-28T06:50:50Z</time>
      </trkpt>
      <trkpt lat="50.0121" lon="4.27821">
        <ele>281.2</ele>
        <time>2024-04-28T06:50:51Z</time>
      </trkpt>
      <trkpt lat="50.01207" lon="4.27809">
        <ele>281.2</ele>
        <time>2024-04-28T06:50:52Z</time>
      </trkpt>
      <trkpt lat="50.01204" lon="4.27798">
        <ele>281.2</ele>
        <time>2024-04-28T06:50:53Z</time>
      </trkpt>
      <trkpt lat="50.01202" lon="4.27786">
        <ele>280.8</ele>
        <time>2024-04-28T06:50:54Z</time>
      </trkpt>
      <trkpt lat="50.01199" lon="4.27775">
        <ele>280.4</ele>
        <time>2024-04-28T06:50:55Z</time>
      </trkpt>
      <trkpt lat="50.01197" lon="4.27763">
        <ele>280.4</ele>
        <time>2024-04-28T06:50:56Z</time>
      </trkpt>
      <trkpt lat="50.01194" lon="4.27751">
        <ele>280.2</ele>
        <time>2024-04-28T06:50:57Z</time>
      </trkpt>
      <trkpt lat="50.01192" lon="4.2774">
        <ele>280.2</ele>
        <time>2024-04-28T06:50:58Z</time>
      </trkpt>
      <trkpt lat="50.01189" lon="4.27729">
        <ele>280.4</ele>
        <time>2024-04-28T06:50:59Z</time>
      </trkpt>
      <trkpt lat="50.01187" lon="4.27717">
        <ele>280.2</ele>
        <time>2024-04-28T06:51:00Z</time>
      </trkpt>
      <trkpt lat="50.01184" lon="4.27706">
        <ele>280.2</ele>
        <time>2024-04-28T06:51:01Z</time>
      </trkpt>
      <trkpt lat="50.01181" lon="4.27694">
        <ele>280.2</ele>
        <time>2024-04-28T06:51:02Z</time>
      </trkpt>
      <trkpt lat="50.01179" lon="4.27682">
        <ele>280.2</ele>
        <time>2024-04-28T06:51:03Z</time>
      </trkpt>
      <trkpt lat="50.01176" lon="4.27671">
        <ele>280.2</ele>
        <time>2024-04-28T06:51:04Z</time>
      </trkpt>
      <trkpt lat="50.01174" lon="4.27659">
        <ele>280.2</ele>
        <time>2024-04-28T06:51:05Z</time>
      </trkpt>
      <trkpt lat="50.01171" lon="4.27648">
        <ele>280.2</ele>
        <time>2024-04-28T06:51:06Z</time>
      </trkpt>
      <trkpt lat="50.01169" lon="4.27637">
        <ele>280.2</ele>
        <time>2024-04-28T06:51:07Z</time>
      </trkpt>
      <trkpt lat="50.01166" lon="4.27626">
        <ele>280.2</ele>
        <time>2024-04-28T06:51:08Z</time>
      </trkpt>
      <trkpt lat="50.01164" lon="4.27614">
        <ele>280.2</ele>
        <time>2024-04-28T06:51:09Z</time>
      </trkpt>
      <trkpt lat="50.01161" lon="4.27603">
        <ele>280.4</ele>
        <time>2024-04-28T06:51:10Z</time>
      </trkpt>
      <trkpt lat="50.01159" lon="4.27592">
        <ele>280.4</ele>
        <time>2024-04-28T06:51:11Z</time>
      </trkpt>
      <trkpt lat="50.01156" lon="4.2758">
        <ele>280.6</ele>
        <time>2024-04-28T06:51:12Z</time>
      </trkpt>
      <trkpt lat="50.01154" lon="4.27569">
        <ele>280.8</ele>
        <time>2024-04-28T06:51:13Z</time>
      </trkpt>
      <trkpt lat="50.01151" lon="4.27557">
        <ele>280.8</ele>
        <time>2024-04-28T06:51:14Z</time>
      </trkpt>
      <trkpt lat="50.01149" lon="4.27545">
        <ele>280.8</ele>
        <time>2024-04-28T06:51:15Z</time>
      </trkpt>
      <trkpt lat="50.01146" lon="4.27533">
        <ele>280.8</ele>
        <time>2024-04-28T06:51:16Z</time>
      </trkpt>
      <trkpt lat="50.01143" lon="4.27521">
        <ele>280.8</ele>
        <time>2024-04-28T06:51:17Z</time>
      </trkpt>
      <trkpt lat="50.01141" lon="4.27509">
        <ele>280.8</ele>
        <time>2024-04-28T06:51:18Z</time>
      </trkpt>
      <trkpt lat="50.01138" lon="4.27497">
        <ele>280.8</ele>
        <time>2024-04-28T06:51:19Z</time>
      </trkpt>
      <trkpt lat="50.01136" lon="4.27485">
        <ele>280.8</ele>
        <time>2024-04-28T06:51:20Z</time>
      </trkpt>
      <trkpt lat="50.01133" lon="4.27473">
        <ele>280.8</ele>
        <time>2024-04-28T06:51:21Z</time>
      </trkpt>
      <trkpt lat="50.01131" lon="4.27461">
        <ele>280.8</ele>
        <time>2024-04-28T06:51:22Z</time>
      </trkpt>
      <trkpt lat="50.01129" lon="4.27449">
        <ele>281</ele>
        <time>2024-04-28T06:51:23Z</time>
      </trkpt>
      <trkpt lat="50.01126" lon="4.27437">
        <ele>280.8</ele>
        <time>2024-04-28T06:51:24Z</time>
      </trkpt>
      <trkpt lat="50.01124" lon="4.27426">
        <ele>280.8</ele>
        <time>2024-04-28T06:51:25Z</time>
      </trkpt>
      <trkpt lat="50.01121" lon="4.27413">
        <ele>281</ele>
        <time>2024-04-28T06:51:26Z</time>
      </trkpt>
      <trkpt lat="50.01118" lon="4.27401">
        <ele>280.8</ele>
        <time>2024-04-28T06:51:27Z</time>
      </trkpt>
      <trkpt lat="50.01116" lon="4.27389">
        <ele>280.8</ele>
        <time>2024-04-28T06:51:28Z</time>
      </trkpt>
      <trkpt lat="50.01113" lon="4.27377">
        <ele>281</ele>
        <time>2024-04-28T06:51:29Z</time>
      </trkpt>
      <trkpt lat="50.01111" lon="4.27365">
        <ele>280.8</ele>
        <time>2024-04-28T06:51:30Z</time>
      </trkpt>
      <trkpt lat="50.01108" lon="4.27353">
        <ele>281</ele>
        <time>2024-04-28T06:51:31Z</time>
      </trkpt>
      <trkpt lat="50.01105" lon="4.27341">
        <ele>280.8</ele>
        <time>2024-04-28T06:51:32Z</time>
      </trkpt>
      <trkpt lat="50.01103" lon="4.27329">
        <ele>281</ele>
        <time>2024-04-28T06:51:33Z</time>
      </trkpt>
      <trkpt lat="50.011" lon="4.27317">
        <ele>281</ele>
        <time>2024-04-28T06:51:34Z</time>
      </trkpt>
      <trkpt lat="50.01098" lon="4.27306">
        <ele>280.8</ele>
        <time>2024-04-28T06:51:35Z</time>
      </trkpt>
      <trkpt lat="50.01095" lon="4.27294">
        <ele>281</ele>
        <time>2024-04-28T06:51:36Z</time>
      </trkpt>
      <trkpt lat="50.01093" lon="4.27283">
        <ele>281.2</ele>
        <time>2024-04-28T06:51:37Z</time>
      </trkpt>
      <trkpt lat="50.01091" lon="4.27273">
        <ele>281.2</ele>
        <time>2024-04-28T06:51:38Z</time>
      </trkpt>
      <trkpt lat="50.01089" lon="4.27263">
        <ele>281.6</ele>
        <time>2024-04-28T06:51:39Z</time>
      </trkpt>
      <trkpt lat="50.01087" lon="4.27253">
        <ele>281.6</ele>
        <time>2024-04-28T06:51:40Z</time>
      </trkpt>
      <trkpt lat="50.01085" lon="4.27244">
        <ele>281.8</ele>
        <time>2024-04-28T06:51:41Z</time>
      </trkpt>
      <trkpt lat="50.01083" lon="4.27234">
        <ele>282</ele>
        <time>2024-04-28T06:51:42Z</time>
      </trkpt>
      <trkpt lat="50.01082" lon="4.27225">
        <ele>282</ele>
        <time>2024-04-28T06:51:43Z</time>
      </trkpt>
      <trkpt lat="50.0108" lon="4.27216">
        <ele>282.4</ele>
        <time>2024-04-28T06:51:44Z</time>
      </trkpt>
      <trkpt lat="50.01079" lon="4.27207">
        <ele>282.8</ele>
        <time>2024-04-28T06:51:45Z</time>
      </trkpt>
      <trkpt lat="50.01079" lon="4.27198">
        <ele>283.2</ele>
        <time>2024-04-28T06:51:46Z</time>
      </trkpt>
      <trkpt lat="50.01078" lon="4.27189">
        <ele>283.4</ele>
        <time>2024-04-28T06:51:47Z</time>
      </trkpt>
      <trkpt lat="50.01077" lon="4.27181">
        <ele>283.6</ele>
        <time>2024-04-28T06:51:48Z</time>
      </trkpt>
      <trkpt lat="50.01077" lon="4.27172">
        <ele>283.6</ele>
        <time>2024-04-28T06:51:49Z</time>
      </trkpt>
      <trkpt lat="50.01076" lon="4.27164">
        <ele>283.8</ele>
        <time>2024-04-28T06:51:50Z</time>
      </trkpt>
      <trkpt lat="50.01076" lon="4.27156">
        <ele>283.8</ele>
        <time>2024-04-28T06:51:51Z</time>
      </trkpt>
      <trkpt lat="50.01076" lon="4.27147">
        <ele>283.8</ele>
        <time>2024-04-28T06:51:52Z</time>
      </trkpt>
      <trkpt lat="50.01076" lon="4.27139">
        <ele>284.2</ele>
        <time>2024-04-28T06:51:53Z</time>
      </trkpt>
      <trkpt lat="50.01076" lon="4.2713">
        <ele>284.6</ele>
        <time>2024-04-28T06:51:54Z</time>
      </trkpt>
      <trkpt lat="50.01077" lon="4.27122">
        <ele>285.4</ele>
        <time>2024-04-28T06:51:55Z</time>
      </trkpt>
      <trkpt lat="50.01077" lon="4.27113">
        <ele>285.8</ele>
        <time>2024-04-28T06:51:56Z</time>
      </trkpt>
      <trkpt lat="50.01078" lon="4.27105">
        <ele>286.6</ele>
        <time>2024-04-28T06:51:57Z</time>
      </trkpt>
      <trkpt lat="50.01079" lon="4.27097">
        <ele>287</ele>
        <time>2024-04-28T06:51:58Z</time>
      </trkpt>
      <trkpt lat="50.0108" lon="4.27088">
        <ele>287.2</ele>
        <time>2024-04-28T06:51:59Z</time>
      </trkpt>
      <trkpt lat="50.01081" lon="4.2708">
        <ele>287.6</ele>
        <time>2024-04-28T06:52:00Z</time>
      </trkpt>
      <trkpt lat="50.01083" lon="4.27072">
        <ele>287.8</ele>
        <time>2024-04-28T06:52:01Z</time>
      </trkpt>
      <trkpt lat="50.01084" lon="4.27064">
        <ele>287.8</ele>
        <time>2024-04-28T06:52:02Z</time>
      </trkpt>
      <trkpt lat="50.01086" lon="4.27055">
        <ele>287.8</ele>
        <time>2024-04-28T06:52:03Z</time>
      </trkpt>
      <trkpt lat="50.01088" lon="4.27048">
        <ele>287.8</ele>
        <time>2024-04-28T06:52:04Z</time>
      </trkpt>
      <trkpt lat="50.0109" lon="4.2704">
        <ele>288</ele>
        <time>2024-04-28T06:52:05Z</time>
      </trkpt>
      <trkpt lat="50.01092" lon="4.27032">
        <ele>287.8</ele>
        <time>2024-04-28T06:52:06Z</time>
      </trkpt>
      <trkpt lat="50.01094" lon="4.27024">
        <ele>288</ele>
        <time>2024-04-28T06:52:07Z</time>
      </trkpt>
      <trkpt lat="50.01097" lon="4.27017">
        <ele>287.8</ele>
        <time>2024-04-28T06:52:08Z</time>
      </trkpt>
      <trkpt lat="50.01099" lon="4.27009">
        <ele>288</ele>
        <time>2024-04-28T06:52:09Z</time>
      </trkpt>
      <trkpt lat="50.01102" lon="4.27001">
        <ele>288</ele>
        <time>2024-04-28T06:52:10Z</time>
      </trkpt>
      <trkpt lat="50.01105" lon="4.26993">
        <ele>288.2</ele>
        <time>2024-04-28T06:52:11Z</time>
      </trkpt>
      <trkpt lat="50.01108" lon="4.26985">
        <ele>288.2</ele>
        <time>2024-04-28T06:52:12Z</time>
      </trkpt>
      <trkpt lat="50.01111" lon="4.26977">
        <ele>288.2</ele>
        <time>2024-04-28T06:52:13Z</time>
      </trkpt>
      <trkpt lat="50.01114" lon="4.26969">
        <ele>288</ele>
        <time>2024-04-28T06:52:14Z</time>
      </trkpt>
      <trkpt lat="50.01117" lon="4.26961">
        <ele>288.2</ele>
        <time>2024-04-28T06:52:15Z</time>
      </trkpt>
      <trkpt lat="50.01121" lon="4.26954">
        <ele>288</ele>
        <time>2024-04-28T06:52:16Z</time>
      </trkpt>
      <trkpt lat="50.01124" lon="4.26946">
        <ele>288.2</ele>
        <time>2024-04-28T06:52:17Z</time>
      </trkpt>
      <trkpt lat="50.01127" lon="4.26938">
        <ele>288.6</ele>
        <time>2024-04-28T06:52:18Z</time>
      </trkpt>
      <trkpt lat="50.0113" lon="4.2693">
        <ele>288.8</ele>
        <time>2024-04-28T06:52:19Z</time>
      </trkpt>
      <trkpt lat="50.01134" lon="4.26922">
        <ele>289.2</ele>
        <time>2024-04-28T06:52:20Z</time>
      </trkpt>
      <trkpt lat="50.01137" lon="4.26914">
        <ele>289.4</ele>
        <time>2024-04-28T06:52:21Z</time>
      </trkpt>
      <trkpt lat="50.0114" lon="4.26906">
        <ele>289.8</ele>
        <time>2024-04-28T06:52:22Z</time>
      </trkpt>
      <trkpt lat="50.01144" lon="4.26898">
        <ele>290</ele>
        <time>2024-04-28T06:52:23Z</time>
      </trkpt>
      <trkpt lat="50.01147" lon="4.2689">
        <ele>290</ele>
        <time>2024-04-28T06:52:24Z</time>
      </trkpt>
      <trkpt lat="50.01151" lon="4.26881">
        <ele>290</ele>
        <time>2024-04-28T06:52:25Z</time>
      </trkpt>
      <trkpt lat="50.01154" lon="4.26873">
        <ele>290</ele>
        <time>2024-04-28T06:52:26Z</time>
      </trkpt>
      <trkpt lat="50.01158" lon="4.26864">
        <ele>290</ele>
        <time>2024-04-28T06:52:27Z</time>
      </trkpt>
      <trkpt lat="50.01161" lon="4.26855">
        <ele>290</ele>
        <time>2024-04-28T06:52:28Z</time>
      </trkpt>
      <trkpt lat="50.01165" lon="4.26846">
        <ele>290</ele>
        <time>2024-04-28T06:52:29Z</time>
      </trkpt>
      <trkpt lat="50.01169" lon="4.26836">
        <ele>290.2</ele>
        <time>2024-04-28T06:52:30Z</time>
      </trkpt>
      <trkpt lat="50.01173" lon="4.26827">
        <ele>290</ele>
        <time>2024-04-28T06:52:31Z</time>
      </trkpt>
      <trkpt lat="50.01177" lon="4.26817">
        <ele>290</ele>
        <time>2024-04-28T06:52:32Z</time>
      </trkpt>
      <trkpt lat="50.01181" lon="4.26806">
        <ele>289.8</ele>
        <time>2024-04-28T06:52:33Z</time>
      </trkpt>
      <trkpt lat="50.01186" lon="4.26795">
        <ele>290</ele>
        <time>2024-04-28T06:52:34Z</time>
      </trkpt>
      <trkpt lat="50.0119" lon="4.26784">
        <ele>289.8</ele>
        <time>2024-04-28T06:52:35Z</time>
      </trkpt>
      <trkpt lat="50.01195" lon="4.26772">
        <ele>289.8</ele>
        <time>2024-04-28T06:52:36Z</time>
      </trkpt>
      <trkpt lat="50.012" lon="4.2676">
        <ele>289.2</ele>
        <time>2024-04-28T06:52:37Z</time>
      </trkpt>
      <trkpt lat="50.01205" lon="4.26748">
        <ele>288.8</ele>
        <time>2024-04-28T06:52:38Z</time>
      </trkpt>
      <trkpt lat="50.0121" lon="4.26736">
        <ele>288.6</ele>
        <time>2024-04-28T06:52:39Z</time>
      </trkpt>
      <trkpt lat="50.01215" lon="4.26723">
        <ele>288.4</ele>
        <time>2024-04-28T06:52:40Z</time>
      </trkpt>
      <trkpt lat="50.0122" lon="4.2671">
        <ele>288.2</ele>
        <time>2024-04-28T06:52:41Z</time>
      </trkpt>
      <trkpt lat="50.01225" lon="4.26697">
        <ele>287.6</ele>
        <time>2024-04-28T06:52:42Z</time>
      </trkpt>
      <trkpt lat="50.01231" lon="4.26684">
        <ele>287.4</ele>
        <time>2024-04-28T06:52:43Z</time>
      </trkpt>
      <trkpt lat="50.01236" lon="4.2667">
        <ele>286.8</ele>
        <time>2024-04-28T06:52:44Z</time>
      </trkpt>
      <trkpt lat="50.01242" lon="4.26657">
        <ele>286.2</ele>
        <time>2024-04-28T06:52:45Z</time>
      </trkpt>
      <trkpt lat="50.01247" lon="4.26643">
        <ele>285.8</ele>
        <time>2024-04-28T06:52:46Z</time>
      </trkpt>
      <trkpt lat="50.01253" lon="4.26629">
        <ele>284.6</ele>
        <time>2024-04-28T06:52:47Z</time>
      </trkpt>
      <trkpt lat="50.01259" lon="4.26614">
        <ele>283.8</ele>
        <time>2024-04-28T06:52:48Z</time>
      </trkpt>
      <trkpt lat="50.01265" lon="4.266">
        <ele>283.2</ele>
        <time>2024-04-28T06:52:49Z</time>
      </trkpt>
      <trkpt lat="50.01271" lon="4.26584">
        <ele>282.4</ele>
        <time>2024-04-28T06:52:50Z</time>
      </trkpt>
      <trkpt lat="50.01276" lon="4.26569">
        <ele>281.8</ele>
        <time>2024-04-28T06:52:51Z</time>
      </trkpt>
      <trkpt lat="50.01281" lon="4.26552">
        <ele>280.8</ele>
        <time>2024-04-28T06:52:52Z</time>
      </trkpt>
      <trkpt lat="50.01285" lon="4.26536">
        <ele>280.8</ele>
        <time>2024-04-28T06:52:53Z</time>
      </trkpt>
      <trkpt lat="50.01289" lon="4.26519">
        <ele>280.4</ele>
        <time>2024-04-28T06:52:54Z</time>
      </trkpt>
      <trkpt lat="50.01292" lon="4.26501">
        <ele>280</ele>
        <time>2024-04-28T06:52:55Z</time>
      </trkpt>
      <trkpt lat="50.01295" lon="4.26484">
        <ele>279</ele>
        <time>2024-04-28T06:52:56Z</time>
      </trkpt>
      <trkpt lat="50.01297" lon="4.26466">
        <ele>278.6</ele>
        <time>2024-04-28T06:52:57Z</time>
      </trkpt>
      <trkpt lat="50.013" lon="4.26448">
        <ele>278.2</ele>
        <time>2024-04-28T06:52:58Z</time>
      </trkpt>
      <trkpt lat="50.01302" lon="4.26431">
        <ele>277.8</ele>
        <time>2024-04-28T06:52:59Z</time>
      </trkpt>
      <trkpt lat="50.01304" lon="4.26414">
        <ele>277.4</ele>
        <time>2024-04-28T06:53:00Z</time>
      </trkpt>
      <trkpt lat="50.01306" lon="4.26397">
        <ele>277.2</ele>
        <time>2024-04-28T06:53:01Z</time>
      </trkpt>
      <trkpt lat="50.01309" lon="4.2638">
        <ele>277.2</ele>
        <time>2024-04-28T06:53:02Z</time>
      </trkpt>
      <trkpt lat="50.01312" lon="4.26364">
        <ele>277</ele>
        <time>2024-04-28T06:53:03Z</time>
      </trkpt>
      <trkpt lat="50.01314" lon="4.26349">
        <ele>276.2</ele>
        <time>2024-04-28T06:53:04Z</time>
      </trkpt>
      <trkpt lat="50.01318" lon="4.26334">
        <ele>275.8</ele>
        <time>2024-04-28T06:53:05Z</time>
      </trkpt>
      <trkpt lat="50.01321" lon="4.2632">
        <ele>275.2</ele>
        <time>2024-04-28T06:53:06Z</time>
      </trkpt>
      <trkpt lat="50.01325" lon="4.26307">
        <ele>274.8</ele>
        <time>2024-04-28T06:53:07Z</time>
      </trkpt>
      <trkpt lat="50.01329" lon="4.26294">
        <ele>275</ele>
        <time>2024-04-28T06:53:08Z</time>
      </trkpt>
      <trkpt lat="50.01333" lon="4.26281">
        <ele>274.8</ele>
        <time>2024-04-28T06:53:09Z</time>
      </trkpt>
      <trkpt lat="50.01338" lon="4.26269">
        <ele>274.6</ele>
        <time>2024-04-28T06:53:10Z</time>
      </trkpt>
      <trkpt lat="50.01342" lon="4.26258">
        <ele>274.6</ele>
        <time>2024-04-28T06:53:11Z</time>
      </trkpt>
      <trkpt lat="50.01347" lon="4.26246">
        <ele>274.4</ele>
        <time>2024-04-28T06:53:12Z</time>
      </trkpt>
      <trkpt lat="50.01351" lon="4.26235">
        <ele>274.4</ele>
        <time>2024-04-28T06:53:13Z</time>
      </trkpt>
      <trkpt lat="50.01355" lon="4.26224">
        <ele>274.4</ele>
        <time>2024-04-28T06:53:14Z</time>
      </trkpt>
      <trkpt lat="50.01359" lon="4.26213">
        <ele>274.2</ele>
        <time>2024-04-28T06:53:15Z</time>
      </trkpt>
      <trkpt lat="50.01363" lon="4.26202">
        <ele>274.2</ele>
        <time>2024-04-28T06:53:16Z</time>
      </trkpt>
      <trkpt lat="50.01368" lon="4.26191">
        <ele>274.4</ele>
        <time>2024-04-28T06:53:17Z</time>
      </trkpt>
      <trkpt lat="50.01372" lon="4.26181">
        <ele>274.2</ele>
        <time>2024-04-28T06:53:18Z</time>
      </trkpt>
      <trkpt lat="50.01376" lon="4.26171">
        <ele>274.4</ele>
        <time>2024-04-28T06:53:19Z</time>
      </trkpt>
      <trkpt lat="50.01379" lon="4.2616">
        <ele>274.4</ele>
        <time>2024-04-28T06:53:20Z</time>
      </trkpt>
      <trkpt lat="50.01383" lon="4.2615">
        <ele>274.6</ele>
        <time>2024-04-28T06:53:21Z</time>
      </trkpt>
      <trkpt lat="50.01387" lon="4.2614">
        <ele>274.8</ele>
        <time>2024-04-28T06:53:22Z</time>
      </trkpt>
      <trkpt lat="50.01391" lon="4.2613">
        <ele>275.2</ele>
        <time>2024-04-28T06:53:23Z</time>
      </trkpt>
      <trkpt lat="50.01395" lon="4.2612">
        <ele>275.6</ele>
        <time>2024-04-28T06:53:24Z</time>
      </trkpt>
      <trkpt lat="50.01398" lon="4.2611">
        <ele>276.2</ele>
        <time>2024-04-28T06:53:25Z</time>
      </trkpt>
      <trkpt lat="50.01402" lon="4.26099">
        <ele>276.6</ele>
        <time>2024-04-28T06:53:26Z</time>
      </trkpt>
      <trkpt lat="50.01406" lon="4.26089">
        <ele>276.8</ele>
        <time>2024-04-28T06:53:27Z</time>
      </trkpt>
      <trkpt lat="50.0141" lon="4.26078">
        <ele>276.8</ele>
        <time>2024-04-28T06:53:28Z</time>
      </trkpt>
      <trkpt lat="50.01414" lon="4.26068">
        <ele>277</ele>
        <time>2024-04-28T06:53:29Z</time>
      </trkpt>
      <trkpt lat="50.01418" lon="4.26057">
        <ele>277</ele>
        <time>2024-04-28T06:53:30Z</time>
      </trkpt>
      <trkpt lat="50.01422" lon="4.26046">
        <ele>277</ele>
        <time>2024-04-28T06:53:31Z</time>
      </trkpt>
      <trkpt lat="50.01426" lon="4.26034">
        <ele>277.2</ele>
        <time>2024-04-28T06:53:32Z</time>
      </trkpt>
      <trkpt lat="50.0143" lon="4.26023">
        <ele>277</ele>
        <time>2024-04-28T06:53:33Z</time>
      </trkpt>
      <trkpt lat="50.01434" lon="4.26011">
        <ele>277.2</ele>
        <time>2024-04-28T06:53:34Z</time>
      </trkpt>
      <trkpt lat="50.01438" lon="4.25999">
        <ele>277.2</ele>
        <time>2024-04-28T06:53:35Z</time>
      </trkpt>
      <trkpt lat="50.01442" lon="4.25986">
        <ele>277</ele>
        <time>2024-04-28T06:53:36Z</time>
      </trkpt>
      <trkpt lat="50.01444" lon="4.25973">
        <ele>277.2</ele>
        <time>2024-04-28T06:53:37Z</time>
      </trkpt>
      <trkpt lat="50.01447" lon="4.2596">
        <ele>277.2</ele>
        <time>2024-04-28T06:53:38Z</time>
      </trkpt>
      <trkpt lat="50.01449" lon="4.25946">
        <ele>277</ele>
        <time>2024-04-28T06:53:39Z</time>
      </trkpt>
      <trkpt lat="50.0145" lon="4.25932">
        <ele>277</ele>
        <time>2024-04-28T06:53:40Z</time>
      </trkpt>
      <trkpt lat="50.01451" lon="4.25918">
        <ele>277</ele>
        <time>2024-04-28T06:53:41Z</time>
      </trkpt>
      <trkpt lat="50.01452" lon="4.25904">
        <ele>276.8</ele>
        <time>2024-04-28T06:53:42Z</time>
      </trkpt>
      <trkpt lat="50.01453" lon="4.2589">
        <ele>276.6</ele>
        <time>2024-04-28T06:53:43Z</time>
      </trkpt>
      <trkpt lat="50.01453" lon="4.25875">
        <ele>276.6</ele>
        <time>2024-04-28T06:53:44Z</time>
      </trkpt>
      <trkpt lat="50.01454" lon="4.25861">
        <ele>276.2</ele>
        <time>2024-04-28T06:53:45Z</time>
      </trkpt>
      <trkpt lat="50.01454" lon="4.25846">
        <ele>276.2</ele>
        <time>2024-04-28T06:53:46Z</time>
      </trkpt>
      <trkpt lat="50.01455" lon="4.25832">
        <ele>275.4</ele>
        <time>2024-04-28T06:53:47Z</time>
      </trkpt>
      <trkpt lat="50.01457" lon="4.25817">
        <ele>274.2</ele>
        <time>2024-04-28T06:53:48Z</time>
      </trkpt>
      <trkpt lat="50.01458" lon="4.25803">
        <ele>273.6</ele>
        <time>2024-04-28T06:53:49Z</time>
      </trkpt>
      <trkpt lat="50.01461" lon="4.25789">
        <ele>272.8</ele>
        <time>2024-04-28T06:53:50Z</time>
      </trkpt>
      <trkpt lat="50.01464" lon="4.25775">
        <ele>272.4</ele>
        <time>2024-04-28T06:53:51Z</time>
      </trkpt>
      <trkpt lat="50.01468" lon="4.25761">
        <ele>272.2</ele>
        <time>2024-04-28T06:53:52Z</time>
      </trkpt>
      <trkpt lat="50.01472" lon="4.25748">
        <ele>271.8</ele>
        <time>2024-04-28T06:53:53Z</time>
      </trkpt>
      <trkpt lat="50.01476" lon="4.25735">
        <ele>271.6</ele>
        <time>2024-04-28T06:53:54Z</time>
      </trkpt>
      <trkpt lat="50.01481" lon="4.25723">
        <ele>271.4</ele>
        <time>2024-04-28T06:53:55Z</time>
      </trkpt>
      <trkpt lat="50.01486" lon="4.25711">
        <ele>271</ele>
        <time>2024-04-28T06:53:56Z</time>
      </trkpt>
      <trkpt lat="50.01491" lon="4.25701">
        <ele>271</ele>
        <time>2024-04-28T06:53:57Z</time>
      </trkpt>
      <trkpt lat="50.01496" lon="4.25691">
        <ele>271</ele>
        <time>2024-04-28T06:53:58Z</time>
      </trkpt>
      <trkpt lat="50.01501" lon="4.25681">
        <ele>271</ele>
        <time>2024-04-28T06:53:59Z</time>
      </trkpt>
      <trkpt lat="50.01505" lon="4.25672">
        <ele>270.8</ele>
        <time>2024-04-28T06:54:00Z</time>
      </trkpt>
      <trkpt lat="50.01509" lon="4.25664">
        <ele>270.8</ele>
        <time>2024-04-28T06:54:01Z</time>
      </trkpt>
      <trkpt lat="50.01513" lon="4.25657">
        <ele>270.8</ele>
        <time>2024-04-28T06:54:02Z</time>
      </trkpt>
      <trkpt lat="50.01517" lon="4.25651">
        <ele>270.8</ele>
        <time>2024-04-28T06:54:03Z</time>
      </trkpt>
      <trkpt lat="50.0152" lon="4.25645">
        <ele>270.8</ele>
        <time>2024-04-28T06:54:04Z</time>
      </trkpt>
      <trkpt lat="50.01523" lon="4.2564">
        <ele>270.8</ele>
        <time>2024-04-28T06:54:05Z</time>
      </trkpt>
      <trkpt lat="50.01525" lon="4.25635">
        <ele>271</ele>
        <time>2024-04-28T06:54:06Z</time>
      </trkpt>
      <trkpt lat="50.01529" lon="4.25631">
        <ele>271</ele>
        <time>2024-04-28T06:54:07Z</time>
      </trkpt>
      <trkpt lat="50.01533" lon="4.25627">
        <ele>271.2</ele>
        <time>2024-04-28T06:54:08Z</time>
      </trkpt>
      <trkpt lat="50.01539" lon="4.25624">
        <ele>271.8</ele>
        <time>2024-04-28T06:54:09Z</time>
      </trkpt>
      <trkpt lat="50.01545" lon="4.25621">
        <ele>273</ele>
        <time>2024-04-28T06:54:10Z</time>
      </trkpt>
      <trkpt lat="50.01551" lon="4.25616">
        <ele>274.4</ele>
        <time>2024-04-28T06:54:11Z</time>
      </trkpt>
      <trkpt lat="50.01555" lon="4.2561">
        <ele>275.8</ele>
        <time>2024-04-28T06:54:12Z</time>
      </trkpt>
      <trkpt lat="50.0156" lon="4.25602">
        <ele>276.4</ele>
        <time>2024-04-28T06:54:13Z</time>
      </trkpt>
      <trkpt lat="50.01563" lon="4.25592">
        <ele>276.8</ele>
        <time>2024-04-28T06:54:14Z</time>
      </trkpt>
      <trkpt lat="50.01566" lon="4.25583">
        <ele>277.2</ele>
        <time>2024-04-28T06:54:15Z</time>
      </trkpt>
      <trkpt lat="50.01568" lon="4.25573">
        <ele>277.8</ele>
        <time>2024-04-28T06:54:16Z</time>
      </trkpt>
      <trkpt lat="50.01571" lon="4.25563">
        <ele>278.4</ele>
        <time>2024-04-28T06:54:17Z</time>
      </trkpt>
      <trkpt lat="50.01573" lon="4.25553">
        <ele>278.4</ele>
        <time>2024-04-28T06:54:18Z</time>
      </trkpt>
      <trkpt lat="50.01575" lon="4.25543">
        <ele>279</ele>
        <time>2024-04-28T06:54:19Z</time>
      </trkpt>
      <trkpt lat="50.01577" lon="4.25534">
        <ele>279</ele>
        <time>2024-04-28T06:54:20Z</time>
      </trkpt>
      <trkpt lat="50.0158" lon="4.25525">
        <ele>279.2</ele>
        <time>2024-04-28T06:54:21Z</time>
      </trkpt>
      <trkpt lat="50.01582" lon="4.25516">
        <ele>279.2</ele>
        <time>2024-04-28T06:54:22Z</time>
      </trkpt>
      <trkpt lat="50.01584" lon="4.25507">
        <ele>279.4</ele>
        <time>2024-04-28T06:54:23Z</time>
      </trkpt>
      <trkpt lat="50.01585" lon="4.25498">
        <ele>280</ele>
        <time>2024-04-28T06:54:24Z</time>
      </trkpt>
      <trkpt lat="50.01586" lon="4.25488">
        <ele>280.4</ele>
        <time>2024-04-28T06:54:25Z</time>
      </trkpt>
      <trkpt lat="50.01585" lon="4.25479">
        <ele>280.6</ele>
        <time>2024-04-28T06:54:26Z</time>
      </trkpt>
      <trkpt lat="50.01582" lon="4.2547">
        <ele>280.8</ele>
        <time>2024-04-28T06:54:27Z</time>
      </trkpt>
      <trkpt lat="50.01579" lon="4.25463">
        <ele>281</ele>
        <time>2024-04-28T06:54:28Z</time>
      </trkpt>
      <trkpt lat="50.01575" lon="4.25456">
        <ele>280.8</ele>
        <time>2024-04-28T06:54:29Z</time>
      </trkpt>
      <trkpt lat="50.01571" lon="4.25449">
        <ele>281</ele>
        <time>2024-04-28T06:54:30Z</time>
      </trkpt>
      <trkpt lat="50.01566" lon="4.25443">
        <ele>281.2</ele>
        <time>2024-04-28T06:54:31Z</time>
      </trkpt>
      <trkpt lat="50.01562" lon="4.25437">
        <ele>281.2</ele>
        <time>2024-04-28T06:54:32Z</time>
      </trkpt>
      <trkpt lat="50.01559" lon="4.25429">
        <ele>281.2</ele>
        <time>2024-04-28T06:54:33Z</time>
      </trkpt>
      <trkpt lat="50.01558" lon="4.2542">
        <ele>281.2</ele>
        <time>2024-04-28T06:54:34Z</time>
      </trkpt>
      <trkpt lat="50.01558" lon="4.25411">
        <ele>281.2</ele>
        <time>2024-04-28T06:54:35Z</time>
      </trkpt>
      <trkpt lat="50.01559" lon="4.25401">
        <ele>281.4</ele>
        <time>2024-04-28T06:54:36Z</time>
      </trkpt>
      <trkpt lat="50.01562" lon="4.25392">
        <ele>281.4</ele>
        <time>2024-04-28T06:54:37Z</time>
      </trkpt>
      <trkpt lat="50.01564" lon="4.25383">
        <ele>281.4</ele>
        <time>2024-04-28T06:54:38Z</time>
      </trkpt>
      <trkpt lat="50.01566" lon="4.25373">
        <ele>281.4</ele>
        <time>2024-04-28T06:54:39Z</time>
      </trkpt>
      <trkpt lat="50.01568" lon="4.25364">
        <ele>281.4</ele>
        <time>2024-04-28T06:54:40Z</time>
      </trkpt>
      <trkpt lat="50.0157" lon="4.25354">
        <ele>281.4</ele>
        <time>2024-04-28T06:54:41Z</time>
      </trkpt>
      <trkpt lat="50.01572" lon="4.25345">
        <ele>281.8</ele>
        <time>2024-04-28T06:54:42Z</time>
      </trkpt>
      <trkpt lat="50.01574" lon="4.25335">
        <ele>282</ele>
        <time>2024-04-28T06:54:43Z</time>
      </trkpt>
      <trkpt lat="50.01577" lon="4.25326">
        <ele>282.2</ele>
        <time>2024-04-28T06:54:44Z</time>
      </trkpt>
      <trkpt lat="50.01579" lon="4.25316">
        <ele>282.4</ele>
        <time>2024-04-28T06:54:45Z</time>
      </trkpt>
      <trkpt lat="50.01581" lon="4.25307">
        <ele>282.4</ele>
        <time>2024-04-28T06:54:46Z</time>
      </trkpt>
      <trkpt lat="50.01583" lon="4.25297">
        <ele>282.6</ele>
        <time>2024-04-28T06:54:47Z</time>
      </trkpt>
      <trkpt lat="50.01585" lon="4.25288">
        <ele>282.8</ele>
        <time>2024-04-28T06:54:48Z</time>
      </trkpt>
      <trkpt lat="50.01588" lon="4.25278">
        <ele>283</ele>
        <time>2024-04-28T06:54:49Z</time>
      </trkpt>
      <trkpt lat="50.0159" lon="4.25269">
        <ele>283</ele>
        <time>2024-04-28T06:54:50Z</time>
      </trkpt>
      <trkpt lat="50.01592" lon="4.25261">
        <ele>283.8</ele>
        <time>2024-04-28T06:54:51Z</time>
      </trkpt>
      <trkpt lat="50.01594" lon="4.25252">
        <ele>284.8</ele>
        <time>2024-04-28T06:54:52Z</time>
      </trkpt>
      <trkpt lat="50.01596" lon="4.25244">
        <ele>285.6</ele>
        <time>2024-04-28T06:54:53Z</time>
      </trkpt>
      <trkpt lat="50.01598" lon="4.25235">
        <ele>286.2</ele>
        <time>2024-04-28T06:54:54Z</time>
      </trkpt>
      <trkpt lat="50.01599" lon="4.25227">
        <ele>286.6</ele>
        <time>2024-04-28T06:54:55Z</time>
      </trkpt>
      <trkpt lat="50.01601" lon="4.25218">
        <ele>287</ele>
        <time>2024-04-28T06:54:56Z</time>
      </trkpt>
      <trkpt lat="50.01603" lon="4.2521">
        <ele>287</ele>
        <time>2024-04-28T06:54:57Z</time>
      </trkpt>
      <trkpt lat="50.01605" lon="4.25201">
        <ele>287.2</ele>
        <time>2024-04-28T06:54:58Z</time>
      </trkpt>
      <trkpt lat="50.01607" lon="4.25193">
        <ele>287.6</ele>
        <time>2024-04-28T06:54:59Z</time>
      </trkpt>
      <trkpt lat="50.01608" lon="4.25185">
        <ele>287.6</ele>
        <time>2024-04-28T06:55:00Z</time>
      </trkpt>
      <trkpt lat="50.0161" lon="4.25177">
        <ele>287.8</ele>
        <time>2024-04-28T06:55:01Z</time>
      </trkpt>
      <trkpt lat="50.01612" lon="4.25169">
        <ele>287.8</ele>
        <time>2024-04-28T06:55:02Z</time>
      </trkpt>
      <trkpt lat="50.01613" lon="4.25161">
        <ele>288.4</ele>
        <time>2024-04-28T06:55:03Z</time>
      </trkpt>
      <trkpt lat="50.01615" lon="4.25153">
        <ele>288.4</ele>
        <time>2024-04-28T06:55:04Z</time>
      </trkpt>
      <trkpt lat="50.01617" lon="4.25145">
        <ele>288.6</ele>
        <time>2024-04-28T06:55:05Z</time>
      </trkpt>
      <trkpt lat="50.01619" lon="4.25136">
        <ele>288.6</ele>
        <time>2024-04-28T06:55:06Z</time>
      </trkpt>
      <trkpt lat="50.01621" lon="4.25128">
        <ele>288.6</ele>
        <time>2024-04-28T06:55:07Z</time>
      </trkpt>
      <trkpt lat="50.01622" lon="4.25119">
        <ele>288.6</ele>
        <time>2024-04-28T06:55:08Z</time>
      </trkpt>
      <trkpt lat="50.01624" lon="4.25109">
        <ele>288.6</ele>
        <time>2024-04-28T06:55:09Z</time>
      </trkpt>
      <trkpt lat="50.01626" lon="4.251">
        <ele>288.6</ele>
        <time>2024-04-28T06:55:10Z</time>
      </trkpt>
      <trkpt lat="50.01628" lon="4.2509">
        <ele>288.6</ele>
        <time>2024-04-28T06:55:11Z</time>
      </trkpt>
      <trkpt lat="50.0163" lon="4.25081">
        <ele>288.8</ele>
        <time>2024-04-28T06:55:12Z</time>
      </trkpt>
      <trkpt lat="50.01632" lon="4.25071">
        <ele>288.8</ele>
        <time>2024-04-28T06:55:13Z</time>
      </trkpt>
      <trkpt lat="50.01635" lon="4.25062">
        <ele>289</ele>
        <time>2024-04-28T06:55:14Z</time>
      </trkpt>
      <trkpt lat="50.01637" lon="4.25053">
        <ele>288.8</ele>
        <time>2024-04-28T06:55:15Z</time>
      </trkpt>
      <trkpt lat="50.01639" lon="4.25044">
        <ele>289</ele>
        <time>2024-04-28T06:55:16Z</time>
      </trkpt>
      <trkpt lat="50.0164" lon="4.25035">
        <ele>289.2</ele>
        <time>2024-04-28T06:55:17Z</time>
      </trkpt>
      <trkpt lat="50.01642" lon="4.25027">
        <ele>289.4</ele>
        <time>2024-04-28T06:55:18Z</time>
      </trkpt>
      <trkpt lat="50.01643" lon="4.2502">
        <ele>289.6</ele>
        <time>2024-04-28T06:55:19Z</time>
      </trkpt>
      <trkpt lat="50.01645" lon="4.25012">
        <ele>290</ele>
        <time>2024-04-28T06:55:20Z</time>
      </trkpt>
      <trkpt lat="50.01647" lon="4.25004">
        <ele>290.2</ele>
        <time>2024-04-28T06:55:21Z</time>
      </trkpt>
      <trkpt lat="50.01649" lon="4.24996">
        <ele>290.2</ele>
        <time>2024-04-28T06:55:22Z</time>
      </trkpt>
      <trkpt lat="50.01651" lon="4.24988">
        <ele>290.4</ele>
        <time>2024-04-28T06:55:23Z</time>
      </trkpt>
      <trkpt lat="50.01654" lon="4.24979">
        <ele>290.6</ele>
        <time>2024-04-28T06:55:24Z</time>
      </trkpt>
      <trkpt lat="50.01656" lon="4.2497">
        <ele>290.6</ele>
        <time>2024-04-28T06:55:25Z</time>
      </trkpt>
      <trkpt lat="50.01658" lon="4.24962">
        <ele>290.6</ele>
        <time>2024-04-28T06:55:26Z</time>
      </trkpt>
      <trkpt lat="50.01661" lon="4.24954">
        <ele>291</ele>
        <time>2024-04-28T06:55:27Z</time>
      </trkpt>
      <trkpt lat="50.01664" lon="4.24947">
        <ele>291.2</ele>
        <time>2024-04-28T06:55:28Z</time>
      </trkpt>
      <trkpt lat="50.01667" lon="4.2494">
        <ele>291.2</ele>
        <time>2024-04-28T06:55:29Z</time>
      </trkpt>
      <trkpt lat="50.0167" lon="4.24933">
        <ele>291.4</ele>
        <time>2024-04-28T06:55:30Z</time>
      </trkpt>
      <trkpt lat="50.01674" lon="4.24925">
        <ele>291.4</ele>
        <time>2024-04-28T06:55:31Z</time>
      </trkpt>
      <trkpt lat="50.01677" lon="4.24918">
        <ele>291.6</ele>
        <time>2024-04-28T06:55:32Z</time>
      </trkpt>
      <trkpt lat="50.01681" lon="4.24911">
        <ele>291.6</ele>
        <time>2024-04-28T06:55:33Z</time>
      </trkpt>
      <trkpt lat="50.01685" lon="4.24904">
        <ele>291.8</ele>
        <time>2024-04-28T06:55:34Z</time>
      </trkpt>
      <trkpt lat="50.0169" lon="4.24897">
        <ele>291.8</ele>
        <time>2024-04-28T06:55:35Z</time>
      </trkpt>
      <trkpt lat="50.01694" lon="4.2489">
        <ele>292</ele>
        <time>2024-04-28T06:55:36Z</time>
      </trkpt>
      <trkpt lat="50.01699" lon="4.24884">
        <ele>292.2</ele>
        <time>2024-04-28T06:55:37Z</time>
      </trkpt>
      <trkpt lat="50.01704" lon="4.24878">
        <ele>292.6</ele>
        <time>2024-04-28T06:55:38Z</time>
      </trkpt>
      <trkpt lat="50.01709" lon="4.24872">
        <ele>292.8</ele>
        <time>2024-04-28T06:55:39Z</time>
      </trkpt>
      <trkpt lat="50.01714" lon="4.24866">
        <ele>293</ele>
        <time>2024-04-28T06:55:40Z</time>
      </trkpt>
      <trkpt lat="50.01719" lon="4.2486">
        <ele>293.2</ele>
        <time>2024-04-28T06:55:41Z</time>
      </trkpt>
      <trkpt lat="50.01725" lon="4.24855">
        <ele>293.2</ele>
        <time>2024-04-28T06:55:42Z</time>
      </trkpt>
      <trkpt lat="50.0173" lon="4.24849">
        <ele>293.2</ele>
        <time>2024-04-28T06:55:43Z</time>
      </trkpt>
      <trkpt lat="50.01736" lon="4.24843">
        <ele>293.4</ele>
        <time>2024-04-28T06:55:44Z</time>
      </trkpt>
      <trkpt lat="50.01741" lon="4.24837">
        <ele>293.4</ele>
        <time>2024-04-28T06:55:45Z</time>
      </trkpt>
      <trkpt lat="50.01747" lon="4.24831">
        <ele>293.4</ele>
        <time>2024-04-28T06:55:46Z</time>
      </trkpt>
      <trkpt lat="50.01753" lon="4.24825">
        <ele>293.4</ele>
        <time>2024-04-28T06:55:47Z</time>
      </trkpt>
      <trkpt lat="50.01759" lon="4.24818">
        <ele>293.4</ele>
        <time>2024-04-28T06:55:48Z</time>
      </trkpt>
      <trkpt lat="50.01765" lon="4.24811">
        <ele>293.2</ele>
        <time>2024-04-28T06:55:49Z</time>
      </trkpt>
      <trkpt lat="50.01771" lon="4.24805">
        <ele>293.4</ele>
        <time>2024-04-28T06:55:50Z</time>
      </trkpt>
      <trkpt lat="50.01777" lon="4.24798">
        <ele>293.4</ele>
        <time>2024-04-28T06:55:51Z</time>
      </trkpt>
      <trkpt lat="50.01783" lon="4.24791">
        <ele>293.2</ele>
        <time>2024-04-28T06:55:52Z</time>
      </trkpt>
      <trkpt lat="50.01789" lon="4.24783">
        <ele>293.4</ele>
        <time>2024-04-28T06:55:53Z</time>
      </trkpt>
      <trkpt lat="50.01795" lon="4.24775">
        <ele>293.2</ele>
        <time>2024-04-28T06:55:54Z</time>
      </trkpt>
      <trkpt lat="50.01801" lon="4.24766">
        <ele>293</ele>
        <time>2024-04-28T06:55:55Z</time>
      </trkpt>
      <trkpt lat="50.01806" lon="4.24757">
        <ele>293</ele>
        <time>2024-04-28T06:55:56Z</time>
      </trkpt>
      <trkpt lat="50.01812" lon="4.24749">
        <ele>293</ele>
        <time>2024-04-28T06:55:57Z</time>
      </trkpt>
      <trkpt lat="50.01817" lon="4.2474">
        <ele>292.8</ele>
        <time>2024-04-28T06:55:58Z</time>
      </trkpt>
      <trkpt lat="50.01823" lon="4.2473">
        <ele>292.6</ele>
        <time>2024-04-28T06:55:59Z</time>
      </trkpt>
      <trkpt lat="50.01828" lon="4.2472">
        <ele>292.4</ele>
        <time>2024-04-28T06:56:00Z</time>
      </trkpt>
      <trkpt lat="50.01833" lon="4.2471">
        <ele>292</ele>
        <time>2024-04-28T06:56:01Z</time>
      </trkpt>
      <trkpt lat="50.01838" lon="4.247">
        <ele>292</ele>
        <time>2024-04-28T06:56:02Z</time>
      </trkpt>
      <trkpt lat="50.01843" lon="4.24689">
        <ele>291.4</ele>
        <time>2024-04-28T06:56:03Z</time>
      </trkpt>
      <trkpt lat="50.01846" lon="4.24677">
        <ele>290.8</ele>
        <time>2024-04-28T06:56:04Z</time>
      </trkpt>
      <trkpt lat="50.0185" lon="4.24665">
        <ele>290.8</ele>
        <time>2024-04-28T06:56:05Z</time>
      </trkpt>
      <trkpt lat="50.01853" lon="4.24653">
        <ele>290.6</ele>
        <time>2024-04-28T06:56:06Z</time>
      </trkpt>
      <trkpt lat="50.01855" lon="4.2464">
        <ele>290.6</ele>
        <time>2024-04-28T06:56:07Z</time>
      </trkpt>
      <trkpt lat="50.01857" lon="4.24628">
        <ele>290</ele>
        <time>2024-04-28T06:56:08Z</time>
      </trkpt>
      <trkpt lat="50.01859" lon="4.24615">
        <ele>289.4</ele>
        <time>2024-04-28T06:56:09Z</time>
      </trkpt>
      <trkpt lat="50.0186" lon="4.24602">
        <ele>289.2</ele>
        <time>2024-04-28T06:56:10Z</time>
      </trkpt>
      <trkpt lat="50.01861" lon="4.2459">
        <ele>289.2</ele>
        <time>2024-04-28T06:56:11Z</time>
      </trkpt>
      <trkpt lat="50.01861" lon="4.24577">
        <ele>289.2</ele>
        <time>2024-04-28T06:56:12Z</time>
      </trkpt>
      <trkpt lat="50.01861" lon="4.24564">
        <ele>289</ele>
        <time>2024-04-28T06:56:13Z</time>
      </trkpt>
      <trkpt lat="50.01861" lon="4.24551">
        <ele>289</ele>
        <time>2024-04-28T06:56:14Z</time>
      </trkpt>
      <trkpt lat="50.0186" lon="4.24537">
        <ele>288.8</ele>
        <time>2024-04-28T06:56:15Z</time>
      </trkpt>
      <trkpt lat="50.0186" lon="4.24524">
        <ele>288.8</ele>
        <time>2024-04-28T06:56:16Z</time>
      </trkpt>
      <trkpt lat="50.01859" lon="4.24511">
        <ele>288.6</ele>
        <time>2024-04-28T06:56:17Z</time>
      </trkpt>
      <trkpt lat="50.01858" lon="4.24498">
        <ele>288.6</ele>
        <time>2024-04-28T06:56:18Z</time>
      </trkpt>
      <trkpt lat="50.01857" lon="4.24485">
        <ele>288.6</ele>
        <time>2024-04-28T06:56:19Z</time>
      </trkpt>
      <trkpt lat="50.01856" lon="4.24472">
        <ele>288.2</ele>
        <time>2024-04-28T06:56:20Z</time>
      </trkpt>
      <trkpt lat="50.01854" lon="4.2446">
        <ele>288.2</ele>
        <time>2024-04-28T06:56:21Z</time>
      </trkpt>
      <trkpt lat="50.01851" lon="4.24448">
        <ele>288</ele>
        <time>2024-04-28T06:56:22Z</time>
      </trkpt>
      <trkpt lat="50.01849" lon="4.24436">
        <ele>287.6</ele>
        <time>2024-04-28T06:56:23Z</time>
      </trkpt>
      <trkpt lat="50.01846" lon="4.24425">
        <ele>287.4</ele>
        <time>2024-04-28T06:56:24Z</time>
      </trkpt>
      <trkpt lat="50.01843" lon="4.24413">
        <ele>287.2</ele>
        <time>2024-04-28T06:56:25Z</time>
      </trkpt>
      <trkpt lat="50.01839" lon="4.24402">
        <ele>287.2</ele>
        <time>2024-04-28T06:56:26Z</time>
      </trkpt>
      <trkpt lat="50.01837" lon="4.24391">
        <ele>286.8</ele>
        <time>2024-04-28T06:56:27Z</time>
      </trkpt>
      <trkpt lat="50.01834" lon="4.24379">
        <ele>286.4</ele>
        <time>2024-04-28T06:56:28Z</time>
      </trkpt>
      <trkpt lat="50.01831" lon="4.24368">
        <ele>286</ele>
        <time>2024-04-28T06:56:29Z</time>
      </trkpt>
      <trkpt lat="50.01828" lon="4.24357">
        <ele>286</ele>
        <time>2024-04-28T06:56:30Z</time>
      </trkpt>
      <trkpt lat="50.01825" lon="4.24346">
        <ele>285.8</ele>
        <time>2024-04-28T06:56:31Z</time>
      </trkpt>
      <trkpt lat="50.01822" lon="4.24335">
        <ele>285.6</ele>
        <time>2024-04-28T06:56:32Z</time>
      </trkpt>
      <trkpt lat="50.01819" lon="4.24324">
        <ele>285.6</ele>
        <time>2024-04-28T06:56:33Z</time>
      </trkpt>
      <trkpt lat="50.01815" lon="4.24313">
        <ele>285.4</ele>
        <time>2024-04-28T06:56:34Z</time>
      </trkpt>
      <trkpt lat="50.01812" lon="4.24302">
        <ele>285.4</ele>
        <time>2024-04-28T06:56:35Z</time>
      </trkpt>
      <trkpt lat="50.01809" lon="4.2429">
        <ele>285.2</ele>
        <time>2024-04-28T06:56:36Z</time>
      </trkpt>
      <trkpt lat="50.01806" lon="4.24279">
        <ele>284.8</ele>
        <time>2024-04-28T06:56:37Z</time>
      </trkpt>
      <trkpt lat="50.01803" lon="4.24268">
        <ele>284.6</ele>
        <time>2024-04-28T06:56:38Z</time>
      </trkpt>
      <trkpt lat="50.018" lon="4.24257">
        <ele>284.6</ele>
        <time>2024-04-28T06:56:39Z</time>
      </trkpt>
      <trkpt lat="50.01797" lon="4.24245">
        <ele>284.4</ele>
        <time>2024-04-28T06:56:40Z</time>
      </trkpt>
      <trkpt lat="50.01793" lon="4.24234">
        <ele>284.4</ele>
        <time>2024-04-28T06:56:41Z</time>
      </trkpt>
      <trkpt lat="50.0179" lon="4.24222">
        <ele>284.2</ele>
        <time>2024-04-28T06:56:42Z</time>
      </trkpt>
      <trkpt lat="50.01787" lon="4.2421">
        <ele>283.8</ele>
        <time>2024-04-28T06:56:43Z</time>
      </trkpt>
      <trkpt lat="50.01783" lon="4.24198">
        <ele>283.6</ele>
        <time>2024-04-28T06:56:44Z</time>
      </trkpt>
      <trkpt lat="50.0178" lon="4.24186">
        <ele>283.4</ele>
        <time>2024-04-28T06:56:45Z</time>
      </trkpt>
      <trkpt lat="50.01776" lon="4.24174">
        <ele>283.2</ele>
        <time>2024-04-28T06:56:46Z</time>
      </trkpt>
      <trkpt lat="50.01773" lon="4.24161">
        <ele>283.2</ele>
        <time>2024-04-28T06:56:47Z</time>
      </trkpt>
      <trkpt lat="50.0177" lon="4.24149">
        <ele>283.4</ele>
        <time>2024-04-28T06:56:48Z</time>
      </trkpt>
      <trkpt lat="50.01766" lon="4.24137">
        <ele>283.4</ele>
        <time>2024-04-28T06:56:49Z</time>
      </trkpt>
      <trkpt lat="50.01762" lon="4.24125">
        <ele>283.2</ele>
        <time>2024-04-28T06:56:50Z</time>
      </trkpt>
      <trkpt lat="50.01757" lon="4.24114">
        <ele>282.8</ele>
        <time>2024-04-28T06:56:51Z</time>
      </trkpt>
      <trkpt lat="50.01752" lon="4.24102">
        <ele>282.4</ele>
        <time>2024-04-28T06:56:52Z</time>
      </trkpt>
      <trkpt lat="50.01747" lon="4.24091">
        <ele>282.6</ele>
        <time>2024-04-28T06:56:53Z</time>
      </trkpt>
      <trkpt lat="50.01741" lon="4.24079">
        <ele>282.4</ele>
        <time>2024-04-28T06:56:54Z</time>
      </trkpt>
      <trkpt lat="50.01735" lon="4.24068">
        <ele>281.8</ele>
        <time>2024-04-28T06:56:55Z</time>
      </trkpt>
      <trkpt lat="50.01729" lon="4.24056">
        <ele>281.4</ele>
        <time>2024-04-28T06:56:56Z</time>
      </trkpt>
      <trkpt lat="50.01723" lon="4.24045">
        <ele>280.8</ele>
        <time>2024-04-28T06:56:57Z</time>
      </trkpt>
      <trkpt lat="50.01717" lon="4.24033">
        <ele>280</ele>
        <time>2024-04-28T06:56:58Z</time>
      </trkpt>
      <trkpt lat="50.01711" lon="4.24021">
        <ele>279.2</ele>
        <time>2024-04-28T06:56:59Z</time>
      </trkpt>
      <trkpt lat="50.01705" lon="4.24009">
        <ele>278.4</ele>
        <time>2024-04-28T06:57:00Z</time>
      </trkpt>
      <trkpt lat="50.01699" lon="4.23996">
        <ele>277.8</ele>
        <time>2024-04-28T06:57:01Z</time>
      </trkpt>
      <trkpt lat="50.01694" lon="4.23982">
        <ele>277.4</ele>
        <time>2024-04-28T06:57:02Z</time>
      </trkpt>
      <trkpt lat="50.0169" lon="4.23968">
        <ele>276.8</ele>
        <time>2024-04-28T06:57:03Z</time>
      </trkpt>
      <trkpt lat="50.01686" lon="4.23953">
        <ele>275.6</ele>
        <time>2024-04-28T06:57:04Z</time>
      </trkpt>
      <trkpt lat="50.01684" lon="4.23937">
        <ele>275</ele>
        <time>2024-04-28T06:57:05Z</time>
      </trkpt>
      <trkpt lat="50.01682" lon="4.23922">
        <ele>274.4</ele>
        <time>2024-04-28T06:57:06Z</time>
      </trkpt>
      <trkpt lat="50.01679" lon="4.23908">
        <ele>274</ele>
        <time>2024-04-28T06:57:07Z</time>
      </trkpt>
      <trkpt lat="50.01677" lon="4.23894">
        <ele>273.4</ele>
        <time>2024-04-28T06:57:08Z</time>
      </trkpt>
      <trkpt lat="50.01676" lon="4.23881">
        <ele>272.6</ele>
        <time>2024-04-28T06:57:09Z</time>
      </trkpt>
      <trkpt lat="50.01676" lon="4.23869">
        <ele>272.6</ele>
        <time>2024-04-28T06:57:10Z</time>
      </trkpt>
      <trkpt lat="50.01676" lon="4.23858">
        <ele>272.2</ele>
        <time>2024-04-28T06:57:11Z</time>
      </trkpt>
      <trkpt lat="50.01676" lon="4.23849">
        <ele>271.8</ele>
        <time>2024-04-28T06:57:12Z</time>
      </trkpt>
      <trkpt lat="50.01675" lon="4.23842">
        <ele>271.6</ele>
        <time>2024-04-28T06:57:13Z</time>
      </trkpt>
      <trkpt lat="50.01673" lon="4.23838">
        <ele>271.4</ele>
        <time>2024-04-28T06:57:14Z</time>
      </trkpt>
      <trkpt lat="50.01669" lon="4.23836">
        <ele>271.4</ele>
        <time>2024-04-28T06:57:15Z</time>
      </trkpt>
      <trkpt lat="50.01664" lon="4.23836">
        <ele>271.4</ele>
        <time>2024-04-28T06:57:16Z</time>
      </trkpt>
      <trkpt lat="50.01659" lon="4.23838">
        <ele>271</ele>
        <time>2024-04-28T06:57:17Z</time>
      </trkpt>
      <trkpt lat="50.01653" lon="4.23839">
        <ele>270.8</ele>
        <time>2024-04-28T06:57:18Z</time>
      </trkpt>
      <trkpt lat="50.01647" lon="4.2384">
        <ele>270.4</ele>
        <time>2024-04-28T06:57:19Z</time>
      </trkpt>
      <trkpt lat="50.01641" lon="4.23842">
        <ele>270.2</ele>
        <time>2024-04-28T06:57:20Z</time>
      </trkpt>
      <trkpt lat="50.01634" lon="4.23844">
        <ele>270</ele>
        <time>2024-04-28T06:57:21Z</time>
      </trkpt>
      <trkpt lat="50.01627" lon="4.23846">
        <ele>269.8</ele>
        <time>2024-04-28T06:57:22Z</time>
      </trkpt>
      <trkpt lat="50.01619" lon="4.23848">
        <ele>269.6</ele>
        <time>2024-04-28T06:57:23Z</time>
      </trkpt>
      <trkpt lat="50.01611" lon="4.2385">
        <ele>269.6</ele>
        <time>2024-04-28T06:57:24Z</time>
      </trkpt>
      <trkpt lat="50.01604" lon="4.23851">
        <ele>269.8</ele>
        <time>2024-04-28T06:57:25Z</time>
      </trkpt>
      <trkpt lat="50.01596" lon="4.23853">
        <ele>270</ele>
        <time>2024-04-28T06:57:26Z</time>
      </trkpt>
      <trkpt lat="50.01589" lon="4.23854">
        <ele>270.4</ele>
        <time>2024-04-28T06:57:27Z</time>
      </trkpt>
      <trkpt lat="50.01582" lon="4.23854">
        <ele>270.6</ele>
        <time>2024-04-28T06:57:28Z</time>
      </trkpt>
      <trkpt lat="50.01575" lon="4.23855">
        <ele>271</ele>
        <time>2024-04-28T06:57:29Z</time>
      </trkpt>
      <trkpt lat="50.01568" lon="4.23856">
        <ele>271.4</ele>
        <time>2024-04-28T06:57:30Z</time>
      </trkpt>
      <trkpt lat="50.01561" lon="4.23857">
        <ele>271.4</ele>
        <time>2024-04-28T06:57:31Z</time>
      </trkpt>
      <trkpt lat="50.01554" lon="4.23858">
        <ele>271.6</ele>
        <time>2024-04-28T06:57:32Z</time>
      </trkpt>
      <trkpt lat="50.01548" lon="4.23859">
        <ele>271.6</ele>
        <time>2024-04-28T06:57:33Z</time>
      </trkpt>
      <trkpt lat="50.01541" lon="4.2386">
        <ele>271.8</ele>
        <time>2024-04-28T06:57:34Z</time>
      </trkpt>
      <trkpt lat="50.01535" lon="4.2386">
        <ele>271.6</ele>
        <time>2024-04-28T06:57:35Z</time>
      </trkpt>
      <trkpt lat="50.01528" lon="4.23861">
        <ele>271.6</ele>
        <time>2024-04-28T06:57:36Z</time>
      </trkpt>
      <trkpt lat="50.01522" lon="4.23861">
        <ele>271.6</ele>
        <time>2024-04-28T06:57:37Z</time>
      </trkpt>
      <trkpt lat="50.01515" lon="4.23861">
        <ele>271.6</ele>
        <time>2024-04-28T06:57:38Z</time>
      </trkpt>
      <trkpt lat="50.01509" lon="4.23861">
        <ele>271.8</ele>
        <time>2024-04-28T06:57:39Z</time>
      </trkpt>
      <trkpt lat="50.01502" lon="4.23861">
        <ele>272</ele>
        <time>2024-04-28T06:57:40Z</time>
      </trkpt>
      <trkpt lat="50.01495" lon="4.23862">
        <ele>272</ele>
        <time>2024-04-28T06:57:41Z</time>
      </trkpt>
      <trkpt lat="50.01488" lon="4.23862">
        <ele>272.2</ele>
        <time>2024-04-28T06:57:42Z</time>
      </trkpt>
      <trkpt lat="50.01481" lon="4.23862">
        <ele>272.2</ele>
        <time>2024-04-28T06:57:43Z</time>
      </trkpt>
      <trkpt lat="50.01475" lon="4.23862">
        <ele>272.6</ele>
        <time>2024-04-28T06:57:44Z</time>
      </trkpt>
      <trkpt lat="50.01468" lon="4.23862">
        <ele>273.2</ele>
        <time>2024-04-28T06:57:45Z</time>
      </trkpt>
      <trkpt lat="50.01461" lon="4.23862">
        <ele>273.4</ele>
        <time>2024-04-28T06:57:46Z</time>
      </trkpt>
      <trkpt lat="50.01454" lon="4.23862">
        <ele>273.6</ele>
        <time>2024-04-28T06:57:47Z</time>
      </trkpt>
      <trkpt lat="50.01447" lon="4.23862">
        <ele>273.8</ele>
        <time>2024-04-28T06:57:48Z</time>
      </trkpt>
      <trkpt lat="50.0144" lon="4.23862">
        <ele>273.8</ele>
        <time>2024-04-28T06:57:49Z</time>
      </trkpt>
      <trkpt lat="50.01433" lon="4.23862">
        <ele>273.8</ele>
        <time>2024-04-28T06:57:50Z</time>
      </trkpt>
      <trkpt lat="50.01426" lon="4.23862">
        <ele>274</ele>
        <time>2024-04-28T06:57:51Z</time>
      </trkpt>
      <trkpt lat="50.01419" lon="4.23862">
        <ele>273.8</ele>
        <time>2024-04-28T06:57:52Z</time>
      </trkpt>
      <trkpt lat="50.01413" lon="4.23862">
        <ele>273.8</ele>
        <time>2024-04-28T06:57:53Z</time>
      </trkpt>
      <trkpt lat="50.01406" lon="4.23862">
        <ele>274</ele>
        <time>2024-04-28T06:57:54Z</time>
      </trkpt>
      <trkpt lat="50.01399" lon="4.23862">
        <ele>274.2</ele>
        <time>2024-04-28T06:57:55Z</time>
      </trkpt>
      <trkpt lat="50.01392" lon="4.23862">
        <ele>274.2</ele>
        <time>2024-04-28T06:57:56Z</time>
      </trkpt>
      <trkpt lat="50.01386" lon="4.23862">
        <ele>274.2</ele>
        <time>2024-04-28T06:57:57Z</time>
      </trkpt>
      <trkpt lat="50.0138" lon="4.23862">
        <ele>274.2</ele>
        <time>2024-04-28T06:57:58Z</time>
      </trkpt>
      <trkpt lat="50.01373" lon="4.23862">
        <ele>274.2</ele>
        <time>2024-04-28T06:57:59Z</time>
      </trkpt>
      <trkpt lat="50.01367" lon="4.23862">
        <ele>274.2</ele>
        <time>2024-04-28T06:58:00Z</time>
      </trkpt>
      <trkpt lat="50.0136" lon="4.23862">
        <ele>274.4</ele>
        <time>2024-04-28T06:58:01Z</time>
      </trkpt>
      <trkpt lat="50.01354" lon="4.23862">
        <ele>274.6</ele>
        <time>2024-04-28T06:58:02Z</time>
      </trkpt>
      <trkpt lat="50.01347" lon="4.23863">
        <ele>274.6</ele>
        <time>2024-04-28T06:58:03Z</time>
      </trkpt>
      <trkpt lat="50.01341" lon="4.23863">
        <ele>274.8</ele>
        <time>2024-04-28T06:58:04Z</time>
      </trkpt>
      <trkpt lat="50.01334" lon="4.23863">
        <ele>274.8</ele>
        <time>2024-04-28T06:58:05Z</time>
      </trkpt>
      <trkpt lat="50.01328" lon="4.23863">
        <ele>275</ele>
        <time>2024-04-28T06:58:06Z</time>
      </trkpt>
      <trkpt lat="50.01321" lon="4.23864">
        <ele>275.2</ele>
        <time>2024-04-28T06:58:07Z</time>
      </trkpt>
      <trkpt lat="50.01315" lon="4.23864">
        <ele>275.4</ele>
        <time>2024-04-28T06:58:08Z</time>
      </trkpt>
      <trkpt lat="50.01309" lon="4.23865">
        <ele>275.4</ele>
        <time>2024-04-28T06:58:09Z</time>
      </trkpt>
      <trkpt lat="50.01303" lon="4.23866">
        <ele>275.4</ele>
        <time>2024-04-28T06:58:10Z</time>
      </trkpt>
      <trkpt lat="50.01297" lon="4.23867">
        <ele>275.4</ele>
        <time>2024-04-28T06:58:11Z</time>
      </trkpt>
      <trkpt lat="50.01291" lon="4.23869">
        <ele>275.6</ele>
        <time>2024-04-28T06:58:12Z</time>
      </trkpt>
      <trkpt lat="50.01285" lon="4.23871">
        <ele>275.4</ele>
        <time>2024-04-28T06:58:13Z</time>
      </trkpt>
      <trkpt lat="50.01279" lon="4.23872">
        <ele>275.4</ele>
        <time>2024-04-28T06:58:14Z</time>
      </trkpt>
      <trkpt lat="50.01273" lon="4.23874">
        <ele>275.4</ele>
        <time>2024-04-28T06:58:15Z</time>
      </trkpt>
      <trkpt lat="50.01267" lon="4.23875">
        <ele>275.4</ele>
        <time>2024-04-28T06:58:16Z</time>
      </trkpt>
      <trkpt lat="50.0126" lon="4.23877">
        <ele>275.6</ele>
        <time>2024-04-28T06:58:17Z</time>
      </trkpt>
      <trkpt lat="50.01254" lon="4.23879">
        <ele>275.6</ele>
        <time>2024-04-28T06:58:18Z</time>
      </trkpt>
      <trkpt lat="50.01248" lon="4.23881">
        <ele>275.4</ele>
        <time>2024-04-28T06:58:19Z</time>
      </trkpt>
      <trkpt lat="50.01242" lon="4.23883">
        <ele>275.6</ele>
        <time>2024-04-28T06:58:20Z</time>
      </trkpt>
      <trkpt lat="50.01235" lon="4.23885">
        <ele>275.6</ele>
        <time>2024-04-28T06:58:21Z</time>
      </trkpt>
      <trkpt lat="50.01229" lon="4.23887">
        <ele>275.4</ele>
        <time>2024-04-28T06:58:22Z</time>
      </trkpt>
      <trkpt lat="50.01223" lon="4.23889">
        <ele>275.6</ele>
        <time>2024-04-28T06:58:23Z</time>
      </trkpt>
      <trkpt lat="50.01217" lon="4.23891">
        <ele>275.8</ele>
        <time>2024-04-28T06:58:24Z</time>
      </trkpt>
      <trkpt lat="50.01211" lon="4.23893">
        <ele>276</ele>
        <time>2024-04-28T06:58:25Z</time>
      </trkpt>
      <trkpt lat="50.01205" lon="4.23895">
        <ele>276.2</ele>
        <time>2024-04-28T06:58:26Z</time>
      </trkpt>
      <trkpt lat="50.01199" lon="4.23897">
        <ele>276.2</ele>
        <time>2024-04-28T06:58:27Z</time>
      </trkpt>
      <trkpt lat="50.01193" lon="4.23899">
        <ele>276.2</ele>
        <time>2024-04-28T06:58:28Z</time>
      </trkpt>
      <trkpt lat="50.01187" lon="4.239">
        <ele>276.2</ele>
        <time>2024-04-28T06:58:29Z</time>
      </trkpt>
      <trkpt lat="50.0118" lon="4.23902">
        <ele>276.2</ele>
        <time>2024-04-28T06:58:30Z</time>
      </trkpt>
      <trkpt lat="50.01174" lon="4.23904">
        <ele>276.2</ele>
        <time>2024-04-28T06:58:31Z</time>
      </trkpt>
      <trkpt lat="50.01168" lon="4.23906">
        <ele>276.4</ele>
        <time>2024-04-28T06:58:32Z</time>
      </trkpt>
      <trkpt lat="50.01162" lon="4.23908">
        <ele>276.8</ele>
        <time>2024-04-28T06:58:33Z</time>
      </trkpt>
      <trkpt lat="50.01157" lon="4.2391">
        <ele>277</ele>
        <time>2024-04-28T06:58:34Z</time>
      </trkpt>
      <trkpt lat="50.0115" lon="4.23912">
        <ele>277</ele>
        <time>2024-04-28T06:58:35Z</time>
      </trkpt>
      <trkpt lat="50.01144" lon="4.23914">
        <ele>277</ele>
        <time>2024-04-28T06:58:36Z</time>
      </trkpt>
      <trkpt lat="50.01138" lon="4.23916">
        <ele>277.2</ele>
        <time>2024-04-28T06:58:37Z</time>
      </trkpt>
      <trkpt lat="50.01132" lon="4.23917">
        <ele>277.4</ele>
        <time>2024-04-28T06:58:38Z</time>
      </trkpt>
      <trkpt lat="50.01126" lon="4.23919">
        <ele>277.8</ele>
        <time>2024-04-28T06:58:39Z</time>
      </trkpt>
      <trkpt lat="50.01119" lon="4.23921">
        <ele>278</ele>
        <time>2024-04-28T06:58:40Z</time>
      </trkpt>
      <trkpt lat="50.01113" lon="4.23923">
        <ele>278</ele>
        <time>2024-04-28T06:58:41Z</time>
      </trkpt>
      <trkpt lat="50.01107" lon="4.23925">
        <ele>278.2</ele>
        <time>2024-04-28T06:58:42Z</time>
      </trkpt>
      <trkpt lat="50.01101" lon="4.23927">
        <ele>278.4</ele>
        <time>2024-04-28T06:58:43Z</time>
      </trkpt>
      <trkpt lat="50.01094" lon="4.23929">
        <ele>278.4</ele>
        <time>2024-04-28T06:58:44Z</time>
      </trkpt>
      <trkpt lat="50.01088" lon="4.23931">
        <ele>278.4</ele>
        <time>2024-04-28T06:58:45Z</time>
      </trkpt>
      <trkpt lat="50.01082" lon="4.23932">
        <ele>278.6</ele>
        <time>2024-04-28T06:58:46Z</time>
      </trkpt>
      <trkpt lat="50.01076" lon="4.23934">
        <ele>278.6</ele>
        <time>2024-04-28T06:58:47Z</time>
      </trkpt>
      <trkpt lat="50.0107" lon="4.23936">
        <ele>278.8</ele>
        <time>2024-04-28T06:58:48Z</time>
      </trkpt>
      <trkpt lat="50.01064" lon="4.23937">
        <ele>278.6</ele>
        <time>2024-04-28T06:58:49Z</time>
      </trkpt>
      <trkpt lat="50.01058" lon="4.23939">
        <ele>278.8</ele>
        <time>2024-04-28T06:58:50Z</time>
      </trkpt>
      <trkpt lat="50.01052" lon="4.23941">
        <ele>278.8</ele>
        <time>2024-04-28T06:58:51Z</time>
      </trkpt>
      <trkpt lat="50.01046" lon="4.23943">
        <ele>278.8</ele>
        <time>2024-04-28T06:58:52Z</time>
      </trkpt>
      <trkpt lat="50.0104" lon="4.23945">
        <ele>278.8</ele>
        <time>2024-04-28T06:58:53Z</time>
      </trkpt>
      <trkpt lat="50.01034" lon="4.23947">
        <ele>279</ele>
        <time>2024-04-28T06:58:54Z</time>
      </trkpt>
      <trkpt lat="50.01028" lon="4.23948">
        <ele>279</ele>
        <time>2024-04-28T06:58:55Z</time>
      </trkpt>
      <trkpt lat="50.01023" lon="4.2395">
        <ele>279</ele>
        <time>2024-04-28T06:58:56Z</time>
      </trkpt>
      <trkpt lat="50.01017" lon="4.23951">
        <ele>279</ele>
        <time>2024-04-28T06:58:57Z</time>
      </trkpt>
      <trkpt lat="50.01011" lon="4.23953">
        <ele>279.2</ele>
        <time>2024-04-28T06:58:58Z</time>
      </trkpt>
      <trkpt lat="50.01006" lon="4.23955">
        <ele>279.6</ele>
        <time>2024-04-28T06:58:59Z</time>
      </trkpt>
      <trkpt lat="50.01" lon="4.23956">
        <ele>279.6</ele>
        <time>2024-04-28T06:59:00Z</time>
      </trkpt>
      <trkpt lat="50.00995" lon="4.23958">
        <ele>280.2</ele>
        <time>2024-04-28T06:59:01Z</time>
      </trkpt>
      <trkpt lat="50.00989" lon="4.2396">
        <ele>280.4</ele>
        <time>2024-04-28T06:59:02Z</time>
      </trkpt>
      <trkpt lat="50.00984" lon="4.23961">
        <ele>280.4</ele>
        <time>2024-04-28T06:59:03Z</time>
      </trkpt>
      <trkpt lat="50.00979" lon="4.23962">
        <ele>280.6</ele>
        <time>2024-04-28T06:59:04Z</time>
      </trkpt>
      <trkpt lat="50.00973" lon="4.23963">
        <ele>280.6</ele>
        <time>2024-04-28T06:59:05Z</time>
      </trkpt>
      <trkpt lat="50.00968" lon="4.23963">
        <ele>280.8</ele>
        <time>2024-04-28T06:59:06Z</time>
      </trkpt>
      <trkpt lat="50.00964" lon="4.23964">
        <ele>280.8</ele>
        <time>2024-04-28T06:59:07Z</time>
      </trkpt>
      <trkpt lat="50.0096" lon="4.23963">
        <ele>281</ele>
        <time>2024-04-28T06:59:08Z</time>
      </trkpt>
      <trkpt lat="50.00956" lon="4.23961">
        <ele>281</ele>
        <time>2024-04-28T06:59:09Z</time>
      </trkpt>
      <trkpt lat="50.00954" lon="4.23958">
        <ele>281</ele>
        <time>2024-04-28T06:59:10Z</time>
      </trkpt>
      <trkpt lat="50.00953" lon="4.23953">
        <ele>280.8</ele>
        <time>2024-04-28T06:59:11Z</time>
      </trkpt>
      <trkpt lat="50.00953" lon="4.23948">
        <ele>280.8</ele>
        <time>2024-04-28T06:59:12Z</time>
      </trkpt>
      <trkpt lat="50.00953" lon="4.23942">
        <ele>280.8</ele>
        <time>2024-04-28T06:59:13Z</time>
      </trkpt>
      <trkpt lat="50.00954" lon="4.23935">
        <ele>281</ele>
        <time>2024-04-28T06:59:14Z</time>
      </trkpt>
      <trkpt lat="50.00954" lon="4.23929">
        <ele>281</ele>
        <time>2024-04-28T06:59:15Z</time>
      </trkpt>
      <trkpt lat="50.00954" lon="4.23922">
        <ele>281</ele>
        <time>2024-04-28T06:59:16Z</time>
      </trkpt>
      <trkpt lat="50.00955" lon="4.23915">
        <ele>281</ele>
        <time>2024-04-28T06:59:17Z</time>
      </trkpt>
      <trkpt lat="50.00955" lon="4.23908">
        <ele>281</ele>
        <time>2024-04-28T06:59:18Z</time>
      </trkpt>
      <trkpt lat="50.00955" lon="4.239">
        <ele>281</ele>
        <time>2024-04-28T06:59:19Z</time>
      </trkpt>
      <trkpt lat="50.00956" lon="4.23893">
        <ele>281</ele>
        <time>2024-04-28T06:59:20Z</time>
      </trkpt>
      <trkpt lat="50.00956" lon="4.23886">
        <ele>281</ele>
        <time>2024-04-28T06:59:21Z</time>
      </trkpt>
      <trkpt lat="50.00956" lon="4.23879">
        <ele>281.2</ele>
        <time>2024-04-28T06:59:22Z</time>
      </trkpt>
      <trkpt lat="50.00956" lon="4.23872">
        <ele>281</ele>
        <time>2024-04-28T06:59:23Z</time>
      </trkpt>
      <trkpt lat="50.00956" lon="4.23866">
        <ele>281.2</ele>
        <time>2024-04-28T06:59:24Z</time>
      </trkpt>
      <trkpt lat="50.00957" lon="4.2386">
        <ele>281.4</ele>
        <time>2024-04-28T06:59:25Z</time>
      </trkpt>
      <trkpt lat="50.00957" lon="4.23854">
        <ele>281.6</ele>
        <time>2024-04-28T06:59:26Z</time>
      </trkpt>
      <trkpt lat="50.00957" lon="4.23847">
        <ele>281.8</ele>
        <time>2024-04-28T06:59:27Z</time>
      </trkpt>
      <trkpt lat="50.00957" lon="4.2384">
        <ele>281.8</ele>
        <time>2024-04-28T06:59:28Z</time>
      </trkpt>
      <trkpt lat="50.00958" lon="4.23833">
        <ele>281.8</ele>
        <time>2024-04-28T06:59:29Z</time>
      </trkpt>
      <trkpt lat="50.00958" lon="4.23825">
        <ele>281.8</ele>
        <time>2024-04-28T06:59:30Z</time>
      </trkpt>
      <trkpt lat="50.00958" lon="4.23817">
        <ele>281.8</ele>
        <time>2024-04-28T06:59:31Z</time>
      </trkpt>
      <trkpt lat="50.00958" lon="4.23809">
        <ele>282</ele>
        <time>2024-04-28T06:59:32Z</time>
      </trkpt>
      <trkpt lat="50.00958" lon="4.23801">
        <ele>282</ele>
        <time>2024-04-28T06:59:33Z</time>
      </trkpt>
      <trkpt lat="50.00959" lon="4.23793">
        <ele>282</ele>
        <time>2024-04-28T06:59:34Z</time>
      </trkpt>
      <trkpt lat="50.00959" lon="4.23785">
        <ele>282</ele>
        <time>2024-04-28T06:59:35Z</time>
      </trkpt>
      <trkpt lat="50.00959" lon="4.23777">
        <ele>282.2</ele>
        <time>2024-04-28T06:59:36Z</time>
      </trkpt>
      <trkpt lat="50.00959" lon="4.23769">
        <ele>282</ele>
        <time>2024-04-28T06:59:37Z</time>
      </trkpt>
      <trkpt lat="50.0096" lon="4.23761">
        <ele>282.2</ele>
        <time>2024-04-28T06:59:38Z</time>
      </trkpt>
      <trkpt lat="50.0096" lon="4.23753">
        <ele>282.4</ele>
        <time>2024-04-28T06:59:39Z</time>
      </trkpt>
      <trkpt lat="50.0096" lon="4.23745">
        <ele>282.4</ele>
        <time>2024-04-28T06:59:40Z</time>
      </trkpt>
      <trkpt lat="50.00961" lon="4.23737">
        <ele>282.2</ele>
        <time>2024-04-28T06:59:41Z</time>
      </trkpt>
      <trkpt lat="50.00961" lon="4.23729">
        <ele>282</ele>
        <time>2024-04-28T06:59:42Z</time>
      </trkpt>
      <trkpt lat="50.00961" lon="4.23721">
        <ele>282</ele>
        <time>2024-04-28T06:59:43Z</time>
      </trkpt>
      <trkpt lat="50.00961" lon="4.23713">
        <ele>282</ele>
        <time>2024-04-28T06:59:44Z</time>
      </trkpt>
      <trkpt lat="50.00962" lon="4.23706">
        <ele>282</ele>
        <time>2024-04-28T06:59:45Z</time>
      </trkpt>
      <trkpt lat="50.00962" lon="4.23698">
        <ele>281.8</ele>
        <time>2024-04-28T06:59:46Z</time>
      </trkpt>
      <trkpt lat="50.00962" lon="4.2369">
        <ele>282</ele>
        <time>2024-04-28T06:59:47Z</time>
      </trkpt>
      <trkpt lat="50.00962" lon="4.23683">
        <ele>281.8</ele>
        <time>2024-04-28T06:59:48Z</time>
      </trkpt>
      <trkpt lat="50.00962" lon="4.23675">
        <ele>281.8</ele>
        <time>2024-04-28T06:59:49Z</time>
      </trkpt>
      <trkpt lat="50.00963" lon="4.23667">
        <ele>281.8</ele>
        <time>2024-04-28T06:59:50Z</time>
      </trkpt>
      <trkpt lat="50.00963" lon="4.23659">
        <ele>281.8</ele>
        <time>2024-04-28T06:59:51Z</time>
      </trkpt>
      <trkpt lat="50.00963" lon="4.2365">
        <ele>281.8</ele>
        <time>2024-04-28T06:59:52Z</time>
      </trkpt>
      <trkpt lat="50.00963" lon="4.23642">
        <ele>282</ele>
        <time>2024-04-28T06:59:53Z</time>
      </trkpt>
      <trkpt lat="50.00964" lon="4.23633">
        <ele>282</ele>
        <time>2024-04-28T06:59:54Z</time>
      </trkpt>
      <trkpt lat="50.00964" lon="4.23624">
        <ele>282</ele>
        <time>2024-04-28T06:59:55Z</time>
      </trkpt>
      <trkpt lat="50.00964" lon="4.23616">
        <ele>281.8</ele>
        <time>2024-04-28T06:59:56Z</time>
      </trkpt>
      <trkpt lat="50.00964" lon="4.23606">
        <ele>282</ele>
        <time>2024-04-28T06:59:57Z</time>
      </trkpt>
      <trkpt lat="50.00964" lon="4.23597">
        <ele>281.8</ele>
        <time>2024-04-28T06:59:58Z</time>
      </trkpt>
      <trkpt lat="50.00964" lon="4.23589">
        <ele>281.8</ele>
        <time>2024-04-28T06:59:59Z</time>
      </trkpt>
      <trkpt lat="50.00965" lon="4.2358">
        <ele>281.8</ele>
        <time>2024-04-28T07:00:00Z</time>
      </trkpt>
      <trkpt lat="50.00965" lon="4.23571">
        <ele>282</ele>
        <time>2024-04-28T07:00:01Z</time>
      </trkpt>
      <trkpt lat="50.00965" lon="4.23562">
        <ele>282</ele>
        <time>2024-04-28T07:00:02Z</time>
      </trkpt>
      <trkpt lat="50.00965" lon="4.23553">
        <ele>282</ele>
        <time>2024-04-28T07:00:03Z</time>
      </trkpt>
      <trkpt lat="50.00966" lon="4.23545">
        <ele>281.8</ele>
        <time>2024-04-28T07:00:04Z</time>
      </trkpt>
      <trkpt lat="50.00967" lon="4.23536">
        <ele>282</ele>
        <time>2024-04-28T07:00:05Z</time>
      </trkpt>
      <trkpt lat="50.00967" lon="4.23528">
        <ele>281.8</ele>
        <time>2024-04-28T07:00:06Z</time>
      </trkpt>
      <trkpt lat="50.00968" lon="4.2352">
        <ele>281.6</ele>
        <time>2024-04-28T07:00:07Z</time>
      </trkpt>
      <trkpt lat="50.00968" lon="4.23511">
        <ele>281.4</ele>
        <time>2024-04-28T07:00:08Z</time>
      </trkpt>
      <trkpt lat="50.00968" lon="4.23502">
        <ele>281.4</ele>
        <time>2024-04-28T07:00:09Z</time>
      </trkpt>
      <trkpt lat="50.00968" lon="4.23493">
        <ele>281.2</ele>
        <time>2024-04-28T07:00:10Z</time>
      </trkpt>
      <trkpt lat="50.00968" lon="4.23485">
        <ele>281.2</ele>
        <time>2024-04-28T07:00:11Z</time>
      </trkpt>
      <trkpt lat="50.00969" lon="4.23476">
        <ele>281.4</ele>
        <time>2024-04-28T07:00:12Z</time>
      </trkpt>
      <trkpt lat="50.00969" lon="4.23467">
        <ele>281.2</ele>
        <time>2024-04-28T07:00:13Z</time>
      </trkpt>
      <trkpt lat="50.0097" lon="4.23458">
        <ele>281.2</ele>
        <time>2024-04-28T07:00:14Z</time>
      </trkpt>
      <trkpt lat="50.0097" lon="4.23449">
        <ele>281.2</ele>
        <time>2024-04-28T07:00:15Z</time>
      </trkpt>
      <trkpt lat="50.0097" lon="4.2344">
        <ele>281.4</ele>
        <time>2024-04-28T07:00:16Z</time>
      </trkpt>
      <trkpt lat="50.0097" lon="4.23431">
        <ele>281</ele>
        <time>2024-04-28T07:00:17Z</time>
      </trkpt>
      <trkpt lat="50.0097" lon="4.23422">
        <ele>281.4</ele>
        <time>2024-04-28T07:00:18Z</time>
      </trkpt>
      <trkpt lat="50.0097" lon="4.23413">
        <ele>281.4</ele>
        <time>2024-04-28T07:00:19Z</time>
      </trkpt>
      <trkpt lat="50.00971" lon="4.23404">
        <ele>281.4</ele>
        <time>2024-04-28T07:00:20Z</time>
      </trkpt>
      <trkpt lat="50.00971" lon="4.23395">
        <ele>281.8</ele>
        <time>2024-04-28T07:00:21Z</time>
      </trkpt>
      <trkpt lat="50.00971" lon="4.23386">
        <ele>281.8</ele>
        <time>2024-04-28T07:00:22Z</time>
      </trkpt>
      <trkpt lat="50.00972" lon="4.23377">
        <ele>282</ele>
        <time>2024-04-28T07:00:23Z</time>
      </trkpt>
      <trkpt lat="50.00972" lon="4.23368">
        <ele>282</ele>
        <time>2024-04-28T07:00:24Z</time>
      </trkpt>
      <trkpt lat="50.00972" lon="4.23359">
        <ele>282.2</ele>
        <time>2024-04-28T07:00:25Z</time>
      </trkpt>
      <trkpt lat="50.00972" lon="4.2335">
        <ele>282.2</ele>
        <time>2024-04-28T07:00:26Z</time>
      </trkpt>
      <trkpt lat="50.00972" lon="4.23341">
        <ele>282.2</ele>
        <time>2024-04-28T07:00:27Z</time>
      </trkpt>
      <trkpt lat="50.00973" lon="4.23333">
        <ele>282.4</ele>
        <time>2024-04-28T07:00:28Z</time>
      </trkpt>
      <trkpt lat="50.00973" lon="4.23324">
        <ele>282.6</ele>
        <time>2024-04-28T07:00:29Z</time>
      </trkpt>
      <trkpt lat="50.00974" lon="4.23315">
        <ele>282.4</ele>
        <time>2024-04-28T07:00:30Z</time>
      </trkpt>
      <trkpt lat="50.00974" lon="4.23306">
        <ele>282.6</ele>
        <time>2024-04-28T07:00:31Z</time>
      </trkpt>
      <trkpt lat="50.00974" lon="4.23297">
        <ele>282.6</ele>
        <time>2024-04-28T07:00:32Z</time>
      </trkpt>
      <trkpt lat="50.00974" lon="4.23288">
        <ele>282.6</ele>
        <time>2024-04-28T07:00:33Z</time>
      </trkpt>
      <trkpt lat="50.00974" lon="4.23279">
        <ele>282.6</ele>
        <time>2024-04-28T07:00:34Z</time>
      </trkpt>
      <trkpt lat="50.00975" lon="4.2327">
        <ele>282.6</ele>
        <time>2024-04-28T07:00:35Z</time>
      </trkpt>
      <trkpt lat="50.00975" lon="4.23261">
        <ele>282.8</ele>
        <time>2024-04-28T07:00:36Z</time>
      </trkpt>
      <trkpt lat="50.00976" lon="4.23252">
        <ele>282.8</ele>
        <time>2024-04-28T07:00:37Z</time>
      </trkpt>
      <trkpt lat="50.00976" lon="4.23242">
        <ele>282.8</ele>
        <time>2024-04-28T07:00:38Z</time>
      </trkpt>
      <trkpt lat="50.00976" lon="4.23233">
        <ele>282.8</ele>
        <time>2024-04-28T07:00:39Z</time>
      </trkpt>
      <trkpt lat="50.00976" lon="4.23223">
        <ele>282.8</ele>
        <time>2024-04-28T07:00:40Z</time>
      </trkpt>
      <trkpt lat="50.00976" lon="4.23214">
        <ele>283</ele>
        <time>2024-04-28T07:00:41Z</time>
      </trkpt>
      <trkpt lat="50.00976" lon="4.23204">
        <ele>283.2</ele>
        <time>2024-04-28T07:00:42Z</time>
      </trkpt>
      <trkpt lat="50.00977" lon="4.23194">
        <ele>283.2</ele>
        <time>2024-04-28T07:00:43Z</time>
      </trkpt>
      <trkpt lat="50.00977" lon="4.23185">
        <ele>283.2</ele>
        <time>2024-04-28T07:00:44Z</time>
      </trkpt>
      <trkpt lat="50.00977" lon="4.23176">
        <ele>283.4</ele>
        <time>2024-04-28T07:00:45Z</time>
      </trkpt>
      <trkpt lat="50.00978" lon="4.23167">
        <ele>283.2</ele>
        <time>2024-04-28T07:00:46Z</time>
      </trkpt>
      <trkpt lat="50.00978" lon="4.23158">
        <ele>283.2</ele>
        <time>2024-04-28T07:00:47Z</time>
      </trkpt>
      <trkpt lat="50.00978" lon="4.23149">
        <ele>283.4</ele>
        <time>2024-04-28T07:00:48Z</time>
      </trkpt>
      <trkpt lat="50.00978" lon="4.2314">
        <ele>283.4</ele>
        <time>2024-04-28T07:00:49Z</time>
      </trkpt>
      <trkpt lat="50.00979" lon="4.23132">
        <ele>283.2</ele>
        <time>2024-04-28T07:00:50Z</time>
      </trkpt>
      <trkpt lat="50.00979" lon="4.23124">
        <ele>283.2</ele>
        <time>2024-04-28T07:00:51Z</time>
      </trkpt>
      <trkpt lat="50.00979" lon="4.23115">
        <ele>283.2</ele>
        <time>2024-04-28T07:00:52Z</time>
      </trkpt>
      <trkpt lat="50.0098" lon="4.23106">
        <ele>283.2</ele>
        <time>2024-04-28T07:00:53Z</time>
      </trkpt>
      <trkpt lat="50.0098" lon="4.23096">
        <ele>283.4</ele>
        <time>2024-04-28T07:00:54Z</time>
      </trkpt>
      <trkpt lat="50.00981" lon="4.23087">
        <ele>283.4</ele>
        <time>2024-04-28T07:00:55Z</time>
      </trkpt>
      <trkpt lat="50.00981" lon="4.23078">
        <ele>283.2</ele>
        <time>2024-04-28T07:00:56Z</time>
      </trkpt>
      <trkpt lat="50.00981" lon="4.23068">
        <ele>283</ele>
        <time>2024-04-28T07:00:57Z</time>
      </trkpt>
      <trkpt lat="50.00981" lon="4.23059">
        <ele>282.6</ele>
        <time>2024-04-28T07:00:58Z</time>
      </trkpt>
      <trkpt lat="50.00982" lon="4.2305">
        <ele>282.6</ele>
        <time>2024-04-28T07:00:59Z</time>
      </trkpt>
      <trkpt lat="50.00982" lon="4.2304">
        <ele>282.8</ele>
        <time>2024-04-28T07:01:00Z</time>
      </trkpt>
      <trkpt lat="50.00982" lon="4.23031">
        <ele>282.6</ele>
        <time>2024-04-28T07:01:01Z</time>
      </trkpt>
      <trkpt lat="50.00983" lon="4.23022">
        <ele>282.6</ele>
        <time>2024-04-28T07:01:02Z</time>
      </trkpt>
      <trkpt lat="50.00983" lon="4.23012">
        <ele>282.6</ele>
        <time>2024-04-28T07:01:03Z</time>
      </trkpt>
      <trkpt lat="50.00983" lon="4.23003">
        <ele>282.6</ele>
        <time>2024-04-28T07:01:04Z</time>
      </trkpt>
      <trkpt lat="50.00984" lon="4.22993">
        <ele>282.8</ele>
        <time>2024-04-28T07:01:05Z</time>
      </trkpt>
      <trkpt lat="50.00984" lon="4.22984">
        <ele>283</ele>
        <time>2024-04-28T07:01:06Z</time>
      </trkpt>
      <trkpt lat="50.00985" lon="4.22975">
        <ele>283</ele>
        <time>2024-04-28T07:01:07Z</time>
      </trkpt>
      <trkpt lat="50.00985" lon="4.22966">
        <ele>283.2</ele>
        <time>2024-04-28T07:01:08Z</time>
      </trkpt>
      <trkpt lat="50.00985" lon="4.22957">
        <ele>283.2</ele>
        <time>2024-04-28T07:01:09Z</time>
      </trkpt>
      <trkpt lat="50.00985" lon="4.22948">
        <ele>283.4</ele>
        <time>2024-04-28T07:01:10Z</time>
      </trkpt>
      <trkpt lat="50.00985" lon="4.22938">
        <ele>283.4</ele>
        <time>2024-04-28T07:01:11Z</time>
      </trkpt>
      <trkpt lat="50.00985" lon="4.22929">
        <ele>283.6</ele>
        <time>2024-04-28T07:01:12Z</time>
      </trkpt>
      <trkpt lat="50.00986" lon="4.22919">
        <ele>283.8</ele>
        <time>2024-04-28T07:01:13Z</time>
      </trkpt>
      <trkpt lat="50.00987" lon="4.2291">
        <ele>283.8</ele>
        <time>2024-04-28T07:01:14Z</time>
      </trkpt>
      <trkpt lat="50.00988" lon="4.22901">
        <ele>283.8</ele>
        <time>2024-04-28T07:01:15Z</time>
      </trkpt>
      <trkpt lat="50.00988" lon="4.22892">
        <ele>283.8</ele>
        <time>2024-04-28T07:01:16Z</time>
      </trkpt>
      <trkpt lat="50.00989" lon="4.22883">
        <ele>284.2</ele>
        <time>2024-04-28T07:01:17Z</time>
      </trkpt>
      <trkpt lat="50.00989" lon="4.22873">
        <ele>284.6</ele>
        <time>2024-04-28T07:01:18Z</time>
      </trkpt>
      <trkpt lat="50.0099" lon="4.22864">
        <ele>284.8</ele>
        <time>2024-04-28T07:01:19Z</time>
      </trkpt>
      <trkpt lat="50.0099" lon="4.22855">
        <ele>285</ele>
        <time>2024-04-28T07:01:20Z</time>
      </trkpt>
      <trkpt lat="50.0099" lon="4.22846">
        <ele>285.2</ele>
        <time>2024-04-28T07:01:21Z</time>
      </trkpt>
      <trkpt lat="50.00991" lon="4.22838">
        <ele>285.2</ele>
        <time>2024-04-28T07:01:22Z</time>
      </trkpt>
      <trkpt lat="50.00991" lon="4.22829">
        <ele>285.2</ele>
        <time>2024-04-28T07:01:23Z</time>
      </trkpt>
      <trkpt lat="50.00992" lon="4.2282">
        <ele>285.2</ele>
        <time>2024-04-28T07:01:24Z</time>
      </trkpt>
      <trkpt lat="50.00992" lon="4.22812">
        <ele>285.2</ele>
        <time>2024-04-28T07:01:25Z</time>
      </trkpt>
      <trkpt lat="50.00992" lon="4.22803">
        <ele>285.2</ele>
        <time>2024-04-28T07:01:26Z</time>
      </trkpt>
      <trkpt lat="50.00992" lon="4.22794">
        <ele>285.2</ele>
        <time>2024-04-28T07:01:27Z</time>
      </trkpt>
      <trkpt lat="50.00993" lon="4.22785">
        <ele>285.2</ele>
        <time>2024-04-28T07:01:28Z</time>
      </trkpt>
      <trkpt lat="50.00993" lon="4.22777">
        <ele>285.2</ele>
        <time>2024-04-28T07:01:29Z</time>
      </trkpt>
      <trkpt lat="50.00993" lon="4.22768">
        <ele>285.2</ele>
        <time>2024-04-28T07:01:30Z</time>
      </trkpt>
      <trkpt lat="50.00994" lon="4.22759">
        <ele>285.2</ele>
        <time>2024-04-28T07:01:31Z</time>
      </trkpt>
      <trkpt lat="50.00994" lon="4.22751">
        <ele>285.2</ele>
        <time>2024-04-28T07:01:32Z</time>
      </trkpt>
      <trkpt lat="50.00994" lon="4.22742">
        <ele>285.4</ele>
        <time>2024-04-28T07:01:33Z</time>
      </trkpt>
      <trkpt lat="50.00995" lon="4.22733">
        <ele>285.2</ele>
        <time>2024-04-28T07:01:34Z</time>
      </trkpt>
      <trkpt lat="50.00995" lon="4.22724">
        <ele>285.4</ele>
        <time>2024-04-28T07:01:35Z</time>
      </trkpt>
      <trkpt lat="50.00996" lon="4.22715">
        <ele>285.4</ele>
        <time>2024-04-28T07:01:36Z</time>
      </trkpt>
      <trkpt lat="50.00996" lon="4.22706">
        <ele>285.2</ele>
        <time>2024-04-28T07:01:37Z</time>
      </trkpt>
      <trkpt lat="50.00996" lon="4.22697">
        <ele>285.4</ele>
        <time>2024-04-28T07:01:38Z</time>
      </trkpt>
      <trkpt lat="50.00996" lon="4.22687">
        <ele>285.4</ele>
        <time>2024-04-28T07:01:39Z</time>
      </trkpt>
      <trkpt lat="50.00996" lon="4.22678">
        <ele>285.2</ele>
        <time>2024-04-28T07:01:40Z</time>
      </trkpt>
      <trkpt lat="50.00997" lon="4.22668">
        <ele>285.2</ele>
        <time>2024-04-28T07:01:41Z</time>
      </trkpt>
      <trkpt lat="50.00997" lon="4.22658">
        <ele>285</ele>
        <time>2024-04-28T07:01:42Z</time>
      </trkpt>
      <trkpt lat="50.00997" lon="4.22648">
        <ele>285</ele>
        <time>2024-04-28T07:01:43Z</time>
      </trkpt>
      <trkpt lat="50.00997" lon="4.22638">
        <ele>284.8</ele>
        <time>2024-04-28T07:01:44Z</time>
      </trkpt>
      <trkpt lat="50.00997" lon="4.22627">
        <ele>284.6</ele>
        <time>2024-04-28T07:01:45Z</time>
      </trkpt>
      <trkpt lat="50.00998" lon="4.22617">
        <ele>284.4</ele>
        <time>2024-04-28T07:01:46Z</time>
      </trkpt>
      <trkpt lat="50.00998" lon="4.22606">
        <ele>284.2</ele>
        <time>2024-04-28T07:01:47Z</time>
      </trkpt>
      <trkpt lat="50.00999" lon="4.22596">
        <ele>284.2</ele>
        <time>2024-04-28T07:01:48Z</time>
      </trkpt>
      <trkpt lat="50.00999" lon="4.22586">
        <ele>283.8</ele>
        <time>2024-04-28T07:01:49Z</time>
      </trkpt>
      <trkpt lat="50.00999" lon="4.22576">
        <ele>283.6</ele>
        <time>2024-04-28T07:01:50Z</time>
      </trkpt>
      <trkpt lat="50.01" lon="4.22565">
        <ele>283.6</ele>
        <time>2024-04-28T07:01:51Z</time>
      </trkpt>
      <trkpt lat="50.01" lon="4.22555">
        <ele>283.4</ele>
        <time>2024-04-28T07:01:52Z</time>
      </trkpt>
      <trkpt lat="50.01" lon="4.22544">
        <ele>283.2</ele>
        <time>2024-04-28T07:01:53Z</time>
      </trkpt>
      <trkpt lat="50.01001" lon="4.22533">
        <ele>283.2</ele>
        <time>2024-04-28T07:01:54Z</time>
      </trkpt>
      <trkpt lat="50.01001" lon="4.22523">
        <ele>283.2</ele>
        <time>2024-04-28T07:01:55Z</time>
      </trkpt>
      <trkpt lat="50.01001" lon="4.22512">
        <ele>283.2</ele>
        <time>2024-04-28T07:01:56Z</time>
      </trkpt>
      <trkpt lat="50.01001" lon="4.22501">
        <ele>283.2</ele>
        <time>2024-04-28T07:01:57Z</time>
      </trkpt>
      <trkpt lat="50.01002" lon="4.22489">
        <ele>283.2</ele>
        <time>2024-04-28T07:01:58Z</time>
      </trkpt>
      <trkpt lat="50.01002" lon="4.22477">
        <ele>283.2</ele>
        <time>2024-04-28T07:01:59Z</time>
      </trkpt>
      <trkpt lat="50.01003" lon="4.22465">
        <ele>283.2</ele>
        <time>2024-04-28T07:02:00Z</time>
      </trkpt>
      <trkpt lat="50.01003" lon="4.22452">
        <ele>283.2</ele>
        <time>2024-04-28T07:02:01Z</time>
      </trkpt>
      <trkpt lat="50.01004" lon="4.2244">
        <ele>283.2</ele>
        <time>2024-04-28T07:02:02Z</time>
      </trkpt>
      <trkpt lat="50.01004" lon="4.22428">
        <ele>283.2</ele>
        <time>2024-04-28T07:02:03Z</time>
      </trkpt>
      <trkpt lat="50.01005" lon="4.22416">
        <ele>283.4</ele>
        <time>2024-04-28T07:02:04Z</time>
      </trkpt>
      <trkpt lat="50.01005" lon="4.22403">
        <ele>283.6</ele>
        <time>2024-04-28T07:02:05Z</time>
      </trkpt>
      <trkpt lat="50.01006" lon="4.22391">
        <ele>283.8</ele>
        <time>2024-04-28T07:02:06Z</time>
      </trkpt>
      <trkpt lat="50.01006" lon="4.22378">
        <ele>284</ele>
        <time>2024-04-28T07:02:07Z</time>
      </trkpt>
      <trkpt lat="50.01006" lon="4.22365">
        <ele>284</ele>
        <time>2024-04-28T07:02:08Z</time>
      </trkpt>
      <trkpt lat="50.01006" lon="4.22352">
        <ele>284.2</ele>
        <time>2024-04-28T07:02:09Z</time>
      </trkpt>
      <trkpt lat="50.01007" lon="4.22339">
        <ele>284.2</ele>
        <time>2024-04-28T07:02:10Z</time>
      </trkpt>
      <trkpt lat="50.01007" lon="4.22326">
        <ele>284</ele>
        <time>2024-04-28T07:02:11Z</time>
      </trkpt>
      <trkpt lat="50.01007" lon="4.22314">
        <ele>284.2</ele>
        <time>2024-04-28T07:02:12Z</time>
      </trkpt>
      <trkpt lat="50.01008" lon="4.22301">
        <ele>284.2</ele>
        <time>2024-04-28T07:02:13Z</time>
      </trkpt>
      <trkpt lat="50.01008" lon="4.22288">
        <ele>284.2</ele>
        <time>2024-04-28T07:02:14Z</time>
      </trkpt>
      <trkpt lat="50.01008" lon="4.22275">
        <ele>284</ele>
        <time>2024-04-28T07:02:15Z</time>
      </trkpt>
      <trkpt lat="50.01008" lon="4.22263">
        <ele>283.8</ele>
        <time>2024-04-28T07:02:16Z</time>
      </trkpt>
      <trkpt lat="50.01009" lon="4.2225">
        <ele>283.6</ele>
        <time>2024-04-28T07:02:17Z</time>
      </trkpt>
      <trkpt lat="50.01009" lon="4.22237">
        <ele>283.6</ele>
        <time>2024-04-28T07:02:18Z</time>
      </trkpt>
      <trkpt lat="50.0101" lon="4.22224">
        <ele>283.4</ele>
        <time>2024-04-28T07:02:19Z</time>
      </trkpt>
      <trkpt lat="50.0101" lon="4.22211">
        <ele>283.2</ele>
        <time>2024-04-28T07:02:20Z</time>
      </trkpt>
      <trkpt lat="50.0101" lon="4.22198">
        <ele>283</ele>
        <time>2024-04-28T07:02:21Z</time>
      </trkpt>
      <trkpt lat="50.01011" lon="4.22184">
        <ele>282.4</ele>
        <time>2024-04-28T07:02:22Z</time>
      </trkpt>
      <trkpt lat="50.01011" lon="4.2217">
        <ele>282</ele>
        <time>2024-04-28T07:02:23Z</time>
      </trkpt>
      <trkpt lat="50.01011" lon="4.22156">
        <ele>282</ele>
        <time>2024-04-28T07:02:24Z</time>
      </trkpt>
      <trkpt lat="50.01012" lon="4.22142">
        <ele>281.6</ele>
        <time>2024-04-28T07:02:25Z</time>
      </trkpt>
      <trkpt lat="50.01012" lon="4.22127">
        <ele>281.6</ele>
        <time>2024-04-28T07:02:26Z</time>
      </trkpt>
      <trkpt lat="50.01013" lon="4.22113">
        <ele>281.2</ele>
        <time>2024-04-28T07:02:27Z</time>
      </trkpt>
      <trkpt lat="50.01013" lon="4.22099">
        <ele>281</ele>
        <time>2024-04-28T07:02:28Z</time>
      </trkpt>
      <trkpt lat="50.01014" lon="4.22085">
        <ele>281.2</ele>
        <time>2024-04-28T07:02:29Z</time>
      </trkpt>
      <trkpt lat="50.01014" lon="4.22071">
        <ele>281</ele>
        <time>2024-04-28T07:02:30Z</time>
      </trkpt>
      <trkpt lat="50.01015" lon="4.22057">
        <ele>281</ele>
        <time>2024-04-28T07:02:31Z</time>
      </trkpt>
      <trkpt lat="50.01015" lon="4.22042">
        <ele>280.8</ele>
        <time>2024-04-28T07:02:32Z</time>
      </trkpt>
      <trkpt lat="50.01016" lon="4.22028">
        <ele>280.2</ele>
        <time>2024-04-28T07:02:33Z</time>
      </trkpt>
      <trkpt lat="50.01017" lon="4.22014">
        <ele>279.8</ele>
        <time>2024-04-28T07:02:34Z</time>
      </trkpt>
      <trkpt lat="50.01017" lon="4.21999">
        <ele>279.4</ele>
        <time>2024-04-28T07:02:35Z</time>
      </trkpt>
      <trkpt lat="50.01018" lon="4.21985">
        <ele>279.4</ele>
        <time>2024-04-28T07:02:36Z</time>
      </trkpt>
      <trkpt lat="50.01018" lon="4.2197">
        <ele>279.2</ele>
        <time>2024-04-28T07:02:37Z</time>
      </trkpt>
      <trkpt lat="50.01018" lon="4.21956">
        <ele>278.8</ele>
        <time>2024-04-28T07:02:38Z</time>
      </trkpt>
      <trkpt lat="50.01019" lon="4.21941">
        <ele>278.6</ele>
        <time>2024-04-28T07:02:39Z</time>
      </trkpt>
      <trkpt lat="50.01019" lon="4.21927">
        <ele>278.6</ele>
        <time>2024-04-28T07:02:40Z</time>
      </trkpt>
      <trkpt lat="50.0102" lon="4.21912">
        <ele>278.2</ele>
        <time>2024-04-28T07:02:41Z</time>
      </trkpt>
      <trkpt lat="50.0102" lon="4.21898">
        <ele>278</ele>
        <time>2024-04-28T07:02:42Z</time>
      </trkpt>
      <trkpt lat="50.0102" lon="4.21884">
        <ele>277.8</ele>
        <time>2024-04-28T07:02:43Z</time>
      </trkpt>
      <trkpt lat="50.01021" lon="4.21869">
        <ele>277.6</ele>
        <time>2024-04-28T07:02:44Z</time>
      </trkpt>
      <trkpt lat="50.01021" lon="4.21854">
        <ele>277.6</ele>
        <time>2024-04-28T07:02:45Z</time>
      </trkpt>
      <trkpt lat="50.01022" lon="4.21839">
        <ele>277.2</ele>
        <time>2024-04-28T07:02:46Z</time>
      </trkpt>
      <trkpt lat="50.01023" lon="4.21824">
        <ele>276.8</ele>
        <time>2024-04-28T07:02:47Z</time>
      </trkpt>
      <trkpt lat="50.01023" lon="4.21809">
        <ele>276.6</ele>
        <time>2024-04-28T07:02:48Z</time>
      </trkpt>
      <trkpt lat="50.01024" lon="4.21793">
        <ele>276.6</ele>
        <time>2024-04-28T07:02:49Z</time>
      </trkpt>
      <trkpt lat="50.01025" lon="4.21778">
        <ele>276.6</ele>
        <time>2024-04-28T07:02:50Z</time>
      </trkpt>
      <trkpt lat="50.01025" lon="4.21762">
        <ele>276.4</ele>
        <time>2024-04-28T07:02:51Z</time>
      </trkpt>
      <trkpt lat="50.01025" lon="4.21747">
        <ele>276.4</ele>
        <time>2024-04-28T07:02:52Z</time>
      </trkpt>
      <trkpt lat="50.01026" lon="4.21731">
        <ele>276.2</ele>
        <time>2024-04-28T07:02:53Z</time>
      </trkpt>
      <trkpt lat="50.01026" lon="4.21715">
        <ele>276.4</ele>
        <time>2024-04-28T07:02:54Z</time>
      </trkpt>
      <trkpt lat="50.01027" lon="4.21699">
        <ele>276.2</ele>
        <time>2024-04-28T07:02:55Z</time>
      </trkpt>
      <trkpt lat="50.01027" lon="4.21684">
        <ele>276</ele>
        <time>2024-04-28T07:02:56Z</time>
      </trkpt>
      <trkpt lat="50.01027" lon="4.21668">
        <ele>276</ele>
        <time>2024-04-28T07:02:57Z</time>
      </trkpt>
      <trkpt lat="50.01028" lon="4.21652">
        <ele>275.8</ele>
        <time>2024-04-28T07:02:58Z</time>
      </trkpt>
      <trkpt lat="50.01028" lon="4.21637">
        <ele>275.8</ele>
        <time>2024-04-28T07:02:59Z</time>
      </trkpt>
      <trkpt lat="50.01029" lon="4.21622">
        <ele>275.4</ele>
        <time>2024-04-28T07:03:00Z</time>
      </trkpt>
      <trkpt lat="50.01029" lon="4.21607">
        <ele>275.4</ele>
        <time>2024-04-28T07:03:01Z</time>
      </trkpt>
      <trkpt lat="50.0103" lon="4.21591">
        <ele>275.2</ele>
        <time>2024-04-28T07:03:02Z</time>
      </trkpt>
      <trkpt lat="50.0103" lon="4.21577">
        <ele>274.8</ele>
        <time>2024-04-28T07:03:03Z</time>
      </trkpt>
      <trkpt lat="50.01031" lon="4.21562">
        <ele>274.2</ele>
        <time>2024-04-28T07:03:04Z</time>
      </trkpt>
      <trkpt lat="50.01032" lon="4.21546">
        <ele>273.6</ele>
        <time>2024-04-28T07:03:05Z</time>
      </trkpt>
      <trkpt lat="50.01032" lon="4.21531">
        <ele>273.4</ele>
        <time>2024-04-28T07:03:06Z</time>
      </trkpt>
      <trkpt lat="50.01033" lon="4.21515">
        <ele>273.4</ele>
        <time>2024-04-28T07:03:07Z</time>
      </trkpt>
      <trkpt lat="50.01034" lon="4.21499">
        <ele>273.2</ele>
        <time>2024-04-28T07:03:08Z</time>
      </trkpt>
      <trkpt lat="50.01035" lon="4.21483">
        <ele>273.2</ele>
        <time>2024-04-28T07:03:09Z</time>
      </trkpt>
      <trkpt lat="50.01036" lon="4.21467">
        <ele>273</ele>
        <time>2024-04-28T07:03:10Z</time>
      </trkpt>
      <trkpt lat="50.01037" lon="4.21451">
        <ele>272.8</ele>
        <time>2024-04-28T07:03:11Z</time>
      </trkpt>
      <trkpt lat="50.01038" lon="4.21435">
        <ele>272.8</ele>
        <time>2024-04-28T07:03:12Z</time>
      </trkpt>
      <trkpt lat="50.0104" lon="4.21419">
        <ele>272.6</ele>
        <time>2024-04-28T07:03:13Z</time>
      </trkpt>
      <trkpt lat="50.01041" lon="4.21404">
        <ele>272.6</ele>
        <time>2024-04-28T07:03:14Z</time>
      </trkpt>
      <trkpt lat="50.01042" lon="4.2139">
        <ele>272.4</ele>
        <time>2024-04-28T07:03:15Z</time>
      </trkpt>
      <trkpt lat="50.01044" lon="4.21376">
        <ele>272.2</ele>
        <time>2024-04-28T07:03:16Z</time>
      </trkpt>
      <trkpt lat="50.01045" lon="4.21363">
        <ele>272.2</ele>
        <time>2024-04-28T07:03:17Z</time>
      </trkpt>
      <trkpt lat="50.01047" lon="4.2135">
        <ele>272.2</ele>
        <time>2024-04-28T07:03:18Z</time>
      </trkpt>
      <trkpt lat="50.01049" lon="4.21337">
        <ele>272</ele>
        <time>2024-04-28T07:03:19Z</time>
      </trkpt>
      <trkpt lat="50.01051" lon="4.21324">
        <ele>272</ele>
        <time>2024-04-28T07:03:20Z</time>
      </trkpt>
      <trkpt lat="50.01054" lon="4.21312">
        <ele>272</ele>
        <time>2024-04-28T07:03:21Z</time>
      </trkpt>
      <trkpt lat="50.01056" lon="4.21299">
        <ele>272</ele>
        <time>2024-04-28T07:03:22Z</time>
      </trkpt>
      <trkpt lat="50.01058" lon="4.21287">
        <ele>272</ele>
        <time>2024-04-28T07:03:23Z</time>
      </trkpt>
      <trkpt lat="50.01061" lon="4.21274">
        <ele>272</ele>
        <time>2024-04-28T07:03:24Z</time>
      </trkpt>
      <trkpt lat="50.01064" lon="4.21262">
        <ele>272</ele>
        <time>2024-04-28T07:03:25Z</time>
      </trkpt>
      <trkpt lat="50.01067" lon="4.21249">
        <ele>272</ele>
        <time>2024-04-28T07:03:26Z</time>
      </trkpt>
      <trkpt lat="50.0107" lon="4.21236">
        <ele>272.2</ele>
        <time>2024-04-28T07:03:27Z</time>
      </trkpt>
      <trkpt lat="50.01072" lon="4.21223">
        <ele>272.2</ele>
        <time>2024-04-28T07:03:28Z</time>
      </trkpt>
      <trkpt lat="50.01075" lon="4.2121">
        <ele>272.8</ele>
        <time>2024-04-28T07:03:29Z</time>
      </trkpt>
      <trkpt lat="50.01078" lon="4.21197">
        <ele>273.4</ele>
        <time>2024-04-28T07:03:30Z</time>
      </trkpt>
      <trkpt lat="50.01081" lon="4.21185">
        <ele>273.6</ele>
        <time>2024-04-28T07:03:31Z</time>
      </trkpt>
      <trkpt lat="50.01084" lon="4.21171">
        <ele>273.8</ele>
        <time>2024-04-28T07:03:32Z</time>
      </trkpt>
      <trkpt lat="50.01087" lon="4.21158">
        <ele>273.8</ele>
        <time>2024-04-28T07:03:33Z</time>
      </trkpt>
      <trkpt lat="50.0109" lon="4.21145">
        <ele>274</ele>
        <time>2024-04-28T07:03:34Z</time>
      </trkpt>
      <trkpt lat="50.01092" lon="4.21132">
        <ele>274.2</ele>
        <time>2024-04-28T07:03:35Z</time>
      </trkpt>
      <trkpt lat="50.01095" lon="4.2112">
        <ele>274.2</ele>
        <time>2024-04-28T07:03:36Z</time>
      </trkpt>
      <trkpt lat="50.01097" lon="4.21107">
        <ele>274.2</ele>
        <time>2024-04-28T07:03:37Z</time>
      </trkpt>
      <trkpt lat="50.01099" lon="4.21094">
        <ele>274.2</ele>
        <time>2024-04-28T07:03:38Z</time>
      </trkpt>
      <trkpt lat="50.01101" lon="4.21081">
        <ele>274.4</ele>
        <time>2024-04-28T07:03:39Z</time>
      </trkpt>
      <trkpt lat="50.01102" lon="4.21069">
        <ele>274.4</ele>
        <time>2024-04-28T07:03:40Z</time>
      </trkpt>
      <trkpt lat="50.01103" lon="4.21056">
        <ele>274.6</ele>
        <time>2024-04-28T07:03:41Z</time>
      </trkpt>
      <trkpt lat="50.01103" lon="4.21042">
        <ele>274.6</ele>
        <time>2024-04-28T07:03:42Z</time>
      </trkpt>
      <trkpt lat="50.01104" lon="4.21029">
        <ele>274.6</ele>
        <time>2024-04-28T07:03:43Z</time>
      </trkpt>
      <trkpt lat="50.01103" lon="4.21015">
        <ele>274.6</ele>
        <time>2024-04-28T07:03:44Z</time>
      </trkpt>
      <trkpt lat="50.01103" lon="4.21001">
        <ele>274.6</ele>
        <time>2024-04-28T07:03:45Z</time>
      </trkpt>
      <trkpt lat="50.01102" lon="4.20988">
        <ele>274.6</ele>
        <time>2024-04-28T07:03:46Z</time>
      </trkpt>
      <trkpt lat="50.01101" lon="4.20974">
        <ele>274.4</ele>
        <time>2024-04-28T07:03:47Z</time>
      </trkpt>
      <trkpt lat="50.01099" lon="4.2096">
        <ele>274.4</ele>
        <time>2024-04-28T07:03:48Z</time>
      </trkpt>
      <trkpt lat="50.01098" lon="4.20947">
        <ele>274.4</ele>
        <time>2024-04-28T07:03:49Z</time>
      </trkpt>
      <trkpt lat="50.01096" lon="4.20933">
        <ele>274.2</ele>
        <time>2024-04-28T07:03:50Z</time>
      </trkpt>
      <trkpt lat="50.01095" lon="4.2092">
        <ele>274.4</ele>
        <time>2024-04-28T07:03:51Z</time>
      </trkpt>
      <trkpt lat="50.01094" lon="4.20906">
        <ele>274.2</ele>
        <time>2024-04-28T07:03:52Z</time>
      </trkpt>
      <trkpt lat="50.01092" lon="4.20893">
        <ele>274.2</ele>
        <time>2024-04-28T07:03:53Z</time>
      </trkpt>
      <trkpt lat="50.01091" lon="4.20879">
        <ele>274.2</ele>
        <time>2024-04-28T07:03:54Z</time>
      </trkpt>
      <trkpt lat="50.01089" lon="4.20866">
        <ele>274.2</ele>
        <time>2024-04-28T07:03:55Z</time>
      </trkpt>
      <trkpt lat="50.01087" lon="4.20853">
        <ele>274.2</ele>
        <time>2024-04-28T07:03:56Z</time>
      </trkpt>
      <trkpt lat="50.01086" lon="4.2084">
        <ele>274.2</ele>
        <time>2024-04-28T07:03:57Z</time>
      </trkpt>
      <trkpt lat="50.01084" lon="4.20827">
        <ele>274</ele>
        <time>2024-04-28T07:03:58Z</time>
      </trkpt>
      <trkpt lat="50.01083" lon="4.20814">
        <ele>273.8</ele>
        <time>2024-04-28T07:03:59Z</time>
      </trkpt>
      <trkpt lat="50.01081" lon="4.208">
        <ele>273.8</ele>
        <time>2024-04-28T07:04:00Z</time>
      </trkpt>
      <trkpt lat="50.01079" lon="4.20787">
        <ele>273.8</ele>
        <time>2024-04-28T07:04:01Z</time>
      </trkpt>
      <trkpt lat="50.01078" lon="4.20773">
        <ele>273.6</ele>
        <time>2024-04-28T07:04:02Z</time>
      </trkpt>
      <trkpt lat="50.01076" lon="4.2076">
        <ele>273.6</ele>
        <time>2024-04-28T07:04:03Z</time>
      </trkpt>
      <trkpt lat="50.01074" lon="4.20747">
        <ele>273.6</ele>
        <time>2024-04-28T07:04:04Z</time>
      </trkpt>
      <trkpt lat="50.01073" lon="4.20734">
        <ele>273.6</ele>
        <time>2024-04-28T07:04:05Z</time>
      </trkpt>
      <trkpt lat="50.01071" lon="4.20721">
        <ele>273.6</ele>
        <time>2024-04-28T07:04:06Z</time>
      </trkpt>
      <trkpt lat="50.0107" lon="4.20708">
        <ele>273.6</ele>
        <time>2024-04-28T07:04:07Z</time>
      </trkpt>
      <trkpt lat="50.01068" lon="4.20695">
        <ele>273.8</ele>
        <time>2024-04-28T07:04:08Z</time>
      </trkpt>
      <trkpt lat="50.01067" lon="4.20682">
        <ele>273.6</ele>
        <time>2024-04-28T07:04:09Z</time>
      </trkpt>
      <trkpt lat="50.01065" lon="4.2067">
        <ele>273.6</ele>
        <time>2024-04-28T07:04:10Z</time>
      </trkpt>
      <trkpt lat="50.01064" lon="4.20657">
        <ele>273.6</ele>
        <time>2024-04-28T07:04:11Z</time>
      </trkpt>
      <trkpt lat="50.01062" lon="4.20644">
        <ele>273.6</ele>
        <time>2024-04-28T07:04:12Z</time>
      </trkpt>
      <trkpt lat="50.01061" lon="4.20632">
        <ele>273.6</ele>
        <time>2024-04-28T07:04:13Z</time>
      </trkpt>
      <trkpt lat="50.01059" lon="4.2062">
        <ele>273.8</ele>
        <time>2024-04-28T07:04:14Z</time>
      </trkpt>
      <trkpt lat="50.01058" lon="4.20608">
        <ele>274</ele>
        <time>2024-04-28T07:04:15Z</time>
      </trkpt>
      <trkpt lat="50.01057" lon="4.20597">
        <ele>274</ele>
        <time>2024-04-28T07:04:16Z</time>
      </trkpt>
      <trkpt lat="50.01055" lon="4.20586">
        <ele>274</ele>
        <time>2024-04-28T07:04:17Z</time>
      </trkpt>
      <trkpt lat="50.01054" lon="4.20575">
        <ele>274</ele>
        <time>2024-04-28T07:04:18Z</time>
      </trkpt>
      <trkpt lat="50.01053" lon="4.20565">
        <ele>274</ele>
        <time>2024-04-28T07:04:19Z</time>
      </trkpt>
      <trkpt lat="50.01052" lon="4.20554">
        <ele>274</ele>
        <time>2024-04-28T07:04:20Z</time>
      </trkpt>
      <trkpt lat="50.0105" lon="4.20544">
        <ele>274</ele>
        <time>2024-04-28T07:04:21Z</time>
      </trkpt>
      <trkpt lat="50.01049" lon="4.20534">
        <ele>274.2</ele>
        <time>2024-04-28T07:04:22Z</time>
      </trkpt>
      <trkpt lat="50.01048" lon="4.20524">
        <ele>274.4</ele>
        <time>2024-04-28T07:04:23Z</time>
      </trkpt>
      <trkpt lat="50.01047" lon="4.20514">
        <ele>274.4</ele>
        <time>2024-04-28T07:04:24Z</time>
      </trkpt>
      <trkpt lat="50.01046" lon="4.20504">
        <ele>274.8</ele>
        <time>2024-04-28T07:04:25Z</time>
      </trkpt>
      <trkpt lat="50.01044" lon="4.20494">
        <ele>274.8</ele>
        <time>2024-04-28T07:04:26Z</time>
      </trkpt>
      <trkpt lat="50.01043" lon="4.20484">
        <ele>274.8</ele>
        <time>2024-04-28T07:04:27Z</time>
      </trkpt>
      <trkpt lat="50.01042" lon="4.20474">
        <ele>275</ele>
        <time>2024-04-28T07:04:28Z</time>
      </trkpt>
      <trkpt lat="50.01041" lon="4.20464">
        <ele>275.2</ele>
        <time>2024-04-28T07:04:29Z</time>
      </trkpt>
      <trkpt lat="50.0104" lon="4.20454">
        <ele>275.4</ele>
        <time>2024-04-28T07:04:30Z</time>
      </trkpt>
      <trkpt lat="50.01039" lon="4.20444">
        <ele>275.6</ele>
        <time>2024-04-28T07:04:31Z</time>
      </trkpt>
      <trkpt lat="50.01038" lon="4.20434">
        <ele>275.6</ele>
        <time>2024-04-28T07:04:32Z</time>
      </trkpt>
      <trkpt lat="50.01037" lon="4.20424">
        <ele>275.6</ele>
        <time>2024-04-28T07:04:33Z</time>
      </trkpt>
      <trkpt lat="50.01037" lon="4.20414">
        <ele>276</ele>
        <time>2024-04-28T07:04:34Z</time>
      </trkpt>
      <trkpt lat="50.01036" lon="4.20404">
        <ele>275.8</ele>
        <time>2024-04-28T07:04:35Z</time>
      </trkpt>
      <trkpt lat="50.01036" lon="4.20393">
        <ele>276</ele>
        <time>2024-04-28T07:04:36Z</time>
      </trkpt>
      <trkpt lat="50.01037" lon="4.20383">
        <ele>275.8</ele>
        <time>2024-04-28T07:04:37Z</time>
      </trkpt>
      <trkpt lat="50.01038" lon="4.20374">
        <ele>275.8</ele>
        <time>2024-04-28T07:04:38Z</time>
      </trkpt>
      <trkpt lat="50.01039" lon="4.20364">
        <ele>275.8</ele>
        <time>2024-04-28T07:04:39Z</time>
      </trkpt>
      <trkpt lat="50.0104" lon="4.20354">
        <ele>275.8</ele>
        <time>2024-04-28T07:04:40Z</time>
      </trkpt>
      <trkpt lat="50.01042" lon="4.20345">
        <ele>276</ele>
        <time>2024-04-28T07:04:41Z</time>
      </trkpt>
      <trkpt lat="50.01044" lon="4.20336">
        <ele>276</ele>
        <time>2024-04-28T07:04:42Z</time>
      </trkpt>
      <trkpt lat="50.01045" lon="4.20327">
        <ele>276.4</ele>
        <time>2024-04-28T07:04:43Z</time>
      </trkpt>
      <trkpt lat="50.01046" lon="4.20317">
        <ele>276.6</ele>
        <time>2024-04-28T07:04:44Z</time>
      </trkpt>
      <trkpt lat="50.01045" lon="4.20309">
        <ele>276.4</ele>
        <time>2024-04-28T07:04:45Z</time>
      </trkpt>
      <trkpt lat="50.01042" lon="4.20302">
        <ele>276.6</ele>
        <time>2024-04-28T07:04:46Z</time>
      </trkpt>
      <trkpt lat="50.01037" lon="4.20298">
        <ele>276.6</ele>
        <time>2024-04-28T07:04:47Z</time>
      </trkpt>
      <trkpt lat="50.01031" lon="4.20299">
        <ele>276.6</ele>
        <time>2024-04-28T07:04:48Z</time>
      </trkpt>
      <trkpt lat="50.01025" lon="4.203">
        <ele>276.4</ele>
        <time>2024-04-28T07:04:49Z</time>
      </trkpt>
      <trkpt lat="50.01019" lon="4.20301">
        <ele>276.4</ele>
        <time>2024-04-28T07:04:50Z</time>
      </trkpt>
      <trkpt lat="50.01013" lon="4.20303">
        <ele>276.4</ele>
        <time>2024-04-28T07:04:51Z</time>
      </trkpt>
      <trkpt lat="50.01006" lon="4.20304">
        <ele>276.4</ele>
        <time>2024-04-28T07:04:52Z</time>
      </trkpt>
      <trkpt lat="50.00998" lon="4.20305">
        <ele>276.2</ele>
        <time>2024-04-28T07:04:53Z</time>
      </trkpt>
      <trkpt lat="50.0099" lon="4.20306">
        <ele>276.2</ele>
        <time>2024-04-28T07:04:54Z</time>
      </trkpt>
      <trkpt lat="50.00983" lon="4.20306">
        <ele>276.4</ele>
        <time>2024-04-28T07:04:55Z</time>
      </trkpt>
      <trkpt lat="50.00975" lon="4.20306">
        <ele>276.4</ele>
        <time>2024-04-28T07:04:56Z</time>
      </trkpt>
      <trkpt lat="50.00967" lon="4.20307">
        <ele>276.2</ele>
        <time>2024-04-28T07:04:57Z</time>
      </trkpt>
      <trkpt lat="50.00959" lon="4.20308">
        <ele>276.2</ele>
        <time>2024-04-28T07:04:58Z</time>
      </trkpt>
      <trkpt lat="50.00952" lon="4.20309">
        <ele>276.2</ele>
        <time>2024-04-28T07:04:59Z</time>
      </trkpt>
      <trkpt lat="50.00944" lon="4.20311">
        <ele>276.2</ele>
        <time>2024-04-28T07:05:00Z</time>
      </trkpt>
      <trkpt lat="50.00936" lon="4.20312">
        <ele>276.2</ele>
        <time>2024-04-28T07:05:01Z</time>
      </trkpt>
      <trkpt lat="50.00928" lon="4.20313">
        <ele>276.4</ele>
        <time>2024-04-28T07:05:02Z</time>
      </trkpt>
      <trkpt lat="50.0092" lon="4.20314">
        <ele>276.2</ele>
        <time>2024-04-28T07:05:03Z</time>
      </trkpt>
      <trkpt lat="50.00912" lon="4.20316">
        <ele>276.2</ele>
        <time>2024-04-28T07:05:04Z</time>
      </trkpt>
      <trkpt lat="50.00904" lon="4.20317">
        <ele>276.2</ele>
        <time>2024-04-28T07:05:05Z</time>
      </trkpt>
      <trkpt lat="50.00896" lon="4.20319">
        <ele>276.2</ele>
        <time>2024-04-28T07:05:06Z</time>
      </trkpt>
      <trkpt lat="50.00888" lon="4.20321">
        <ele>276.2</ele>
        <time>2024-04-28T07:05:07Z</time>
      </trkpt>
      <trkpt lat="50.00879" lon="4.20322">
        <ele>276</ele>
        <time>2024-04-28T07:05:08Z</time>
      </trkpt>
      <trkpt lat="50.00871" lon="4.20324">
        <ele>276</ele>
        <time>2024-04-28T07:05:09Z</time>
      </trkpt>
      <trkpt lat="50.00862" lon="4.20325">
        <ele>276</ele>
        <time>2024-04-28T07:05:10Z</time>
      </trkpt>
      <trkpt lat="50.00853" lon="4.20326">
        <ele>276.2</ele>
        <time>2024-04-28T07:05:11Z</time>
      </trkpt>
      <trkpt lat="50.00845" lon="4.20328">
        <ele>276</ele>
        <time>2024-04-28T07:05:12Z</time>
      </trkpt>
      <trkpt lat="50.00837" lon="4.20329">
        <ele>276</ele>
        <time>2024-04-28T07:05:13Z</time>
      </trkpt>
      <trkpt lat="50.00828" lon="4.2033">
        <ele>276</ele>
        <time>2024-04-28T07:05:14Z</time>
      </trkpt>
      <trkpt lat="50.0082" lon="4.20331">
        <ele>276</ele>
        <time>2024-04-28T07:05:15Z</time>
      </trkpt>
      <trkpt lat="50.00812" lon="4.20332">
        <ele>276.2</ele>
        <time>2024-04-28T07:05:16Z</time>
      </trkpt>
      <trkpt lat="50.00804" lon="4.20333">
        <ele>276</ele>
        <time>2024-04-28T07:05:17Z</time>
      </trkpt>
      <trkpt lat="50.00796" lon="4.20334">
        <ele>275.4</ele>
        <time>2024-04-28T07:05:18Z</time>
      </trkpt>
      <trkpt lat="50.00788" lon="4.20335">
        <ele>275.2</ele>
        <time>2024-04-28T07:05:19Z</time>
      </trkpt>
      <trkpt lat="50.0078" lon="4.20336">
        <ele>275</ele>
        <time>2024-04-28T07:05:20Z</time>
      </trkpt>
      <trkpt lat="50.00773" lon="4.20338">
        <ele>275</ele>
        <time>2024-04-28T07:05:21Z</time>
      </trkpt>
      <trkpt lat="50.00766" lon="4.20339">
        <ele>274.8</ele>
        <time>2024-04-28T07:05:22Z</time>
      </trkpt>
      <trkpt lat="50.00759" lon="4.2034">
        <ele>275</ele>
        <time>2024-04-28T07:05:23Z</time>
      </trkpt>
      <trkpt lat="50.00752" lon="4.20341">
        <ele>275</ele>
        <time>2024-04-28T07:05:24Z</time>
      </trkpt>
      <trkpt lat="50.00745" lon="4.20341">
        <ele>275</ele>
        <time>2024-04-28T07:05:25Z</time>
      </trkpt>
      <trkpt lat="50.00738" lon="4.20341">
        <ele>275</ele>
        <time>2024-04-28T07:05:26Z</time>
      </trkpt>
      <trkpt lat="50.00731" lon="4.20341">
        <ele>275</ele>
        <time>2024-04-28T07:05:27Z</time>
      </trkpt>
      <trkpt lat="50.00724" lon="4.20341">
        <ele>275</ele>
        <time>2024-04-28T07:05:28Z</time>
      </trkpt>
      <trkpt lat="50.00718" lon="4.20339">
        <ele>275.2</ele>
        <time>2024-04-28T07:05:29Z</time>
      </trkpt>
      <trkpt lat="50.00711" lon="4.20337">
        <ele>275.6</ele>
        <time>2024-04-28T07:05:30Z</time>
      </trkpt>
      <trkpt lat="50.00704" lon="4.20334">
        <ele>275.8</ele>
        <time>2024-04-28T07:05:31Z</time>
      </trkpt>
      <trkpt lat="50.00698" lon="4.2033">
        <ele>275.8</ele>
        <time>2024-04-28T07:05:32Z</time>
      </trkpt>
      <trkpt lat="50.00692" lon="4.20325">
        <ele>276</ele>
        <time>2024-04-28T07:05:33Z</time>
      </trkpt>
      <trkpt lat="50.00686" lon="4.20319">
        <ele>276</ele>
        <time>2024-04-28T07:05:34Z</time>
      </trkpt>
      <trkpt lat="50.0068" lon="4.20313">
        <ele>276</ele>
        <time>2024-04-28T07:05:35Z</time>
      </trkpt>
      <trkpt lat="50.00675" lon="4.20306">
        <ele>276</ele>
        <time>2024-04-28T07:05:36Z</time>
      </trkpt>
      <trkpt lat="50.0067" lon="4.203">
        <ele>276</ele>
        <time>2024-04-28T07:05:37Z</time>
      </trkpt>
      <trkpt lat="50.00665" lon="4.20292">
        <ele>276</ele>
        <time>2024-04-28T07:05:38Z</time>
      </trkpt>
      <trkpt lat="50.00659" lon="4.20285">
        <ele>276.2</ele>
        <time>2024-04-28T07:05:39Z</time>
      </trkpt>
      <trkpt lat="50.00654" lon="4.20278">
        <ele>276</ele>
        <time>2024-04-28T07:05:40Z</time>
      </trkpt>
      <trkpt lat="50.00649" lon="4.20271">
        <ele>276.2</ele>
        <time>2024-04-28T07:05:41Z</time>
      </trkpt>
      <trkpt lat="50.00644" lon="4.20264">
        <ele>276.2</ele>
        <time>2024-04-28T07:05:42Z</time>
      </trkpt>
      <trkpt lat="50.00639" lon="4.20257">
        <ele>276.2</ele>
        <time>2024-04-28T07:05:43Z</time>
      </trkpt>
      <trkpt lat="50.00633" lon="4.2025">
        <ele>276</ele>
        <time>2024-04-28T07:05:44Z</time>
      </trkpt>
      <trkpt lat="50.00628" lon="4.20242">
        <ele>276</ele>
        <time>2024-04-28T07:05:45Z</time>
      </trkpt>
      <trkpt lat="50.00623" lon="4.20235">
        <ele>276</ele>
        <time>2024-04-28T07:05:46Z</time>
      </trkpt>
      <trkpt lat="50.00618" lon="4.20228">
        <ele>276</ele>
        <time>2024-04-28T07:05:47Z</time>
      </trkpt>
      <trkpt lat="50.00613" lon="4.20221">
        <ele>276</ele>
        <time>2024-04-28T07:05:48Z</time>
      </trkpt>
      <trkpt lat="50.00608" lon="4.20214">
        <ele>276.2</ele>
        <time>2024-04-28T07:05:49Z</time>
      </trkpt>
      <trkpt lat="50.00603" lon="4.20207">
        <ele>276</ele>
        <time>2024-04-28T07:05:50Z</time>
      </trkpt>
      <trkpt lat="50.00598" lon="4.202">
        <ele>276</ele>
        <time>2024-04-28T07:05:51Z</time>
      </trkpt>
      <trkpt lat="50.00592" lon="4.20194">
        <ele>276</ele>
        <time>2024-04-28T07:05:52Z</time>
      </trkpt>
      <trkpt lat="50.00586" lon="4.20187">
        <ele>276.2</ele>
        <time>2024-04-28T07:05:53Z</time>
      </trkpt>
      <trkpt lat="50.00581" lon="4.20181">
        <ele>276.2</ele>
        <time>2024-04-28T07:05:54Z</time>
      </trkpt>
      <trkpt lat="50.00575" lon="4.20175">
        <ele>276.4</ele>
        <time>2024-04-28T07:05:55Z</time>
      </trkpt>
      <trkpt lat="50.00569" lon="4.2017">
        <ele>276.6</ele>
        <time>2024-04-28T07:05:56Z</time>
      </trkpt>
      <trkpt lat="50.00562" lon="4.20164">
        <ele>276.8</ele>
        <time>2024-04-28T07:05:57Z</time>
      </trkpt>
      <trkpt lat="50.00556" lon="4.20159">
        <ele>276.6</ele>
        <time>2024-04-28T07:05:58Z</time>
      </trkpt>
      <trkpt lat="50.0055" lon="4.20154">
        <ele>276.8</ele>
        <time>2024-04-28T07:05:59Z</time>
      </trkpt>
      <trkpt lat="50.00544" lon="4.20149">
        <ele>276.8</ele>
        <time>2024-04-28T07:06:00Z</time>
      </trkpt>
      <trkpt lat="50.00537" lon="4.20144">
        <ele>276.8</ele>
        <time>2024-04-28T07:06:01Z</time>
      </trkpt>
      <trkpt lat="50.00531" lon="4.2014">
        <ele>276.6</ele>
        <time>2024-04-28T07:06:02Z</time>
      </trkpt>
      <trkpt lat="50.00525" lon="4.20135">
        <ele>276.6</ele>
        <time>2024-04-28T07:06:03Z</time>
      </trkpt>
      <trkpt lat="50.00519" lon="4.20131">
        <ele>276.6</ele>
        <time>2024-04-28T07:06:04Z</time>
      </trkpt>
      <trkpt lat="50.00513" lon="4.20126">
        <ele>276.8</ele>
        <time>2024-04-28T07:06:05Z</time>
      </trkpt>
      <trkpt lat="50.00506" lon="4.20122">
        <ele>276.6</ele>
        <time>2024-04-28T07:06:06Z</time>
      </trkpt>
      <trkpt lat="50.005" lon="4.20118">
        <ele>276.8</ele>
        <time>2024-04-28T07:06:07Z</time>
      </trkpt>
      <trkpt lat="50.00494" lon="4.20114">
        <ele>276.8</ele>
        <time>2024-04-28T07:06:08Z</time>
      </trkpt>
      <trkpt lat="50.00487" lon="4.20111">
        <ele>277</ele>
        <time>2024-04-28T07:06:09Z</time>
      </trkpt>
      <trkpt lat="50.00481" lon="4.20108">
        <ele>276.8</ele>
        <time>2024-04-28T07:06:10Z</time>
      </trkpt>
      <trkpt lat="50.00474" lon="4.20105">
        <ele>277</ele>
        <time>2024-04-28T07:06:11Z</time>
      </trkpt>
      <trkpt lat="50.00467" lon="4.20103">
        <ele>277.2</ele>
        <time>2024-04-28T07:06:12Z</time>
      </trkpt>
      <trkpt lat="50.0046" lon="4.20101">
        <ele>277.4</ele>
        <time>2024-04-28T07:06:13Z</time>
      </trkpt>
      <trkpt lat="50.00453" lon="4.20099">
        <ele>277.8</ele>
        <time>2024-04-28T07:06:14Z</time>
      </trkpt>
      <trkpt lat="50.00446" lon="4.20098">
        <ele>277.8</ele>
        <time>2024-04-28T07:06:15Z</time>
      </trkpt>
      <trkpt lat="50.00439" lon="4.20096">
        <ele>278</ele>
        <time>2024-04-28T07:06:16Z</time>
      </trkpt>
      <trkpt lat="50.00433" lon="4.20095">
        <ele>278.2</ele>
        <time>2024-04-28T07:06:17Z</time>
      </trkpt>
      <trkpt lat="50.00426" lon="4.20093">
        <ele>278.6</ele>
        <time>2024-04-28T07:06:18Z</time>
      </trkpt>
      <trkpt lat="50.00419" lon="4.20092">
        <ele>278.6</ele>
        <time>2024-04-28T07:06:19Z</time>
      </trkpt>
      <trkpt lat="50.00413" lon="4.20091">
        <ele>278.8</ele>
        <time>2024-04-28T07:06:20Z</time>
      </trkpt>
      <trkpt lat="50.00406" lon="4.2009">
        <ele>278.8</ele>
        <time>2024-04-28T07:06:21Z</time>
      </trkpt>
      <trkpt lat="50.004" lon="4.20088">
        <ele>279</ele>
        <time>2024-04-28T07:06:22Z</time>
      </trkpt>
      <trkpt lat="50.00393" lon="4.20086">
        <ele>279.2</ele>
        <time>2024-04-28T07:06:23Z</time>
      </trkpt>
      <trkpt lat="50.00386" lon="4.20085">
        <ele>279.2</ele>
        <time>2024-04-28T07:06:24Z</time>
      </trkpt>
      <trkpt lat="50.00379" lon="4.20084">
        <ele>279.2</ele>
        <time>2024-04-28T07:06:25Z</time>
      </trkpt>
      <trkpt lat="50.00372" lon="4.20083">
        <ele>279</ele>
        <time>2024-04-28T07:06:26Z</time>
      </trkpt>
      <trkpt lat="50.00366" lon="4.20081">
        <ele>279</ele>
        <time>2024-04-28T07:06:27Z</time>
      </trkpt>
      <trkpt lat="50.00359" lon="4.2008">
        <ele>279</ele>
        <time>2024-04-28T07:06:28Z</time>
      </trkpt>
      <trkpt lat="50.00352" lon="4.20079">
        <ele>279</ele>
        <time>2024-04-28T07:06:29Z</time>
      </trkpt>
      <trkpt lat="50.00345" lon="4.20078">
        <ele>278.6</ele>
        <time>2024-04-28T07:06:30Z</time>
      </trkpt>
      <trkpt lat="50.00338" lon="4.20076">
        <ele>278.6</ele>
        <time>2024-04-28T07:06:31Z</time>
      </trkpt>
      <trkpt lat="50.00331" lon="4.20075">
        <ele>278.4</ele>
        <time>2024-04-28T07:06:32Z</time>
      </trkpt>
      <trkpt lat="50.00324" lon="4.20074">
        <ele>278.2</ele>
        <time>2024-04-28T07:06:33Z</time>
      </trkpt>
      <trkpt lat="50.00317" lon="4.20073">
        <ele>278</ele>
        <time>2024-04-28T07:06:34Z</time>
      </trkpt>
      <trkpt lat="50.0031" lon="4.20073">
        <ele>278</ele>
        <time>2024-04-28T07:06:35Z</time>
      </trkpt>
      <trkpt lat="50.00303" lon="4.20072">
        <ele>278</ele>
        <time>2024-04-28T07:06:36Z</time>
      </trkpt>
      <trkpt lat="50.00295" lon="4.20071">
        <ele>278</ele>
        <time>2024-04-28T07:06:37Z</time>
      </trkpt>
      <trkpt lat="50.00288" lon="4.2007">
        <ele>278</ele>
        <time>2024-04-28T07:06:38Z</time>
      </trkpt>
      <trkpt lat="50.00281" lon="4.20069">
        <ele>277.6</ele>
        <time>2024-04-28T07:06:39Z</time>
      </trkpt>
      <trkpt lat="50.00273" lon="4.20068">
        <ele>277.4</ele>
        <time>2024-04-28T07:06:40Z</time>
      </trkpt>
      <trkpt lat="50.00266" lon="4.20067">
        <ele>277.2</ele>
        <time>2024-04-28T07:06:41Z</time>
      </trkpt>
      <trkpt lat="50.00258" lon="4.20067">
        <ele>277.2</ele>
        <time>2024-04-28T07:06:42Z</time>
      </trkpt>
      <trkpt lat="50.00251" lon="4.20066">
        <ele>277</ele>
        <time>2024-04-28T07:06:43Z</time>
      </trkpt>
      <trkpt lat="50.00243" lon="4.20065">
        <ele>276.8</ele>
        <time>2024-04-28T07:06:44Z</time>
      </trkpt>
      <trkpt lat="50.00236" lon="4.20064">
        <ele>276.4</ele>
        <time>2024-04-28T07:06:45Z</time>
      </trkpt>
      <trkpt lat="50.00228" lon="4.20063">
        <ele>276.4</ele>
        <time>2024-04-28T07:06:46Z</time>
      </trkpt>
      <trkpt lat="50.00221" lon="4.20062">
        <ele>276.4</ele>
        <time>2024-04-28T07:06:47Z</time>
      </trkpt>
      <trkpt lat="50.00213" lon="4.20061">
        <ele>276.2</ele>
        <time>2024-04-28T07:06:48Z</time>
      </trkpt>
      <trkpt lat="50.00205" lon="4.2006">
        <ele>276.2</ele>
        <time>2024-04-28T07:06:49Z</time>
      </trkpt>
      <trkpt lat="50.00197" lon="4.20059">
        <ele>276.2</ele>
        <time>2024-04-28T07:06:50Z</time>
      </trkpt>
      <trkpt lat="50.00189" lon="4.20058">
        <ele>276</ele>
        <time>2024-04-28T07:06:51Z</time>
      </trkpt>
      <trkpt lat="50.00181" lon="4.20057">
        <ele>275.6</ele>
        <time>2024-04-28T07:06:52Z</time>
      </trkpt>
      <trkpt lat="50.00173" lon="4.20055">
        <ele>275.8</ele>
        <time>2024-04-28T07:06:53Z</time>
      </trkpt>
      <trkpt lat="50.00165" lon="4.20054">
        <ele>275.6</ele>
        <time>2024-04-28T07:06:54Z</time>
      </trkpt>
      <trkpt lat="50.00157" lon="4.20054">
        <ele>275.2</ele>
        <time>2024-04-28T07:06:55Z</time>
      </trkpt>
      <trkpt lat="50.00149" lon="4.20053">
        <ele>275.2</ele>
        <time>2024-04-28T07:06:56Z</time>
      </trkpt>
      <trkpt lat="50.00141" lon="4.20052">
        <ele>275.2</ele>
        <time>2024-04-28T07:06:57Z</time>
      </trkpt>
      <trkpt lat="50.00133" lon="4.20053">
        <ele>275</ele>
        <time>2024-04-28T07:06:58Z</time>
      </trkpt>
      <trkpt lat="50.00125" lon="4.20055">
        <ele>274.8</ele>
        <time>2024-04-28T07:06:59Z</time>
      </trkpt>
      <trkpt lat="50.00117" lon="4.20058">
        <ele>274.6</ele>
        <time>2024-04-28T07:07:00Z</time>
      </trkpt>
      <trkpt lat="50.00109" lon="4.20062">
        <ele>274.6</ele>
        <time>2024-04-28T07:07:01Z</time>
      </trkpt>
      <trkpt lat="50.00102" lon="4.20067">
        <ele>274.8</ele>
        <time>2024-04-28T07:07:02Z</time>
      </trkpt>
      <trkpt lat="50.00095" lon="4.20072">
        <ele>274.4</ele>
        <time>2024-04-28T07:07:03Z</time>
      </trkpt>
      <trkpt lat="50.00088" lon="4.20078">
        <ele>274.2</ele>
        <time>2024-04-28T07:07:04Z</time>
      </trkpt>
      <trkpt lat="50.00081" lon="4.20083">
        <ele>274.2</ele>
        <time>2024-04-28T07:07:05Z</time>
      </trkpt>
      <trkpt lat="50.00074" lon="4.20089">
        <ele>274</ele>
        <time>2024-04-28T07:07:06Z</time>
      </trkpt>
      <trkpt lat="50.00067" lon="4.20094">
        <ele>273.8</ele>
        <time>2024-04-28T07:07:07Z</time>
      </trkpt>
      <trkpt lat="50.0006" lon="4.201">
        <ele>273.8</ele>
        <time>2024-04-28T07:07:08Z</time>
      </trkpt>
      <trkpt lat="50.00053" lon="4.20105">
        <ele>273.6</ele>
        <time>2024-04-28T07:07:09Z</time>
      </trkpt>
      <trkpt lat="50.00046" lon="4.2011">
        <ele>273.6</ele>
        <time>2024-04-28T07:07:10Z</time>
      </trkpt>
      <trkpt lat="50.00039" lon="4.20115">
        <ele>273.4</ele>
        <time>2024-04-28T07:07:11Z</time>
      </trkpt>
      <trkpt lat="50.00033" lon="4.2012">
        <ele>273.4</ele>
        <time>2024-04-28T07:07:12Z</time>
      </trkpt>
      <trkpt lat="50.00026" lon="4.20125">
        <ele>273.4</ele>
        <time>2024-04-28T07:07:13Z</time>
      </trkpt>
      <trkpt lat="50.00019" lon="4.2013">
        <ele>273.4</ele>
        <time>2024-04-28T07:07:14Z</time>
      </trkpt>
      <trkpt lat="50.00013" lon="4.20135">
        <ele>273.4</ele>
        <time>2024-04-28T07:07:15Z</time>
      </trkpt>
      <trkpt lat="50.00006" lon="4.2014">
        <ele>273.4</ele>
        <time>2024-04-28T07:07:16Z</time>
      </trkpt>
      <trkpt lat="50" lon="4.20145">
        <ele>273.6</ele>
        <time>2024-04-28T07:07:17Z</time>
      </trkpt>
      <trkpt lat="49.99993" lon="4.2015">
        <ele>273.8</ele>
        <time>2024-04-28T07:07:18Z</time>
      </trkpt>
      <trkpt lat="49.99986" lon="4.20156">
        <ele>274</ele>
        <time>2024-04-28T07:07:19Z</time>
      </trkpt>
      <trkpt lat="49.9998" lon="4.2016">
        <ele>274.2</ele>
        <time>2024-04-28T07:07:20Z</time>
      </trkpt>
      <trkpt lat="49.99973" lon="4.20165">
        <ele>274.4</ele>
        <time>2024-04-28T07:07:21Z</time>
      </trkpt>
      <trkpt lat="49.99967" lon="4.2017">
        <ele>274.6</ele>
        <time>2024-04-28T07:07:22Z</time>
      </trkpt>
      <trkpt lat="49.99961" lon="4.20175">
        <ele>274.8</ele>
        <time>2024-04-28T07:07:23Z</time>
      </trkpt>
      <trkpt lat="49.99955" lon="4.20179">
        <ele>275.2</ele>
        <time>2024-04-28T07:07:24Z</time>
      </trkpt>
      <trkpt lat="49.99948" lon="4.20184">
        <ele>275.4</ele>
        <time>2024-04-28T07:07:25Z</time>
      </trkpt>
      <trkpt lat="49.99942" lon="4.20189">
        <ele>275.4</ele>
        <time>2024-04-28T07:07:26Z</time>
      </trkpt>
      <trkpt lat="49.99936" lon="4.20193">
        <ele>275.4</ele>
        <time>2024-04-28T07:07:27Z</time>
      </trkpt>
      <trkpt lat="49.9993" lon="4.20198">
        <ele>275.4</ele>
        <time>2024-04-28T07:07:28Z</time>
      </trkpt>
      <trkpt lat="49.99924" lon="4.20202">
        <ele>275.6</ele>
        <time>2024-04-28T07:07:29Z</time>
      </trkpt>
      <trkpt lat="49.99919" lon="4.20207">
        <ele>275.8</ele>
        <time>2024-04-28T07:07:30Z</time>
      </trkpt>
      <trkpt lat="49.99913" lon="4.20211">
        <ele>275.8</ele>
        <time>2024-04-28T07:07:31Z</time>
      </trkpt>
      <trkpt lat="49.99907" lon="4.20215">
        <ele>275.8</ele>
        <time>2024-04-28T07:07:32Z</time>
      </trkpt>
      <trkpt lat="49.99901" lon="4.20217">
        <ele>276</ele>
        <time>2024-04-28T07:07:33Z</time>
      </trkpt>
      <trkpt lat="49.99895" lon="4.20219">
        <ele>276</ele>
        <time>2024-04-28T07:07:34Z</time>
      </trkpt>
      <trkpt lat="49.99889" lon="4.2022">
        <ele>276</ele>
        <time>2024-04-28T07:07:35Z</time>
      </trkpt>
      <trkpt lat="49.99883" lon="4.20219">
        <ele>276</ele>
        <time>2024-04-28T07:07:36Z</time>
      </trkpt>
      <trkpt lat="49.99877" lon="4.20219">
        <ele>276</ele>
        <time>2024-04-28T07:07:37Z</time>
      </trkpt>
      <trkpt lat="49.9987" lon="4.20218">
        <ele>276.2</ele>
        <time>2024-04-28T07:07:38Z</time>
      </trkpt>
      <trkpt lat="49.99864" lon="4.20216">
        <ele>276.4</ele>
        <time>2024-04-28T07:07:39Z</time>
      </trkpt>
      <trkpt lat="49.99858" lon="4.20215">
        <ele>276.4</ele>
        <time>2024-04-28T07:07:40Z</time>
      </trkpt>
      <trkpt lat="49.99852" lon="4.20213">
        <ele>276.4</ele>
        <time>2024-04-28T07:07:41Z</time>
      </trkpt>
      <trkpt lat="49.99845" lon="4.20212">
        <ele>276.4</ele>
        <time>2024-04-28T07:07:42Z</time>
      </trkpt>
      <trkpt lat="49.99839" lon="4.2021">
        <ele>276.6</ele>
        <time>2024-04-28T07:07:43Z</time>
      </trkpt>
      <trkpt lat="49.99833" lon="4.20209">
        <ele>276.8</ele>
        <time>2024-04-28T07:07:44Z</time>
      </trkpt>
      <trkpt lat="49.99826" lon="4.20208">
        <ele>277.8</ele>
        <time>2024-04-28T07:07:45Z</time>
      </trkpt>
      <trkpt lat="49.9982" lon="4.20206">
        <ele>278.2</ele>
        <time>2024-04-28T07:07:46Z</time>
      </trkpt>
      <trkpt lat="49.99813" lon="4.20205">
        <ele>278.6</ele>
        <time>2024-04-28T07:07:47Z</time>
      </trkpt>
      <trkpt lat="49.99807" lon="4.20204">
        <ele>278.6</ele>
        <time>2024-04-28T07:07:48Z</time>
      </trkpt>
      <trkpt lat="49.99801" lon="4.20203">
        <ele>278.6</ele>
        <time>2024-04-28T07:07:49Z</time>
      </trkpt>
      <trkpt lat="49.99794" lon="4.20201">
        <ele>279</ele>
        <time>2024-04-28T07:07:50Z</time>
      </trkpt>
      <trkpt lat="49.99788" lon="4.202">
        <ele>279.6</ele>
        <time>2024-04-28T07:07:51Z</time>
      </trkpt>
      <trkpt lat="49.99782" lon="4.20198">
        <ele>279.6</ele>
        <time>2024-04-28T07:07:52Z</time>
      </trkpt>
      <trkpt lat="49.99777" lon="4.20196">
        <ele>279.8</ele>
        <time>2024-04-28T07:07:53Z</time>
      </trkpt>
      <trkpt lat="49.9977" lon="4.20194">
        <ele>280</ele>
        <time>2024-04-28T07:07:54Z</time>
      </trkpt>
      <trkpt lat="49.99764" lon="4.20192">
        <ele>280</ele>
        <time>2024-04-28T07:07:55Z</time>
      </trkpt>
      <trkpt lat="49.99758" lon="4.2019">
        <ele>280</ele>
        <time>2024-04-28T07:07:56Z</time>
      </trkpt>
      <trkpt lat="49.99753" lon="4.20187">
        <ele>280.2</ele>
        <time>2024-04-28T07:07:57Z</time>
      </trkpt>
      <trkpt lat="49.99748" lon="4.20186">
        <ele>280.4</ele>
        <time>2024-04-28T07:07:58Z</time>
      </trkpt>
      <trkpt lat="49.99744" lon="4.20185">
        <ele>280.6</ele>
        <time>2024-04-28T07:07:59Z</time>
      </trkpt>
      <trkpt lat="49.99742" lon="4.20184">
        <ele>280.8</ele>
        <time>2024-04-28T07:08:00Z</time>
      </trkpt>
      <trkpt lat="49.99741" lon="4.20183">
        <ele>280.8</ele>
        <time>2024-04-28T07:08:01Z</time>
      </trkpt>
      <trkpt lat="49.99741" lon="4.20183">
        <ele>281</ele>
        <time>2024-04-28T07:08:02Z</time>
      </trkpt>
      <trkpt lat="49.99741" lon="4.20183">
        <ele>281</ele>
        <time>2024-04-28T07:08:03Z</time>
      </trkpt>
      <trkpt lat="49.99733" lon="4.20179">
        <ele>280.8</ele>
        <time>2024-04-28T07:14:57Z</time>
      </trkpt>
      <trkpt lat="49.99732" lon="4.20179">
        <ele>282</ele>
        <time>2024-04-28T07:14:58Z</time>
      </trkpt>
      <trkpt lat="49.9973" lon="4.20178">
        <ele>281.8</ele>
        <time>2024-04-28T07:14:59Z</time>
      </trkpt>
      <trkpt lat="49.99728" lon="4.20177">
        <ele>281.8</ele>
        <time>2024-04-28T07:15:00Z</time>
      </trkpt>
      <trkpt lat="49.99726" lon="4.20176">
        <ele>281.6</ele>
        <time>2024-04-28T07:15:01Z</time>
      </trkpt>
      <trkpt lat="49.99723" lon="4.20176">
        <ele>281.6</ele>
        <time>2024-04-28T07:15:02Z</time>
      </trkpt>
      <trkpt lat="49.99721" lon="4.20174">
        <ele>281.6</ele>
        <time>2024-04-28T07:15:03Z</time>
      </trkpt>
      <trkpt lat="49.99719" lon="4.20173">
        <ele>281.4</ele>
        <time>2024-04-28T07:15:04Z</time>
      </trkpt>
      <trkpt lat="49.99717" lon="4.20173">
        <ele>281.2</ele>
        <time>2024-04-28T07:15:05Z</time>
      </trkpt>
      <trkpt lat="49.99714" lon="4.20172">
        <ele>281.2</ele>
        <time>2024-04-28T07:15:06Z</time>
      </trkpt>
      <trkpt lat="49.99712" lon="4.20171">
        <ele>281.2</ele>
        <time>2024-04-28T07:15:07Z</time>
      </trkpt>
      <trkpt lat="49.99709" lon="4.2017">
        <ele>281.2</ele>
        <time>2024-04-28T07:15:08Z</time>
      </trkpt>
      <trkpt lat="49.99707" lon="4.20169">
        <ele>281.2</ele>
        <time>2024-04-28T07:15:09Z</time>
      </trkpt>
      <trkpt lat="49.99704" lon="4.20167">
        <ele>281.2</ele>
        <time>2024-04-28T07:15:10Z</time>
      </trkpt>
      <trkpt lat="49.99701" lon="4.20166">
        <ele>281.2</ele>
        <time>2024-04-28T07:15:11Z</time>
      </trkpt>
      <trkpt lat="49.99698" lon="4.20165">
        <ele>281.2</ele>
        <time>2024-04-28T07:15:12Z</time>
      </trkpt>
      <trkpt lat="49.99694" lon="4.20163">
        <ele>281.2</ele>
        <time>2024-04-28T07:15:13Z</time>
      </trkpt>
      <trkpt lat="49.99691" lon="4.20162">
        <ele>281.2</ele>
        <time>2024-04-28T07:15:14Z</time>
      </trkpt>
      <trkpt lat="49.99688" lon="4.2016">
        <ele>281.4</ele>
        <time>2024-04-28T07:15:15Z</time>
      </trkpt>
      <trkpt lat="49.99685" lon="4.20159">
        <ele>281.4</ele>
        <time>2024-04-28T07:15:16Z</time>
      </trkpt>
      <trkpt lat="49.99682" lon="4.20158">
        <ele>281.6</ele>
        <time>2024-04-28T07:15:17Z</time>
      </trkpt>
      <trkpt lat="49.99679" lon="4.20156">
        <ele>281.4</ele>
        <time>2024-04-28T07:15:18Z</time>
      </trkpt>
      <trkpt lat="49.99675" lon="4.20155">
        <ele>281.4</ele>
        <time>2024-04-28T07:15:19Z</time>
      </trkpt>
      <trkpt lat="49.99671" lon="4.20153">
        <ele>281.4</ele>
        <time>2024-04-28T07:15:20Z</time>
      </trkpt>
      <trkpt lat="49.99668" lon="4.20152">
        <ele>281.4</ele>
        <time>2024-04-28T07:15:21Z</time>
      </trkpt>
      <trkpt lat="49.99663" lon="4.2015">
        <ele>281.4</ele>
        <time>2024-04-28T07:15:22Z</time>
      </trkpt>
      <trkpt lat="49.99659" lon="4.20148">
        <ele>281.4</ele>
        <time>2024-04-28T07:15:23Z</time>
      </trkpt>
      <trkpt lat="49.99655" lon="4.20146">
        <ele>281.6</ele>
        <time>2024-04-28T07:15:24Z</time>
      </trkpt>
      <trkpt lat="49.99651" lon="4.20144">
        <ele>281.6</ele>
        <time>2024-04-28T07:15:25Z</time>
      </trkpt>
      <trkpt lat="49.99646" lon="4.20142">
        <ele>281.6</ele>
        <time>2024-04-28T07:15:26Z</time>
      </trkpt>
      <trkpt lat="49.99641" lon="4.20139">
        <ele>281.6</ele>
        <time>2024-04-28T07:15:27Z</time>
      </trkpt>
      <trkpt lat="49.99636" lon="4.20136">
        <ele>281.6</ele>
        <time>2024-04-28T07:15:28Z</time>
      </trkpt>
      <trkpt lat="49.99631" lon="4.20131">
        <ele>281.4</ele>
        <time>2024-04-28T07:15:29Z</time>
      </trkpt>
      <trkpt lat="49.99626" lon="4.20127">
        <ele>281.4</ele>
        <time>2024-04-28T07:15:30Z</time>
      </trkpt>
      <trkpt lat="49.9962" lon="4.20122">
        <ele>281.4</ele>
        <time>2024-04-28T07:15:31Z</time>
      </trkpt>
      <trkpt lat="49.99615" lon="4.20118">
        <ele>281.4</ele>
        <time>2024-04-28T07:15:32Z</time>
      </trkpt>
      <trkpt lat="49.99609" lon="4.20113">
        <ele>281.4</ele>
        <time>2024-04-28T07:15:33Z</time>
      </trkpt>
      <trkpt lat="49.99604" lon="4.20108">
        <ele>281.2</ele>
        <time>2024-04-28T07:15:34Z</time>
      </trkpt>
      <trkpt lat="49.99598" lon="4.20103">
        <ele>281</ele>
        <time>2024-04-28T07:15:35Z</time>
      </trkpt>
      <trkpt lat="49.99593" lon="4.20099">
        <ele>281</ele>
        <time>2024-04-28T07:15:36Z</time>
      </trkpt>
      <trkpt lat="49.99587" lon="4.20094">
        <ele>281</ele>
        <time>2024-04-28T07:15:37Z</time>
      </trkpt>
      <trkpt lat="49.99582" lon="4.2009">
        <ele>281</ele>
        <time>2024-04-28T07:15:38Z</time>
      </trkpt>
      <trkpt lat="49.99577" lon="4.20085">
        <ele>281</ele>
        <time>2024-04-28T07:15:39Z</time>
      </trkpt>
      <trkpt lat="49.99571" lon="4.2008">
        <ele>281</ele>
        <time>2024-04-28T07:15:40Z</time>
      </trkpt>
      <trkpt lat="49.99566" lon="4.20076">
        <ele>280.8</ele>
        <time>2024-04-28T07:15:41Z</time>
      </trkpt>
      <trkpt lat="49.99561" lon="4.20071">
        <ele>280.8</ele>
        <time>2024-04-28T07:15:42Z</time>
      </trkpt>
      <trkpt lat="49.99555" lon="4.20066">
        <ele>280.8</ele>
        <time>2024-04-28T07:15:43Z</time>
      </trkpt>
      <trkpt lat="49.9955" lon="4.20062">
        <ele>281</ele>
        <time>2024-04-28T07:15:44Z</time>
      </trkpt>
      <trkpt lat="49.99545" lon="4.20058">
        <ele>280.8</ele>
        <time>2024-04-28T07:15:45Z</time>
      </trkpt>
      <trkpt lat="49.99541" lon="4.20054">
        <ele>281</ele>
        <time>2024-04-28T07:15:46Z</time>
      </trkpt>
      <trkpt lat="49.99536" lon="4.2005">
        <ele>280.8</ele>
        <time>2024-04-28T07:15:47Z</time>
      </trkpt>
      <trkpt lat="49.99532" lon="4.20046">
        <ele>280.8</ele>
        <time>2024-04-28T07:15:48Z</time>
      </trkpt>
      <trkpt lat="49.99528" lon="4.20042">
        <ele>280.8</ele>
        <time>2024-04-28T07:15:49Z</time>
      </trkpt>
      <trkpt lat="49.99524" lon="4.20038">
        <ele>281</ele>
        <time>2024-04-28T07:15:50Z</time>
      </trkpt>
      <trkpt lat="49.9952" lon="4.20035">
        <ele>281</ele>
        <time>2024-04-28T07:15:51Z</time>
      </trkpt>
      <trkpt lat="49.99516" lon="4.20031">
        <ele>281</ele>
        <time>2024-04-28T07:15:52Z</time>
      </trkpt>
      <trkpt lat="49.99512" lon="4.20028">
        <ele>281</ele>
        <time>2024-04-28T07:15:53Z</time>
      </trkpt>
      <trkpt lat="49.99508" lon="4.20024">
        <ele>281</ele>
        <time>2024-04-28T07:15:54Z</time>
      </trkpt>
      <trkpt lat="49.99503" lon="4.2002">
        <ele>281.2</ele>
        <time>2024-04-28T07:15:55Z</time>
      </trkpt>
      <trkpt lat="49.99499" lon="4.20016">
        <ele>281.2</ele>
        <time>2024-04-28T07:15:56Z</time>
      </trkpt>
      <trkpt lat="49.99495" lon="4.20012">
        <ele>281.4</ele>
        <time>2024-04-28T07:15:57Z</time>
      </trkpt>
      <trkpt lat="49.9949" lon="4.20008">
        <ele>281.4</ele>
        <time>2024-04-28T07:15:58Z</time>
      </trkpt>
      <trkpt lat="49.99486" lon="4.20005">
        <ele>281.6</ele>
        <time>2024-04-28T07:15:59Z</time>
      </trkpt>
      <trkpt lat="49.99482" lon="4.20001">
        <ele>281.8</ele>
        <time>2024-04-28T07:16:00Z</time>
      </trkpt>
      <trkpt lat="49.99477" lon="4.19997">
        <ele>282</ele>
        <time>2024-04-28T07:16:01Z</time>
      </trkpt>
      <trkpt lat="49.99473" lon="4.19993">
        <ele>282.2</ele>
        <time>2024-04-28T07:16:02Z</time>
      </trkpt>
      <trkpt lat="49.99468" lon="4.19989">
        <ele>282.4</ele>
        <time>2024-04-28T07:16:03Z</time>
      </trkpt>
      <trkpt lat="49.99464" lon="4.19986">
        <ele>282.4</ele>
        <time>2024-04-28T07:16:04Z</time>
      </trkpt>
      <trkpt lat="49.99459" lon="4.19982">
        <ele>282.6</ele>
        <time>2024-04-28T07:16:05Z</time>
      </trkpt>
      <trkpt lat="49.99455" lon="4.19978">
        <ele>282.6</ele>
        <time>2024-04-28T07:16:06Z</time>
      </trkpt>
      <trkpt lat="49.9945" lon="4.19974">
        <ele>282.6</ele>
        <time>2024-04-28T07:16:07Z</time>
      </trkpt>
      <trkpt lat="49.99446" lon="4.1997">
        <ele>282.8</ele>
        <time>2024-04-28T07:16:08Z</time>
      </trkpt>
      <trkpt lat="49.99441" lon="4.19967">
        <ele>282.8</ele>
        <time>2024-04-28T07:16:09Z</time>
      </trkpt>
      <trkpt lat="49.99437" lon="4.19963">
        <ele>282.8</ele>
        <time>2024-04-28T07:16:10Z</time>
      </trkpt>
      <trkpt lat="49.99432" lon="4.1996">
        <ele>282.8</ele>
        <time>2024-04-28T07:16:11Z</time>
      </trkpt>
      <trkpt lat="49.99428" lon="4.19956">
        <ele>283</ele>
        <time>2024-04-28T07:16:12Z</time>
      </trkpt>
      <trkpt lat="49.99424" lon="4.19952">
        <ele>283.2</ele>
        <time>2024-04-28T07:16:13Z</time>
      </trkpt>
      <trkpt lat="49.99419" lon="4.19948">
        <ele>283.2</ele>
        <time>2024-04-28T07:16:14Z</time>
      </trkpt>
      <trkpt lat="49.99415" lon="4.19944">
        <ele>283.2</ele>
        <time>2024-04-28T07:16:15Z</time>
      </trkpt>
      <trkpt lat="49.9941" lon="4.19939">
        <ele>283</ele>
        <time>2024-04-28T07:16:16Z</time>
      </trkpt>
      <trkpt lat="49.99406" lon="4.19935">
        <ele>283.2</ele>
        <time>2024-04-28T07:16:17Z</time>
      </trkpt>
      <trkpt lat="49.99402" lon="4.1993">
        <ele>283.2</ele>
        <time>2024-04-28T07:16:18Z</time>
      </trkpt>
      <trkpt lat="49.99398" lon="4.19924">
        <ele>283.4</ele>
        <time>2024-04-28T07:16:19Z</time>
      </trkpt>
      <trkpt lat="49.99394" lon="4.19918">
        <ele>283.8</ele>
        <time>2024-04-28T07:16:20Z</time>
      </trkpt>
      <trkpt lat="49.99391" lon="4.1991">
        <ele>284</ele>
        <time>2024-04-28T07:16:21Z</time>
      </trkpt>
      <trkpt lat="49.99388" lon="4.19902">
        <ele>284</ele>
        <time>2024-04-28T07:16:22Z</time>
      </trkpt>
      <trkpt lat="49.99385" lon="4.19893">
        <ele>284.2</ele>
        <time>2024-04-28T07:16:23Z</time>
      </trkpt>
      <trkpt lat="49.99383" lon="4.19884">
        <ele>284.2</ele>
        <time>2024-04-28T07:16:24Z</time>
      </trkpt>
      <trkpt lat="49.9938" lon="4.19875">
        <ele>284.2</ele>
        <time>2024-04-28T07:16:25Z</time>
      </trkpt>
      <trkpt lat="49.99378" lon="4.19866">
        <ele>284.2</ele>
        <time>2024-04-28T07:16:26Z</time>
      </trkpt>
      <trkpt lat="49.99375" lon="4.19856">
        <ele>284.2</ele>
        <time>2024-04-28T07:16:27Z</time>
      </trkpt>
      <trkpt lat="49.99373" lon="4.19847">
        <ele>283.8</ele>
        <time>2024-04-28T07:16:28Z</time>
      </trkpt>
      <trkpt lat="49.99371" lon="4.19838">
        <ele>283.8</ele>
        <time>2024-04-28T07:16:29Z</time>
      </trkpt>
      <trkpt lat="49.99368" lon="4.19828">
        <ele>284</ele>
        <time>2024-04-28T07:16:30Z</time>
      </trkpt>
      <trkpt lat="49.99366" lon="4.19819">
        <ele>284</ele>
        <time>2024-04-28T07:16:31Z</time>
      </trkpt>
      <trkpt lat="49.99364" lon="4.1981">
        <ele>284</ele>
        <time>2024-04-28T07:16:32Z</time>
      </trkpt>
      <trkpt lat="49.99361" lon="4.19801">
        <ele>284.2</ele>
        <time>2024-04-28T07:16:33Z</time>
      </trkpt>
      <trkpt lat="49.99359" lon="4.19792">
        <ele>284.2</ele>
        <time>2024-04-28T07:16:34Z</time>
      </trkpt>
      <trkpt lat="49.99357" lon="4.19783">
        <ele>284.2</ele>
        <time>2024-04-28T07:16:35Z</time>
      </trkpt>
      <trkpt lat="49.99355" lon="4.19775">
        <ele>284.4</ele>
        <time>2024-04-28T07:16:36Z</time>
      </trkpt>
      <trkpt lat="49.99353" lon="4.19766">
        <ele>284.4</ele>
        <time>2024-04-28T07:16:37Z</time>
      </trkpt>
      <trkpt lat="49.99351" lon="4.19757">
        <ele>284.4</ele>
        <time>2024-04-28T07:16:38Z</time>
      </trkpt>
      <trkpt lat="49.99349" lon="4.19748">
        <ele>284.4</ele>
        <time>2024-04-28T07:16:39Z</time>
      </trkpt>
      <trkpt lat="49.99346" lon="4.19739">
        <ele>284.4</ele>
        <time>2024-04-28T07:16:40Z</time>
      </trkpt>
      <trkpt lat="49.99344" lon="4.19729">
        <ele>284.6</ele>
        <time>2024-04-28T07:16:41Z</time>
      </trkpt>
      <trkpt lat="49.99342" lon="4.1972">
        <ele>284.6</ele>
        <time>2024-04-28T07:16:42Z</time>
      </trkpt>
      <trkpt lat="49.99339" lon="4.19711">
        <ele>284.6</ele>
        <time>2024-04-28T07:16:43Z</time>
      </trkpt>
      <trkpt lat="49.99337" lon="4.19701">
        <ele>284.4</ele>
        <time>2024-04-28T07:16:44Z</time>
      </trkpt>
      <trkpt lat="49.99335" lon="4.19692">
        <ele>284.2</ele>
        <time>2024-04-28T07:16:45Z</time>
      </trkpt>
      <trkpt lat="49.99333" lon="4.19682">
        <ele>284.2</ele>
        <time>2024-04-28T07:16:46Z</time>
      </trkpt>
      <trkpt lat="49.9933" lon="4.19673">
        <ele>284.2</ele>
        <time>2024-04-28T07:16:47Z</time>
      </trkpt>
      <trkpt lat="49.99328" lon="4.19663">
        <ele>284.2</ele>
        <time>2024-04-28T07:16:48Z</time>
      </trkpt>
      <trkpt lat="49.99325" lon="4.19654">
        <ele>284.4</ele>
        <time>2024-04-28T07:16:49Z</time>
      </trkpt>
      <trkpt lat="49.99323" lon="4.19645">
        <ele>284.2</ele>
        <time>2024-04-28T07:16:50Z</time>
      </trkpt>
      <trkpt lat="49.99321" lon="4.19635">
        <ele>284.2</ele>
        <time>2024-04-28T07:16:51Z</time>
      </trkpt>
      <trkpt lat="49.99318" lon="4.19626">
        <ele>284</ele>
        <time>2024-04-28T07:16:52Z</time>
      </trkpt>
      <trkpt lat="49.99316" lon="4.19617">
        <ele>284</ele>
        <time>2024-04-28T07:16:53Z</time>
      </trkpt>
      <trkpt lat="49.99313" lon="4.19607">
        <ele>283.8</ele>
        <time>2024-04-28T07:16:54Z</time>
      </trkpt>
      <trkpt lat="49.99311" lon="4.19598">
        <ele>283.8</ele>
        <time>2024-04-28T07:16:55Z</time>
      </trkpt>
      <trkpt lat="49.99309" lon="4.19588">
        <ele>283.4</ele>
        <time>2024-04-28T07:16:56Z</time>
      </trkpt>
      <trkpt lat="49.99306" lon="4.19578">
        <ele>283.4</ele>
        <time>2024-04-28T07:16:57Z</time>
      </trkpt>
      <trkpt lat="49.99304" lon="4.19568">
        <ele>283.2</ele>
        <time>2024-04-28T07:16:58Z</time>
      </trkpt>
      <trkpt lat="49.99301" lon="4.19559">
        <ele>283</ele>
        <time>2024-04-28T07:16:59Z</time>
      </trkpt>
      <trkpt lat="49.99299" lon="4.19549">
        <ele>283</ele>
        <time>2024-04-28T07:17:00Z</time>
      </trkpt>
      <trkpt lat="49.99297" lon="4.19539">
        <ele>282.8</ele>
        <time>2024-04-28T07:17:01Z</time>
      </trkpt>
      <trkpt lat="49.99294" lon="4.1953">
        <ele>282.8</ele>
        <time>2024-04-28T07:17:02Z</time>
      </trkpt>
      <trkpt lat="49.99292" lon="4.1952">
        <ele>282.6</ele>
        <time>2024-04-28T07:17:03Z</time>
      </trkpt>
      <trkpt lat="49.99289" lon="4.1951">
        <ele>282.4</ele>
        <time>2024-04-28T07:17:04Z</time>
      </trkpt>
      <trkpt lat="49.99287" lon="4.195">
        <ele>282.2</ele>
        <time>2024-04-28T07:17:05Z</time>
      </trkpt>
      <trkpt lat="49.99284" lon="4.1949">
        <ele>282</ele>
        <time>2024-04-28T07:17:06Z</time>
      </trkpt>
      <trkpt lat="49.99282" lon="4.1948">
        <ele>282</ele>
        <time>2024-04-28T07:17:07Z</time>
      </trkpt>
      <trkpt lat="49.99279" lon="4.19469">
        <ele>281.8</ele>
        <time>2024-04-28T07:17:08Z</time>
      </trkpt>
      <trkpt lat="49.99277" lon="4.19459">
        <ele>282</ele>
        <time>2024-04-28T07:17:09Z</time>
      </trkpt>
      <trkpt lat="49.99274" lon="4.19449">
        <ele>281.6</ele>
        <time>2024-04-28T07:17:10Z</time>
      </trkpt>
      <trkpt lat="49.99271" lon="4.19439">
        <ele>281.6</ele>
        <time>2024-04-28T07:17:11Z</time>
      </trkpt>
      <trkpt lat="49.99269" lon="4.19429">
        <ele>281.6</ele>
        <time>2024-04-28T07:17:12Z</time>
      </trkpt>
      <trkpt lat="49.99267" lon="4.19418">
        <ele>281.4</ele>
        <time>2024-04-28T07:17:13Z</time>
      </trkpt>
      <trkpt lat="49.99265" lon="4.19408">
        <ele>281.2</ele>
        <time>2024-04-28T07:17:14Z</time>
      </trkpt>
      <trkpt lat="49.99262" lon="4.19397">
        <ele>281.2</ele>
        <time>2024-04-28T07:17:15Z</time>
      </trkpt>
      <trkpt lat="49.99259" lon="4.19387">
        <ele>280.8</ele>
        <time>2024-04-28T07:17:16Z</time>
      </trkpt>
      <trkpt lat="49.99256" lon="4.19376">
        <ele>280.8</ele>
        <time>2024-04-28T07:17:17Z</time>
      </trkpt>
      <trkpt lat="49.99252" lon="4.19366">
        <ele>280.6</ele>
        <time>2024-04-28T07:17:18Z</time>
      </trkpt>
      <trkpt lat="49.99248" lon="4.19356">
        <ele>280</ele>
        <time>2024-04-28T07:17:19Z</time>
      </trkpt>
      <trkpt lat="49.99244" lon="4.19347">
        <ele>279.8</ele>
        <time>2024-04-28T07:17:20Z</time>
      </trkpt>
      <trkpt lat="49.99238" lon="4.19338">
        <ele>279.6</ele>
        <time>2024-04-28T07:17:21Z</time>
      </trkpt>
      <trkpt lat="49.99233" lon="4.19329">
        <ele>279.2</ele>
        <time>2024-04-28T07:17:22Z</time>
      </trkpt>
      <trkpt lat="49.99227" lon="4.19321">
        <ele>279</ele>
        <time>2024-04-28T07:17:23Z</time>
      </trkpt>
      <trkpt lat="49.99221" lon="4.19313">
        <ele>279</ele>
        <time>2024-04-28T07:17:24Z</time>
      </trkpt>
      <trkpt lat="49.99215" lon="4.19306">
        <ele>278.8</ele>
        <time>2024-04-28T07:17:25Z</time>
      </trkpt>
      <trkpt lat="49.99209" lon="4.19298">
        <ele>278.6</ele>
        <time>2024-04-28T07:17:26Z</time>
      </trkpt>
      <trkpt lat="49.99203" lon="4.19291">
        <ele>278.6</ele>
        <time>2024-04-28T07:17:27Z</time>
      </trkpt>
      <trkpt lat="49.99196" lon="4.19283">
        <ele>278.4</ele>
        <time>2024-04-28T07:17:28Z</time>
      </trkpt>
      <trkpt lat="49.9919" lon="4.19276">
        <ele>278.2</ele>
        <time>2024-04-28T07:17:29Z</time>
      </trkpt>
      <trkpt lat="49.99183" lon="4.19268">
        <ele>278</ele>
        <time>2024-04-28T07:17:30Z</time>
      </trkpt>
      <trkpt lat="49.99177" lon="4.1926">
        <ele>277.8</ele>
        <time>2024-04-28T07:17:31Z</time>
      </trkpt>
      <trkpt lat="49.9917" lon="4.19252">
        <ele>277.4</ele>
        <time>2024-04-28T07:17:32Z</time>
      </trkpt>
      <trkpt lat="49.99163" lon="4.19244">
        <ele>277.4</ele>
        <time>2024-04-28T07:17:33Z</time>
      </trkpt>
      <trkpt lat="49.99156" lon="4.19236">
        <ele>277</ele>
        <time>2024-04-28T07:17:34Z</time>
      </trkpt>
      <trkpt lat="49.99149" lon="4.19228">
        <ele>277</ele>
        <time>2024-04-28T07:17:35Z</time>
      </trkpt>
      <trkpt lat="49.99142" lon="4.1922">
        <ele>276.6</ele>
        <time>2024-04-28T07:17:36Z</time>
      </trkpt>
      <trkpt lat="49.99135" lon="4.19212">
        <ele>276.6</ele>
        <time>2024-04-28T07:17:37Z</time>
      </trkpt>
      <trkpt lat="49.99127" lon="4.19204">
        <ele>276.2</ele>
        <time>2024-04-28T07:17:38Z</time>
      </trkpt>
      <trkpt lat="49.9912" lon="4.19196">
        <ele>275.4</ele>
        <time>2024-04-28T07:17:39Z</time>
      </trkpt>
      <trkpt lat="49.99113" lon="4.19188">
        <ele>275.2</ele>
        <time>2024-04-28T07:17:40Z</time>
      </trkpt>
      <trkpt lat="49.99106" lon="4.1918">
        <ele>274.8</ele>
        <time>2024-04-28T07:17:41Z</time>
      </trkpt>
      <trkpt lat="49.99099" lon="4.19172">
        <ele>274.4</ele>
        <time>2024-04-28T07:17:42Z</time>
      </trkpt>
      <trkpt lat="49.99092" lon="4.19164">
        <ele>274</ele>
        <time>2024-04-28T07:17:43Z</time>
      </trkpt>
      <trkpt lat="49.99086" lon="4.19156">
        <ele>273.2</ele>
        <time>2024-04-28T07:17:44Z</time>
      </trkpt>
      <trkpt lat="49.99079" lon="4.19147">
        <ele>272.6</ele>
        <time>2024-04-28T07:17:45Z</time>
      </trkpt>
      <trkpt lat="49.99073" lon="4.19139">
        <ele>272.2</ele>
        <time>2024-04-28T07:17:46Z</time>
      </trkpt>
      <trkpt lat="49.99067" lon="4.1913">
        <ele>272</ele>
        <time>2024-04-28T07:17:47Z</time>
      </trkpt>
      <trkpt lat="49.99061" lon="4.19122">
        <ele>271.6</ele>
        <time>2024-04-28T07:17:48Z</time>
      </trkpt>
      <trkpt lat="49.99054" lon="4.19114">
        <ele>271.2</ele>
        <time>2024-04-28T07:17:49Z</time>
      </trkpt>
      <trkpt lat="49.99049" lon="4.19104">
        <ele>271</ele>
        <time>2024-04-28T07:17:50Z</time>
      </trkpt>
      <trkpt lat="49.99044" lon="4.19094">
        <ele>270.8</ele>
        <time>2024-04-28T07:17:51Z</time>
      </trkpt>
      <trkpt lat="49.9904" lon="4.19084">
        <ele>270.6</ele>
        <time>2024-04-28T07:17:52Z</time>
      </trkpt>
      <trkpt lat="49.99035" lon="4.19074">
        <ele>270.2</ele>
        <time>2024-04-28T07:17:53Z</time>
      </trkpt>
      <trkpt lat="49.99031" lon="4.19063">
        <ele>270</ele>
        <time>2024-04-28T07:17:54Z</time>
      </trkpt>
      <trkpt lat="49.99027" lon="4.19053">
        <ele>270</ele>
        <time>2024-04-28T07:17:55Z</time>
      </trkpt>
      <trkpt lat="49.99023" lon="4.19043">
        <ele>270</ele>
        <time>2024-04-28T07:17:56Z</time>
      </trkpt>
      <trkpt lat="49.99019" lon="4.19033">
        <ele>269.8</ele>
        <time>2024-04-28T07:17:57Z</time>
      </trkpt>
      <trkpt lat="49.99014" lon="4.19023">
        <ele>270</ele>
        <time>2024-04-28T07:17:58Z</time>
      </trkpt>
      <trkpt lat="49.9901" lon="4.19013">
        <ele>269.8</ele>
        <time>2024-04-28T07:17:59Z</time>
      </trkpt>
      <trkpt lat="49.99006" lon="4.19003">
        <ele>269.8</ele>
        <time>2024-04-28T07:18:00Z</time>
      </trkpt>
      <trkpt lat="49.99001" lon="4.18993">
        <ele>269.4</ele>
        <time>2024-04-28T07:18:01Z</time>
      </trkpt>
      <trkpt lat="49.98996" lon="4.18983">
        <ele>269</ele>
        <time>2024-04-28T07:18:02Z</time>
      </trkpt>
      <trkpt lat="49.98991" lon="4.18973">
        <ele>269</ele>
        <time>2024-04-28T07:18:03Z</time>
      </trkpt>
      <trkpt lat="49.98986" lon="4.18963">
        <ele>268.8</ele>
        <time>2024-04-28T07:18:04Z</time>
      </trkpt>
      <trkpt lat="49.98981" lon="4.18954">
        <ele>268.6</ele>
        <time>2024-04-28T07:18:05Z</time>
      </trkpt>
      <trkpt lat="49.98975" lon="4.18944">
        <ele>268.4</ele>
        <time>2024-04-28T07:18:06Z</time>
      </trkpt>
      <trkpt lat="49.98971" lon="4.18933">
        <ele>268</ele>
        <time>2024-04-28T07:18:07Z</time>
      </trkpt>
      <trkpt lat="49.98966" lon="4.18923">
        <ele>268</ele>
        <time>2024-04-28T07:18:08Z</time>
      </trkpt>
      <trkpt lat="49.98961" lon="4.18911">
        <ele>267.6</ele>
        <time>2024-04-28T07:18:09Z</time>
      </trkpt>
      <trkpt lat="49.98957" lon="4.18899">
        <ele>267.4</ele>
        <time>2024-04-28T07:18:10Z</time>
      </trkpt>
      <trkpt lat="49.98954" lon="4.18887">
        <ele>267.4</ele>
        <time>2024-04-28T07:18:11Z</time>
      </trkpt>
      <trkpt lat="49.9895" lon="4.18875">
        <ele>267.4</ele>
        <time>2024-04-28T07:18:12Z</time>
      </trkpt>
      <trkpt lat="49.98947" lon="4.18862">
        <ele>267.4</ele>
        <time>2024-04-28T07:18:13Z</time>
      </trkpt>
      <trkpt lat="49.98943" lon="4.1885">
        <ele>267</ele>
        <time>2024-04-28T07:18:14Z</time>
      </trkpt>
      <trkpt lat="49.9894" lon="4.18838">
        <ele>267</ele>
        <time>2024-04-28T07:18:15Z</time>
      </trkpt>
      <trkpt lat="49.98936" lon="4.18827">
        <ele>266.6</ele>
        <time>2024-04-28T07:18:16Z</time>
      </trkpt>
      <trkpt lat="49.98932" lon="4.18816">
        <ele>266.4</ele>
        <time>2024-04-28T07:18:17Z</time>
      </trkpt>
      <trkpt lat="49.98928" lon="4.18805">
        <ele>266.4</ele>
        <time>2024-04-28T07:18:18Z</time>
      </trkpt>
      <trkpt lat="49.98924" lon="4.18794">
        <ele>266.2</ele>
        <time>2024-04-28T07:18:19Z</time>
      </trkpt>
      <trkpt lat="49.9892" lon="4.18784">
        <ele>266.2</ele>
        <time>2024-04-28T07:18:20Z</time>
      </trkpt>
      <trkpt lat="49.98916" lon="4.18773">
        <ele>266.2</ele>
        <time>2024-04-28T07:18:21Z</time>
      </trkpt>
      <trkpt lat="49.98912" lon="4.18763">
        <ele>266.2</ele>
        <time>2024-04-28T07:18:22Z</time>
      </trkpt>
      <trkpt lat="49.98908" lon="4.18753">
        <ele>266.2</ele>
        <time>2024-04-28T07:18:23Z</time>
      </trkpt>
      <trkpt lat="49.98905" lon="4.18743">
        <ele>266.2</ele>
        <time>2024-04-28T07:18:24Z</time>
      </trkpt>
      <trkpt lat="49.98901" lon="4.18733">
        <ele>266</ele>
        <time>2024-04-28T07:18:25Z</time>
      </trkpt>
      <trkpt lat="49.98898" lon="4.18723">
        <ele>266.2</ele>
        <time>2024-04-28T07:18:26Z</time>
      </trkpt>
      <trkpt lat="49.98894" lon="4.18712">
        <ele>266</ele>
        <time>2024-04-28T07:18:27Z</time>
      </trkpt>
      <trkpt lat="49.98891" lon="4.18702">
        <ele>266</ele>
        <time>2024-04-28T07:18:28Z</time>
      </trkpt>
      <trkpt lat="49.98888" lon="4.18692">
        <ele>266.4</ele>
        <time>2024-04-28T07:18:29Z</time>
      </trkpt>
      <trkpt lat="49.98884" lon="4.18682">
        <ele>266.4</ele>
        <time>2024-04-28T07:18:30Z</time>
      </trkpt>
      <trkpt lat="49.98881" lon="4.18672">
        <ele>266.8</ele>
        <time>2024-04-28T07:18:31Z</time>
      </trkpt>
      <trkpt lat="49.98877" lon="4.18662">
        <ele>267.2</ele>
        <time>2024-04-28T07:18:32Z</time>
      </trkpt>
      <trkpt lat="49.98874" lon="4.18653">
        <ele>267.4</ele>
        <time>2024-04-28T07:18:33Z</time>
      </trkpt>
      <trkpt lat="49.9887" lon="4.18643">
        <ele>267.6</ele>
        <time>2024-04-28T07:18:34Z</time>
      </trkpt>
      <trkpt lat="49.98866" lon="4.18633">
        <ele>267.6</ele>
        <time>2024-04-28T07:18:35Z</time>
      </trkpt>
      <trkpt lat="49.98862" lon="4.18623">
        <ele>267.4</ele>
        <time>2024-04-28T07:18:36Z</time>
      </trkpt>
      <trkpt lat="49.98858" lon="4.18614">
        <ele>267.6</ele>
        <time>2024-04-28T07:18:37Z</time>
      </trkpt>
      <trkpt lat="49.98854" lon="4.18604">
        <ele>267.6</ele>
        <time>2024-04-28T07:18:38Z</time>
      </trkpt>
      <trkpt lat="49.98851" lon="4.18595">
        <ele>267.4</ele>
        <time>2024-04-28T07:18:39Z</time>
      </trkpt>
      <trkpt lat="49.98847" lon="4.18586">
        <ele>267.6</ele>
        <time>2024-04-28T07:18:40Z</time>
      </trkpt>
      <trkpt lat="49.98843" lon="4.18577">
        <ele>267.6</ele>
        <time>2024-04-28T07:18:41Z</time>
      </trkpt>
      <trkpt lat="49.98839" lon="4.18568">
        <ele>267.6</ele>
        <time>2024-04-28T07:18:42Z</time>
      </trkpt>
      <trkpt lat="49.98835" lon="4.18559">
        <ele>267.4</ele>
        <time>2024-04-28T07:18:43Z</time>
      </trkpt>
      <trkpt lat="49.98831" lon="4.1855">
        <ele>267.4</ele>
        <time>2024-04-28T07:18:44Z</time>
      </trkpt>
      <trkpt lat="49.98827" lon="4.18541">
        <ele>267.2</ele>
        <time>2024-04-28T07:18:45Z</time>
      </trkpt>
      <trkpt lat="49.98823" lon="4.18532">
        <ele>267.4</ele>
        <time>2024-04-28T07:18:46Z</time>
      </trkpt>
      <trkpt lat="49.98819" lon="4.18523">
        <ele>267.4</ele>
        <time>2024-04-28T07:18:47Z</time>
      </trkpt>
      <trkpt lat="49.98815" lon="4.18515">
        <ele>267.2</ele>
        <time>2024-04-28T07:18:48Z</time>
      </trkpt>
      <trkpt lat="49.98811" lon="4.18506">
        <ele>267.2</ele>
        <time>2024-04-28T07:18:49Z</time>
      </trkpt>
      <trkpt lat="49.98807" lon="4.18497">
        <ele>267</ele>
        <time>2024-04-28T07:18:50Z</time>
      </trkpt>
      <trkpt lat="49.98804" lon="4.18488">
        <ele>267.2</ele>
        <time>2024-04-28T07:18:51Z</time>
      </trkpt>
      <trkpt lat="49.988" lon="4.18479">
        <ele>267.2</ele>
        <time>2024-04-28T07:18:52Z</time>
      </trkpt>
      <trkpt lat="49.98797" lon="4.18469">
        <ele>267</ele>
        <time>2024-04-28T07:18:53Z</time>
      </trkpt>
      <trkpt lat="49.98793" lon="4.18459">
        <ele>267</ele>
        <time>2024-04-28T07:18:54Z</time>
      </trkpt>
      <trkpt lat="49.9879" lon="4.18449">
        <ele>266.8</ele>
        <time>2024-04-28T07:18:55Z</time>
      </trkpt>
      <trkpt lat="49.98787" lon="4.18439">
        <ele>266.8</ele>
        <time>2024-04-28T07:18:56Z</time>
      </trkpt>
      <trkpt lat="49.98784" lon="4.18428">
        <ele>267</ele>
        <time>2024-04-28T07:18:57Z</time>
      </trkpt>
      <trkpt lat="49.98781" lon="4.18418">
        <ele>267</ele>
        <time>2024-04-28T07:18:58Z</time>
      </trkpt>
      <trkpt lat="49.98779" lon="4.18408">
        <ele>267</ele>
        <time>2024-04-28T07:18:59Z</time>
      </trkpt>
      <trkpt lat="49.98776" lon="4.18399">
        <ele>267.2</ele>
        <time>2024-04-28T07:19:00Z</time>
      </trkpt>
      <trkpt lat="49.98773" lon="4.18389">
        <ele>267.2</ele>
        <time>2024-04-28T07:19:01Z</time>
      </trkpt>
      <trkpt lat="49.9877" lon="4.1838">
        <ele>267.2</ele>
        <time>2024-04-28T07:19:02Z</time>
      </trkpt>
      <trkpt lat="49.98768" lon="4.18371">
        <ele>267.2</ele>
        <time>2024-04-28T07:19:03Z</time>
      </trkpt>
      <trkpt lat="49.98765" lon="4.18361">
        <ele>267.2</ele>
        <time>2024-04-28T07:19:04Z</time>
      </trkpt>
      <trkpt lat="49.98762" lon="4.18352">
        <ele>267.4</ele>
        <time>2024-04-28T07:19:05Z</time>
      </trkpt>
      <trkpt lat="49.9876" lon="4.18342">
        <ele>267.4</ele>
        <time>2024-04-28T07:19:06Z</time>
      </trkpt>
      <trkpt lat="49.98757" lon="4.18333">
        <ele>267.8</ele>
        <time>2024-04-28T07:19:07Z</time>
      </trkpt>
      <trkpt lat="49.98754" lon="4.18323">
        <ele>267.8</ele>
        <time>2024-04-28T07:19:08Z</time>
      </trkpt>
      <trkpt lat="49.98752" lon="4.18314">
        <ele>268.4</ele>
        <time>2024-04-28T07:19:09Z</time>
      </trkpt>
      <trkpt lat="49.98749" lon="4.18305">
        <ele>268.6</ele>
        <time>2024-04-28T07:19:10Z</time>
      </trkpt>
      <trkpt lat="49.98746" lon="4.18296">
        <ele>268.8</ele>
        <time>2024-04-28T07:19:11Z</time>
      </trkpt>
      <trkpt lat="49.98743" lon="4.18286">
        <ele>269</ele>
        <time>2024-04-28T07:19:12Z</time>
      </trkpt>
      <trkpt lat="49.9874" lon="4.18276">
        <ele>269.2</ele>
        <time>2024-04-28T07:19:13Z</time>
      </trkpt>
      <trkpt lat="49.98738" lon="4.18267">
        <ele>269.4</ele>
        <time>2024-04-28T07:19:14Z</time>
      </trkpt>
      <trkpt lat="49.98735" lon="4.18257">
        <ele>269.6</ele>
        <time>2024-04-28T07:19:15Z</time>
      </trkpt>
      <trkpt lat="49.98732" lon="4.18248">
        <ele>269.6</ele>
        <time>2024-04-28T07:19:16Z</time>
      </trkpt>
      <trkpt lat="49.98729" lon="4.18238">
        <ele>269.6</ele>
        <time>2024-04-28T07:19:17Z</time>
      </trkpt>
      <trkpt lat="49.98726" lon="4.18228">
        <ele>269.6</ele>
        <time>2024-04-28T07:19:18Z</time>
      </trkpt>
      <trkpt lat="49.98724" lon="4.18219">
        <ele>269.6</ele>
        <time>2024-04-28T07:19:19Z</time>
      </trkpt>
      <trkpt lat="49.98721" lon="4.1821">
        <ele>269.6</ele>
        <time>2024-04-28T07:19:20Z</time>
      </trkpt>
      <trkpt lat="49.98718" lon="4.18201">
        <ele>269.6</ele>
        <time>2024-04-28T07:19:21Z</time>
      </trkpt>
      <trkpt lat="49.98716" lon="4.18192">
        <ele>269.6</ele>
        <time>2024-04-28T07:19:22Z</time>
      </trkpt>
      <trkpt lat="49.98713" lon="4.18183">
        <ele>269.6</ele>
        <time>2024-04-28T07:19:23Z</time>
      </trkpt>
      <trkpt lat="49.98711" lon="4.18175">
        <ele>269.4</ele>
        <time>2024-04-28T07:19:24Z</time>
      </trkpt>
      <trkpt lat="49.98709" lon="4.18167">
        <ele>269.4</ele>
        <time>2024-04-28T07:19:25Z</time>
      </trkpt>
      <trkpt lat="49.98706" lon="4.18159">
        <ele>269.2</ele>
        <time>2024-04-28T07:19:26Z</time>
      </trkpt>
      <trkpt lat="49.98704" lon="4.18151">
        <ele>269.2</ele>
        <time>2024-04-28T07:19:27Z</time>
      </trkpt>
      <trkpt lat="49.98702" lon="4.18143">
        <ele>269.2</ele>
        <time>2024-04-28T07:19:28Z</time>
      </trkpt>
      <trkpt lat="49.987" lon="4.18135">
        <ele>269</ele>
        <time>2024-04-28T07:19:29Z</time>
      </trkpt>
      <trkpt lat="49.987" lon="4.18126">
        <ele>269</ele>
        <time>2024-04-28T07:19:30Z</time>
      </trkpt>
      <trkpt lat="49.98701" lon="4.18116">
        <ele>269</ele>
        <time>2024-04-28T07:19:31Z</time>
      </trkpt>
      <trkpt lat="49.98704" lon="4.18107">
        <ele>268.8</ele>
        <time>2024-04-28T07:19:32Z</time>
      </trkpt>
      <trkpt lat="49.98708" lon="4.18099">
        <ele>268.8</ele>
        <time>2024-04-28T07:19:33Z</time>
      </trkpt>
      <trkpt lat="49.98713" lon="4.18091">
        <ele>268.6</ele>
        <time>2024-04-28T07:19:34Z</time>
      </trkpt>
      <trkpt lat="49.98718" lon="4.18083">
        <ele>268.4</ele>
        <time>2024-04-28T07:19:35Z</time>
      </trkpt>
      <trkpt lat="49.98723" lon="4.18075">
        <ele>268.4</ele>
        <time>2024-04-28T07:19:36Z</time>
      </trkpt>
      <trkpt lat="49.98728" lon="4.18067">
        <ele>268.4</ele>
        <time>2024-04-28T07:19:37Z</time>
      </trkpt>
      <trkpt lat="49.98733" lon="4.18059">
        <ele>268.4</ele>
        <time>2024-04-28T07:19:38Z</time>
      </trkpt>
      <trkpt lat="49.98738" lon="4.18051">
        <ele>268.4</ele>
        <time>2024-04-28T07:19:39Z</time>
      </trkpt>
      <trkpt lat="49.98744" lon="4.18043">
        <ele>268.4</ele>
        <time>2024-04-28T07:19:40Z</time>
      </trkpt>
      <trkpt lat="49.9875" lon="4.18036">
        <ele>268.2</ele>
        <time>2024-04-28T07:19:41Z</time>
      </trkpt>
      <trkpt lat="49.98756" lon="4.18029">
        <ele>268.2</ele>
        <time>2024-04-28T07:19:42Z</time>
      </trkpt>
      <trkpt lat="49.98762" lon="4.18022">
        <ele>268</ele>
        <time>2024-04-28T07:19:43Z</time>
      </trkpt>
      <trkpt lat="49.98768" lon="4.18016">
        <ele>267.4</ele>
        <time>2024-04-28T07:19:44Z</time>
      </trkpt>
      <trkpt lat="49.98775" lon="4.18009">
        <ele>267.2</ele>
        <time>2024-04-28T07:19:45Z</time>
      </trkpt>
      <trkpt lat="49.98781" lon="4.18002">
        <ele>267</ele>
        <time>2024-04-28T07:19:46Z</time>
      </trkpt>
      <trkpt lat="49.98787" lon="4.17995">
        <ele>266.8</ele>
        <time>2024-04-28T07:19:47Z</time>
      </trkpt>
      <trkpt lat="49.98792" lon="4.17988">
        <ele>266.8</ele>
        <time>2024-04-28T07:19:48Z</time>
      </trkpt>
      <trkpt lat="49.98796" lon="4.17981">
        <ele>266.6</ele>
        <time>2024-04-28T07:19:49Z</time>
      </trkpt>
      <trkpt lat="49.988" lon="4.17974">
        <ele>266.8</ele>
        <time>2024-04-28T07:19:50Z</time>
      </trkpt>
      <trkpt lat="49.98804" lon="4.17967">
        <ele>266.8</ele>
        <time>2024-04-28T07:19:51Z</time>
      </trkpt>
      <trkpt lat="49.98808" lon="4.1796">
        <ele>266.8</ele>
        <time>2024-04-28T07:19:52Z</time>
      </trkpt>
      <trkpt lat="49.98814" lon="4.17955">
        <ele>266.8</ele>
        <time>2024-04-28T07:19:53Z</time>
      </trkpt>
      <trkpt lat="49.9882" lon="4.17949">
        <ele>266.6</ele>
        <time>2024-04-28T07:19:54Z</time>
      </trkpt>
      <trkpt lat="49.98827" lon="4.17944">
        <ele>266.6</ele>
        <time>2024-04-28T07:19:55Z</time>
      </trkpt>
      <trkpt lat="49.98833" lon="4.17939">
        <ele>266.4</ele>
        <time>2024-04-28T07:19:56Z</time>
      </trkpt>
      <trkpt lat="49.9884" lon="4.17932">
        <ele>266.2</ele>
        <time>2024-04-28T07:19:57Z</time>
      </trkpt>
      <trkpt lat="49.98848" lon="4.17925">
        <ele>265.8</ele>
        <time>2024-04-28T07:19:58Z</time>
      </trkpt>
      <trkpt lat="49.98855" lon="4.17918">
        <ele>265.8</ele>
        <time>2024-04-28T07:19:59Z</time>
      </trkpt>
      <trkpt lat="49.98862" lon="4.1791">
        <ele>265.6</ele>
        <time>2024-04-28T07:20:00Z</time>
      </trkpt>
      <trkpt lat="49.9887" lon="4.17902">
        <ele>265.6</ele>
        <time>2024-04-28T07:20:01Z</time>
      </trkpt>
      <trkpt lat="49.98878" lon="4.17894">
        <ele>265.2</ele>
        <time>2024-04-28T07:20:02Z</time>
      </trkpt>
      <trkpt lat="49.98886" lon="4.17886">
        <ele>265</ele>
        <time>2024-04-28T07:20:03Z</time>
      </trkpt>
      <trkpt lat="49.98894" lon="4.17877">
        <ele>264.4</ele>
        <time>2024-04-28T07:20:04Z</time>
      </trkpt>
      <trkpt lat="49.98902" lon="4.17868">
        <ele>264</ele>
        <time>2024-04-28T07:20:05Z</time>
      </trkpt>
      <trkpt lat="49.98911" lon="4.17859">
        <ele>263</ele>
        <time>2024-04-28T07:20:06Z</time>
      </trkpt>
      <trkpt lat="49.9892" lon="4.1785">
        <ele>262</ele>
        <time>2024-04-28T07:20:07Z</time>
      </trkpt>
      <trkpt lat="49.98929" lon="4.17841">
        <ele>261.4</ele>
        <time>2024-04-28T07:20:08Z</time>
      </trkpt>
      <trkpt lat="49.98939" lon="4.17831">
        <ele>261</ele>
        <time>2024-04-28T07:20:09Z</time>
      </trkpt>
      <trkpt lat="49.98948" lon="4.17821">
        <ele>261</ele>
        <time>2024-04-28T07:20:10Z</time>
      </trkpt>
      <trkpt lat="49.98958" lon="4.17811">
        <ele>260.6</ele>
        <time>2024-04-28T07:20:11Z</time>
      </trkpt>
      <trkpt lat="49.98967" lon="4.17801">
        <ele>260.2</ele>
        <time>2024-04-28T07:20:12Z</time>
      </trkpt>
      <trkpt lat="49.98976" lon="4.1779">
        <ele>259.6</ele>
        <time>2024-04-28T07:20:13Z</time>
      </trkpt>
      <trkpt lat="49.98984" lon="4.17779">
        <ele>259</ele>
        <time>2024-04-28T07:20:14Z</time>
      </trkpt>
      <trkpt lat="49.98992" lon="4.17768">
        <ele>258.4</ele>
        <time>2024-04-28T07:20:15Z</time>
      </trkpt>
      <trkpt lat="49.98999" lon="4.17758">
        <ele>258</ele>
        <time>2024-04-28T07:20:16Z</time>
      </trkpt>
      <trkpt lat="49.99006" lon="4.17748">
        <ele>257.2</ele>
        <time>2024-04-28T07:20:17Z</time>
      </trkpt>
      <trkpt lat="49.99013" lon="4.17738">
        <ele>257</ele>
        <time>2024-04-28T07:20:18Z</time>
      </trkpt>
      <trkpt lat="49.99019" lon="4.17728">
        <ele>256.8</ele>
        <time>2024-04-28T07:20:19Z</time>
      </trkpt>
      <trkpt lat="49.99026" lon="4.17719">
        <ele>256.6</ele>
        <time>2024-04-28T07:20:20Z</time>
      </trkpt>
      <trkpt lat="49.99031" lon="4.1771">
        <ele>256.8</ele>
        <time>2024-04-28T07:20:21Z</time>
      </trkpt>
      <trkpt lat="49.99036" lon="4.17701">
        <ele>256.8</ele>
        <time>2024-04-28T07:20:22Z</time>
      </trkpt>
      <trkpt lat="49.99041" lon="4.17692">
        <ele>256.8</ele>
        <time>2024-04-28T07:20:23Z</time>
      </trkpt>
      <trkpt lat="49.99046" lon="4.17684">
        <ele>256.8</ele>
        <time>2024-04-28T07:20:24Z</time>
      </trkpt>
      <trkpt lat="49.99051" lon="4.17675">
        <ele>256.6</ele>
        <time>2024-04-28T07:20:25Z</time>
      </trkpt>
      <trkpt lat="49.99055" lon="4.17667">
        <ele>256.6</ele>
        <time>2024-04-28T07:20:26Z</time>
      </trkpt>
      <trkpt lat="49.9906" lon="4.17658">
        <ele>256.6</ele>
        <time>2024-04-28T07:20:27Z</time>
      </trkpt>
      <trkpt lat="49.99064" lon="4.17649">
        <ele>256.8</ele>
        <time>2024-04-28T07:20:28Z</time>
      </trkpt>
      <trkpt lat="49.99069" lon="4.1764">
        <ele>257.2</ele>
        <time>2024-04-28T07:20:29Z</time>
      </trkpt>
      <trkpt lat="49.99073" lon="4.1763">
        <ele>257.8</ele>
        <time>2024-04-28T07:20:30Z</time>
      </trkpt>
      <trkpt lat="49.99076" lon="4.17619">
        <ele>258.6</ele>
        <time>2024-04-28T07:20:31Z</time>
      </trkpt>
      <trkpt lat="49.9908" lon="4.17609">
        <ele>259.4</ele>
        <time>2024-04-28T07:20:32Z</time>
      </trkpt>
      <trkpt lat="49.99084" lon="4.17599">
        <ele>260.4</ele>
        <time>2024-04-28T07:20:33Z</time>
      </trkpt>
      <trkpt lat="49.99088" lon="4.17589">
        <ele>260.6</ele>
        <time>2024-04-28T07:20:34Z</time>
      </trkpt>
      <trkpt lat="49.99091" lon="4.17579">
        <ele>261.4</ele>
        <time>2024-04-28T07:20:35Z</time>
      </trkpt>
      <trkpt lat="49.99095" lon="4.1757">
        <ele>261.6</ele>
        <time>2024-04-28T07:20:36Z</time>
      </trkpt>
      <trkpt lat="49.99099" lon="4.17561">
        <ele>261.8</ele>
        <time>2024-04-28T07:20:37Z</time>
      </trkpt>
      <trkpt lat="49.99103" lon="4.17552">
        <ele>262.2</ele>
        <time>2024-04-28T07:20:38Z</time>
      </trkpt>
      <trkpt lat="49.99107" lon="4.17544">
        <ele>262.8</ele>
        <time>2024-04-28T07:20:39Z</time>
      </trkpt>
      <trkpt lat="49.99111" lon="4.17537">
        <ele>263.2</ele>
        <time>2024-04-28T07:20:40Z</time>
      </trkpt>
      <trkpt lat="49.99115" lon="4.17529">
        <ele>263.6</ele>
        <time>2024-04-28T07:20:41Z</time>
      </trkpt>
      <trkpt lat="49.99119" lon="4.17522">
        <ele>263.6</ele>
        <time>2024-04-28T07:20:42Z</time>
      </trkpt>
      <trkpt lat="49.99124" lon="4.17515">
        <ele>263.6</ele>
        <time>2024-04-28T07:20:43Z</time>
      </trkpt>
      <trkpt lat="49.99128" lon="4.17508">
        <ele>263.8</ele>
        <time>2024-04-28T07:20:44Z</time>
      </trkpt>
      <trkpt lat="49.99133" lon="4.175">
        <ele>264.2</ele>
        <time>2024-04-28T07:20:45Z</time>
      </trkpt>
      <trkpt lat="49.99137" lon="4.17493">
        <ele>264.4</ele>
        <time>2024-04-28T07:20:46Z</time>
      </trkpt>
      <trkpt lat="49.99142" lon="4.17486">
        <ele>264.8</ele>
        <time>2024-04-28T07:20:47Z</time>
      </trkpt>
      <trkpt lat="49.99147" lon="4.17479">
        <ele>265.4</ele>
        <time>2024-04-28T07:20:48Z</time>
      </trkpt>
      <trkpt lat="49.99152" lon="4.17472">
        <ele>266.2</ele>
        <time>2024-04-28T07:20:49Z</time>
      </trkpt>
      <trkpt lat="49.99157" lon="4.17464">
        <ele>266.6</ele>
        <time>2024-04-28T07:20:50Z</time>
      </trkpt>
      <trkpt lat="49.99162" lon="4.17457">
        <ele>266.6</ele>
        <time>2024-04-28T07:20:51Z</time>
      </trkpt>
      <trkpt lat="49.99167" lon="4.1745">
        <ele>267</ele>
        <time>2024-04-28T07:20:52Z</time>
      </trkpt>
      <trkpt lat="49.99171" lon="4.17443">
        <ele>267</ele>
        <time>2024-04-28T07:20:53Z</time>
      </trkpt>
      <trkpt lat="49.99176" lon="4.17436">
        <ele>267.4</ele>
        <time>2024-04-28T07:20:54Z</time>
      </trkpt>
      <trkpt lat="49.99181" lon="4.17428">
        <ele>267.6</ele>
        <time>2024-04-28T07:20:55Z</time>
      </trkpt>
      <trkpt lat="49.99186" lon="4.1742">
        <ele>267.8</ele>
        <time>2024-04-28T07:20:56Z</time>
      </trkpt>
      <trkpt lat="49.99192" lon="4.17411">
        <ele>268</ele>
        <time>2024-04-28T07:20:57Z</time>
      </trkpt>
      <trkpt lat="49.99197" lon="4.17403">
        <ele>268.2</ele>
        <time>2024-04-28T07:20:58Z</time>
      </trkpt>
      <trkpt lat="49.99203" lon="4.17394">
        <ele>268.2</ele>
        <time>2024-04-28T07:20:59Z</time>
      </trkpt>
      <trkpt lat="49.99209" lon="4.17385">
        <ele>268.6</ele>
        <time>2024-04-28T07:21:00Z</time>
      </trkpt>
      <trkpt lat="49.99215" lon="4.17375">
        <ele>268.8</ele>
        <time>2024-04-28T07:21:01Z</time>
      </trkpt>
      <trkpt lat="49.99221" lon="4.17366">
        <ele>269</ele>
        <time>2024-04-28T07:21:02Z</time>
      </trkpt>
      <trkpt lat="49.99227" lon="4.17356">
        <ele>269</ele>
        <time>2024-04-28T07:21:03Z</time>
      </trkpt>
      <trkpt lat="49.99234" lon="4.17346">
        <ele>269.2</ele>
        <time>2024-04-28T07:21:04Z</time>
      </trkpt>
      <trkpt lat="49.9924" lon="4.17335">
        <ele>269</ele>
        <time>2024-04-28T07:21:05Z</time>
      </trkpt>
      <trkpt lat="49.99247" lon="4.17325">
        <ele>269</ele>
        <time>2024-04-28T07:21:06Z</time>
      </trkpt>
      <trkpt lat="49.99253" lon="4.17315">
        <ele>269.2</ele>
        <time>2024-04-28T07:21:07Z</time>
      </trkpt>
      <trkpt lat="49.9926" lon="4.17305">
        <ele>269.2</ele>
        <time>2024-04-28T07:21:08Z</time>
      </trkpt>
      <trkpt lat="49.99267" lon="4.17294">
        <ele>269</ele>
        <time>2024-04-28T07:21:09Z</time>
      </trkpt>
      <trkpt lat="49.99274" lon="4.17283">
        <ele>268.8</ele>
        <time>2024-04-28T07:21:10Z</time>
      </trkpt>
      <trkpt lat="49.99281" lon="4.17272">
        <ele>268.8</ele>
        <time>2024-04-28T07:21:11Z</time>
      </trkpt>
      <trkpt lat="49.99288" lon="4.17261">
        <ele>268.2</ele>
        <time>2024-04-28T07:21:12Z</time>
      </trkpt>
      <trkpt lat="49.99295" lon="4.1725">
        <ele>268.2</ele>
        <time>2024-04-28T07:21:13Z</time>
      </trkpt>
      <trkpt lat="49.99302" lon="4.1724">
        <ele>267.8</ele>
        <time>2024-04-28T07:21:14Z</time>
      </trkpt>
      <trkpt lat="49.99309" lon="4.17229">
        <ele>267.6</ele>
        <time>2024-04-28T07:21:15Z</time>
      </trkpt>
      <trkpt lat="49.99315" lon="4.17219">
        <ele>267</ele>
        <time>2024-04-28T07:21:16Z</time>
      </trkpt>
      <trkpt lat="49.99322" lon="4.17209">
        <ele>267</ele>
        <time>2024-04-28T07:21:17Z</time>
      </trkpt>
      <trkpt lat="49.99328" lon="4.17199">
        <ele>266.8</ele>
        <time>2024-04-28T07:21:18Z</time>
      </trkpt>
      <trkpt lat="49.99334" lon="4.17189">
        <ele>266.6</ele>
        <time>2024-04-28T07:21:19Z</time>
      </trkpt>
      <trkpt lat="49.99341" lon="4.17179">
        <ele>266.6</ele>
        <time>2024-04-28T07:21:20Z</time>
      </trkpt>
      <trkpt lat="49.99347" lon="4.1717">
        <ele>266.6</ele>
        <time>2024-04-28T07:21:21Z</time>
      </trkpt>
      <trkpt lat="49.99353" lon="4.17162">
        <ele>266.6</ele>
        <time>2024-04-28T07:21:22Z</time>
      </trkpt>
      <trkpt lat="49.99358" lon="4.17153">
        <ele>266.8</ele>
        <time>2024-04-28T07:21:23Z</time>
      </trkpt>
      <trkpt lat="49.99364" lon="4.17144">
        <ele>266.6</ele>
        <time>2024-04-28T07:21:24Z</time>
      </trkpt>
      <trkpt lat="49.9937" lon="4.17134">
        <ele>266.6</ele>
        <time>2024-04-28T07:21:25Z</time>
      </trkpt>
      <trkpt lat="49.99375" lon="4.17125">
        <ele>266.8</ele>
        <time>2024-04-28T07:21:26Z</time>
      </trkpt>
      <trkpt lat="49.99381" lon="4.17116">
        <ele>266.6</ele>
        <time>2024-04-28T07:21:27Z</time>
      </trkpt>
      <trkpt lat="49.99386" lon="4.17106">
        <ele>266.8</ele>
        <time>2024-04-28T07:21:28Z</time>
      </trkpt>
      <trkpt lat="49.99392" lon="4.17097">
        <ele>267</ele>
        <time>2024-04-28T07:21:29Z</time>
      </trkpt>
      <trkpt lat="49.99398" lon="4.17088">
        <ele>267.4</ele>
        <time>2024-04-28T07:21:30Z</time>
      </trkpt>
      <trkpt lat="49.99404" lon="4.17078">
        <ele>267.6</ele>
        <time>2024-04-28T07:21:31Z</time>
      </trkpt>
      <trkpt lat="49.9941" lon="4.17069">
        <ele>267.8</ele>
        <time>2024-04-28T07:21:32Z</time>
      </trkpt>
      <trkpt lat="49.99415" lon="4.17059">
        <ele>268.2</ele>
        <time>2024-04-28T07:21:33Z</time>
      </trkpt>
      <trkpt lat="49.99422" lon="4.17049">
        <ele>268.6</ele>
        <time>2024-04-28T07:21:34Z</time>
      </trkpt>
      <trkpt lat="49.99428" lon="4.17039">
        <ele>268.6</ele>
        <time>2024-04-28T07:21:35Z</time>
      </trkpt>
      <trkpt lat="49.99434" lon="4.17029">
        <ele>268.8</ele>
        <time>2024-04-28T07:21:36Z</time>
      </trkpt>
      <trkpt lat="49.9944" lon="4.1702">
        <ele>268.8</ele>
        <time>2024-04-28T07:21:37Z</time>
      </trkpt>
      <trkpt lat="49.99447" lon="4.17009">
        <ele>268.8</ele>
        <time>2024-04-28T07:21:38Z</time>
      </trkpt>
      <trkpt lat="49.99454" lon="4.16999">
        <ele>269</ele>
        <time>2024-04-28T07:21:39Z</time>
      </trkpt>
      <trkpt lat="49.99461" lon="4.16988">
        <ele>269</ele>
        <time>2024-04-28T07:21:40Z</time>
      </trkpt>
      <trkpt lat="49.99467" lon="4.16977">
        <ele>269.2</ele>
        <time>2024-04-28T07:21:41Z</time>
      </trkpt>
      <trkpt lat="49.99474" lon="4.16966">
        <ele>269.2</ele>
        <time>2024-04-28T07:21:42Z</time>
      </trkpt>
      <trkpt lat="49.99481" lon="4.16955">
        <ele>269.2</ele>
        <time>2024-04-28T07:21:43Z</time>
      </trkpt>
      <trkpt lat="49.99488" lon="4.16944">
        <ele>269</ele>
        <time>2024-04-28T07:21:44Z</time>
      </trkpt>
      <trkpt lat="49.99496" lon="4.16933">
        <ele>269.2</ele>
        <time>2024-04-28T07:21:45Z</time>
      </trkpt>
      <trkpt lat="49.99503" lon="4.16922">
        <ele>269.2</ele>
        <time>2024-04-28T07:21:46Z</time>
      </trkpt>
      <trkpt lat="49.9951" lon="4.16911">
        <ele>268.8</ele>
        <time>2024-04-28T07:21:47Z</time>
      </trkpt>
      <trkpt lat="49.99517" lon="4.169">
        <ele>268.8</ele>
        <time>2024-04-28T07:21:48Z</time>
      </trkpt>
      <trkpt lat="49.99523" lon="4.16889">
        <ele>268.6</ele>
        <time>2024-04-28T07:21:49Z</time>
      </trkpt>
      <trkpt lat="49.9953" lon="4.16879">
        <ele>268</ele>
        <time>2024-04-28T07:21:50Z</time>
      </trkpt>
      <trkpt lat="49.99536" lon="4.16869">
        <ele>267.8</ele>
        <time>2024-04-28T07:21:51Z</time>
      </trkpt>
      <trkpt lat="49.99542" lon="4.16859">
        <ele>267.4</ele>
        <time>2024-04-28T07:21:52Z</time>
      </trkpt>
      <trkpt lat="49.99549" lon="4.1685">
        <ele>267.4</ele>
        <time>2024-04-28T07:21:53Z</time>
      </trkpt>
      <trkpt lat="49.99555" lon="4.16841">
        <ele>267.2</ele>
        <time>2024-04-28T07:21:54Z</time>
      </trkpt>
      <trkpt lat="49.99561" lon="4.16832">
        <ele>267.2</ele>
        <time>2024-04-28T07:21:55Z</time>
      </trkpt>
      <trkpt lat="49.99566" lon="4.16823">
        <ele>266.8</ele>
        <time>2024-04-28T07:21:56Z</time>
      </trkpt>
      <trkpt lat="49.99572" lon="4.16815">
        <ele>266.4</ele>
        <time>2024-04-28T07:21:57Z</time>
      </trkpt>
      <trkpt lat="49.99578" lon="4.16806">
        <ele>266.2</ele>
        <time>2024-04-28T07:21:58Z</time>
      </trkpt>
      <trkpt lat="49.99583" lon="4.16798">
        <ele>266</ele>
        <time>2024-04-28T07:21:59Z</time>
      </trkpt>
      <trkpt lat="49.99589" lon="4.16791">
        <ele>265.8</ele>
        <time>2024-04-28T07:22:00Z</time>
      </trkpt>
      <trkpt lat="49.99593" lon="4.16784">
        <ele>265.8</ele>
        <time>2024-04-28T07:22:01Z</time>
      </trkpt>
      <trkpt lat="49.99598" lon="4.16778">
        <ele>265.6</ele>
        <time>2024-04-28T07:22:02Z</time>
      </trkpt>
      <trkpt lat="49.99602" lon="4.16772">
        <ele>265.6</ele>
        <time>2024-04-28T07:22:03Z</time>
      </trkpt>
      <trkpt lat="49.99603" lon="4.16766">
        <ele>265.4</ele>
        <time>2024-04-28T07:22:04Z</time>
      </trkpt>
      <trkpt lat="49.99601" lon="4.1676">
        <ele>265.4</ele>
        <time>2024-04-28T07:22:05Z</time>
      </trkpt>
      <trkpt lat="49.99597" lon="4.16753">
        <ele>265.2</ele>
        <time>2024-04-28T07:22:06Z</time>
      </trkpt>
      <trkpt lat="49.99592" lon="4.16748">
        <ele>265</ele>
        <time>2024-04-28T07:22:07Z</time>
      </trkpt>
      <trkpt lat="49.99586" lon="4.16743">
        <ele>265</ele>
        <time>2024-04-28T07:22:08Z</time>
      </trkpt>
      <trkpt lat="49.99579" lon="4.16739">
        <ele>265</ele>
        <time>2024-04-28T07:22:09Z</time>
      </trkpt>
      <trkpt lat="49.99573" lon="4.16735">
        <ele>264.6</ele>
        <time>2024-04-28T07:22:10Z</time>
      </trkpt>
      <trkpt lat="49.99566" lon="4.16731">
        <ele>264.4</ele>
        <time>2024-04-28T07:22:11Z</time>
      </trkpt>
      <trkpt lat="49.99559" lon="4.16728">
        <ele>264.2</ele>
        <time>2024-04-28T07:22:12Z</time>
      </trkpt>
      <trkpt lat="49.99552" lon="4.16724">
        <ele>264.2</ele>
        <time>2024-04-28T07:22:13Z</time>
      </trkpt>
      <trkpt lat="49.99545" lon="4.1672">
        <ele>264</ele>
        <time>2024-04-28T07:22:14Z</time>
      </trkpt>
      <trkpt lat="49.99538" lon="4.16716">
        <ele>263.8</ele>
        <time>2024-04-28T07:22:15Z</time>
      </trkpt>
      <trkpt lat="49.9953" lon="4.16712">
        <ele>263.8</ele>
        <time>2024-04-28T07:22:16Z</time>
      </trkpt>
      <trkpt lat="49.99523" lon="4.16708">
        <ele>263.6</ele>
        <time>2024-04-28T07:22:17Z</time>
      </trkpt>
      <trkpt lat="49.99516" lon="4.16705">
        <ele>263</ele>
        <time>2024-04-28T07:22:18Z</time>
      </trkpt>
      <trkpt lat="49.99508" lon="4.16701">
        <ele>263</ele>
        <time>2024-04-28T07:22:19Z</time>
      </trkpt>
      <trkpt lat="49.99501" lon="4.16698">
        <ele>262.6</ele>
        <time>2024-04-28T07:22:20Z</time>
      </trkpt>
      <trkpt lat="49.99494" lon="4.16694">
        <ele>262.6</ele>
        <time>2024-04-28T07:22:21Z</time>
      </trkpt>
      <trkpt lat="49.99487" lon="4.1669">
        <ele>262.4</ele>
        <time>2024-04-28T07:22:22Z</time>
      </trkpt>
      <trkpt lat="49.99479" lon="4.16686">
        <ele>262.2</ele>
        <time>2024-04-28T07:22:23Z</time>
      </trkpt>
      <trkpt lat="49.99472" lon="4.16683">
        <ele>262.2</ele>
        <time>2024-04-28T07:22:24Z</time>
      </trkpt>
      <trkpt lat="49.99465" lon="4.16679">
        <ele>262.2</ele>
        <time>2024-04-28T07:22:25Z</time>
      </trkpt>
      <trkpt lat="49.99458" lon="4.16675">
        <ele>262</ele>
        <time>2024-04-28T07:22:26Z</time>
      </trkpt>
      <trkpt lat="49.99452" lon="4.16672">
        <ele>262</ele>
        <time>2024-04-28T07:22:27Z</time>
      </trkpt>
      <trkpt lat="49.99445" lon="4.16668">
        <ele>262.2</ele>
        <time>2024-04-28T07:22:28Z</time>
      </trkpt>
      <trkpt lat="49.99439" lon="4.16665">
        <ele>262.2</ele>
        <time>2024-04-28T07:22:29Z</time>
      </trkpt>
      <trkpt lat="49.99432" lon="4.16662">
        <ele>262.2</ele>
        <time>2024-04-28T07:22:30Z</time>
      </trkpt>
      <trkpt lat="49.99426" lon="4.16658">
        <ele>262.2</ele>
        <time>2024-04-28T07:22:31Z</time>
      </trkpt>
      <trkpt lat="49.99419" lon="4.16655">
        <ele>262.2</ele>
        <time>2024-04-28T07:22:32Z</time>
      </trkpt>
      <trkpt lat="49.99413" lon="4.16652">
        <ele>262.2</ele>
        <time>2024-04-28T07:22:33Z</time>
      </trkpt>
      <trkpt lat="49.99406" lon="4.16648">
        <ele>263</ele>
        <time>2024-04-28T07:22:34Z</time>
      </trkpt>
      <trkpt lat="49.99399" lon="4.16645">
        <ele>263.2</ele>
        <time>2024-04-28T07:22:35Z</time>
      </trkpt>
      <trkpt lat="49.99393" lon="4.16642">
        <ele>263.6</ele>
        <time>2024-04-28T07:22:36Z</time>
      </trkpt>
      <trkpt lat="49.99386" lon="4.16638">
        <ele>263.6</ele>
        <time>2024-04-28T07:22:37Z</time>
      </trkpt>
      <trkpt lat="49.99379" lon="4.16635">
        <ele>263.8</ele>
        <time>2024-04-28T07:22:38Z</time>
      </trkpt>
      <trkpt lat="49.99373" lon="4.16632">
        <ele>263.8</ele>
        <time>2024-04-28T07:22:39Z</time>
      </trkpt>
      <trkpt lat="49.99366" lon="4.16628">
        <ele>264</ele>
        <time>2024-04-28T07:22:40Z</time>
      </trkpt>
      <trkpt lat="49.9936" lon="4.16625">
        <ele>264</ele>
        <time>2024-04-28T07:22:41Z</time>
      </trkpt>
      <trkpt lat="49.99353" lon="4.16622">
        <ele>264</ele>
        <time>2024-04-28T07:22:42Z</time>
      </trkpt>
      <trkpt lat="49.99347" lon="4.16619">
        <ele>264.6</ele>
        <time>2024-04-28T07:22:43Z</time>
      </trkpt>
      <trkpt lat="49.9934" lon="4.16615">
        <ele>264.6</ele>
        <time>2024-04-28T07:22:44Z</time>
      </trkpt>
      <trkpt lat="49.99334" lon="4.16612">
        <ele>264.8</ele>
        <time>2024-04-28T07:22:45Z</time>
      </trkpt>
      <trkpt lat="49.99327" lon="4.16608">
        <ele>264.8</ele>
        <time>2024-04-28T07:22:46Z</time>
      </trkpt>
      <trkpt lat="49.9932" lon="4.16605">
        <ele>264.8</ele>
        <time>2024-04-28T07:22:47Z</time>
      </trkpt>
      <trkpt lat="49.99314" lon="4.16602">
        <ele>265.2</ele>
        <time>2024-04-28T07:22:48Z</time>
      </trkpt>
      <trkpt lat="49.99307" lon="4.16599">
        <ele>265.4</ele>
        <time>2024-04-28T07:22:49Z</time>
      </trkpt>
      <trkpt lat="49.993" lon="4.16595">
        <ele>265.8</ele>
        <time>2024-04-28T07:22:50Z</time>
      </trkpt>
      <trkpt lat="49.99294" lon="4.16591">
        <ele>265.8</ele>
        <time>2024-04-28T07:22:51Z</time>
      </trkpt>
      <trkpt lat="49.99287" lon="4.16587">
        <ele>266.2</ele>
        <time>2024-04-28T07:22:52Z</time>
      </trkpt>
      <trkpt lat="49.9928" lon="4.16583">
        <ele>266</ele>
        <time>2024-04-28T07:22:53Z</time>
      </trkpt>
      <trkpt lat="49.99273" lon="4.16579">
        <ele>266.4</ele>
        <time>2024-04-28T07:22:54Z</time>
      </trkpt>
      <trkpt lat="49.99266" lon="4.16575">
        <ele>266.6</ele>
        <time>2024-04-28T07:22:55Z</time>
      </trkpt>
      <trkpt lat="49.9926" lon="4.1657">
        <ele>266.8</ele>
        <time>2024-04-28T07:22:56Z</time>
      </trkpt>
      <trkpt lat="49.99253" lon="4.16566">
        <ele>266.8</ele>
        <time>2024-04-28T07:22:57Z</time>
      </trkpt>
      <trkpt lat="49.99246" lon="4.16561">
        <ele>266.8</ele>
        <time>2024-04-28T07:22:58Z</time>
      </trkpt>
      <trkpt lat="49.99239" lon="4.16557">
        <ele>266.8</ele>
        <time>2024-04-28T07:22:59Z</time>
      </trkpt>
      <trkpt lat="49.99233" lon="4.16553">
        <ele>267</ele>
        <time>2024-04-28T07:23:00Z</time>
      </trkpt>
      <trkpt lat="49.99226" lon="4.16548">
        <ele>267</ele>
        <time>2024-04-28T07:23:01Z</time>
      </trkpt>
      <trkpt lat="49.9922" lon="4.16544">
        <ele>267</ele>
        <time>2024-04-28T07:23:02Z</time>
      </trkpt>
      <trkpt lat="49.99214" lon="4.1654">
        <ele>267</ele>
        <time>2024-04-28T07:23:03Z</time>
      </trkpt>
      <trkpt lat="49.99208" lon="4.16536">
        <ele>267.2</ele>
        <time>2024-04-28T07:23:04Z</time>
      </trkpt>
      <trkpt lat="49.99202" lon="4.16532">
        <ele>267.2</ele>
        <time>2024-04-28T07:23:05Z</time>
      </trkpt>
      <trkpt lat="49.99197" lon="4.16529">
        <ele>267</ele>
        <time>2024-04-28T07:23:06Z</time>
      </trkpt>
      <trkpt lat="49.99191" lon="4.16526">
        <ele>267</ele>
        <time>2024-04-28T07:23:07Z</time>
      </trkpt>
      <trkpt lat="49.99186" lon="4.16522">
        <ele>266.8</ele>
        <time>2024-04-28T07:23:08Z</time>
      </trkpt>
      <trkpt lat="49.9918" lon="4.16519">
        <ele>266.8</ele>
        <time>2024-04-28T07:23:09Z</time>
      </trkpt>
      <trkpt lat="49.99175" lon="4.16515">
        <ele>266.8</ele>
        <time>2024-04-28T07:23:10Z</time>
      </trkpt>
      <trkpt lat="49.99169" lon="4.16512">
        <ele>266.8</ele>
        <time>2024-04-28T07:23:11Z</time>
      </trkpt>
      <trkpt lat="49.99163" lon="4.16508">
        <ele>266.8</ele>
        <time>2024-04-28T07:23:12Z</time>
      </trkpt>
      <trkpt lat="49.99157" lon="4.16504">
        <ele>266.6</ele>
        <time>2024-04-28T07:23:13Z</time>
      </trkpt>
      <trkpt lat="49.9915" lon="4.165">
        <ele>266.6</ele>
        <time>2024-04-28T07:23:14Z</time>
      </trkpt>
      <trkpt lat="49.99143" lon="4.16496">
        <ele>266.4</ele>
        <time>2024-04-28T07:23:15Z</time>
      </trkpt>
      <trkpt lat="49.99136" lon="4.16491">
        <ele>266</ele>
        <time>2024-04-28T07:23:16Z</time>
      </trkpt>
      <trkpt lat="49.99129" lon="4.16486">
        <ele>265.6</ele>
        <time>2024-04-28T07:23:17Z</time>
      </trkpt>
      <trkpt lat="49.99121" lon="4.1648">
        <ele>265.4</ele>
        <time>2024-04-28T07:23:18Z</time>
      </trkpt>
      <trkpt lat="49.99114" lon="4.16475">
        <ele>265</ele>
        <time>2024-04-28T07:23:19Z</time>
      </trkpt>
      <trkpt lat="49.99107" lon="4.1647">
        <ele>264.6</ele>
        <time>2024-04-28T07:23:20Z</time>
      </trkpt>
      <trkpt lat="49.991" lon="4.16464">
        <ele>264.4</ele>
        <time>2024-04-28T07:23:21Z</time>
      </trkpt>
      <trkpt lat="49.99092" lon="4.16459">
        <ele>263.8</ele>
        <time>2024-04-28T07:23:22Z</time>
      </trkpt>
      <trkpt lat="49.99084" lon="4.16454">
        <ele>263.6</ele>
        <time>2024-04-28T07:23:23Z</time>
      </trkpt>
      <trkpt lat="49.99077" lon="4.16448">
        <ele>263</ele>
        <time>2024-04-28T07:23:24Z</time>
      </trkpt>
      <trkpt lat="49.99069" lon="4.16443">
        <ele>263</ele>
        <time>2024-04-28T07:23:25Z</time>
      </trkpt>
      <trkpt lat="49.99062" lon="4.16437">
        <ele>262.8</ele>
        <time>2024-04-28T07:23:26Z</time>
      </trkpt>
      <trkpt lat="49.99054" lon="4.1643">
        <ele>262.6</ele>
        <time>2024-04-28T07:23:27Z</time>
      </trkpt>
      <trkpt lat="49.99047" lon="4.16421">
        <ele>262.4</ele>
        <time>2024-04-28T07:23:28Z</time>
      </trkpt>
      <trkpt lat="49.99041" lon="4.16412">
        <ele>262.4</ele>
        <time>2024-04-28T07:23:29Z</time>
      </trkpt>
      <trkpt lat="49.99035" lon="4.16402">
        <ele>262.4</ele>
        <time>2024-04-28T07:23:30Z</time>
      </trkpt>
      <trkpt lat="49.99028" lon="4.16391">
        <ele>262.4</ele>
        <time>2024-04-28T07:23:31Z</time>
      </trkpt>
      <trkpt lat="49.99023" lon="4.16381">
        <ele>262.4</ele>
        <time>2024-04-28T07:23:32Z</time>
      </trkpt>
      <trkpt lat="49.99017" lon="4.16371">
        <ele>262.2</ele>
        <time>2024-04-28T07:23:33Z</time>
      </trkpt>
      <trkpt lat="49.99012" lon="4.1636">
        <ele>262.2</ele>
        <time>2024-04-28T07:23:34Z</time>
      </trkpt>
      <trkpt lat="49.99007" lon="4.16349">
        <ele>262.4</ele>
        <time>2024-04-28T07:23:35Z</time>
      </trkpt>
      <trkpt lat="49.99001" lon="4.16338">
        <ele>262.2</ele>
        <time>2024-04-28T07:23:36Z</time>
      </trkpt>
      <trkpt lat="49.98995" lon="4.16328">
        <ele>262.2</ele>
        <time>2024-04-28T07:23:37Z</time>
      </trkpt>
      <trkpt lat="49.98989" lon="4.16316">
        <ele>262</ele>
        <time>2024-04-28T07:23:38Z</time>
      </trkpt>
      <trkpt lat="49.98984" lon="4.16305">
        <ele>261.8</ele>
        <time>2024-04-28T07:23:39Z</time>
      </trkpt>
      <trkpt lat="49.98978" lon="4.16294">
        <ele>261.8</ele>
        <time>2024-04-28T07:23:40Z</time>
      </trkpt>
      <trkpt lat="49.98972" lon="4.16283">
        <ele>261.8</ele>
        <time>2024-04-28T07:23:41Z</time>
      </trkpt>
      <trkpt lat="49.98966" lon="4.16273">
        <ele>261.8</ele>
        <time>2024-04-28T07:23:42Z</time>
      </trkpt>
      <trkpt lat="49.98961" lon="4.16262">
        <ele>261.6</ele>
        <time>2024-04-28T07:23:43Z</time>
      </trkpt>
      <trkpt lat="49.98956" lon="4.16252">
        <ele>261.6</ele>
        <time>2024-04-28T07:23:44Z</time>
      </trkpt>
      <trkpt lat="49.98952" lon="4.16241">
        <ele>261</ele>
        <time>2024-04-28T07:23:45Z</time>
      </trkpt>
      <trkpt lat="49.9895" lon="4.1623">
        <ele>261</ele>
        <time>2024-04-28T07:23:46Z</time>
      </trkpt>
      <trkpt lat="49.9895" lon="4.16217">
        <ele>261</ele>
        <time>2024-04-28T07:23:47Z</time>
      </trkpt>
      <trkpt lat="49.98952" lon="4.16205">
        <ele>260.6</ele>
        <time>2024-04-28T07:23:48Z</time>
      </trkpt>
      <trkpt lat="49.98955" lon="4.16193">
        <ele>260.4</ele>
        <time>2024-04-28T07:23:49Z</time>
      </trkpt>
      <trkpt lat="49.98959" lon="4.1618">
        <ele>260.2</ele>
        <time>2024-04-28T07:23:50Z</time>
      </trkpt>
      <trkpt lat="49.98963" lon="4.16168">
        <ele>260.2</ele>
        <time>2024-04-28T07:23:51Z</time>
      </trkpt>
      <trkpt lat="49.98966" lon="4.16155">
        <ele>260.2</ele>
        <time>2024-04-28T07:23:52Z</time>
      </trkpt>
      <trkpt lat="49.9897" lon="4.16142">
        <ele>260.2</ele>
        <time>2024-04-28T07:23:53Z</time>
      </trkpt>
      <trkpt lat="49.98974" lon="4.16129">
        <ele>260.2</ele>
        <time>2024-04-28T07:23:54Z</time>
      </trkpt>
      <trkpt lat="49.98978" lon="4.16116">
        <ele>260.2</ele>
        <time>2024-04-28T07:23:55Z</time>
      </trkpt>
      <trkpt lat="49.98981" lon="4.16103">
        <ele>260.2</ele>
        <time>2024-04-28T07:23:56Z</time>
      </trkpt>
      <trkpt lat="49.98985" lon="4.1609">
        <ele>260.2</ele>
        <time>2024-04-28T07:23:57Z</time>
      </trkpt>
      <trkpt lat="49.98989" lon="4.16078">
        <ele>260.4</ele>
        <time>2024-04-28T07:23:58Z</time>
      </trkpt>
      <trkpt lat="49.98992" lon="4.16066">
        <ele>260</ele>
        <time>2024-04-28T07:23:59Z</time>
      </trkpt>
      <trkpt lat="49.98995" lon="4.16054">
        <ele>260</ele>
        <time>2024-04-28T07:24:00Z</time>
      </trkpt>
      <trkpt lat="49.98998" lon="4.16041">
        <ele>260.2</ele>
        <time>2024-04-28T07:24:01Z</time>
      </trkpt>
      <trkpt lat="49.99001" lon="4.16029">
        <ele>260.2</ele>
        <time>2024-04-28T07:24:02Z</time>
      </trkpt>
      <trkpt lat="49.99004" lon="4.16017">
        <ele>260.2</ele>
        <time>2024-04-28T07:24:03Z</time>
      </trkpt>
      <trkpt lat="49.99007" lon="4.16005">
        <ele>260</ele>
        <time>2024-04-28T07:24:04Z</time>
      </trkpt>
      <trkpt lat="49.9901" lon="4.15993">
        <ele>260</ele>
        <time>2024-04-28T07:24:05Z</time>
      </trkpt>
      <trkpt lat="49.99013" lon="4.1598">
        <ele>260</ele>
        <time>2024-04-28T07:24:06Z</time>
      </trkpt>
      <trkpt lat="49.99015" lon="4.15967">
        <ele>260</ele>
        <time>2024-04-28T07:24:07Z</time>
      </trkpt>
      <trkpt lat="49.99016" lon="4.15954">
        <ele>260</ele>
        <time>2024-04-28T07:24:08Z</time>
      </trkpt>
      <trkpt lat="49.99016" lon="4.15941">
        <ele>260</ele>
        <time>2024-04-28T07:24:09Z</time>
      </trkpt>
      <trkpt lat="49.99016" lon="4.15927">
        <ele>259.8</ele>
        <time>2024-04-28T07:24:10Z</time>
      </trkpt>
      <trkpt lat="49.99015" lon="4.15913">
        <ele>259.6</ele>
        <time>2024-04-28T07:24:11Z</time>
      </trkpt>
      <trkpt lat="49.99014" lon="4.15898">
        <ele>259.4</ele>
        <time>2024-04-28T07:24:12Z</time>
      </trkpt>
      <trkpt lat="49.99012" lon="4.15883">
        <ele>258.2</ele>
        <time>2024-04-28T07:24:13Z</time>
      </trkpt>
      <trkpt lat="49.99009" lon="4.15869">
        <ele>257.4</ele>
        <time>2024-04-28T07:24:14Z</time>
      </trkpt>
      <trkpt lat="49.99006" lon="4.15854">
        <ele>256.8</ele>
        <time>2024-04-28T07:24:15Z</time>
      </trkpt>
      <trkpt lat="49.99002" lon="4.15839">
        <ele>256.8</ele>
        <time>2024-04-28T07:24:16Z</time>
      </trkpt>
      <trkpt lat="49.98998" lon="4.15825">
        <ele>256</ele>
        <time>2024-04-28T07:24:17Z</time>
      </trkpt>
      <trkpt lat="49.98993" lon="4.15812">
        <ele>255.6</ele>
        <time>2024-04-28T07:24:18Z</time>
      </trkpt>
      <trkpt lat="49.98988" lon="4.15799">
        <ele>255.4</ele>
        <time>2024-04-28T07:24:19Z</time>
      </trkpt>
      <trkpt lat="49.98982" lon="4.15787">
        <ele>255.2</ele>
        <time>2024-04-28T07:24:20Z</time>
      </trkpt>
      <trkpt lat="49.98976" lon="4.15775">
        <ele>254</ele>
        <time>2024-04-28T07:24:21Z</time>
      </trkpt>
      <trkpt lat="49.98969" lon="4.15763">
        <ele>253.2</ele>
        <time>2024-04-28T07:24:22Z</time>
      </trkpt>
      <trkpt lat="49.98963" lon="4.1575">
        <ele>252.6</ele>
        <time>2024-04-28T07:24:23Z</time>
      </trkpt>
      <trkpt lat="49.98957" lon="4.15737">
        <ele>252.2</ele>
        <time>2024-04-28T07:24:24Z</time>
      </trkpt>
      <trkpt lat="49.98951" lon="4.15723">
        <ele>251.6</ele>
        <time>2024-04-28T07:24:25Z</time>
      </trkpt>
      <trkpt lat="49.98947" lon="4.15709">
        <ele>251.2</ele>
        <time>2024-04-28T07:24:26Z</time>
      </trkpt>
      <trkpt lat="49.98943" lon="4.15694">
        <ele>251</ele>
        <time>2024-04-28T07:24:27Z</time>
      </trkpt>
      <trkpt lat="49.98941" lon="4.15679">
        <ele>250.6</ele>
        <time>2024-04-28T07:24:28Z</time>
      </trkpt>
      <trkpt lat="49.98938" lon="4.15665">
        <ele>250</ele>
        <time>2024-04-28T07:24:29Z</time>
      </trkpt>
      <trkpt lat="49.98937" lon="4.15651">
        <ele>249.8</ele>
        <time>2024-04-28T07:24:30Z</time>
      </trkpt>
      <trkpt lat="49.98935" lon="4.15638">
        <ele>249.6</ele>
        <time>2024-04-28T07:24:31Z</time>
      </trkpt>
      <trkpt lat="49.98934" lon="4.15624">
        <ele>249.4</ele>
        <time>2024-04-28T07:24:32Z</time>
      </trkpt>
      <trkpt lat="49.98933" lon="4.15611">
        <ele>249.4</ele>
        <time>2024-04-28T07:24:33Z</time>
      </trkpt>
      <trkpt lat="49.98933" lon="4.15598">
        <ele>249.4</ele>
        <time>2024-04-28T07:24:34Z</time>
      </trkpt>
      <trkpt lat="49.98932" lon="4.15585">
        <ele>249.6</ele>
        <time>2024-04-28T07:24:35Z</time>
      </trkpt>
      <trkpt lat="49.98931" lon="4.15572">
        <ele>249.4</ele>
        <time>2024-04-28T07:24:36Z</time>
      </trkpt>
      <trkpt lat="49.98931" lon="4.1556">
        <ele>249.6</ele>
        <time>2024-04-28T07:24:37Z</time>
      </trkpt>
      <trkpt lat="49.9893" lon="4.15548">
        <ele>249.6</ele>
        <time>2024-04-28T07:24:38Z</time>
      </trkpt>
      <trkpt lat="49.98929" lon="4.15536">
        <ele>249.4</ele>
        <time>2024-04-28T07:24:39Z</time>
      </trkpt>
      <trkpt lat="49.98928" lon="4.15524">
        <ele>249.8</ele>
        <time>2024-04-28T07:24:40Z</time>
      </trkpt>
      <trkpt lat="49.98928" lon="4.15513">
        <ele>250.6</ele>
        <time>2024-04-28T07:24:41Z</time>
      </trkpt>
      <trkpt lat="49.98927" lon="4.15502">
        <ele>251</ele>
        <time>2024-04-28T07:24:42Z</time>
      </trkpt>
      <trkpt lat="49.98925" lon="4.15491">
        <ele>251.2</ele>
        <time>2024-04-28T07:24:43Z</time>
      </trkpt>
      <trkpt lat="49.98924" lon="4.1548">
        <ele>251.4</ele>
        <time>2024-04-28T07:24:44Z</time>
      </trkpt>
      <trkpt lat="49.98923" lon="4.15469">
        <ele>251.6</ele>
        <time>2024-04-28T07:24:45Z</time>
      </trkpt>
      <trkpt lat="49.98921" lon="4.15459">
        <ele>252</ele>
        <time>2024-04-28T07:24:46Z</time>
      </trkpt>
      <trkpt lat="49.9892" lon="4.15449">
        <ele>252.4</ele>
        <time>2024-04-28T07:24:47Z</time>
      </trkpt>
      <trkpt lat="49.98919" lon="4.15438">
        <ele>252.8</ele>
        <time>2024-04-28T07:24:48Z</time>
      </trkpt>
      <trkpt lat="49.98917" lon="4.15428">
        <ele>253.2</ele>
        <time>2024-04-28T07:24:49Z</time>
      </trkpt>
      <trkpt lat="49.98916" lon="4.15418">
        <ele>253.2</ele>
        <time>2024-04-28T07:24:50Z</time>
      </trkpt>
      <trkpt lat="49.98915" lon="4.15408">
        <ele>253.8</ele>
        <time>2024-04-28T07:24:51Z</time>
      </trkpt>
      <trkpt lat="49.98913" lon="4.15398">
        <ele>254.2</ele>
        <time>2024-04-28T07:24:52Z</time>
      </trkpt>
      <trkpt lat="49.98912" lon="4.15387">
        <ele>254.4</ele>
        <time>2024-04-28T07:24:53Z</time>
      </trkpt>
      <trkpt lat="49.98911" lon="4.15377">
        <ele>254.8</ele>
        <time>2024-04-28T07:24:54Z</time>
      </trkpt>
      <trkpt lat="49.98909" lon="4.15366">
        <ele>255</ele>
        <time>2024-04-28T07:24:55Z</time>
      </trkpt>
      <trkpt lat="49.98908" lon="4.15355">
        <ele>255</ele>
        <time>2024-04-28T07:24:56Z</time>
      </trkpt>
      <trkpt lat="49.98906" lon="4.15344">
        <ele>255.4</ele>
        <time>2024-04-28T07:24:57Z</time>
      </trkpt>
      <trkpt lat="49.98904" lon="4.15333">
        <ele>255.6</ele>
        <time>2024-04-28T07:24:58Z</time>
      </trkpt>
      <trkpt lat="49.98903" lon="4.15322">
        <ele>255.8</ele>
        <time>2024-04-28T07:24:59Z</time>
      </trkpt>
      <trkpt lat="49.98901" lon="4.15311">
        <ele>256</ele>
        <time>2024-04-28T07:25:00Z</time>
      </trkpt>
      <trkpt lat="49.98899" lon="4.153">
        <ele>256.4</ele>
        <time>2024-04-28T07:25:01Z</time>
      </trkpt>
      <trkpt lat="49.98897" lon="4.15289">
        <ele>256.6</ele>
        <time>2024-04-28T07:25:02Z</time>
      </trkpt>
      <trkpt lat="49.98895" lon="4.15278">
        <ele>256.8</ele>
        <time>2024-04-28T07:25:03Z</time>
      </trkpt>
      <trkpt lat="49.98893" lon="4.15267">
        <ele>256.8</ele>
        <time>2024-04-28T07:25:04Z</time>
      </trkpt>
      <trkpt lat="49.98892" lon="4.15255">
        <ele>256.8</ele>
        <time>2024-04-28T07:25:05Z</time>
      </trkpt>
      <trkpt lat="49.98891" lon="4.15244">
        <ele>256.8</ele>
        <time>2024-04-28T07:25:06Z</time>
      </trkpt>
      <trkpt lat="49.9889" lon="4.15232">
        <ele>257</ele>
        <time>2024-04-28T07:25:07Z</time>
      </trkpt>
      <trkpt lat="49.98889" lon="4.15221">
        <ele>257</ele>
        <time>2024-04-28T07:25:08Z</time>
      </trkpt>
      <trkpt lat="49.98889" lon="4.15209">
        <ele>257</ele>
        <time>2024-04-28T07:25:09Z</time>
      </trkpt>
      <trkpt lat="49.98888" lon="4.15198">
        <ele>257</ele>
        <time>2024-04-28T07:25:10Z</time>
      </trkpt>
      <trkpt lat="49.98888" lon="4.15189">
        <ele>257</ele>
        <time>2024-04-28T07:25:11Z</time>
      </trkpt>
      <trkpt lat="49.98889" lon="4.1518">
        <ele>257</ele>
        <time>2024-04-28T07:25:12Z</time>
      </trkpt>
      <trkpt lat="49.98889" lon="4.15173">
        <ele>256.8</ele>
        <time>2024-04-28T07:25:13Z</time>
      </trkpt>
      <trkpt lat="49.98889" lon="4.15165">
        <ele>256.8</ele>
        <time>2024-04-28T07:25:14Z</time>
      </trkpt>
      <trkpt lat="49.98889" lon="4.15159">
        <ele>256.8</ele>
        <time>2024-04-28T07:25:15Z</time>
      </trkpt>
      <trkpt lat="49.98889" lon="4.15153">
        <ele>257</ele>
        <time>2024-04-28T07:25:16Z</time>
      </trkpt>
      <trkpt lat="49.9889" lon="4.15147">
        <ele>256.8</ele>
        <time>2024-04-28T07:25:17Z</time>
      </trkpt>
      <trkpt lat="49.9889" lon="4.15142">
        <ele>256.8</ele>
        <time>2024-04-28T07:25:18Z</time>
      </trkpt>
      <trkpt lat="49.98891" lon="4.15137">
        <ele>256.8</ele>
        <time>2024-04-28T07:25:19Z</time>
      </trkpt>
      <trkpt lat="49.98891" lon="4.15133">
        <ele>256.4</ele>
        <time>2024-04-28T07:25:20Z</time>
      </trkpt>
      <trkpt lat="49.98891" lon="4.15131">
        <ele>256.2</ele>
        <time>2024-04-28T07:25:21Z</time>
      </trkpt>
      <trkpt lat="49.98891" lon="4.15128">
        <ele>256</ele>
        <time>2024-04-28T07:25:22Z</time>
      </trkpt>
      <trkpt lat="49.98892" lon="4.15126">
        <ele>255.8</ele>
        <time>2024-04-28T07:25:23Z</time>
      </trkpt>
      <trkpt lat="49.98892" lon="4.15124">
        <ele>255.8</ele>
        <time>2024-04-28T07:25:24Z</time>
      </trkpt>
      <trkpt lat="49.98893" lon="4.15121">
        <ele>255.8</ele>
        <time>2024-04-28T07:25:25Z</time>
      </trkpt>
      <trkpt lat="49.98894" lon="4.15118">
        <ele>255.6</ele>
        <time>2024-04-28T07:25:26Z</time>
      </trkpt>
      <trkpt lat="49.98895" lon="4.15114">
        <ele>255.6</ele>
        <time>2024-04-28T07:25:27Z</time>
      </trkpt>
      <trkpt lat="49.98895" lon="4.1511">
        <ele>255.4</ele>
        <time>2024-04-28T07:25:28Z</time>
      </trkpt>
      <trkpt lat="49.98894" lon="4.15105">
        <ele>255.2</ele>
        <time>2024-04-28T07:25:29Z</time>
      </trkpt>
      <trkpt lat="49.98891" lon="4.151">
        <ele>255.2</ele>
        <time>2024-04-28T07:25:30Z</time>
      </trkpt>
      <trkpt lat="49.98888" lon="4.15095">
        <ele>255</ele>
        <time>2024-04-28T07:25:31Z</time>
      </trkpt>
      <trkpt lat="49.98884" lon="4.15091">
        <ele>254.8</ele>
        <time>2024-04-28T07:25:32Z</time>
      </trkpt>
      <trkpt lat="49.98878" lon="4.15088">
        <ele>254.8</ele>
        <time>2024-04-28T07:25:33Z</time>
      </trkpt>
      <trkpt lat="49.98872" lon="4.15084">
        <ele>254.6</ele>
        <time>2024-04-28T07:25:34Z</time>
      </trkpt>
      <trkpt lat="49.98867" lon="4.15079">
        <ele>254.4</ele>
        <time>2024-04-28T07:25:35Z</time>
      </trkpt>
      <trkpt lat="49.98861" lon="4.15075">
        <ele>254.6</ele>
        <time>2024-04-28T07:25:36Z</time>
      </trkpt>
      <trkpt lat="49.98857" lon="4.15069">
        <ele>254.6</ele>
        <time>2024-04-28T07:25:37Z</time>
      </trkpt>
      <trkpt lat="49.98855" lon="4.15063">
        <ele>254.4</ele>
        <time>2024-04-28T07:25:38Z</time>
      </trkpt>
      <trkpt lat="49.98855" lon="4.15055">
        <ele>254.4</ele>
        <time>2024-04-28T07:25:39Z</time>
      </trkpt>
      <trkpt lat="49.98857" lon="4.15048">
        <ele>254.2</ele>
        <time>2024-04-28T07:25:40Z</time>
      </trkpt>
      <trkpt lat="49.98861" lon="4.15041">
        <ele>254.2</ele>
        <time>2024-04-28T07:25:41Z</time>
      </trkpt>
      <trkpt lat="49.98866" lon="4.15034">
        <ele>254</ele>
        <time>2024-04-28T07:25:42Z</time>
      </trkpt>
      <trkpt lat="49.9887" lon="4.15026">
        <ele>253.8</ele>
        <time>2024-04-28T07:25:43Z</time>
      </trkpt>
      <trkpt lat="49.98873" lon="4.15017">
        <ele>253.8</ele>
        <time>2024-04-28T07:25:44Z</time>
      </trkpt>
      <trkpt lat="49.98876" lon="4.15007">
        <ele>253.4</ele>
        <time>2024-04-28T07:25:45Z</time>
      </trkpt>
      <trkpt lat="49.98877" lon="4.14997">
        <ele>253.4</ele>
        <time>2024-04-28T07:25:46Z</time>
      </trkpt>
      <trkpt lat="49.98878" lon="4.14985">
        <ele>253.2</ele>
        <time>2024-04-28T07:25:47Z</time>
      </trkpt>
      <trkpt lat="49.98878" lon="4.14974">
        <ele>253.2</ele>
        <time>2024-04-28T07:25:48Z</time>
      </trkpt>
      <trkpt lat="49.98878" lon="4.14962">
        <ele>253.2</ele>
        <time>2024-04-28T07:25:49Z</time>
      </trkpt>
      <trkpt lat="49.98879" lon="4.14951">
        <ele>253.2</ele>
        <time>2024-04-28T07:25:50Z</time>
      </trkpt>
      <trkpt lat="49.9888" lon="4.14939">
        <ele>253</ele>
        <time>2024-04-28T07:25:51Z</time>
      </trkpt>
      <trkpt lat="49.98883" lon="4.14928">
        <ele>252.8</ele>
        <time>2024-04-28T07:25:52Z</time>
      </trkpt>
      <trkpt lat="49.98886" lon="4.14917">
        <ele>252.8</ele>
        <time>2024-04-28T07:25:53Z</time>
      </trkpt>
      <trkpt lat="49.9889" lon="4.14906">
        <ele>252.8</ele>
        <time>2024-04-28T07:25:54Z</time>
      </trkpt>
      <trkpt lat="49.98894" lon="4.14896">
        <ele>252.6</ele>
        <time>2024-04-28T07:25:55Z</time>
      </trkpt>
      <trkpt lat="49.98897" lon="4.14885">
        <ele>252.6</ele>
        <time>2024-04-28T07:25:56Z</time>
      </trkpt>
      <trkpt lat="49.98901" lon="4.14874">
        <ele>252.8</ele>
        <time>2024-04-28T07:25:57Z</time>
      </trkpt>
      <trkpt lat="49.98905" lon="4.14863">
        <ele>252.8</ele>
        <time>2024-04-28T07:25:58Z</time>
      </trkpt>
      <trkpt lat="49.98908" lon="4.14852">
        <ele>252.6</ele>
        <time>2024-04-28T07:25:59Z</time>
      </trkpt>
      <trkpt lat="49.98911" lon="4.14841">
        <ele>252.6</ele>
        <time>2024-04-28T07:26:00Z</time>
      </trkpt>
      <trkpt lat="49.98915" lon="4.14831">
        <ele>252.8</ele>
        <time>2024-04-28T07:26:01Z</time>
      </trkpt>
      <trkpt lat="49.98918" lon="4.1482">
        <ele>252.6</ele>
        <time>2024-04-28T07:26:02Z</time>
      </trkpt>
      <trkpt lat="49.98921" lon="4.1481">
        <ele>253</ele>
        <time>2024-04-28T07:26:03Z</time>
      </trkpt>
      <trkpt lat="49.98924" lon="4.148">
        <ele>253</ele>
        <time>2024-04-28T07:26:04Z</time>
      </trkpt>
      <trkpt lat="49.98928" lon="4.1479">
        <ele>253</ele>
        <time>2024-04-28T07:26:05Z</time>
      </trkpt>
      <trkpt lat="49.98931" lon="4.14781">
        <ele>253</ele>
        <time>2024-04-28T07:26:06Z</time>
      </trkpt>
      <trkpt lat="49.98935" lon="4.14773">
        <ele>253</ele>
        <time>2024-04-28T07:26:07Z</time>
      </trkpt>
      <trkpt lat="49.9894" lon="4.14766">
        <ele>253.2</ele>
        <time>2024-04-28T07:26:08Z</time>
      </trkpt>
      <trkpt lat="49.98946" lon="4.1476">
        <ele>253.2</ele>
        <time>2024-04-28T07:26:09Z</time>
      </trkpt>
      <trkpt lat="49.98952" lon="4.14755">
        <ele>253</ele>
        <time>2024-04-28T07:26:10Z</time>
      </trkpt>
      <trkpt lat="49.98959" lon="4.14753">
        <ele>253.2</ele>
        <time>2024-04-28T07:26:11Z</time>
      </trkpt>
      <trkpt lat="49.98966" lon="4.1475">
        <ele>253.2</ele>
        <time>2024-04-28T07:26:12Z</time>
      </trkpt>
      <trkpt lat="49.98973" lon="4.14747">
        <ele>253.2</ele>
        <time>2024-04-28T07:26:13Z</time>
      </trkpt>
      <trkpt lat="49.98979" lon="4.14743">
        <ele>253.2</ele>
        <time>2024-04-28T07:26:14Z</time>
      </trkpt>
      <trkpt lat="49.98986" lon="4.14739">
        <ele>253.2</ele>
        <time>2024-04-28T07:26:15Z</time>
      </trkpt>
      <trkpt lat="49.98992" lon="4.14733">
        <ele>253.2</ele>
        <time>2024-04-28T07:26:16Z</time>
      </trkpt>
      <trkpt lat="49.98997" lon="4.14725">
        <ele>253.2</ele>
        <time>2024-04-28T07:26:17Z</time>
      </trkpt>
      <trkpt lat="49.99002" lon="4.14716">
        <ele>253.2</ele>
        <time>2024-04-28T07:26:18Z</time>
      </trkpt>
      <trkpt lat="49.99005" lon="4.14707">
        <ele>253.2</ele>
        <time>2024-04-28T07:26:19Z</time>
      </trkpt>
      <trkpt lat="49.99009" lon="4.14697">
        <ele>253.2</ele>
        <time>2024-04-28T07:26:20Z</time>
      </trkpt>
      <trkpt lat="49.99012" lon="4.14688">
        <ele>253.2</ele>
        <time>2024-04-28T07:26:21Z</time>
      </trkpt>
      <trkpt lat="49.99016" lon="4.14679">
        <ele>253.2</ele>
        <time>2024-04-28T07:26:22Z</time>
      </trkpt>
      <trkpt lat="49.99019" lon="4.1467">
        <ele>253.4</ele>
        <time>2024-04-28T07:26:23Z</time>
      </trkpt>
      <trkpt lat="49.99023" lon="4.14661">
        <ele>253.4</ele>
        <time>2024-04-28T07:26:24Z</time>
      </trkpt>
      <trkpt lat="49.99028" lon="4.14653">
        <ele>253.6</ele>
        <time>2024-04-28T07:26:25Z</time>
      </trkpt>
      <trkpt lat="49.99033" lon="4.14645">
        <ele>253.6</ele>
        <time>2024-04-28T07:26:26Z</time>
      </trkpt>
      <trkpt lat="49.99037" lon="4.14636">
        <ele>253.6</ele>
        <time>2024-04-28T07:26:27Z</time>
      </trkpt>
      <trkpt lat="49.99042" lon="4.14628">
        <ele>254.2</ele>
        <time>2024-04-28T07:26:28Z</time>
      </trkpt>
      <trkpt lat="49.99047" lon="4.14619">
        <ele>254.8</ele>
        <time>2024-04-28T07:26:29Z</time>
      </trkpt>
      <trkpt lat="49.99051" lon="4.14611">
        <ele>254.8</ele>
        <time>2024-04-28T07:26:30Z</time>
      </trkpt>
      <trkpt lat="49.99056" lon="4.14603">
        <ele>255</ele>
        <time>2024-04-28T07:26:31Z</time>
      </trkpt>
      <trkpt lat="49.9906" lon="4.14594">
        <ele>255.4</ele>
        <time>2024-04-28T07:26:32Z</time>
      </trkpt>
      <trkpt lat="49.99064" lon="4.14586">
        <ele>255.4</ele>
        <time>2024-04-28T07:26:33Z</time>
      </trkpt>
      <trkpt lat="49.99069" lon="4.14578">
        <ele>255.8</ele>
        <time>2024-04-28T07:26:34Z</time>
      </trkpt>
      <trkpt lat="49.99073" lon="4.1457">
        <ele>255.8</ele>
        <time>2024-04-28T07:26:35Z</time>
      </trkpt>
      <trkpt lat="49.99078" lon="4.14563">
        <ele>256.2</ele>
        <time>2024-04-28T07:26:36Z</time>
      </trkpt>
      <trkpt lat="49.99082" lon="4.14555">
        <ele>256.2</ele>
        <time>2024-04-28T07:26:37Z</time>
      </trkpt>
      <trkpt lat="49.99086" lon="4.14548">
        <ele>256.4</ele>
        <time>2024-04-28T07:26:38Z</time>
      </trkpt>
      <trkpt lat="49.9909" lon="4.1454">
        <ele>256.4</ele>
        <time>2024-04-28T07:26:39Z</time>
      </trkpt>
      <trkpt lat="49.99094" lon="4.14532">
        <ele>256.6</ele>
        <time>2024-04-28T07:26:40Z</time>
      </trkpt>
      <trkpt lat="49.99099" lon="4.14525">
        <ele>256.8</ele>
        <time>2024-04-28T07:26:41Z</time>
      </trkpt>
      <trkpt lat="49.99103" lon="4.14517">
        <ele>256.8</ele>
        <time>2024-04-28T07:26:42Z</time>
      </trkpt>
      <trkpt lat="49.99107" lon="4.14509">
        <ele>256.8</ele>
        <time>2024-04-28T07:26:43Z</time>
      </trkpt>
      <trkpt lat="49.99112" lon="4.14501">
        <ele>256.8</ele>
        <time>2024-04-28T07:26:44Z</time>
      </trkpt>
      <trkpt lat="49.99117" lon="4.14494">
        <ele>257</ele>
        <time>2024-04-28T07:26:45Z</time>
      </trkpt>
      <trkpt lat="49.99121" lon="4.14485">
        <ele>257</ele>
        <time>2024-04-28T07:26:46Z</time>
      </trkpt>
      <trkpt lat="49.99125" lon="4.14477">
        <ele>257</ele>
        <time>2024-04-28T07:26:47Z</time>
      </trkpt>
      <trkpt lat="49.9913" lon="4.14469">
        <ele>257</ele>
        <time>2024-04-28T07:26:48Z</time>
      </trkpt>
      <trkpt lat="49.99134" lon="4.14462">
        <ele>257.2</ele>
        <time>2024-04-28T07:26:49Z</time>
      </trkpt>
      <trkpt lat="49.99138" lon="4.14455">
        <ele>257.4</ele>
        <time>2024-04-28T07:26:50Z</time>
      </trkpt>
      <trkpt lat="49.99143" lon="4.14448">
        <ele>257.6</ele>
        <time>2024-04-28T07:26:51Z</time>
      </trkpt>
      <trkpt lat="49.99146" lon="4.14443">
        <ele>257.8</ele>
        <time>2024-04-28T07:26:52Z</time>
      </trkpt>
      <trkpt lat="49.99149" lon="4.14438">
        <ele>257.8</ele>
        <time>2024-04-28T07:26:53Z</time>
      </trkpt>
      <trkpt lat="49.99153" lon="4.14433">
        <ele>257.8</ele>
        <time>2024-04-28T07:26:54Z</time>
      </trkpt>
      <trkpt lat="49.99156" lon="4.14429">
        <ele>258</ele>
        <time>2024-04-28T07:26:55Z</time>
      </trkpt>
      <trkpt lat="49.9916" lon="4.14425">
        <ele>257.8</ele>
        <time>2024-04-28T07:26:56Z</time>
      </trkpt>
      <trkpt lat="49.99165" lon="4.14421">
        <ele>258</ele>
        <time>2024-04-28T07:26:57Z</time>
      </trkpt>
      <trkpt lat="49.99169" lon="4.14416">
        <ele>258</ele>
        <time>2024-04-28T07:26:58Z</time>
      </trkpt>
      <trkpt lat="49.99174" lon="4.1441">
        <ele>258.2</ele>
        <time>2024-04-28T07:26:59Z</time>
      </trkpt>
      <trkpt lat="49.99178" lon="4.14404">
        <ele>258.2</ele>
        <time>2024-04-28T07:27:00Z</time>
      </trkpt>
      <trkpt lat="49.99183" lon="4.14399">
        <ele>258.4</ele>
        <time>2024-04-28T07:27:01Z</time>
      </trkpt>
      <trkpt lat="49.99187" lon="4.14393">
        <ele>258.4</ele>
        <time>2024-04-28T07:27:02Z</time>
      </trkpt>
      <trkpt lat="49.99192" lon="4.14387">
        <ele>258.4</ele>
        <time>2024-04-28T07:27:03Z</time>
      </trkpt>
      <trkpt lat="49.99197" lon="4.14381">
        <ele>258.6</ele>
        <time>2024-04-28T07:27:04Z</time>
      </trkpt>
      <trkpt lat="49.99202" lon="4.14374">
        <ele>258.4</ele>
        <time>2024-04-28T07:27:05Z</time>
      </trkpt>
      <trkpt lat="49.99207" lon="4.14368">
        <ele>258.4</ele>
        <time>2024-04-28T07:27:06Z</time>
      </trkpt>
      <trkpt lat="49.99212" lon="4.14361">
        <ele>258.6</ele>
        <time>2024-04-28T07:27:07Z</time>
      </trkpt>
      <trkpt lat="49.99218" lon="4.14354">
        <ele>258.4</ele>
        <time>2024-04-28T07:27:08Z</time>
      </trkpt>
      <trkpt lat="49.99223" lon="4.14346">
        <ele>258.6</ele>
        <time>2024-04-28T07:27:09Z</time>
      </trkpt>
      <trkpt lat="49.99228" lon="4.14338">
        <ele>258.6</ele>
        <time>2024-04-28T07:27:10Z</time>
      </trkpt>
      <trkpt lat="49.99234" lon="4.14328">
        <ele>258.2</ele>
        <time>2024-04-28T07:27:11Z</time>
      </trkpt>
      <trkpt lat="49.99239" lon="4.14318">
        <ele>258.2</ele>
        <time>2024-04-28T07:27:12Z</time>
      </trkpt>
      <trkpt lat="49.99245" lon="4.14308">
        <ele>258</ele>
        <time>2024-04-28T07:27:13Z</time>
      </trkpt>
      <trkpt lat="49.9925" lon="4.14298">
        <ele>257.8</ele>
        <time>2024-04-28T07:27:14Z</time>
      </trkpt>
      <trkpt lat="49.99256" lon="4.14287">
        <ele>257.4</ele>
        <time>2024-04-28T07:27:15Z</time>
      </trkpt>
      <trkpt lat="49.99261" lon="4.14276">
        <ele>257.2</ele>
        <time>2024-04-28T07:27:16Z</time>
      </trkpt>
      <trkpt lat="49.99266" lon="4.14265">
        <ele>257</ele>
        <time>2024-04-28T07:27:17Z</time>
      </trkpt>
      <trkpt lat="49.99272" lon="4.14254">
        <ele>256.8</ele>
        <time>2024-04-28T07:27:18Z</time>
      </trkpt>
      <trkpt lat="49.99278" lon="4.14244">
        <ele>256.8</ele>
        <time>2024-04-28T07:27:19Z</time>
      </trkpt>
      <trkpt lat="49.99283" lon="4.14235">
        <ele>256.6</ele>
        <time>2024-04-28T07:27:20Z</time>
      </trkpt>
      <trkpt lat="49.99288" lon="4.14229">
        <ele>256.2</ele>
        <time>2024-04-28T07:27:21Z</time>
      </trkpt>
      <trkpt lat="49.99292" lon="4.14224">
        <ele>256</ele>
        <time>2024-04-28T07:27:22Z</time>
      </trkpt>
      <trkpt lat="49.99296" lon="4.1422">
        <ele>255.8</ele>
        <time>2024-04-28T07:27:23Z</time>
      </trkpt>
      <trkpt lat="49.99299" lon="4.14218">
        <ele>255.8</ele>
        <time>2024-04-28T07:27:24Z</time>
      </trkpt>
      <trkpt lat="49.99302" lon="4.14215">
        <ele>255.6</ele>
        <time>2024-04-28T07:27:25Z</time>
      </trkpt>
      <trkpt lat="49.99304" lon="4.14211">
        <ele>255.6</ele>
        <time>2024-04-28T07:27:26Z</time>
      </trkpt>
      <trkpt lat="49.99305" lon="4.14207">
        <ele>255.6</ele>
        <time>2024-04-28T07:27:27Z</time>
      </trkpt>
      <trkpt lat="49.99307" lon="4.14201">
        <ele>255.8</ele>
        <time>2024-04-28T07:27:28Z</time>
      </trkpt>
      <trkpt lat="49.99307" lon="4.14194">
        <ele>255.8</ele>
        <time>2024-04-28T07:27:29Z</time>
      </trkpt>
      <trkpt lat="49.99308" lon="4.14187">
        <ele>255.8</ele>
        <time>2024-04-28T07:27:30Z</time>
      </trkpt>
      <trkpt lat="49.99308" lon="4.14178">
        <ele>255.8</ele>
        <time>2024-04-28T07:27:31Z</time>
      </trkpt>
      <trkpt lat="49.99309" lon="4.14169">
        <ele>255.8</ele>
        <time>2024-04-28T07:27:32Z</time>
      </trkpt>
      <trkpt lat="49.9931" lon="4.1416">
        <ele>255.8</ele>
        <time>2024-04-28T07:27:33Z</time>
      </trkpt>
      <trkpt lat="49.99311" lon="4.14151">
        <ele>256</ele>
        <time>2024-04-28T07:27:34Z</time>
      </trkpt>
      <trkpt lat="49.99312" lon="4.14141">
        <ele>256.2</ele>
        <time>2024-04-28T07:27:35Z</time>
      </trkpt>
      <trkpt lat="49.99314" lon="4.14132">
        <ele>256.4</ele>
        <time>2024-04-28T07:27:36Z</time>
      </trkpt>
      <trkpt lat="49.99315" lon="4.14122">
        <ele>256.4</ele>
        <time>2024-04-28T07:27:37Z</time>
      </trkpt>
      <trkpt lat="49.99316" lon="4.14112">
        <ele>256.2</ele>
        <time>2024-04-28T07:27:38Z</time>
      </trkpt>
      <trkpt lat="49.99317" lon="4.14102">
        <ele>256.4</ele>
        <time>2024-04-28T07:27:39Z</time>
      </trkpt>
      <trkpt lat="49.99318" lon="4.14092">
        <ele>256.4</ele>
        <time>2024-04-28T07:27:40Z</time>
      </trkpt>
      <trkpt lat="49.99319" lon="4.14081">
        <ele>256.4</ele>
        <time>2024-04-28T07:27:41Z</time>
      </trkpt>
      <trkpt lat="49.99319" lon="4.14071">
        <ele>256.4</ele>
        <time>2024-04-28T07:27:42Z</time>
      </trkpt>
      <trkpt lat="49.9932" lon="4.1406">
        <ele>256.6</ele>
        <time>2024-04-28T07:27:43Z</time>
      </trkpt>
      <trkpt lat="49.9932" lon="4.14049">
        <ele>256.4</ele>
        <time>2024-04-28T07:27:44Z</time>
      </trkpt>
      <trkpt lat="49.99321" lon="4.14037">
        <ele>256.6</ele>
        <time>2024-04-28T07:27:45Z</time>
      </trkpt>
      <trkpt lat="49.99321" lon="4.14026">
        <ele>256.6</ele>
        <time>2024-04-28T07:27:46Z</time>
      </trkpt>
      <trkpt lat="49.99321" lon="4.14014">
        <ele>256.6</ele>
        <time>2024-04-28T07:27:47Z</time>
      </trkpt>
      <trkpt lat="49.99321" lon="4.14003">
        <ele>256.4</ele>
        <time>2024-04-28T07:27:48Z</time>
      </trkpt>
      <trkpt lat="49.9932" lon="4.13991">
        <ele>256.6</ele>
        <time>2024-04-28T07:27:49Z</time>
      </trkpt>
      <trkpt lat="49.99319" lon="4.13979">
        <ele>256.6</ele>
        <time>2024-04-28T07:27:50Z</time>
      </trkpt>
      <trkpt lat="49.99319" lon="4.13968">
        <ele>256.6</ele>
        <time>2024-04-28T07:27:51Z</time>
      </trkpt>
      <trkpt lat="49.99318" lon="4.13956">
        <ele>256.6</ele>
        <time>2024-04-28T07:27:52Z</time>
      </trkpt>
      <trkpt lat="49.99317" lon="4.13944">
        <ele>256.6</ele>
        <time>2024-04-28T07:27:53Z</time>
      </trkpt>
      <trkpt lat="49.99317" lon="4.13932">
        <ele>256.6</ele>
        <time>2024-04-28T07:27:54Z</time>
      </trkpt>
      <trkpt lat="49.99316" lon="4.1392">
        <ele>257.2</ele>
        <time>2024-04-28T07:27:55Z</time>
      </trkpt>
      <trkpt lat="49.99315" lon="4.13908">
        <ele>257.2</ele>
        <time>2024-04-28T07:27:56Z</time>
      </trkpt>
      <trkpt lat="49.99314" lon="4.13896">
        <ele>257.4</ele>
        <time>2024-04-28T07:27:57Z</time>
      </trkpt>
      <trkpt lat="49.99313" lon="4.13884">
        <ele>258</ele>
        <time>2024-04-28T07:27:58Z</time>
      </trkpt>
      <trkpt lat="49.99313" lon="4.13871">
        <ele>258.4</ele>
        <time>2024-04-28T07:27:59Z</time>
      </trkpt>
      <trkpt lat="49.99312" lon="4.13859">
        <ele>258.8</ele>
        <time>2024-04-28T07:28:00Z</time>
      </trkpt>
      <trkpt lat="49.99311" lon="4.13847">
        <ele>258.8</ele>
        <time>2024-04-28T07:28:01Z</time>
      </trkpt>
      <trkpt lat="49.9931" lon="4.13834">
        <ele>259</ele>
        <time>2024-04-28T07:28:02Z</time>
      </trkpt>
      <trkpt lat="49.99309" lon="4.13821">
        <ele>259</ele>
        <time>2024-04-28T07:28:03Z</time>
      </trkpt>
      <trkpt lat="49.99309" lon="4.13808">
        <ele>259</ele>
        <time>2024-04-28T07:28:04Z</time>
      </trkpt>
      <trkpt lat="49.99308" lon="4.13794">
        <ele>259</ele>
        <time>2024-04-28T07:28:05Z</time>
      </trkpt>
      <trkpt lat="49.99307" lon="4.1378">
        <ele>259</ele>
        <time>2024-04-28T07:28:06Z</time>
      </trkpt>
      <trkpt lat="49.99306" lon="4.13766">
        <ele>259</ele>
        <time>2024-04-28T07:28:07Z</time>
      </trkpt>
      <trkpt lat="49.99305" lon="4.13753">
        <ele>259</ele>
        <time>2024-04-28T07:28:08Z</time>
      </trkpt>
      <trkpt lat="49.99305" lon="4.13739">
        <ele>259</ele>
        <time>2024-04-28T07:28:09Z</time>
      </trkpt>
      <trkpt lat="49.99304" lon="4.13725">
        <ele>259</ele>
        <time>2024-04-28T07:28:10Z</time>
      </trkpt>
      <trkpt lat="49.99303" lon="4.13711">
        <ele>259</ele>
        <time>2024-04-28T07:28:11Z</time>
      </trkpt>
      <trkpt lat="49.99302" lon="4.13698">
        <ele>259</ele>
        <time>2024-04-28T07:28:12Z</time>
      </trkpt>
      <trkpt lat="49.99301" lon="4.13684">
        <ele>259</ele>
        <time>2024-04-28T07:28:13Z</time>
      </trkpt>
      <trkpt lat="49.993" lon="4.1367">
        <ele>259</ele>
        <time>2024-04-28T07:28:14Z</time>
      </trkpt>
      <trkpt lat="49.99299" lon="4.13656">
        <ele>259</ele>
        <time>2024-04-28T07:28:15Z</time>
      </trkpt>
      <trkpt lat="49.99299" lon="4.13642">
        <ele>259</ele>
        <time>2024-04-28T07:28:16Z</time>
      </trkpt>
      <trkpt lat="49.99298" lon="4.13628">
        <ele>258.8</ele>
        <time>2024-04-28T07:28:17Z</time>
      </trkpt>
      <trkpt lat="49.99298" lon="4.13614">
        <ele>258.8</ele>
        <time>2024-04-28T07:28:18Z</time>
      </trkpt>
      <trkpt lat="49.99297" lon="4.13599">
        <ele>258.8</ele>
        <time>2024-04-28T07:28:19Z</time>
      </trkpt>
      <trkpt lat="49.99296" lon="4.13585">
        <ele>258.6</ele>
        <time>2024-04-28T07:28:20Z</time>
      </trkpt>
      <trkpt lat="49.99295" lon="4.1357">
        <ele>258.8</ele>
        <time>2024-04-28T07:28:21Z</time>
      </trkpt>
      <trkpt lat="49.99294" lon="4.13554">
        <ele>258.8</ele>
        <time>2024-04-28T07:28:22Z</time>
      </trkpt>
      <trkpt lat="49.99293" lon="4.13539">
        <ele>258.6</ele>
        <time>2024-04-28T07:28:23Z</time>
      </trkpt>
      <trkpt lat="49.99292" lon="4.13524">
        <ele>258.6</ele>
        <time>2024-04-28T07:28:24Z</time>
      </trkpt>
      <trkpt lat="49.99291" lon="4.13509">
        <ele>258.6</ele>
        <time>2024-04-28T07:28:25Z</time>
      </trkpt>
      <trkpt lat="49.9929" lon="4.13494">
        <ele>258.6</ele>
        <time>2024-04-28T07:28:26Z</time>
      </trkpt>
      <trkpt lat="49.99289" lon="4.13479">
        <ele>258.4</ele>
        <time>2024-04-28T07:28:27Z</time>
      </trkpt>
      <trkpt lat="49.99288" lon="4.13464">
        <ele>258.4</ele>
        <time>2024-04-28T07:28:28Z</time>
      </trkpt>
      <trkpt lat="49.99288" lon="4.13448">
        <ele>258.4</ele>
        <time>2024-04-28T07:28:29Z</time>
      </trkpt>
      <trkpt lat="49.99287" lon="4.13433">
        <ele>258.4</ele>
        <time>2024-04-28T07:28:30Z</time>
      </trkpt>
      <trkpt lat="49.99286" lon="4.13417">
        <ele>258.4</ele>
        <time>2024-04-28T07:28:31Z</time>
      </trkpt>
      <trkpt lat="49.99286" lon="4.13401">
        <ele>258.4</ele>
        <time>2024-04-28T07:28:32Z</time>
      </trkpt>
      <trkpt lat="49.99285" lon="4.13385">
        <ele>258</ele>
        <time>2024-04-28T07:28:33Z</time>
      </trkpt>
      <trkpt lat="49.99284" lon="4.13369">
        <ele>257.8</ele>
        <time>2024-04-28T07:28:34Z</time>
      </trkpt>
      <trkpt lat="49.99284" lon="4.13353">
        <ele>257.4</ele>
        <time>2024-04-28T07:28:35Z</time>
      </trkpt>
      <trkpt lat="49.99284" lon="4.13338">
        <ele>257.2</ele>
        <time>2024-04-28T07:28:36Z</time>
      </trkpt>
      <trkpt lat="49.99283" lon="4.13323">
        <ele>257</ele>
        <time>2024-04-28T07:28:37Z</time>
      </trkpt>
      <trkpt lat="49.99283" lon="4.13307">
        <ele>256.8</ele>
        <time>2024-04-28T07:28:38Z</time>
      </trkpt>
      <trkpt lat="49.99282" lon="4.13292">
        <ele>256.6</ele>
        <time>2024-04-28T07:28:39Z</time>
      </trkpt>
      <trkpt lat="49.99282" lon="4.13277">
        <ele>256.4</ele>
        <time>2024-04-28T07:28:40Z</time>
      </trkpt>
      <trkpt lat="49.99282" lon="4.13262">
        <ele>256.6</ele>
        <time>2024-04-28T07:28:41Z</time>
      </trkpt>
      <trkpt lat="49.99282" lon="4.13248">
        <ele>256.2</ele>
        <time>2024-04-28T07:28:42Z</time>
      </trkpt>
      <trkpt lat="49.99282" lon="4.13232">
        <ele>256.2</ele>
        <time>2024-04-28T07:28:43Z</time>
      </trkpt>
      <trkpt lat="49.99281" lon="4.13217">
        <ele>256.2</ele>
        <time>2024-04-28T07:28:44Z</time>
      </trkpt>
      <trkpt lat="49.99281" lon="4.13202">
        <ele>255.6</ele>
        <time>2024-04-28T07:28:45Z</time>
      </trkpt>
      <trkpt lat="49.99281" lon="4.13187">
        <ele>255.4</ele>
        <time>2024-04-28T07:28:46Z</time>
      </trkpt>
      <trkpt lat="49.9928" lon="4.13172">
        <ele>255.4</ele>
        <time>2024-04-28T07:28:47Z</time>
      </trkpt>
      <trkpt lat="49.9928" lon="4.13157">
        <ele>255.4</ele>
        <time>2024-04-28T07:28:48Z</time>
      </trkpt>
      <trkpt lat="49.9928" lon="4.13141">
        <ele>255.2</ele>
        <time>2024-04-28T07:28:49Z</time>
      </trkpt>
      <trkpt lat="49.99279" lon="4.13126">
        <ele>254.8</ele>
        <time>2024-04-28T07:28:50Z</time>
      </trkpt>
      <trkpt lat="49.99279" lon="4.1311">
        <ele>254.4</ele>
        <time>2024-04-28T07:28:51Z</time>
      </trkpt>
      <trkpt lat="49.99279" lon="4.13094">
        <ele>254.2</ele>
        <time>2024-04-28T07:28:52Z</time>
      </trkpt>
      <trkpt lat="49.99278" lon="4.13078">
        <ele>254.2</ele>
        <time>2024-04-28T07:28:53Z</time>
      </trkpt>
      <trkpt lat="49.99278" lon="4.13062">
        <ele>254</ele>
        <time>2024-04-28T07:28:54Z</time>
      </trkpt>
      <trkpt lat="49.99278" lon="4.13046">
        <ele>253.8</ele>
        <time>2024-04-28T07:28:55Z</time>
      </trkpt>
      <trkpt lat="49.99277" lon="4.13029">
        <ele>253.6</ele>
        <time>2024-04-28T07:28:56Z</time>
      </trkpt>
      <trkpt lat="49.99277" lon="4.13013">
        <ele>253.8</ele>
        <time>2024-04-28T07:28:57Z</time>
      </trkpt>
      <trkpt lat="49.99277" lon="4.12997">
        <ele>253.6</ele>
        <time>2024-04-28T07:28:58Z</time>
      </trkpt>
      <trkpt lat="49.99276" lon="4.12981">
        <ele>253.6</ele>
        <time>2024-04-28T07:28:59Z</time>
      </trkpt>
      <trkpt lat="49.99276" lon="4.12965">
        <ele>253.6</ele>
        <time>2024-04-28T07:29:00Z</time>
      </trkpt>
      <trkpt lat="49.99275" lon="4.12949">
        <ele>253.4</ele>
        <time>2024-04-28T07:29:01Z</time>
      </trkpt>
      <trkpt lat="49.99275" lon="4.12933">
        <ele>253.4</ele>
        <time>2024-04-28T07:29:02Z</time>
      </trkpt>
      <trkpt lat="49.99275" lon="4.12918">
        <ele>253.4</ele>
        <time>2024-04-28T07:29:03Z</time>
      </trkpt>
      <trkpt lat="49.99274" lon="4.12902">
        <ele>253.4</ele>
        <time>2024-04-28T07:29:04Z</time>
      </trkpt>
      <trkpt lat="49.99274" lon="4.12887">
        <ele>253</ele>
        <time>2024-04-28T07:29:05Z</time>
      </trkpt>
      <trkpt lat="49.99274" lon="4.12872">
        <ele>253</ele>
        <time>2024-04-28T07:29:06Z</time>
      </trkpt>
      <trkpt lat="49.99275" lon="4.12857">
        <ele>252.6</ele>
        <time>2024-04-28T07:29:07Z</time>
      </trkpt>
      <trkpt lat="49.99277" lon="4.12842">
        <ele>252.6</ele>
        <time>2024-04-28T07:29:08Z</time>
      </trkpt>
      <trkpt lat="49.9928" lon="4.12827">
        <ele>252</ele>
        <time>2024-04-28T07:29:09Z</time>
      </trkpt>
      <trkpt lat="49.99283" lon="4.12812">
        <ele>252.2</ele>
        <time>2024-04-28T07:29:10Z</time>
      </trkpt>
      <trkpt lat="49.99286" lon="4.12798">
        <ele>251.8</ele>
        <time>2024-04-28T07:29:11Z</time>
      </trkpt>
      <trkpt lat="49.9929" lon="4.12785">
        <ele>251.4</ele>
        <time>2024-04-28T07:29:12Z</time>
      </trkpt>
      <trkpt lat="49.99295" lon="4.12771">
        <ele>251.2</ele>
        <time>2024-04-28T07:29:13Z</time>
      </trkpt>
      <trkpt lat="49.99299" lon="4.12758">
        <ele>251.2</ele>
        <time>2024-04-28T07:29:14Z</time>
      </trkpt>
      <trkpt lat="49.99304" lon="4.12745">
        <ele>251.2</ele>
        <time>2024-04-28T07:29:15Z</time>
      </trkpt>
      <trkpt lat="49.99308" lon="4.12733">
        <ele>251</ele>
        <time>2024-04-28T07:29:16Z</time>
      </trkpt>
      <trkpt lat="49.99312" lon="4.1272">
        <ele>251</ele>
        <time>2024-04-28T07:29:17Z</time>
      </trkpt>
      <trkpt lat="49.99316" lon="4.12708">
        <ele>251</ele>
        <time>2024-04-28T07:29:18Z</time>
      </trkpt>
      <trkpt lat="49.9932" lon="4.12696">
        <ele>251.2</ele>
        <time>2024-04-28T07:29:19Z</time>
      </trkpt>
      <trkpt lat="49.99324" lon="4.12683">
        <ele>251.2</ele>
        <time>2024-04-28T07:29:20Z</time>
      </trkpt>
      <trkpt lat="49.99328" lon="4.12671">
        <ele>251</ele>
        <time>2024-04-28T07:29:21Z</time>
      </trkpt>
      <trkpt lat="49.99332" lon="4.12659">
        <ele>251.2</ele>
        <time>2024-04-28T07:29:22Z</time>
      </trkpt>
      <trkpt lat="49.99337" lon="4.12647">
        <ele>251</ele>
        <time>2024-04-28T07:29:23Z</time>
      </trkpt>
      <trkpt lat="49.99341" lon="4.12635">
        <ele>251.2</ele>
        <time>2024-04-28T07:29:24Z</time>
      </trkpt>
      <trkpt lat="49.99345" lon="4.12623">
        <ele>251.2</ele>
        <time>2024-04-28T07:29:25Z</time>
      </trkpt>
      <trkpt lat="49.9935" lon="4.1261">
        <ele>251</ele>
        <time>2024-04-28T07:29:26Z</time>
      </trkpt>
      <trkpt lat="49.99354" lon="4.12597">
        <ele>251.2</ele>
        <time>2024-04-28T07:29:27Z</time>
      </trkpt>
      <trkpt lat="49.99358" lon="4.12584">
        <ele>251.2</ele>
        <time>2024-04-28T07:29:28Z</time>
      </trkpt>
      <trkpt lat="49.99362" lon="4.12572">
        <ele>251.4</ele>
        <time>2024-04-28T07:29:29Z</time>
      </trkpt>
      <trkpt lat="49.99366" lon="4.12561">
        <ele>251.4</ele>
        <time>2024-04-28T07:29:30Z</time>
      </trkpt>
      <trkpt lat="49.9937" lon="4.1255">
        <ele>251.4</ele>
        <time>2024-04-28T07:29:31Z</time>
      </trkpt>
      <trkpt lat="49.99373" lon="4.1254">
        <ele>251.4</ele>
        <time>2024-04-28T07:29:32Z</time>
      </trkpt>
      <trkpt lat="49.99377" lon="4.12529">
        <ele>251.4</ele>
        <time>2024-04-28T07:29:33Z</time>
      </trkpt>
      <trkpt lat="49.99381" lon="4.12519">
        <ele>251.4</ele>
        <time>2024-04-28T07:29:34Z</time>
      </trkpt>
      <trkpt lat="49.99385" lon="4.12508">
        <ele>251.4</ele>
        <time>2024-04-28T07:29:35Z</time>
      </trkpt>
      <trkpt lat="49.99389" lon="4.12496">
        <ele>251.4</ele>
        <time>2024-04-28T07:29:36Z</time>
      </trkpt>
      <trkpt lat="49.99392" lon="4.12485">
        <ele>251.4</ele>
        <time>2024-04-28T07:29:37Z</time>
      </trkpt>
      <trkpt lat="49.99395" lon="4.12473">
        <ele>251.4</ele>
        <time>2024-04-28T07:29:38Z</time>
      </trkpt>
      <trkpt lat="49.99398" lon="4.1246">
        <ele>251.4</ele>
        <time>2024-04-28T07:29:39Z</time>
      </trkpt>
      <trkpt lat="49.99401" lon="4.12447">
        <ele>251.4</ele>
        <time>2024-04-28T07:29:40Z</time>
      </trkpt>
      <trkpt lat="49.99402" lon="4.12433">
        <ele>251.4</ele>
        <time>2024-04-28T07:29:41Z</time>
      </trkpt>
      <trkpt lat="49.99403" lon="4.12418">
        <ele>250.8</ele>
        <time>2024-04-28T07:29:42Z</time>
      </trkpt>
      <trkpt lat="49.99403" lon="4.12404">
        <ele>250.4</ele>
        <time>2024-04-28T07:29:43Z</time>
      </trkpt>
      <trkpt lat="49.99402" lon="4.12389">
        <ele>250</ele>
        <time>2024-04-28T07:29:44Z</time>
      </trkpt>
      <trkpt lat="49.99401" lon="4.12374">
        <ele>249.4</ele>
        <time>2024-04-28T07:29:45Z</time>
      </trkpt>
      <trkpt lat="49.99399" lon="4.12359">
        <ele>249</ele>
        <time>2024-04-28T07:29:46Z</time>
      </trkpt>
      <trkpt lat="49.99397" lon="4.12344">
        <ele>248.8</ele>
        <time>2024-04-28T07:29:47Z</time>
      </trkpt>
      <trkpt lat="49.99394" lon="4.1233">
        <ele>248.6</ele>
        <time>2024-04-28T07:29:48Z</time>
      </trkpt>
      <trkpt lat="49.99391" lon="4.12315">
        <ele>248.4</ele>
        <time>2024-04-28T07:29:49Z</time>
      </trkpt>
      <trkpt lat="49.99388" lon="4.12301">
        <ele>247.8</ele>
        <time>2024-04-28T07:29:50Z</time>
      </trkpt>
      <trkpt lat="49.99385" lon="4.12287">
        <ele>246.6</ele>
        <time>2024-04-28T07:29:51Z</time>
      </trkpt>
      <trkpt lat="49.99381" lon="4.12273">
        <ele>246</ele>
        <time>2024-04-28T07:29:52Z</time>
      </trkpt>
      <trkpt lat="49.99378" lon="4.12259">
        <ele>245.6</ele>
        <time>2024-04-28T07:29:53Z</time>
      </trkpt>
      <trkpt lat="49.99374" lon="4.12245">
        <ele>245.4</ele>
        <time>2024-04-28T07:29:54Z</time>
      </trkpt>
      <trkpt lat="49.9937" lon="4.12231">
        <ele>245.4</ele>
        <time>2024-04-28T07:29:55Z</time>
      </trkpt>
      <trkpt lat="49.99366" lon="4.12217">
        <ele>245.4</ele>
        <time>2024-04-28T07:29:56Z</time>
      </trkpt>
      <trkpt lat="49.99362" lon="4.12204">
        <ele>245.4</ele>
        <time>2024-04-28T07:29:57Z</time>
      </trkpt>
      <trkpt lat="49.99359" lon="4.12191">
        <ele>245.4</ele>
        <time>2024-04-28T07:29:58Z</time>
      </trkpt>
      <trkpt lat="49.99355" lon="4.12179">
        <ele>245.2</ele>
        <time>2024-04-28T07:29:59Z</time>
      </trkpt>
      <trkpt lat="49.99352" lon="4.12166">
        <ele>245.4</ele>
        <time>2024-04-28T07:30:00Z</time>
      </trkpt>
      <trkpt lat="49.99348" lon="4.12154">
        <ele>245.4</ele>
        <time>2024-04-28T07:30:01Z</time>
      </trkpt>
      <trkpt lat="49.99345" lon="4.12141">
        <ele>245.4</ele>
        <time>2024-04-28T07:30:02Z</time>
      </trkpt>
      <trkpt lat="49.99342" lon="4.12129">
        <ele>245.6</ele>
        <time>2024-04-28T07:30:03Z</time>
      </trkpt>
      <trkpt lat="49.99338" lon="4.12117">
        <ele>245.6</ele>
        <time>2024-04-28T07:30:04Z</time>
      </trkpt>
      <trkpt lat="49.99335" lon="4.12106">
        <ele>245.8</ele>
        <time>2024-04-28T07:30:05Z</time>
      </trkpt>
      <trkpt lat="49.99332" lon="4.12094">
        <ele>246</ele>
        <time>2024-04-28T07:30:06Z</time>
      </trkpt>
      <trkpt lat="49.99329" lon="4.12082">
        <ele>246.2</ele>
        <time>2024-04-28T07:30:07Z</time>
      </trkpt>
      <trkpt lat="49.99326" lon="4.12071">
        <ele>246.2</ele>
        <time>2024-04-28T07:30:08Z</time>
      </trkpt>
      <trkpt lat="49.99323" lon="4.12059">
        <ele>246.4</ele>
        <time>2024-04-28T07:30:09Z</time>
      </trkpt>
      <trkpt lat="49.99321" lon="4.12047">
        <ele>246.6</ele>
        <time>2024-04-28T07:30:10Z</time>
      </trkpt>
      <trkpt lat="49.99319" lon="4.12034">
        <ele>246.6</ele>
        <time>2024-04-28T07:30:11Z</time>
      </trkpt>
      <trkpt lat="49.99318" lon="4.12022">
        <ele>246.6</ele>
        <time>2024-04-28T07:30:12Z</time>
      </trkpt>
      <trkpt lat="49.99316" lon="4.12009">
        <ele>246.6</ele>
        <time>2024-04-28T07:30:13Z</time>
      </trkpt>
      <trkpt lat="49.99315" lon="4.11997">
        <ele>246.6</ele>
        <time>2024-04-28T07:30:14Z</time>
      </trkpt>
      <trkpt lat="49.99314" lon="4.11984">
        <ele>246.6</ele>
        <time>2024-04-28T07:30:15Z</time>
      </trkpt>
      <trkpt lat="49.99313" lon="4.11971">
        <ele>246.8</ele>
        <time>2024-04-28T07:30:16Z</time>
      </trkpt>
      <trkpt lat="49.99311" lon="4.11958">
        <ele>246.6</ele>
        <time>2024-04-28T07:30:17Z</time>
      </trkpt>
      <trkpt lat="49.9931" lon="4.11945">
        <ele>246.6</ele>
        <time>2024-04-28T07:30:18Z</time>
      </trkpt>
      <trkpt lat="49.99308" lon="4.11931">
        <ele>246.4</ele>
        <time>2024-04-28T07:30:19Z</time>
      </trkpt>
      <trkpt lat="49.99307" lon="4.11917">
        <ele>246.6</ele>
        <time>2024-04-28T07:30:20Z</time>
      </trkpt>
      <trkpt lat="49.99305" lon="4.11903">
        <ele>246.4</ele>
        <time>2024-04-28T07:30:21Z</time>
      </trkpt>
      <trkpt lat="49.99303" lon="4.1189">
        <ele>246.4</ele>
        <time>2024-04-28T07:30:22Z</time>
      </trkpt>
      <trkpt lat="49.99301" lon="4.11876">
        <ele>246</ele>
        <time>2024-04-28T07:30:23Z</time>
      </trkpt>
      <trkpt lat="49.99299" lon="4.11863">
        <ele>246</ele>
        <time>2024-04-28T07:30:24Z</time>
      </trkpt>
      <trkpt lat="49.99296" lon="4.1185">
        <ele>245.8</ele>
        <time>2024-04-28T07:30:25Z</time>
      </trkpt>
      <trkpt lat="49.99293" lon="4.11837">
        <ele>245.8</ele>
        <time>2024-04-28T07:30:26Z</time>
      </trkpt>
      <trkpt lat="49.9929" lon="4.11824">
        <ele>245.6</ele>
        <time>2024-04-28T07:30:27Z</time>
      </trkpt>
      <trkpt lat="49.99286" lon="4.11812">
        <ele>245.8</ele>
        <time>2024-04-28T07:30:28Z</time>
      </trkpt>
      <trkpt lat="49.99282" lon="4.118">
        <ele>245.6</ele>
        <time>2024-04-28T07:30:29Z</time>
      </trkpt>
      <trkpt lat="49.99279" lon="4.11788">
        <ele>245.6</ele>
        <time>2024-04-28T07:30:30Z</time>
      </trkpt>
      <trkpt lat="49.99275" lon="4.11776">
        <ele>245.6</ele>
        <time>2024-04-28T07:30:31Z</time>
      </trkpt>
      <trkpt lat="49.99271" lon="4.11764">
        <ele>245.6</ele>
        <time>2024-04-28T07:30:32Z</time>
      </trkpt>
      <trkpt lat="49.99268" lon="4.11753">
        <ele>245.6</ele>
        <time>2024-04-28T07:30:33Z</time>
      </trkpt>
      <trkpt lat="49.99265" lon="4.11741">
        <ele>245.6</ele>
        <time>2024-04-28T07:30:34Z</time>
      </trkpt>
      <trkpt lat="49.99263" lon="4.11729">
        <ele>245.6</ele>
        <time>2024-04-28T07:30:35Z</time>
      </trkpt>
      <trkpt lat="49.99262" lon="4.11717">
        <ele>245.4</ele>
        <time>2024-04-28T07:30:36Z</time>
      </trkpt>
      <trkpt lat="49.99261" lon="4.11705">
        <ele>245.6</ele>
        <time>2024-04-28T07:30:37Z</time>
      </trkpt>
      <trkpt lat="49.9926" lon="4.11692">
        <ele>245.4</ele>
        <time>2024-04-28T07:30:38Z</time>
      </trkpt>
      <trkpt lat="49.99259" lon="4.1168">
        <ele>245.4</ele>
        <time>2024-04-28T07:30:39Z</time>
      </trkpt>
      <trkpt lat="49.99259" lon="4.11666">
        <ele>245.6</ele>
        <time>2024-04-28T07:30:40Z</time>
      </trkpt>
      <trkpt lat="49.99258" lon="4.11653">
        <ele>245.4</ele>
        <time>2024-04-28T07:30:41Z</time>
      </trkpt>
      <trkpt lat="49.99258" lon="4.11638">
        <ele>245.4</ele>
        <time>2024-04-28T07:30:42Z</time>
      </trkpt>
      <trkpt lat="49.99258" lon="4.11624">
        <ele>245.4</ele>
        <time>2024-04-28T07:30:43Z</time>
      </trkpt>
      <trkpt lat="49.99258" lon="4.1161">
        <ele>245.6</ele>
        <time>2024-04-28T07:30:44Z</time>
      </trkpt>
      <trkpt lat="49.99258" lon="4.11596">
        <ele>245.4</ele>
        <time>2024-04-28T07:30:45Z</time>
      </trkpt>
      <trkpt lat="49.99258" lon="4.11582">
        <ele>245.4</ele>
        <time>2024-04-28T07:30:46Z</time>
      </trkpt>
      <trkpt lat="49.99258" lon="4.11568">
        <ele>245.2</ele>
        <time>2024-04-28T07:30:47Z</time>
      </trkpt>
      <trkpt lat="49.99258" lon="4.11554">
        <ele>245.2</ele>
        <time>2024-04-28T07:30:48Z</time>
      </trkpt>
      <trkpt lat="49.99258" lon="4.1154">
        <ele>245.2</ele>
        <time>2024-04-28T07:30:49Z</time>
      </trkpt>
      <trkpt lat="49.99258" lon="4.11527">
        <ele>245.2</ele>
        <time>2024-04-28T07:30:50Z</time>
      </trkpt>
      <trkpt lat="49.99258" lon="4.11513">
        <ele>245.2</ele>
        <time>2024-04-28T07:30:51Z</time>
      </trkpt>
      <trkpt lat="49.99259" lon="4.11499">
        <ele>245.2</ele>
        <time>2024-04-28T07:30:52Z</time>
      </trkpt>
      <trkpt lat="49.9926" lon="4.11484">
        <ele>244.8</ele>
        <time>2024-04-28T07:30:53Z</time>
      </trkpt>
      <trkpt lat="49.99261" lon="4.1147">
        <ele>244.8</ele>
        <time>2024-04-28T07:30:54Z</time>
      </trkpt>
      <trkpt lat="49.99262" lon="4.11455">
        <ele>244.6</ele>
        <time>2024-04-28T07:30:55Z</time>
      </trkpt>
      <trkpt lat="49.99263" lon="4.1144">
        <ele>244.6</ele>
        <time>2024-04-28T07:30:56Z</time>
      </trkpt>
      <trkpt lat="49.99265" lon="4.11426">
        <ele>244.4</ele>
        <time>2024-04-28T07:30:57Z</time>
      </trkpt>
      <trkpt lat="49.99266" lon="4.11411">
        <ele>244.2</ele>
        <time>2024-04-28T07:30:58Z</time>
      </trkpt>
      <trkpt lat="49.99268" lon="4.11397">
        <ele>244</ele>
        <time>2024-04-28T07:30:59Z</time>
      </trkpt>
      <trkpt lat="49.99269" lon="4.11382">
        <ele>243.8</ele>
        <time>2024-04-28T07:31:00Z</time>
      </trkpt>
      <trkpt lat="49.99271" lon="4.11368">
        <ele>243.4</ele>
        <time>2024-04-28T07:31:01Z</time>
      </trkpt>
      <trkpt lat="49.99272" lon="4.11353">
        <ele>243.4</ele>
        <time>2024-04-28T07:31:02Z</time>
      </trkpt>
      <trkpt lat="49.99274" lon="4.11338">
        <ele>243.2</ele>
        <time>2024-04-28T07:31:03Z</time>
      </trkpt>
      <trkpt lat="49.99276" lon="4.11323">
        <ele>243</ele>
        <time>2024-04-28T07:31:04Z</time>
      </trkpt>
      <trkpt lat="49.99278" lon="4.11308">
        <ele>242.8</ele>
        <time>2024-04-28T07:31:05Z</time>
      </trkpt>
      <trkpt lat="49.99279" lon="4.11293">
        <ele>242.4</ele>
        <time>2024-04-28T07:31:06Z</time>
      </trkpt>
      <trkpt lat="49.99281" lon="4.11278">
        <ele>242</ele>
        <time>2024-04-28T07:31:07Z</time>
      </trkpt>
      <trkpt lat="49.99283" lon="4.11264">
        <ele>242</ele>
        <time>2024-04-28T07:31:08Z</time>
      </trkpt>
      <trkpt lat="49.99284" lon="4.11249">
        <ele>241.8</ele>
        <time>2024-04-28T07:31:09Z</time>
      </trkpt>
      <trkpt lat="49.99285" lon="4.11234">
        <ele>241.8</ele>
        <time>2024-04-28T07:31:10Z</time>
      </trkpt>
      <trkpt lat="49.99286" lon="4.1122">
        <ele>241.6</ele>
        <time>2024-04-28T07:31:11Z</time>
      </trkpt>
      <trkpt lat="49.99288" lon="4.11206">
        <ele>241.6</ele>
        <time>2024-04-28T07:31:12Z</time>
      </trkpt>
      <trkpt lat="49.9929" lon="4.11191">
        <ele>241.2</ele>
        <time>2024-04-28T07:31:13Z</time>
      </trkpt>
      <trkpt lat="49.99291" lon="4.11176">
        <ele>241.2</ele>
        <time>2024-04-28T07:31:14Z</time>
      </trkpt>
      <trkpt lat="49.99293" lon="4.11161">
        <ele>241</ele>
        <time>2024-04-28T07:31:15Z</time>
      </trkpt>
      <trkpt lat="49.99295" lon="4.11147">
        <ele>241</ele>
        <time>2024-04-28T07:31:16Z</time>
      </trkpt>
      <trkpt lat="49.99296" lon="4.11132">
        <ele>240.8</ele>
        <time>2024-04-28T07:31:17Z</time>
      </trkpt>
      <trkpt lat="49.99298" lon="4.11118">
        <ele>240.8</ele>
        <time>2024-04-28T07:31:18Z</time>
      </trkpt>
      <trkpt lat="49.993" lon="4.11103">
        <ele>240.6</ele>
        <time>2024-04-28T07:31:19Z</time>
      </trkpt>
      <trkpt lat="49.99301" lon="4.11089">
        <ele>240.6</ele>
        <time>2024-04-28T07:31:20Z</time>
      </trkpt>
      <trkpt lat="49.99303" lon="4.11074">
        <ele>240.6</ele>
        <time>2024-04-28T07:31:21Z</time>
      </trkpt>
      <trkpt lat="49.99305" lon="4.1106">
        <ele>240.6</ele>
        <time>2024-04-28T07:31:22Z</time>
      </trkpt>
      <trkpt lat="49.99306" lon="4.11046">
        <ele>240.4</ele>
        <time>2024-04-28T07:31:23Z</time>
      </trkpt>
      <trkpt lat="49.99308" lon="4.11032">
        <ele>240.4</ele>
        <time>2024-04-28T07:31:24Z</time>
      </trkpt>
      <trkpt lat="49.99309" lon="4.11017">
        <ele>240.4</ele>
        <time>2024-04-28T07:31:25Z</time>
      </trkpt>
      <trkpt lat="49.9931" lon="4.11003">
        <ele>240.4</ele>
        <time>2024-04-28T07:31:26Z</time>
      </trkpt>
      <trkpt lat="49.99311" lon="4.10989">
        <ele>240.4</ele>
        <time>2024-04-28T07:31:27Z</time>
      </trkpt>
      <trkpt lat="49.99312" lon="4.10974">
        <ele>240.4</ele>
        <time>2024-04-28T07:31:28Z</time>
      </trkpt>
      <trkpt lat="49.99312" lon="4.10959">
        <ele>240.4</ele>
        <time>2024-04-28T07:31:29Z</time>
      </trkpt>
      <trkpt lat="49.99311" lon="4.10944">
        <ele>240.2</ele>
        <time>2024-04-28T07:31:30Z</time>
      </trkpt>
      <trkpt lat="49.99311" lon="4.10929">
        <ele>240.4</ele>
        <time>2024-04-28T07:31:31Z</time>
      </trkpt>
      <trkpt lat="49.9931" lon="4.10914">
        <ele>240.2</ele>
        <time>2024-04-28T07:31:32Z</time>
      </trkpt>
      <trkpt lat="49.99308" lon="4.109">
        <ele>240.4</ele>
        <time>2024-04-28T07:31:33Z</time>
      </trkpt>
      <trkpt lat="49.99306" lon="4.10885">
        <ele>240.2</ele>
        <time>2024-04-28T07:31:34Z</time>
      </trkpt>
      <trkpt lat="49.99305" lon="4.1087">
        <ele>240.4</ele>
        <time>2024-04-28T07:31:35Z</time>
      </trkpt>
      <trkpt lat="49.99303" lon="4.10855">
        <ele>240.2</ele>
        <time>2024-04-28T07:31:36Z</time>
      </trkpt>
      <trkpt lat="49.99301" lon="4.1084">
        <ele>240.4</ele>
        <time>2024-04-28T07:31:37Z</time>
      </trkpt>
      <trkpt lat="49.99299" lon="4.10825">
        <ele>240.4</ele>
        <time>2024-04-28T07:31:38Z</time>
      </trkpt>
      <trkpt lat="49.99298" lon="4.1081">
        <ele>240.4</ele>
        <time>2024-04-28T07:31:39Z</time>
      </trkpt>
      <trkpt lat="49.99296" lon="4.10796">
        <ele>240.4</ele>
        <time>2024-04-28T07:31:40Z</time>
      </trkpt>
      <trkpt lat="49.99294" lon="4.10781">
        <ele>240.2</ele>
        <time>2024-04-28T07:31:41Z</time>
      </trkpt>
      <trkpt lat="49.99292" lon="4.10767">
        <ele>240.2</ele>
        <time>2024-04-28T07:31:42Z</time>
      </trkpt>
      <trkpt lat="49.99291" lon="4.10752">
        <ele>240.2</ele>
        <time>2024-04-28T07:31:43Z</time>
      </trkpt>
      <trkpt lat="49.99289" lon="4.10737">
        <ele>240.2</ele>
        <time>2024-04-28T07:31:44Z</time>
      </trkpt>
      <trkpt lat="49.99287" lon="4.10723">
        <ele>240.2</ele>
        <time>2024-04-28T07:31:45Z</time>
      </trkpt>
      <trkpt lat="49.99285" lon="4.10708">
        <ele>239.8</ele>
        <time>2024-04-28T07:31:46Z</time>
      </trkpt>
      <trkpt lat="49.99283" lon="4.10694">
        <ele>239.4</ele>
        <time>2024-04-28T07:31:47Z</time>
      </trkpt>
      <trkpt lat="49.99281" lon="4.10679">
        <ele>238.8</ele>
        <time>2024-04-28T07:31:48Z</time>
      </trkpt>
      <trkpt lat="49.99279" lon="4.10666">
        <ele>238.6</ele>
        <time>2024-04-28T07:31:49Z</time>
      </trkpt>
      <trkpt lat="49.99276" lon="4.10652">
        <ele>238.4</ele>
        <time>2024-04-28T07:31:50Z</time>
      </trkpt>
      <trkpt lat="49.99274" lon="4.10638">
        <ele>238</ele>
        <time>2024-04-28T07:31:51Z</time>
      </trkpt>
      <trkpt lat="49.99271" lon="4.10625">
        <ele>238</ele>
        <time>2024-04-28T07:31:52Z</time>
      </trkpt>
      <trkpt lat="49.99269" lon="4.10611">
        <ele>237.8</ele>
        <time>2024-04-28T07:31:53Z</time>
      </trkpt>
      <trkpt lat="49.99266" lon="4.10598">
        <ele>237.8</ele>
        <time>2024-04-28T07:31:54Z</time>
      </trkpt>
      <trkpt lat="49.99264" lon="4.10585">
        <ele>237.6</ele>
        <time>2024-04-28T07:31:55Z</time>
      </trkpt>
      <trkpt lat="49.99261" lon="4.10571">
        <ele>237.6</ele>
        <time>2024-04-28T07:31:56Z</time>
      </trkpt>
      <trkpt lat="49.99258" lon="4.10558">
        <ele>237.6</ele>
        <time>2024-04-28T07:31:57Z</time>
      </trkpt>
      <trkpt lat="49.99256" lon="4.10544">
        <ele>237.4</ele>
        <time>2024-04-28T07:31:58Z</time>
      </trkpt>
      <trkpt lat="49.99253" lon="4.10531">
        <ele>237.4</ele>
        <time>2024-04-28T07:31:59Z</time>
      </trkpt>
      <trkpt lat="49.9925" lon="4.10517">
        <ele>237.6</ele>
        <time>2024-04-28T07:32:00Z</time>
      </trkpt>
      <trkpt lat="49.99247" lon="4.10504">
        <ele>237.6</ele>
        <time>2024-04-28T07:32:01Z</time>
      </trkpt>
      <trkpt lat="49.99245" lon="4.1049">
        <ele>237.6</ele>
        <time>2024-04-28T07:32:02Z</time>
      </trkpt>
      <trkpt lat="49.99242" lon="4.10476">
        <ele>237.4</ele>
        <time>2024-04-28T07:32:03Z</time>
      </trkpt>
      <trkpt lat="49.99239" lon="4.10463">
        <ele>237.2</ele>
        <time>2024-04-28T07:32:04Z</time>
      </trkpt>
      <trkpt lat="49.99237" lon="4.10449">
        <ele>237</ele>
        <time>2024-04-28T07:32:05Z</time>
      </trkpt>
      <trkpt lat="49.99234" lon="4.10435">
        <ele>237.2</ele>
        <time>2024-04-28T07:32:06Z</time>
      </trkpt>
      <trkpt lat="49.99232" lon="4.10421">
        <ele>237</ele>
        <time>2024-04-28T07:32:07Z</time>
      </trkpt>
      <trkpt lat="49.99229" lon="4.10407">
        <ele>237</ele>
        <time>2024-04-28T07:32:08Z</time>
      </trkpt>
      <trkpt lat="49.99227" lon="4.10393">
        <ele>237</ele>
        <time>2024-04-28T07:32:09Z</time>
      </trkpt>
      <trkpt lat="49.99224" lon="4.10379">
        <ele>237</ele>
        <time>2024-04-28T07:32:10Z</time>
      </trkpt>
      <trkpt lat="49.99222" lon="4.10365">
        <ele>237</ele>
        <time>2024-04-28T07:32:11Z</time>
      </trkpt>
      <trkpt lat="49.99221" lon="4.10351">
        <ele>237</ele>
        <time>2024-04-28T07:32:12Z</time>
      </trkpt>
      <trkpt lat="49.99219" lon="4.10336">
        <ele>236.8</ele>
        <time>2024-04-28T07:32:13Z</time>
      </trkpt>
      <trkpt lat="49.99218" lon="4.10322">
        <ele>236.8</ele>
        <time>2024-04-28T07:32:14Z</time>
      </trkpt>
      <trkpt lat="49.99217" lon="4.10307">
        <ele>236.8</ele>
        <time>2024-04-28T07:32:15Z</time>
      </trkpt>
      <trkpt lat="49.99217" lon="4.10293">
        <ele>236.4</ele>
        <time>2024-04-28T07:32:16Z</time>
      </trkpt>
      <trkpt lat="49.99216" lon="4.10279">
        <ele>236.4</ele>
        <time>2024-04-28T07:32:17Z</time>
      </trkpt>
      <trkpt lat="49.99215" lon="4.10265">
        <ele>236.4</ele>
        <time>2024-04-28T07:32:18Z</time>
      </trkpt>
      <trkpt lat="49.99214" lon="4.10252">
        <ele>236</ele>
        <time>2024-04-28T07:32:19Z</time>
      </trkpt>
      <trkpt lat="49.99214" lon="4.10238">
        <ele>236</ele>
        <time>2024-04-28T07:32:20Z</time>
      </trkpt>
      <trkpt lat="49.99213" lon="4.10225">
        <ele>236</ele>
        <time>2024-04-28T07:32:21Z</time>
      </trkpt>
      <trkpt lat="49.99212" lon="4.10212">
        <ele>236</ele>
        <time>2024-04-28T07:32:22Z</time>
      </trkpt>
      <trkpt lat="49.99212" lon="4.10198">
        <ele>235.8</ele>
        <time>2024-04-28T07:32:23Z</time>
      </trkpt>
      <trkpt lat="49.99211" lon="4.10185">
        <ele>235.6</ele>
        <time>2024-04-28T07:32:24Z</time>
      </trkpt>
      <trkpt lat="49.9921" lon="4.10172">
        <ele>235.4</ele>
        <time>2024-04-28T07:32:25Z</time>
      </trkpt>
      <trkpt lat="49.9921" lon="4.10158">
        <ele>235</ele>
        <time>2024-04-28T07:32:26Z</time>
      </trkpt>
      <trkpt lat="49.99209" lon="4.10145">
        <ele>234.8</ele>
        <time>2024-04-28T07:32:27Z</time>
      </trkpt>
      <trkpt lat="49.99208" lon="4.1013">
        <ele>234.6</ele>
        <time>2024-04-28T07:32:28Z</time>
      </trkpt>
      <trkpt lat="49.99207" lon="4.10116">
        <ele>234.6</ele>
        <time>2024-04-28T07:32:29Z</time>
      </trkpt>
      <trkpt lat="49.99206" lon="4.10101">
        <ele>234.2</ele>
        <time>2024-04-28T07:32:30Z</time>
      </trkpt>
      <trkpt lat="49.99205" lon="4.10087">
        <ele>234</ele>
        <time>2024-04-28T07:32:31Z</time>
      </trkpt>
      <trkpt lat="49.99204" lon="4.10072">
        <ele>233.8</ele>
        <time>2024-04-28T07:32:32Z</time>
      </trkpt>
      <trkpt lat="49.99202" lon="4.10058">
        <ele>233.6</ele>
        <time>2024-04-28T07:32:33Z</time>
      </trkpt>
      <trkpt lat="49.992" lon="4.10043">
        <ele>233.6</ele>
        <time>2024-04-28T07:32:34Z</time>
      </trkpt>
      <trkpt lat="49.99198" lon="4.10029">
        <ele>233.4</ele>
        <time>2024-04-28T07:32:35Z</time>
      </trkpt>
      <trkpt lat="49.99196" lon="4.10014">
        <ele>233.2</ele>
        <time>2024-04-28T07:32:36Z</time>
      </trkpt>
      <trkpt lat="49.99194" lon="4.09999">
        <ele>233.2</ele>
        <time>2024-04-28T07:32:37Z</time>
      </trkpt>
      <trkpt lat="49.99192" lon="4.09984">
        <ele>233</ele>
        <time>2024-04-28T07:32:38Z</time>
      </trkpt>
      <trkpt lat="49.9919" lon="4.09968">
        <ele>232.4</ele>
        <time>2024-04-28T07:32:39Z</time>
      </trkpt>
      <trkpt lat="49.99187" lon="4.09954">
        <ele>231.8</ele>
        <time>2024-04-28T07:32:40Z</time>
      </trkpt>
      <trkpt lat="49.99182" lon="4.09941">
        <ele>231.2</ele>
        <time>2024-04-28T07:32:41Z</time>
      </trkpt>
      <trkpt lat="49.99176" lon="4.09929">
        <ele>230.6</ele>
        <time>2024-04-28T07:32:42Z</time>
      </trkpt>
      <trkpt lat="49.99169" lon="4.09919">
        <ele>229.6</ele>
        <time>2024-04-28T07:32:43Z</time>
      </trkpt>
      <trkpt lat="49.99161" lon="4.0991">
        <ele>228.4</ele>
        <time>2024-04-28T07:32:44Z</time>
      </trkpt>
      <trkpt lat="49.99151" lon="4.09902">
        <ele>227.6</ele>
        <time>2024-04-28T07:32:45Z</time>
      </trkpt>
      <trkpt lat="49.99142" lon="4.09894">
        <ele>227</ele>
        <time>2024-04-28T07:32:46Z</time>
      </trkpt>
      <trkpt lat="49.99132" lon="4.09885">
        <ele>226</ele>
        <time>2024-04-28T07:32:47Z</time>
      </trkpt>
      <trkpt lat="49.99121" lon="4.09877">
        <ele>225</ele>
        <time>2024-04-28T07:32:48Z</time>
      </trkpt>
      <trkpt lat="49.99111" lon="4.09867">
        <ele>223.6</ele>
        <time>2024-04-28T07:32:49Z</time>
      </trkpt>
      <trkpt lat="49.99101" lon="4.09858">
        <ele>222.4</ele>
        <time>2024-04-28T07:32:50Z</time>
      </trkpt>
      <trkpt lat="49.99091" lon="4.09848">
        <ele>221</ele>
        <time>2024-04-28T07:32:51Z</time>
      </trkpt>
      <trkpt lat="49.99082" lon="4.09836">
        <ele>219.4</ele>
        <time>2024-04-28T07:32:52Z</time>
      </trkpt>
      <trkpt lat="49.99074" lon="4.09824">
        <ele>218</ele>
        <time>2024-04-28T07:32:53Z</time>
      </trkpt>
      <trkpt lat="49.99066" lon="4.09812">
        <ele>216.6</ele>
        <time>2024-04-28T07:32:54Z</time>
      </trkpt>
      <trkpt lat="49.99059" lon="4.09799">
        <ele>216.6</ele>
        <time>2024-04-28T07:32:55Z</time>
      </trkpt>
      <trkpt lat="49.99052" lon="4.09787">
        <ele>215.6</ele>
        <time>2024-04-28T07:32:56Z</time>
      </trkpt>
      <trkpt lat="49.99045" lon="4.09776">
        <ele>213.8</ele>
        <time>2024-04-28T07:32:57Z</time>
      </trkpt>
      <trkpt lat="49.99039" lon="4.09764">
        <ele>213</ele>
        <time>2024-04-28T07:32:58Z</time>
      </trkpt>
      <trkpt lat="49.99033" lon="4.09753">
        <ele>212.6</ele>
        <time>2024-04-28T07:32:59Z</time>
      </trkpt>
      <trkpt lat="49.99027" lon="4.09742">
        <ele>212.4</ele>
        <time>2024-04-28T07:33:00Z</time>
      </trkpt>
      <trkpt lat="49.99022" lon="4.09731">
        <ele>212.4</ele>
        <time>2024-04-28T07:33:01Z</time>
      </trkpt>
      <trkpt lat="49.99018" lon="4.09719">
        <ele>212.2</ele>
        <time>2024-04-28T07:33:02Z</time>
      </trkpt>
      <trkpt lat="49.99015" lon="4.09707">
        <ele>212.2</ele>
        <time>2024-04-28T07:33:03Z</time>
      </trkpt>
      <trkpt lat="49.99015" lon="4.09695">
        <ele>212.2</ele>
        <time>2024-04-28T07:33:04Z</time>
      </trkpt>
      <trkpt lat="49.99016" lon="4.09684">
        <ele>212</ele>
        <time>2024-04-28T07:33:05Z</time>
      </trkpt>
      <trkpt lat="49.99017" lon="4.09675">
        <ele>212</ele>
        <time>2024-04-28T07:33:06Z</time>
      </trkpt>
      <trkpt lat="49.99018" lon="4.09667">
        <ele>211.8</ele>
        <time>2024-04-28T07:33:07Z</time>
      </trkpt>
      <trkpt lat="49.9902" lon="4.09659">
        <ele>211.8</ele>
        <time>2024-04-28T07:33:08Z</time>
      </trkpt>
      <trkpt lat="49.99021" lon="4.09651">
        <ele>212</ele>
        <time>2024-04-28T07:33:09Z</time>
      </trkpt>
      <trkpt lat="49.99025" lon="4.09644">
        <ele>212.2</ele>
        <time>2024-04-28T07:33:10Z</time>
      </trkpt>
      <trkpt lat="49.99029" lon="4.09639">
        <ele>212.4</ele>
        <time>2024-04-28T07:33:11Z</time>
      </trkpt>
      <trkpt lat="49.99033" lon="4.09634">
        <ele>212.6</ele>
        <time>2024-04-28T07:33:12Z</time>
      </trkpt>
      <trkpt lat="49.99035" lon="4.09626">
        <ele>213</ele>
        <time>2024-04-28T07:33:13Z</time>
      </trkpt>
      <trkpt lat="49.99034" lon="4.09618">
        <ele>213</ele>
        <time>2024-04-28T07:33:14Z</time>
      </trkpt>
      <trkpt lat="49.99031" lon="4.09612">
        <ele>213.2</ele>
        <time>2024-04-28T07:33:15Z</time>
      </trkpt>
      <trkpt lat="49.99027" lon="4.09606">
        <ele>213.4</ele>
        <time>2024-04-28T07:33:16Z</time>
      </trkpt>
      <trkpt lat="49.99024" lon="4.096">
        <ele>213.4</ele>
        <time>2024-04-28T07:33:17Z</time>
      </trkpt>
      <trkpt lat="49.99021" lon="4.09592">
        <ele>213.6</ele>
        <time>2024-04-28T07:33:18Z</time>
      </trkpt>
      <trkpt lat="49.9902" lon="4.09584">
        <ele>213.6</ele>
        <time>2024-04-28T07:33:19Z</time>
      </trkpt>
      <trkpt lat="49.9902" lon="4.09575">
        <ele>213.6</ele>
        <time>2024-04-28T07:33:20Z</time>
      </trkpt>
      <trkpt lat="49.99021" lon="4.09566">
        <ele>214.2</ele>
        <time>2024-04-28T07:33:21Z</time>
      </trkpt>
      <trkpt lat="49.99021" lon="4.09557">
        <ele>214.6</ele>
        <time>2024-04-28T07:33:22Z</time>
      </trkpt>
      <trkpt lat="49.99022" lon="4.09549">
        <ele>214.8</ele>
        <time>2024-04-28T07:33:23Z</time>
      </trkpt>
      <trkpt lat="49.99022" lon="4.09541">
        <ele>215.2</ele>
        <time>2024-04-28T07:33:24Z</time>
      </trkpt>
      <trkpt lat="49.99023" lon="4.09533">
        <ele>215.4</ele>
        <time>2024-04-28T07:33:25Z</time>
      </trkpt>
      <trkpt lat="49.99024" lon="4.09526">
        <ele>215.4</ele>
        <time>2024-04-28T07:33:26Z</time>
      </trkpt>
      <trkpt lat="49.99025" lon="4.09518">
        <ele>215.8</ele>
        <time>2024-04-28T07:33:27Z</time>
      </trkpt>
      <trkpt lat="49.99027" lon="4.09511">
        <ele>216</ele>
        <time>2024-04-28T07:33:28Z</time>
      </trkpt>
      <trkpt lat="49.99028" lon="4.09505">
        <ele>216</ele>
        <time>2024-04-28T07:33:29Z</time>
      </trkpt>
      <trkpt lat="49.9903" lon="4.09498">
        <ele>216</ele>
        <time>2024-04-28T07:33:30Z</time>
      </trkpt>
      <trkpt lat="49.99033" lon="4.09492">
        <ele>216.2</ele>
        <time>2024-04-28T07:33:31Z</time>
      </trkpt>
      <trkpt lat="49.99036" lon="4.09485">
        <ele>216.2</ele>
        <time>2024-04-28T07:33:32Z</time>
      </trkpt>
      <trkpt lat="49.99039" lon="4.09479">
        <ele>216.2</ele>
        <time>2024-04-28T07:33:33Z</time>
      </trkpt>
      <trkpt lat="49.99042" lon="4.09473">
        <ele>216.6</ele>
        <time>2024-04-28T07:33:34Z</time>
      </trkpt>
      <trkpt lat="49.99045" lon="4.09467">
        <ele>217</ele>
        <time>2024-04-28T07:33:35Z</time>
      </trkpt>
      <trkpt lat="49.99049" lon="4.09462">
        <ele>217.4</ele>
        <time>2024-04-28T07:33:36Z</time>
      </trkpt>
      <trkpt lat="49.99053" lon="4.09457">
        <ele>217.6</ele>
        <time>2024-04-28T07:33:37Z</time>
      </trkpt>
      <trkpt lat="49.99057" lon="4.09453">
        <ele>217.8</ele>
        <time>2024-04-28T07:33:38Z</time>
      </trkpt>
      <trkpt lat="49.99061" lon="4.09448">
        <ele>218.2</ele>
        <time>2024-04-28T07:33:39Z</time>
      </trkpt>
      <trkpt lat="49.99065" lon="4.09444">
        <ele>218.4</ele>
        <time>2024-04-28T07:33:40Z</time>
      </trkpt>
      <trkpt lat="49.99069" lon="4.0944">
        <ele>219</ele>
        <time>2024-04-28T07:33:41Z</time>
      </trkpt>
      <trkpt lat="49.99073" lon="4.09436">
        <ele>219.6</ele>
        <time>2024-04-28T07:33:42Z</time>
      </trkpt>
      <trkpt lat="49.99078" lon="4.09432">
        <ele>220.2</ele>
        <time>2024-04-28T07:33:43Z</time>
      </trkpt>
      <trkpt lat="49.99082" lon="4.09428">
        <ele>220.6</ele>
        <time>2024-04-28T07:33:44Z</time>
      </trkpt>
      <trkpt lat="49.99086" lon="4.09425">
        <ele>220.8</ele>
        <time>2024-04-28T07:33:45Z</time>
      </trkpt>
      <trkpt lat="49.99091" lon="4.0942">
        <ele>221.2</ele>
        <time>2024-04-28T07:33:46Z</time>
      </trkpt>
      <trkpt lat="49.99096" lon="4.09416">
        <ele>221.2</ele>
        <time>2024-04-28T07:33:47Z</time>
      </trkpt>
      <trkpt lat="49.99101" lon="4.09412">
        <ele>221.6</ele>
        <time>2024-04-28T07:33:48Z</time>
      </trkpt>
      <trkpt lat="49.99105" lon="4.09408">
        <ele>222</ele>
        <time>2024-04-28T07:33:49Z</time>
      </trkpt>
      <trkpt lat="49.9911" lon="4.09404">
        <ele>222.2</ele>
        <time>2024-04-28T07:33:50Z</time>
      </trkpt>
      <trkpt lat="49.99114" lon="4.094">
        <ele>223.2</ele>
        <time>2024-04-28T07:33:51Z</time>
      </trkpt>
      <trkpt lat="49.99119" lon="4.09395">
        <ele>223.6</ele>
        <time>2024-04-28T07:33:52Z</time>
      </trkpt>
      <trkpt lat="49.99124" lon="4.09391">
        <ele>224.2</ele>
        <time>2024-04-28T07:33:53Z</time>
      </trkpt>
      <trkpt lat="49.99129" lon="4.09387">
        <ele>224.4</ele>
        <time>2024-04-28T07:33:54Z</time>
      </trkpt>
      <trkpt lat="49.99134" lon="4.09383">
        <ele>224.6</ele>
        <time>2024-04-28T07:33:55Z</time>
      </trkpt>
      <trkpt lat="49.99139" lon="4.09378">
        <ele>224.8</ele>
        <time>2024-04-28T07:33:56Z</time>
      </trkpt>
      <trkpt lat="49.99145" lon="4.09373">
        <ele>225</ele>
        <time>2024-04-28T07:33:57Z</time>
      </trkpt>
      <trkpt lat="49.9915" lon="4.09367">
        <ele>225.4</ele>
        <time>2024-04-28T07:33:58Z</time>
      </trkpt>
      <trkpt lat="49.99155" lon="4.09361">
        <ele>225.6</ele>
        <time>2024-04-28T07:33:59Z</time>
      </trkpt>
      <trkpt lat="49.99159" lon="4.09354">
        <ele>225.8</ele>
        <time>2024-04-28T07:34:00Z</time>
      </trkpt>
      <trkpt lat="49.99164" lon="4.09347">
        <ele>226.2</ele>
        <time>2024-04-28T07:34:01Z</time>
      </trkpt>
      <trkpt lat="49.99169" lon="4.0934">
        <ele>226.8</ele>
        <time>2024-04-28T07:34:02Z</time>
      </trkpt>
      <trkpt lat="49.99174" lon="4.09333">
        <ele>227.4</ele>
        <time>2024-04-28T07:34:03Z</time>
      </trkpt>
      <trkpt lat="49.99179" lon="4.09325">
        <ele>227.8</ele>
        <time>2024-04-28T07:34:04Z</time>
      </trkpt>
      <trkpt lat="49.99185" lon="4.09318">
        <ele>227.8</ele>
        <time>2024-04-28T07:34:05Z</time>
      </trkpt>
      <trkpt lat="49.9919" lon="4.0931">
        <ele>228.8</ele>
        <time>2024-04-28T07:34:06Z</time>
      </trkpt>
      <trkpt lat="49.99195" lon="4.09303">
        <ele>229.6</ele>
        <time>2024-04-28T07:34:07Z</time>
      </trkpt>
      <trkpt lat="49.992" lon="4.09295">
        <ele>230.4</ele>
        <time>2024-04-28T07:34:08Z</time>
      </trkpt>
      <trkpt lat="49.99205" lon="4.09287">
        <ele>230.6</ele>
        <time>2024-04-28T07:34:09Z</time>
      </trkpt>
      <trkpt lat="49.9921" lon="4.0928">
        <ele>231</ele>
        <time>2024-04-28T07:34:10Z</time>
      </trkpt>
      <trkpt lat="49.99215" lon="4.09272">
        <ele>231.2</ele>
        <time>2024-04-28T07:34:11Z</time>
      </trkpt>
      <trkpt lat="49.99219" lon="4.09264">
        <ele>231.2</ele>
        <time>2024-04-28T07:34:12Z</time>
      </trkpt>
      <trkpt lat="49.99224" lon="4.09257">
        <ele>231.2</ele>
        <time>2024-04-28T07:34:13Z</time>
      </trkpt>
      <trkpt lat="49.99229" lon="4.09249">
        <ele>231.4</ele>
        <time>2024-04-28T07:34:14Z</time>
      </trkpt>
      <trkpt lat="49.99234" lon="4.09241">
        <ele>231.4</ele>
        <time>2024-04-28T07:34:15Z</time>
      </trkpt>
      <trkpt lat="49.99238" lon="4.09233">
        <ele>231.4</ele>
        <time>2024-04-28T07:34:16Z</time>
      </trkpt>
      <trkpt lat="49.99243" lon="4.09224">
        <ele>231.4</ele>
        <time>2024-04-28T07:34:17Z</time>
      </trkpt>
      <trkpt lat="49.99247" lon="4.09216">
        <ele>231.6</ele>
        <time>2024-04-28T07:34:18Z</time>
      </trkpt>
      <trkpt lat="49.99252" lon="4.09207">
        <ele>231.4</ele>
        <time>2024-04-28T07:34:19Z</time>
      </trkpt>
      <trkpt lat="49.99256" lon="4.09198">
        <ele>231.6</ele>
        <time>2024-04-28T07:34:20Z</time>
      </trkpt>
      <trkpt lat="49.99261" lon="4.09189">
        <ele>232</ele>
        <time>2024-04-28T07:34:21Z</time>
      </trkpt>
      <trkpt lat="49.99266" lon="4.09181">
        <ele>232</ele>
        <time>2024-04-28T07:34:22Z</time>
      </trkpt>
      <trkpt lat="49.99271" lon="4.09173">
        <ele>231.8</ele>
        <time>2024-04-28T07:34:23Z</time>
      </trkpt>
      <trkpt lat="49.99276" lon="4.09165">
        <ele>232</ele>
        <time>2024-04-28T07:34:24Z</time>
      </trkpt>
      <trkpt lat="49.99281" lon="4.09157">
        <ele>232</ele>
        <time>2024-04-28T07:34:25Z</time>
      </trkpt>
      <trkpt lat="49.99287" lon="4.09149">
        <ele>232</ele>
        <time>2024-04-28T07:34:26Z</time>
      </trkpt>
      <trkpt lat="49.99293" lon="4.09142">
        <ele>232.2</ele>
        <time>2024-04-28T07:34:27Z</time>
      </trkpt>
      <trkpt lat="49.99298" lon="4.09134">
        <ele>232.2</ele>
        <time>2024-04-28T07:34:28Z</time>
      </trkpt>
      <trkpt lat="49.99305" lon="4.09127">
        <ele>232.2</ele>
        <time>2024-04-28T07:34:29Z</time>
      </trkpt>
      <trkpt lat="49.99311" lon="4.09119">
        <ele>232.2</ele>
        <time>2024-04-28T07:34:30Z</time>
      </trkpt>
      <trkpt lat="49.99317" lon="4.09111">
        <ele>232</ele>
        <time>2024-04-28T07:34:31Z</time>
      </trkpt>
      <trkpt lat="49.99323" lon="4.09103">
        <ele>232.2</ele>
        <time>2024-04-28T07:34:32Z</time>
      </trkpt>
      <trkpt lat="49.99329" lon="4.09095">
        <ele>232.2</ele>
        <time>2024-04-28T07:34:33Z</time>
      </trkpt>
      <trkpt lat="49.99336" lon="4.09086">
        <ele>232</ele>
        <time>2024-04-28T07:34:34Z</time>
      </trkpt>
      <trkpt lat="49.99342" lon="4.09078">
        <ele>232</ele>
        <time>2024-04-28T07:34:35Z</time>
      </trkpt>
      <trkpt lat="49.99349" lon="4.0907">
        <ele>232</ele>
        <time>2024-04-28T07:34:36Z</time>
      </trkpt>
      <trkpt lat="49.99355" lon="4.0906">
        <ele>232</ele>
        <time>2024-04-28T07:34:37Z</time>
      </trkpt>
      <trkpt lat="49.99361" lon="4.0905">
        <ele>232</ele>
        <time>2024-04-28T07:34:38Z</time>
      </trkpt>
      <trkpt lat="49.99366" lon="4.09038">
        <ele>231.8</ele>
        <time>2024-04-28T07:34:39Z</time>
      </trkpt>
      <trkpt lat="49.99369" lon="4.09024">
        <ele>231.8</ele>
        <time>2024-04-28T07:34:40Z</time>
      </trkpt>
      <trkpt lat="49.99372" lon="4.09009">
        <ele>231.8</ele>
        <time>2024-04-28T07:34:41Z</time>
      </trkpt>
      <trkpt lat="49.99373" lon="4.08994">
        <ele>231.4</ele>
        <time>2024-04-28T07:34:42Z</time>
      </trkpt>
      <trkpt lat="49.99373" lon="4.08978">
        <ele>231.4</ele>
        <time>2024-04-28T07:34:43Z</time>
      </trkpt>
      <trkpt lat="49.99373" lon="4.08964">
        <ele>231.2</ele>
        <time>2024-04-28T07:34:44Z</time>
      </trkpt>
      <trkpt lat="49.99373" lon="4.08949">
        <ele>231</ele>
        <time>2024-04-28T07:34:45Z</time>
      </trkpt>
      <trkpt lat="49.99371" lon="4.08935">
        <ele>230.8</ele>
        <time>2024-04-28T07:34:46Z</time>
      </trkpt>
      <trkpt lat="49.99367" lon="4.08921">
        <ele>230.2</ele>
        <time>2024-04-28T07:34:47Z</time>
      </trkpt>
      <trkpt lat="49.99363" lon="4.08908">
        <ele>229.4</ele>
        <time>2024-04-28T07:34:48Z</time>
      </trkpt>
      <trkpt lat="49.99359" lon="4.08897">
        <ele>229</ele>
        <time>2024-04-28T07:34:49Z</time>
      </trkpt>
      <trkpt lat="49.99354" lon="4.08885">
        <ele>228</ele>
        <time>2024-04-28T07:34:50Z</time>
      </trkpt>
      <trkpt lat="49.9935" lon="4.08874">
        <ele>226.8</ele>
        <time>2024-04-28T07:34:51Z</time>
      </trkpt>
      <trkpt lat="49.99347" lon="4.08863">
        <ele>226</ele>
        <time>2024-04-28T07:34:52Z</time>
      </trkpt>
      <trkpt lat="49.99343" lon="4.08853">
        <ele>225.4</ele>
        <time>2024-04-28T07:34:53Z</time>
      </trkpt>
      <trkpt lat="49.9934" lon="4.08843">
        <ele>225.2</ele>
        <time>2024-04-28T07:34:54Z</time>
      </trkpt>
      <trkpt lat="49.99336" lon="4.08834">
        <ele>225.2</ele>
        <time>2024-04-28T07:34:55Z</time>
      </trkpt>
      <trkpt lat="49.99333" lon="4.08825">
        <ele>225.2</ele>
        <time>2024-04-28T07:34:56Z</time>
      </trkpt>
      <trkpt lat="49.9933" lon="4.08816">
        <ele>225.2</ele>
        <time>2024-04-28T07:34:57Z</time>
      </trkpt>
      <trkpt lat="49.99326" lon="4.08807">
        <ele>225.2</ele>
        <time>2024-04-28T07:34:58Z</time>
      </trkpt>
      <trkpt lat="49.99323" lon="4.08799">
        <ele>225.2</ele>
        <time>2024-04-28T07:34:59Z</time>
      </trkpt>
      <trkpt lat="49.9932" lon="4.0879">
        <ele>225.2</ele>
        <time>2024-04-28T07:35:00Z</time>
      </trkpt>
      <trkpt lat="49.99317" lon="4.08782">
        <ele>225</ele>
        <time>2024-04-28T07:35:01Z</time>
      </trkpt>
      <trkpt lat="49.99314" lon="4.08773">
        <ele>225</ele>
        <time>2024-04-28T07:35:02Z</time>
      </trkpt>
      <trkpt lat="49.99312" lon="4.08765">
        <ele>225.2</ele>
        <time>2024-04-28T07:35:03Z</time>
      </trkpt>
      <trkpt lat="49.99309" lon="4.08757">
        <ele>225.6</ele>
        <time>2024-04-28T07:35:04Z</time>
      </trkpt>
      <trkpt lat="49.99306" lon="4.08748">
        <ele>226.4</ele>
        <time>2024-04-28T07:35:05Z</time>
      </trkpt>
      <trkpt lat="49.99303" lon="4.0874">
        <ele>227</ele>
        <time>2024-04-28T07:35:06Z</time>
      </trkpt>
      <trkpt lat="49.993" lon="4.08732">
        <ele>227.4</ele>
        <time>2024-04-28T07:35:07Z</time>
      </trkpt>
      <trkpt lat="49.99297" lon="4.08725">
        <ele>227.8</ele>
        <time>2024-04-28T07:35:08Z</time>
      </trkpt>
      <trkpt lat="49.99294" lon="4.08717">
        <ele>228</ele>
        <time>2024-04-28T07:35:09Z</time>
      </trkpt>
      <trkpt lat="49.99292" lon="4.08709">
        <ele>228.4</ele>
        <time>2024-04-28T07:35:10Z</time>
      </trkpt>
      <trkpt lat="49.9929" lon="4.08701">
        <ele>228.8</ele>
        <time>2024-04-28T07:35:11Z</time>
      </trkpt>
      <trkpt lat="49.99289" lon="4.08692">
        <ele>229.2</ele>
        <time>2024-04-28T07:35:12Z</time>
      </trkpt>
      <trkpt lat="49.99289" lon="4.08683">
        <ele>229.8</ele>
        <time>2024-04-28T07:35:13Z</time>
      </trkpt>
      <trkpt lat="49.99289" lon="4.08675">
        <ele>230</ele>
        <time>2024-04-28T07:35:14Z</time>
      </trkpt>
      <trkpt lat="49.99291" lon="4.08666">
        <ele>230.8</ele>
        <time>2024-04-28T07:35:15Z</time>
      </trkpt>
      <trkpt lat="49.99293" lon="4.08658">
        <ele>230.8</ele>
        <time>2024-04-28T07:35:16Z</time>
      </trkpt>
      <trkpt lat="49.99295" lon="4.0865">
        <ele>231.4</ele>
        <time>2024-04-28T07:35:17Z</time>
      </trkpt>
      <trkpt lat="49.99298" lon="4.08642">
        <ele>232</ele>
        <time>2024-04-28T07:35:18Z</time>
      </trkpt>
      <trkpt lat="49.993" lon="4.08633">
        <ele>232.6</ele>
        <time>2024-04-28T07:35:19Z</time>
      </trkpt>
      <trkpt lat="49.99303" lon="4.08625">
        <ele>233.2</ele>
        <time>2024-04-28T07:35:20Z</time>
      </trkpt>
      <trkpt lat="49.99306" lon="4.08616">
        <ele>233.6</ele>
        <time>2024-04-28T07:35:21Z</time>
      </trkpt>
      <trkpt lat="49.99308" lon="4.08608">
        <ele>234</ele>
        <time>2024-04-28T07:35:22Z</time>
      </trkpt>
      <trkpt lat="49.99311" lon="4.08599">
        <ele>234.2</ele>
        <time>2024-04-28T07:35:23Z</time>
      </trkpt>
      <trkpt lat="49.99313" lon="4.08591">
        <ele>234.6</ele>
        <time>2024-04-28T07:35:24Z</time>
      </trkpt>
      <trkpt lat="49.99316" lon="4.08582">
        <ele>234.8</ele>
        <time>2024-04-28T07:35:25Z</time>
      </trkpt>
      <trkpt lat="49.99319" lon="4.08573">
        <ele>235</ele>
        <time>2024-04-28T07:35:26Z</time>
      </trkpt>
      <trkpt lat="49.99321" lon="4.08563">
        <ele>235</ele>
        <time>2024-04-28T07:35:27Z</time>
      </trkpt>
      <trkpt lat="49.99324" lon="4.08554">
        <ele>235</ele>
        <time>2024-04-28T07:35:28Z</time>
      </trkpt>
      <trkpt lat="49.99327" lon="4.08544">
        <ele>235.2</ele>
        <time>2024-04-28T07:35:29Z</time>
      </trkpt>
      <trkpt lat="49.9933" lon="4.08535">
        <ele>235.4</ele>
        <time>2024-04-28T07:35:30Z</time>
      </trkpt>
      <trkpt lat="49.99333" lon="4.08526">
        <ele>235.4</ele>
        <time>2024-04-28T07:35:31Z</time>
      </trkpt>
      <trkpt lat="49.99336" lon="4.08517">
        <ele>235.6</ele>
        <time>2024-04-28T07:35:32Z</time>
      </trkpt>
      <trkpt lat="49.9934" lon="4.08508">
        <ele>235.8</ele>
        <time>2024-04-28T07:35:33Z</time>
      </trkpt>
      <trkpt lat="49.99343" lon="4.08499">
        <ele>235.8</ele>
        <time>2024-04-28T07:35:34Z</time>
      </trkpt>
      <trkpt lat="49.99346" lon="4.08489">
        <ele>235.8</ele>
        <time>2024-04-28T07:35:35Z</time>
      </trkpt>
      <trkpt lat="49.9935" lon="4.0848">
        <ele>236</ele>
        <time>2024-04-28T07:35:36Z</time>
      </trkpt>
      <trkpt lat="49.99353" lon="4.0847">
        <ele>236.2</ele>
        <time>2024-04-28T07:35:37Z</time>
      </trkpt>
      <trkpt lat="49.99357" lon="4.08461">
        <ele>236.4</ele>
        <time>2024-04-28T07:35:38Z</time>
      </trkpt>
      <trkpt lat="49.9936" lon="4.08451">
        <ele>236.8</ele>
        <time>2024-04-28T07:35:39Z</time>
      </trkpt>
      <trkpt lat="49.99364" lon="4.08441">
        <ele>237</ele>
        <time>2024-04-28T07:35:40Z</time>
      </trkpt>
      <trkpt lat="49.99368" lon="4.08431">
        <ele>237.2</ele>
        <time>2024-04-28T07:35:41Z</time>
      </trkpt>
      <trkpt lat="49.99372" lon="4.08421">
        <ele>237.2</ele>
        <time>2024-04-28T07:35:42Z</time>
      </trkpt>
      <trkpt lat="49.99376" lon="4.08411">
        <ele>237.4</ele>
        <time>2024-04-28T07:35:43Z</time>
      </trkpt>
      <trkpt lat="49.9938" lon="4.08401">
        <ele>237.4</ele>
        <time>2024-04-28T07:35:44Z</time>
      </trkpt>
      <trkpt lat="49.99383" lon="4.0839">
        <ele>237.2</ele>
        <time>2024-04-28T07:35:45Z</time>
      </trkpt>
      <trkpt lat="49.99387" lon="4.0838">
        <ele>237.2</ele>
        <time>2024-04-28T07:35:46Z</time>
      </trkpt>
      <trkpt lat="49.99391" lon="4.0837">
        <ele>237.4</ele>
        <time>2024-04-28T07:35:47Z</time>
      </trkpt>
      <trkpt lat="49.99395" lon="4.08359">
        <ele>237.4</ele>
        <time>2024-04-28T07:35:48Z</time>
      </trkpt>
      <trkpt lat="49.99399" lon="4.08349">
        <ele>237.4</ele>
        <time>2024-04-28T07:35:49Z</time>
      </trkpt>
      <trkpt lat="49.99403" lon="4.08338">
        <ele>237.4</ele>
        <time>2024-04-28T07:35:50Z</time>
      </trkpt>
      <trkpt lat="49.99407" lon="4.08328">
        <ele>237.4</ele>
        <time>2024-04-28T07:35:51Z</time>
      </trkpt>
      <trkpt lat="49.99411" lon="4.08318">
        <ele>237</ele>
        <time>2024-04-28T07:35:52Z</time>
      </trkpt>
      <trkpt lat="49.99414" lon="4.08308">
        <ele>236.8</ele>
        <time>2024-04-28T07:35:53Z</time>
      </trkpt>
      <trkpt lat="49.99418" lon="4.08298">
        <ele>236.2</ele>
        <time>2024-04-28T07:35:54Z</time>
      </trkpt>
      <trkpt lat="49.99422" lon="4.08289">
        <ele>235.8</ele>
        <time>2024-04-28T07:35:55Z</time>
      </trkpt>
      <trkpt lat="49.99425" lon="4.08279">
        <ele>235.8</ele>
        <time>2024-04-28T07:35:56Z</time>
      </trkpt>
      <trkpt lat="49.99429" lon="4.08269">
        <ele>235.6</ele>
        <time>2024-04-28T07:35:57Z</time>
      </trkpt>
      <trkpt lat="49.99432" lon="4.0826">
        <ele>235.6</ele>
        <time>2024-04-28T07:35:58Z</time>
      </trkpt>
      <trkpt lat="49.99436" lon="4.0825">
        <ele>235.4</ele>
        <time>2024-04-28T07:35:59Z</time>
      </trkpt>
      <trkpt lat="49.9944" lon="4.08241">
        <ele>235.2</ele>
        <time>2024-04-28T07:36:00Z</time>
      </trkpt>
      <trkpt lat="49.99444" lon="4.0823">
        <ele>235.4</ele>
        <time>2024-04-28T07:36:01Z</time>
      </trkpt>
      <trkpt lat="49.99448" lon="4.08219">
        <ele>235.4</ele>
        <time>2024-04-28T07:36:02Z</time>
      </trkpt>
      <trkpt lat="49.99452" lon="4.08208">
        <ele>235</ele>
        <time>2024-04-28T07:36:03Z</time>
      </trkpt>
      <trkpt lat="49.99457" lon="4.08197">
        <ele>235</ele>
        <time>2024-04-28T07:36:04Z</time>
      </trkpt>
      <trkpt lat="49.99462" lon="4.08185">
        <ele>235</ele>
        <time>2024-04-28T07:36:05Z</time>
      </trkpt>
      <trkpt lat="49.99467" lon="4.08173">
        <ele>235.2</ele>
        <time>2024-04-28T07:36:06Z</time>
      </trkpt>
      <trkpt lat="49.99471" lon="4.0816">
        <ele>235.2</ele>
        <time>2024-04-28T07:36:07Z</time>
      </trkpt>
      <trkpt lat="49.99476" lon="4.08147">
        <ele>235.2</ele>
        <time>2024-04-28T07:36:08Z</time>
      </trkpt>
      <trkpt lat="49.99481" lon="4.08135">
        <ele>235.4</ele>
        <time>2024-04-28T07:36:09Z</time>
      </trkpt>
      <trkpt lat="49.99485" lon="4.08122">
        <ele>235.4</ele>
        <time>2024-04-28T07:36:10Z</time>
      </trkpt>
      <trkpt lat="49.9949" lon="4.08109">
        <ele>235.4</ele>
        <time>2024-04-28T07:36:11Z</time>
      </trkpt>
      <trkpt lat="49.99495" lon="4.08096">
        <ele>235.4</ele>
        <time>2024-04-28T07:36:12Z</time>
      </trkpt>
      <trkpt lat="49.99499" lon="4.08083">
        <ele>235.2</ele>
        <time>2024-04-28T07:36:13Z</time>
      </trkpt>
      <trkpt lat="49.99504" lon="4.0807">
        <ele>235.2</ele>
        <time>2024-04-28T07:36:14Z</time>
      </trkpt>
      <trkpt lat="49.99509" lon="4.08057">
        <ele>235.2</ele>
        <time>2024-04-28T07:36:15Z</time>
      </trkpt>
      <trkpt lat="49.99514" lon="4.08043">
        <ele>235</ele>
        <time>2024-04-28T07:36:16Z</time>
      </trkpt>
      <trkpt lat="49.99519" lon="4.0803">
        <ele>235</ele>
        <time>2024-04-28T07:36:17Z</time>
      </trkpt>
      <trkpt lat="49.99524" lon="4.08017">
        <ele>234.8</ele>
        <time>2024-04-28T07:36:18Z</time>
      </trkpt>
      <trkpt lat="49.99529" lon="4.08004">
        <ele>234.6</ele>
        <time>2024-04-28T07:36:19Z</time>
      </trkpt>
      <trkpt lat="49.99533" lon="4.07991">
        <ele>234.6</ele>
        <time>2024-04-28T07:36:20Z</time>
      </trkpt>
      <trkpt lat="49.99538" lon="4.07978">
        <ele>234.4</ele>
        <time>2024-04-28T07:36:21Z</time>
      </trkpt>
      <trkpt lat="49.99543" lon="4.07965">
        <ele>233.6</ele>
        <time>2024-04-28T07:36:22Z</time>
      </trkpt>
      <trkpt lat="49.99548" lon="4.07953">
        <ele>233.6</ele>
        <time>2024-04-28T07:36:23Z</time>
      </trkpt>
      <trkpt lat="49.99553" lon="4.0794">
        <ele>233.4</ele>
        <time>2024-04-28T07:36:24Z</time>
      </trkpt>
      <trkpt lat="49.99557" lon="4.07928">
        <ele>233.2</ele>
        <time>2024-04-28T07:36:25Z</time>
      </trkpt>
      <trkpt lat="49.99562" lon="4.07915">
        <ele>233</ele>
        <time>2024-04-28T07:36:26Z</time>
      </trkpt>
      <trkpt lat="49.99567" lon="4.07902">
        <ele>232.6</ele>
        <time>2024-04-28T07:36:27Z</time>
      </trkpt>
      <trkpt lat="49.99571" lon="4.0789">
        <ele>232.6</ele>
        <time>2024-04-28T07:36:28Z</time>
      </trkpt>
      <trkpt lat="49.99576" lon="4.07877">
        <ele>231.6</ele>
        <time>2024-04-28T07:36:29Z</time>
      </trkpt>
      <trkpt lat="49.9958" lon="4.07865">
        <ele>230.8</ele>
        <time>2024-04-28T07:36:30Z</time>
      </trkpt>
      <trkpt lat="49.99585" lon="4.07852">
        <ele>230.4</ele>
        <time>2024-04-28T07:36:31Z</time>
      </trkpt>
      <trkpt lat="49.9959" lon="4.0784">
        <ele>230</ele>
        <time>2024-04-28T07:36:32Z</time>
      </trkpt>
      <trkpt lat="49.99595" lon="4.07827">
        <ele>230</ele>
        <time>2024-04-28T07:36:33Z</time>
      </trkpt>
      <trkpt lat="49.99599" lon="4.07814">
        <ele>229.8</ele>
        <time>2024-04-28T07:36:34Z</time>
      </trkpt>
      <trkpt lat="49.99604" lon="4.07801">
        <ele>229.6</ele>
        <time>2024-04-28T07:36:35Z</time>
      </trkpt>
      <trkpt lat="49.99609" lon="4.07788">
        <ele>229.6</ele>
        <time>2024-04-28T07:36:36Z</time>
      </trkpt>
      <trkpt lat="49.99614" lon="4.07773">
        <ele>229.4</ele>
        <time>2024-04-28T07:36:37Z</time>
      </trkpt>
      <trkpt lat="49.99619" lon="4.07759">
        <ele>229.4</ele>
        <time>2024-04-28T07:36:38Z</time>
      </trkpt>
      <trkpt lat="49.99625" lon="4.07745">
        <ele>229.4</ele>
        <time>2024-04-28T07:36:39Z</time>
      </trkpt>
      <trkpt lat="49.9963" lon="4.07731">
        <ele>229.4</ele>
        <time>2024-04-28T07:36:40Z</time>
      </trkpt>
      <trkpt lat="49.99635" lon="4.07718">
        <ele>229.4</ele>
        <time>2024-04-28T07:36:41Z</time>
      </trkpt>
      <trkpt lat="49.9964" lon="4.07704">
        <ele>229.4</ele>
        <time>2024-04-28T07:36:42Z</time>
      </trkpt>
      <trkpt lat="49.99645" lon="4.07691">
        <ele>229.4</ele>
        <time>2024-04-28T07:36:43Z</time>
      </trkpt>
      <trkpt lat="49.99651" lon="4.07678">
        <ele>229.4</ele>
        <time>2024-04-28T07:36:44Z</time>
      </trkpt>
      <trkpt lat="49.99656" lon="4.07664">
        <ele>229.6</ele>
        <time>2024-04-28T07:36:45Z</time>
      </trkpt>
      <trkpt lat="49.99661" lon="4.0765">
        <ele>229.6</ele>
        <time>2024-04-28T07:36:46Z</time>
      </trkpt>
      <trkpt lat="49.99666" lon="4.07636">
        <ele>229.6</ele>
        <time>2024-04-28T07:36:47Z</time>
      </trkpt>
      <trkpt lat="49.99672" lon="4.07622">
        <ele>229.6</ele>
        <time>2024-04-28T07:36:48Z</time>
      </trkpt>
      <trkpt lat="49.99677" lon="4.07608">
        <ele>229.6</ele>
        <time>2024-04-28T07:36:49Z</time>
      </trkpt>
      <trkpt lat="49.99682" lon="4.07594">
        <ele>229.6</ele>
        <time>2024-04-28T07:36:50Z</time>
      </trkpt>
      <trkpt lat="49.99687" lon="4.0758">
        <ele>229.6</ele>
        <time>2024-04-28T07:36:51Z</time>
      </trkpt>
      <trkpt lat="49.99693" lon="4.07566">
        <ele>229.6</ele>
        <time>2024-04-28T07:36:52Z</time>
      </trkpt>
      <trkpt lat="49.99698" lon="4.07552">
        <ele>229.4</ele>
        <time>2024-04-28T07:36:53Z</time>
      </trkpt>
      <trkpt lat="49.99703" lon="4.07538">
        <ele>229.6</ele>
        <time>2024-04-28T07:36:54Z</time>
      </trkpt>
      <trkpt lat="49.99709" lon="4.07524">
        <ele>229.6</ele>
        <time>2024-04-28T07:36:55Z</time>
      </trkpt>
      <trkpt lat="49.99714" lon="4.0751">
        <ele>229.2</ele>
        <time>2024-04-28T07:36:56Z</time>
      </trkpt>
      <trkpt lat="49.99719" lon="4.07495">
        <ele>229.2</ele>
        <time>2024-04-28T07:36:57Z</time>
      </trkpt>
      <trkpt lat="49.99725" lon="4.0748">
        <ele>229.2</ele>
        <time>2024-04-28T07:36:58Z</time>
      </trkpt>
      <trkpt lat="49.9973" lon="4.07466">
        <ele>229.2</ele>
        <time>2024-04-28T07:36:59Z</time>
      </trkpt>
      <trkpt lat="49.99736" lon="4.07451">
        <ele>229.2</ele>
        <time>2024-04-28T07:37:00Z</time>
      </trkpt>
      <trkpt lat="49.99742" lon="4.07436">
        <ele>229</ele>
        <time>2024-04-28T07:37:01Z</time>
      </trkpt>
      <trkpt lat="49.99747" lon="4.07421">
        <ele>228.8</ele>
        <time>2024-04-28T07:37:02Z</time>
      </trkpt>
      <trkpt lat="49.99753" lon="4.07406">
        <ele>228.8</ele>
        <time>2024-04-28T07:37:03Z</time>
      </trkpt>
      <trkpt lat="49.99759" lon="4.0739">
        <ele>228.6</ele>
        <time>2024-04-28T07:37:04Z</time>
      </trkpt>
      <trkpt lat="49.99765" lon="4.07375">
        <ele>228.6</ele>
        <time>2024-04-28T07:37:05Z</time>
      </trkpt>
      <trkpt lat="49.99771" lon="4.07359">
        <ele>228.2</ele>
        <time>2024-04-28T07:37:06Z</time>
      </trkpt>
      <trkpt lat="49.99777" lon="4.07342">
        <ele>227.4</ele>
        <time>2024-04-28T07:37:07Z</time>
      </trkpt>
      <trkpt lat="49.99783" lon="4.07326">
        <ele>226.6</ele>
        <time>2024-04-28T07:37:08Z</time>
      </trkpt>
      <trkpt lat="49.99789" lon="4.0731">
        <ele>226.4</ele>
        <time>2024-04-28T07:37:09Z</time>
      </trkpt>
      <trkpt lat="49.99795" lon="4.07293">
        <ele>226</ele>
        <time>2024-04-28T07:37:10Z</time>
      </trkpt>
      <trkpt lat="49.99801" lon="4.07277">
        <ele>225.6</ele>
        <time>2024-04-28T07:37:11Z</time>
      </trkpt>
      <trkpt lat="49.99807" lon="4.0726">
        <ele>225.4</ele>
        <time>2024-04-28T07:37:12Z</time>
      </trkpt>
      <trkpt lat="49.99813" lon="4.07244">
        <ele>225</ele>
        <time>2024-04-28T07:37:13Z</time>
      </trkpt>
      <trkpt lat="49.9982" lon="4.07227">
        <ele>224.6</ele>
        <time>2024-04-28T07:37:14Z</time>
      </trkpt>
      <trkpt lat="49.99826" lon="4.07211">
        <ele>224</ele>
        <time>2024-04-28T07:37:15Z</time>
      </trkpt>
      <trkpt lat="49.99832" lon="4.07196">
        <ele>224</ele>
        <time>2024-04-28T07:37:16Z</time>
      </trkpt>
      <trkpt lat="49.99837" lon="4.07181">
        <ele>223.6</ele>
        <time>2024-04-28T07:37:17Z</time>
      </trkpt>
      <trkpt lat="49.99843" lon="4.07166">
        <ele>223.2</ele>
        <time>2024-04-28T07:37:18Z</time>
      </trkpt>
      <trkpt lat="49.99849" lon="4.07152">
        <ele>222.8</ele>
        <time>2024-04-28T07:37:19Z</time>
      </trkpt>
      <trkpt lat="49.99854" lon="4.07137">
        <ele>222.6</ele>
        <time>2024-04-28T07:37:20Z</time>
      </trkpt>
      <trkpt lat="49.9986" lon="4.07122">
        <ele>222.6</ele>
        <time>2024-04-28T07:37:21Z</time>
      </trkpt>
      <trkpt lat="49.99865" lon="4.07108">
        <ele>222.6</ele>
        <time>2024-04-28T07:37:22Z</time>
      </trkpt>
      <trkpt lat="49.99871" lon="4.07093">
        <ele>222.4</ele>
        <time>2024-04-28T07:37:23Z</time>
      </trkpt>
      <trkpt lat="49.99876" lon="4.07079">
        <ele>222</ele>
        <time>2024-04-28T07:37:24Z</time>
      </trkpt>
      <trkpt lat="49.99881" lon="4.07064">
        <ele>221.6</ele>
        <time>2024-04-28T07:37:25Z</time>
      </trkpt>
      <trkpt lat="49.99887" lon="4.0705">
        <ele>221.6</ele>
        <time>2024-04-28T07:37:26Z</time>
      </trkpt>
      <trkpt lat="49.99892" lon="4.07035">
        <ele>221.2</ele>
        <time>2024-04-28T07:37:27Z</time>
      </trkpt>
      <trkpt lat="49.99898" lon="4.0702">
        <ele>221</ele>
        <time>2024-04-28T07:37:28Z</time>
      </trkpt>
      <trkpt lat="49.99903" lon="4.07004">
        <ele>220.8</ele>
        <time>2024-04-28T07:37:29Z</time>
      </trkpt>
      <trkpt lat="49.99909" lon="4.06989">
        <ele>220.4</ele>
        <time>2024-04-28T07:37:30Z</time>
      </trkpt>
      <trkpt lat="49.99915" lon="4.06973">
        <ele>220.4</ele>
        <time>2024-04-28T07:37:31Z</time>
      </trkpt>
      <trkpt lat="49.99921" lon="4.06956">
        <ele>220.4</ele>
        <time>2024-04-28T07:37:32Z</time>
      </trkpt>
      <trkpt lat="49.99927" lon="4.0694">
        <ele>220</ele>
        <time>2024-04-28T07:37:33Z</time>
      </trkpt>
      <trkpt lat="49.99933" lon="4.06924">
        <ele>220</ele>
        <time>2024-04-28T07:37:34Z</time>
      </trkpt>
      <trkpt lat="49.99939" lon="4.06908">
        <ele>219.6</ele>
        <time>2024-04-28T07:37:35Z</time>
      </trkpt>
      <trkpt lat="49.99945" lon="4.06893">
        <ele>219.4</ele>
        <time>2024-04-28T07:37:36Z</time>
      </trkpt>
      <trkpt lat="49.99951" lon="4.06877">
        <ele>217.8</ele>
        <time>2024-04-28T07:37:37Z</time>
      </trkpt>
      <trkpt lat="49.99957" lon="4.06861">
        <ele>217</ele>
        <time>2024-04-28T07:37:38Z</time>
      </trkpt>
      <trkpt lat="49.99962" lon="4.06847">
        <ele>216.6</ele>
        <time>2024-04-28T07:37:39Z</time>
      </trkpt>
      <trkpt lat="49.99968" lon="4.06832">
        <ele>216.2</ele>
        <time>2024-04-28T07:37:40Z</time>
      </trkpt>
      <trkpt lat="49.99973" lon="4.06818">
        <ele>216</ele>
        <time>2024-04-28T07:37:41Z</time>
      </trkpt>
      <trkpt lat="49.99978" lon="4.06804">
        <ele>216</ele>
        <time>2024-04-28T07:37:42Z</time>
      </trkpt>
      <trkpt lat="49.99983" lon="4.0679">
        <ele>216</ele>
        <time>2024-04-28T07:37:43Z</time>
      </trkpt>
      <trkpt lat="49.99988" lon="4.06776">
        <ele>216</ele>
        <time>2024-04-28T07:37:44Z</time>
      </trkpt>
      <trkpt lat="49.99993" lon="4.06763">
        <ele>216</ele>
        <time>2024-04-28T07:37:45Z</time>
      </trkpt>
      <trkpt lat="49.99998" lon="4.06749">
        <ele>216</ele>
        <time>2024-04-28T07:37:46Z</time>
      </trkpt>
      <trkpt lat="50.00003" lon="4.06736">
        <ele>216</ele>
        <time>2024-04-28T07:37:47Z</time>
      </trkpt>
      <trkpt lat="50.00008" lon="4.06723">
        <ele>216.2</ele>
        <time>2024-04-28T07:37:48Z</time>
      </trkpt>
      <trkpt lat="50.00013" lon="4.0671">
        <ele>216.2</ele>
        <time>2024-04-28T07:37:49Z</time>
      </trkpt>
      <trkpt lat="50.00018" lon="4.06697">
        <ele>216.4</ele>
        <time>2024-04-28T07:37:50Z</time>
      </trkpt>
      <trkpt lat="50.00023" lon="4.06684">
        <ele>216.4</ele>
        <time>2024-04-28T07:37:51Z</time>
      </trkpt>
      <trkpt lat="50.00028" lon="4.06671">
        <ele>216.4</ele>
        <time>2024-04-28T07:37:52Z</time>
      </trkpt>
      <trkpt lat="50.00032" lon="4.06659">
        <ele>216.6</ele>
        <time>2024-04-28T07:37:53Z</time>
      </trkpt>
      <trkpt lat="50.00037" lon="4.06646">
        <ele>217</ele>
        <time>2024-04-28T07:37:54Z</time>
      </trkpt>
      <trkpt lat="50.00041" lon="4.06634">
        <ele>217.2</ele>
        <time>2024-04-28T07:37:55Z</time>
      </trkpt>
      <trkpt lat="50.00045" lon="4.06622">
        <ele>217.4</ele>
        <time>2024-04-28T07:37:56Z</time>
      </trkpt>
      <trkpt lat="50.0005" lon="4.06611">
        <ele>217.6</ele>
        <time>2024-04-28T07:37:57Z</time>
      </trkpt>
      <trkpt lat="50.00054" lon="4.06599">
        <ele>217.8</ele>
        <time>2024-04-28T07:37:58Z</time>
      </trkpt>
      <trkpt lat="50.00059" lon="4.06587">
        <ele>218.4</ele>
        <time>2024-04-28T07:37:59Z</time>
      </trkpt>
      <trkpt lat="50.00063" lon="4.06575">
        <ele>218.8</ele>
        <time>2024-04-28T07:38:00Z</time>
      </trkpt>
      <trkpt lat="50.00068" lon="4.06563">
        <ele>219.2</ele>
        <time>2024-04-28T07:38:01Z</time>
      </trkpt>
      <trkpt lat="50.00073" lon="4.06551">
        <ele>219.6</ele>
        <time>2024-04-28T07:38:02Z</time>
      </trkpt>
      <trkpt lat="50.00078" lon="4.06539">
        <ele>219.8</ele>
        <time>2024-04-28T07:38:03Z</time>
      </trkpt>
      <trkpt lat="50.00082" lon="4.06526">
        <ele>220.4</ele>
        <time>2024-04-28T07:38:04Z</time>
      </trkpt>
      <trkpt lat="50.00087" lon="4.06514">
        <ele>221</ele>
        <time>2024-04-28T07:38:05Z</time>
      </trkpt>
      <trkpt lat="50.00092" lon="4.06501">
        <ele>221.2</ele>
        <time>2024-04-28T07:38:06Z</time>
      </trkpt>
      <trkpt lat="50.00097" lon="4.06488">
        <ele>221.2</ele>
        <time>2024-04-28T07:38:07Z</time>
      </trkpt>
      <trkpt lat="50.00102" lon="4.06476">
        <ele>221.4</ele>
        <time>2024-04-28T07:38:08Z</time>
      </trkpt>
      <trkpt lat="50.00107" lon="4.06463">
        <ele>221.4</ele>
        <time>2024-04-28T07:38:09Z</time>
      </trkpt>
      <trkpt lat="50.00112" lon="4.0645">
        <ele>221.4</ele>
        <time>2024-04-28T07:38:10Z</time>
      </trkpt>
      <trkpt lat="50.00117" lon="4.06437">
        <ele>221.4</ele>
        <time>2024-04-28T07:38:11Z</time>
      </trkpt>
      <trkpt lat="50.00122" lon="4.06424">
        <ele>221.4</ele>
        <time>2024-04-28T07:38:12Z</time>
      </trkpt>
      <trkpt lat="50.00127" lon="4.06411">
        <ele>221.4</ele>
        <time>2024-04-28T07:38:13Z</time>
      </trkpt>
      <trkpt lat="50.00132" lon="4.06398">
        <ele>221.4</ele>
        <time>2024-04-28T07:38:14Z</time>
      </trkpt>
      <trkpt lat="50.00137" lon="4.06384">
        <ele>221.4</ele>
        <time>2024-04-28T07:38:15Z</time>
      </trkpt>
      <trkpt lat="50.00143" lon="4.0637">
        <ele>221</ele>
        <time>2024-04-28T07:38:16Z</time>
      </trkpt>
      <trkpt lat="50.00148" lon="4.06356">
        <ele>220.6</ele>
        <time>2024-04-28T07:38:17Z</time>
      </trkpt>
      <trkpt lat="50.00153" lon="4.06342">
        <ele>220.4</ele>
        <time>2024-04-28T07:38:18Z</time>
      </trkpt>
      <trkpt lat="50.00159" lon="4.06328">
        <ele>220</ele>
        <time>2024-04-28T07:38:19Z</time>
      </trkpt>
      <trkpt lat="50.00164" lon="4.06314">
        <ele>219.8</ele>
        <time>2024-04-28T07:38:20Z</time>
      </trkpt>
      <trkpt lat="50.0017" lon="4.063">
        <ele>219.6</ele>
        <time>2024-04-28T07:38:21Z</time>
      </trkpt>
      <trkpt lat="50.00175" lon="4.06285">
        <ele>219.4</ele>
        <time>2024-04-28T07:38:22Z</time>
      </trkpt>
      <trkpt lat="50.00181" lon="4.06271">
        <ele>219.4</ele>
        <time>2024-04-28T07:38:23Z</time>
      </trkpt>
      <trkpt lat="50.00186" lon="4.06257">
        <ele>219.2</ele>
        <time>2024-04-28T07:38:24Z</time>
      </trkpt>
      <trkpt lat="50.00191" lon="4.06242">
        <ele>218.8</ele>
        <time>2024-04-28T07:38:25Z</time>
      </trkpt>
      <trkpt lat="50.00196" lon="4.06228">
        <ele>218.8</ele>
        <time>2024-04-28T07:38:26Z</time>
      </trkpt>
      <trkpt lat="50.00202" lon="4.06213">
        <ele>218.4</ele>
        <time>2024-04-28T07:38:27Z</time>
      </trkpt>
      <trkpt lat="50.00207" lon="4.06198">
        <ele>218.2</ele>
        <time>2024-04-28T07:38:28Z</time>
      </trkpt>
      <trkpt lat="50.00213" lon="4.06183">
        <ele>217.4</ele>
        <time>2024-04-28T07:38:29Z</time>
      </trkpt>
      <trkpt lat="50.00219" lon="4.06168">
        <ele>216.6</ele>
        <time>2024-04-28T07:38:30Z</time>
      </trkpt>
      <trkpt lat="50.00225" lon="4.06154">
        <ele>215.8</ele>
        <time>2024-04-28T07:38:31Z</time>
      </trkpt>
      <trkpt lat="50.0023" lon="4.06139">
        <ele>215.4</ele>
        <time>2024-04-28T07:38:32Z</time>
      </trkpt>
      <trkpt lat="50.00235" lon="4.06124">
        <ele>215</ele>
        <time>2024-04-28T07:38:33Z</time>
      </trkpt>
      <trkpt lat="50.00241" lon="4.0611">
        <ele>214.8</ele>
        <time>2024-04-28T07:38:34Z</time>
      </trkpt>
      <trkpt lat="50.00246" lon="4.06095">
        <ele>214.6</ele>
        <time>2024-04-28T07:38:35Z</time>
      </trkpt>
      <trkpt lat="50.00252" lon="4.06081">
        <ele>214.6</ele>
        <time>2024-04-28T07:38:36Z</time>
      </trkpt>
      <trkpt lat="50.00257" lon="4.06066">
        <ele>214.2</ele>
        <time>2024-04-28T07:38:37Z</time>
      </trkpt>
      <trkpt lat="50.00263" lon="4.06051">
        <ele>214.2</ele>
        <time>2024-04-28T07:38:38Z</time>
      </trkpt>
      <trkpt lat="50.00268" lon="4.06037">
        <ele>213.8</ele>
        <time>2024-04-28T07:38:39Z</time>
      </trkpt>
      <trkpt lat="50.00274" lon="4.06023">
        <ele>213.4</ele>
        <time>2024-04-28T07:38:40Z</time>
      </trkpt>
      <trkpt lat="50.0028" lon="4.06008">
        <ele>213</ele>
        <time>2024-04-28T07:38:41Z</time>
      </trkpt>
      <trkpt lat="50.00285" lon="4.05993">
        <ele>212.4</ele>
        <time>2024-04-28T07:38:42Z</time>
      </trkpt>
      <trkpt lat="50.00291" lon="4.05978">
        <ele>211.6</ele>
        <time>2024-04-28T07:38:43Z</time>
      </trkpt>
      <trkpt lat="50.00297" lon="4.05962">
        <ele>211.6</ele>
        <time>2024-04-28T07:38:44Z</time>
      </trkpt>
      <trkpt lat="50.00303" lon="4.05946">
        <ele>210.4</ele>
        <time>2024-04-28T07:38:45Z</time>
      </trkpt>
      <trkpt lat="50.00309" lon="4.0593">
        <ele>210</ele>
        <time>2024-04-28T07:38:46Z</time>
      </trkpt>
      <trkpt lat="50.00315" lon="4.05914">
        <ele>209.6</ele>
        <time>2024-04-28T07:38:47Z</time>
      </trkpt>
      <trkpt lat="50.00321" lon="4.05898">
        <ele>209.4</ele>
        <time>2024-04-28T07:38:48Z</time>
      </trkpt>
      <trkpt lat="50.00327" lon="4.05882">
        <ele>209.2</ele>
        <time>2024-04-28T07:38:49Z</time>
      </trkpt>
      <trkpt lat="50.00334" lon="4.05865">
        <ele>208.2</ele>
        <time>2024-04-28T07:38:50Z</time>
      </trkpt>
      <trkpt lat="50.0034" lon="4.05849">
        <ele>207.6</ele>
        <time>2024-04-28T07:38:51Z</time>
      </trkpt>
      <trkpt lat="50.00346" lon="4.05832">
        <ele>207</ele>
        <time>2024-04-28T07:38:52Z</time>
      </trkpt>
      <trkpt lat="50.00353" lon="4.05816">
        <ele>206.6</ele>
        <time>2024-04-28T07:38:53Z</time>
      </trkpt>
      <trkpt lat="50.00359" lon="4.05799">
        <ele>205.6</ele>
        <time>2024-04-28T07:38:54Z</time>
      </trkpt>
      <trkpt lat="50.00365" lon="4.05783">
        <ele>204.8</ele>
        <time>2024-04-28T07:38:55Z</time>
      </trkpt>
      <trkpt lat="50.00371" lon="4.05767">
        <ele>203.8</ele>
        <time>2024-04-28T07:38:56Z</time>
      </trkpt>
      <trkpt lat="50.00377" lon="4.05753">
        <ele>202.4</ele>
        <time>2024-04-28T07:38:57Z</time>
      </trkpt>
      <trkpt lat="50.00383" lon="4.05738">
        <ele>201.2</ele>
        <time>2024-04-28T07:38:58Z</time>
      </trkpt>
      <trkpt lat="50.00388" lon="4.05724">
        <ele>200.4</ele>
        <time>2024-04-28T07:38:59Z</time>
      </trkpt>
      <trkpt lat="50.00393" lon="4.05708">
        <ele>199.8</ele>
        <time>2024-04-28T07:39:00Z</time>
      </trkpt>
      <trkpt lat="50.00399" lon="4.05692">
        <ele>199.8</ele>
        <time>2024-04-28T07:39:01Z</time>
      </trkpt>
      <trkpt lat="50.00404" lon="4.05675">
        <ele>199</ele>
        <time>2024-04-28T07:39:02Z</time>
      </trkpt>
      <trkpt lat="50.0041" lon="4.05658">
        <ele>198.4</ele>
        <time>2024-04-28T07:39:03Z</time>
      </trkpt>
      <trkpt lat="50.00415" lon="4.0564">
        <ele>198</ele>
        <time>2024-04-28T07:39:04Z</time>
      </trkpt>
      <trkpt lat="50.00419" lon="4.05621">
        <ele>197</ele>
        <time>2024-04-28T07:39:05Z</time>
      </trkpt>
      <trkpt lat="50.00422" lon="4.05602">
        <ele>196.6</ele>
        <time>2024-04-28T07:39:06Z</time>
      </trkpt>
      <trkpt lat="50.00425" lon="4.05582">
        <ele>196.2</ele>
        <time>2024-04-28T07:39:07Z</time>
      </trkpt>
      <trkpt lat="50.00427" lon="4.05563">
        <ele>195.6</ele>
        <time>2024-04-28T07:39:08Z</time>
      </trkpt>
      <trkpt lat="50.00429" lon="4.05544">
        <ele>195.2</ele>
        <time>2024-04-28T07:39:09Z</time>
      </trkpt>
      <trkpt lat="50.0043" lon="4.05526">
        <ele>194.6</ele>
        <time>2024-04-28T07:39:10Z</time>
      </trkpt>
      <trkpt lat="50.00431" lon="4.05509">
        <ele>193.8</ele>
        <time>2024-04-28T07:39:11Z</time>
      </trkpt>
      <trkpt lat="50.00432" lon="4.05492">
        <ele>193.2</ele>
        <time>2024-04-28T07:39:12Z</time>
      </trkpt>
      <trkpt lat="50.00431" lon="4.05475">
        <ele>193.2</ele>
        <time>2024-04-28T07:39:13Z</time>
      </trkpt>
      <trkpt lat="50.00431" lon="4.05459">
        <ele>193</ele>
        <time>2024-04-28T07:39:14Z</time>
      </trkpt>
      <trkpt lat="50.00431" lon="4.05443">
        <ele>193.2</ele>
        <time>2024-04-28T07:39:15Z</time>
      </trkpt>
      <trkpt lat="50.00431" lon="4.05427">
        <ele>193.2</ele>
        <time>2024-04-28T07:39:16Z</time>
      </trkpt>
      <trkpt lat="50.00431" lon="4.05412">
        <ele>193</ele>
        <time>2024-04-28T07:39:17Z</time>
      </trkpt>
      <trkpt lat="50.00431" lon="4.05397">
        <ele>193</ele>
        <time>2024-04-28T07:39:18Z</time>
      </trkpt>
      <trkpt lat="50.00431" lon="4.05382">
        <ele>193</ele>
        <time>2024-04-28T07:39:19Z</time>
      </trkpt>
      <trkpt lat="50.00431" lon="4.05367">
        <ele>193</ele>
        <time>2024-04-28T07:39:20Z</time>
      </trkpt>
      <trkpt lat="50.00431" lon="4.05353">
        <ele>193.2</ele>
        <time>2024-04-28T07:39:21Z</time>
      </trkpt>
      <trkpt lat="50.00431" lon="4.0534">
        <ele>193.2</ele>
        <time>2024-04-28T07:39:22Z</time>
      </trkpt>
      <trkpt lat="50.00431" lon="4.05327">
        <ele>194</ele>
        <time>2024-04-28T07:39:23Z</time>
      </trkpt>
      <trkpt lat="50.00431" lon="4.05314">
        <ele>194.4</ele>
        <time>2024-04-28T07:39:24Z</time>
      </trkpt>
      <trkpt lat="50.00433" lon="4.05303">
        <ele>195</ele>
        <time>2024-04-28T07:39:25Z</time>
      </trkpt>
      <trkpt lat="50.00434" lon="4.05291">
        <ele>195.2</ele>
        <time>2024-04-28T07:39:26Z</time>
      </trkpt>
      <trkpt lat="50.00435" lon="4.0528">
        <ele>195.8</ele>
        <time>2024-04-28T07:39:27Z</time>
      </trkpt>
      <trkpt lat="50.00437" lon="4.05269">
        <ele>196.4</ele>
        <time>2024-04-28T07:39:28Z</time>
      </trkpt>
      <trkpt lat="50.00438" lon="4.05259">
        <ele>197.2</ele>
        <time>2024-04-28T07:39:29Z</time>
      </trkpt>
      <trkpt lat="50.0044" lon="4.05248">
        <ele>197.8</ele>
        <time>2024-04-28T07:39:30Z</time>
      </trkpt>
      <trkpt lat="50.00442" lon="4.05238">
        <ele>198.4</ele>
        <time>2024-04-28T07:39:31Z</time>
      </trkpt>
      <trkpt lat="50.00444" lon="4.05227">
        <ele>199.2</ele>
        <time>2024-04-28T07:39:32Z</time>
      </trkpt>
      <trkpt lat="50.00446" lon="4.05216">
        <ele>199.8</ele>
        <time>2024-04-28T07:39:33Z</time>
      </trkpt>
      <trkpt lat="50.00448" lon="4.05206">
        <ele>200.2</ele>
        <time>2024-04-28T07:39:34Z</time>
      </trkpt>
      <trkpt lat="50.0045" lon="4.05196">
        <ele>200.8</ele>
        <time>2024-04-28T07:39:35Z</time>
      </trkpt>
      <trkpt lat="50.00452" lon="4.05186">
        <ele>200.8</ele>
        <time>2024-04-28T07:39:36Z</time>
      </trkpt>
      <trkpt lat="50.00454" lon="4.05176">
        <ele>201.4</ele>
        <time>2024-04-28T07:39:37Z</time>
      </trkpt>
      <trkpt lat="50.00456" lon="4.05165">
        <ele>201.8</ele>
        <time>2024-04-28T07:39:38Z</time>
      </trkpt>
      <trkpt lat="50.00458" lon="4.05155">
        <ele>202</ele>
        <time>2024-04-28T07:39:39Z</time>
      </trkpt>
      <trkpt lat="50.0046" lon="4.05144">
        <ele>202.4</ele>
        <time>2024-04-28T07:39:40Z</time>
      </trkpt>
      <trkpt lat="50.00462" lon="4.05134">
        <ele>202.8</ele>
        <time>2024-04-28T07:39:41Z</time>
      </trkpt>
      <trkpt lat="50.00464" lon="4.05123">
        <ele>203.4</ele>
        <time>2024-04-28T07:39:42Z</time>
      </trkpt>
      <trkpt lat="50.00466" lon="4.05112">
        <ele>203.8</ele>
        <time>2024-04-28T07:39:43Z</time>
      </trkpt>
      <trkpt lat="50.00468" lon="4.05101">
        <ele>204</ele>
        <time>2024-04-28T07:39:44Z</time>
      </trkpt>
      <trkpt lat="50.00469" lon="4.0509">
        <ele>204.8</ele>
        <time>2024-04-28T07:39:45Z</time>
      </trkpt>
      <trkpt lat="50.00471" lon="4.05078">
        <ele>205.2</ele>
        <time>2024-04-28T07:39:46Z</time>
      </trkpt>
      <trkpt lat="50.00472" lon="4.05067">
        <ele>205.4</ele>
        <time>2024-04-28T07:39:47Z</time>
      </trkpt>
      <trkpt lat="50.00474" lon="4.05056">
        <ele>205.4</ele>
        <time>2024-04-28T07:39:48Z</time>
      </trkpt>
      <trkpt lat="50.00475" lon="4.05045">
        <ele>205.4</ele>
        <time>2024-04-28T07:39:49Z</time>
      </trkpt>
      <trkpt lat="50.00477" lon="4.05034">
        <ele>205.6</ele>
        <time>2024-04-28T07:39:50Z</time>
      </trkpt>
      <trkpt lat="50.00478" lon="4.05023">
        <ele>205.6</ele>
        <time>2024-04-28T07:39:51Z</time>
      </trkpt>
      <trkpt lat="50.0048" lon="4.05012">
        <ele>205.4</ele>
        <time>2024-04-28T07:39:52Z</time>
      </trkpt>
      <trkpt lat="50.00481" lon="4.05001">
        <ele>205.6</ele>
        <time>2024-04-28T07:39:53Z</time>
      </trkpt>
      <trkpt lat="50.00483" lon="4.0499">
        <ele>205.6</ele>
        <time>2024-04-28T07:39:54Z</time>
      </trkpt>
      <trkpt lat="50.00484" lon="4.04979">
        <ele>205.6</ele>
        <time>2024-04-28T07:39:55Z</time>
      </trkpt>
      <trkpt lat="50.00485" lon="4.04968">
        <ele>205.6</ele>
        <time>2024-04-28T07:39:56Z</time>
      </trkpt>
      <trkpt lat="50.00487" lon="4.04957">
        <ele>205.6</ele>
        <time>2024-04-28T07:39:57Z</time>
      </trkpt>
      <trkpt lat="50.00488" lon="4.04946">
        <ele>205.8</ele>
        <time>2024-04-28T07:39:58Z</time>
      </trkpt>
      <trkpt lat="50.00489" lon="4.04936">
        <ele>205.8</ele>
        <time>2024-04-28T07:39:59Z</time>
      </trkpt>
      <trkpt lat="50.00491" lon="4.04925">
        <ele>206</ele>
        <time>2024-04-28T07:40:00Z</time>
      </trkpt>
      <trkpt lat="50.00493" lon="4.04915">
        <ele>206.2</ele>
        <time>2024-04-28T07:40:01Z</time>
      </trkpt>
      <trkpt lat="50.00495" lon="4.04905">
        <ele>206.4</ele>
        <time>2024-04-28T07:40:02Z</time>
      </trkpt>
      <trkpt lat="50.00497" lon="4.04896">
        <ele>206.6</ele>
        <time>2024-04-28T07:40:03Z</time>
      </trkpt>
      <trkpt lat="50.005" lon="4.04886">
        <ele>206.6</ele>
        <time>2024-04-28T07:40:04Z</time>
      </trkpt>
      <trkpt lat="50.00502" lon="4.04877">
        <ele>206.6</ele>
        <time>2024-04-28T07:40:05Z</time>
      </trkpt>
      <trkpt lat="50.00506" lon="4.04867">
        <ele>206.8</ele>
        <time>2024-04-28T07:40:06Z</time>
      </trkpt>
      <trkpt lat="50.0051" lon="4.04859">
        <ele>207.2</ele>
        <time>2024-04-28T07:40:07Z</time>
      </trkpt>
      <trkpt lat="50.00514" lon="4.04851">
        <ele>207.4</ele>
        <time>2024-04-28T07:40:08Z</time>
      </trkpt>
      <trkpt lat="50.00518" lon="4.04843">
        <ele>207.8</ele>
        <time>2024-04-28T07:40:09Z</time>
      </trkpt>
      <trkpt lat="50.00521" lon="4.04835">
        <ele>208</ele>
        <time>2024-04-28T07:40:10Z</time>
      </trkpt>
      <trkpt lat="50.00523" lon="4.04826">
        <ele>208</ele>
        <time>2024-04-28T07:40:11Z</time>
      </trkpt>
      <trkpt lat="50.00524" lon="4.04817">
        <ele>208.2</ele>
        <time>2024-04-28T07:40:12Z</time>
      </trkpt>
      <trkpt lat="50.00522" lon="4.04807">
        <ele>208.4</ele>
        <time>2024-04-28T07:40:13Z</time>
      </trkpt>
      <trkpt lat="50.0052" lon="4.04798">
        <ele>208.8</ele>
        <time>2024-04-28T07:40:14Z</time>
      </trkpt>
      <trkpt lat="50.00517" lon="4.04789">
        <ele>208.8</ele>
        <time>2024-04-28T07:40:15Z</time>
      </trkpt>
      <trkpt lat="50.00516" lon="4.04779">
        <ele>209</ele>
        <time>2024-04-28T07:40:16Z</time>
      </trkpt>
      <trkpt lat="50.00516" lon="4.04768">
        <ele>209</ele>
        <time>2024-04-28T07:40:17Z</time>
      </trkpt>
      <trkpt lat="50.00516" lon="4.04758">
        <ele>209</ele>
        <time>2024-04-28T07:40:18Z</time>
      </trkpt>
      <trkpt lat="50.00516" lon="4.04747">
        <ele>209</ele>
        <time>2024-04-28T07:40:19Z</time>
      </trkpt>
      <trkpt lat="50.00515" lon="4.04736">
        <ele>209</ele>
        <time>2024-04-28T07:40:20Z</time>
      </trkpt>
      <trkpt lat="50.00515" lon="4.04725">
        <ele>209</ele>
        <time>2024-04-28T07:40:21Z</time>
      </trkpt>
      <trkpt lat="50.00516" lon="4.04713">
        <ele>209</ele>
        <time>2024-04-28T07:40:22Z</time>
      </trkpt>
      <trkpt lat="50.00516" lon="4.04702">
        <ele>209</ele>
        <time>2024-04-28T07:40:23Z</time>
      </trkpt>
      <trkpt lat="50.00516" lon="4.0469">
        <ele>208.8</ele>
        <time>2024-04-28T07:40:24Z</time>
      </trkpt>
      <trkpt lat="50.00517" lon="4.04679">
        <ele>208.8</ele>
        <time>2024-04-28T07:40:25Z</time>
      </trkpt>
      <trkpt lat="50.00517" lon="4.04667">
        <ele>208.8</ele>
        <time>2024-04-28T07:40:26Z</time>
      </trkpt>
      <trkpt lat="50.00518" lon="4.04655">
        <ele>208.6</ele>
        <time>2024-04-28T07:40:27Z</time>
      </trkpt>
      <trkpt lat="50.00518" lon="4.04644">
        <ele>208.6</ele>
        <time>2024-04-28T07:40:28Z</time>
      </trkpt>
      <trkpt lat="50.00518" lon="4.04632">
        <ele>208.6</ele>
        <time>2024-04-28T07:40:29Z</time>
      </trkpt>
      <trkpt lat="50.00519" lon="4.04619">
        <ele>208.4</ele>
        <time>2024-04-28T07:40:30Z</time>
      </trkpt>
      <trkpt lat="50.00519" lon="4.04607">
        <ele>208.4</ele>
        <time>2024-04-28T07:40:31Z</time>
      </trkpt>
      <trkpt lat="50.0052" lon="4.04594">
        <ele>208.4</ele>
        <time>2024-04-28T07:40:32Z</time>
      </trkpt>
      <trkpt lat="50.00521" lon="4.04581">
        <ele>208</ele>
        <time>2024-04-28T07:40:33Z</time>
      </trkpt>
      <trkpt lat="50.00522" lon="4.04568">
        <ele>207.4</ele>
        <time>2024-04-28T07:40:34Z</time>
      </trkpt>
      <trkpt lat="50.00523" lon="4.04555">
        <ele>207.2</ele>
        <time>2024-04-28T07:40:35Z</time>
      </trkpt>
      <trkpt lat="50.00524" lon="4.04542">
        <ele>207</ele>
        <time>2024-04-28T07:40:36Z</time>
      </trkpt>
      <trkpt lat="50.00525" lon="4.04529">
        <ele>206.4</ele>
        <time>2024-04-28T07:40:37Z</time>
      </trkpt>
      <trkpt lat="50.00526" lon="4.04516">
        <ele>206</ele>
        <time>2024-04-28T07:40:38Z</time>
      </trkpt>
      <trkpt lat="50.00527" lon="4.04503">
        <ele>205.6</ele>
        <time>2024-04-28T07:40:39Z</time>
      </trkpt>
      <trkpt lat="50.00528" lon="4.04491">
        <ele>205.6</ele>
        <time>2024-04-28T07:40:40Z</time>
      </trkpt>
      <trkpt lat="50.00529" lon="4.04478">
        <ele>205.4</ele>
        <time>2024-04-28T07:40:41Z</time>
      </trkpt>
      <trkpt lat="50.00531" lon="4.04465">
        <ele>205</ele>
        <time>2024-04-28T07:40:42Z</time>
      </trkpt>
      <trkpt lat="50.00532" lon="4.04452">
        <ele>204.8</ele>
        <time>2024-04-28T07:40:43Z</time>
      </trkpt>
      <trkpt lat="50.00533" lon="4.04439">
        <ele>204.6</ele>
        <time>2024-04-28T07:40:44Z</time>
      </trkpt>
      <trkpt lat="50.00534" lon="4.04426">
        <ele>204.2</ele>
        <time>2024-04-28T07:40:45Z</time>
      </trkpt>
      <trkpt lat="50.00535" lon="4.04413">
        <ele>204.2</ele>
        <time>2024-04-28T07:40:46Z</time>
      </trkpt>
      <trkpt lat="50.00536" lon="4.04399">
        <ele>204</ele>
        <time>2024-04-28T07:40:47Z</time>
      </trkpt>
      <trkpt lat="50.00537" lon="4.04386">
        <ele>203.8</ele>
        <time>2024-04-28T07:40:48Z</time>
      </trkpt>
      <trkpt lat="50.00538" lon="4.04372">
        <ele>203.4</ele>
        <time>2024-04-28T07:40:49Z</time>
      </trkpt>
      <trkpt lat="50.00539" lon="4.04359">
        <ele>202.6</ele>
        <time>2024-04-28T07:40:50Z</time>
      </trkpt>
      <trkpt lat="50.0054" lon="4.04345">
        <ele>202.2</ele>
        <time>2024-04-28T07:40:51Z</time>
      </trkpt>
      <trkpt lat="50.00541" lon="4.04332">
        <ele>201.8</ele>
        <time>2024-04-28T07:40:52Z</time>
      </trkpt>
      <trkpt lat="50.00541" lon="4.04318">
        <ele>201.8</ele>
        <time>2024-04-28T07:40:53Z</time>
      </trkpt>
      <trkpt lat="50.00541" lon="4.04304">
        <ele>201.6</ele>
        <time>2024-04-28T07:40:54Z</time>
      </trkpt>
      <trkpt lat="50.0054" lon="4.04291">
        <ele>201.6</ele>
        <time>2024-04-28T07:40:55Z</time>
      </trkpt>
      <trkpt lat="50.00539" lon="4.04277">
        <ele>201.6</ele>
        <time>2024-04-28T07:40:56Z</time>
      </trkpt>
      <trkpt lat="50.00538" lon="4.04264">
        <ele>201.6</ele>
        <time>2024-04-28T07:40:57Z</time>
      </trkpt>
      <trkpt lat="50.00536" lon="4.04251">
        <ele>201.4</ele>
        <time>2024-04-28T07:40:58Z</time>
      </trkpt>
      <trkpt lat="50.00535" lon="4.04238">
        <ele>201.4</ele>
        <time>2024-04-28T07:40:59Z</time>
      </trkpt>
      <trkpt lat="50.00534" lon="4.04226">
        <ele>201.4</ele>
        <time>2024-04-28T07:41:00Z</time>
      </trkpt>
      <trkpt lat="50.00532" lon="4.04214">
        <ele>201.4</ele>
        <time>2024-04-28T07:41:01Z</time>
      </trkpt>
      <trkpt lat="50.00531" lon="4.04201">
        <ele>201.2</ele>
        <time>2024-04-28T07:41:02Z</time>
      </trkpt>
      <trkpt lat="50.0053" lon="4.04189">
        <ele>201.2</ele>
        <time>2024-04-28T07:41:03Z</time>
      </trkpt>
      <trkpt lat="50.00529" lon="4.04176">
        <ele>201.2</ele>
        <time>2024-04-28T07:41:04Z</time>
      </trkpt>
      <trkpt lat="50.00527" lon="4.04163">
        <ele>201.2</ele>
        <time>2024-04-28T07:41:05Z</time>
      </trkpt>
      <trkpt lat="50.00526" lon="4.04149">
        <ele>201.4</ele>
        <time>2024-04-28T07:41:06Z</time>
      </trkpt>
      <trkpt lat="50.00525" lon="4.04136">
        <ele>201.2</ele>
        <time>2024-04-28T07:41:07Z</time>
      </trkpt>
      <trkpt lat="50.00525" lon="4.04123">
        <ele>201.4</ele>
        <time>2024-04-28T07:41:08Z</time>
      </trkpt>
      <trkpt lat="50.00526" lon="4.04109">
        <ele>201.4</ele>
        <time>2024-04-28T07:41:09Z</time>
      </trkpt>
      <trkpt lat="50.00527" lon="4.04095">
        <ele>201.4</ele>
        <time>2024-04-28T07:41:10Z</time>
      </trkpt>
      <trkpt lat="50.00528" lon="4.0408">
        <ele>201.4</ele>
        <time>2024-04-28T07:41:11Z</time>
      </trkpt>
      <trkpt lat="50.0053" lon="4.04066">
        <ele>201</ele>
        <time>2024-04-28T07:41:12Z</time>
      </trkpt>
      <trkpt lat="50.00532" lon="4.04051">
        <ele>200.8</ele>
        <time>2024-04-28T07:41:13Z</time>
      </trkpt>
      <trkpt lat="50.00535" lon="4.04036">
        <ele>200.6</ele>
        <time>2024-04-28T07:41:14Z</time>
      </trkpt>
      <trkpt lat="50.00537" lon="4.04021">
        <ele>200.4</ele>
        <time>2024-04-28T07:41:15Z</time>
      </trkpt>
      <trkpt lat="50.0054" lon="4.04006">
        <ele>200.4</ele>
        <time>2024-04-28T07:41:16Z</time>
      </trkpt>
      <trkpt lat="50.00543" lon="4.03992">
        <ele>200.4</ele>
        <time>2024-04-28T07:41:17Z</time>
      </trkpt>
      <trkpt lat="50.00547" lon="4.03978">
        <ele>199.6</ele>
        <time>2024-04-28T07:41:18Z</time>
      </trkpt>
      <trkpt lat="50.0055" lon="4.03964">
        <ele>199.2</ele>
        <time>2024-04-28T07:41:19Z</time>
      </trkpt>
      <trkpt lat="50.00555" lon="4.0395">
        <ele>198.4</ele>
        <time>2024-04-28T07:41:20Z</time>
      </trkpt>
      <trkpt lat="50.00559" lon="4.03937">
        <ele>198.4</ele>
        <time>2024-04-28T07:41:21Z</time>
      </trkpt>
      <trkpt lat="50.00563" lon="4.03923">
        <ele>198.2</ele>
        <time>2024-04-28T07:41:22Z</time>
      </trkpt>
      <trkpt lat="50.00566" lon="4.0391">
        <ele>197.4</ele>
        <time>2024-04-28T07:41:23Z</time>
      </trkpt>
      <trkpt lat="50.0057" lon="4.03896">
        <ele>196.8</ele>
        <time>2024-04-28T07:41:24Z</time>
      </trkpt>
      <trkpt lat="50.00574" lon="4.03883">
        <ele>196.4</ele>
        <time>2024-04-28T07:41:25Z</time>
      </trkpt>
      <trkpt lat="50.00577" lon="4.0387">
        <ele>196.4</ele>
        <time>2024-04-28T07:41:26Z</time>
      </trkpt>
      <trkpt lat="50.0058" lon="4.03857">
        <ele>196.2</ele>
        <time>2024-04-28T07:41:27Z</time>
      </trkpt>
      <trkpt lat="50.00583" lon="4.03844">
        <ele>196.4</ele>
        <time>2024-04-28T07:41:28Z</time>
      </trkpt>
      <trkpt lat="50.00586" lon="4.03832">
        <ele>196.2</ele>
        <time>2024-04-28T07:41:29Z</time>
      </trkpt>
      <trkpt lat="50.00588" lon="4.0382">
        <ele>196.2</ele>
        <time>2024-04-28T07:41:30Z</time>
      </trkpt>
      <trkpt lat="50.00589" lon="4.03808">
        <ele>196.2</ele>
        <time>2024-04-28T07:41:31Z</time>
      </trkpt>
      <trkpt lat="50.0059" lon="4.03796">
        <ele>196.2</ele>
        <time>2024-04-28T07:41:32Z</time>
      </trkpt>
      <trkpt lat="50.00591" lon="4.03784">
        <ele>196.2</ele>
        <time>2024-04-28T07:41:33Z</time>
      </trkpt>
      <trkpt lat="50.00592" lon="4.03772">
        <ele>196.2</ele>
        <time>2024-04-28T07:41:34Z</time>
      </trkpt>
      <trkpt lat="50.00592" lon="4.0376">
        <ele>196.4</ele>
        <time>2024-04-28T07:41:35Z</time>
      </trkpt>
      <trkpt lat="50.00592" lon="4.03748">
        <ele>197</ele>
        <time>2024-04-28T07:41:36Z</time>
      </trkpt>
      <trkpt lat="50.00593" lon="4.03737">
        <ele>197</ele>
        <time>2024-04-28T07:41:37Z</time>
      </trkpt>
      <trkpt lat="50.00593" lon="4.03726">
        <ele>197.6</ele>
        <time>2024-04-28T07:41:38Z</time>
      </trkpt>
      <trkpt lat="50.00594" lon="4.03716">
        <ele>197.8</ele>
        <time>2024-04-28T07:41:39Z</time>
      </trkpt>
      <trkpt lat="50.00594" lon="4.03706">
        <ele>198</ele>
        <time>2024-04-28T07:41:40Z</time>
      </trkpt>
      <trkpt lat="50.00594" lon="4.03697">
        <ele>198.4</ele>
        <time>2024-04-28T07:41:41Z</time>
      </trkpt>
      <trkpt lat="50.00594" lon="4.03689">
        <ele>198.6</ele>
        <time>2024-04-28T07:41:42Z</time>
      </trkpt>
      <trkpt lat="50.00594" lon="4.0368">
        <ele>198.8</ele>
        <time>2024-04-28T07:41:43Z</time>
      </trkpt>
      <trkpt lat="50.00594" lon="4.03672">
        <ele>199.2</ele>
        <time>2024-04-28T07:41:44Z</time>
      </trkpt>
      <trkpt lat="50.00594" lon="4.03663">
        <ele>199.6</ele>
        <time>2024-04-28T07:41:45Z</time>
      </trkpt>
      <trkpt lat="50.00594" lon="4.03654">
        <ele>200</ele>
        <time>2024-04-28T07:41:46Z</time>
      </trkpt>
      <trkpt lat="50.00593" lon="4.03645">
        <ele>200.4</ele>
        <time>2024-04-28T07:41:47Z</time>
      </trkpt>
      <trkpt lat="50.00592" lon="4.03636">
        <ele>200.8</ele>
        <time>2024-04-28T07:41:48Z</time>
      </trkpt>
      <trkpt lat="50.00591" lon="4.03628">
        <ele>201.6</ele>
        <time>2024-04-28T07:41:49Z</time>
      </trkpt>
      <trkpt lat="50.0059" lon="4.0362">
        <ele>202.8</ele>
        <time>2024-04-28T07:41:50Z</time>
      </trkpt>
      <trkpt lat="50.00588" lon="4.03612">
        <ele>203.4</ele>
        <time>2024-04-28T07:41:51Z</time>
      </trkpt>
      <trkpt lat="50.00586" lon="4.03603">
        <ele>203.6</ele>
        <time>2024-04-28T07:41:52Z</time>
      </trkpt>
      <trkpt lat="50.00585" lon="4.03595">
        <ele>203.6</ele>
        <time>2024-04-28T07:41:53Z</time>
      </trkpt>
      <trkpt lat="50.00583" lon="4.03586">
        <ele>204.4</ele>
        <time>2024-04-28T07:41:54Z</time>
      </trkpt>
      <trkpt lat="50.00581" lon="4.03578">
        <ele>205</ele>
        <time>2024-04-28T07:41:55Z</time>
      </trkpt>
      <trkpt lat="50.00579" lon="4.03569">
        <ele>205.6</ele>
        <time>2024-04-28T07:41:56Z</time>
      </trkpt>
      <trkpt lat="50.00578" lon="4.03561">
        <ele>206</ele>
        <time>2024-04-28T07:41:57Z</time>
      </trkpt>
      <trkpt lat="50.00576" lon="4.03552">
        <ele>206.4</ele>
        <time>2024-04-28T07:41:58Z</time>
      </trkpt>
      <trkpt lat="50.00574" lon="4.03544">
        <ele>206.6</ele>
        <time>2024-04-28T07:41:59Z</time>
      </trkpt>
      <trkpt lat="50.00572" lon="4.03536">
        <ele>206.8</ele>
        <time>2024-04-28T07:42:00Z</time>
      </trkpt>
      <trkpt lat="50.00569" lon="4.03529">
        <ele>207</ele>
        <time>2024-04-28T07:42:01Z</time>
      </trkpt>
      <trkpt lat="50.00566" lon="4.03522">
        <ele>207.2</ele>
        <time>2024-04-28T07:42:02Z</time>
      </trkpt>
      <trkpt lat="50.00563" lon="4.03515">
        <ele>207.4</ele>
        <time>2024-04-28T07:42:03Z</time>
      </trkpt>
      <trkpt lat="50.0056" lon="4.03508">
        <ele>207.8</ele>
        <time>2024-04-28T07:42:04Z</time>
      </trkpt>
      <trkpt lat="50.00557" lon="4.03502">
        <ele>208.2</ele>
        <time>2024-04-28T07:42:05Z</time>
      </trkpt>
      <trkpt lat="50.00554" lon="4.03496">
        <ele>208.4</ele>
        <time>2024-04-28T07:42:06Z</time>
      </trkpt>
      <trkpt lat="50.0055" lon="4.03489">
        <ele>208.2</ele>
        <time>2024-04-28T07:42:07Z</time>
      </trkpt>
      <trkpt lat="50.00548" lon="4.03483">
        <ele>208.6</ele>
        <time>2024-04-28T07:42:08Z</time>
      </trkpt>
      <trkpt lat="50.00545" lon="4.03477">
        <ele>208.8</ele>
        <time>2024-04-28T07:42:09Z</time>
      </trkpt>
      <trkpt lat="50.00544" lon="4.0347">
        <ele>208.8</ele>
        <time>2024-04-28T07:42:10Z</time>
      </trkpt>
      <trkpt lat="50.00543" lon="4.03464">
        <ele>209.4</ele>
        <time>2024-04-28T07:42:11Z</time>
      </trkpt>
      <trkpt lat="50.00543" lon="4.03457">
        <ele>209.8</ele>
        <time>2024-04-28T07:42:12Z</time>
      </trkpt>
      <trkpt lat="50.00542" lon="4.03449">
        <ele>210</ele>
        <time>2024-04-28T07:42:13Z</time>
      </trkpt>
      <trkpt lat="50.0054" lon="4.03441">
        <ele>210.4</ele>
        <time>2024-04-28T07:42:14Z</time>
      </trkpt>
      <trkpt lat="50.00537" lon="4.03434">
        <ele>210.8</ele>
        <time>2024-04-28T07:42:15Z</time>
      </trkpt>
      <trkpt lat="50.00534" lon="4.03427">
        <ele>211.2</ele>
        <time>2024-04-28T07:42:16Z</time>
      </trkpt>
      <trkpt lat="50.0053" lon="4.03421">
        <ele>211.6</ele>
        <time>2024-04-28T07:42:17Z</time>
      </trkpt>
      <trkpt lat="50.00526" lon="4.03415">
        <ele>211.8</ele>
        <time>2024-04-28T07:42:18Z</time>
      </trkpt>
      <trkpt lat="50.00522" lon="4.03408">
        <ele>211.8</ele>
        <time>2024-04-28T07:42:19Z</time>
      </trkpt>
      <trkpt lat="50.0052" lon="4.03401">
        <ele>212</ele>
        <time>2024-04-28T07:42:20Z</time>
      </trkpt>
      <trkpt lat="50.00518" lon="4.03395">
        <ele>212.2</ele>
        <time>2024-04-28T07:42:21Z</time>
      </trkpt>
      <trkpt lat="50.00517" lon="4.03388">
        <ele>212.2</ele>
        <time>2024-04-28T07:42:22Z</time>
      </trkpt>
      <trkpt lat="50.00515" lon="4.03382">
        <ele>212.4</ele>
        <time>2024-04-28T07:42:23Z</time>
      </trkpt>
      <trkpt lat="50.00514" lon="4.03375">
        <ele>212.4</ele>
        <time>2024-04-28T07:42:24Z</time>
      </trkpt>
      <trkpt lat="50.00513" lon="4.03369">
        <ele>212.6</ele>
        <time>2024-04-28T07:42:25Z</time>
      </trkpt>
      <trkpt lat="50.00512" lon="4.03363">
        <ele>212.6</ele>
        <time>2024-04-28T07:42:26Z</time>
      </trkpt>
      <trkpt lat="50.00511" lon="4.03358">
        <ele>212.8</ele>
        <time>2024-04-28T07:42:27Z</time>
      </trkpt>
      <trkpt lat="50.0051" lon="4.03352">
        <ele>212.8</ele>
        <time>2024-04-28T07:42:28Z</time>
      </trkpt>
      <trkpt lat="50.00509" lon="4.03346">
        <ele>213.2</ele>
        <time>2024-04-28T07:42:29Z</time>
      </trkpt>
      <trkpt lat="50.00509" lon="4.03341">
        <ele>213.4</ele>
        <time>2024-04-28T07:42:30Z</time>
      </trkpt>
      <trkpt lat="50.00508" lon="4.03335">
        <ele>213.8</ele>
        <time>2024-04-28T07:42:31Z</time>
      </trkpt>
      <trkpt lat="50.00507" lon="4.0333">
        <ele>214.2</ele>
        <time>2024-04-28T07:42:32Z</time>
      </trkpt>
      <trkpt lat="50.00507" lon="4.03325">
        <ele>214.8</ele>
        <time>2024-04-28T07:42:33Z</time>
      </trkpt>
      <trkpt lat="50.00507" lon="4.03319">
        <ele>215.2</ele>
        <time>2024-04-28T07:42:34Z</time>
      </trkpt>
      <trkpt lat="50.00508" lon="4.03314">
        <ele>215.4</ele>
        <time>2024-04-28T07:42:35Z</time>
      </trkpt>
      <trkpt lat="50.00508" lon="4.03309">
        <ele>216</ele>
        <time>2024-04-28T07:42:36Z</time>
      </trkpt>
      <trkpt lat="50.00509" lon="4.03303">
        <ele>216.8</ele>
        <time>2024-04-28T07:42:37Z</time>
      </trkpt>
      <trkpt lat="50.0051" lon="4.03298">
        <ele>217.8</ele>
        <time>2024-04-28T07:42:38Z</time>
      </trkpt>
      <trkpt lat="50.00512" lon="4.03292">
        <ele>218.6</ele>
        <time>2024-04-28T07:42:39Z</time>
      </trkpt>
      <trkpt lat="50.00513" lon="4.03287">
        <ele>218.8</ele>
        <time>2024-04-28T07:42:40Z</time>
      </trkpt>
      <trkpt lat="50.00515" lon="4.03281">
        <ele>219.2</ele>
        <time>2024-04-28T07:42:41Z</time>
      </trkpt>
      <trkpt lat="50.00517" lon="4.03276">
        <ele>219.4</ele>
        <time>2024-04-28T07:42:42Z</time>
      </trkpt>
      <trkpt lat="50.0052" lon="4.03271">
        <ele>219.8</ele>
        <time>2024-04-28T07:42:43Z</time>
      </trkpt>
      <trkpt lat="50.00522" lon="4.03265">
        <ele>219.8</ele>
        <time>2024-04-28T07:42:44Z</time>
      </trkpt>
      <trkpt lat="50.00525" lon="4.03259">
        <ele>220.2</ele>
        <time>2024-04-28T07:42:45Z</time>
      </trkpt>
      <trkpt lat="50.00528" lon="4.03254">
        <ele>220.2</ele>
        <time>2024-04-28T07:42:46Z</time>
      </trkpt>
      <trkpt lat="50.00532" lon="4.03247">
        <ele>220.2</ele>
        <time>2024-04-28T07:42:47Z</time>
      </trkpt>
      <trkpt lat="50.00536" lon="4.03241">
        <ele>220.2</ele>
        <time>2024-04-28T07:42:48Z</time>
      </trkpt>
      <trkpt lat="50.0054" lon="4.03235">
        <ele>220.4</ele>
        <time>2024-04-28T07:42:49Z</time>
      </trkpt>
      <trkpt lat="50.00544" lon="4.03229">
        <ele>220.4</ele>
        <time>2024-04-28T07:42:50Z</time>
      </trkpt>
      <trkpt lat="50.00548" lon="4.03222">
        <ele>220.6</ele>
        <time>2024-04-28T07:42:51Z</time>
      </trkpt>
      <trkpt lat="50.00552" lon="4.03215">
        <ele>220.4</ele>
        <time>2024-04-28T07:42:52Z</time>
      </trkpt>
      <trkpt lat="50.00557" lon="4.03209">
        <ele>220.6</ele>
        <time>2024-04-28T07:42:53Z</time>
      </trkpt>
      <trkpt lat="50.00561" lon="4.03202">
        <ele>220.6</ele>
        <time>2024-04-28T07:42:54Z</time>
      </trkpt>
      <trkpt lat="50.00565" lon="4.03195">
        <ele>220.4</ele>
        <time>2024-04-28T07:42:55Z</time>
      </trkpt>
      <trkpt lat="50.00568" lon="4.03188">
        <ele>220.6</ele>
        <time>2024-04-28T07:42:56Z</time>
      </trkpt>
      <trkpt lat="50.00572" lon="4.03181">
        <ele>220.4</ele>
        <time>2024-04-28T07:42:57Z</time>
      </trkpt>
      <trkpt lat="50.00576" lon="4.03174">
        <ele>220.4</ele>
        <time>2024-04-28T07:42:58Z</time>
      </trkpt>
      <trkpt lat="50.0058" lon="4.03167">
        <ele>220.4</ele>
        <time>2024-04-28T07:42:59Z</time>
      </trkpt>
      <trkpt lat="50.00584" lon="4.0316">
        <ele>220.4</ele>
        <time>2024-04-28T07:43:00Z</time>
      </trkpt>
      <trkpt lat="50.00588" lon="4.03153">
        <ele>220.4</ele>
        <time>2024-04-28T07:43:01Z</time>
      </trkpt>
      <trkpt lat="50.00591" lon="4.03146">
        <ele>220.4</ele>
        <time>2024-04-28T07:43:02Z</time>
      </trkpt>
      <trkpt lat="50.00595" lon="4.03139">
        <ele>220.2</ele>
        <time>2024-04-28T07:43:03Z</time>
      </trkpt>
      <trkpt lat="50.00599" lon="4.03133">
        <ele>220.4</ele>
        <time>2024-04-28T07:43:04Z</time>
      </trkpt>
      <trkpt lat="50.00602" lon="4.03126">
        <ele>220.4</ele>
        <time>2024-04-28T07:43:05Z</time>
      </trkpt>
      <trkpt lat="50.00606" lon="4.0312">
        <ele>220.2</ele>
        <time>2024-04-28T07:43:06Z</time>
      </trkpt>
      <trkpt lat="50.00609" lon="4.03113">
        <ele>220.2</ele>
        <time>2024-04-28T07:43:07Z</time>
      </trkpt>
      <trkpt lat="50.00613" lon="4.03107">
        <ele>220.4</ele>
        <time>2024-04-28T07:43:08Z</time>
      </trkpt>
      <trkpt lat="50.00616" lon="4.031">
        <ele>220.2</ele>
        <time>2024-04-28T07:43:09Z</time>
      </trkpt>
      <trkpt lat="50.0062" lon="4.03094">
        <ele>220.4</ele>
        <time>2024-04-28T07:43:10Z</time>
      </trkpt>
      <trkpt lat="50.00624" lon="4.03088">
        <ele>220.4</ele>
        <time>2024-04-28T07:43:11Z</time>
      </trkpt>
      <trkpt lat="50.00628" lon="4.03081">
        <ele>220.4</ele>
        <time>2024-04-28T07:43:12Z</time>
      </trkpt>
      <trkpt lat="50.00631" lon="4.03075">
        <ele>220.4</ele>
        <time>2024-04-28T07:43:13Z</time>
      </trkpt>
      <trkpt lat="50.00635" lon="4.03069">
        <ele>220.6</ele>
        <time>2024-04-28T07:43:14Z</time>
      </trkpt>
      <trkpt lat="50.00639" lon="4.03062">
        <ele>221</ele>
        <time>2024-04-28T07:43:15Z</time>
      </trkpt>
      <trkpt lat="50.00643" lon="4.03056">
        <ele>220.8</ele>
        <time>2024-04-28T07:43:16Z</time>
      </trkpt>
      <trkpt lat="50.00646" lon="4.03049">
        <ele>220.8</ele>
        <time>2024-04-28T07:43:17Z</time>
      </trkpt>
      <trkpt lat="50.0065" lon="4.03043">
        <ele>221</ele>
        <time>2024-04-28T07:43:18Z</time>
      </trkpt>
      <trkpt lat="50.00653" lon="4.03036">
        <ele>221.2</ele>
        <time>2024-04-28T07:43:19Z</time>
      </trkpt>
      <trkpt lat="50.00657" lon="4.0303">
        <ele>221</ele>
        <time>2024-04-28T07:43:20Z</time>
      </trkpt>
      <trkpt lat="50.0066" lon="4.03024">
        <ele>221.2</ele>
        <time>2024-04-28T07:43:21Z</time>
      </trkpt>
      <trkpt lat="50.00664" lon="4.03018">
        <ele>221.4</ele>
        <time>2024-04-28T07:43:22Z</time>
      </trkpt>
      <trkpt lat="50.00667" lon="4.03014">
        <ele>221.4</ele>
        <time>2024-04-28T07:43:23Z</time>
      </trkpt>
      <trkpt lat="50.00671" lon="4.03008">
        <ele>221.4</ele>
        <time>2024-04-28T07:43:24Z</time>
      </trkpt>
      <trkpt lat="50.00674" lon="4.03003">
        <ele>221.4</ele>
        <time>2024-04-28T07:43:25Z</time>
      </trkpt>
      <trkpt lat="50.00677" lon="4.02998">
        <ele>221.6</ele>
        <time>2024-04-28T07:43:26Z</time>
      </trkpt>
      <trkpt lat="50.0068" lon="4.02992">
        <ele>221.8</ele>
        <time>2024-04-28T07:43:27Z</time>
      </trkpt>
      <trkpt lat="50.00683" lon="4.02987">
        <ele>221.6</ele>
        <time>2024-04-28T07:43:28Z</time>
      </trkpt>
      <trkpt lat="50.00687" lon="4.02982">
        <ele>222</ele>
        <time>2024-04-28T07:43:29Z</time>
      </trkpt>
      <trkpt lat="50.0069" lon="4.02976">
        <ele>222.2</ele>
        <time>2024-04-28T07:43:30Z</time>
      </trkpt>
      <trkpt lat="50.00693" lon="4.02971">
        <ele>222.4</ele>
        <time>2024-04-28T07:43:31Z</time>
      </trkpt>
      <trkpt lat="50.00697" lon="4.02965">
        <ele>222.4</ele>
        <time>2024-04-28T07:43:32Z</time>
      </trkpt>
      <trkpt lat="50.007" lon="4.02959">
        <ele>222.4</ele>
        <time>2024-04-28T07:43:33Z</time>
      </trkpt>
      <trkpt lat="50.00704" lon="4.02953">
        <ele>222.4</ele>
        <time>2024-04-28T07:43:34Z</time>
      </trkpt>
      <trkpt lat="50.00707" lon="4.02947">
        <ele>222.4</ele>
        <time>2024-04-28T07:43:35Z</time>
      </trkpt>
      <trkpt lat="50.00711" lon="4.02941">
        <ele>222.6</ele>
        <time>2024-04-28T07:43:36Z</time>
      </trkpt>
      <trkpt lat="50.00715" lon="4.02935">
        <ele>222.6</ele>
        <time>2024-04-28T07:43:37Z</time>
      </trkpt>
      <trkpt lat="50.00718" lon="4.02928">
        <ele>222.6</ele>
        <time>2024-04-28T07:43:38Z</time>
      </trkpt>
      <trkpt lat="50.00722" lon="4.02922">
        <ele>222.6</ele>
        <time>2024-04-28T07:43:39Z</time>
      </trkpt>
      <trkpt lat="50.00725" lon="4.02915">
        <ele>222.6</ele>
        <time>2024-04-28T07:43:40Z</time>
      </trkpt>
      <trkpt lat="50.00728" lon="4.02908">
        <ele>222.6</ele>
        <time>2024-04-28T07:43:41Z</time>
      </trkpt>
      <trkpt lat="50.00731" lon="4.029">
        <ele>222.8</ele>
        <time>2024-04-28T07:43:42Z</time>
      </trkpt>
      <trkpt lat="50.00734" lon="4.02893">
        <ele>222.8</ele>
        <time>2024-04-28T07:43:43Z</time>
      </trkpt>
      <trkpt lat="50.00737" lon="4.02885">
        <ele>222.6</ele>
        <time>2024-04-28T07:43:44Z</time>
      </trkpt>
      <trkpt lat="50.0074" lon="4.02876">
        <ele>222.8</ele>
        <time>2024-04-28T07:43:45Z</time>
      </trkpt>
      <trkpt lat="50.00742" lon="4.02868">
        <ele>222.6</ele>
        <time>2024-04-28T07:43:46Z</time>
      </trkpt>
      <trkpt lat="50.00745" lon="4.02859">
        <ele>222.8</ele>
        <time>2024-04-28T07:43:47Z</time>
      </trkpt>
      <trkpt lat="50.00748" lon="4.0285">
        <ele>222.6</ele>
        <time>2024-04-28T07:43:48Z</time>
      </trkpt>
      <trkpt lat="50.00751" lon="4.02841">
        <ele>222.6</ele>
        <time>2024-04-28T07:43:49Z</time>
      </trkpt>
      <trkpt lat="50.00754" lon="4.02831">
        <ele>222.6</ele>
        <time>2024-04-28T07:43:50Z</time>
      </trkpt>
      <trkpt lat="50.00757" lon="4.0282">
        <ele>222.6</ele>
        <time>2024-04-28T07:43:51Z</time>
      </trkpt>
      <trkpt lat="50.00761" lon="4.02809">
        <ele>222.6</ele>
        <time>2024-04-28T07:43:52Z</time>
      </trkpt>
      <trkpt lat="50.00764" lon="4.02797">
        <ele>222.8</ele>
        <time>2024-04-28T07:43:53Z</time>
      </trkpt>
      <trkpt lat="50.00767" lon="4.02785">
        <ele>222.4</ele>
        <time>2024-04-28T07:43:54Z</time>
      </trkpt>
      <trkpt lat="50.0077" lon="4.02772">
        <ele>222</ele>
        <time>2024-04-28T07:43:55Z</time>
      </trkpt>
      <trkpt lat="50.00772" lon="4.02759">
        <ele>221.8</ele>
        <time>2024-04-28T07:43:56Z</time>
      </trkpt>
      <trkpt lat="50.00775" lon="4.02746">
        <ele>221.6</ele>
        <time>2024-04-28T07:43:57Z</time>
      </trkpt>
      <trkpt lat="50.00777" lon="4.02732">
        <ele>221.2</ele>
        <time>2024-04-28T07:43:58Z</time>
      </trkpt>
      <trkpt lat="50.0078" lon="4.02719">
        <ele>221</ele>
        <time>2024-04-28T07:43:59Z</time>
      </trkpt>
      <trkpt lat="50.00784" lon="4.02706">
        <ele>220.6</ele>
        <time>2024-04-28T07:44:00Z</time>
      </trkpt>
      <trkpt lat="50.00789" lon="4.02693">
        <ele>220.2</ele>
        <time>2024-04-28T07:44:01Z</time>
      </trkpt>
      <trkpt lat="50.00793" lon="4.02681">
        <ele>219.8</ele>
        <time>2024-04-28T07:44:02Z</time>
      </trkpt>
      <trkpt lat="50.00798" lon="4.02669">
        <ele>219.2</ele>
        <time>2024-04-28T07:44:03Z</time>
      </trkpt>
      <trkpt lat="50.00803" lon="4.02656">
        <ele>218.8</ele>
        <time>2024-04-28T07:44:04Z</time>
      </trkpt>
      <trkpt lat="50.00807" lon="4.02643">
        <ele>218.4</ele>
        <time>2024-04-28T07:44:05Z</time>
      </trkpt>
      <trkpt lat="50.00812" lon="4.0263">
        <ele>218.2</ele>
        <time>2024-04-28T07:44:06Z</time>
      </trkpt>
      <trkpt lat="50.00817" lon="4.02616">
        <ele>218.2</ele>
        <time>2024-04-28T07:44:07Z</time>
      </trkpt>
      <trkpt lat="50.00822" lon="4.02603">
        <ele>218.2</ele>
        <time>2024-04-28T07:44:08Z</time>
      </trkpt>
      <trkpt lat="50.00827" lon="4.02589">
        <ele>218</ele>
        <time>2024-04-28T07:44:09Z</time>
      </trkpt>
      <trkpt lat="50.00832" lon="4.02575">
        <ele>218</ele>
        <time>2024-04-28T07:44:10Z</time>
      </trkpt>
      <trkpt lat="50.00837" lon="4.0256">
        <ele>218</ele>
        <time>2024-04-28T07:44:11Z</time>
      </trkpt>
      <trkpt lat="50.00842" lon="4.02546">
        <ele>217.2</ele>
        <time>2024-04-28T07:44:12Z</time>
      </trkpt>
      <trkpt lat="50.00847" lon="4.02531">
        <ele>216.8</ele>
        <time>2024-04-28T07:44:13Z</time>
      </trkpt>
      <trkpt lat="50.00854" lon="4.02517">
        <ele>216.6</ele>
        <time>2024-04-28T07:44:14Z</time>
      </trkpt>
      <trkpt lat="50.0086" lon="4.02503">
        <ele>215.8</ele>
        <time>2024-04-28T07:44:15Z</time>
      </trkpt>
      <trkpt lat="50.00867" lon="4.02488">
        <ele>214.8</ele>
        <time>2024-04-28T07:44:16Z</time>
      </trkpt>
      <trkpt lat="50.00874" lon="4.02474">
        <ele>214.2</ele>
        <time>2024-04-28T07:44:17Z</time>
      </trkpt>
      <trkpt lat="50.00881" lon="4.02458">
        <ele>213.8</ele>
        <time>2024-04-28T07:44:18Z</time>
      </trkpt>
      <trkpt lat="50.00888" lon="4.02443">
        <ele>212.6</ele>
        <time>2024-04-28T07:44:19Z</time>
      </trkpt>
      <trkpt lat="50.00894" lon="4.02427">
        <ele>212</ele>
        <time>2024-04-28T07:44:20Z</time>
      </trkpt>
      <trkpt lat="50.009" lon="4.02409">
        <ele>211</ele>
        <time>2024-04-28T07:44:21Z</time>
      </trkpt>
      <trkpt lat="50.00906" lon="4.02391">
        <ele>210</ele>
        <time>2024-04-28T07:44:22Z</time>
      </trkpt>
      <trkpt lat="50.00911" lon="4.02373">
        <ele>210</ele>
        <time>2024-04-28T07:44:23Z</time>
      </trkpt>
      <trkpt lat="50.00915" lon="4.02354">
        <ele>208.4</ele>
        <time>2024-04-28T07:44:24Z</time>
      </trkpt>
      <trkpt lat="50.0092" lon="4.02335">
        <ele>208.4</ele>
        <time>2024-04-28T07:44:25Z</time>
      </trkpt>
      <trkpt lat="50.00924" lon="4.02316">
        <ele>207.2</ele>
        <time>2024-04-28T07:44:26Z</time>
      </trkpt>
      <trkpt lat="50.00928" lon="4.02297">
        <ele>206.2</ele>
        <time>2024-04-28T07:44:27Z</time>
      </trkpt>
      <trkpt lat="50.00932" lon="4.02278">
        <ele>205.4</ele>
        <time>2024-04-28T07:44:28Z</time>
      </trkpt>
      <trkpt lat="50.00937" lon="4.02259">
        <ele>204.4</ele>
        <time>2024-04-28T07:44:29Z</time>
      </trkpt>
      <trkpt lat="50.00941" lon="4.0224">
        <ele>202.8</ele>
        <time>2024-04-28T07:44:30Z</time>
      </trkpt>
      <trkpt lat="50.00946" lon="4.02222">
        <ele>201.4</ele>
        <time>2024-04-28T07:44:31Z</time>
      </trkpt>
      <trkpt lat="50.00952" lon="4.02204">
        <ele>200.4</ele>
        <time>2024-04-28T07:44:32Z</time>
      </trkpt>
      <trkpt lat="50.00958" lon="4.02186">
        <ele>199.8</ele>
        <time>2024-04-28T07:44:33Z</time>
      </trkpt>
      <trkpt lat="50.00965" lon="4.0217">
        <ele>199.2</ele>
        <time>2024-04-28T07:44:34Z</time>
      </trkpt>
      <trkpt lat="50.00972" lon="4.02153">
        <ele>198.6</ele>
        <time>2024-04-28T07:44:35Z</time>
      </trkpt>
      <trkpt lat="50.00979" lon="4.02137">
        <ele>198.2</ele>
        <time>2024-04-28T07:44:36Z</time>
      </trkpt>
      <trkpt lat="50.00985" lon="4.02122">
        <ele>198</ele>
        <time>2024-04-28T07:44:37Z</time>
      </trkpt>
      <trkpt lat="50.00992" lon="4.02107">
        <ele>197.2</ele>
        <time>2024-04-28T07:44:38Z</time>
      </trkpt>
      <trkpt lat="50.00999" lon="4.02092">
        <ele>196.6</ele>
        <time>2024-04-28T07:44:39Z</time>
      </trkpt>
      <trkpt lat="50.01007" lon="4.02078">
        <ele>196.6</ele>
        <time>2024-04-28T07:44:40Z</time>
      </trkpt>
      <trkpt lat="50.01015" lon="4.02065">
        <ele>196.4</ele>
        <time>2024-04-28T07:44:41Z</time>
      </trkpt>
      <trkpt lat="50.01024" lon="4.02053">
        <ele>195.4</ele>
        <time>2024-04-28T07:44:42Z</time>
      </trkpt>
      <trkpt lat="50.01033" lon="4.02042">
        <ele>194.8</ele>
        <time>2024-04-28T07:44:43Z</time>
      </trkpt>
      <trkpt lat="50.01043" lon="4.02032">
        <ele>194.2</ele>
        <time>2024-04-28T07:44:44Z</time>
      </trkpt>
      <trkpt lat="50.01053" lon="4.02021">
        <ele>193.8</ele>
        <time>2024-04-28T07:44:45Z</time>
      </trkpt>
      <trkpt lat="50.01062" lon="4.02011">
        <ele>193.6</ele>
        <time>2024-04-28T07:44:46Z</time>
      </trkpt>
      <trkpt lat="50.01071" lon="4.02001">
        <ele>193.2</ele>
        <time>2024-04-28T07:44:47Z</time>
      </trkpt>
      <trkpt lat="50.0108" lon="4.0199">
        <ele>193.2</ele>
        <time>2024-04-28T07:44:48Z</time>
      </trkpt>
      <trkpt lat="50.01088" lon="4.01979">
        <ele>192.8</ele>
        <time>2024-04-28T07:44:49Z</time>
      </trkpt>
      <trkpt lat="50.01095" lon="4.01967">
        <ele>192.8</ele>
        <time>2024-04-28T07:44:50Z</time>
      </trkpt>
      <trkpt lat="50.01102" lon="4.01955">
        <ele>192.6</ele>
        <time>2024-04-28T07:44:51Z</time>
      </trkpt>
      <trkpt lat="50.01109" lon="4.01942">
        <ele>192.4</ele>
        <time>2024-04-28T07:44:52Z</time>
      </trkpt>
      <trkpt lat="50.01115" lon="4.0193">
        <ele>192.2</ele>
        <time>2024-04-28T07:44:53Z</time>
      </trkpt>
      <trkpt lat="50.01122" lon="4.01917">
        <ele>192</ele>
        <time>2024-04-28T07:44:54Z</time>
      </trkpt>
      <trkpt lat="50.01128" lon="4.01904">
        <ele>192.2</ele>
        <time>2024-04-28T07:44:55Z</time>
      </trkpt>
      <trkpt lat="50.01133" lon="4.0189">
        <ele>192</ele>
        <time>2024-04-28T07:44:56Z</time>
      </trkpt>
      <trkpt lat="50.01139" lon="4.01877">
        <ele>192</ele>
        <time>2024-04-28T07:44:57Z</time>
      </trkpt>
      <trkpt lat="50.01144" lon="4.01864">
        <ele>192</ele>
        <time>2024-04-28T07:44:58Z</time>
      </trkpt>
      <trkpt lat="50.0115" lon="4.01851">
        <ele>191.8</ele>
        <time>2024-04-28T07:44:59Z</time>
      </trkpt>
      <trkpt lat="50.01155" lon="4.01838">
        <ele>191.8</ele>
        <time>2024-04-28T07:45:00Z</time>
      </trkpt>
      <trkpt lat="50.01161" lon="4.01825">
        <ele>191.6</ele>
        <time>2024-04-28T07:45:01Z</time>
      </trkpt>
      <trkpt lat="50.01166" lon="4.01811">
        <ele>191.4</ele>
        <time>2024-04-28T07:45:02Z</time>
      </trkpt>
      <trkpt lat="50.01172" lon="4.01798">
        <ele>191.4</ele>
        <time>2024-04-28T07:45:03Z</time>
      </trkpt>
      <trkpt lat="50.01178" lon="4.01784">
        <ele>191.4</ele>
        <time>2024-04-28T07:45:04Z</time>
      </trkpt>
      <trkpt lat="50.01183" lon="4.01769">
        <ele>191.2</ele>
        <time>2024-04-28T07:45:05Z</time>
      </trkpt>
      <trkpt lat="50.01189" lon="4.01755">
        <ele>191.2</ele>
        <time>2024-04-28T07:45:06Z</time>
      </trkpt>
      <trkpt lat="50.01195" lon="4.0174">
        <ele>191.2</ele>
        <time>2024-04-28T07:45:07Z</time>
      </trkpt>
      <trkpt lat="50.01201" lon="4.01724">
        <ele>191</ele>
        <time>2024-04-28T07:45:08Z</time>
      </trkpt>
      <trkpt lat="50.01207" lon="4.01709">
        <ele>190.8</ele>
        <time>2024-04-28T07:45:09Z</time>
      </trkpt>
      <trkpt lat="50.01213" lon="4.01693">
        <ele>190.4</ele>
        <time>2024-04-28T07:45:10Z</time>
      </trkpt>
      <trkpt lat="50.01219" lon="4.01677">
        <ele>190.2</ele>
        <time>2024-04-28T07:45:11Z</time>
      </trkpt>
      <trkpt lat="50.01225" lon="4.01661">
        <ele>190</ele>
        <time>2024-04-28T07:45:12Z</time>
      </trkpt>
      <trkpt lat="50.01231" lon="4.01645">
        <ele>190.2</ele>
        <time>2024-04-28T07:45:13Z</time>
      </trkpt>
      <trkpt lat="50.01237" lon="4.0163">
        <ele>189.4</ele>
        <time>2024-04-28T07:45:14Z</time>
      </trkpt>
      <trkpt lat="50.01243" lon="4.01614">
        <ele>188.8</ele>
        <time>2024-04-28T07:45:15Z</time>
      </trkpt>
      <trkpt lat="50.01249" lon="4.01598">
        <ele>188.2</ele>
        <time>2024-04-28T07:45:16Z</time>
      </trkpt>
      <trkpt lat="50.01255" lon="4.01582">
        <ele>187.6</ele>
        <time>2024-04-28T07:45:17Z</time>
      </trkpt>
      <trkpt lat="50.01261" lon="4.01567">
        <ele>187.6</ele>
        <time>2024-04-28T07:45:18Z</time>
      </trkpt>
      <trkpt lat="50.01268" lon="4.01552">
        <ele>187.4</ele>
        <time>2024-04-28T07:45:19Z</time>
      </trkpt>
      <trkpt lat="50.01275" lon="4.01539">
        <ele>187</ele>
        <time>2024-04-28T07:45:20Z</time>
      </trkpt>
      <trkpt lat="50.01283" lon="4.01525">
        <ele>186.2</ele>
        <time>2024-04-28T07:45:21Z</time>
      </trkpt>
      <trkpt lat="50.0129" lon="4.01513">
        <ele>185.8</ele>
        <time>2024-04-28T07:45:22Z</time>
      </trkpt>
      <trkpt lat="50.01297" lon="4.01501">
        <ele>185.4</ele>
        <time>2024-04-28T07:45:23Z</time>
      </trkpt>
      <trkpt lat="50.01303" lon="4.01489">
        <ele>185</ele>
        <time>2024-04-28T07:45:24Z</time>
      </trkpt>
      <trkpt lat="50.0131" lon="4.01477">
        <ele>184.4</ele>
        <time>2024-04-28T07:45:25Z</time>
      </trkpt>
      <trkpt lat="50.01316" lon="4.01465">
        <ele>184.2</ele>
        <time>2024-04-28T07:45:26Z</time>
      </trkpt>
      <trkpt lat="50.01323" lon="4.01453">
        <ele>184.2</ele>
        <time>2024-04-28T07:45:27Z</time>
      </trkpt>
      <trkpt lat="50.0133" lon="4.01442">
        <ele>184.2</ele>
        <time>2024-04-28T07:45:28Z</time>
      </trkpt>
      <trkpt lat="50.01335" lon="4.01431">
        <ele>184.2</ele>
        <time>2024-04-28T07:45:29Z</time>
      </trkpt>
      <trkpt lat="50.0134" lon="4.01419">
        <ele>184.2</ele>
        <time>2024-04-28T07:45:30Z</time>
      </trkpt>
      <trkpt lat="50.01344" lon="4.01408">
        <ele>184.2</ele>
        <time>2024-04-28T07:45:31Z</time>
      </trkpt>
      <trkpt lat="50.01348" lon="4.01397">
        <ele>184.2</ele>
        <time>2024-04-28T07:45:32Z</time>
      </trkpt>
      <trkpt lat="50.01352" lon="4.01386">
        <ele>184</ele>
        <time>2024-04-28T07:45:33Z</time>
      </trkpt>
      <trkpt lat="50.01356" lon="4.01375">
        <ele>183.8</ele>
        <time>2024-04-28T07:45:34Z</time>
      </trkpt>
      <trkpt lat="50.0136" lon="4.01364">
        <ele>183.8</ele>
        <time>2024-04-28T07:45:35Z</time>
      </trkpt>
      <trkpt lat="50.01364" lon="4.01353">
        <ele>183.6</ele>
        <time>2024-04-28T07:45:36Z</time>
      </trkpt>
      <trkpt lat="50.01368" lon="4.01341">
        <ele>183.8</ele>
        <time>2024-04-28T07:45:37Z</time>
      </trkpt>
      <trkpt lat="50.01373" lon="4.0133">
        <ele>183.6</ele>
        <time>2024-04-28T07:45:38Z</time>
      </trkpt>
      <trkpt lat="50.01378" lon="4.01318">
        <ele>183.8</ele>
        <time>2024-04-28T07:45:39Z</time>
      </trkpt>
      <trkpt lat="50.01382" lon="4.01306">
        <ele>183.8</ele>
        <time>2024-04-28T07:45:40Z</time>
      </trkpt>
      <trkpt lat="50.01386" lon="4.01293">
        <ele>183.6</ele>
        <time>2024-04-28T07:45:41Z</time>
      </trkpt>
      <trkpt lat="50.0139" lon="4.0128">
        <ele>183.6</ele>
        <time>2024-04-28T07:45:42Z</time>
      </trkpt>
      <trkpt lat="50.01394" lon="4.01267">
        <ele>183.4</ele>
        <time>2024-04-28T07:45:43Z</time>
      </trkpt>
      <trkpt lat="50.01399" lon="4.01254">
        <ele>183.4</ele>
        <time>2024-04-28T07:45:44Z</time>
      </trkpt>
      <trkpt lat="50.01403" lon="4.01242">
        <ele>183.2</ele>
        <time>2024-04-28T07:45:45Z</time>
      </trkpt>
      <trkpt lat="50.01407" lon="4.01231">
        <ele>183</ele>
        <time>2024-04-28T07:45:46Z</time>
      </trkpt>
      <trkpt lat="50.01412" lon="4.0122">
        <ele>182.8</ele>
        <time>2024-04-28T07:45:47Z</time>
      </trkpt>
      <trkpt lat="50.01416" lon="4.01209">
        <ele>182.6</ele>
        <time>2024-04-28T07:45:48Z</time>
      </trkpt>
      <trkpt lat="50.01421" lon="4.01199">
        <ele>182.4</ele>
        <time>2024-04-28T07:45:49Z</time>
      </trkpt>
      <trkpt lat="50.01426" lon="4.0119">
        <ele>182.4</ele>
        <time>2024-04-28T07:45:50Z</time>
      </trkpt>
      <trkpt lat="50.01432" lon="4.01182">
        <ele>182.4</ele>
        <time>2024-04-28T07:45:51Z</time>
      </trkpt>
      <trkpt lat="50.01439" lon="4.01175">
        <ele>182.4</ele>
        <time>2024-04-28T07:45:52Z</time>
      </trkpt>
      <trkpt lat="50.01447" lon="4.01168">
        <ele>182.2</ele>
        <time>2024-04-28T07:45:53Z</time>
      </trkpt>
      <trkpt lat="50.01454" lon="4.01162">
        <ele>182.2</ele>
        <time>2024-04-28T07:45:54Z</time>
      </trkpt>
      <trkpt lat="50.01463" lon="4.01155">
        <ele>182.2</ele>
        <time>2024-04-28T07:45:55Z</time>
      </trkpt>
      <trkpt lat="50.01471" lon="4.01147">
        <ele>182</ele>
        <time>2024-04-28T07:45:56Z</time>
      </trkpt>
      <trkpt lat="50.01479" lon="4.01139">
        <ele>182</ele>
        <time>2024-04-28T07:45:57Z</time>
      </trkpt>
      <trkpt lat="50.01487" lon="4.01132">
        <ele>181.8</ele>
        <time>2024-04-28T07:45:58Z</time>
      </trkpt>
      <trkpt lat="50.01494" lon="4.01125">
        <ele>181.6</ele>
        <time>2024-04-28T07:45:59Z</time>
      </trkpt>
      <trkpt lat="50.015" lon="4.01119">
        <ele>181.4</ele>
        <time>2024-04-28T07:46:00Z</time>
      </trkpt>
      <trkpt lat="50.01505" lon="4.01114">
        <ele>181.2</ele>
        <time>2024-04-28T07:46:01Z</time>
      </trkpt>
      <trkpt lat="50.01511" lon="4.01108">
        <ele>180.4</ele>
        <time>2024-04-28T07:46:02Z</time>
      </trkpt>
      <trkpt lat="50.01517" lon="4.01103">
        <ele>179.2</ele>
        <time>2024-04-28T07:46:03Z</time>
      </trkpt>
      <trkpt lat="50.01524" lon="4.01096">
        <ele>178.2</ele>
        <time>2024-04-28T07:46:04Z</time>
      </trkpt>
      <trkpt lat="50.01531" lon="4.0109">
        <ele>177.4</ele>
        <time>2024-04-28T07:46:05Z</time>
      </trkpt>
      <trkpt lat="50.01539" lon="4.01082">
        <ele>176.6</ele>
        <time>2024-04-28T07:46:06Z</time>
      </trkpt>
      <trkpt lat="50.01547" lon="4.01073">
        <ele>175.8</ele>
        <time>2024-04-28T07:46:07Z</time>
      </trkpt>
      <trkpt lat="50.01555" lon="4.01062">
        <ele>175.8</ele>
        <time>2024-04-28T07:46:08Z</time>
      </trkpt>
      <trkpt lat="50.01563" lon="4.01052">
        <ele>175.2</ele>
        <time>2024-04-28T07:46:09Z</time>
      </trkpt>
      <trkpt lat="50.01571" lon="4.01042">
        <ele>173.8</ele>
        <time>2024-04-28T07:46:10Z</time>
      </trkpt>
      <trkpt lat="50.01579" lon="4.01032">
        <ele>173.2</ele>
        <time>2024-04-28T07:46:11Z</time>
      </trkpt>
      <trkpt lat="50.01588" lon="4.01023">
        <ele>172.4</ele>
        <time>2024-04-28T07:46:12Z</time>
      </trkpt>
      <trkpt lat="50.01597" lon="4.01013">
        <ele>171.6</ele>
        <time>2024-04-28T07:46:13Z</time>
      </trkpt>
      <trkpt lat="50.01604" lon="4.01002">
        <ele>169.8</ele>
        <time>2024-04-28T07:46:14Z</time>
      </trkpt>
      <trkpt lat="50.01612" lon="4.00991">
        <ele>167.8</ele>
        <time>2024-04-28T07:46:15Z</time>
      </trkpt>
      <trkpt lat="50.0162" lon="4.00981">
        <ele>166.4</ele>
        <time>2024-04-28T07:46:16Z</time>
      </trkpt>
      <trkpt lat="50.01627" lon="4.00971">
        <ele>165.8</ele>
        <time>2024-04-28T07:46:17Z</time>
      </trkpt>
      <trkpt lat="50.01635" lon="4.00961">
        <ele>164.8</ele>
        <time>2024-04-28T07:46:18Z</time>
      </trkpt>
      <trkpt lat="50.01643" lon="4.00951">
        <ele>164.2</ele>
        <time>2024-04-28T07:46:19Z</time>
      </trkpt>
      <trkpt lat="50.0165" lon="4.0094">
        <ele>163.8</ele>
        <time>2024-04-28T07:46:20Z</time>
      </trkpt>
      <trkpt lat="50.01657" lon="4.0093">
        <ele>163.8</ele>
        <time>2024-04-28T07:46:21Z</time>
      </trkpt>
      <trkpt lat="50.01664" lon="4.00919">
        <ele>163.6</ele>
        <time>2024-04-28T07:46:22Z</time>
      </trkpt>
      <trkpt lat="50.01669" lon="4.00907">
        <ele>163.4</ele>
        <time>2024-04-28T07:46:23Z</time>
      </trkpt>
      <trkpt lat="50.01674" lon="4.00894">
        <ele>163.4</ele>
        <time>2024-04-28T07:46:24Z</time>
      </trkpt>
      <trkpt lat="50.01677" lon="4.00881">
        <ele>163.6</ele>
        <time>2024-04-28T07:46:25Z</time>
      </trkpt>
      <trkpt lat="50.01679" lon="4.00868">
        <ele>163.6</ele>
        <time>2024-04-28T07:46:26Z</time>
      </trkpt>
      <trkpt lat="50.0168" lon="4.00855">
        <ele>163.4</ele>
        <time>2024-04-28T07:46:27Z</time>
      </trkpt>
      <trkpt lat="50.0168" lon="4.00843">
        <ele>163.6</ele>
        <time>2024-04-28T07:46:28Z</time>
      </trkpt>
      <trkpt lat="50.0168" lon="4.00831">
        <ele>163.6</ele>
        <time>2024-04-28T07:46:29Z</time>
      </trkpt>
      <trkpt lat="50.0168" lon="4.0082">
        <ele>163.8</ele>
        <time>2024-04-28T07:46:30Z</time>
      </trkpt>
      <trkpt lat="50.01679" lon="4.0081">
        <ele>163.8</ele>
        <time>2024-04-28T07:46:31Z</time>
      </trkpt>
      <trkpt lat="50.01679" lon="4.008">
        <ele>164</ele>
        <time>2024-04-28T07:46:32Z</time>
      </trkpt>
      <trkpt lat="50.01678" lon="4.00791">
        <ele>164.4</ele>
        <time>2024-04-28T07:46:33Z</time>
      </trkpt>
      <trkpt lat="50.01677" lon="4.00783">
        <ele>164.4</ele>
        <time>2024-04-28T07:46:34Z</time>
      </trkpt>
      <trkpt lat="50.01677" lon="4.00775">
        <ele>164.6</ele>
        <time>2024-04-28T07:46:35Z</time>
      </trkpt>
      <trkpt lat="50.01676" lon="4.00767">
        <ele>164.6</ele>
        <time>2024-04-28T07:46:36Z</time>
      </trkpt>
      <trkpt lat="50.01676" lon="4.00759">
        <ele>164.8</ele>
        <time>2024-04-28T07:46:37Z</time>
      </trkpt>
      <trkpt lat="50.01675" lon="4.00751">
        <ele>165</ele>
        <time>2024-04-28T07:46:38Z</time>
      </trkpt>
      <trkpt lat="50.01673" lon="4.00745">
        <ele>165.6</ele>
        <time>2024-04-28T07:46:39Z</time>
      </trkpt>
      <trkpt lat="50.01672" lon="4.00738">
        <ele>166.2</ele>
        <time>2024-04-28T07:46:40Z</time>
      </trkpt>
      <trkpt lat="50.01671" lon="4.00733">
        <ele>166.6</ele>
        <time>2024-04-28T07:46:41Z</time>
      </trkpt>
      <trkpt lat="50.01671" lon="4.00727">
        <ele>167.6</ele>
        <time>2024-04-28T07:46:42Z</time>
      </trkpt>
      <trkpt lat="50.01673" lon="4.00722">
        <ele>167.6</ele>
        <time>2024-04-28T07:46:43Z</time>
      </trkpt>
      <trkpt lat="50.01676" lon="4.00718">
        <ele>168.4</ele>
        <time>2024-04-28T07:46:44Z</time>
      </trkpt>
      <trkpt lat="50.0168" lon="4.00717">
        <ele>168.8</ele>
        <time>2024-04-28T07:46:45Z</time>
      </trkpt>
      <trkpt lat="50.01683" lon="4.00718">
        <ele>169.2</ele>
        <time>2024-04-28T07:46:46Z</time>
      </trkpt>
      <trkpt lat="50.01687" lon="4.00719">
        <ele>169.4</ele>
        <time>2024-04-28T07:46:47Z</time>
      </trkpt>
      <trkpt lat="50.0169" lon="4.0072">
        <ele>169.6</ele>
        <time>2024-04-28T07:46:48Z</time>
      </trkpt>
      <trkpt lat="50.01694" lon="4.00721">
        <ele>169.8</ele>
        <time>2024-04-28T07:46:49Z</time>
      </trkpt>
      <trkpt lat="50.01698" lon="4.00722">
        <ele>170</ele>
        <time>2024-04-28T07:46:50Z</time>
      </trkpt>
      <trkpt lat="50.01703" lon="4.00723">
        <ele>170.2</ele>
        <time>2024-04-28T07:46:51Z</time>
      </trkpt>
      <trkpt lat="50.01708" lon="4.00725">
        <ele>171</ele>
        <time>2024-04-28T07:46:52Z</time>
      </trkpt>
      <trkpt lat="50.01712" lon="4.00726">
        <ele>171.8</ele>
        <time>2024-04-28T07:46:53Z</time>
      </trkpt>
      <trkpt lat="50.01717" lon="4.00727">
        <ele>172.4</ele>
        <time>2024-04-28T07:46:54Z</time>
      </trkpt>
      <trkpt lat="50.01721" lon="4.00728">
        <ele>172.8</ele>
        <time>2024-04-28T07:46:55Z</time>
      </trkpt>
      <trkpt lat="50.01726" lon="4.00728">
        <ele>173.2</ele>
        <time>2024-04-28T07:46:56Z</time>
      </trkpt>
      <trkpt lat="50.0173" lon="4.00728">
        <ele>173.4</ele>
        <time>2024-04-28T07:46:57Z</time>
      </trkpt>
      <trkpt lat="50.01735" lon="4.00728">
        <ele>173.4</ele>
        <time>2024-04-28T07:46:58Z</time>
      </trkpt>
      <trkpt lat="50.01739" lon="4.00728">
        <ele>173.4</ele>
        <time>2024-04-28T07:46:59Z</time>
      </trkpt>
      <trkpt lat="50.01744" lon="4.00727">
        <ele>173.6</ele>
        <time>2024-04-28T07:47:00Z</time>
      </trkpt>
      <trkpt lat="50.01748" lon="4.00727">
        <ele>173.8</ele>
        <time>2024-04-28T07:47:01Z</time>
      </trkpt>
      <trkpt lat="50.01753" lon="4.00726">
        <ele>174.4</ele>
        <time>2024-04-28T07:47:02Z</time>
      </trkpt>
      <trkpt lat="50.01757" lon="4.00726">
        <ele>175.2</ele>
        <time>2024-04-28T07:47:03Z</time>
      </trkpt>
      <trkpt lat="50.01761" lon="4.00725">
        <ele>175.4</ele>
        <time>2024-04-28T07:47:04Z</time>
      </trkpt>
      <trkpt lat="50.01766" lon="4.00725">
        <ele>175.8</ele>
        <time>2024-04-28T07:47:05Z</time>
      </trkpt>
      <trkpt lat="50.0177" lon="4.00725">
        <ele>176</ele>
        <time>2024-04-28T07:47:06Z</time>
      </trkpt>
      <trkpt lat="50.01774" lon="4.00724">
        <ele>176.2</ele>
        <time>2024-04-28T07:47:07Z</time>
      </trkpt>
      <trkpt lat="50.01779" lon="4.00723">
        <ele>176.6</ele>
        <time>2024-04-28T07:47:08Z</time>
      </trkpt>
      <trkpt lat="50.01783" lon="4.00722">
        <ele>177</ele>
        <time>2024-04-28T07:47:09Z</time>
      </trkpt>
      <trkpt lat="50.01787" lon="4.00721">
        <ele>177.2</ele>
        <time>2024-04-28T07:47:10Z</time>
      </trkpt>
      <trkpt lat="50.01791" lon="4.0072">
        <ele>177.2</ele>
        <time>2024-04-28T07:47:11Z</time>
      </trkpt>
      <trkpt lat="50.01795" lon="4.00718">
        <ele>177.4</ele>
        <time>2024-04-28T07:47:12Z</time>
      </trkpt>
      <trkpt lat="50.01799" lon="4.00717">
        <ele>177.4</ele>
        <time>2024-04-28T07:47:13Z</time>
      </trkpt>
      <trkpt lat="50.01804" lon="4.00715">
        <ele>177.6</ele>
        <time>2024-04-28T07:47:14Z</time>
      </trkpt>
      <trkpt lat="50.01808" lon="4.00714">
        <ele>177.6</ele>
        <time>2024-04-28T07:47:15Z</time>
      </trkpt>
      <trkpt lat="50.01812" lon="4.00713">
        <ele>177.8</ele>
        <time>2024-04-28T07:47:16Z</time>
      </trkpt>
      <trkpt lat="50.01816" lon="4.00712">
        <ele>178</ele>
        <time>2024-04-28T07:47:17Z</time>
      </trkpt>
      <trkpt lat="50.0182" lon="4.00711">
        <ele>178.2</ele>
        <time>2024-04-28T07:47:18Z</time>
      </trkpt>
      <trkpt lat="50.01824" lon="4.0071">
        <ele>178.4</ele>
        <time>2024-04-28T07:47:19Z</time>
      </trkpt>
      <trkpt lat="50.01828" lon="4.0071">
        <ele>178.6</ele>
        <time>2024-04-28T07:47:20Z</time>
      </trkpt>
      <trkpt lat="50.01832" lon="4.0071">
        <ele>178.8</ele>
        <time>2024-04-28T07:47:21Z</time>
      </trkpt>
      <trkpt lat="50.01836" lon="4.00709">
        <ele>179.2</ele>
        <time>2024-04-28T07:47:22Z</time>
      </trkpt>
      <trkpt lat="50.0184" lon="4.00709">
        <ele>179.6</ele>
        <time>2024-04-28T07:47:23Z</time>
      </trkpt>
      <trkpt lat="50.01844" lon="4.00709">
        <ele>179.8</ele>
        <time>2024-04-28T07:47:24Z</time>
      </trkpt>
      <trkpt lat="50.01848" lon="4.00709">
        <ele>180</ele>
        <time>2024-04-28T07:47:25Z</time>
      </trkpt>
      <trkpt lat="50.01852" lon="4.00708">
        <ele>180.2</ele>
        <time>2024-04-28T07:47:26Z</time>
      </trkpt>
      <trkpt lat="50.01856" lon="4.00708">
        <ele>180.4</ele>
        <time>2024-04-28T07:47:27Z</time>
      </trkpt>
      <trkpt lat="50.01861" lon="4.00709">
        <ele>180.4</ele>
        <time>2024-04-28T07:47:28Z</time>
      </trkpt>
      <trkpt lat="50.01865" lon="4.00709">
        <ele>180.4</ele>
        <time>2024-04-28T07:47:29Z</time>
      </trkpt>
      <trkpt lat="50.0187" lon="4.00709">
        <ele>180.6</ele>
        <time>2024-04-28T07:47:30Z</time>
      </trkpt>
      <trkpt lat="50.01874" lon="4.00709">
        <ele>181.4</ele>
        <time>2024-04-28T07:47:31Z</time>
      </trkpt>
      <trkpt lat="50.01879" lon="4.00709">
        <ele>182</ele>
        <time>2024-04-28T07:47:32Z</time>
      </trkpt>
      <trkpt lat="50.01884" lon="4.00709">
        <ele>182</ele>
        <time>2024-04-28T07:47:33Z</time>
      </trkpt>
      <trkpt lat="50.01888" lon="4.00708">
        <ele>182.2</ele>
        <time>2024-04-28T07:47:34Z</time>
      </trkpt>
      <trkpt lat="50.01893" lon="4.00708">
        <ele>182.4</ele>
        <time>2024-04-28T07:47:35Z</time>
      </trkpt>
      <trkpt lat="50.01898" lon="4.00708">
        <ele>182.6</ele>
        <time>2024-04-28T07:47:36Z</time>
      </trkpt>
      <trkpt lat="50.01904" lon="4.00708">
        <ele>182.8</ele>
        <time>2024-04-28T07:47:37Z</time>
      </trkpt>
      <trkpt lat="50.01909" lon="4.00707">
        <ele>182.8</ele>
        <time>2024-04-28T07:47:38Z</time>
      </trkpt>
      <trkpt lat="50.01914" lon="4.00707">
        <ele>183.2</ele>
        <time>2024-04-28T07:47:39Z</time>
      </trkpt>
      <trkpt lat="50.0192" lon="4.00707">
        <ele>183</ele>
        <time>2024-04-28T07:47:40Z</time>
      </trkpt>
      <trkpt lat="50.01925" lon="4.00707">
        <ele>183.2</ele>
        <time>2024-04-28T07:47:41Z</time>
      </trkpt>
      <trkpt lat="50.0193" lon="4.00707">
        <ele>183.4</ele>
        <time>2024-04-28T07:47:42Z</time>
      </trkpt>
      <trkpt lat="50.01935" lon="4.00706">
        <ele>183.4</ele>
        <time>2024-04-28T07:47:43Z</time>
      </trkpt>
      <trkpt lat="50.0194" lon="4.00705">
        <ele>183.4</ele>
        <time>2024-04-28T07:47:44Z</time>
      </trkpt>
      <trkpt lat="50.01945" lon="4.00705">
        <ele>183.6</ele>
        <time>2024-04-28T07:47:45Z</time>
      </trkpt>
      <trkpt lat="50.01951" lon="4.00704">
        <ele>183.6</ele>
        <time>2024-04-28T07:47:46Z</time>
      </trkpt>
      <trkpt lat="50.01956" lon="4.00704">
        <ele>183.8</ele>
        <time>2024-04-28T07:47:47Z</time>
      </trkpt>
      <trkpt lat="50.01961" lon="4.00703">
        <ele>184</ele>
        <time>2024-04-28T07:47:48Z</time>
      </trkpt>
      <trkpt lat="50.01966" lon="4.00703">
        <ele>184.2</ele>
        <time>2024-04-28T07:47:49Z</time>
      </trkpt>
      <trkpt lat="50.01971" lon="4.00703">
        <ele>184.2</ele>
        <time>2024-04-28T07:47:50Z</time>
      </trkpt>
      <trkpt lat="50.01976" lon="4.00703">
        <ele>184.2</ele>
        <time>2024-04-28T07:47:51Z</time>
      </trkpt>
      <trkpt lat="50.01981" lon="4.00703">
        <ele>184.4</ele>
        <time>2024-04-28T07:47:52Z</time>
      </trkpt>
      <trkpt lat="50.01985" lon="4.00702">
        <ele>184.6</ele>
        <time>2024-04-28T07:47:53Z</time>
      </trkpt>
      <trkpt lat="50.0199" lon="4.00699">
        <ele>184.6</ele>
        <time>2024-04-28T07:47:54Z</time>
      </trkpt>
      <trkpt lat="50.01994" lon="4.00695">
        <ele>184.6</ele>
        <time>2024-04-28T07:47:55Z</time>
      </trkpt>
      <trkpt lat="50.01999" lon="4.00691">
        <ele>184.6</ele>
        <time>2024-04-28T07:47:56Z</time>
      </trkpt>
      <trkpt lat="50.02004" lon="4.00689">
        <ele>184.8</ele>
        <time>2024-04-28T07:47:57Z</time>
      </trkpt>
      <trkpt lat="50.02009" lon="4.00687">
        <ele>184.8</ele>
        <time>2024-04-28T07:47:58Z</time>
      </trkpt>
      <trkpt lat="50.02015" lon="4.00688">
        <ele>185</ele>
        <time>2024-04-28T07:47:59Z</time>
      </trkpt>
      <trkpt lat="50.02021" lon="4.00689">
        <ele>185</ele>
        <time>2024-04-28T07:48:00Z</time>
      </trkpt>
      <trkpt lat="50.02027" lon="4.00691">
        <ele>185</ele>
        <time>2024-04-28T07:48:01Z</time>
      </trkpt>
      <trkpt lat="50.02033" lon="4.00693">
        <ele>185.6</ele>
        <time>2024-04-28T07:48:02Z</time>
      </trkpt>
      <trkpt lat="50.02039" lon="4.00694">
        <ele>186</ele>
        <time>2024-04-28T07:48:03Z</time>
      </trkpt>
      <trkpt lat="50.02046" lon="4.00695">
        <ele>186</ele>
        <time>2024-04-28T07:48:04Z</time>
      </trkpt>
      <trkpt lat="50.02052" lon="4.00696">
        <ele>186.2</ele>
        <time>2024-04-28T07:48:05Z</time>
      </trkpt>
      <trkpt lat="50.02059" lon="4.00695">
        <ele>186.4</ele>
        <time>2024-04-28T07:48:06Z</time>
      </trkpt>
      <trkpt lat="50.02067" lon="4.00693">
        <ele>186.4</ele>
        <time>2024-04-28T07:48:07Z</time>
      </trkpt>
      <trkpt lat="50.02074" lon="4.00691">
        <ele>186.4</ele>
        <time>2024-04-28T07:48:08Z</time>
      </trkpt>
      <trkpt lat="50.02082" lon="4.00687">
        <ele>186.4</ele>
        <time>2024-04-28T07:48:09Z</time>
      </trkpt>
      <trkpt lat="50.0209" lon="4.00684">
        <ele>186.4</ele>
        <time>2024-04-28T07:48:10Z</time>
      </trkpt>
      <trkpt lat="50.02098" lon="4.00681">
        <ele>186.4</ele>
        <time>2024-04-28T07:48:11Z</time>
      </trkpt>
      <trkpt lat="50.02107" lon="4.00677">
        <ele>186.4</ele>
        <time>2024-04-28T07:48:12Z</time>
      </trkpt>
      <trkpt lat="50.02116" lon="4.00673">
        <ele>186.4</ele>
        <time>2024-04-28T07:48:13Z</time>
      </trkpt>
      <trkpt lat="50.02125" lon="4.00669">
        <ele>186.4</ele>
        <time>2024-04-28T07:48:14Z</time>
      </trkpt>
      <trkpt lat="50.02135" lon="4.00665">
        <ele>186.4</ele>
        <time>2024-04-28T07:48:15Z</time>
      </trkpt>
      <trkpt lat="50.02145" lon="4.00661">
        <ele>186.2</ele>
        <time>2024-04-28T07:48:16Z</time>
      </trkpt>
      <trkpt lat="50.02155" lon="4.00657">
        <ele>186.2</ele>
        <time>2024-04-28T07:48:17Z</time>
      </trkpt>
      <trkpt lat="50.02165" lon="4.00654">
        <ele>185.8</ele>
        <time>2024-04-28T07:48:18Z</time>
      </trkpt>
      <trkpt lat="50.02176" lon="4.00651">
        <ele>185.6</ele>
        <time>2024-04-28T07:48:19Z</time>
      </trkpt>
      <trkpt lat="50.02187" lon="4.00649">
        <ele>185.2</ele>
        <time>2024-04-28T07:48:20Z</time>
      </trkpt>
      <trkpt lat="50.02199" lon="4.00647">
        <ele>184.4</ele>
        <time>2024-04-28T07:48:21Z</time>
      </trkpt>
      <trkpt lat="50.02211" lon="4.00645">
        <ele>183</ele>
        <time>2024-04-28T07:48:22Z</time>
      </trkpt>
      <trkpt lat="50.02222" lon="4.00643">
        <ele>182.2</ele>
        <time>2024-04-28T07:48:23Z</time>
      </trkpt>
      <trkpt lat="50.02234" lon="4.00641">
        <ele>182.2</ele>
        <time>2024-04-28T07:48:24Z</time>
      </trkpt>
      <trkpt lat="50.02246" lon="4.00639">
        <ele>181.8</ele>
        <time>2024-04-28T07:48:25Z</time>
      </trkpt>
      <trkpt lat="50.02258" lon="4.00637">
        <ele>181.2</ele>
        <time>2024-04-28T07:48:26Z</time>
      </trkpt>
      <trkpt lat="50.0227" lon="4.00636">
        <ele>180.8</ele>
        <time>2024-04-28T07:48:27Z</time>
      </trkpt>
      <trkpt lat="50.02281" lon="4.00634">
        <ele>180.2</ele>
        <time>2024-04-28T07:48:28Z</time>
      </trkpt>
      <trkpt lat="50.02293" lon="4.00632">
        <ele>179.8</ele>
        <time>2024-04-28T07:48:29Z</time>
      </trkpt>
      <trkpt lat="50.02305" lon="4.0063">
        <ele>179</ele>
        <time>2024-04-28T07:48:30Z</time>
      </trkpt>
      <trkpt lat="50.02316" lon="4.00628">
        <ele>177.8</ele>
        <time>2024-04-28T07:48:31Z</time>
      </trkpt>
      <trkpt lat="50.02328" lon="4.00626">
        <ele>177</ele>
        <time>2024-04-28T07:48:32Z</time>
      </trkpt>
      <trkpt lat="50.02339" lon="4.00626">
        <ele>175.8</ele>
        <time>2024-04-28T07:48:33Z</time>
      </trkpt>
      <trkpt lat="50.02351" lon="4.00626">
        <ele>175.2</ele>
        <time>2024-04-28T07:48:34Z</time>
      </trkpt>
      <trkpt lat="50.02362" lon="4.00627">
        <ele>175</ele>
        <time>2024-04-28T07:48:35Z</time>
      </trkpt>
      <trkpt lat="50.02374" lon="4.00629">
        <ele>174.8</ele>
        <time>2024-04-28T07:48:36Z</time>
      </trkpt>
      <trkpt lat="50.02385" lon="4.00631">
        <ele>174.6</ele>
        <time>2024-04-28T07:48:37Z</time>
      </trkpt>
      <trkpt lat="50.02396" lon="4.00634">
        <ele>174.4</ele>
        <time>2024-04-28T07:48:38Z</time>
      </trkpt>
      <trkpt lat="50.02407" lon="4.00638">
        <ele>174</ele>
        <time>2024-04-28T07:48:39Z</time>
      </trkpt>
      <trkpt lat="50.02418" lon="4.00641">
        <ele>174</ele>
        <time>2024-04-28T07:48:40Z</time>
      </trkpt>
      <trkpt lat="50.02429" lon="4.00642">
        <ele>173.8</ele>
        <time>2024-04-28T07:48:41Z</time>
      </trkpt>
      <trkpt lat="50.0244" lon="4.0064">
        <ele>173.6</ele>
        <time>2024-04-28T07:48:42Z</time>
      </trkpt>
      <trkpt lat="50.0245" lon="4.00634">
        <ele>173.6</ele>
        <time>2024-04-28T07:48:43Z</time>
      </trkpt>
      <trkpt lat="50.0246" lon="4.00626">
        <ele>173.6</ele>
        <time>2024-04-28T07:48:44Z</time>
      </trkpt>
      <trkpt lat="50.02468" lon="4.00615">
        <ele>173.4</ele>
        <time>2024-04-28T07:48:45Z</time>
      </trkpt>
      <trkpt lat="50.02476" lon="4.00604">
        <ele>173.4</ele>
        <time>2024-04-28T07:48:46Z</time>
      </trkpt>
      <trkpt lat="50.02485" lon="4.00596">
        <ele>173.4</ele>
        <time>2024-04-28T07:48:47Z</time>
      </trkpt>
      <trkpt lat="50.02494" lon="4.00589">
        <ele>173.4</ele>
        <time>2024-04-28T07:48:48Z</time>
      </trkpt>
      <trkpt lat="50.02504" lon="4.00584">
        <ele>173.2</ele>
        <time>2024-04-28T07:48:49Z</time>
      </trkpt>
      <trkpt lat="50.02513" lon="4.00581">
        <ele>173.2</ele>
        <time>2024-04-28T07:48:50Z</time>
      </trkpt>
      <trkpt lat="50.02522" lon="4.00578">
        <ele>173.2</ele>
        <time>2024-04-28T07:48:51Z</time>
      </trkpt>
      <trkpt lat="50.02531" lon="4.00575">
        <ele>173.2</ele>
        <time>2024-04-28T07:48:52Z</time>
      </trkpt>
      <trkpt lat="50.0254" lon="4.00572">
        <ele>173.2</ele>
        <time>2024-04-28T07:48:53Z</time>
      </trkpt>
      <trkpt lat="50.02549" lon="4.00569">
        <ele>173.2</ele>
        <time>2024-04-28T07:48:54Z</time>
      </trkpt>
      <trkpt lat="50.02558" lon="4.00565">
        <ele>173</ele>
        <time>2024-04-28T07:48:55Z</time>
      </trkpt>
      <trkpt lat="50.02566" lon="4.00561">
        <ele>173</ele>
        <time>2024-04-28T07:48:56Z</time>
      </trkpt>
      <trkpt lat="50.02575" lon="4.00557">
        <ele>173.2</ele>
        <time>2024-04-28T07:48:57Z</time>
      </trkpt>
      <trkpt lat="50.02583" lon="4.00553">
        <ele>173.2</ele>
        <time>2024-04-28T07:48:58Z</time>
      </trkpt>
      <trkpt lat="50.02591" lon="4.0055">
        <ele>173.2</ele>
        <time>2024-04-28T07:48:59Z</time>
      </trkpt>
      <trkpt lat="50.026" lon="4.00546">
        <ele>173.2</ele>
        <time>2024-04-28T07:49:00Z</time>
      </trkpt>
      <trkpt lat="50.02608" lon="4.00542">
        <ele>173.4</ele>
        <time>2024-04-28T07:49:01Z</time>
      </trkpt>
      <trkpt lat="50.02615" lon="4.00537">
        <ele>173.8</ele>
        <time>2024-04-28T07:49:02Z</time>
      </trkpt>
      <trkpt lat="50.02623" lon="4.00533">
        <ele>174.4</ele>
        <time>2024-04-28T07:49:03Z</time>
      </trkpt>
      <trkpt lat="50.02631" lon="4.00529">
        <ele>174.6</ele>
        <time>2024-04-28T07:49:04Z</time>
      </trkpt>
      <trkpt lat="50.02638" lon="4.00524">
        <ele>175.2</ele>
        <time>2024-04-28T07:49:05Z</time>
      </trkpt>
      <trkpt lat="50.02646" lon="4.0052">
        <ele>175.4</ele>
        <time>2024-04-28T07:49:06Z</time>
      </trkpt>
      <trkpt lat="50.02653" lon="4.00516">
        <ele>175.6</ele>
        <time>2024-04-28T07:49:07Z</time>
      </trkpt>
      <trkpt lat="50.0266" lon="4.00511">
        <ele>175.8</ele>
        <time>2024-04-28T07:49:08Z</time>
      </trkpt>
      <trkpt lat="50.02667" lon="4.00507">
        <ele>175.8</ele>
        <time>2024-04-28T07:49:09Z</time>
      </trkpt>
      <trkpt lat="50.02674" lon="4.00502">
        <ele>176.2</ele>
        <time>2024-04-28T07:49:10Z</time>
      </trkpt>
      <trkpt lat="50.0268" lon="4.00498">
        <ele>176.2</ele>
        <time>2024-04-28T07:49:11Z</time>
      </trkpt>
      <trkpt lat="50.02687" lon="4.00493">
        <ele>176.8</ele>
        <time>2024-04-28T07:49:12Z</time>
      </trkpt>
      <trkpt lat="50.02693" lon="4.00488">
        <ele>177</ele>
        <time>2024-04-28T07:49:13Z</time>
      </trkpt>
      <trkpt lat="50.02699" lon="4.00483">
        <ele>177.4</ele>
        <time>2024-04-28T07:49:14Z</time>
      </trkpt>
      <trkpt lat="50.02704" lon="4.00477">
        <ele>177.6</ele>
        <time>2024-04-28T07:49:15Z</time>
      </trkpt>
      <trkpt lat="50.02709" lon="4.00472">
        <ele>177.6</ele>
        <time>2024-04-28T07:49:16Z</time>
      </trkpt>
      <trkpt lat="50.02715" lon="4.00466">
        <ele>178</ele>
        <time>2024-04-28T07:49:17Z</time>
      </trkpt>
      <trkpt lat="50.0272" lon="4.0046">
        <ele>178.2</ele>
        <time>2024-04-28T07:49:18Z</time>
      </trkpt>
      <trkpt lat="50.02724" lon="4.00453">
        <ele>178.4</ele>
        <time>2024-04-28T07:49:19Z</time>
      </trkpt>
      <trkpt lat="50.02729" lon="4.00447">
        <ele>178.4</ele>
        <time>2024-04-28T07:49:20Z</time>
      </trkpt>
      <trkpt lat="50.02733" lon="4.00441">
        <ele>178.8</ele>
        <time>2024-04-28T07:49:21Z</time>
      </trkpt>
      <trkpt lat="50.02737" lon="4.00434">
        <ele>179</ele>
        <time>2024-04-28T07:49:22Z</time>
      </trkpt>
      <trkpt lat="50.02742" lon="4.00428">
        <ele>179.4</ele>
        <time>2024-04-28T07:49:23Z</time>
      </trkpt>
      <trkpt lat="50.02746" lon="4.00422">
        <ele>179.6</ele>
        <time>2024-04-28T07:49:24Z</time>
      </trkpt>
      <trkpt lat="50.0275" lon="4.00416">
        <ele>180</ele>
        <time>2024-04-28T07:49:25Z</time>
      </trkpt>
      <trkpt lat="50.02755" lon="4.0041">
        <ele>180.2</ele>
        <time>2024-04-28T07:49:26Z</time>
      </trkpt>
      <trkpt lat="50.02759" lon="4.00405">
        <ele>180.4</ele>
        <time>2024-04-28T07:49:27Z</time>
      </trkpt>
      <trkpt lat="50.02764" lon="4.004">
        <ele>180.6</ele>
        <time>2024-04-28T07:49:28Z</time>
      </trkpt>
      <trkpt lat="50.02768" lon="4.00395">
        <ele>180.6</ele>
        <time>2024-04-28T07:49:29Z</time>
      </trkpt>
      <trkpt lat="50.02773" lon="4.00391">
        <ele>181.4</ele>
        <time>2024-04-28T07:49:30Z</time>
      </trkpt>
      <trkpt lat="50.02778" lon="4.00386">
        <ele>182</ele>
        <time>2024-04-28T07:49:31Z</time>
      </trkpt>
      <trkpt lat="50.02782" lon="4.00382">
        <ele>182</ele>
        <time>2024-04-28T07:49:32Z</time>
      </trkpt>
      <trkpt lat="50.02787" lon="4.00378">
        <ele>182.6</ele>
        <time>2024-04-28T07:49:33Z</time>
      </trkpt>
      <trkpt lat="50.02792" lon="4.00374">
        <ele>183.2</ele>
        <time>2024-04-28T07:49:34Z</time>
      </trkpt>
      <trkpt lat="50.02797" lon="4.00371">
        <ele>183.4</ele>
        <time>2024-04-28T07:49:35Z</time>
      </trkpt>
      <trkpt lat="50.02802" lon="4.00367">
        <ele>183.8</ele>
        <time>2024-04-28T07:49:36Z</time>
      </trkpt>
      <trkpt lat="50.02807" lon="4.00364">
        <ele>184.2</ele>
        <time>2024-04-28T07:49:37Z</time>
      </trkpt>
      <trkpt lat="50.02813" lon="4.0036">
        <ele>184.6</ele>
        <time>2024-04-28T07:49:38Z</time>
      </trkpt>
      <trkpt lat="50.02818" lon="4.00356">
        <ele>185</ele>
        <time>2024-04-28T07:49:39Z</time>
      </trkpt>
      <trkpt lat="50.02823" lon="4.00353">
        <ele>185.6</ele>
        <time>2024-04-28T07:49:40Z</time>
      </trkpt>
      <trkpt lat="50.02828" lon="4.00349">
        <ele>186</ele>
        <time>2024-04-28T07:49:41Z</time>
      </trkpt>
      <trkpt lat="50.02834" lon="4.00346">
        <ele>186.4</ele>
        <time>2024-04-28T07:49:42Z</time>
      </trkpt>
      <trkpt lat="50.0284" lon="4.00342">
        <ele>186.6</ele>
        <time>2024-04-28T07:49:43Z</time>
      </trkpt>
      <trkpt lat="50.02845" lon="4.00338">
        <ele>186.8</ele>
        <time>2024-04-28T07:49:44Z</time>
      </trkpt>
      <trkpt lat="50.02851" lon="4.00335">
        <ele>187</ele>
        <time>2024-04-28T07:49:45Z</time>
      </trkpt>
      <trkpt lat="50.02857" lon="4.00331">
        <ele>187.2</ele>
        <time>2024-04-28T07:49:46Z</time>
      </trkpt>
      <trkpt lat="50.02863" lon="4.00327">
        <ele>187.4</ele>
        <time>2024-04-28T07:49:47Z</time>
      </trkpt>
      <trkpt lat="50.02868" lon="4.00323">
        <ele>187.8</ele>
        <time>2024-04-28T07:49:48Z</time>
      </trkpt>
      <trkpt lat="50.02874" lon="4.00319">
        <ele>187.8</ele>
        <time>2024-04-28T07:49:49Z</time>
      </trkpt>
      <trkpt lat="50.0288" lon="4.00315">
        <ele>188</ele>
        <time>2024-04-28T07:49:50Z</time>
      </trkpt>
      <trkpt lat="50.02886" lon="4.00311">
        <ele>188.2</ele>
        <time>2024-04-28T07:49:51Z</time>
      </trkpt>
      <trkpt lat="50.02892" lon="4.00307">
        <ele>188.2</ele>
        <time>2024-04-28T07:49:52Z</time>
      </trkpt>
      <trkpt lat="50.02898" lon="4.00302">
        <ele>188.2</ele>
        <time>2024-04-28T07:49:53Z</time>
      </trkpt>
      <trkpt lat="50.02904" lon="4.00298">
        <ele>188.4</ele>
        <time>2024-04-28T07:49:54Z</time>
      </trkpt>
      <trkpt lat="50.0291" lon="4.00294">
        <ele>188.4</ele>
        <time>2024-04-28T07:49:55Z</time>
      </trkpt>
      <trkpt lat="50.02916" lon="4.00289">
        <ele>188.4</ele>
        <time>2024-04-28T07:49:56Z</time>
      </trkpt>
      <trkpt lat="50.02923" lon="4.00285">
        <ele>188.2</ele>
        <time>2024-04-28T07:49:57Z</time>
      </trkpt>
      <trkpt lat="50.02929" lon="4.00281">
        <ele>188.4</ele>
        <time>2024-04-28T07:49:58Z</time>
      </trkpt>
      <trkpt lat="50.02935" lon="4.00277">
        <ele>188.6</ele>
        <time>2024-04-28T07:49:59Z</time>
      </trkpt>
      <trkpt lat="50.02941" lon="4.00273">
        <ele>188.6</ele>
        <time>2024-04-28T07:50:00Z</time>
      </trkpt>
      <trkpt lat="50.02948" lon="4.00269">
        <ele>188.6</ele>
        <time>2024-04-28T07:50:01Z</time>
      </trkpt>
      <trkpt lat="50.02955" lon="4.00265">
        <ele>188.6</ele>
        <time>2024-04-28T07:50:02Z</time>
      </trkpt>
      <trkpt lat="50.02961" lon="4.00262">
        <ele>188.4</ele>
        <time>2024-04-28T07:50:03Z</time>
      </trkpt>
      <trkpt lat="50.02968" lon="4.00258">
        <ele>188.4</ele>
        <time>2024-04-28T07:50:04Z</time>
      </trkpt>
      <trkpt lat="50.02974" lon="4.00254">
        <ele>188.6</ele>
        <time>2024-04-28T07:50:05Z</time>
      </trkpt>
      <trkpt lat="50.02981" lon="4.00251">
        <ele>188.6</ele>
        <time>2024-04-28T07:50:06Z</time>
      </trkpt>
      <trkpt lat="50.02988" lon="4.00247">
        <ele>188.4</ele>
        <time>2024-04-28T07:50:07Z</time>
      </trkpt>
      <trkpt lat="50.02994" lon="4.00244">
        <ele>188.6</ele>
        <time>2024-04-28T07:50:08Z</time>
      </trkpt>
      <trkpt lat="50.03001" lon="4.0024">
        <ele>188.4</ele>
        <time>2024-04-28T07:50:09Z</time>
      </trkpt>
      <trkpt lat="50.03007" lon="4.00237">
        <ele>188.4</ele>
        <time>2024-04-28T07:50:10Z</time>
      </trkpt>
      <trkpt lat="50.03013" lon="4.00234">
        <ele>188.4</ele>
        <time>2024-04-28T07:50:11Z</time>
      </trkpt>
      <trkpt lat="50.03019" lon="4.00231">
        <ele>188.4</ele>
        <time>2024-04-28T07:50:12Z</time>
      </trkpt>
      <trkpt lat="50.03024" lon="4.0023">
        <ele>188.2</ele>
        <time>2024-04-28T07:50:13Z</time>
      </trkpt>
      <trkpt lat="50.03028" lon="4.00228">
        <ele>188.2</ele>
        <time>2024-04-28T07:50:14Z</time>
      </trkpt>
      <trkpt lat="50.0303" lon="4.00228">
        <ele>188.2</ele>
        <time>2024-04-28T07:50:15Z</time>
      </trkpt>
      <trkpt lat="50.03033" lon="4.00227">
        <ele>188</ele>
        <time>2024-04-28T07:50:16Z</time>
      </trkpt>
      <trkpt lat="50.03035" lon="4.00226">
        <ele>187.6</ele>
        <time>2024-04-28T07:50:17Z</time>
      </trkpt>
      <trkpt lat="50.03038" lon="4.00224">
        <ele>187.6</ele>
        <time>2024-04-28T07:50:18Z</time>
      </trkpt>
      <trkpt lat="50.03042" lon="4.00222">
        <ele>187.4</ele>
        <time>2024-04-28T07:50:19Z</time>
      </trkpt>
      <trkpt lat="50.03045" lon="4.00218">
        <ele>187.4</ele>
        <time>2024-04-28T07:50:20Z</time>
      </trkpt>
      <trkpt lat="50.0305" lon="4.00215">
        <ele>187.4</ele>
        <time>2024-04-28T07:50:21Z</time>
      </trkpt>
      <trkpt lat="50.03055" lon="4.00212">
        <ele>187.2</ele>
        <time>2024-04-28T07:50:22Z</time>
      </trkpt>
      <trkpt lat="50.0306" lon="4.00209">
        <ele>187.2</ele>
        <time>2024-04-28T07:50:23Z</time>
      </trkpt>
      <trkpt lat="50.03066" lon="4.00206">
        <ele>187.2</ele>
        <time>2024-04-28T07:50:24Z</time>
      </trkpt>
      <trkpt lat="50.03072" lon="4.00203">
        <ele>187.2</ele>
        <time>2024-04-28T07:50:25Z</time>
      </trkpt>
      <trkpt lat="50.03079" lon="4.00199">
        <ele>187</ele>
        <time>2024-04-28T07:50:26Z</time>
      </trkpt>
      <trkpt lat="50.03085" lon="4.00196">
        <ele>187</ele>
        <time>2024-04-28T07:50:27Z</time>
      </trkpt>
      <trkpt lat="50.03092" lon="4.00193">
        <ele>187</ele>
        <time>2024-04-28T07:50:28Z</time>
      </trkpt>
      <trkpt lat="50.03099" lon="4.00189">
        <ele>187</ele>
        <time>2024-04-28T07:50:29Z</time>
      </trkpt>
      <trkpt lat="50.03106" lon="4.00186">
        <ele>187.2</ele>
        <time>2024-04-28T07:50:30Z</time>
      </trkpt>
      <trkpt lat="50.03113" lon="4.00182">
        <ele>187.2</ele>
        <time>2024-04-28T07:50:31Z</time>
      </trkpt>
      <trkpt lat="50.03121" lon="4.00178">
        <ele>187.2</ele>
        <time>2024-04-28T07:50:32Z</time>
      </trkpt>
      <trkpt lat="50.03128" lon="4.00174">
        <ele>187</ele>
        <time>2024-04-28T07:50:33Z</time>
      </trkpt>
      <trkpt lat="50.03136" lon="4.0017">
        <ele>187.2</ele>
        <time>2024-04-28T07:50:34Z</time>
      </trkpt>
      <trkpt lat="50.03143" lon="4.00166">
        <ele>187.2</ele>
        <time>2024-04-28T07:50:35Z</time>
      </trkpt>
      <trkpt lat="50.03151" lon="4.00162">
        <ele>187.2</ele>
        <time>2024-04-28T07:50:36Z</time>
      </trkpt>
      <trkpt lat="50.03159" lon="4.00158">
        <ele>187</ele>
        <time>2024-04-28T07:50:37Z</time>
      </trkpt>
      <trkpt lat="50.03168" lon="4.00153">
        <ele>187</ele>
        <time>2024-04-28T07:50:38Z</time>
      </trkpt>
      <trkpt lat="50.03176" lon="4.00149">
        <ele>186.8</ele>
        <time>2024-04-28T07:50:39Z</time>
      </trkpt>
      <trkpt lat="50.03184" lon="4.00144">
        <ele>186.8</ele>
        <time>2024-04-28T07:50:40Z</time>
      </trkpt>
      <trkpt lat="50.03192" lon="4.00138">
        <ele>186.8</ele>
        <time>2024-04-28T07:50:41Z</time>
      </trkpt>
      <trkpt lat="50.032" lon="4.00133">
        <ele>186.4</ele>
        <time>2024-04-28T07:50:42Z</time>
      </trkpt>
      <trkpt lat="50.03209" lon="4.00126">
        <ele>186.2</ele>
        <time>2024-04-28T07:50:43Z</time>
      </trkpt>
      <trkpt lat="50.03217" lon="4.00119">
        <ele>186</ele>
        <time>2024-04-28T07:50:44Z</time>
      </trkpt>
      <trkpt lat="50.03225" lon="4.00111">
        <ele>185.8</ele>
        <time>2024-04-28T07:50:45Z</time>
      </trkpt>
      <trkpt lat="50.03234" lon="4.00103">
        <ele>185.8</ele>
        <time>2024-04-28T07:50:46Z</time>
      </trkpt>
      <trkpt lat="50.03242" lon="4.00094">
        <ele>185.2</ele>
        <time>2024-04-28T07:50:47Z</time>
      </trkpt>
      <trkpt lat="50.0325" lon="4.00085">
        <ele>184.4</ele>
        <time>2024-04-28T07:50:48Z</time>
      </trkpt>
      <trkpt lat="50.03258" lon="4.00075">
        <ele>184.2</ele>
        <time>2024-04-28T07:50:49Z</time>
      </trkpt>
      <trkpt lat="50.03266" lon="4.00065">
        <ele>183.8</ele>
        <time>2024-04-28T07:50:50Z</time>
      </trkpt>
      <trkpt lat="50.03274" lon="4.00055">
        <ele>183.2</ele>
        <time>2024-04-28T07:50:51Z</time>
      </trkpt>
      <trkpt lat="50.03282" lon="4.00044">
        <ele>183</ele>
        <time>2024-04-28T07:50:52Z</time>
      </trkpt>
      <trkpt lat="50.03289" lon="4.00033">
        <ele>182.2</ele>
        <time>2024-04-28T07:50:53Z</time>
      </trkpt>
      <trkpt lat="50.03297" lon="4.00022">
        <ele>181.4</ele>
        <time>2024-04-28T07:50:54Z</time>
      </trkpt>
      <trkpt lat="50.03305" lon="4.00011">
        <ele>181.4</ele>
        <time>2024-04-28T07:50:55Z</time>
      </trkpt>
      <trkpt lat="50.03313" lon="4">
        <ele>181</ele>
        <time>2024-04-28T07:50:56Z</time>
      </trkpt>
      <trkpt lat="50.03322" lon="3.99991">
        <ele>180.6</ele>
        <time>2024-04-28T07:50:57Z</time>
      </trkpt>
      <trkpt lat="50.03332" lon="3.99982">
        <ele>179.2</ele>
        <time>2024-04-28T07:50:58Z</time>
      </trkpt>
      <trkpt lat="50.03342" lon="3.99975">
        <ele>178.6</ele>
        <time>2024-04-28T07:50:59Z</time>
      </trkpt>
      <trkpt lat="50.03352" lon="3.99968">
        <ele>177.8</ele>
        <time>2024-04-28T07:51:00Z</time>
      </trkpt>
      <trkpt lat="50.03362" lon="3.99962">
        <ele>177.2</ele>
        <time>2024-04-28T07:51:01Z</time>
      </trkpt>
      <trkpt lat="50.03373" lon="3.99955">
        <ele>176.4</ele>
        <time>2024-04-28T07:51:02Z</time>
      </trkpt>
      <trkpt lat="50.03383" lon="3.99949">
        <ele>175.6</ele>
        <time>2024-04-28T07:51:03Z</time>
      </trkpt>
      <trkpt lat="50.03394" lon="3.99943">
        <ele>175.4</ele>
        <time>2024-04-28T07:51:04Z</time>
      </trkpt>
      <trkpt lat="50.03404" lon="3.99936">
        <ele>175</ele>
        <time>2024-04-28T07:51:05Z</time>
      </trkpt>
      <trkpt lat="50.03415" lon="3.9993">
        <ele>174.6</ele>
        <time>2024-04-28T07:51:06Z</time>
      </trkpt>
      <trkpt lat="50.03425" lon="3.99923">
        <ele>174.4</ele>
        <time>2024-04-28T07:51:07Z</time>
      </trkpt>
      <trkpt lat="50.03435" lon="3.99917">
        <ele>174</ele>
        <time>2024-04-28T07:51:08Z</time>
      </trkpt>
      <trkpt lat="50.03445" lon="3.9991">
        <ele>173.2</ele>
        <time>2024-04-28T07:51:09Z</time>
      </trkpt>
      <trkpt lat="50.03456" lon="3.99904">
        <ele>172.6</ele>
        <time>2024-04-28T07:51:10Z</time>
      </trkpt>
      <trkpt lat="50.03466" lon="3.99898">
        <ele>172.2</ele>
        <time>2024-04-28T07:51:11Z</time>
      </trkpt>
      <trkpt lat="50.03476" lon="3.99891">
        <ele>172.2</ele>
        <time>2024-04-28T07:51:12Z</time>
      </trkpt>
      <trkpt lat="50.03486" lon="3.99885">
        <ele>171.8</ele>
        <time>2024-04-28T07:51:13Z</time>
      </trkpt>
      <trkpt lat="50.03496" lon="3.99879">
        <ele>171.4</ele>
        <time>2024-04-28T07:51:14Z</time>
      </trkpt>
      <trkpt lat="50.03507" lon="3.99875">
        <ele>171.4</ele>
        <time>2024-04-28T07:51:15Z</time>
      </trkpt>
      <trkpt lat="50.03517" lon="3.99872">
        <ele>171</ele>
        <time>2024-04-28T07:51:16Z</time>
      </trkpt>
      <trkpt lat="50.03528" lon="3.9987">
        <ele>170.8</ele>
        <time>2024-04-28T07:51:17Z</time>
      </trkpt>
      <trkpt lat="50.03539" lon="3.99869">
        <ele>170.4</ele>
        <time>2024-04-28T07:51:18Z</time>
      </trkpt>
      <trkpt lat="50.03549" lon="3.99869">
        <ele>170.2</ele>
        <time>2024-04-28T07:51:19Z</time>
      </trkpt>
      <trkpt lat="50.0356" lon="3.99869">
        <ele>170.4</ele>
        <time>2024-04-28T07:51:20Z</time>
      </trkpt>
      <trkpt lat="50.03571" lon="3.99869">
        <ele>170</ele>
        <time>2024-04-28T07:51:21Z</time>
      </trkpt>
      <trkpt lat="50.03582" lon="3.99869">
        <ele>170</ele>
        <time>2024-04-28T07:51:22Z</time>
      </trkpt>
      <trkpt lat="50.03593" lon="3.99869">
        <ele>169.8</ele>
        <time>2024-04-28T07:51:23Z</time>
      </trkpt>
      <trkpt lat="50.03604" lon="3.99869">
        <ele>170</ele>
        <time>2024-04-28T07:51:24Z</time>
      </trkpt>
      <trkpt lat="50.03615" lon="3.99869">
        <ele>169.8</ele>
        <time>2024-04-28T07:51:25Z</time>
      </trkpt>
      <trkpt lat="50.03626" lon="3.99869">
        <ele>169.2</ele>
        <time>2024-04-28T07:51:26Z</time>
      </trkpt>
      <trkpt lat="50.03638" lon="3.99868">
        <ele>169</ele>
        <time>2024-04-28T07:51:27Z</time>
      </trkpt>
      <trkpt lat="50.03649" lon="3.99868">
        <ele>168.6</ele>
        <time>2024-04-28T07:51:28Z</time>
      </trkpt>
      <trkpt lat="50.03661" lon="3.99868">
        <ele>168.6</ele>
        <time>2024-04-28T07:51:29Z</time>
      </trkpt>
      <trkpt lat="50.03672" lon="3.99868">
        <ele>168.6</ele>
        <time>2024-04-28T07:51:30Z</time>
      </trkpt>
      <trkpt lat="50.03684" lon="3.99868">
        <ele>168.6</ele>
        <time>2024-04-28T07:51:31Z</time>
      </trkpt>
      <trkpt lat="50.03696" lon="3.99867">
        <ele>168.6</ele>
        <time>2024-04-28T07:51:32Z</time>
      </trkpt>
      <trkpt lat="50.03708" lon="3.99866">
        <ele>168.4</ele>
        <time>2024-04-28T07:51:33Z</time>
      </trkpt>
      <trkpt lat="50.03719" lon="3.99865">
        <ele>168.2</ele>
        <time>2024-04-28T07:51:34Z</time>
      </trkpt>
      <trkpt lat="50.03731" lon="3.99864">
        <ele>168</ele>
        <time>2024-04-28T07:51:35Z</time>
      </trkpt>
      <trkpt lat="50.03742" lon="3.99861">
        <ele>167.6</ele>
        <time>2024-04-28T07:51:36Z</time>
      </trkpt>
      <trkpt lat="50.03754" lon="3.99858">
        <ele>166.6</ele>
        <time>2024-04-28T07:51:37Z</time>
      </trkpt>
      <trkpt lat="50.03765" lon="3.99855">
        <ele>166</ele>
        <time>2024-04-28T07:51:38Z</time>
      </trkpt>
      <trkpt lat="50.03776" lon="3.99851">
        <ele>165.4</ele>
        <time>2024-04-28T07:51:39Z</time>
      </trkpt>
      <trkpt lat="50.03787" lon="3.99847">
        <ele>165</ele>
        <time>2024-04-28T07:51:40Z</time>
      </trkpt>
      <trkpt lat="50.03797" lon="3.99843">
        <ele>164.6</ele>
        <time>2024-04-28T07:51:41Z</time>
      </trkpt>
      <trkpt lat="50.03808" lon="3.99839">
        <ele>164.6</ele>
        <time>2024-04-28T07:51:42Z</time>
      </trkpt>
      <trkpt lat="50.03818" lon="3.99836">
        <ele>164.4</ele>
        <time>2024-04-28T07:51:43Z</time>
      </trkpt>
      <trkpt lat="50.03828" lon="3.99833">
        <ele>164.2</ele>
        <time>2024-04-28T07:51:44Z</time>
      </trkpt>
      <trkpt lat="50.03838" lon="3.9983">
        <ele>164.2</ele>
        <time>2024-04-28T07:51:45Z</time>
      </trkpt>
      <trkpt lat="50.03847" lon="3.99827">
        <ele>164.2</ele>
        <time>2024-04-28T07:51:46Z</time>
      </trkpt>
      <trkpt lat="50.03857" lon="3.99825">
        <ele>164.2</ele>
        <time>2024-04-28T07:51:47Z</time>
      </trkpt>
      <trkpt lat="50.03866" lon="3.99822">
        <ele>164</ele>
        <time>2024-04-28T07:51:48Z</time>
      </trkpt>
      <trkpt lat="50.03875" lon="3.9982">
        <ele>164.2</ele>
        <time>2024-04-28T07:51:49Z</time>
      </trkpt>
      <trkpt lat="50.03883" lon="3.99818">
        <ele>164</ele>
        <time>2024-04-28T07:51:50Z</time>
      </trkpt>
      <trkpt lat="50.03891" lon="3.99816">
        <ele>164</ele>
        <time>2024-04-28T07:51:51Z</time>
      </trkpt>
      <trkpt lat="50.03899" lon="3.99814">
        <ele>164</ele>
        <time>2024-04-28T07:51:52Z</time>
      </trkpt>
      <trkpt lat="50.03907" lon="3.99813">
        <ele>164</ele>
        <time>2024-04-28T07:51:53Z</time>
      </trkpt>
      <trkpt lat="50.03914" lon="3.9981">
        <ele>164.4</ele>
        <time>2024-04-28T07:51:54Z</time>
      </trkpt>
      <trkpt lat="50.03921" lon="3.99808">
        <ele>164.6</ele>
        <time>2024-04-28T07:51:55Z</time>
      </trkpt>
      <trkpt lat="50.03928" lon="3.99806">
        <ele>165</ele>
        <time>2024-04-28T07:51:56Z</time>
      </trkpt>
      <trkpt lat="50.03934" lon="3.99804">
        <ele>165.2</ele>
        <time>2024-04-28T07:51:57Z</time>
      </trkpt>
      <trkpt lat="50.0394" lon="3.99803">
        <ele>165.8</ele>
        <time>2024-04-28T07:51:58Z</time>
      </trkpt>
      <trkpt lat="50.03946" lon="3.99801">
        <ele>166.2</ele>
        <time>2024-04-28T07:51:59Z</time>
      </trkpt>
      <trkpt lat="50.03952" lon="3.99799">
        <ele>166.6</ele>
        <time>2024-04-28T07:52:00Z</time>
      </trkpt>
      <trkpt lat="50.03957" lon="3.99797">
        <ele>167.2</ele>
        <time>2024-04-28T07:52:01Z</time>
      </trkpt>
      <trkpt lat="50.03963" lon="3.99795">
        <ele>167.8</ele>
        <time>2024-04-28T07:52:02Z</time>
      </trkpt>
      <trkpt lat="50.03968" lon="3.99792">
        <ele>167.8</ele>
        <time>2024-04-28T07:52:03Z</time>
      </trkpt>
      <trkpt lat="50.03973" lon="3.9979">
        <ele>168.2</ele>
        <time>2024-04-28T07:52:04Z</time>
      </trkpt>
      <trkpt lat="50.03978" lon="3.99787">
        <ele>168.6</ele>
        <time>2024-04-28T07:52:05Z</time>
      </trkpt>
      <trkpt lat="50.03983" lon="3.99785">
        <ele>169</ele>
        <time>2024-04-28T07:52:06Z</time>
      </trkpt>
      <trkpt lat="50.03988" lon="3.99783">
        <ele>169.4</ele>
        <time>2024-04-28T07:52:07Z</time>
      </trkpt>
      <trkpt lat="50.03993" lon="3.9978">
        <ele>170.2</ele>
        <time>2024-04-28T07:52:08Z</time>
      </trkpt>
      <trkpt lat="50.03997" lon="3.99778">
        <ele>170.6</ele>
        <time>2024-04-28T07:52:09Z</time>
      </trkpt>
      <trkpt lat="50.04002" lon="3.99775">
        <ele>171.4</ele>
        <time>2024-04-28T07:52:10Z</time>
      </trkpt>
      <trkpt lat="50.04006" lon="3.99773">
        <ele>171.8</ele>
        <time>2024-04-28T07:52:11Z</time>
      </trkpt>
      <trkpt lat="50.04011" lon="3.99771">
        <ele>172.2</ele>
        <time>2024-04-28T07:52:12Z</time>
      </trkpt>
      <trkpt lat="50.04016" lon="3.99769">
        <ele>173.2</ele>
        <time>2024-04-28T07:52:13Z</time>
      </trkpt>
      <trkpt lat="50.04021" lon="3.99767">
        <ele>173.4</ele>
        <time>2024-04-28T07:52:14Z</time>
      </trkpt>
      <trkpt lat="50.04025" lon="3.99765">
        <ele>173.8</ele>
        <time>2024-04-28T07:52:15Z</time>
      </trkpt>
      <trkpt lat="50.0403" lon="3.99763">
        <ele>174.2</ele>
        <time>2024-04-28T07:52:16Z</time>
      </trkpt>
      <trkpt lat="50.04034" lon="3.99761">
        <ele>174.6</ele>
        <time>2024-04-28T07:52:17Z</time>
      </trkpt>
      <trkpt lat="50.04038" lon="3.99758">
        <ele>175</ele>
        <time>2024-04-28T07:52:18Z</time>
      </trkpt>
      <trkpt lat="50.04042" lon="3.99756">
        <ele>175</ele>
        <time>2024-04-28T07:52:19Z</time>
      </trkpt>
      <trkpt lat="50.04046" lon="3.99755">
        <ele>175.6</ele>
        <time>2024-04-28T07:52:20Z</time>
      </trkpt>
      <trkpt lat="50.0405" lon="3.99753">
        <ele>176</ele>
        <time>2024-04-28T07:52:21Z</time>
      </trkpt>
      <trkpt lat="50.04054" lon="3.99751">
        <ele>176.2</ele>
        <time>2024-04-28T07:52:22Z</time>
      </trkpt>
      <trkpt lat="50.04058" lon="3.99748">
        <ele>176.8</ele>
        <time>2024-04-28T07:52:23Z</time>
      </trkpt>
      <trkpt lat="50.04061" lon="3.99746">
        <ele>177</ele>
        <time>2024-04-28T07:52:24Z</time>
      </trkpt>
      <trkpt lat="50.04065" lon="3.99744">
        <ele>177.2</ele>
        <time>2024-04-28T07:52:25Z</time>
      </trkpt>
      <trkpt lat="50.04069" lon="3.99742">
        <ele>177.4</ele>
        <time>2024-04-28T07:52:26Z</time>
      </trkpt>
      <trkpt lat="50.04072" lon="3.9974">
        <ele>177.4</ele>
        <time>2024-04-28T07:52:27Z</time>
      </trkpt>
      <trkpt lat="50.04076" lon="3.99738">
        <ele>177.6</ele>
        <time>2024-04-28T07:52:28Z</time>
      </trkpt>
      <trkpt lat="50.0408" lon="3.99736">
        <ele>177.8</ele>
        <time>2024-04-28T07:52:29Z</time>
      </trkpt>
      <trkpt lat="50.04085" lon="3.99733">
        <ele>178</ele>
        <time>2024-04-28T07:52:30Z</time>
      </trkpt>
      <trkpt lat="50.04089" lon="3.99731">
        <ele>178.2</ele>
        <time>2024-04-28T07:52:31Z</time>
      </trkpt>
      <trkpt lat="50.04093" lon="3.99729">
        <ele>179</ele>
        <time>2024-04-28T07:52:32Z</time>
      </trkpt>
      <trkpt lat="50.04097" lon="3.99726">
        <ele>179.4</ele>
        <time>2024-04-28T07:52:33Z</time>
      </trkpt>
      <trkpt lat="50.04101" lon="3.99724">
        <ele>179.4</ele>
        <time>2024-04-28T07:52:34Z</time>
      </trkpt>
      <trkpt lat="50.04105" lon="3.99723">
        <ele>179.6</ele>
        <time>2024-04-28T07:52:35Z</time>
      </trkpt>
      <trkpt lat="50.0411" lon="3.99721">
        <ele>180</ele>
        <time>2024-04-28T07:52:36Z</time>
      </trkpt>
      <trkpt lat="50.04114" lon="3.99719">
        <ele>180.4</ele>
        <time>2024-04-28T07:52:37Z</time>
      </trkpt>
      <trkpt lat="50.04118" lon="3.99717">
        <ele>180.6</ele>
        <time>2024-04-28T07:52:38Z</time>
      </trkpt>
      <trkpt lat="50.04122" lon="3.99715">
        <ele>180.6</ele>
        <time>2024-04-28T07:52:39Z</time>
      </trkpt>
      <trkpt lat="50.04126" lon="3.99713">
        <ele>181</ele>
        <time>2024-04-28T07:52:40Z</time>
      </trkpt>
      <trkpt lat="50.04131" lon="3.9971">
        <ele>181.4</ele>
        <time>2024-04-28T07:52:41Z</time>
      </trkpt>
      <trkpt lat="50.04135" lon="3.99707">
        <ele>181.6</ele>
        <time>2024-04-28T07:52:42Z</time>
      </trkpt>
      <trkpt lat="50.04139" lon="3.99704">
        <ele>181.8</ele>
        <time>2024-04-28T07:52:43Z</time>
      </trkpt>
      <trkpt lat="50.04143" lon="3.99701">
        <ele>182.2</ele>
        <time>2024-04-28T07:52:44Z</time>
      </trkpt>
      <trkpt lat="50.04147" lon="3.99698">
        <ele>182.6</ele>
        <time>2024-04-28T07:52:45Z</time>
      </trkpt>
      <trkpt lat="50.04151" lon="3.99694">
        <ele>182.6</ele>
        <time>2024-04-28T07:52:46Z</time>
      </trkpt>
      <trkpt lat="50.04154" lon="3.9969">
        <ele>183.2</ele>
        <time>2024-04-28T07:52:47Z</time>
      </trkpt>
      <trkpt lat="50.04158" lon="3.99686">
        <ele>183.8</ele>
        <time>2024-04-28T07:52:48Z</time>
      </trkpt>
      <trkpt lat="50.04162" lon="3.99682">
        <ele>183.8</ele>
        <time>2024-04-28T07:52:49Z</time>
      </trkpt>
      <trkpt lat="50.04165" lon="3.99678">
        <ele>183.8</ele>
        <time>2024-04-28T07:52:50Z</time>
      </trkpt>
      <trkpt lat="50.04169" lon="3.99674">
        <ele>184.2</ele>
        <time>2024-04-28T07:52:51Z</time>
      </trkpt>
      <trkpt lat="50.04172" lon="3.9967">
        <ele>184.4</ele>
        <time>2024-04-28T07:52:52Z</time>
      </trkpt>
      <trkpt lat="50.04175" lon="3.99665">
        <ele>184.6</ele>
        <time>2024-04-28T07:52:53Z</time>
      </trkpt>
      <trkpt lat="50.04178" lon="3.99661">
        <ele>185</ele>
        <time>2024-04-28T07:52:54Z</time>
      </trkpt>
      <trkpt lat="50.04181" lon="3.99656">
        <ele>185</ele>
        <time>2024-04-28T07:52:55Z</time>
      </trkpt>
      <trkpt lat="50.04183" lon="3.99651">
        <ele>185</ele>
        <time>2024-04-28T07:52:56Z</time>
      </trkpt>
      <trkpt lat="50.04186" lon="3.99645">
        <ele>185.2</ele>
        <time>2024-04-28T07:52:57Z</time>
      </trkpt>
      <trkpt lat="50.04189" lon="3.9964">
        <ele>185.2</ele>
        <time>2024-04-28T07:52:58Z</time>
      </trkpt>
      <trkpt lat="50.04191" lon="3.99634">
        <ele>185.4</ele>
        <time>2024-04-28T07:52:59Z</time>
      </trkpt>
      <trkpt lat="50.04194" lon="3.99629">
        <ele>185.4</ele>
        <time>2024-04-28T07:53:00Z</time>
      </trkpt>
      <trkpt lat="50.04197" lon="3.99623">
        <ele>185.4</ele>
        <time>2024-04-28T07:53:01Z</time>
      </trkpt>
      <trkpt lat="50.042" lon="3.99618">
        <ele>185.4</ele>
        <time>2024-04-28T07:53:02Z</time>
      </trkpt>
      <trkpt lat="50.04203" lon="3.99613">
        <ele>185.4</ele>
        <time>2024-04-28T07:53:03Z</time>
      </trkpt>
      <trkpt lat="50.04207" lon="3.99609">
        <ele>185.6</ele>
        <time>2024-04-28T07:53:04Z</time>
      </trkpt>
      <trkpt lat="50.0421" lon="3.99605">
        <ele>186</ele>
        <time>2024-04-28T07:53:05Z</time>
      </trkpt>
      <trkpt lat="50.04214" lon="3.99602">
        <ele>186</ele>
        <time>2024-04-28T07:53:06Z</time>
      </trkpt>
      <trkpt lat="50.04218" lon="3.99599">
        <ele>186</ele>
        <time>2024-04-28T07:53:07Z</time>
      </trkpt>
      <trkpt lat="50.04222" lon="3.99597">
        <ele>186.2</ele>
        <time>2024-04-28T07:53:08Z</time>
      </trkpt>
      <trkpt lat="50.04226" lon="3.99594">
        <ele>186.2</ele>
        <time>2024-04-28T07:53:09Z</time>
      </trkpt>
      <trkpt lat="50.0423" lon="3.99592">
        <ele>186.4</ele>
        <time>2024-04-28T07:53:10Z</time>
      </trkpt>
      <trkpt lat="50.04234" lon="3.9959">
        <ele>186.6</ele>
        <time>2024-04-28T07:53:11Z</time>
      </trkpt>
      <trkpt lat="50.04238" lon="3.99588">
        <ele>186.8</ele>
        <time>2024-04-28T07:53:12Z</time>
      </trkpt>
      <trkpt lat="50.04242" lon="3.99587">
        <ele>187.4</ele>
        <time>2024-04-28T07:53:13Z</time>
      </trkpt>
      <trkpt lat="50.04246" lon="3.99585">
        <ele>187.6</ele>
        <time>2024-04-28T07:53:14Z</time>
      </trkpt>
      <trkpt lat="50.0425" lon="3.99584">
        <ele>188.2</ele>
        <time>2024-04-28T07:53:15Z</time>
      </trkpt>
      <trkpt lat="50.04254" lon="3.99583">
        <ele>188.4</ele>
        <time>2024-04-28T07:53:16Z</time>
      </trkpt>
      <trkpt lat="50.04258" lon="3.99581">
        <ele>188.8</ele>
        <time>2024-04-28T07:53:17Z</time>
      </trkpt>
      <trkpt lat="50.04262" lon="3.9958">
        <ele>188.8</ele>
        <time>2024-04-28T07:53:18Z</time>
      </trkpt>
      <trkpt lat="50.04265" lon="3.99578">
        <ele>188.8</ele>
        <time>2024-04-28T07:53:19Z</time>
      </trkpt>
      <trkpt lat="50.04269" lon="3.99577">
        <ele>189</ele>
        <time>2024-04-28T07:53:20Z</time>
      </trkpt>
      <trkpt lat="50.04273" lon="3.99575">
        <ele>189.2</ele>
        <time>2024-04-28T07:53:21Z</time>
      </trkpt>
      <trkpt lat="50.04277" lon="3.99573">
        <ele>189.2</ele>
        <time>2024-04-28T07:53:22Z</time>
      </trkpt>
      <trkpt lat="50.04281" lon="3.99572">
        <ele>189.2</ele>
        <time>2024-04-28T07:53:23Z</time>
      </trkpt>
      <trkpt lat="50.04285" lon="3.9957">
        <ele>189.2</ele>
        <time>2024-04-28T07:53:24Z</time>
      </trkpt>
      <trkpt lat="50.0429" lon="3.99568">
        <ele>189.2</ele>
        <time>2024-04-28T07:53:25Z</time>
      </trkpt>
      <trkpt lat="50.04294" lon="3.99567">
        <ele>189.4</ele>
        <time>2024-04-28T07:53:26Z</time>
      </trkpt>
      <trkpt lat="50.04298" lon="3.99565">
        <ele>189.6</ele>
        <time>2024-04-28T07:53:27Z</time>
      </trkpt>
      <trkpt lat="50.04302" lon="3.99563">
        <ele>190.2</ele>
        <time>2024-04-28T07:53:28Z</time>
      </trkpt>
      <trkpt lat="50.04305" lon="3.99562">
        <ele>190.6</ele>
        <time>2024-04-28T07:53:29Z</time>
      </trkpt>
      <trkpt lat="50.04309" lon="3.9956">
        <ele>191.4</ele>
        <time>2024-04-28T07:53:30Z</time>
      </trkpt>
      <trkpt lat="50.04312" lon="3.99558">
        <ele>192</ele>
        <time>2024-04-28T07:53:31Z</time>
      </trkpt>
      <trkpt lat="50.04315" lon="3.99556">
        <ele>192</ele>
        <time>2024-04-28T07:53:32Z</time>
      </trkpt>
      <trkpt lat="50.04318" lon="3.99554">
        <ele>192.4</ele>
        <time>2024-04-28T07:53:33Z</time>
      </trkpt>
      <trkpt lat="50.04322" lon="3.99553">
        <ele>192.4</ele>
        <time>2024-04-28T07:53:34Z</time>
      </trkpt>
      <trkpt lat="50.04325" lon="3.99552">
        <ele>192.6</ele>
        <time>2024-04-28T07:53:35Z</time>
      </trkpt>
      <trkpt lat="50.04329" lon="3.99551">
        <ele>192.6</ele>
        <time>2024-04-28T07:53:36Z</time>
      </trkpt>
      <trkpt lat="50.04333" lon="3.9955">
        <ele>192.8</ele>
        <time>2024-04-28T07:53:37Z</time>
      </trkpt>
      <trkpt lat="50.04337" lon="3.99549">
        <ele>192.8</ele>
        <time>2024-04-28T07:53:38Z</time>
      </trkpt>
      <trkpt lat="50.04342" lon="3.99547">
        <ele>193</ele>
        <time>2024-04-28T07:53:39Z</time>
      </trkpt>
      <trkpt lat="50.04346" lon="3.99546">
        <ele>193</ele>
        <time>2024-04-28T07:53:40Z</time>
      </trkpt>
      <trkpt lat="50.0435" lon="3.99543">
        <ele>193</ele>
        <time>2024-04-28T07:53:41Z</time>
      </trkpt>
      <trkpt lat="50.04355" lon="3.99541">
        <ele>193</ele>
        <time>2024-04-28T07:53:42Z</time>
      </trkpt>
      <trkpt lat="50.04359" lon="3.99539">
        <ele>193</ele>
        <time>2024-04-28T07:53:43Z</time>
      </trkpt>
      <trkpt lat="50.04364" lon="3.99537">
        <ele>193</ele>
        <time>2024-04-28T07:53:44Z</time>
      </trkpt>
      <trkpt lat="50.04369" lon="3.99534">
        <ele>193.2</ele>
        <time>2024-04-28T07:53:45Z</time>
      </trkpt>
      <trkpt lat="50.04373" lon="3.99532">
        <ele>193</ele>
        <time>2024-04-28T07:53:46Z</time>
      </trkpt>
      <trkpt lat="50.04378" lon="3.99529">
        <ele>193</ele>
        <time>2024-04-28T07:53:47Z</time>
      </trkpt>
      <trkpt lat="50.04383" lon="3.99526">
        <ele>193.2</ele>
        <time>2024-04-28T07:53:48Z</time>
      </trkpt>
      <trkpt lat="50.04387" lon="3.99523">
        <ele>193</ele>
        <time>2024-04-28T07:53:49Z</time>
      </trkpt>
      <trkpt lat="50.04392" lon="3.9952">
        <ele>193.2</ele>
        <time>2024-04-28T07:53:50Z</time>
      </trkpt>
      <trkpt lat="50.04396" lon="3.99518">
        <ele>193.4</ele>
        <time>2024-04-28T07:53:51Z</time>
      </trkpt>
      <trkpt lat="50.04401" lon="3.99514">
        <ele>193.4</ele>
        <time>2024-04-28T07:53:52Z</time>
      </trkpt>
      <trkpt lat="50.04406" lon="3.99511">
        <ele>193.4</ele>
        <time>2024-04-28T07:53:53Z</time>
      </trkpt>
      <trkpt lat="50.04411" lon="3.99508">
        <ele>193.2</ele>
        <time>2024-04-28T07:53:54Z</time>
      </trkpt>
      <trkpt lat="50.04417" lon="3.99505">
        <ele>193.4</ele>
        <time>2024-04-28T07:53:55Z</time>
      </trkpt>
      <trkpt lat="50.04422" lon="3.99502">
        <ele>193.4</ele>
        <time>2024-04-28T07:53:56Z</time>
      </trkpt>
      <trkpt lat="50.04428" lon="3.99499">
        <ele>193.2</ele>
        <time>2024-04-28T07:53:57Z</time>
      </trkpt>
      <trkpt lat="50.04434" lon="3.99496">
        <ele>193.2</ele>
        <time>2024-04-28T07:53:58Z</time>
      </trkpt>
      <trkpt lat="50.04439" lon="3.99493">
        <ele>193</ele>
        <time>2024-04-28T07:53:59Z</time>
      </trkpt>
      <trkpt lat="50.04445" lon="3.99489">
        <ele>193</ele>
        <time>2024-04-28T07:54:00Z</time>
      </trkpt>
      <trkpt lat="50.04451" lon="3.99486">
        <ele>193</ele>
        <time>2024-04-28T07:54:01Z</time>
      </trkpt>
      <trkpt lat="50.04456" lon="3.99482">
        <ele>193</ele>
        <time>2024-04-28T07:54:02Z</time>
      </trkpt>
      <trkpt lat="50.04462" lon="3.99478">
        <ele>192.8</ele>
        <time>2024-04-28T07:54:03Z</time>
      </trkpt>
      <trkpt lat="50.04467" lon="3.99474">
        <ele>192.8</ele>
        <time>2024-04-28T07:54:04Z</time>
      </trkpt>
      <trkpt lat="50.04473" lon="3.9947">
        <ele>193</ele>
        <time>2024-04-28T07:54:05Z</time>
      </trkpt>
      <trkpt lat="50.04478" lon="3.99467">
        <ele>192.8</ele>
        <time>2024-04-28T07:54:06Z</time>
      </trkpt>
      <trkpt lat="50.04484" lon="3.99463">
        <ele>193</ele>
        <time>2024-04-28T07:54:07Z</time>
      </trkpt>
      <trkpt lat="50.0449" lon="3.99458">
        <ele>192.8</ele>
        <time>2024-04-28T07:54:08Z</time>
      </trkpt>
      <trkpt lat="50.04496" lon="3.99454">
        <ele>192.6</ele>
        <time>2024-04-28T07:54:09Z</time>
      </trkpt>
      <trkpt lat="50.04502" lon="3.9945">
        <ele>192.8</ele>
        <time>2024-04-28T07:54:10Z</time>
      </trkpt>
      <trkpt lat="50.04508" lon="3.99446">
        <ele>192.8</ele>
        <time>2024-04-28T07:54:11Z</time>
      </trkpt>
      <trkpt lat="50.04514" lon="3.99442">
        <ele>192.8</ele>
        <time>2024-04-28T07:54:12Z</time>
      </trkpt>
      <trkpt lat="50.0452" lon="3.99439">
        <ele>192.8</ele>
        <time>2024-04-28T07:54:13Z</time>
      </trkpt>
      <trkpt lat="50.04527" lon="3.99436">
        <ele>193</ele>
        <time>2024-04-28T07:54:14Z</time>
      </trkpt>
      <trkpt lat="50.04534" lon="3.99433">
        <ele>193.2</ele>
        <time>2024-04-28T07:54:15Z</time>
      </trkpt>
      <trkpt lat="50.0454" lon="3.9943">
        <ele>193.4</ele>
        <time>2024-04-28T07:54:16Z</time>
      </trkpt>
      <trkpt lat="50.04547" lon="3.99427">
        <ele>193.4</ele>
        <time>2024-04-28T07:54:17Z</time>
      </trkpt>
      <trkpt lat="50.04554" lon="3.99424">
        <ele>193.4</ele>
        <time>2024-04-28T07:54:18Z</time>
      </trkpt>
      <trkpt lat="50.04562" lon="3.99422">
        <ele>193.4</ele>
        <time>2024-04-28T07:54:19Z</time>
      </trkpt>
      <trkpt lat="50.04569" lon="3.99419">
        <ele>193.6</ele>
        <time>2024-04-28T07:54:20Z</time>
      </trkpt>
      <trkpt lat="50.04576" lon="3.99417">
        <ele>193.4</ele>
        <time>2024-04-28T07:54:21Z</time>
      </trkpt>
      <trkpt lat="50.04583" lon="3.99414">
        <ele>193.4</ele>
        <time>2024-04-28T07:54:22Z</time>
      </trkpt>
      <trkpt lat="50.0459" lon="3.99412">
        <ele>193.2</ele>
        <time>2024-04-28T07:54:23Z</time>
      </trkpt>
      <trkpt lat="50.04597" lon="3.99409">
        <ele>193.4</ele>
        <time>2024-04-28T07:54:24Z</time>
      </trkpt>
      <trkpt lat="50.04604" lon="3.99407">
        <ele>193.2</ele>
        <time>2024-04-28T07:54:25Z</time>
      </trkpt>
      <trkpt lat="50.04612" lon="3.99404">
        <ele>193.2</ele>
        <time>2024-04-28T07:54:26Z</time>
      </trkpt>
      <trkpt lat="50.04619" lon="3.99401">
        <ele>193</ele>
        <time>2024-04-28T07:54:27Z</time>
      </trkpt>
      <trkpt lat="50.04627" lon="3.99398">
        <ele>193</ele>
        <time>2024-04-28T07:54:28Z</time>
      </trkpt>
      <trkpt lat="50.04635" lon="3.99395">
        <ele>193</ele>
        <time>2024-04-28T07:54:29Z</time>
      </trkpt>
      <trkpt lat="50.04643" lon="3.99393">
        <ele>193</ele>
        <time>2024-04-28T07:54:30Z</time>
      </trkpt>
      <trkpt lat="50.04651" lon="3.9939">
        <ele>193</ele>
        <time>2024-04-28T07:54:31Z</time>
      </trkpt>
      <trkpt lat="50.04658" lon="3.99388">
        <ele>192.8</ele>
        <time>2024-04-28T07:54:32Z</time>
      </trkpt>
      <trkpt lat="50.04666" lon="3.99385">
        <ele>193</ele>
        <time>2024-04-28T07:54:33Z</time>
      </trkpt>
      <trkpt lat="50.04674" lon="3.99382">
        <ele>192.8</ele>
        <time>2024-04-28T07:54:34Z</time>
      </trkpt>
      <trkpt lat="50.04682" lon="3.99379">
        <ele>192.8</ele>
        <time>2024-04-28T07:54:35Z</time>
      </trkpt>
      <trkpt lat="50.04691" lon="3.99376">
        <ele>192.8</ele>
        <time>2024-04-28T07:54:36Z</time>
      </trkpt>
      <trkpt lat="50.04699" lon="3.99373">
        <ele>192.8</ele>
        <time>2024-04-28T07:54:37Z</time>
      </trkpt>
      <trkpt lat="50.04708" lon="3.99369">
        <ele>192.8</ele>
        <time>2024-04-28T07:54:38Z</time>
      </trkpt>
      <trkpt lat="50.04716" lon="3.99364">
        <ele>192.8</ele>
        <time>2024-04-28T07:54:39Z</time>
      </trkpt>
      <trkpt lat="50.04725" lon="3.9936">
        <ele>192.8</ele>
        <time>2024-04-28T07:54:40Z</time>
      </trkpt>
      <trkpt lat="50.04733" lon="3.99355">
        <ele>192.8</ele>
        <time>2024-04-28T07:54:41Z</time>
      </trkpt>
      <trkpt lat="50.04742" lon="3.9935">
        <ele>192.6</ele>
        <time>2024-04-28T07:54:42Z</time>
      </trkpt>
      <trkpt lat="50.04751" lon="3.99344">
        <ele>192.6</ele>
        <time>2024-04-28T07:54:43Z</time>
      </trkpt>
      <trkpt lat="50.04759" lon="3.99339">
        <ele>192.4</ele>
        <time>2024-04-28T07:54:44Z</time>
      </trkpt>
      <trkpt lat="50.04768" lon="3.99333">
        <ele>192.2</ele>
        <time>2024-04-28T07:54:45Z</time>
      </trkpt>
      <trkpt lat="50.04777" lon="3.99328">
        <ele>191.6</ele>
        <time>2024-04-28T07:54:46Z</time>
      </trkpt>
      <trkpt lat="50.04786" lon="3.99322">
        <ele>191.6</ele>
        <time>2024-04-28T07:54:47Z</time>
      </trkpt>
      <trkpt lat="50.04795" lon="3.99316">
        <ele>191</ele>
        <time>2024-04-28T07:54:48Z</time>
      </trkpt>
      <trkpt lat="50.04804" lon="3.9931">
        <ele>190.8</ele>
        <time>2024-04-28T07:54:49Z</time>
      </trkpt>
      <trkpt lat="50.04814" lon="3.99304">
        <ele>190</ele>
        <time>2024-04-28T07:54:50Z</time>
      </trkpt>
      <trkpt lat="50.04823" lon="3.99298">
        <ele>189.4</ele>
        <time>2024-04-28T07:54:51Z</time>
      </trkpt>
      <trkpt lat="50.04833" lon="3.99292">
        <ele>188.6</ele>
        <time>2024-04-28T07:54:52Z</time>
      </trkpt>
      <trkpt lat="50.04842" lon="3.99286">
        <ele>187.8</ele>
        <time>2024-04-28T07:54:53Z</time>
      </trkpt>
      <trkpt lat="50.04852" lon="3.9928">
        <ele>187.4</ele>
        <time>2024-04-28T07:54:54Z</time>
      </trkpt>
      <trkpt lat="50.04862" lon="3.99274">
        <ele>187.4</ele>
        <time>2024-04-28T07:54:55Z</time>
      </trkpt>
      <trkpt lat="50.04872" lon="3.99269">
        <ele>187.2</ele>
        <time>2024-04-28T07:54:56Z</time>
      </trkpt>
      <trkpt lat="50.04882" lon="3.99263">
        <ele>186.8</ele>
        <time>2024-04-28T07:54:57Z</time>
      </trkpt>
      <trkpt lat="50.04893" lon="3.99257">
        <ele>186.8</ele>
        <time>2024-04-28T07:54:58Z</time>
      </trkpt>
      <trkpt lat="50.04903" lon="3.99252">
        <ele>186.8</ele>
        <time>2024-04-28T07:54:59Z</time>
      </trkpt>
      <trkpt lat="50.04914" lon="3.99247">
        <ele>186.4</ele>
        <time>2024-04-28T07:55:00Z</time>
      </trkpt>
      <trkpt lat="50.04925" lon="3.99243">
        <ele>185.8</ele>
        <time>2024-04-28T07:55:01Z</time>
      </trkpt>
      <trkpt lat="50.04936" lon="3.99239">
        <ele>185.4</ele>
        <time>2024-04-28T07:55:02Z</time>
      </trkpt>
      <trkpt lat="50.04947" lon="3.99235">
        <ele>185</ele>
        <time>2024-04-28T07:55:03Z</time>
      </trkpt>
      <trkpt lat="50.04958" lon="3.99231">
        <ele>185</ele>
        <time>2024-04-28T07:55:04Z</time>
      </trkpt>
      <trkpt lat="50.0497" lon="3.99227">
        <ele>184.6</ele>
        <time>2024-04-28T07:55:05Z</time>
      </trkpt>
      <trkpt lat="50.0498" lon="3.99223">
        <ele>184.4</ele>
        <time>2024-04-28T07:55:06Z</time>
      </trkpt>
      <trkpt lat="50.04991" lon="3.9922">
        <ele>183.4</ele>
        <time>2024-04-28T07:55:07Z</time>
      </trkpt>
      <trkpt lat="50.05002" lon="3.99216">
        <ele>182.6</ele>
        <time>2024-04-28T07:55:08Z</time>
      </trkpt>
      <trkpt lat="50.05012" lon="3.99213">
        <ele>181.4</ele>
        <time>2024-04-28T07:55:09Z</time>
      </trkpt>
      <trkpt lat="50.05023" lon="3.9921">
        <ele>180.6</ele>
        <time>2024-04-28T07:55:10Z</time>
      </trkpt>
      <trkpt lat="50.05034" lon="3.99206">
        <ele>180</ele>
        <time>2024-04-28T07:55:11Z</time>
      </trkpt>
      <trkpt lat="50.05044" lon="3.99202">
        <ele>179.8</ele>
        <time>2024-04-28T07:55:12Z</time>
      </trkpt>
      <trkpt lat="50.05055" lon="3.99197">
        <ele>179.4</ele>
        <time>2024-04-28T07:55:13Z</time>
      </trkpt>
      <trkpt lat="50.05065" lon="3.99192">
        <ele>179</ele>
        <time>2024-04-28T07:55:14Z</time>
      </trkpt>
      <trkpt lat="50.05075" lon="3.99186">
        <ele>178.8</ele>
        <time>2024-04-28T07:55:15Z</time>
      </trkpt>
      <trkpt lat="50.05085" lon="3.9918">
        <ele>178.8</ele>
        <time>2024-04-28T07:55:16Z</time>
      </trkpt>
      <trkpt lat="50.05095" lon="3.99173">
        <ele>178.2</ele>
        <time>2024-04-28T07:55:17Z</time>
      </trkpt>
      <trkpt lat="50.05106" lon="3.99166">
        <ele>178</ele>
        <time>2024-04-28T07:55:18Z</time>
      </trkpt>
      <trkpt lat="50.05116" lon="3.99159">
        <ele>178</ele>
        <time>2024-04-28T07:55:19Z</time>
      </trkpt>
      <trkpt lat="50.05126" lon="3.99152">
        <ele>177.6</ele>
        <time>2024-04-28T07:55:20Z</time>
      </trkpt>
      <trkpt lat="50.05137" lon="3.99145">
        <ele>177.4</ele>
        <time>2024-04-28T07:55:21Z</time>
      </trkpt>
      <trkpt lat="50.05147" lon="3.99138">
        <ele>177</ele>
        <time>2024-04-28T07:55:22Z</time>
      </trkpt>
      <trkpt lat="50.05157" lon="3.99132">
        <ele>177</ele>
        <time>2024-04-28T07:55:23Z</time>
      </trkpt>
      <trkpt lat="50.05168" lon="3.99125">
        <ele>176.8</ele>
        <time>2024-04-28T07:55:24Z</time>
      </trkpt>
      <trkpt lat="50.05178" lon="3.99119">
        <ele>176.2</ele>
        <time>2024-04-28T07:55:25Z</time>
      </trkpt>
      <trkpt lat="50.05188" lon="3.99114">
        <ele>175.2</ele>
        <time>2024-04-28T07:55:26Z</time>
      </trkpt>
      <trkpt lat="50.05198" lon="3.99111">
        <ele>174.2</ele>
        <time>2024-04-28T07:55:27Z</time>
      </trkpt>
      <trkpt lat="50.05208" lon="3.9911">
        <ele>173.4</ele>
        <time>2024-04-28T07:55:28Z</time>
      </trkpt>
      <trkpt lat="50.05218" lon="3.99111">
        <ele>173</ele>
        <time>2024-04-28T07:55:29Z</time>
      </trkpt>
      <trkpt lat="50.05229" lon="3.99113">
        <ele>172.4</ele>
        <time>2024-04-28T07:55:30Z</time>
      </trkpt>
      <trkpt lat="50.05239" lon="3.99115">
        <ele>172.2</ele>
        <time>2024-04-28T07:55:31Z</time>
      </trkpt>
      <trkpt lat="50.05249" lon="3.99118">
        <ele>171.8</ele>
        <time>2024-04-28T07:55:32Z</time>
      </trkpt>
      <trkpt lat="50.05259" lon="3.9912">
        <ele>171.2</ele>
        <time>2024-04-28T07:55:33Z</time>
      </trkpt>
      <trkpt lat="50.0527" lon="3.99123">
        <ele>170.6</ele>
        <time>2024-04-28T07:55:34Z</time>
      </trkpt>
      <trkpt lat="50.05281" lon="3.99125">
        <ele>170.2</ele>
        <time>2024-04-28T07:55:35Z</time>
      </trkpt>
      <trkpt lat="50.05292" lon="3.99127">
        <ele>169.8</ele>
        <time>2024-04-28T07:55:36Z</time>
      </trkpt>
      <trkpt lat="50.05303" lon="3.99128">
        <ele>169.4</ele>
        <time>2024-04-28T07:55:37Z</time>
      </trkpt>
      <trkpt lat="50.05314" lon="3.9913">
        <ele>169.2</ele>
        <time>2024-04-28T07:55:38Z</time>
      </trkpt>
      <trkpt lat="50.05326" lon="3.99132">
        <ele>168.8</ele>
        <time>2024-04-28T07:55:39Z</time>
      </trkpt>
      <trkpt lat="50.05338" lon="3.99134">
        <ele>168.8</ele>
        <time>2024-04-28T07:55:40Z</time>
      </trkpt>
      <trkpt lat="50.0535" lon="3.99137">
        <ele>168.4</ele>
        <time>2024-04-28T07:55:41Z</time>
      </trkpt>
      <trkpt lat="50.05362" lon="3.99139">
        <ele>167.4</ele>
        <time>2024-04-28T07:55:42Z</time>
      </trkpt>
      <trkpt lat="50.05374" lon="3.99142">
        <ele>166.2</ele>
        <time>2024-04-28T07:55:43Z</time>
      </trkpt>
      <trkpt lat="50.05386" lon="3.99146">
        <ele>165.6</ele>
        <time>2024-04-28T07:55:44Z</time>
      </trkpt>
      <trkpt lat="50.05398" lon="3.9915">
        <ele>164.6</ele>
        <time>2024-04-28T07:55:45Z</time>
      </trkpt>
      <trkpt lat="50.05409" lon="3.99155">
        <ele>164</ele>
        <time>2024-04-28T07:55:46Z</time>
      </trkpt>
      <trkpt lat="50.05421" lon="3.99161">
        <ele>163.6</ele>
        <time>2024-04-28T07:55:47Z</time>
      </trkpt>
      <trkpt lat="50.05432" lon="3.99167">
        <ele>163.4</ele>
        <time>2024-04-28T07:55:48Z</time>
      </trkpt>
      <trkpt lat="50.05443" lon="3.99173">
        <ele>163</ele>
        <time>2024-04-28T07:55:49Z</time>
      </trkpt>
      <trkpt lat="50.05453" lon="3.99179">
        <ele>162.2</ele>
        <time>2024-04-28T07:55:50Z</time>
      </trkpt>
      <trkpt lat="50.05464" lon="3.99184">
        <ele>161.2</ele>
        <time>2024-04-28T07:55:51Z</time>
      </trkpt>
      <trkpt lat="50.05473" lon="3.99189">
        <ele>160.8</ele>
        <time>2024-04-28T07:55:52Z</time>
      </trkpt>
      <trkpt lat="50.05482" lon="3.99193">
        <ele>160.6</ele>
        <time>2024-04-28T07:55:53Z</time>
      </trkpt>
      <trkpt lat="50.05491" lon="3.99194">
        <ele>160.2</ele>
        <time>2024-04-28T07:55:54Z</time>
      </trkpt>
      <trkpt lat="50.055" lon="3.99193">
        <ele>160</ele>
        <time>2024-04-28T07:55:55Z</time>
      </trkpt>
      <trkpt lat="50.05509" lon="3.99189">
        <ele>159.6</ele>
        <time>2024-04-28T07:55:56Z</time>
      </trkpt>
      <trkpt lat="50.05517" lon="3.99182">
        <ele>159.6</ele>
        <time>2024-04-28T07:55:57Z</time>
      </trkpt>
      <trkpt lat="50.05525" lon="3.99174">
        <ele>159.4</ele>
        <time>2024-04-28T07:55:58Z</time>
      </trkpt>
      <trkpt lat="50.05532" lon="3.99165">
        <ele>159</ele>
        <time>2024-04-28T07:55:59Z</time>
      </trkpt>
      <trkpt lat="50.0554" lon="3.99156">
        <ele>158.8</ele>
        <time>2024-04-28T07:56:00Z</time>
      </trkpt>
      <trkpt lat="50.05549" lon="3.99148">
        <ele>158.8</ele>
        <time>2024-04-28T07:56:01Z</time>
      </trkpt>
      <trkpt lat="50.05557" lon="3.9914">
        <ele>158.8</ele>
        <time>2024-04-28T07:56:02Z</time>
      </trkpt>
      <trkpt lat="50.05566" lon="3.99133">
        <ele>158.4</ele>
        <time>2024-04-28T07:56:03Z</time>
      </trkpt>
      <trkpt lat="50.05574" lon="3.99124">
        <ele>158.2</ele>
        <time>2024-04-28T07:56:04Z</time>
      </trkpt>
      <trkpt lat="50.05581" lon="3.99114">
        <ele>157.8</ele>
        <time>2024-04-28T07:56:05Z</time>
      </trkpt>
      <trkpt lat="50.05587" lon="3.99101">
        <ele>157.8</ele>
        <time>2024-04-28T07:56:06Z</time>
      </trkpt>
      <trkpt lat="50.05592" lon="3.99088">
        <ele>157.6</ele>
        <time>2024-04-28T07:56:07Z</time>
      </trkpt>
      <trkpt lat="50.05594" lon="3.99073">
        <ele>157.4</ele>
        <time>2024-04-28T07:56:08Z</time>
      </trkpt>
      <trkpt lat="50.05595" lon="3.99058">
        <ele>157.2</ele>
        <time>2024-04-28T07:56:09Z</time>
      </trkpt>
      <trkpt lat="50.05594" lon="3.99043">
        <ele>157</ele>
        <time>2024-04-28T07:56:10Z</time>
      </trkpt>
      <trkpt lat="50.05592" lon="3.99029">
        <ele>156.6</ele>
        <time>2024-04-28T07:56:11Z</time>
      </trkpt>
      <trkpt lat="50.0559" lon="3.99014">
        <ele>156.4</ele>
        <time>2024-04-28T07:56:12Z</time>
      </trkpt>
      <trkpt lat="50.05589" lon="3.98998">
        <ele>156</ele>
        <time>2024-04-28T07:56:13Z</time>
      </trkpt>
      <trkpt lat="50.05589" lon="3.98983">
        <ele>156</ele>
        <time>2024-04-28T07:56:14Z</time>
      </trkpt>
      <trkpt lat="50.0559" lon="3.98968">
        <ele>155.8</ele>
        <time>2024-04-28T07:56:15Z</time>
      </trkpt>
      <trkpt lat="50.05592" lon="3.98953">
        <ele>155.4</ele>
        <time>2024-04-28T07:56:16Z</time>
      </trkpt>
      <trkpt lat="50.05595" lon="3.98938">
        <ele>155.2</ele>
        <time>2024-04-28T07:56:17Z</time>
      </trkpt>
      <trkpt lat="50.05599" lon="3.98924">
        <ele>155</ele>
        <time>2024-04-28T07:56:18Z</time>
      </trkpt>
      <trkpt lat="50.05602" lon="3.9891">
        <ele>154.6</ele>
        <time>2024-04-28T07:56:19Z</time>
      </trkpt>
      <trkpt lat="50.05606" lon="3.98895">
        <ele>154.6</ele>
        <time>2024-04-28T07:56:20Z</time>
      </trkpt>
      <trkpt lat="50.05609" lon="3.98882">
        <ele>154.4</ele>
        <time>2024-04-28T07:56:21Z</time>
      </trkpt>
      <trkpt lat="50.05612" lon="3.98868">
        <ele>154.4</ele>
        <time>2024-04-28T07:56:22Z</time>
      </trkpt>
      <trkpt lat="50.05616" lon="3.98855">
        <ele>154</ele>
        <time>2024-04-28T07:56:23Z</time>
      </trkpt>
      <trkpt lat="50.05619" lon="3.98841">
        <ele>154</ele>
        <time>2024-04-28T07:56:24Z</time>
      </trkpt>
      <trkpt lat="50.05623" lon="3.98828">
        <ele>153.8</ele>
        <time>2024-04-28T07:56:25Z</time>
      </trkpt>
      <trkpt lat="50.05626" lon="3.98815">
        <ele>153.8</ele>
        <time>2024-04-28T07:56:26Z</time>
      </trkpt>
      <trkpt lat="50.0563" lon="3.98803">
        <ele>153.6</ele>
        <time>2024-04-28T07:56:27Z</time>
      </trkpt>
      <trkpt lat="50.05634" lon="3.9879">
        <ele>153.4</ele>
        <time>2024-04-28T07:56:28Z</time>
      </trkpt>
      <trkpt lat="50.05638" lon="3.98778">
        <ele>153.4</ele>
        <time>2024-04-28T07:56:29Z</time>
      </trkpt>
      <trkpt lat="50.05642" lon="3.98767">
        <ele>153.2</ele>
        <time>2024-04-28T07:56:30Z</time>
      </trkpt>
      <trkpt lat="50.05648" lon="3.98757">
        <ele>153.4</ele>
        <time>2024-04-28T07:56:31Z</time>
      </trkpt>
      <trkpt lat="50.05653" lon="3.98749">
        <ele>153.2</ele>
        <time>2024-04-28T07:56:32Z</time>
      </trkpt>
      <trkpt lat="50.0566" lon="3.98742">
        <ele>153.2</ele>
        <time>2024-04-28T07:56:33Z</time>
      </trkpt>
      <trkpt lat="50.05666" lon="3.98736">
        <ele>153.2</ele>
        <time>2024-04-28T07:56:34Z</time>
      </trkpt>
      <trkpt lat="50.05673" lon="3.98731">
        <ele>153.2</ele>
        <time>2024-04-28T07:56:35Z</time>
      </trkpt>
      <trkpt lat="50.0568" lon="3.98726">
        <ele>153.4</ele>
        <time>2024-04-28T07:56:36Z</time>
      </trkpt>
      <trkpt lat="50.05686" lon="3.98721">
        <ele>153.4</ele>
        <time>2024-04-28T07:56:37Z</time>
      </trkpt>
      <trkpt lat="50.05693" lon="3.98717">
        <ele>153.2</ele>
        <time>2024-04-28T07:56:38Z</time>
      </trkpt>
      <trkpt lat="50.05699" lon="3.98713">
        <ele>153.2</ele>
        <time>2024-04-28T07:56:39Z</time>
      </trkpt>
      <trkpt lat="50.05705" lon="3.98709">
        <ele>153.2</ele>
        <time>2024-04-28T07:56:40Z</time>
      </trkpt>
      <trkpt lat="50.05711" lon="3.98706">
        <ele>153.4</ele>
        <time>2024-04-28T07:56:41Z</time>
      </trkpt>
      <trkpt lat="50.05717" lon="3.98703">
        <ele>153.4</ele>
        <time>2024-04-28T07:56:42Z</time>
      </trkpt>
      <trkpt lat="50.05724" lon="3.98702">
        <ele>153.6</ele>
        <time>2024-04-28T07:56:43Z</time>
      </trkpt>
      <trkpt lat="50.0573" lon="3.98701">
        <ele>153.6</ele>
        <time>2024-04-28T07:56:44Z</time>
      </trkpt>
      <trkpt lat="50.05736" lon="3.98702">
        <ele>153.8</ele>
        <time>2024-04-28T07:56:45Z</time>
      </trkpt>
      <trkpt lat="50.05742" lon="3.98705">
        <ele>154.2</ele>
        <time>2024-04-28T07:56:46Z</time>
      </trkpt>
      <trkpt lat="50.05748" lon="3.98709">
        <ele>154.6</ele>
        <time>2024-04-28T07:56:47Z</time>
      </trkpt>
      <trkpt lat="50.05753" lon="3.98714">
        <ele>155.2</ele>
        <time>2024-04-28T07:56:48Z</time>
      </trkpt>
      <trkpt lat="50.05759" lon="3.98719">
        <ele>155.2</ele>
        <time>2024-04-28T07:56:49Z</time>
      </trkpt>
      <trkpt lat="50.05764" lon="3.98724">
        <ele>155.6</ele>
        <time>2024-04-28T07:56:50Z</time>
      </trkpt>
      <trkpt lat="50.0577" lon="3.98729">
        <ele>156</ele>
        <time>2024-04-28T07:56:51Z</time>
      </trkpt>
      <trkpt lat="50.05775" lon="3.98735">
        <ele>157</ele>
        <time>2024-04-28T07:56:52Z</time>
      </trkpt>
      <trkpt lat="50.05781" lon="3.9874">
        <ele>157.4</ele>
        <time>2024-04-28T07:56:53Z</time>
      </trkpt>
      <trkpt lat="50.05787" lon="3.98745">
        <ele>157.6</ele>
        <time>2024-04-28T07:56:54Z</time>
      </trkpt>
      <trkpt lat="50.05794" lon="3.98751">
        <ele>158</ele>
        <time>2024-04-28T07:56:55Z</time>
      </trkpt>
      <trkpt lat="50.058" lon="3.98757">
        <ele>158</ele>
        <time>2024-04-28T07:56:56Z</time>
      </trkpt>
      <trkpt lat="50.05806" lon="3.98763">
        <ele>158</ele>
        <time>2024-04-28T07:56:57Z</time>
      </trkpt>
      <trkpt lat="50.05813" lon="3.98768">
        <ele>158.2</ele>
        <time>2024-04-28T07:56:58Z</time>
      </trkpt>
      <trkpt lat="50.05819" lon="3.98774">
        <ele>158.2</ele>
        <time>2024-04-28T07:56:59Z</time>
      </trkpt>
      <trkpt lat="50.05825" lon="3.9878">
        <ele>158.4</ele>
        <time>2024-04-28T07:57:00Z</time>
      </trkpt>
      <trkpt lat="50.05832" lon="3.98786">
        <ele>158.4</ele>
        <time>2024-04-28T07:57:01Z</time>
      </trkpt>
      <trkpt lat="50.05838" lon="3.98792">
        <ele>158.2</ele>
        <time>2024-04-28T07:57:02Z</time>
      </trkpt>
      <trkpt lat="50.05845" lon="3.98797">
        <ele>158.2</ele>
        <time>2024-04-28T07:57:03Z</time>
      </trkpt>
      <trkpt lat="50.05851" lon="3.98803">
        <ele>158.2</ele>
        <time>2024-04-28T07:57:04Z</time>
      </trkpt>
      <trkpt lat="50.05857" lon="3.9881">
        <ele>158.4</ele>
        <time>2024-04-28T07:57:05Z</time>
      </trkpt>
      <trkpt lat="50.05864" lon="3.98816">
        <ele>158.4</ele>
        <time>2024-04-28T07:57:06Z</time>
      </trkpt>
      <trkpt lat="50.0587" lon="3.98822">
        <ele>158.2</ele>
        <time>2024-04-28T07:57:07Z</time>
      </trkpt>
      <trkpt lat="50.05877" lon="3.98827">
        <ele>158.2</ele>
        <time>2024-04-28T07:57:08Z</time>
      </trkpt>
      <trkpt lat="50.05883" lon="3.98833">
        <ele>158.2</ele>
        <time>2024-04-28T07:57:09Z</time>
      </trkpt>
      <trkpt lat="50.05889" lon="3.98839">
        <ele>158.2</ele>
        <time>2024-04-28T07:57:10Z</time>
      </trkpt>
      <trkpt lat="50.05895" lon="3.98845">
        <ele>158.4</ele>
        <time>2024-04-28T07:57:11Z</time>
      </trkpt>
      <trkpt lat="50.05902" lon="3.98851">
        <ele>158.4</ele>
        <time>2024-04-28T07:57:12Z</time>
      </trkpt>
      <trkpt lat="50.05908" lon="3.98857">
        <ele>158.2</ele>
        <time>2024-04-28T07:57:13Z</time>
      </trkpt>
      <trkpt lat="50.05914" lon="3.98862">
        <ele>158.2</ele>
        <time>2024-04-28T07:57:14Z</time>
      </trkpt>
      <trkpt lat="50.05921" lon="3.98868">
        <ele>158.6</ele>
        <time>2024-04-28T07:57:15Z</time>
      </trkpt>
      <trkpt lat="50.05927" lon="3.98872">
        <ele>158.4</ele>
        <time>2024-04-28T07:57:16Z</time>
      </trkpt>
      <trkpt lat="50.05934" lon="3.98877">
        <ele>158.6</ele>
        <time>2024-04-28T07:57:17Z</time>
      </trkpt>
      <trkpt lat="50.0594" lon="3.98882">
        <ele>158.8</ele>
        <time>2024-04-28T07:57:18Z</time>
      </trkpt>
      <trkpt lat="50.05946" lon="3.98888">
        <ele>158.8</ele>
        <time>2024-04-28T07:57:19Z</time>
      </trkpt>
      <trkpt lat="50.05952" lon="3.98894">
        <ele>158.8</ele>
        <time>2024-04-28T07:57:20Z</time>
      </trkpt>
      <trkpt lat="50.05957" lon="3.98901">
        <ele>159</ele>
        <time>2024-04-28T07:57:21Z</time>
      </trkpt>
      <trkpt lat="50.05962" lon="3.98908">
        <ele>159.2</ele>
        <time>2024-04-28T07:57:22Z</time>
      </trkpt>
      <trkpt lat="50.05968" lon="3.98914">
        <ele>159.2</ele>
        <time>2024-04-28T07:57:23Z</time>
      </trkpt>
      <trkpt lat="50.05973" lon="3.98921">
        <ele>159.4</ele>
        <time>2024-04-28T07:57:24Z</time>
      </trkpt>
      <trkpt lat="50.05979" lon="3.98927">
        <ele>159.4</ele>
        <time>2024-04-28T07:57:25Z</time>
      </trkpt>
      <trkpt lat="50.05984" lon="3.98934">
        <ele>159.6</ele>
        <time>2024-04-28T07:57:26Z</time>
      </trkpt>
      <trkpt lat="50.0599" lon="3.9894">
        <ele>160</ele>
        <time>2024-04-28T07:57:27Z</time>
      </trkpt>
      <trkpt lat="50.05995" lon="3.98946">
        <ele>160.2</ele>
        <time>2024-04-28T07:57:28Z</time>
      </trkpt>
      <trkpt lat="50.06001" lon="3.98952">
        <ele>160.4</ele>
        <time>2024-04-28T07:57:29Z</time>
      </trkpt>
      <trkpt lat="50.06007" lon="3.98958">
        <ele>160.4</ele>
        <time>2024-04-28T07:57:30Z</time>
      </trkpt>
      <trkpt lat="50.06012" lon="3.98964">
        <ele>160.6</ele>
        <time>2024-04-28T07:57:31Z</time>
      </trkpt>
      <trkpt lat="50.06018" lon="3.9897">
        <ele>161</ele>
        <time>2024-04-28T07:57:32Z</time>
      </trkpt>
      <trkpt lat="50.06024" lon="3.98975">
        <ele>161.4</ele>
        <time>2024-04-28T07:57:33Z</time>
      </trkpt>
      <trkpt lat="50.0603" lon="3.98981">
        <ele>161.8</ele>
        <time>2024-04-28T07:57:34Z</time>
      </trkpt>
      <trkpt lat="50.06036" lon="3.98986">
        <ele>162</ele>
        <time>2024-04-28T07:57:35Z</time>
      </trkpt>
      <trkpt lat="50.06041" lon="3.9899">
        <ele>162.4</ele>
        <time>2024-04-28T07:57:36Z</time>
      </trkpt>
      <trkpt lat="50.06047" lon="3.98995">
        <ele>162.8</ele>
        <time>2024-04-28T07:57:37Z</time>
      </trkpt>
      <trkpt lat="50.06053" lon="3.99">
        <ele>163</ele>
        <time>2024-04-28T07:57:38Z</time>
      </trkpt>
      <trkpt lat="50.06059" lon="3.99004">
        <ele>163.2</ele>
        <time>2024-04-28T07:57:39Z</time>
      </trkpt>
      <trkpt lat="50.06064" lon="3.99008">
        <ele>163.4</ele>
        <time>2024-04-28T07:57:40Z</time>
      </trkpt>
      <trkpt lat="50.0607" lon="3.99012">
        <ele>163.6</ele>
        <time>2024-04-28T07:57:41Z</time>
      </trkpt>
      <trkpt lat="50.06076" lon="3.99016">
        <ele>164</ele>
        <time>2024-04-28T07:57:42Z</time>
      </trkpt>
      <trkpt lat="50.06083" lon="3.9902">
        <ele>164</ele>
        <time>2024-04-28T07:57:43Z</time>
      </trkpt>
      <trkpt lat="50.0609" lon="3.99024">
        <ele>164.4</ele>
        <time>2024-04-28T07:57:44Z</time>
      </trkpt>
      <trkpt lat="50.06096" lon="3.99029">
        <ele>164.6</ele>
        <time>2024-04-28T07:57:45Z</time>
      </trkpt>
      <trkpt lat="50.06103" lon="3.99035">
        <ele>164.6</ele>
        <time>2024-04-28T07:57:46Z</time>
      </trkpt>
      <trkpt lat="50.06111" lon="3.99042">
        <ele>164.6</ele>
        <time>2024-04-28T07:57:47Z</time>
      </trkpt>
      <trkpt lat="50.06119" lon="3.99049">
        <ele>164.6</ele>
        <time>2024-04-28T07:57:48Z</time>
      </trkpt>
      <trkpt lat="50.06127" lon="3.99058">
        <ele>164.6</ele>
        <time>2024-04-28T07:57:49Z</time>
      </trkpt>
      <trkpt lat="50.06135" lon="3.99067">
        <ele>164.4</ele>
        <time>2024-04-28T07:57:50Z</time>
      </trkpt>
      <trkpt lat="50.06144" lon="3.99076">
        <ele>164.6</ele>
        <time>2024-04-28T07:57:51Z</time>
      </trkpt>
      <trkpt lat="50.06152" lon="3.99085">
        <ele>164.8</ele>
        <time>2024-04-28T07:57:52Z</time>
      </trkpt>
      <trkpt lat="50.06161" lon="3.99094">
        <ele>164.6</ele>
        <time>2024-04-28T07:57:53Z</time>
      </trkpt>
      <trkpt lat="50.0617" lon="3.99102">
        <ele>164.4</ele>
        <time>2024-04-28T07:57:54Z</time>
      </trkpt>
      <trkpt lat="50.06179" lon="3.9911">
        <ele>163.8</ele>
        <time>2024-04-28T07:57:55Z</time>
      </trkpt>
      <trkpt lat="50.06188" lon="3.99118">
        <ele>162.8</ele>
        <time>2024-04-28T07:57:56Z</time>
      </trkpt>
      <trkpt lat="50.06198" lon="3.99126">
        <ele>162</ele>
        <time>2024-04-28T07:57:57Z</time>
      </trkpt>
      <trkpt lat="50.06207" lon="3.99133">
        <ele>161.2</ele>
        <time>2024-04-28T07:57:58Z</time>
      </trkpt>
      <trkpt lat="50.06216" lon="3.99139">
        <ele>160.4</ele>
        <time>2024-04-28T07:57:59Z</time>
      </trkpt>
      <trkpt lat="50.06225" lon="3.99146">
        <ele>160.4</ele>
        <time>2024-04-28T07:58:00Z</time>
      </trkpt>
      <trkpt lat="50.06234" lon="3.99153">
        <ele>159.6</ele>
        <time>2024-04-28T07:58:01Z</time>
      </trkpt>
      <trkpt lat="50.06243" lon="3.9916">
        <ele>158.8</ele>
        <time>2024-04-28T07:58:02Z</time>
      </trkpt>
      <trkpt lat="50.06251" lon="3.99167">
        <ele>158.6</ele>
        <time>2024-04-28T07:58:03Z</time>
      </trkpt>
      <trkpt lat="50.06259" lon="3.99174">
        <ele>158.4</ele>
        <time>2024-04-28T07:58:04Z</time>
      </trkpt>
      <trkpt lat="50.06266" lon="3.99181">
        <ele>158.2</ele>
        <time>2024-04-28T07:58:05Z</time>
      </trkpt>
      <trkpt lat="50.06274" lon="3.99187">
        <ele>158.2</ele>
        <time>2024-04-28T07:58:06Z</time>
      </trkpt>
      <trkpt lat="50.0628" lon="3.99193">
        <ele>158.2</ele>
        <time>2024-04-28T07:58:07Z</time>
      </trkpt>
      <trkpt lat="50.06287" lon="3.99199">
        <ele>158.4</ele>
        <time>2024-04-28T07:58:08Z</time>
      </trkpt>
      <trkpt lat="50.06293" lon="3.99205">
        <ele>158.2</ele>
        <time>2024-04-28T07:58:09Z</time>
      </trkpt>
      <trkpt lat="50.06299" lon="3.99209">
        <ele>158.2</ele>
        <time>2024-04-28T07:58:10Z</time>
      </trkpt>
      <trkpt lat="50.06305" lon="3.99214">
        <ele>158.4</ele>
        <time>2024-04-28T07:58:11Z</time>
      </trkpt>
      <trkpt lat="50.06311" lon="3.99217">
        <ele>158.4</ele>
        <time>2024-04-28T07:58:12Z</time>
      </trkpt>
      <trkpt lat="50.06317" lon="3.9922">
        <ele>158.6</ele>
        <time>2024-04-28T07:58:13Z</time>
      </trkpt>
      <trkpt lat="50.06322" lon="3.99223">
        <ele>159</ele>
        <time>2024-04-28T07:58:14Z</time>
      </trkpt>
      <trkpt lat="50.06327" lon="3.99226">
        <ele>159.4</ele>
        <time>2024-04-28T07:58:15Z</time>
      </trkpt>
      <trkpt lat="50.06333" lon="3.99229">
        <ele>159.8</ele>
        <time>2024-04-28T07:58:16Z</time>
      </trkpt>
      <trkpt lat="50.06337" lon="3.99231">
        <ele>159.8</ele>
        <time>2024-04-28T07:58:17Z</time>
      </trkpt>
      <trkpt lat="50.06342" lon="3.99233">
        <ele>160.4</ele>
        <time>2024-04-28T07:58:18Z</time>
      </trkpt>
      <trkpt lat="50.06347" lon="3.99235">
        <ele>161.2</ele>
        <time>2024-04-28T07:58:19Z</time>
      </trkpt>
      <trkpt lat="50.06352" lon="3.99237">
        <ele>161.6</ele>
        <time>2024-04-28T07:58:20Z</time>
      </trkpt>
      <trkpt lat="50.06356" lon="3.99239">
        <ele>162</ele>
        <time>2024-04-28T07:58:21Z</time>
      </trkpt>
      <trkpt lat="50.06361" lon="3.99241">
        <ele>162.8</ele>
        <time>2024-04-28T07:58:22Z</time>
      </trkpt>
      <trkpt lat="50.06366" lon="3.99242">
        <ele>163.4</ele>
        <time>2024-04-28T07:58:23Z</time>
      </trkpt>
      <trkpt lat="50.06371" lon="3.99244">
        <ele>163.6</ele>
        <time>2024-04-28T07:58:24Z</time>
      </trkpt>
      <trkpt lat="50.06375" lon="3.99245">
        <ele>164.6</ele>
        <time>2024-04-28T07:58:25Z</time>
      </trkpt>
      <trkpt lat="50.0638" lon="3.99246">
        <ele>165.6</ele>
        <time>2024-04-28T07:58:26Z</time>
      </trkpt>
      <trkpt lat="50.06384" lon="3.99247">
        <ele>166.4</ele>
        <time>2024-04-28T07:58:27Z</time>
      </trkpt>
      <trkpt lat="50.06388" lon="3.99248">
        <ele>167</ele>
        <time>2024-04-28T07:58:28Z</time>
      </trkpt>
      <trkpt lat="50.06392" lon="3.99249">
        <ele>167.4</ele>
        <time>2024-04-28T07:58:29Z</time>
      </trkpt>
      <trkpt lat="50.06397" lon="3.9925">
        <ele>167.8</ele>
        <time>2024-04-28T07:58:30Z</time>
      </trkpt>
      <trkpt lat="50.06401" lon="3.9925">
        <ele>168.4</ele>
        <time>2024-04-28T07:58:31Z</time>
      </trkpt>
      <trkpt lat="50.06405" lon="3.99251">
        <ele>168.4</ele>
        <time>2024-04-28T07:58:32Z</time>
      </trkpt>
      <trkpt lat="50.06409" lon="3.99251">
        <ele>169</ele>
        <time>2024-04-28T07:58:33Z</time>
      </trkpt>
      <trkpt lat="50.06413" lon="3.99252">
        <ele>169.4</ele>
        <time>2024-04-28T07:58:34Z</time>
      </trkpt>
      <trkpt lat="50.06417" lon="3.99252">
        <ele>170.2</ele>
        <time>2024-04-28T07:58:35Z</time>
      </trkpt>
      <trkpt lat="50.06421" lon="3.99252">
        <ele>170.4</ele>
        <time>2024-04-28T07:58:36Z</time>
      </trkpt>
      <trkpt lat="50.06424" lon="3.99252">
        <ele>171</ele>
        <time>2024-04-28T07:58:37Z</time>
      </trkpt>
      <trkpt lat="50.06428" lon="3.99252">
        <ele>171.6</ele>
        <time>2024-04-28T07:58:38Z</time>
      </trkpt>
      <trkpt lat="50.06432" lon="3.99252">
        <ele>172.2</ele>
        <time>2024-04-28T07:58:39Z</time>
      </trkpt>
      <trkpt lat="50.06436" lon="3.99252">
        <ele>172.6</ele>
        <time>2024-04-28T07:58:40Z</time>
      </trkpt>
      <trkpt lat="50.0644" lon="3.99252">
        <ele>172.8</ele>
        <time>2024-04-28T07:58:41Z</time>
      </trkpt>
      <trkpt lat="50.06444" lon="3.99252">
        <ele>173.4</ele>
        <time>2024-04-28T07:58:42Z</time>
      </trkpt>
      <trkpt lat="50.06447" lon="3.99251">
        <ele>173.6</ele>
        <time>2024-04-28T07:58:43Z</time>
      </trkpt>
      <trkpt lat="50.06451" lon="3.99251">
        <ele>174</ele>
        <time>2024-04-28T07:58:44Z</time>
      </trkpt>
      <trkpt lat="50.06454" lon="3.99251">
        <ele>174.4</ele>
        <time>2024-04-28T07:58:45Z</time>
      </trkpt>
      <trkpt lat="50.06458" lon="3.99251">
        <ele>175.4</ele>
        <time>2024-04-28T07:58:46Z</time>
      </trkpt>
      <trkpt lat="50.06461" lon="3.9925">
        <ele>175.8</ele>
        <time>2024-04-28T07:58:47Z</time>
      </trkpt>
      <trkpt lat="50.06464" lon="3.9925">
        <ele>176.4</ele>
        <time>2024-04-28T07:58:48Z</time>
      </trkpt>
      <trkpt lat="50.06468" lon="3.9925">
        <ele>176.4</ele>
        <time>2024-04-28T07:58:49Z</time>
      </trkpt>
      <trkpt lat="50.06472" lon="3.99249">
        <ele>176.6</ele>
        <time>2024-04-28T07:58:50Z</time>
      </trkpt>
      <trkpt lat="50.06475" lon="3.99249">
        <ele>177</ele>
        <time>2024-04-28T07:58:51Z</time>
      </trkpt>
      <trkpt lat="50.06479" lon="3.99249">
        <ele>177.2</ele>
        <time>2024-04-28T07:58:52Z</time>
      </trkpt>
      <trkpt lat="50.06482" lon="3.99249">
        <ele>177.6</ele>
        <time>2024-04-28T07:58:53Z</time>
      </trkpt>
      <trkpt lat="50.06486" lon="3.99248">
        <ele>177.8</ele>
        <time>2024-04-28T07:58:54Z</time>
      </trkpt>
      <trkpt lat="50.0649" lon="3.99248">
        <ele>177.8</ele>
        <time>2024-04-28T07:58:55Z</time>
      </trkpt>
      <trkpt lat="50.06494" lon="3.99248">
        <ele>178</ele>
        <time>2024-04-28T07:58:56Z</time>
      </trkpt>
      <trkpt lat="50.06497" lon="3.99247">
        <ele>178.4</ele>
        <time>2024-04-28T07:58:57Z</time>
      </trkpt>
      <trkpt lat="50.06501" lon="3.99247">
        <ele>178.6</ele>
        <time>2024-04-28T07:58:58Z</time>
      </trkpt>
      <trkpt lat="50.06504" lon="3.99247">
        <ele>178.8</ele>
        <time>2024-04-28T07:58:59Z</time>
      </trkpt>
      <trkpt lat="50.06508" lon="3.99247">
        <ele>178.8</ele>
        <time>2024-04-28T07:59:00Z</time>
      </trkpt>
      <trkpt lat="50.06512" lon="3.99246">
        <ele>179</ele>
        <time>2024-04-28T07:59:01Z</time>
      </trkpt>
      <trkpt lat="50.06515" lon="3.99246">
        <ele>179</ele>
        <time>2024-04-28T07:59:02Z</time>
      </trkpt>
      <trkpt lat="50.06519" lon="3.99246">
        <ele>179.2</ele>
        <time>2024-04-28T07:59:03Z</time>
      </trkpt>
      <trkpt lat="50.06523" lon="3.99245">
        <ele>179.4</ele>
        <time>2024-04-28T07:59:04Z</time>
      </trkpt>
      <trkpt lat="50.06527" lon="3.99245">
        <ele>179.4</ele>
        <time>2024-04-28T07:59:05Z</time>
      </trkpt>
      <trkpt lat="50.06531" lon="3.99244">
        <ele>179.4</ele>
        <time>2024-04-28T07:59:06Z</time>
      </trkpt>
      <trkpt lat="50.06536" lon="3.99243">
        <ele>179.6</ele>
        <time>2024-04-28T07:59:07Z</time>
      </trkpt>
      <trkpt lat="50.0654" lon="3.99243">
        <ele>180</ele>
        <time>2024-04-28T07:59:08Z</time>
      </trkpt>
      <trkpt lat="50.06544" lon="3.99242">
        <ele>180.2</ele>
        <time>2024-04-28T07:59:09Z</time>
      </trkpt>
      <trkpt lat="50.06548" lon="3.99242">
        <ele>181</ele>
        <time>2024-04-28T07:59:10Z</time>
      </trkpt>
      <trkpt lat="50.06553" lon="3.99241">
        <ele>181.6</ele>
        <time>2024-04-28T07:59:11Z</time>
      </trkpt>
      <trkpt lat="50.06557" lon="3.99241">
        <ele>182</ele>
        <time>2024-04-28T07:59:12Z</time>
      </trkpt>
      <trkpt lat="50.06561" lon="3.9924">
        <ele>182.2</ele>
        <time>2024-04-28T07:59:13Z</time>
      </trkpt>
      <trkpt lat="50.06566" lon="3.9924">
        <ele>182.4</ele>
        <time>2024-04-28T07:59:14Z</time>
      </trkpt>
      <trkpt lat="50.0657" lon="3.99239">
        <ele>182.4</ele>
        <time>2024-04-28T07:59:15Z</time>
      </trkpt>
      <trkpt lat="50.06575" lon="3.99239">
        <ele>182.6</ele>
        <time>2024-04-28T07:59:16Z</time>
      </trkpt>
      <trkpt lat="50.06579" lon="3.99239">
        <ele>182.6</ele>
        <time>2024-04-28T07:59:17Z</time>
      </trkpt>
      <trkpt lat="50.06584" lon="3.99239">
        <ele>182.8</ele>
        <time>2024-04-28T07:59:18Z</time>
      </trkpt>
      <trkpt lat="50.06588" lon="3.9924">
        <ele>183</ele>
        <time>2024-04-28T07:59:19Z</time>
      </trkpt>
      <trkpt lat="50.06593" lon="3.99242">
        <ele>182.8</ele>
        <time>2024-04-28T07:59:20Z</time>
      </trkpt>
      <trkpt lat="50.06598" lon="3.99244">
        <ele>182.8</ele>
        <time>2024-04-28T07:59:21Z</time>
      </trkpt>
      <trkpt lat="50.06602" lon="3.99247">
        <ele>182.8</ele>
        <time>2024-04-28T07:59:22Z</time>
      </trkpt>
      <trkpt lat="50.06607" lon="3.9925">
        <ele>183</ele>
        <time>2024-04-28T07:59:23Z</time>
      </trkpt>
      <trkpt lat="50.06611" lon="3.99254">
        <ele>183.2</ele>
        <time>2024-04-28T07:59:24Z</time>
      </trkpt>
      <trkpt lat="50.06615" lon="3.99258">
        <ele>183</ele>
        <time>2024-04-28T07:59:25Z</time>
      </trkpt>
      <trkpt lat="50.06619" lon="3.99261">
        <ele>183</ele>
        <time>2024-04-28T07:59:26Z</time>
      </trkpt>
      <trkpt lat="50.06623" lon="3.99264">
        <ele>183</ele>
        <time>2024-04-28T07:59:27Z</time>
      </trkpt>
      <trkpt lat="50.06627" lon="3.99267">
        <ele>183</ele>
        <time>2024-04-28T07:59:28Z</time>
      </trkpt>
      <trkpt lat="50.06632" lon="3.99271">
        <ele>183</ele>
        <time>2024-04-28T07:59:29Z</time>
      </trkpt>
      <trkpt lat="50.06636" lon="3.99275">
        <ele>183.2</ele>
        <time>2024-04-28T07:59:30Z</time>
      </trkpt>
      <trkpt lat="50.0664" lon="3.99278">
        <ele>183.4</ele>
        <time>2024-04-28T07:59:31Z</time>
      </trkpt>
      <trkpt lat="50.06645" lon="3.99282">
        <ele>183.4</ele>
        <time>2024-04-28T07:59:32Z</time>
      </trkpt>
      <trkpt lat="50.0665" lon="3.99286">
        <ele>183.6</ele>
        <time>2024-04-28T07:59:33Z</time>
      </trkpt>
      <trkpt lat="50.06654" lon="3.9929">
        <ele>183.6</ele>
        <time>2024-04-28T07:59:34Z</time>
      </trkpt>
      <trkpt lat="50.06659" lon="3.99294">
        <ele>183.6</ele>
        <time>2024-04-28T07:59:35Z</time>
      </trkpt>
      <trkpt lat="50.06663" lon="3.99298">
        <ele>183.6</ele>
        <time>2024-04-28T07:59:36Z</time>
      </trkpt>
      <trkpt lat="50.06668" lon="3.99302">
        <ele>183.6</ele>
        <time>2024-04-28T07:59:37Z</time>
      </trkpt>
      <trkpt lat="50.06673" lon="3.99306">
        <ele>183.6</ele>
        <time>2024-04-28T07:59:38Z</time>
      </trkpt>
      <trkpt lat="50.06677" lon="3.99311">
        <ele>183.8</ele>
        <time>2024-04-28T07:59:39Z</time>
      </trkpt>
      <trkpt lat="50.06682" lon="3.99316">
        <ele>183.8</ele>
        <time>2024-04-28T07:59:40Z</time>
      </trkpt>
      <trkpt lat="50.06686" lon="3.99321">
        <ele>184.2</ele>
        <time>2024-04-28T07:59:41Z</time>
      </trkpt>
      <trkpt lat="50.06691" lon="3.99325">
        <ele>184.2</ele>
        <time>2024-04-28T07:59:42Z</time>
      </trkpt>
      <trkpt lat="50.06696" lon="3.9933">
        <ele>184.4</ele>
        <time>2024-04-28T07:59:43Z</time>
      </trkpt>
      <trkpt lat="50.06701" lon="3.99334">
        <ele>184.4</ele>
        <time>2024-04-28T07:59:44Z</time>
      </trkpt>
      <trkpt lat="50.06706" lon="3.99337">
        <ele>184.6</ele>
        <time>2024-04-28T07:59:45Z</time>
      </trkpt>
      <trkpt lat="50.06711" lon="3.99339">
        <ele>184.6</ele>
        <time>2024-04-28T07:59:46Z</time>
      </trkpt>
      <trkpt lat="50.06717" lon="3.99339">
        <ele>184.6</ele>
        <time>2024-04-28T07:59:47Z</time>
      </trkpt>
      <trkpt lat="50.06723" lon="3.99338">
        <ele>184.6</ele>
        <time>2024-04-28T07:59:48Z</time>
      </trkpt>
      <trkpt lat="50.06729" lon="3.99334">
        <ele>184.6</ele>
        <time>2024-04-28T07:59:49Z</time>
      </trkpt>
      <trkpt lat="50.06734" lon="3.99329">
        <ele>184.6</ele>
        <time>2024-04-28T07:59:50Z</time>
      </trkpt>
      <trkpt lat="50.06738" lon="3.99321">
        <ele>184.8</ele>
        <time>2024-04-28T07:59:51Z</time>
      </trkpt>
      <trkpt lat="50.06742" lon="3.99312">
        <ele>184.8</ele>
        <time>2024-04-28T07:59:52Z</time>
      </trkpt>
      <trkpt lat="50.06744" lon="3.99302">
        <ele>184.8</ele>
        <time>2024-04-28T07:59:53Z</time>
      </trkpt>
      <trkpt lat="50.06745" lon="3.99291">
        <ele>184.8</ele>
        <time>2024-04-28T07:59:54Z</time>
      </trkpt>
      <trkpt lat="50.06747" lon="3.9928">
        <ele>184.6</ele>
        <time>2024-04-28T07:59:55Z</time>
      </trkpt>
      <trkpt lat="50.0675" lon="3.99269">
        <ele>184.8</ele>
        <time>2024-04-28T07:59:56Z</time>
      </trkpt>
      <trkpt lat="50.06755" lon="3.99259">
        <ele>184.8</ele>
        <time>2024-04-28T07:59:57Z</time>
      </trkpt>
      <trkpt lat="50.06763" lon="3.99254">
        <ele>184.8</ele>
        <time>2024-04-28T07:59:58Z</time>
      </trkpt>
      <trkpt lat="50.06771" lon="3.99255">
        <ele>184.6</ele>
        <time>2024-04-28T07:59:59Z</time>
      </trkpt>
      <trkpt lat="50.06778" lon="3.9926">
        <ele>184.4</ele>
        <time>2024-04-28T08:00:00Z</time>
      </trkpt>
      <trkpt lat="50.06785" lon="3.99269">
        <ele>183.8</ele>
        <time>2024-04-28T08:00:01Z</time>
      </trkpt>
      <trkpt lat="50.06791" lon="3.9928">
        <ele>183.2</ele>
        <time>2024-04-28T08:00:02Z</time>
      </trkpt>
      <trkpt lat="50.06797" lon="3.99291">
        <ele>183</ele>
        <time>2024-04-28T08:00:03Z</time>
      </trkpt>
      <trkpt lat="50.06803" lon="3.99302">
        <ele>182.4</ele>
        <time>2024-04-28T08:00:04Z</time>
      </trkpt>
      <trkpt lat="50.0681" lon="3.99311">
        <ele>181.8</ele>
        <time>2024-04-28T08:00:05Z</time>
      </trkpt>
      <trkpt lat="50.06818" lon="3.99316">
        <ele>181.4</ele>
        <time>2024-04-28T08:00:06Z</time>
      </trkpt>
      <trkpt lat="50.06826" lon="3.99316">
        <ele>180.2</ele>
        <time>2024-04-28T08:00:07Z</time>
      </trkpt>
      <trkpt lat="50.06834" lon="3.99312">
        <ele>178.8</ele>
        <time>2024-04-28T08:00:08Z</time>
      </trkpt>
      <trkpt lat="50.06841" lon="3.99306">
        <ele>177.8</ele>
        <time>2024-04-28T08:00:09Z</time>
      </trkpt>
      <trkpt lat="50.06848" lon="3.99297">
        <ele>176.6</ele>
        <time>2024-04-28T08:00:10Z</time>
      </trkpt>
      <trkpt lat="50.06853" lon="3.99287">
        <ele>176</ele>
        <time>2024-04-28T08:00:11Z</time>
      </trkpt>
      <trkpt lat="50.06857" lon="3.99277">
        <ele>176</ele>
        <time>2024-04-28T08:00:12Z</time>
      </trkpt>
      <trkpt lat="50.0686" lon="3.99267">
        <ele>175.8</ele>
        <time>2024-04-28T08:00:13Z</time>
      </trkpt>
      <trkpt lat="50.06862" lon="3.99256">
        <ele>175.2</ele>
        <time>2024-04-28T08:00:14Z</time>
      </trkpt>
      <trkpt lat="50.06864" lon="3.99246">
        <ele>175.2</ele>
        <time>2024-04-28T08:00:15Z</time>
      </trkpt>
      <trkpt lat="50.06866" lon="3.99235">
        <ele>175</ele>
        <time>2024-04-28T08:00:16Z</time>
      </trkpt>
      <trkpt lat="50.06868" lon="3.99225">
        <ele>175</ele>
        <time>2024-04-28T08:00:17Z</time>
      </trkpt>
      <trkpt lat="50.06869" lon="3.99216">
        <ele>175</ele>
        <time>2024-04-28T08:00:18Z</time>
      </trkpt>
      <trkpt lat="50.06872" lon="3.99207">
        <ele>175</ele>
        <time>2024-04-28T08:00:19Z</time>
      </trkpt>
      <trkpt lat="50.06874" lon="3.99199">
        <ele>175</ele>
        <time>2024-04-28T08:00:20Z</time>
      </trkpt>
      <trkpt lat="50.06876" lon="3.99191">
        <ele>175</ele>
        <time>2024-04-28T08:00:21Z</time>
      </trkpt>
      <trkpt lat="50.06879" lon="3.99184">
        <ele>175</ele>
        <time>2024-04-28T08:00:22Z</time>
      </trkpt>
      <trkpt lat="50.06881" lon="3.99176">
        <ele>175</ele>
        <time>2024-04-28T08:00:23Z</time>
      </trkpt>
      <trkpt lat="50.06884" lon="3.99169">
        <ele>175</ele>
        <time>2024-04-28T08:00:24Z</time>
      </trkpt>
      <trkpt lat="50.06887" lon="3.99162">
        <ele>175.2</ele>
        <time>2024-04-28T08:00:25Z</time>
      </trkpt>
      <trkpt lat="50.0689" lon="3.99156">
        <ele>175.4</ele>
        <time>2024-04-28T08:00:26Z</time>
      </trkpt>
      <trkpt lat="50.06893" lon="3.99149">
        <ele>175.4</ele>
        <time>2024-04-28T08:00:27Z</time>
      </trkpt>
      <trkpt lat="50.06896" lon="3.99142">
        <ele>175.8</ele>
        <time>2024-04-28T08:00:28Z</time>
      </trkpt>
      <trkpt lat="50.06899" lon="3.99135">
        <ele>176</ele>
        <time>2024-04-28T08:00:29Z</time>
      </trkpt>
      <trkpt lat="50.06902" lon="3.99129">
        <ele>176</ele>
        <time>2024-04-28T08:00:30Z</time>
      </trkpt>
      <trkpt lat="50.06906" lon="3.99122">
        <ele>176.6</ele>
        <time>2024-04-28T08:00:31Z</time>
      </trkpt>
      <trkpt lat="50.0691" lon="3.99115">
        <ele>176.8</ele>
        <time>2024-04-28T08:00:32Z</time>
      </trkpt>
      <trkpt lat="50.06913" lon="3.99107">
        <ele>178.2</ele>
        <time>2024-04-28T08:00:33Z</time>
      </trkpt>
      <trkpt lat="50.06918" lon="3.99101">
        <ele>179.2</ele>
        <time>2024-04-28T08:00:34Z</time>
      </trkpt>
      <trkpt lat="50.06923" lon="3.99095">
        <ele>179.8</ele>
        <time>2024-04-28T08:00:35Z</time>
      </trkpt>
      <trkpt lat="50.06928" lon="3.99089">
        <ele>179.8</ele>
        <time>2024-04-28T08:00:36Z</time>
      </trkpt>
      <trkpt lat="50.06934" lon="3.99084">
        <ele>179.8</ele>
        <time>2024-04-28T08:00:37Z</time>
      </trkpt>
      <trkpt lat="50.06941" lon="3.9908">
        <ele>180</ele>
        <time>2024-04-28T08:00:38Z</time>
      </trkpt>
      <trkpt lat="50.06948" lon="3.99076">
        <ele>180</ele>
        <time>2024-04-28T08:00:39Z</time>
      </trkpt>
      <trkpt lat="50.06955" lon="3.99073">
        <ele>180</ele>
        <time>2024-04-28T08:00:40Z</time>
      </trkpt>
      <trkpt lat="50.06962" lon="3.9907">
        <ele>180</ele>
        <time>2024-04-28T08:00:41Z</time>
      </trkpt>
      <trkpt lat="50.06969" lon="3.99069">
        <ele>180</ele>
        <time>2024-04-28T08:00:42Z</time>
      </trkpt>
      <trkpt lat="50.06976" lon="3.99067">
        <ele>180</ele>
        <time>2024-04-28T08:00:43Z</time>
      </trkpt>
      <trkpt lat="50.06984" lon="3.99066">
        <ele>180</ele>
        <time>2024-04-28T08:00:44Z</time>
      </trkpt>
      <trkpt lat="50.06992" lon="3.99065">
        <ele>180</ele>
        <time>2024-04-28T08:00:45Z</time>
      </trkpt>
      <trkpt lat="50.07001" lon="3.99064">
        <ele>179.6</ele>
        <time>2024-04-28T08:00:46Z</time>
      </trkpt>
      <trkpt lat="50.07009" lon="3.99064">
        <ele>179.6</ele>
        <time>2024-04-28T08:00:47Z</time>
      </trkpt>
      <trkpt lat="50.07019" lon="3.99064">
        <ele>179.4</ele>
        <time>2024-04-28T08:00:48Z</time>
      </trkpt>
      <trkpt lat="50.07029" lon="3.99065">
        <ele>179</ele>
        <time>2024-04-28T08:00:49Z</time>
      </trkpt>
      <trkpt lat="50.07039" lon="3.99066">
        <ele>179</ele>
        <time>2024-04-28T08:00:50Z</time>
      </trkpt>
      <trkpt lat="50.07049" lon="3.99069">
        <ele>178.6</ele>
        <time>2024-04-28T08:00:51Z</time>
      </trkpt>
      <trkpt lat="50.07059" lon="3.99072">
        <ele>178.4</ele>
        <time>2024-04-28T08:00:52Z</time>
      </trkpt>
      <trkpt lat="50.07069" lon="3.99077">
        <ele>178.2</ele>
        <time>2024-04-28T08:00:53Z</time>
      </trkpt>
      <trkpt lat="50.07079" lon="3.99083">
        <ele>177.8</ele>
        <time>2024-04-28T08:00:54Z</time>
      </trkpt>
      <trkpt lat="50.07089" lon="3.99089">
        <ele>177.4</ele>
        <time>2024-04-28T08:00:55Z</time>
      </trkpt>
      <trkpt lat="50.07099" lon="3.99092">
        <ele>176.8</ele>
        <time>2024-04-28T08:00:56Z</time>
      </trkpt>
      <trkpt lat="50.07109" lon="3.99092">
        <ele>176</ele>
        <time>2024-04-28T08:00:57Z</time>
      </trkpt>
      <trkpt lat="50.07119" lon="3.99089">
        <ele>174.4</ele>
        <time>2024-04-28T08:00:58Z</time>
      </trkpt>
      <trkpt lat="50.07126" lon="3.99081">
        <ele>174.4</ele>
        <time>2024-04-28T08:00:59Z</time>
      </trkpt>
      <trkpt lat="50.07131" lon="3.9907">
        <ele>173.4</ele>
        <time>2024-04-28T08:01:00Z</time>
      </trkpt>
      <trkpt lat="50.07133" lon="3.99056">
        <ele>172.6</ele>
        <time>2024-04-28T08:01:01Z</time>
      </trkpt>
      <trkpt lat="50.07133" lon="3.99043">
        <ele>172</ele>
        <time>2024-04-28T08:01:02Z</time>
      </trkpt>
      <trkpt lat="50.07134" lon="3.99029">
        <ele>171.8</ele>
        <time>2024-04-28T08:01:03Z</time>
      </trkpt>
      <trkpt lat="50.07135" lon="3.99016">
        <ele>171.6</ele>
        <time>2024-04-28T08:01:04Z</time>
      </trkpt>
      <trkpt lat="50.07138" lon="3.99004">
        <ele>171.4</ele>
        <time>2024-04-28T08:01:05Z</time>
      </trkpt>
      <trkpt lat="50.07143" lon="3.98993">
        <ele>171.4</ele>
        <time>2024-04-28T08:01:06Z</time>
      </trkpt>
      <trkpt lat="50.07148" lon="3.98983">
        <ele>171.4</ele>
        <time>2024-04-28T08:01:07Z</time>
      </trkpt>
      <trkpt lat="50.07154" lon="3.98973">
        <ele>171.4</ele>
        <time>2024-04-28T08:01:08Z</time>
      </trkpt>
      <trkpt lat="50.07159" lon="3.98962">
        <ele>171.4</ele>
        <time>2024-04-28T08:01:09Z</time>
      </trkpt>
      <trkpt lat="50.07163" lon="3.98951">
        <ele>171.4</ele>
        <time>2024-04-28T08:01:10Z</time>
      </trkpt>
      <trkpt lat="50.07166" lon="3.9894">
        <ele>171.4</ele>
        <time>2024-04-28T08:01:11Z</time>
      </trkpt>
      <trkpt lat="50.07169" lon="3.9893">
        <ele>171.4</ele>
        <time>2024-04-28T08:01:12Z</time>
      </trkpt>
      <trkpt lat="50.07172" lon="3.98919">
        <ele>171.6</ele>
        <time>2024-04-28T08:01:13Z</time>
      </trkpt>
      <trkpt lat="50.07175" lon="3.98909">
        <ele>171.4</ele>
        <time>2024-04-28T08:01:14Z</time>
      </trkpt>
      <trkpt lat="50.07179" lon="3.98899">
        <ele>171.4</ele>
        <time>2024-04-28T08:01:15Z</time>
      </trkpt>
      <trkpt lat="50.07183" lon="3.9889">
        <ele>171.6</ele>
        <time>2024-04-28T08:01:16Z</time>
      </trkpt>
      <trkpt lat="50.07186" lon="3.98881">
        <ele>171.8</ele>
        <time>2024-04-28T08:01:17Z</time>
      </trkpt>
      <trkpt lat="50.07189" lon="3.98871">
        <ele>171.8</ele>
        <time>2024-04-28T08:01:18Z</time>
      </trkpt>
      <trkpt lat="50.0719" lon="3.98861">
        <ele>172.2</ele>
        <time>2024-04-28T08:01:19Z</time>
      </trkpt>
      <trkpt lat="50.0719" lon="3.98851">
        <ele>172.2</ele>
        <time>2024-04-28T08:01:20Z</time>
      </trkpt>
      <trkpt lat="50.07189" lon="3.98841">
        <ele>172.8</ele>
        <time>2024-04-28T08:01:21Z</time>
      </trkpt>
      <trkpt lat="50.07187" lon="3.9883">
        <ele>173.2</ele>
        <time>2024-04-28T08:01:22Z</time>
      </trkpt>
      <trkpt lat="50.07184" lon="3.98821">
        <ele>173.4</ele>
        <time>2024-04-28T08:01:23Z</time>
      </trkpt>
      <trkpt lat="50.07181" lon="3.9881">
        <ele>173.8</ele>
        <time>2024-04-28T08:01:24Z</time>
      </trkpt>
      <trkpt lat="50.07178" lon="3.988">
        <ele>173.8</ele>
        <time>2024-04-28T08:01:25Z</time>
      </trkpt>
      <trkpt lat="50.07176" lon="3.9879">
        <ele>174</ele>
        <time>2024-04-28T08:01:26Z</time>
      </trkpt>
      <trkpt lat="50.07174" lon="3.9878">
        <ele>174.6</ele>
        <time>2024-04-28T08:01:27Z</time>
      </trkpt>
      <trkpt lat="50.07171" lon="3.9877">
        <ele>175</ele>
        <time>2024-04-28T08:01:28Z</time>
      </trkpt>
      <trkpt lat="50.07169" lon="3.9876">
        <ele>175.4</ele>
        <time>2024-04-28T08:01:29Z</time>
      </trkpt>
      <trkpt lat="50.07167" lon="3.98751">
        <ele>175.6</ele>
        <time>2024-04-28T08:01:30Z</time>
      </trkpt>
      <trkpt lat="50.07166" lon="3.98742">
        <ele>175.8</ele>
        <time>2024-04-28T08:01:31Z</time>
      </trkpt>
      <trkpt lat="50.07164" lon="3.98734">
        <ele>176</ele>
        <time>2024-04-28T08:01:32Z</time>
      </trkpt>
      <trkpt lat="50.07163" lon="3.98727">
        <ele>176.2</ele>
        <time>2024-04-28T08:01:33Z</time>
      </trkpt>
      <trkpt lat="50.07162" lon="3.9872">
        <ele>176.4</ele>
        <time>2024-04-28T08:01:34Z</time>
      </trkpt>
      <trkpt lat="50.07161" lon="3.98714">
        <ele>176.4</ele>
        <time>2024-04-28T08:01:35Z</time>
      </trkpt>
      <trkpt lat="50.07159" lon="3.98708">
        <ele>176.6</ele>
        <time>2024-04-28T08:01:36Z</time>
      </trkpt>
      <trkpt lat="50.07158" lon="3.98701">
        <ele>176.6</ele>
        <time>2024-04-28T08:01:37Z</time>
      </trkpt>
      <trkpt lat="50.07156" lon="3.98694">
        <ele>176.8</ele>
        <time>2024-04-28T08:01:38Z</time>
      </trkpt>
      <trkpt lat="50.07155" lon="3.98688">
        <ele>177.4</ele>
        <time>2024-04-28T08:01:39Z</time>
      </trkpt>
      <trkpt lat="50.07153" lon="3.98681">
        <ele>177.6</ele>
        <time>2024-04-28T08:01:40Z</time>
      </trkpt>
      <trkpt lat="50.07151" lon="3.98675">
        <ele>178</ele>
        <time>2024-04-28T08:01:41Z</time>
      </trkpt>
      <trkpt lat="50.07149" lon="3.98668">
        <ele>178.6</ele>
        <time>2024-04-28T08:01:42Z</time>
      </trkpt>
      <trkpt lat="50.07146" lon="3.98662">
        <ele>179</ele>
        <time>2024-04-28T08:01:43Z</time>
      </trkpt>
      <trkpt lat="50.07144" lon="3.98655">
        <ele>179.2</ele>
        <time>2024-04-28T08:01:44Z</time>
      </trkpt>
      <trkpt lat="50.07142" lon="3.98649">
        <ele>179.4</ele>
        <time>2024-04-28T08:01:45Z</time>
      </trkpt>
      <trkpt lat="50.07139" lon="3.98643">
        <ele>179.8</ele>
        <time>2024-04-28T08:01:46Z</time>
      </trkpt>
      <trkpt lat="50.07136" lon="3.98637">
        <ele>179.8</ele>
        <time>2024-04-28T08:01:47Z</time>
      </trkpt>
      <trkpt lat="50.07133" lon="3.98631">
        <ele>180</ele>
        <time>2024-04-28T08:01:48Z</time>
      </trkpt>
      <trkpt lat="50.07129" lon="3.98624">
        <ele>180.6</ele>
        <time>2024-04-28T08:01:49Z</time>
      </trkpt>
      <trkpt lat="50.07126" lon="3.98618">
        <ele>181.2</ele>
        <time>2024-04-28T08:01:50Z</time>
      </trkpt>
      <trkpt lat="50.07122" lon="3.98612">
        <ele>181.4</ele>
        <time>2024-04-28T08:01:51Z</time>
      </trkpt>
      <trkpt lat="50.07119" lon="3.98607">
        <ele>181.6</ele>
        <time>2024-04-28T08:01:52Z</time>
      </trkpt>
      <trkpt lat="50.07115" lon="3.98601">
        <ele>182</ele>
        <time>2024-04-28T08:01:53Z</time>
      </trkpt>
      <trkpt lat="50.07111" lon="3.98595">
        <ele>182</ele>
        <time>2024-04-28T08:01:54Z</time>
      </trkpt>
      <trkpt lat="50.07108" lon="3.9859">
        <ele>182.6</ele>
        <time>2024-04-28T08:01:55Z</time>
      </trkpt>
      <trkpt lat="50.07104" lon="3.98584">
        <ele>183</ele>
        <time>2024-04-28T08:01:56Z</time>
      </trkpt>
      <trkpt lat="50.07101" lon="3.98579">
        <ele>183</ele>
        <time>2024-04-28T08:01:57Z</time>
      </trkpt>
      <trkpt lat="50.07098" lon="3.98574">
        <ele>183.4</ele>
        <time>2024-04-28T08:01:58Z</time>
      </trkpt>
      <trkpt lat="50.07094" lon="3.98568">
        <ele>183.4</ele>
        <time>2024-04-28T08:01:59Z</time>
      </trkpt>
      <trkpt lat="50.0709" lon="3.98563">
        <ele>183.6</ele>
        <time>2024-04-28T08:02:00Z</time>
      </trkpt>
      <trkpt lat="50.07086" lon="3.98557">
        <ele>184.2</ele>
        <time>2024-04-28T08:02:01Z</time>
      </trkpt>
      <trkpt lat="50.07083" lon="3.98551">
        <ele>184.6</ele>
        <time>2024-04-28T08:02:02Z</time>
      </trkpt>
      <trkpt lat="50.0708" lon="3.98546">
        <ele>184.8</ele>
        <time>2024-04-28T08:02:03Z</time>
      </trkpt>
      <trkpt lat="50.07076" lon="3.9854">
        <ele>184.8</ele>
        <time>2024-04-28T08:02:04Z</time>
      </trkpt>
      <trkpt lat="50.07074" lon="3.98535">
        <ele>185</ele>
        <time>2024-04-28T08:02:05Z</time>
      </trkpt>
      <trkpt lat="50.07071" lon="3.98529">
        <ele>185.2</ele>
        <time>2024-04-28T08:02:06Z</time>
      </trkpt>
      <trkpt lat="50.07068" lon="3.98523">
        <ele>185.2</ele>
        <time>2024-04-28T08:02:07Z</time>
      </trkpt>
      <trkpt lat="50.07066" lon="3.98517">
        <ele>185.2</ele>
        <time>2024-04-28T08:02:08Z</time>
      </trkpt>
      <trkpt lat="50.07064" lon="3.9851">
        <ele>185.4</ele>
        <time>2024-04-28T08:02:09Z</time>
      </trkpt>
      <trkpt lat="50.07062" lon="3.98503">
        <ele>185.4</ele>
        <time>2024-04-28T08:02:10Z</time>
      </trkpt>
      <trkpt lat="50.0706" lon="3.98496">
        <ele>185.4</ele>
        <time>2024-04-28T08:02:11Z</time>
      </trkpt>
      <trkpt lat="50.07059" lon="3.98488">
        <ele>185.6</ele>
        <time>2024-04-28T08:02:12Z</time>
      </trkpt>
      <trkpt lat="50.07058" lon="3.9848">
        <ele>186.4</ele>
        <time>2024-04-28T08:02:13Z</time>
      </trkpt>
      <trkpt lat="50.07057" lon="3.98472">
        <ele>187</ele>
        <time>2024-04-28T08:02:14Z</time>
      </trkpt>
      <trkpt lat="50.07057" lon="3.98465">
        <ele>187.4</ele>
        <time>2024-04-28T08:02:15Z</time>
      </trkpt>
      <trkpt lat="50.07057" lon="3.98457">
        <ele>187.6</ele>
        <time>2024-04-28T08:02:16Z</time>
      </trkpt>
      <trkpt lat="50.07058" lon="3.9845">
        <ele>187.8</ele>
        <time>2024-04-28T08:02:17Z</time>
      </trkpt>
      <trkpt lat="50.07059" lon="3.98443">
        <ele>188</ele>
        <time>2024-04-28T08:02:18Z</time>
      </trkpt>
      <trkpt lat="50.0706" lon="3.98436">
        <ele>188</ele>
        <time>2024-04-28T08:02:19Z</time>
      </trkpt>
      <trkpt lat="50.07062" lon="3.98429">
        <ele>188.2</ele>
        <time>2024-04-28T08:02:20Z</time>
      </trkpt>
      <trkpt lat="50.07065" lon="3.98423">
        <ele>188.4</ele>
        <time>2024-04-28T08:02:21Z</time>
      </trkpt>
      <trkpt lat="50.07068" lon="3.98417">
        <ele>188.6</ele>
        <time>2024-04-28T08:02:22Z</time>
      </trkpt>
      <trkpt lat="50.07071" lon="3.98412">
        <ele>188.6</ele>
        <time>2024-04-28T08:02:23Z</time>
      </trkpt>
      <trkpt lat="50.07074" lon="3.98407">
        <ele>188.6</ele>
        <time>2024-04-28T08:02:24Z</time>
      </trkpt>
      <trkpt lat="50.07077" lon="3.98402">
        <ele>188.6</ele>
        <time>2024-04-28T08:02:25Z</time>
      </trkpt>
      <trkpt lat="50.07081" lon="3.98397">
        <ele>189</ele>
        <time>2024-04-28T08:02:26Z</time>
      </trkpt>
      <trkpt lat="50.07084" lon="3.98393">
        <ele>189</ele>
        <time>2024-04-28T08:02:27Z</time>
      </trkpt>
      <trkpt lat="50.07088" lon="3.98389">
        <ele>189</ele>
        <time>2024-04-28T08:02:28Z</time>
      </trkpt>
      <trkpt lat="50.07092" lon="3.98385">
        <ele>189.2</ele>
        <time>2024-04-28T08:02:29Z</time>
      </trkpt>
      <trkpt lat="50.07095" lon="3.98382">
        <ele>189.6</ele>
        <time>2024-04-28T08:02:30Z</time>
      </trkpt>
      <trkpt lat="50.07098" lon="3.98378">
        <ele>189.8</ele>
        <time>2024-04-28T08:02:31Z</time>
      </trkpt>
      <trkpt lat="50.07102" lon="3.98374">
        <ele>190</ele>
        <time>2024-04-28T08:02:32Z</time>
      </trkpt>
      <trkpt lat="50.07105" lon="3.9837">
        <ele>190.4</ele>
        <time>2024-04-28T08:02:33Z</time>
      </trkpt>
      <trkpt lat="50.07108" lon="3.98365">
        <ele>190.8</ele>
        <time>2024-04-28T08:02:34Z</time>
      </trkpt>
      <trkpt lat="50.0711" lon="3.98361">
        <ele>191</ele>
        <time>2024-04-28T08:02:35Z</time>
      </trkpt>
      <trkpt lat="50.07113" lon="3.98355">
        <ele>191</ele>
        <time>2024-04-28T08:02:36Z</time>
      </trkpt>
      <trkpt lat="50.07115" lon="3.9835">
        <ele>191.8</ele>
        <time>2024-04-28T08:02:37Z</time>
      </trkpt>
      <trkpt lat="50.07116" lon="3.98344">
        <ele>192.6</ele>
        <time>2024-04-28T08:02:38Z</time>
      </trkpt>
      <trkpt lat="50.07118" lon="3.98337">
        <ele>193</ele>
        <time>2024-04-28T08:02:39Z</time>
      </trkpt>
      <trkpt lat="50.07118" lon="3.98331">
        <ele>193.4</ele>
        <time>2024-04-28T08:02:40Z</time>
      </trkpt>
      <trkpt lat="50.07119" lon="3.98324">
        <ele>193.6</ele>
        <time>2024-04-28T08:02:41Z</time>
      </trkpt>
      <trkpt lat="50.07119" lon="3.98317">
        <ele>194</ele>
        <time>2024-04-28T08:02:42Z</time>
      </trkpt>
      <trkpt lat="50.07119" lon="3.98311">
        <ele>194.2</ele>
        <time>2024-04-28T08:02:43Z</time>
      </trkpt>
      <trkpt lat="50.07118" lon="3.98304">
        <ele>194.4</ele>
        <time>2024-04-28T08:02:44Z</time>
      </trkpt>
      <trkpt lat="50.07118" lon="3.98297">
        <ele>194.4</ele>
        <time>2024-04-28T08:02:45Z</time>
      </trkpt>
      <trkpt lat="50.07117" lon="3.9829">
        <ele>194.8</ele>
        <time>2024-04-28T08:02:46Z</time>
      </trkpt>
      <trkpt lat="50.07116" lon="3.98282">
        <ele>194.8</ele>
        <time>2024-04-28T08:02:47Z</time>
      </trkpt>
      <trkpt lat="50.07115" lon="3.98275">
        <ele>194.8</ele>
        <time>2024-04-28T08:02:48Z</time>
      </trkpt>
      <trkpt lat="50.07115" lon="3.98267">
        <ele>195</ele>
        <time>2024-04-28T08:02:49Z</time>
      </trkpt>
      <trkpt lat="50.07114" lon="3.98259">
        <ele>195</ele>
        <time>2024-04-28T08:02:50Z</time>
      </trkpt>
      <trkpt lat="50.07113" lon="3.98251">
        <ele>195.2</ele>
        <time>2024-04-28T08:02:51Z</time>
      </trkpt>
      <trkpt lat="50.07112" lon="3.98243">
        <ele>195.2</ele>
        <time>2024-04-28T08:02:52Z</time>
      </trkpt>
      <trkpt lat="50.07111" lon="3.98235">
        <ele>195.4</ele>
        <time>2024-04-28T08:02:53Z</time>
      </trkpt>
      <trkpt lat="50.0711" lon="3.98228">
        <ele>195.6</ele>
        <time>2024-04-28T08:02:54Z</time>
      </trkpt>
      <trkpt lat="50.0711" lon="3.9822">
        <ele>195.4</ele>
        <time>2024-04-28T08:02:55Z</time>
      </trkpt>
      <trkpt lat="50.07109" lon="3.98212">
        <ele>195.6</ele>
        <time>2024-04-28T08:02:56Z</time>
      </trkpt>
      <trkpt lat="50.07109" lon="3.98205">
        <ele>195.8</ele>
        <time>2024-04-28T08:02:57Z</time>
      </trkpt>
      <trkpt lat="50.07108" lon="3.98197">
        <ele>195.8</ele>
        <time>2024-04-28T08:02:58Z</time>
      </trkpt>
      <trkpt lat="50.07108" lon="3.98189">
        <ele>195.8</ele>
        <time>2024-04-28T08:02:59Z</time>
      </trkpt>
      <trkpt lat="50.07107" lon="3.98181">
        <ele>195.8</ele>
        <time>2024-04-28T08:03:00Z</time>
      </trkpt>
      <trkpt lat="50.07108" lon="3.98172">
        <ele>195.8</ele>
        <time>2024-04-28T08:03:01Z</time>
      </trkpt>
      <trkpt lat="50.07108" lon="3.98162">
        <ele>195.8</ele>
        <time>2024-04-28T08:03:02Z</time>
      </trkpt>
      <trkpt lat="50.07109" lon="3.98152">
        <ele>195.8</ele>
        <time>2024-04-28T08:03:03Z</time>
      </trkpt>
      <trkpt lat="50.07109" lon="3.98142">
        <ele>195.6</ele>
        <time>2024-04-28T08:03:04Z</time>
      </trkpt>
      <trkpt lat="50.07111" lon="3.98132">
        <ele>195.6</ele>
        <time>2024-04-28T08:03:05Z</time>
      </trkpt>
      <trkpt lat="50.07112" lon="3.98121">
        <ele>195.6</ele>
        <time>2024-04-28T08:03:06Z</time>
      </trkpt>
      <trkpt lat="50.07114" lon="3.98109">
        <ele>195.8</ele>
        <time>2024-04-28T08:03:07Z</time>
      </trkpt>
      <trkpt lat="50.07117" lon="3.98098">
        <ele>195.8</ele>
        <time>2024-04-28T08:03:08Z</time>
      </trkpt>
      <trkpt lat="50.07121" lon="3.98087">
        <ele>195.6</ele>
        <time>2024-04-28T08:03:09Z</time>
      </trkpt>
      <trkpt lat="50.07126" lon="3.98077">
        <ele>195.6</ele>
        <time>2024-04-28T08:03:10Z</time>
      </trkpt>
      <trkpt lat="50.07132" lon="3.98066">
        <ele>195.6</ele>
        <time>2024-04-28T08:03:11Z</time>
      </trkpt>
      <trkpt lat="50.07137" lon="3.98056">
        <ele>195.2</ele>
        <time>2024-04-28T08:03:12Z</time>
      </trkpt>
      <trkpt lat="50.07144" lon="3.98046">
        <ele>195.2</ele>
        <time>2024-04-28T08:03:13Z</time>
      </trkpt>
      <trkpt lat="50.0715" lon="3.98036">
        <ele>195</ele>
        <time>2024-04-28T08:03:14Z</time>
      </trkpt>
      <trkpt lat="50.07156" lon="3.98026">
        <ele>194.8</ele>
        <time>2024-04-28T08:03:15Z</time>
      </trkpt>
      <trkpt lat="50.07162" lon="3.98016">
        <ele>195</ele>
        <time>2024-04-28T08:03:16Z</time>
      </trkpt>
      <trkpt lat="50.07168" lon="3.98005">
        <ele>194.2</ele>
        <time>2024-04-28T08:03:17Z</time>
      </trkpt>
      <trkpt lat="50.07174" lon="3.97995">
        <ele>193.6</ele>
        <time>2024-04-28T08:03:18Z</time>
      </trkpt>
      <trkpt lat="50.0718" lon="3.97985">
        <ele>193.2</ele>
        <time>2024-04-28T08:03:19Z</time>
      </trkpt>
      <trkpt lat="50.07186" lon="3.97974">
        <ele>193.2</ele>
        <time>2024-04-28T08:03:20Z</time>
      </trkpt>
      <trkpt lat="50.07191" lon="3.97964">
        <ele>193</ele>
        <time>2024-04-28T08:03:21Z</time>
      </trkpt>
      <trkpt lat="50.07197" lon="3.97954">
        <ele>192.6</ele>
        <time>2024-04-28T08:03:22Z</time>
      </trkpt>
      <trkpt lat="50.07203" lon="3.97944">
        <ele>192.4</ele>
        <time>2024-04-28T08:03:23Z</time>
      </trkpt>
      <trkpt lat="50.07208" lon="3.97934">
        <ele>192</ele>
        <time>2024-04-28T08:03:24Z</time>
      </trkpt>
      <trkpt lat="50.07214" lon="3.97924">
        <ele>191.8</ele>
        <time>2024-04-28T08:03:25Z</time>
      </trkpt>
      <trkpt lat="50.0722" lon="3.97915">
        <ele>191.2</ele>
        <time>2024-04-28T08:03:26Z</time>
      </trkpt>
      <trkpt lat="50.07228" lon="3.97908">
        <ele>190.8</ele>
        <time>2024-04-28T08:03:27Z</time>
      </trkpt>
      <trkpt lat="50.07236" lon="3.97904">
        <ele>190.6</ele>
        <time>2024-04-28T08:03:28Z</time>
      </trkpt>
      <trkpt lat="50.07244" lon="3.97901">
        <ele>190.6</ele>
        <time>2024-04-28T08:03:29Z</time>
      </trkpt>
      <trkpt lat="50.07253" lon="3.979">
        <ele>190.2</ele>
        <time>2024-04-28T08:03:30Z</time>
      </trkpt>
      <trkpt lat="50.07262" lon="3.97899">
        <ele>190.2</ele>
        <time>2024-04-28T08:03:31Z</time>
      </trkpt>
      <trkpt lat="50.0727" lon="3.97898">
        <ele>190</ele>
        <time>2024-04-28T08:03:32Z</time>
      </trkpt>
      <trkpt lat="50.07279" lon="3.97896">
        <ele>190</ele>
        <time>2024-04-28T08:03:33Z</time>
      </trkpt>
      <trkpt lat="50.07288" lon="3.97895">
        <ele>190</ele>
        <time>2024-04-28T08:03:34Z</time>
      </trkpt>
      <trkpt lat="50.07296" lon="3.97894">
        <ele>190</ele>
        <time>2024-04-28T08:03:35Z</time>
      </trkpt>
      <trkpt lat="50.07304" lon="3.97893">
        <ele>190</ele>
        <time>2024-04-28T08:03:36Z</time>
      </trkpt>
      <trkpt lat="50.07313" lon="3.97891">
        <ele>190</ele>
        <time>2024-04-28T08:03:37Z</time>
      </trkpt>
      <trkpt lat="50.07321" lon="3.97889">
        <ele>190</ele>
        <time>2024-04-28T08:03:38Z</time>
      </trkpt>
      <trkpt lat="50.07329" lon="3.97887">
        <ele>190</ele>
        <time>2024-04-28T08:03:39Z</time>
      </trkpt>
      <trkpt lat="50.07337" lon="3.97884">
        <ele>190</ele>
        <time>2024-04-28T08:03:40Z</time>
      </trkpt>
      <trkpt lat="50.07344" lon="3.97881">
        <ele>190</ele>
        <time>2024-04-28T08:03:41Z</time>
      </trkpt>
      <trkpt lat="50.07352" lon="3.97877">
        <ele>190</ele>
        <time>2024-04-28T08:03:42Z</time>
      </trkpt>
      <trkpt lat="50.0736" lon="3.97872">
        <ele>190.6</ele>
        <time>2024-04-28T08:03:43Z</time>
      </trkpt>
      <trkpt lat="50.07368" lon="3.97866">
        <ele>190.6</ele>
        <time>2024-04-28T08:03:44Z</time>
      </trkpt>
      <trkpt lat="50.07376" lon="3.9786">
        <ele>190.6</ele>
        <time>2024-04-28T08:03:45Z</time>
      </trkpt>
      <trkpt lat="50.07384" lon="3.97852">
        <ele>190.6</ele>
        <time>2024-04-28T08:03:46Z</time>
      </trkpt>
      <trkpt lat="50.07392" lon="3.97844">
        <ele>190.8</ele>
        <time>2024-04-28T08:03:47Z</time>
      </trkpt>
      <trkpt lat="50.074" lon="3.97836">
        <ele>190.8</ele>
        <time>2024-04-28T08:03:48Z</time>
      </trkpt>
      <trkpt lat="50.07408" lon="3.97826">
        <ele>190.8</ele>
        <time>2024-04-28T08:03:49Z</time>
      </trkpt>
      <trkpt lat="50.07416" lon="3.97817">
        <ele>190.8</ele>
        <time>2024-04-28T08:03:50Z</time>
      </trkpt>
      <trkpt lat="50.07424" lon="3.97807">
        <ele>190.8</ele>
        <time>2024-04-28T08:03:51Z</time>
      </trkpt>
      <trkpt lat="50.07432" lon="3.97797">
        <ele>190.8</ele>
        <time>2024-04-28T08:03:52Z</time>
      </trkpt>
      <trkpt lat="50.0744" lon="3.97787">
        <ele>190.8</ele>
        <time>2024-04-28T08:03:53Z</time>
      </trkpt>
      <trkpt lat="50.07449" lon="3.97778">
        <ele>190.8</ele>
        <time>2024-04-28T08:03:54Z</time>
      </trkpt>
      <trkpt lat="50.07458" lon="3.97771">
        <ele>190.2</ele>
        <time>2024-04-28T08:03:55Z</time>
      </trkpt>
      <trkpt lat="50.07467" lon="3.97764">
        <ele>189.8</ele>
        <time>2024-04-28T08:03:56Z</time>
      </trkpt>
      <trkpt lat="50.07477" lon="3.97759">
        <ele>189</ele>
        <time>2024-04-28T08:03:57Z</time>
      </trkpt>
      <trkpt lat="50.07486" lon="3.97754">
        <ele>188.6</ele>
        <time>2024-04-28T08:03:58Z</time>
      </trkpt>
      <trkpt lat="50.07495" lon="3.9775">
        <ele>188</ele>
        <time>2024-04-28T08:03:59Z</time>
      </trkpt>
      <trkpt lat="50.07504" lon="3.97745">
        <ele>187.4</ele>
        <time>2024-04-28T08:04:00Z</time>
      </trkpt>
      <trkpt lat="50.07513" lon="3.97741">
        <ele>187</ele>
        <time>2024-04-28T08:04:01Z</time>
      </trkpt>
      <trkpt lat="50.07522" lon="3.97737">
        <ele>186.4</ele>
        <time>2024-04-28T08:04:02Z</time>
      </trkpt>
      <trkpt lat="50.07531" lon="3.97734">
        <ele>186.4</ele>
        <time>2024-04-28T08:04:03Z</time>
      </trkpt>
      <trkpt lat="50.0754" lon="3.97731">
        <ele>186.4</ele>
        <time>2024-04-28T08:04:04Z</time>
      </trkpt>
      <trkpt lat="50.07548" lon="3.97729">
        <ele>186.2</ele>
        <time>2024-04-28T08:04:05Z</time>
      </trkpt>
      <trkpt lat="50.07557" lon="3.97727">
        <ele>186</ele>
        <time>2024-04-28T08:04:06Z</time>
      </trkpt>
      <trkpt lat="50.07565" lon="3.97726">
        <ele>186</ele>
        <time>2024-04-28T08:04:07Z</time>
      </trkpt>
      <trkpt lat="50.07574" lon="3.97726">
        <ele>186</ele>
        <time>2024-04-28T08:04:08Z</time>
      </trkpt>
      <trkpt lat="50.07584" lon="3.97726">
        <ele>186</ele>
        <time>2024-04-28T08:04:09Z</time>
      </trkpt>
      <trkpt lat="50.07593" lon="3.97726">
        <ele>185.8</ele>
        <time>2024-04-28T08:04:10Z</time>
      </trkpt>
      <trkpt lat="50.07602" lon="3.97726">
        <ele>185.8</ele>
        <time>2024-04-28T08:04:11Z</time>
      </trkpt>
      <trkpt lat="50.07611" lon="3.97727">
        <ele>186</ele>
        <time>2024-04-28T08:04:12Z</time>
      </trkpt>
      <trkpt lat="50.07621" lon="3.97728">
        <ele>185.8</ele>
        <time>2024-04-28T08:04:13Z</time>
      </trkpt>
      <trkpt lat="50.0763" lon="3.9773">
        <ele>185.6</ele>
        <time>2024-04-28T08:04:14Z</time>
      </trkpt>
      <trkpt lat="50.07639" lon="3.97733">
        <ele>185.6</ele>
        <time>2024-04-28T08:04:15Z</time>
      </trkpt>
      <trkpt lat="50.07648" lon="3.97738">
        <ele>185.4</ele>
        <time>2024-04-28T08:04:16Z</time>
      </trkpt>
      <trkpt lat="50.07657" lon="3.97744">
        <ele>185.2</ele>
        <time>2024-04-28T08:04:17Z</time>
      </trkpt>
      <trkpt lat="50.07666" lon="3.9775">
        <ele>185.2</ele>
        <time>2024-04-28T08:04:18Z</time>
      </trkpt>
      <trkpt lat="50.07675" lon="3.97757">
        <ele>184.8</ele>
        <time>2024-04-28T08:04:19Z</time>
      </trkpt>
      <trkpt lat="50.07684" lon="3.97763">
        <ele>184.8</ele>
        <time>2024-04-28T08:04:20Z</time>
      </trkpt>
      <trkpt lat="50.07693" lon="3.9777">
        <ele>184.6</ele>
        <time>2024-04-28T08:04:21Z</time>
      </trkpt>
      <trkpt lat="50.07703" lon="3.97775">
        <ele>184.4</ele>
        <time>2024-04-28T08:04:22Z</time>
      </trkpt>
      <trkpt lat="50.07713" lon="3.97779">
        <ele>184.2</ele>
        <time>2024-04-28T08:04:23Z</time>
      </trkpt>
      <trkpt lat="50.07723" lon="3.97779">
        <ele>183.6</ele>
        <time>2024-04-28T08:04:24Z</time>
      </trkpt>
      <trkpt lat="50.07734" lon="3.97777">
        <ele>183.6</ele>
        <time>2024-04-28T08:04:25Z</time>
      </trkpt>
      <trkpt lat="50.07744" lon="3.97772">
        <ele>183.4</ele>
        <time>2024-04-28T08:04:26Z</time>
      </trkpt>
      <trkpt lat="50.07754" lon="3.97767">
        <ele>183.4</ele>
        <time>2024-04-28T08:04:27Z</time>
      </trkpt>
      <trkpt lat="50.07764" lon="3.9776">
        <ele>182.8</ele>
        <time>2024-04-28T08:04:28Z</time>
      </trkpt>
      <trkpt lat="50.07774" lon="3.97754">
        <ele>182.4</ele>
        <time>2024-04-28T08:04:29Z</time>
      </trkpt>
      <trkpt lat="50.07784" lon="3.97748">
        <ele>182</ele>
        <time>2024-04-28T08:04:30Z</time>
      </trkpt>
      <trkpt lat="50.07794" lon="3.97742">
        <ele>181.6</ele>
        <time>2024-04-28T08:04:31Z</time>
      </trkpt>
      <trkpt lat="50.07804" lon="3.97736">
        <ele>181</ele>
        <time>2024-04-28T08:04:32Z</time>
      </trkpt>
      <trkpt lat="50.07815" lon="3.97731">
        <ele>180.4</ele>
        <time>2024-04-28T08:04:33Z</time>
      </trkpt>
      <trkpt lat="50.07825" lon="3.97728">
        <ele>179.6</ele>
        <time>2024-04-28T08:04:34Z</time>
      </trkpt>
      <trkpt lat="50.07835" lon="3.97725">
        <ele>179.2</ele>
        <time>2024-04-28T08:04:35Z</time>
      </trkpt>
      <trkpt lat="50.07845" lon="3.97724">
        <ele>179.2</ele>
        <time>2024-04-28T08:04:36Z</time>
      </trkpt>
      <trkpt lat="50.07854" lon="3.97724">
        <ele>179.2</ele>
        <time>2024-04-28T08:04:37Z</time>
      </trkpt>
      <trkpt lat="50.07863" lon="3.97724">
        <ele>179</ele>
        <time>2024-04-28T08:04:38Z</time>
      </trkpt>
      <trkpt lat="50.07871" lon="3.97724">
        <ele>179</ele>
        <time>2024-04-28T08:04:39Z</time>
      </trkpt>
      <trkpt lat="50.0788" lon="3.97723">
        <ele>179</ele>
        <time>2024-04-28T08:04:40Z</time>
      </trkpt>
      <trkpt lat="50.07888" lon="3.97723">
        <ele>179</ele>
        <time>2024-04-28T08:04:41Z</time>
      </trkpt>
      <trkpt lat="50.07897" lon="3.97723">
        <ele>179</ele>
        <time>2024-04-28T08:04:42Z</time>
      </trkpt>
      <trkpt lat="50.07905" lon="3.97722">
        <ele>179</ele>
        <time>2024-04-28T08:04:43Z</time>
      </trkpt>
      <trkpt lat="50.07913" lon="3.97722">
        <ele>179</ele>
        <time>2024-04-28T08:04:44Z</time>
      </trkpt>
      <trkpt lat="50.07921" lon="3.97721">
        <ele>179.2</ele>
        <time>2024-04-28T08:04:45Z</time>
      </trkpt>
      <trkpt lat="50.07929" lon="3.97719">
        <ele>179.8</ele>
        <time>2024-04-28T08:04:46Z</time>
      </trkpt>
      <trkpt lat="50.07936" lon="3.97717">
        <ele>180.2</ele>
        <time>2024-04-28T08:04:47Z</time>
      </trkpt>
      <trkpt lat="50.07943" lon="3.97716">
        <ele>180.8</ele>
        <time>2024-04-28T08:04:48Z</time>
      </trkpt>
      <trkpt lat="50.07951" lon="3.97714">
        <ele>181.4</ele>
        <time>2024-04-28T08:04:49Z</time>
      </trkpt>
      <trkpt lat="50.07958" lon="3.97713">
        <ele>182</ele>
        <time>2024-04-28T08:04:50Z</time>
      </trkpt>
      <trkpt lat="50.07964" lon="3.97711">
        <ele>182.2</ele>
        <time>2024-04-28T08:04:51Z</time>
      </trkpt>
      <trkpt lat="50.07971" lon="3.9771">
        <ele>182.4</ele>
        <time>2024-04-28T08:04:52Z</time>
      </trkpt>
      <trkpt lat="50.07978" lon="3.97709">
        <ele>183</ele>
        <time>2024-04-28T08:04:53Z</time>
      </trkpt>
      <trkpt lat="50.07984" lon="3.97707">
        <ele>183.4</ele>
        <time>2024-04-28T08:04:54Z</time>
      </trkpt>
      <trkpt lat="50.07991" lon="3.97706">
        <ele>183.6</ele>
        <time>2024-04-28T08:04:55Z</time>
      </trkpt>
      <trkpt lat="50.07998" lon="3.97705">
        <ele>183.8</ele>
        <time>2024-04-28T08:04:56Z</time>
      </trkpt>
      <trkpt lat="50.08004" lon="3.97704">
        <ele>183.8</ele>
        <time>2024-04-28T08:04:57Z</time>
      </trkpt>
      <trkpt lat="50.08011" lon="3.97702">
        <ele>184.2</ele>
        <time>2024-04-28T08:04:58Z</time>
      </trkpt>
      <trkpt lat="50.08017" lon="3.97701">
        <ele>184.2</ele>
        <time>2024-04-28T08:04:59Z</time>
      </trkpt>
      <trkpt lat="50.08023" lon="3.97699">
        <ele>184.4</ele>
        <time>2024-04-28T08:05:00Z</time>
      </trkpt>
      <trkpt lat="50.0803" lon="3.97697">
        <ele>184.4</ele>
        <time>2024-04-28T08:05:01Z</time>
      </trkpt>
      <trkpt lat="50.08036" lon="3.97696">
        <ele>184.8</ele>
        <time>2024-04-28T08:05:02Z</time>
      </trkpt>
      <trkpt lat="50.08043" lon="3.97694">
        <ele>185.2</ele>
        <time>2024-04-28T08:05:03Z</time>
      </trkpt>
      <trkpt lat="50.08049" lon="3.97692">
        <ele>185.8</ele>
        <time>2024-04-28T08:05:04Z</time>
      </trkpt>
      <trkpt lat="50.08056" lon="3.9769">
        <ele>186.2</ele>
        <time>2024-04-28T08:05:05Z</time>
      </trkpt>
      <trkpt lat="50.08063" lon="3.97689">
        <ele>186.4</ele>
        <time>2024-04-28T08:05:06Z</time>
      </trkpt>
      <trkpt lat="50.08069" lon="3.97687">
        <ele>186.6</ele>
        <time>2024-04-28T08:05:07Z</time>
      </trkpt>
      <trkpt lat="50.08076" lon="3.97686">
        <ele>187</ele>
        <time>2024-04-28T08:05:08Z</time>
      </trkpt>
      <trkpt lat="50.08083" lon="3.97685">
        <ele>187</ele>
        <time>2024-04-28T08:05:09Z</time>
      </trkpt>
      <trkpt lat="50.08089" lon="3.97684">
        <ele>187.2</ele>
        <time>2024-04-28T08:05:10Z</time>
      </trkpt>
      <trkpt lat="50.08095" lon="3.97683">
        <ele>187.6</ele>
        <time>2024-04-28T08:05:11Z</time>
      </trkpt>
      <trkpt lat="50.08102" lon="3.97682">
        <ele>187.6</ele>
        <time>2024-04-28T08:05:12Z</time>
      </trkpt>
      <trkpt lat="50.08108" lon="3.97682">
        <ele>188.2</ele>
        <time>2024-04-28T08:05:13Z</time>
      </trkpt>
      <trkpt lat="50.08114" lon="3.97681">
        <ele>188.4</ele>
        <time>2024-04-28T08:05:14Z</time>
      </trkpt>
      <trkpt lat="50.0812" lon="3.9768">
        <ele>189</ele>
        <time>2024-04-28T08:05:15Z</time>
      </trkpt>
      <trkpt lat="50.08125" lon="3.97679">
        <ele>189.6</ele>
        <time>2024-04-28T08:05:16Z</time>
      </trkpt>
      <trkpt lat="50.08131" lon="3.97677">
        <ele>189.6</ele>
        <time>2024-04-28T08:05:17Z</time>
      </trkpt>
      <trkpt lat="50.08137" lon="3.97676">
        <ele>190</ele>
        <time>2024-04-28T08:05:18Z</time>
      </trkpt>
      <trkpt lat="50.08143" lon="3.97675">
        <ele>190.2</ele>
        <time>2024-04-28T08:05:19Z</time>
      </trkpt>
      <trkpt lat="50.08148" lon="3.97673">
        <ele>191</ele>
        <time>2024-04-28T08:05:20Z</time>
      </trkpt>
      <trkpt lat="50.08154" lon="3.97671">
        <ele>191.4</ele>
        <time>2024-04-28T08:05:21Z</time>
      </trkpt>
      <trkpt lat="50.0816" lon="3.9767">
        <ele>191.6</ele>
        <time>2024-04-28T08:05:22Z</time>
      </trkpt>
      <trkpt lat="50.08165" lon="3.97668">
        <ele>191.8</ele>
        <time>2024-04-28T08:05:23Z</time>
      </trkpt>
      <trkpt lat="50.08171" lon="3.97666">
        <ele>192</ele>
        <time>2024-04-28T08:05:24Z</time>
      </trkpt>
      <trkpt lat="50.08176" lon="3.97664">
        <ele>192.4</ele>
        <time>2024-04-28T08:05:25Z</time>
      </trkpt>
      <trkpt lat="50.08182" lon="3.97662">
        <ele>192.6</ele>
        <time>2024-04-28T08:05:26Z</time>
      </trkpt>
      <trkpt lat="50.08187" lon="3.9766">
        <ele>192.8</ele>
        <time>2024-04-28T08:05:27Z</time>
      </trkpt>
      <trkpt lat="50.08192" lon="3.97658">
        <ele>193</ele>
        <time>2024-04-28T08:05:28Z</time>
      </trkpt>
      <trkpt lat="50.08198" lon="3.97657">
        <ele>193.2</ele>
        <time>2024-04-28T08:05:29Z</time>
      </trkpt>
      <trkpt lat="50.08203" lon="3.97655">
        <ele>193.4</ele>
        <time>2024-04-28T08:05:30Z</time>
      </trkpt>
      <trkpt lat="50.08209" lon="3.97653">
        <ele>193.4</ele>
        <time>2024-04-28T08:05:31Z</time>
      </trkpt>
      <trkpt lat="50.08214" lon="3.97651">
        <ele>193.6</ele>
        <time>2024-04-28T08:05:32Z</time>
      </trkpt>
      <trkpt lat="50.0822" lon="3.97649">
        <ele>194</ele>
        <time>2024-04-28T08:05:33Z</time>
      </trkpt>
      <trkpt lat="50.08225" lon="3.97647">
        <ele>194</ele>
        <time>2024-04-28T08:05:34Z</time>
      </trkpt>
      <trkpt lat="50.08231" lon="3.97646">
        <ele>194.2</ele>
        <time>2024-04-28T08:05:35Z</time>
      </trkpt>
      <trkpt lat="50.08236" lon="3.97644">
        <ele>194.4</ele>
        <time>2024-04-28T08:05:36Z</time>
      </trkpt>
      <trkpt lat="50.08242" lon="3.97643">
        <ele>194.6</ele>
        <time>2024-04-28T08:05:37Z</time>
      </trkpt>
      <trkpt lat="50.08247" lon="3.97641">
        <ele>194.8</ele>
        <time>2024-04-28T08:05:38Z</time>
      </trkpt>
      <trkpt lat="50.08253" lon="3.9764">
        <ele>195.2</ele>
        <time>2024-04-28T08:05:39Z</time>
      </trkpt>
      <trkpt lat="50.08259" lon="3.97639">
        <ele>195.4</ele>
        <time>2024-04-28T08:05:40Z</time>
      </trkpt>
      <trkpt lat="50.08264" lon="3.97637">
        <ele>195.6</ele>
        <time>2024-04-28T08:05:41Z</time>
      </trkpt>
      <trkpt lat="50.0827" lon="3.97637">
        <ele>195.8</ele>
        <time>2024-04-28T08:05:42Z</time>
      </trkpt>
      <trkpt lat="50.08275" lon="3.97636">
        <ele>196</ele>
        <time>2024-04-28T08:05:43Z</time>
      </trkpt>
      <trkpt lat="50.08281" lon="3.97635">
        <ele>196</ele>
        <time>2024-04-28T08:05:44Z</time>
      </trkpt>
      <trkpt lat="50.08287" lon="3.97634">
        <ele>196.4</ele>
        <time>2024-04-28T08:05:45Z</time>
      </trkpt>
      <trkpt lat="50.08292" lon="3.97633">
        <ele>196.4</ele>
        <time>2024-04-28T08:05:46Z</time>
      </trkpt>
      <trkpt lat="50.08298" lon="3.97633">
        <ele>196.6</ele>
        <time>2024-04-28T08:05:47Z</time>
      </trkpt>
      <trkpt lat="50.08304" lon="3.97632">
        <ele>196.8</ele>
        <time>2024-04-28T08:05:48Z</time>
      </trkpt>
      <trkpt lat="50.0831" lon="3.97631">
        <ele>197</ele>
        <time>2024-04-28T08:05:49Z</time>
      </trkpt>
      <trkpt lat="50.08316" lon="3.97631">
        <ele>197</ele>
        <time>2024-04-28T08:05:50Z</time>
      </trkpt>
      <trkpt lat="50.08322" lon="3.9763">
        <ele>197.2</ele>
        <time>2024-04-28T08:05:51Z</time>
      </trkpt>
      <trkpt lat="50.08328" lon="3.97629">
        <ele>197.2</ele>
        <time>2024-04-28T08:05:52Z</time>
      </trkpt>
      <trkpt lat="50.08335" lon="3.97628">
        <ele>197.6</ele>
        <time>2024-04-28T08:05:53Z</time>
      </trkpt>
      <trkpt lat="50.08341" lon="3.97627">
        <ele>197.8</ele>
        <time>2024-04-28T08:05:54Z</time>
      </trkpt>
      <trkpt lat="50.08347" lon="3.97626">
        <ele>197.8</ele>
        <time>2024-04-28T08:05:55Z</time>
      </trkpt>
      <trkpt lat="50.08354" lon="3.97625">
        <ele>198.2</ele>
        <time>2024-04-28T08:05:56Z</time>
      </trkpt>
      <trkpt lat="50.0836" lon="3.97624">
        <ele>198.4</ele>
        <time>2024-04-28T08:05:57Z</time>
      </trkpt>
      <trkpt lat="50.08366" lon="3.97623">
        <ele>198.4</ele>
        <time>2024-04-28T08:05:58Z</time>
      </trkpt>
      <trkpt lat="50.08372" lon="3.97622">
        <ele>198.4</ele>
        <time>2024-04-28T08:05:59Z</time>
      </trkpt>
      <trkpt lat="50.08379" lon="3.97621">
        <ele>198.4</ele>
        <time>2024-04-28T08:06:00Z</time>
      </trkpt>
      <trkpt lat="50.08385" lon="3.9762">
        <ele>198.6</ele>
        <time>2024-04-28T08:06:01Z</time>
      </trkpt>
      <trkpt lat="50.08391" lon="3.97619">
        <ele>198.4</ele>
        <time>2024-04-28T08:06:02Z</time>
      </trkpt>
      <trkpt lat="50.08397" lon="3.97618">
        <ele>198.6</ele>
        <time>2024-04-28T08:06:03Z</time>
      </trkpt>
      <trkpt lat="50.08404" lon="3.97618">
        <ele>198.6</ele>
        <time>2024-04-28T08:06:04Z</time>
      </trkpt>
      <trkpt lat="50.0841" lon="3.97617">
        <ele>198.6</ele>
        <time>2024-04-28T08:06:05Z</time>
      </trkpt>
      <trkpt lat="50.08416" lon="3.97617">
        <ele>198.6</ele>
        <time>2024-04-28T08:06:06Z</time>
      </trkpt>
      <trkpt lat="50.08422" lon="3.97616">
        <ele>198.6</ele>
        <time>2024-04-28T08:06:07Z</time>
      </trkpt>
      <trkpt lat="50.08429" lon="3.97616">
        <ele>199</ele>
        <time>2024-04-28T08:06:08Z</time>
      </trkpt>
      <trkpt lat="50.08435" lon="3.97617">
        <ele>198.8</ele>
        <time>2024-04-28T08:06:09Z</time>
      </trkpt>
      <trkpt lat="50.08441" lon="3.97617">
        <ele>198.8</ele>
        <time>2024-04-28T08:06:10Z</time>
      </trkpt>
      <trkpt lat="50.08447" lon="3.97618">
        <ele>198.8</ele>
        <time>2024-04-28T08:06:11Z</time>
      </trkpt>
      <trkpt lat="50.08454" lon="3.97619">
        <ele>199</ele>
        <time>2024-04-28T08:06:12Z</time>
      </trkpt>
      <trkpt lat="50.08459" lon="3.9762">
        <ele>198.8</ele>
        <time>2024-04-28T08:06:13Z</time>
      </trkpt>
      <trkpt lat="50.08465" lon="3.97623">
        <ele>199</ele>
        <time>2024-04-28T08:06:14Z</time>
      </trkpt>
      <trkpt lat="50.0847" lon="3.97625">
        <ele>199</ele>
        <time>2024-04-28T08:06:15Z</time>
      </trkpt>
      <trkpt lat="50.08476" lon="3.97629">
        <ele>199.2</ele>
        <time>2024-04-28T08:06:16Z</time>
      </trkpt>
      <trkpt lat="50.08481" lon="3.97632">
        <ele>199.4</ele>
        <time>2024-04-28T08:06:17Z</time>
      </trkpt>
      <trkpt lat="50.08486" lon="3.97635">
        <ele>199.4</ele>
        <time>2024-04-28T08:06:18Z</time>
      </trkpt>
      <trkpt lat="50.08491" lon="3.97637">
        <ele>199.8</ele>
        <time>2024-04-28T08:06:19Z</time>
      </trkpt>
      <trkpt lat="50.08496" lon="3.9764">
        <ele>200</ele>
        <time>2024-04-28T08:06:20Z</time>
      </trkpt>
      <trkpt lat="50.08502" lon="3.97641">
        <ele>200.4</ele>
        <time>2024-04-28T08:06:21Z</time>
      </trkpt>
      <trkpt lat="50.08507" lon="3.97642">
        <ele>200.8</ele>
        <time>2024-04-28T08:06:22Z</time>
      </trkpt>
      <trkpt lat="50.08512" lon="3.97642">
        <ele>201.4</ele>
        <time>2024-04-28T08:06:23Z</time>
      </trkpt>
      <trkpt lat="50.08517" lon="3.9764">
        <ele>201.4</ele>
        <time>2024-04-28T08:06:24Z</time>
      </trkpt>
      <trkpt lat="50.08522" lon="3.97638">
        <ele>201.8</ele>
        <time>2024-04-28T08:06:25Z</time>
      </trkpt>
      <trkpt lat="50.08528" lon="3.97636">
        <ele>201.8</ele>
        <time>2024-04-28T08:06:26Z</time>
      </trkpt>
      <trkpt lat="50.08533" lon="3.97633">
        <ele>201.8</ele>
        <time>2024-04-28T08:06:27Z</time>
      </trkpt>
      <trkpt lat="50.08538" lon="3.9763">
        <ele>201.8</ele>
        <time>2024-04-28T08:06:28Z</time>
      </trkpt>
      <trkpt lat="50.08542" lon="3.97626">
        <ele>202</ele>
        <time>2024-04-28T08:06:29Z</time>
      </trkpt>
      <trkpt lat="50.08547" lon="3.97622">
        <ele>202</ele>
        <time>2024-04-28T08:06:30Z</time>
      </trkpt>
      <trkpt lat="50.08552" lon="3.97618">
        <ele>202.2</ele>
        <time>2024-04-28T08:06:31Z</time>
      </trkpt>
      <trkpt lat="50.08556" lon="3.97614">
        <ele>202.4</ele>
        <time>2024-04-28T08:06:32Z</time>
      </trkpt>
      <trkpt lat="50.0856" lon="3.97611">
        <ele>202.4</ele>
        <time>2024-04-28T08:06:33Z</time>
      </trkpt>
      <trkpt lat="50.08564" lon="3.97607">
        <ele>202.6</ele>
        <time>2024-04-28T08:06:34Z</time>
      </trkpt>
      <trkpt lat="50.08568" lon="3.97603">
        <ele>202.8</ele>
        <time>2024-04-28T08:06:35Z</time>
      </trkpt>
      <trkpt lat="50.08573" lon="3.97599">
        <ele>203</ele>
        <time>2024-04-28T08:06:36Z</time>
      </trkpt>
      <trkpt lat="50.08576" lon="3.97595">
        <ele>203</ele>
        <time>2024-04-28T08:06:37Z</time>
      </trkpt>
      <trkpt lat="50.08581" lon="3.97592">
        <ele>203</ele>
        <time>2024-04-28T08:06:38Z</time>
      </trkpt>
      <trkpt lat="50.08585" lon="3.97588">
        <ele>203</ele>
        <time>2024-04-28T08:06:39Z</time>
      </trkpt>
      <trkpt lat="50.08589" lon="3.97584">
        <ele>203.2</ele>
        <time>2024-04-28T08:06:40Z</time>
      </trkpt>
      <trkpt lat="50.08592" lon="3.97581">
        <ele>203.4</ele>
        <time>2024-04-28T08:06:41Z</time>
      </trkpt>
      <trkpt lat="50.08596" lon="3.97577">
        <ele>203.6</ele>
        <time>2024-04-28T08:06:42Z</time>
      </trkpt>
      <trkpt lat="50.086" lon="3.97574">
        <ele>203.8</ele>
        <time>2024-04-28T08:06:43Z</time>
      </trkpt>
      <trkpt lat="50.08604" lon="3.9757">
        <ele>203.8</ele>
        <time>2024-04-28T08:06:44Z</time>
      </trkpt>
      <trkpt lat="50.08608" lon="3.97567">
        <ele>204.2</ele>
        <time>2024-04-28T08:06:45Z</time>
      </trkpt>
      <trkpt lat="50.08612" lon="3.97563">
        <ele>204.2</ele>
        <time>2024-04-28T08:06:46Z</time>
      </trkpt>
      <trkpt lat="50.08615" lon="3.9756">
        <ele>205</ele>
        <time>2024-04-28T08:06:47Z</time>
      </trkpt>
      <trkpt lat="50.08619" lon="3.97556">
        <ele>205.4</ele>
        <time>2024-04-28T08:06:48Z</time>
      </trkpt>
      <trkpt lat="50.08623" lon="3.97553">
        <ele>206</ele>
        <time>2024-04-28T08:06:49Z</time>
      </trkpt>
      <trkpt lat="50.08627" lon="3.9755">
        <ele>206.2</ele>
        <time>2024-04-28T08:06:50Z</time>
      </trkpt>
      <trkpt lat="50.08631" lon="3.97547">
        <ele>206.8</ele>
        <time>2024-04-28T08:06:51Z</time>
      </trkpt>
      <trkpt lat="50.08635" lon="3.97543">
        <ele>207</ele>
        <time>2024-04-28T08:06:52Z</time>
      </trkpt>
      <trkpt lat="50.08638" lon="3.9754">
        <ele>207.4</ele>
        <time>2024-04-28T08:06:53Z</time>
      </trkpt>
      <trkpt lat="50.08642" lon="3.97537">
        <ele>207.8</ele>
        <time>2024-04-28T08:06:54Z</time>
      </trkpt>
      <trkpt lat="50.08646" lon="3.97534">
        <ele>207.6</ele>
        <time>2024-04-28T08:06:55Z</time>
      </trkpt>
      <trkpt lat="50.0865" lon="3.97531">
        <ele>208</ele>
        <time>2024-04-28T08:06:56Z</time>
      </trkpt>
      <trkpt lat="50.08654" lon="3.97528">
        <ele>208</ele>
        <time>2024-04-28T08:06:57Z</time>
      </trkpt>
      <trkpt lat="50.08658" lon="3.97526">
        <ele>208.4</ele>
        <time>2024-04-28T08:06:58Z</time>
      </trkpt>
      <trkpt lat="50.08662" lon="3.97523">
        <ele>208.8</ele>
        <time>2024-04-28T08:06:59Z</time>
      </trkpt>
      <trkpt lat="50.08666" lon="3.9752">
        <ele>208.8</ele>
        <time>2024-04-28T08:07:00Z</time>
      </trkpt>
      <trkpt lat="50.0867" lon="3.97517">
        <ele>208.8</ele>
        <time>2024-04-28T08:07:01Z</time>
      </trkpt>
      <trkpt lat="50.08674" lon="3.97515">
        <ele>209</ele>
        <time>2024-04-28T08:07:02Z</time>
      </trkpt>
      <trkpt lat="50.08678" lon="3.97512">
        <ele>209.4</ele>
        <time>2024-04-28T08:07:03Z</time>
      </trkpt>
      <trkpt lat="50.08683" lon="3.97509">
        <ele>209.4</ele>
        <time>2024-04-28T08:07:04Z</time>
      </trkpt>
      <trkpt lat="50.08687" lon="3.97506">
        <ele>209.6</ele>
        <time>2024-04-28T08:07:05Z</time>
      </trkpt>
      <trkpt lat="50.08691" lon="3.97503">
        <ele>210</ele>
        <time>2024-04-28T08:07:06Z</time>
      </trkpt>
      <trkpt lat="50.08696" lon="3.97499">
        <ele>210.2</ele>
        <time>2024-04-28T08:07:07Z</time>
      </trkpt>
      <trkpt lat="50.087" lon="3.97496">
        <ele>210.4</ele>
        <time>2024-04-28T08:07:08Z</time>
      </trkpt>
      <trkpt lat="50.08705" lon="3.97493">
        <ele>210.4</ele>
        <time>2024-04-28T08:07:09Z</time>
      </trkpt>
      <trkpt lat="50.08709" lon="3.9749">
        <ele>210.4</ele>
        <time>2024-04-28T08:07:10Z</time>
      </trkpt>
      <trkpt lat="50.08714" lon="3.97487">
        <ele>210.6</ele>
        <time>2024-04-28T08:07:11Z</time>
      </trkpt>
      <trkpt lat="50.08719" lon="3.97484">
        <ele>210.6</ele>
        <time>2024-04-28T08:07:12Z</time>
      </trkpt>
      <trkpt lat="50.08723" lon="3.97484">
        <ele>210.8</ele>
        <time>2024-04-28T08:07:13Z</time>
      </trkpt>
      <trkpt lat="50.08728" lon="3.97486">
        <ele>211</ele>
        <time>2024-04-28T08:07:14Z</time>
      </trkpt>
      <trkpt lat="50.08731" lon="3.9749">
        <ele>211</ele>
        <time>2024-04-28T08:07:15Z</time>
      </trkpt>
      <trkpt lat="50.08733" lon="3.97496">
        <ele>211</ele>
        <time>2024-04-28T08:07:16Z</time>
      </trkpt>
      <trkpt lat="50.08734" lon="3.97502">
        <ele>211.4</ele>
        <time>2024-04-28T08:07:17Z</time>
      </trkpt>
      <trkpt lat="50.08736" lon="3.97509">
        <ele>211.4</ele>
        <time>2024-04-28T08:07:18Z</time>
      </trkpt>
      <trkpt lat="50.08738" lon="3.97515">
        <ele>211.4</ele>
        <time>2024-04-28T08:07:19Z</time>
      </trkpt>
      <trkpt lat="50.0874" lon="3.97522">
        <ele>211.4</ele>
        <time>2024-04-28T08:07:20Z</time>
      </trkpt>
      <trkpt lat="50.08742" lon="3.97528">
        <ele>211.8</ele>
        <time>2024-04-28T08:07:21Z</time>
      </trkpt>
      <trkpt lat="50.08744" lon="3.97533">
        <ele>211.8</ele>
        <time>2024-04-28T08:07:22Z</time>
      </trkpt>
      <trkpt lat="50.08746" lon="3.97538">
        <ele>211.8</ele>
        <time>2024-04-28T08:07:23Z</time>
      </trkpt>
      <trkpt lat="50.08747" lon="3.97542">
        <ele>212</ele>
        <time>2024-04-28T08:07:24Z</time>
      </trkpt>
      <trkpt lat="50.08749" lon="3.97545">
        <ele>212</ele>
        <time>2024-04-28T08:07:25Z</time>
      </trkpt>
      <trkpt lat="50.0875" lon="3.97548">
        <ele>211.8</ele>
        <time>2024-04-28T08:07:26Z</time>
      </trkpt>
      <trkpt lat="50.08752" lon="3.9755">
        <ele>212</ele>
        <time>2024-04-28T08:07:27Z</time>
      </trkpt>
      <trkpt lat="50.08753" lon="3.97552">
        <ele>212</ele>
        <time>2024-04-28T08:07:28Z</time>
      </trkpt>
      <trkpt lat="50.08754" lon="3.97554">
        <ele>212</ele>
        <time>2024-04-28T08:07:29Z</time>
      </trkpt>
      <trkpt lat="50.08755" lon="3.97557">
        <ele>211.8</ele>
        <time>2024-04-28T08:07:30Z</time>
      </trkpt>
      <trkpt lat="50.08754" lon="3.9756">
        <ele>211.8</ele>
        <time>2024-04-28T08:07:31Z</time>
      </trkpt>
      <trkpt lat="50.08754" lon="3.97563">
        <ele>211.8</ele>
        <time>2024-04-28T08:07:32Z</time>
      </trkpt>
      <trkpt lat="50.08753" lon="3.97567">
        <ele>211.8</ele>
        <time>2024-04-28T08:07:33Z</time>
      </trkpt>
      <trkpt lat="50.08753" lon="3.9757">
        <ele>211.8</ele>
        <time>2024-04-28T08:07:34Z</time>
      </trkpt>
      <trkpt lat="50.08752" lon="3.97574">
        <ele>211.6</ele>
        <time>2024-04-28T08:07:35Z</time>
      </trkpt>
      <trkpt lat="50.08752" lon="3.97577">
        <ele>211.6</ele>
        <time>2024-04-28T08:07:36Z</time>
      </trkpt>
      <trkpt lat="50.08751" lon="3.97581">
        <ele>211.6</ele>
        <time>2024-04-28T08:07:37Z</time>
      </trkpt>
      <trkpt lat="50.08751" lon="3.97585">
        <ele>211.6</ele>
        <time>2024-04-28T08:07:38Z</time>
      </trkpt>
      <trkpt lat="50.0875" lon="3.97589">
        <ele>211.6</ele>
        <time>2024-04-28T08:07:39Z</time>
      </trkpt>
      <trkpt lat="50.0875" lon="3.97594">
        <ele>211.6</ele>
        <time>2024-04-28T08:07:40Z</time>
      </trkpt>
      <trkpt lat="50.0875" lon="3.97598">
        <ele>211.4</ele>
        <time>2024-04-28T08:07:41Z</time>
      </trkpt>
      <trkpt lat="50.08749" lon="3.97602">
        <ele>211.4</ele>
        <time>2024-04-28T08:07:42Z</time>
      </trkpt>
      <trkpt lat="50.08748" lon="3.97607">
        <ele>211.2</ele>
        <time>2024-04-28T08:07:43Z</time>
      </trkpt>
      <trkpt lat="50.08748" lon="3.9761">
        <ele>211.2</ele>
        <time>2024-04-28T08:07:44Z</time>
      </trkpt>
      <trkpt lat="50.08747" lon="3.97614">
        <ele>211</ele>
        <time>2024-04-28T08:07:45Z</time>
      </trkpt>
      <trkpt lat="50.08747" lon="3.97618">
        <ele>211</ele>
        <time>2024-04-28T08:07:46Z</time>
      </trkpt>
      <trkpt lat="50.08746" lon="3.97622">
        <ele>211</ele>
        <time>2024-04-28T08:07:47Z</time>
      </trkpt>
      <trkpt lat="50.08745" lon="3.97626">
        <ele>211</ele>
        <time>2024-04-28T08:07:48Z</time>
      </trkpt>
      <trkpt lat="50.08745" lon="3.97631">
        <ele>210.8</ele>
        <time>2024-04-28T08:07:49Z</time>
      </trkpt>
      <trkpt lat="50.08744" lon="3.97635">
        <ele>210.8</ele>
        <time>2024-04-28T08:07:50Z</time>
      </trkpt>
      <trkpt lat="50.08744" lon="3.97639">
        <ele>210.8</ele>
        <time>2024-04-28T08:07:51Z</time>
      </trkpt>
      <trkpt lat="50.08744" lon="3.97642">
        <ele>210.6</ele>
        <time>2024-04-28T08:07:52Z</time>
      </trkpt>
      <trkpt lat="50.08744" lon="3.97646">
        <ele>210.6</ele>
        <time>2024-04-28T08:07:53Z</time>
      </trkpt>
      <trkpt lat="50.08743" lon="3.97648">
        <ele>210.6</ele>
        <time>2024-04-28T08:07:54Z</time>
      </trkpt>
      <trkpt lat="50.08743" lon="3.97651">
        <ele>210.6</ele>
        <time>2024-04-28T08:07:55Z</time>
      </trkpt>
      <trkpt lat="50.08742" lon="3.97653">
        <ele>210.4</ele>
        <time>2024-04-28T08:07:56Z</time>
      </trkpt>
      <trkpt lat="50.08741" lon="3.97656">
        <ele>210.4</ele>
        <time>2024-04-28T08:07:57Z</time>
      </trkpt>
      <trkpt lat="50.0874" lon="3.97658">
        <ele>210.4</ele>
        <time>2024-04-28T08:07:58Z</time>
      </trkpt>
      <trkpt lat="50.08739" lon="3.97661">
        <ele>210.2</ele>
        <time>2024-04-28T08:07:59Z</time>
      </trkpt>
      <trkpt lat="50.08739" lon="3.97664">
        <ele>210.4</ele>
        <time>2024-04-28T08:08:00Z</time>
      </trkpt>
      <trkpt lat="50.08739" lon="3.97667">
        <ele>210.2</ele>
        <time>2024-04-28T08:08:01Z</time>
      </trkpt>
      <trkpt lat="50.08738" lon="3.97669">
        <ele>210.4</ele>
        <time>2024-04-28T08:08:02Z</time>
      </trkpt>
      <trkpt lat="50.08737" lon="3.97672">
        <ele>210.4</ele>
        <time>2024-04-28T08:08:03Z</time>
      </trkpt>
      <trkpt lat="50.08738" lon="3.97673">
        <ele>210.2</ele>
        <time>2024-04-28T08:08:04Z</time>
      </trkpt>
      <trkpt lat="50.08739" lon="3.97672">
        <ele>210.2</ele>
        <time>2024-04-28T08:08:05Z</time>
      </trkpt>
      <trkpt lat="50.0874" lon="3.97669">
        <ele>210.2</ele>
        <time>2024-04-28T08:08:06Z</time>
      </trkpt>
      <trkpt lat="50.0874" lon="3.97667">
        <ele>210.2</ele>
        <time>2024-04-28T08:08:07Z</time>
      </trkpt>
      <trkpt lat="50.08739" lon="3.97665">
        <ele>210.2</ele>
        <time>2024-04-28T08:08:08Z</time>
      </trkpt>
      <trkpt lat="50.08739" lon="3.97663">
        <ele>210.2</ele>
        <time>2024-04-28T08:08:09Z</time>
      </trkpt>
      <trkpt lat="50.08739" lon="3.97661">
        <ele>210.2</ele>
        <time>2024-04-28T08:08:10Z</time>
      </trkpt>
      <trkpt lat="50.08739" lon="3.97659">
        <ele>210.4</ele>
        <time>2024-04-28T08:08:11Z</time>
      </trkpt>
      <trkpt lat="50.08739" lon="3.97658">
        <ele>210.4</ele>
        <time>2024-04-28T08:08:12Z</time>
      </trkpt>
      <trkpt lat="50.08739" lon="3.97657">
        <ele>210.4</ele>
        <time>2024-04-28T08:08:13Z</time>
      </trkpt>
      <trkpt lat="50.08739" lon="3.97657">
        <ele>210.4</ele>
        <time>2024-04-28T08:08:14Z</time>
      </trkpt>
      <trkpt lat="50.0874" lon="3.97657">
        <ele>210.4</ele>
        <time>2024-04-28T08:08:15Z</time>
      </trkpt>
      <trkpt lat="50.08743" lon="3.97661">
        <ele>210.2</ele>
        <time>2024-04-28T08:11:04Z</time>
      </trkpt>
      <trkpt lat="50.08742" lon="3.97664">
        <ele>210.4</ele>
        <time>2024-04-28T08:11:05Z</time>
      </trkpt>
      <trkpt lat="50.08741" lon="3.97667">
        <ele>210.4</ele>
        <time>2024-04-28T08:11:06Z</time>
      </trkpt>
      <trkpt lat="50.08741" lon="3.9767">
        <ele>210.4</ele>
        <time>2024-04-28T08:11:07Z</time>
      </trkpt>
      <trkpt lat="50.0874" lon="3.97674">
        <ele>210.4</ele>
        <time>2024-04-28T08:11:08Z</time>
      </trkpt>
      <trkpt lat="50.08739" lon="3.97679">
        <ele>210.2</ele>
        <time>2024-04-28T08:11:09Z</time>
      </trkpt>
      <trkpt lat="50.08739" lon="3.97684">
        <ele>210.4</ele>
        <time>2024-04-28T08:11:10Z</time>
      </trkpt>
      <trkpt lat="50.08738" lon="3.97689">
        <ele>210.4</ele>
        <time>2024-04-28T08:11:11Z</time>
      </trkpt>
      <trkpt lat="50.08737" lon="3.97694">
        <ele>210.4</ele>
        <time>2024-04-28T08:11:12Z</time>
      </trkpt>
      <trkpt lat="50.08736" lon="3.977">
        <ele>210.4</ele>
        <time>2024-04-28T08:11:13Z</time>
      </trkpt>
      <trkpt lat="50.08735" lon="3.97707">
        <ele>210.4</ele>
        <time>2024-04-28T08:11:14Z</time>
      </trkpt>
      <trkpt lat="50.08734" lon="3.97713">
        <ele>210.2</ele>
        <time>2024-04-28T08:11:15Z</time>
      </trkpt>
      <trkpt lat="50.08733" lon="3.9772">
        <ele>210.4</ele>
        <time>2024-04-28T08:11:16Z</time>
      </trkpt>
      <trkpt lat="50.08732" lon="3.97727">
        <ele>210.4</ele>
        <time>2024-04-28T08:11:17Z</time>
      </trkpt>
      <trkpt lat="50.08732" lon="3.97734">
        <ele>210.4</ele>
        <time>2024-04-28T08:11:18Z</time>
      </trkpt>
      <trkpt lat="50.08731" lon="3.97742">
        <ele>210.2</ele>
        <time>2024-04-28T08:11:19Z</time>
      </trkpt>
      <trkpt lat="50.08731" lon="3.97751">
        <ele>210.2</ele>
        <time>2024-04-28T08:11:20Z</time>
      </trkpt>
      <trkpt lat="50.0873" lon="3.97759">
        <ele>210.2</ele>
        <time>2024-04-28T08:11:21Z</time>
      </trkpt>
      <trkpt lat="50.0873" lon="3.97769">
        <ele>210</ele>
        <time>2024-04-28T08:11:22Z</time>
      </trkpt>
      <trkpt lat="50.08729" lon="3.97779">
        <ele>210.2</ele>
        <time>2024-04-28T08:11:23Z</time>
      </trkpt>
      <trkpt lat="50.0873" lon="3.97789">
        <ele>210</ele>
        <time>2024-04-28T08:11:24Z</time>
      </trkpt>
      <trkpt lat="50.08731" lon="3.97799">
        <ele>210</ele>
        <time>2024-04-28T08:11:25Z</time>
      </trkpt>
      <trkpt lat="50.08734" lon="3.97809">
        <ele>209.8</ele>
        <time>2024-04-28T08:11:26Z</time>
      </trkpt>
      <trkpt lat="50.08738" lon="3.97818">
        <ele>209.6</ele>
        <time>2024-04-28T08:11:27Z</time>
      </trkpt>
      <trkpt lat="50.08742" lon="3.97827">
        <ele>209.4</ele>
        <time>2024-04-28T08:11:28Z</time>
      </trkpt>
      <trkpt lat="50.08747" lon="3.97835">
        <ele>208.6</ele>
        <time>2024-04-28T08:11:29Z</time>
      </trkpt>
      <trkpt lat="50.08752" lon="3.97843">
        <ele>208.6</ele>
        <time>2024-04-28T08:11:30Z</time>
      </trkpt>
      <trkpt lat="50.08756" lon="3.97852">
        <ele>208.2</ele>
        <time>2024-04-28T08:11:31Z</time>
      </trkpt>
      <trkpt lat="50.08761" lon="3.9786">
        <ele>208</ele>
        <time>2024-04-28T08:11:32Z</time>
      </trkpt>
      <trkpt lat="50.08766" lon="3.97868">
        <ele>207.8</ele>
        <time>2024-04-28T08:11:33Z</time>
      </trkpt>
      <trkpt lat="50.08771" lon="3.97876">
        <ele>207.6</ele>
        <time>2024-04-28T08:11:34Z</time>
      </trkpt>
      <trkpt lat="50.08776" lon="3.97884">
        <ele>207.4</ele>
        <time>2024-04-28T08:11:35Z</time>
      </trkpt>
      <trkpt lat="50.08781" lon="3.97893">
        <ele>207.2</ele>
        <time>2024-04-28T08:11:36Z</time>
      </trkpt>
      <trkpt lat="50.08786" lon="3.97901">
        <ele>207</ele>
        <time>2024-04-28T08:11:37Z</time>
      </trkpt>
      <trkpt lat="50.08791" lon="3.97909">
        <ele>207.2</ele>
        <time>2024-04-28T08:11:38Z</time>
      </trkpt>
      <trkpt lat="50.08796" lon="3.97917">
        <ele>207</ele>
        <time>2024-04-28T08:11:39Z</time>
      </trkpt>
      <trkpt lat="50.08801" lon="3.97925">
        <ele>207</ele>
        <time>2024-04-28T08:11:40Z</time>
      </trkpt>
      <trkpt lat="50.08807" lon="3.97933">
        <ele>207.2</ele>
        <time>2024-04-28T08:11:41Z</time>
      </trkpt>
      <trkpt lat="50.08812" lon="3.97941">
        <ele>207</ele>
        <time>2024-04-28T08:11:42Z</time>
      </trkpt>
      <trkpt lat="50.08817" lon="3.9795">
        <ele>207</ele>
        <time>2024-04-28T08:11:43Z</time>
      </trkpt>
      <trkpt lat="50.08822" lon="3.97958">
        <ele>207.2</ele>
        <time>2024-04-28T08:11:44Z</time>
      </trkpt>
      <trkpt lat="50.08828" lon="3.97967">
        <ele>207.2</ele>
        <time>2024-04-28T08:11:45Z</time>
      </trkpt>
      <trkpt lat="50.08834" lon="3.97975">
        <ele>207.2</ele>
        <time>2024-04-28T08:11:46Z</time>
      </trkpt>
      <trkpt lat="50.08839" lon="3.97984">
        <ele>207.2</ele>
        <time>2024-04-28T08:11:47Z</time>
      </trkpt>
      <trkpt lat="50.08845" lon="3.97992">
        <ele>207.4</ele>
        <time>2024-04-28T08:11:48Z</time>
      </trkpt>
      <trkpt lat="50.0885" lon="3.98">
        <ele>207.4</ele>
        <time>2024-04-28T08:11:49Z</time>
      </trkpt>
      <trkpt lat="50.08856" lon="3.98009">
        <ele>207.4</ele>
        <time>2024-04-28T08:11:50Z</time>
      </trkpt>
      <trkpt lat="50.08861" lon="3.98019">
        <ele>207.6</ele>
        <time>2024-04-28T08:11:51Z</time>
      </trkpt>
      <trkpt lat="50.08866" lon="3.98029">
        <ele>208</ele>
        <time>2024-04-28T08:11:52Z</time>
      </trkpt>
      <trkpt lat="50.0887" lon="3.98039">
        <ele>208.2</ele>
        <time>2024-04-28T08:11:53Z</time>
      </trkpt>
      <trkpt lat="50.08875" lon="3.9805">
        <ele>208.4</ele>
        <time>2024-04-28T08:11:54Z</time>
      </trkpt>
      <trkpt lat="50.0888" lon="3.9806">
        <ele>208.4</ele>
        <time>2024-04-28T08:11:55Z</time>
      </trkpt>
      <trkpt lat="50.08884" lon="3.98071">
        <ele>208.6</ele>
        <time>2024-04-28T08:11:56Z</time>
      </trkpt>
      <trkpt lat="50.08889" lon="3.98082">
        <ele>208.6</ele>
        <time>2024-04-28T08:11:57Z</time>
      </trkpt>
      <trkpt lat="50.08893" lon="3.98093">
        <ele>208.4</ele>
        <time>2024-04-28T08:11:58Z</time>
      </trkpt>
      <trkpt lat="50.08897" lon="3.98105">
        <ele>208.4</ele>
        <time>2024-04-28T08:11:59Z</time>
      </trkpt>
      <trkpt lat="50.08901" lon="3.98116">
        <ele>208.2</ele>
        <time>2024-04-28T08:12:00Z</time>
      </trkpt>
      <trkpt lat="50.08904" lon="3.98129">
        <ele>208.4</ele>
        <time>2024-04-28T08:12:01Z</time>
      </trkpt>
      <trkpt lat="50.08907" lon="3.98143">
        <ele>208</ele>
        <time>2024-04-28T08:12:02Z</time>
      </trkpt>
      <trkpt lat="50.08909" lon="3.98157">
        <ele>207.6</ele>
        <time>2024-04-28T08:12:03Z</time>
      </trkpt>
      <trkpt lat="50.08911" lon="3.98171">
        <ele>207</ele>
        <time>2024-04-28T08:12:04Z</time>
      </trkpt>
      <trkpt lat="50.08913" lon="3.98185">
        <ele>207</ele>
        <time>2024-04-28T08:12:05Z</time>
      </trkpt>
      <trkpt lat="50.08915" lon="3.982">
        <ele>207</ele>
        <time>2024-04-28T08:12:06Z</time>
      </trkpt>
      <trkpt lat="50.08918" lon="3.98215">
        <ele>206.8</ele>
        <time>2024-04-28T08:12:07Z</time>
      </trkpt>
      <trkpt lat="50.08921" lon="3.9823">
        <ele>206.2</ele>
        <time>2024-04-28T08:12:08Z</time>
      </trkpt>
      <trkpt lat="50.08924" lon="3.98245">
        <ele>206</ele>
        <time>2024-04-28T08:12:09Z</time>
      </trkpt>
      <trkpt lat="50.08927" lon="3.9826">
        <ele>205.6</ele>
        <time>2024-04-28T08:12:10Z</time>
      </trkpt>
      <trkpt lat="50.0893" lon="3.98275">
        <ele>205.4</ele>
        <time>2024-04-28T08:12:11Z</time>
      </trkpt>
      <trkpt lat="50.08934" lon="3.9829">
        <ele>205.2</ele>
        <time>2024-04-28T08:12:12Z</time>
      </trkpt>
      <trkpt lat="50.08937" lon="3.98304">
        <ele>205</ele>
        <time>2024-04-28T08:12:13Z</time>
      </trkpt>
      <trkpt lat="50.08941" lon="3.98319">
        <ele>204.6</ele>
        <time>2024-04-28T08:12:14Z</time>
      </trkpt>
      <trkpt lat="50.08944" lon="3.98333">
        <ele>204.6</ele>
        <time>2024-04-28T08:12:15Z</time>
      </trkpt>
      <trkpt lat="50.08948" lon="3.98348">
        <ele>204.2</ele>
        <time>2024-04-28T08:12:16Z</time>
      </trkpt>
      <trkpt lat="50.08951" lon="3.98362">
        <ele>203.4</ele>
        <time>2024-04-28T08:12:17Z</time>
      </trkpt>
      <trkpt lat="50.08954" lon="3.98376">
        <ele>203</ele>
        <time>2024-04-28T08:12:18Z</time>
      </trkpt>
      <trkpt lat="50.08958" lon="3.9839">
        <ele>202.8</ele>
        <time>2024-04-28T08:12:19Z</time>
      </trkpt>
      <trkpt lat="50.08962" lon="3.98404">
        <ele>202.6</ele>
        <time>2024-04-28T08:12:20Z</time>
      </trkpt>
      <trkpt lat="50.08965" lon="3.98418">
        <ele>202.4</ele>
        <time>2024-04-28T08:12:21Z</time>
      </trkpt>
      <trkpt lat="50.08968" lon="3.98432">
        <ele>202.4</ele>
        <time>2024-04-28T08:12:22Z</time>
      </trkpt>
      <trkpt lat="50.08972" lon="3.98446">
        <ele>202.4</ele>
        <time>2024-04-28T08:12:23Z</time>
      </trkpt>
      <trkpt lat="50.08975" lon="3.9846">
        <ele>202.4</ele>
        <time>2024-04-28T08:12:24Z</time>
      </trkpt>
      <trkpt lat="50.08979" lon="3.98473">
        <ele>202.2</ele>
        <time>2024-04-28T08:12:25Z</time>
      </trkpt>
      <trkpt lat="50.08984" lon="3.98486">
        <ele>202</ele>
        <time>2024-04-28T08:12:26Z</time>
      </trkpt>
      <trkpt lat="50.08988" lon="3.98498">
        <ele>202</ele>
        <time>2024-04-28T08:12:27Z</time>
      </trkpt>
      <trkpt lat="50.08993" lon="3.9851">
        <ele>202</ele>
        <time>2024-04-28T08:12:28Z</time>
      </trkpt>
      <trkpt lat="50.08998" lon="3.98522">
        <ele>202</ele>
        <time>2024-04-28T08:12:29Z</time>
      </trkpt>
      <trkpt lat="50.09003" lon="3.98534">
        <ele>202</ele>
        <time>2024-04-28T08:12:30Z</time>
      </trkpt>
      <trkpt lat="50.09008" lon="3.98546">
        <ele>201.8</ele>
        <time>2024-04-28T08:12:31Z</time>
      </trkpt>
      <trkpt lat="50.09012" lon="3.98558">
        <ele>202</ele>
        <time>2024-04-28T08:12:32Z</time>
      </trkpt>
      <trkpt lat="50.09016" lon="3.98571">
        <ele>202.2</ele>
        <time>2024-04-28T08:12:33Z</time>
      </trkpt>
      <trkpt lat="50.0902" lon="3.98583">
        <ele>202.4</ele>
        <time>2024-04-28T08:12:34Z</time>
      </trkpt>
      <trkpt lat="50.09024" lon="3.98596">
        <ele>202.2</ele>
        <time>2024-04-28T08:12:35Z</time>
      </trkpt>
      <trkpt lat="50.09028" lon="3.98609">
        <ele>202.4</ele>
        <time>2024-04-28T08:12:36Z</time>
      </trkpt>
      <trkpt lat="50.09032" lon="3.98622">
        <ele>202.4</ele>
        <time>2024-04-28T08:12:37Z</time>
      </trkpt>
      <trkpt lat="50.09036" lon="3.98634">
        <ele>202.4</ele>
        <time>2024-04-28T08:12:38Z</time>
      </trkpt>
      <trkpt lat="50.0904" lon="3.98647">
        <ele>202.4</ele>
        <time>2024-04-28T08:12:39Z</time>
      </trkpt>
      <trkpt lat="50.09043" lon="3.98659">
        <ele>202.6</ele>
        <time>2024-04-28T08:12:40Z</time>
      </trkpt>
      <trkpt lat="50.09047" lon="3.98671">
        <ele>202.6</ele>
        <time>2024-04-28T08:12:41Z</time>
      </trkpt>
      <trkpt lat="50.09051" lon="3.98683">
        <ele>202.6</ele>
        <time>2024-04-28T08:12:42Z</time>
      </trkpt>
      <trkpt lat="50.09054" lon="3.98694">
        <ele>202.4</ele>
        <time>2024-04-28T08:12:43Z</time>
      </trkpt>
      <trkpt lat="50.09058" lon="3.98705">
        <ele>202.6</ele>
        <time>2024-04-28T08:12:44Z</time>
      </trkpt>
      <trkpt lat="50.09061" lon="3.98717">
        <ele>202.4</ele>
        <time>2024-04-28T08:12:45Z</time>
      </trkpt>
      <trkpt lat="50.09064" lon="3.98727">
        <ele>202.6</ele>
        <time>2024-04-28T08:12:46Z</time>
      </trkpt>
      <trkpt lat="50.09068" lon="3.98739">
        <ele>202.6</ele>
        <time>2024-04-28T08:12:47Z</time>
      </trkpt>
      <trkpt lat="50.09071" lon="3.9875">
        <ele>202.6</ele>
        <time>2024-04-28T08:12:48Z</time>
      </trkpt>
      <trkpt lat="50.09075" lon="3.98761">
        <ele>202.8</ele>
        <time>2024-04-28T08:12:49Z</time>
      </trkpt>
      <trkpt lat="50.09078" lon="3.98772">
        <ele>202.8</ele>
        <time>2024-04-28T08:12:50Z</time>
      </trkpt>
      <trkpt lat="50.09081" lon="3.98783">
        <ele>203</ele>
        <time>2024-04-28T08:12:51Z</time>
      </trkpt>
      <trkpt lat="50.09085" lon="3.98794">
        <ele>203.4</ele>
        <time>2024-04-28T08:12:52Z</time>
      </trkpt>
      <trkpt lat="50.09088" lon="3.98805">
        <ele>203.6</ele>
        <time>2024-04-28T08:12:53Z</time>
      </trkpt>
      <trkpt lat="50.09091" lon="3.98816">
        <ele>203.6</ele>
        <time>2024-04-28T08:12:54Z</time>
      </trkpt>
      <trkpt lat="50.09095" lon="3.98827">
        <ele>204</ele>
        <time>2024-04-28T08:12:55Z</time>
      </trkpt>
      <trkpt lat="50.09098" lon="3.98839">
        <ele>204.4</ele>
        <time>2024-04-28T08:12:56Z</time>
      </trkpt>
      <trkpt lat="50.09102" lon="3.9885">
        <ele>204.4</ele>
        <time>2024-04-28T08:12:57Z</time>
      </trkpt>
      <trkpt lat="50.09105" lon="3.98862">
        <ele>204.6</ele>
        <time>2024-04-28T08:12:58Z</time>
      </trkpt>
      <trkpt lat="50.09109" lon="3.98874">
        <ele>204.6</ele>
        <time>2024-04-28T08:12:59Z</time>
      </trkpt>
      <trkpt lat="50.09113" lon="3.98886">
        <ele>205</ele>
        <time>2024-04-28T08:13:00Z</time>
      </trkpt>
      <trkpt lat="50.09117" lon="3.98898">
        <ele>204.8</ele>
        <time>2024-04-28T08:13:01Z</time>
      </trkpt>
      <trkpt lat="50.09121" lon="3.98911">
        <ele>205</ele>
        <time>2024-04-28T08:13:02Z</time>
      </trkpt>
      <trkpt lat="50.09125" lon="3.98924">
        <ele>205</ele>
        <time>2024-04-28T08:13:03Z</time>
      </trkpt>
      <trkpt lat="50.09128" lon="3.98937">
        <ele>205</ele>
        <time>2024-04-28T08:13:04Z</time>
      </trkpt>
      <trkpt lat="50.0913" lon="3.98951">
        <ele>205</ele>
        <time>2024-04-28T08:13:05Z</time>
      </trkpt>
      <trkpt lat="50.09132" lon="3.98966">
        <ele>205</ele>
        <time>2024-04-28T08:13:06Z</time>
      </trkpt>
      <trkpt lat="50.09134" lon="3.9898">
        <ele>205</ele>
        <time>2024-04-28T08:13:07Z</time>
      </trkpt>
      <trkpt lat="50.09135" lon="3.98995">
        <ele>205.2</ele>
        <time>2024-04-28T08:13:08Z</time>
      </trkpt>
      <trkpt lat="50.09136" lon="3.9901">
        <ele>204.8</ele>
        <time>2024-04-28T08:13:09Z</time>
      </trkpt>
      <trkpt lat="50.09136" lon="3.99024">
        <ele>204.8</ele>
        <time>2024-04-28T08:13:10Z</time>
      </trkpt>
      <trkpt lat="50.09137" lon="3.99038">
        <ele>204.6</ele>
        <time>2024-04-28T08:13:11Z</time>
      </trkpt>
      <trkpt lat="50.09138" lon="3.99052">
        <ele>204.6</ele>
        <time>2024-04-28T08:13:12Z</time>
      </trkpt>
      <trkpt lat="50.09139" lon="3.99066">
        <ele>204.4</ele>
        <time>2024-04-28T08:13:13Z</time>
      </trkpt>
      <trkpt lat="50.0914" lon="3.9908">
        <ele>204.4</ele>
        <time>2024-04-28T08:13:14Z</time>
      </trkpt>
      <trkpt lat="50.09141" lon="3.99093">
        <ele>204.4</ele>
        <time>2024-04-28T08:13:15Z</time>
      </trkpt>
      <trkpt lat="50.09142" lon="3.99107">
        <ele>204.2</ele>
        <time>2024-04-28T08:13:16Z</time>
      </trkpt>
      <trkpt lat="50.09143" lon="3.99121">
        <ele>204.2</ele>
        <time>2024-04-28T08:13:17Z</time>
      </trkpt>
      <trkpt lat="50.09144" lon="3.99135">
        <ele>204.2</ele>
        <time>2024-04-28T08:13:18Z</time>
      </trkpt>
      <trkpt lat="50.09146" lon="3.99149">
        <ele>204</ele>
        <time>2024-04-28T08:13:19Z</time>
      </trkpt>
      <trkpt lat="50.09147" lon="3.99163">
        <ele>204</ele>
        <time>2024-04-28T08:13:20Z</time>
      </trkpt>
      <trkpt lat="50.09148" lon="3.99178">
        <ele>204</ele>
        <time>2024-04-28T08:13:21Z</time>
      </trkpt>
      <trkpt lat="50.09149" lon="3.99192">
        <ele>203.8</ele>
        <time>2024-04-28T08:13:22Z</time>
      </trkpt>
      <trkpt lat="50.0915" lon="3.99207">
        <ele>203.6</ele>
        <time>2024-04-28T08:13:23Z</time>
      </trkpt>
      <trkpt lat="50.09151" lon="3.99221">
        <ele>203.6</ele>
        <time>2024-04-28T08:13:24Z</time>
      </trkpt>
      <trkpt lat="50.09153" lon="3.99235">
        <ele>203.6</ele>
        <time>2024-04-28T08:13:25Z</time>
      </trkpt>
      <trkpt lat="50.09154" lon="3.99248">
        <ele>203.6</ele>
        <time>2024-04-28T08:13:26Z</time>
      </trkpt>
      <trkpt lat="50.09155" lon="3.99262">
        <ele>203.6</ele>
        <time>2024-04-28T08:13:27Z</time>
      </trkpt>
      <trkpt lat="50.09157" lon="3.99275">
        <ele>203.6</ele>
        <time>2024-04-28T08:13:28Z</time>
      </trkpt>
      <trkpt lat="50.09158" lon="3.99288">
        <ele>203.6</ele>
        <time>2024-04-28T08:13:29Z</time>
      </trkpt>
      <trkpt lat="50.09159" lon="3.993">
        <ele>203.2</ele>
        <time>2024-04-28T08:13:30Z</time>
      </trkpt>
      <trkpt lat="50.0916" lon="3.99312">
        <ele>203.4</ele>
        <time>2024-04-28T08:13:31Z</time>
      </trkpt>
      <trkpt lat="50.09161" lon="3.99323">
        <ele>203.4</ele>
        <time>2024-04-28T08:13:32Z</time>
      </trkpt>
      <trkpt lat="50.09162" lon="3.99334">
        <ele>203.4</ele>
        <time>2024-04-28T08:13:33Z</time>
      </trkpt>
      <trkpt lat="50.09163" lon="3.99343">
        <ele>203.4</ele>
        <time>2024-04-28T08:13:34Z</time>
      </trkpt>
      <trkpt lat="50.09162" lon="3.99353">
        <ele>203.2</ele>
        <time>2024-04-28T08:13:35Z</time>
      </trkpt>
      <trkpt lat="50.09159" lon="3.99362">
        <ele>203.4</ele>
        <time>2024-04-28T08:13:36Z</time>
      </trkpt>
      <trkpt lat="50.09155" lon="3.9937">
        <ele>203.4</ele>
        <time>2024-04-28T08:13:37Z</time>
      </trkpt>
      <trkpt lat="50.09151" lon="3.99379">
        <ele>203.2</ele>
        <time>2024-04-28T08:13:38Z</time>
      </trkpt>
      <trkpt lat="50.09147" lon="3.99388">
        <ele>203.2</ele>
        <time>2024-04-28T08:13:39Z</time>
      </trkpt>
      <trkpt lat="50.09144" lon="3.99397">
        <ele>203.2</ele>
        <time>2024-04-28T08:13:40Z</time>
      </trkpt>
      <trkpt lat="50.0914" lon="3.99405">
        <ele>203.4</ele>
        <time>2024-04-28T08:13:41Z</time>
      </trkpt>
      <trkpt lat="50.09136" lon="3.99414">
        <ele>203.4</ele>
        <time>2024-04-28T08:13:42Z</time>
      </trkpt>
      <trkpt lat="50.09132" lon="3.99423">
        <ele>203.2</ele>
        <time>2024-04-28T08:13:43Z</time>
      </trkpt>
      <trkpt lat="50.09128" lon="3.99431">
        <ele>203.4</ele>
        <time>2024-04-28T08:13:44Z</time>
      </trkpt>
      <trkpt lat="50.09125" lon="3.99439">
        <ele>203.4</ele>
        <time>2024-04-28T08:13:45Z</time>
      </trkpt>
      <trkpt lat="50.09121" lon="3.99448">
        <ele>203.4</ele>
        <time>2024-04-28T08:13:46Z</time>
      </trkpt>
      <trkpt lat="50.09117" lon="3.99456">
        <ele>203.4</ele>
        <time>2024-04-28T08:13:47Z</time>
      </trkpt>
      <trkpt lat="50.09113" lon="3.99464">
        <ele>203.4</ele>
        <time>2024-04-28T08:13:48Z</time>
      </trkpt>
      <trkpt lat="50.09109" lon="3.99473">
        <ele>203.4</ele>
        <time>2024-04-28T08:13:49Z</time>
      </trkpt>
      <trkpt lat="50.09105" lon="3.99482">
        <ele>203.4</ele>
        <time>2024-04-28T08:13:50Z</time>
      </trkpt>
      <trkpt lat="50.09101" lon="3.99491">
        <ele>203.4</ele>
        <time>2024-04-28T08:13:51Z</time>
      </trkpt>
      <trkpt lat="50.09097" lon="3.995">
        <ele>203.6</ele>
        <time>2024-04-28T08:13:52Z</time>
      </trkpt>
      <trkpt lat="50.09093" lon="3.99509">
        <ele>203.6</ele>
        <time>2024-04-28T08:13:53Z</time>
      </trkpt>
      <trkpt lat="50.09089" lon="3.99519">
        <ele>203.6</ele>
        <time>2024-04-28T08:13:54Z</time>
      </trkpt>
      <trkpt lat="50.09085" lon="3.99528">
        <ele>203.6</ele>
        <time>2024-04-28T08:13:55Z</time>
      </trkpt>
      <trkpt lat="50.0908" lon="3.99538">
        <ele>203.6</ele>
        <time>2024-04-28T08:13:56Z</time>
      </trkpt>
      <trkpt lat="50.09076" lon="3.99547">
        <ele>203.8</ele>
        <time>2024-04-28T08:13:57Z</time>
      </trkpt>
      <trkpt lat="50.09072" lon="3.99556">
        <ele>203.6</ele>
        <time>2024-04-28T08:13:58Z</time>
      </trkpt>
      <trkpt lat="50.09068" lon="3.99566">
        <ele>203.6</ele>
        <time>2024-04-28T08:13:59Z</time>
      </trkpt>
      <trkpt lat="50.09063" lon="3.99575">
        <ele>203.8</ele>
        <time>2024-04-28T08:14:00Z</time>
      </trkpt>
      <trkpt lat="50.09059" lon="3.99585">
        <ele>203.6</ele>
        <time>2024-04-28T08:14:01Z</time>
      </trkpt>
      <trkpt lat="50.09055" lon="3.99595">
        <ele>203.6</ele>
        <time>2024-04-28T08:14:02Z</time>
      </trkpt>
      <trkpt lat="50.0905" lon="3.99605">
        <ele>203.6</ele>
        <time>2024-04-28T08:14:03Z</time>
      </trkpt>
      <trkpt lat="50.09046" lon="3.99614">
        <ele>203.8</ele>
        <time>2024-04-28T08:14:04Z</time>
      </trkpt>
      <trkpt lat="50.09042" lon="3.99624">
        <ele>203.8</ele>
        <time>2024-04-28T08:14:05Z</time>
      </trkpt>
      <trkpt lat="50.09038" lon="3.99633">
        <ele>203.8</ele>
        <time>2024-04-28T08:14:06Z</time>
      </trkpt>
      <trkpt lat="50.09034" lon="3.99643">
        <ele>203.8</ele>
        <time>2024-04-28T08:14:07Z</time>
      </trkpt>
      <trkpt lat="50.0903" lon="3.99653">
        <ele>203.8</ele>
        <time>2024-04-28T08:14:08Z</time>
      </trkpt>
      <trkpt lat="50.09026" lon="3.99662">
        <ele>204.2</ele>
        <time>2024-04-28T08:14:09Z</time>
      </trkpt>
      <trkpt lat="50.09021" lon="3.99672">
        <ele>204.2</ele>
        <time>2024-04-28T08:14:10Z</time>
      </trkpt>
      <trkpt lat="50.09017" lon="3.99681">
        <ele>204.2</ele>
        <time>2024-04-28T08:14:11Z</time>
      </trkpt>
      <trkpt lat="50.09013" lon="3.99691">
        <ele>204.4</ele>
        <time>2024-04-28T08:14:12Z</time>
      </trkpt>
      <trkpt lat="50.09008" lon="3.99701">
        <ele>204.6</ele>
        <time>2024-04-28T08:14:13Z</time>
      </trkpt>
      <trkpt lat="50.09004" lon="3.9971">
        <ele>204.6</ele>
        <time>2024-04-28T08:14:14Z</time>
      </trkpt>
      <trkpt lat="50.09" lon="3.9972">
        <ele>204.6</ele>
        <time>2024-04-28T08:14:15Z</time>
      </trkpt>
      <trkpt lat="50.08996" lon="3.99729">
        <ele>204.4</ele>
        <time>2024-04-28T08:14:16Z</time>
      </trkpt>
      <trkpt lat="50.08991" lon="3.99739">
        <ele>204.6</ele>
        <time>2024-04-28T08:14:17Z</time>
      </trkpt>
      <trkpt lat="50.08987" lon="3.99748">
        <ele>204.6</ele>
        <time>2024-04-28T08:14:18Z</time>
      </trkpt>
      <trkpt lat="50.08983" lon="3.99758">
        <ele>204.6</ele>
        <time>2024-04-28T08:14:19Z</time>
      </trkpt>
      <trkpt lat="50.08978" lon="3.99768">
        <ele>204.8</ele>
        <time>2024-04-28T08:14:20Z</time>
      </trkpt>
      <trkpt lat="50.08974" lon="3.99778">
        <ele>204.8</ele>
        <time>2024-04-28T08:14:21Z</time>
      </trkpt>
      <trkpt lat="50.0897" lon="3.99788">
        <ele>204.8</ele>
        <time>2024-04-28T08:14:22Z</time>
      </trkpt>
      <trkpt lat="50.08965" lon="3.99798">
        <ele>205</ele>
        <time>2024-04-28T08:14:23Z</time>
      </trkpt>
      <trkpt lat="50.0896" lon="3.99808">
        <ele>205</ele>
        <time>2024-04-28T08:14:24Z</time>
      </trkpt>
      <trkpt lat="50.08955" lon="3.99819">
        <ele>205</ele>
        <time>2024-04-28T08:14:25Z</time>
      </trkpt>
      <trkpt lat="50.08951" lon="3.9983">
        <ele>205</ele>
        <time>2024-04-28T08:14:26Z</time>
      </trkpt>
      <trkpt lat="50.08945" lon="3.99841">
        <ele>204.8</ele>
        <time>2024-04-28T08:14:27Z</time>
      </trkpt>
      <trkpt lat="50.0894" lon="3.99852">
        <ele>204.8</ele>
        <time>2024-04-28T08:14:28Z</time>
      </trkpt>
      <trkpt lat="50.08935" lon="3.99864">
        <ele>204.8</ele>
        <time>2024-04-28T08:14:29Z</time>
      </trkpt>
      <trkpt lat="50.0893" lon="3.99876">
        <ele>204.6</ele>
        <time>2024-04-28T08:14:30Z</time>
      </trkpt>
      <trkpt lat="50.08925" lon="3.99888">
        <ele>204.4</ele>
        <time>2024-04-28T08:14:31Z</time>
      </trkpt>
      <trkpt lat="50.08919" lon="3.999">
        <ele>204.4</ele>
        <time>2024-04-28T08:14:32Z</time>
      </trkpt>
      <trkpt lat="50.08914" lon="3.99913">
        <ele>204.2</ele>
        <time>2024-04-28T08:14:33Z</time>
      </trkpt>
      <trkpt lat="50.08908" lon="3.99925">
        <ele>204</ele>
        <time>2024-04-28T08:14:34Z</time>
      </trkpt>
      <trkpt lat="50.08902" lon="3.99938">
        <ele>203.6</ele>
        <time>2024-04-28T08:14:35Z</time>
      </trkpt>
      <trkpt lat="50.08896" lon="3.99951">
        <ele>203.2</ele>
        <time>2024-04-28T08:14:36Z</time>
      </trkpt>
      <trkpt lat="50.0889" lon="3.99964">
        <ele>202.6</ele>
        <time>2024-04-28T08:14:37Z</time>
      </trkpt>
      <trkpt lat="50.08884" lon="3.99978">
        <ele>202.4</ele>
        <time>2024-04-28T08:14:38Z</time>
      </trkpt>
      <trkpt lat="50.08879" lon="3.99991">
        <ele>202</ele>
        <time>2024-04-28T08:14:39Z</time>
      </trkpt>
      <trkpt lat="50.08873" lon="4.00005">
        <ele>202</ele>
        <time>2024-04-28T08:14:40Z</time>
      </trkpt>
      <trkpt lat="50.08867" lon="4.00019">
        <ele>201.8</ele>
        <time>2024-04-28T08:14:41Z</time>
      </trkpt>
      <trkpt lat="50.08861" lon="4.00032">
        <ele>201.8</ele>
        <time>2024-04-28T08:14:42Z</time>
      </trkpt>
      <trkpt lat="50.08854" lon="4.00046">
        <ele>201.6</ele>
        <time>2024-04-28T08:14:43Z</time>
      </trkpt>
      <trkpt lat="50.08848" lon="4.0006">
        <ele>200.6</ele>
        <time>2024-04-28T08:14:44Z</time>
      </trkpt>
      <trkpt lat="50.08842" lon="4.00073">
        <ele>200.2</ele>
        <time>2024-04-28T08:14:45Z</time>
      </trkpt>
      <trkpt lat="50.08834" lon="4.00086">
        <ele>199.4</ele>
        <time>2024-04-28T08:14:46Z</time>
      </trkpt>
      <trkpt lat="50.08825" lon="4.00095">
        <ele>198.6</ele>
        <time>2024-04-28T08:14:47Z</time>
      </trkpt>
      <trkpt lat="50.08815" lon="4.00102">
        <ele>198.2</ele>
        <time>2024-04-28T08:14:48Z</time>
      </trkpt>
      <trkpt lat="50.08805" lon="4.00108">
        <ele>197.6</ele>
        <time>2024-04-28T08:14:49Z</time>
      </trkpt>
      <trkpt lat="50.08794" lon="4.00114">
        <ele>197.4</ele>
        <time>2024-04-28T08:14:50Z</time>
      </trkpt>
      <trkpt lat="50.08783" lon="4.0012">
        <ele>197</ele>
        <time>2024-04-28T08:14:51Z</time>
      </trkpt>
      <trkpt lat="50.08773" lon="4.00127">
        <ele>196.6</ele>
        <time>2024-04-28T08:14:52Z</time>
      </trkpt>
      <trkpt lat="50.08763" lon="4.00133">
        <ele>196</ele>
        <time>2024-04-28T08:14:53Z</time>
      </trkpt>
      <trkpt lat="50.08754" lon="4.00141">
        <ele>195</ele>
        <time>2024-04-28T08:14:54Z</time>
      </trkpt>
      <trkpt lat="50.08746" lon="4.00151">
        <ele>194</ele>
        <time>2024-04-28T08:14:55Z</time>
      </trkpt>
      <trkpt lat="50.0874" lon="4.00163">
        <ele>193.6</ele>
        <time>2024-04-28T08:14:56Z</time>
      </trkpt>
      <trkpt lat="50.08737" lon="4.00177">
        <ele>193.2</ele>
        <time>2024-04-28T08:14:57Z</time>
      </trkpt>
      <trkpt lat="50.08736" lon="4.00193">
        <ele>193</ele>
        <time>2024-04-28T08:14:58Z</time>
      </trkpt>
      <trkpt lat="50.08737" lon="4.0021">
        <ele>193</ele>
        <time>2024-04-28T08:14:59Z</time>
      </trkpt>
      <trkpt lat="50.08741" lon="4.00225">
        <ele>192.4</ele>
        <time>2024-04-28T08:15:00Z</time>
      </trkpt>
      <trkpt lat="50.08744" lon="4.00241">
        <ele>191.8</ele>
        <time>2024-04-28T08:15:01Z</time>
      </trkpt>
      <trkpt lat="50.08747" lon="4.00256">
        <ele>191</ele>
        <time>2024-04-28T08:15:02Z</time>
      </trkpt>
      <trkpt lat="50.08748" lon="4.00271">
        <ele>190.6</ele>
        <time>2024-04-28T08:15:03Z</time>
      </trkpt>
      <trkpt lat="50.08746" lon="4.00286">
        <ele>190</ele>
        <time>2024-04-28T08:15:04Z</time>
      </trkpt>
      <trkpt lat="50.08742" lon="4.00299">
        <ele>189.8</ele>
        <time>2024-04-28T08:15:05Z</time>
      </trkpt>
      <trkpt lat="50.08736" lon="4.00311">
        <ele>189.4</ele>
        <time>2024-04-28T08:15:06Z</time>
      </trkpt>
      <trkpt lat="50.0873" lon="4.00324">
        <ele>188.4</ele>
        <time>2024-04-28T08:15:07Z</time>
      </trkpt>
      <trkpt lat="50.08724" lon="4.00337">
        <ele>187.6</ele>
        <time>2024-04-28T08:15:08Z</time>
      </trkpt>
      <trkpt lat="50.08718" lon="4.00349">
        <ele>187.2</ele>
        <time>2024-04-28T08:15:09Z</time>
      </trkpt>
      <trkpt lat="50.08712" lon="4.00362">
        <ele>186.8</ele>
        <time>2024-04-28T08:15:10Z</time>
      </trkpt>
      <trkpt lat="50.08706" lon="4.00374">
        <ele>186.8</ele>
        <time>2024-04-28T08:15:11Z</time>
      </trkpt>
      <trkpt lat="50.087" lon="4.00387">
        <ele>186.6</ele>
        <time>2024-04-28T08:15:12Z</time>
      </trkpt>
      <trkpt lat="50.08694" lon="4.004">
        <ele>186.4</ele>
        <time>2024-04-28T08:15:13Z</time>
      </trkpt>
      <trkpt lat="50.08689" lon="4.00413">
        <ele>185.8</ele>
        <time>2024-04-28T08:15:14Z</time>
      </trkpt>
      <trkpt lat="50.08683" lon="4.00426">
        <ele>185</ele>
        <time>2024-04-28T08:15:15Z</time>
      </trkpt>
      <trkpt lat="50.08678" lon="4.00439">
        <ele>184.6</ele>
        <time>2024-04-28T08:15:16Z</time>
      </trkpt>
      <trkpt lat="50.08673" lon="4.00451">
        <ele>184.6</ele>
        <time>2024-04-28T08:15:17Z</time>
      </trkpt>
      <trkpt lat="50.08669" lon="4.00462">
        <ele>184.4</ele>
        <time>2024-04-28T08:15:18Z</time>
      </trkpt>
      <trkpt lat="50.08665" lon="4.00471">
        <ele>184</ele>
        <time>2024-04-28T08:15:19Z</time>
      </trkpt>
      <trkpt lat="50.08661" lon="4.00479">
        <ele>183.8</ele>
        <time>2024-04-28T08:15:20Z</time>
      </trkpt>
      <trkpt lat="50.08658" lon="4.00487">
        <ele>183.6</ele>
        <time>2024-04-28T08:15:21Z</time>
      </trkpt>
      <trkpt lat="50.08655" lon="4.00494">
        <ele>183.4</ele>
        <time>2024-04-28T08:15:22Z</time>
      </trkpt>
      <trkpt lat="50.08652" lon="4.00501">
        <ele>182.8</ele>
        <time>2024-04-28T08:15:23Z</time>
      </trkpt>
      <trkpt lat="50.08649" lon="4.00507">
        <ele>182</ele>
        <time>2024-04-28T08:15:24Z</time>
      </trkpt>
      <trkpt lat="50.08647" lon="4.00514">
        <ele>181.2</ele>
        <time>2024-04-28T08:15:25Z</time>
      </trkpt>
      <trkpt lat="50.08644" lon="4.0052">
        <ele>181</ele>
        <time>2024-04-28T08:15:26Z</time>
      </trkpt>
      <trkpt lat="50.08642" lon="4.00526">
        <ele>180.4</ele>
        <time>2024-04-28T08:15:27Z</time>
      </trkpt>
      <trkpt lat="50.08639" lon="4.00532">
        <ele>180</ele>
        <time>2024-04-28T08:15:28Z</time>
      </trkpt>
      <trkpt lat="50.08637" lon="4.00537">
        <ele>180</ele>
        <time>2024-04-28T08:15:29Z</time>
      </trkpt>
      <trkpt lat="50.08634" lon="4.00542">
        <ele>179.8</ele>
        <time>2024-04-28T08:15:30Z</time>
      </trkpt>
      <trkpt lat="50.08632" lon="4.00547">
        <ele>179.6</ele>
        <time>2024-04-28T08:15:31Z</time>
      </trkpt>
      <trkpt lat="50.0863" lon="4.00552">
        <ele>179.6</ele>
        <time>2024-04-28T08:15:32Z</time>
      </trkpt>
      <trkpt lat="50.08628" lon="4.00557">
        <ele>179.4</ele>
        <time>2024-04-28T08:15:33Z</time>
      </trkpt>
      <trkpt lat="50.08625" lon="4.00563">
        <ele>179.2</ele>
        <time>2024-04-28T08:15:34Z</time>
      </trkpt>
      <trkpt lat="50.08623" lon="4.00569">
        <ele>179.2</ele>
        <time>2024-04-28T08:15:35Z</time>
      </trkpt>
      <trkpt lat="50.0862" lon="4.00575">
        <ele>179.2</ele>
        <time>2024-04-28T08:15:36Z</time>
      </trkpt>
      <trkpt lat="50.08618" lon="4.00581">
        <ele>179</ele>
        <time>2024-04-28T08:15:37Z</time>
      </trkpt>
      <trkpt lat="50.08615" lon="4.00588">
        <ele>179</ele>
        <time>2024-04-28T08:15:38Z</time>
      </trkpt>
      <trkpt lat="50.08612" lon="4.00595">
        <ele>179</ele>
        <time>2024-04-28T08:15:39Z</time>
      </trkpt>
      <trkpt lat="50.08609" lon="4.00602">
        <ele>179</ele>
        <time>2024-04-28T08:15:40Z</time>
      </trkpt>
      <trkpt lat="50.08606" lon="4.00608">
        <ele>179</ele>
        <time>2024-04-28T08:15:41Z</time>
      </trkpt>
      <trkpt lat="50.08603" lon="4.00615">
        <ele>178.8</ele>
        <time>2024-04-28T08:15:42Z</time>
      </trkpt>
      <trkpt lat="50.08599" lon="4.00622">
        <ele>178.6</ele>
        <time>2024-04-28T08:15:43Z</time>
      </trkpt>
      <trkpt lat="50.08596" lon="4.00629">
        <ele>178.8</ele>
        <time>2024-04-28T08:15:44Z</time>
      </trkpt>
      <trkpt lat="50.08593" lon="4.00637">
        <ele>178.6</ele>
        <time>2024-04-28T08:15:45Z</time>
      </trkpt>
      <trkpt lat="50.0859" lon="4.00644">
        <ele>178.4</ele>
        <time>2024-04-28T08:15:46Z</time>
      </trkpt>
      <trkpt lat="50.08586" lon="4.00651">
        <ele>178.4</ele>
        <time>2024-04-28T08:15:47Z</time>
      </trkpt>
      <trkpt lat="50.08583" lon="4.00659">
        <ele>178.4</ele>
        <time>2024-04-28T08:15:48Z</time>
      </trkpt>
      <trkpt lat="50.0858" lon="4.00666">
        <ele>178.4</ele>
        <time>2024-04-28T08:15:49Z</time>
      </trkpt>
      <trkpt lat="50.08576" lon="4.00674">
        <ele>178.4</ele>
        <time>2024-04-28T08:15:50Z</time>
      </trkpt>
      <trkpt lat="50.08573" lon="4.00682">
        <ele>178.4</ele>
        <time>2024-04-28T08:15:51Z</time>
      </trkpt>
      <trkpt lat="50.08569" lon="4.0069">
        <ele>178.4</ele>
        <time>2024-04-28T08:15:52Z</time>
      </trkpt>
      <trkpt lat="50.08565" lon="4.00699">
        <ele>178.2</ele>
        <time>2024-04-28T08:15:53Z</time>
      </trkpt>
      <trkpt lat="50.08562" lon="4.00707">
        <ele>178.2</ele>
        <time>2024-04-28T08:15:54Z</time>
      </trkpt>
      <trkpt lat="50.08558" lon="4.00715">
        <ele>178.2</ele>
        <time>2024-04-28T08:15:55Z</time>
      </trkpt>
      <trkpt lat="50.08554" lon="4.00724">
        <ele>178</ele>
        <time>2024-04-28T08:15:56Z</time>
      </trkpt>
      <trkpt lat="50.0855" lon="4.00732">
        <ele>178</ele>
        <time>2024-04-28T08:15:57Z</time>
      </trkpt>
      <trkpt lat="50.08547" lon="4.0074">
        <ele>177.8</ele>
        <time>2024-04-28T08:15:58Z</time>
      </trkpt>
      <trkpt lat="50.08543" lon="4.00749">
        <ele>177.8</ele>
        <time>2024-04-28T08:15:59Z</time>
      </trkpt>
      <trkpt lat="50.08539" lon="4.00757">
        <ele>177.8</ele>
        <time>2024-04-28T08:16:00Z</time>
      </trkpt>
      <trkpt lat="50.08535" lon="4.00766">
        <ele>177.8</ele>
        <time>2024-04-28T08:16:01Z</time>
      </trkpt>
      <trkpt lat="50.08531" lon="4.00775">
        <ele>177.6</ele>
        <time>2024-04-28T08:16:02Z</time>
      </trkpt>
      <trkpt lat="50.08528" lon="4.00783">
        <ele>177.6</ele>
        <time>2024-04-28T08:16:03Z</time>
      </trkpt>
      <trkpt lat="50.08524" lon="4.00792">
        <ele>177.6</ele>
        <time>2024-04-28T08:16:04Z</time>
      </trkpt>
      <trkpt lat="50.0852" lon="4.00801">
        <ele>177.6</ele>
        <time>2024-04-28T08:16:05Z</time>
      </trkpt>
      <trkpt lat="50.08516" lon="4.0081">
        <ele>177.4</ele>
        <time>2024-04-28T08:16:06Z</time>
      </trkpt>
      <trkpt lat="50.08512" lon="4.0082">
        <ele>177.4</ele>
        <time>2024-04-28T08:16:07Z</time>
      </trkpt>
      <trkpt lat="50.08508" lon="4.00829">
        <ele>177.4</ele>
        <time>2024-04-28T08:16:08Z</time>
      </trkpt>
      <trkpt lat="50.08503" lon="4.00838">
        <ele>177.2</ele>
        <time>2024-04-28T08:16:09Z</time>
      </trkpt>
      <trkpt lat="50.08499" lon="4.00847">
        <ele>177</ele>
        <time>2024-04-28T08:16:10Z</time>
      </trkpt>
      <trkpt lat="50.08495" lon="4.00857">
        <ele>177.2</ele>
        <time>2024-04-28T08:16:11Z</time>
      </trkpt>
      <trkpt lat="50.08491" lon="4.00866">
        <ele>177.2</ele>
        <time>2024-04-28T08:16:12Z</time>
      </trkpt>
      <trkpt lat="50.08487" lon="4.00875">
        <ele>177</ele>
        <time>2024-04-28T08:16:13Z</time>
      </trkpt>
      <trkpt lat="50.08483" lon="4.00884">
        <ele>176.8</ele>
        <time>2024-04-28T08:16:14Z</time>
      </trkpt>
      <trkpt lat="50.08479" lon="4.00894">
        <ele>176.8</ele>
        <time>2024-04-28T08:16:15Z</time>
      </trkpt>
      <trkpt lat="50.08475" lon="4.00903">
        <ele>176.6</ele>
        <time>2024-04-28T08:16:16Z</time>
      </trkpt>
      <trkpt lat="50.08471" lon="4.00913">
        <ele>176.6</ele>
        <time>2024-04-28T08:16:17Z</time>
      </trkpt>
      <trkpt lat="50.08467" lon="4.00922">
        <ele>176.6</ele>
        <time>2024-04-28T08:16:18Z</time>
      </trkpt>
      <trkpt lat="50.08463" lon="4.00932">
        <ele>176.6</ele>
        <time>2024-04-28T08:16:19Z</time>
      </trkpt>
      <trkpt lat="50.08459" lon="4.00941">
        <ele>176.4</ele>
        <time>2024-04-28T08:16:20Z</time>
      </trkpt>
      <trkpt lat="50.08454" lon="4.0095">
        <ele>176.4</ele>
        <time>2024-04-28T08:16:21Z</time>
      </trkpt>
      <trkpt lat="50.0845" lon="4.00959">
        <ele>176.2</ele>
        <time>2024-04-28T08:16:22Z</time>
      </trkpt>
      <trkpt lat="50.08446" lon="4.00968">
        <ele>176.2</ele>
        <time>2024-04-28T08:16:23Z</time>
      </trkpt>
      <trkpt lat="50.08442" lon="4.00977">
        <ele>176.4</ele>
        <time>2024-04-28T08:16:24Z</time>
      </trkpt>
      <trkpt lat="50.08438" lon="4.00986">
        <ele>176.2</ele>
        <time>2024-04-28T08:16:25Z</time>
      </trkpt>
      <trkpt lat="50.08435" lon="4.00995">
        <ele>176.2</ele>
        <time>2024-04-28T08:16:26Z</time>
      </trkpt>
      <trkpt lat="50.08431" lon="4.01003">
        <ele>176.2</ele>
        <time>2024-04-28T08:16:27Z</time>
      </trkpt>
      <trkpt lat="50.08427" lon="4.01012">
        <ele>176.2</ele>
        <time>2024-04-28T08:16:28Z</time>
      </trkpt>
      <trkpt lat="50.08423" lon="4.0102">
        <ele>176.4</ele>
        <time>2024-04-28T08:16:29Z</time>
      </trkpt>
      <trkpt lat="50.0842" lon="4.01027">
        <ele>176.4</ele>
        <time>2024-04-28T08:16:30Z</time>
      </trkpt>
      <trkpt lat="50.08417" lon="4.01035">
        <ele>176.8</ele>
        <time>2024-04-28T08:16:31Z</time>
      </trkpt>
      <trkpt lat="50.08413" lon="4.01042">
        <ele>176.8</ele>
        <time>2024-04-28T08:16:32Z</time>
      </trkpt>
      <trkpt lat="50.0841" lon="4.01049">
        <ele>176.8</ele>
        <time>2024-04-28T08:16:33Z</time>
      </trkpt>
      <trkpt lat="50.08407" lon="4.01056">
        <ele>177.6</ele>
        <time>2024-04-28T08:16:34Z</time>
      </trkpt>
      <trkpt lat="50.08404" lon="4.01063">
        <ele>177.8</ele>
        <time>2024-04-28T08:16:35Z</time>
      </trkpt>
      <trkpt lat="50.08401" lon="4.0107">
        <ele>178</ele>
        <time>2024-04-28T08:16:36Z</time>
      </trkpt>
      <trkpt lat="50.08398" lon="4.01077">
        <ele>178.4</ele>
        <time>2024-04-28T08:16:37Z</time>
      </trkpt>
      <trkpt lat="50.08395" lon="4.01084">
        <ele>178.6</ele>
        <time>2024-04-28T08:16:38Z</time>
      </trkpt>
      <trkpt lat="50.08392" lon="4.0109">
        <ele>178.8</ele>
        <time>2024-04-28T08:16:39Z</time>
      </trkpt>
      <trkpt lat="50.08389" lon="4.01097">
        <ele>178.8</ele>
        <time>2024-04-28T08:16:40Z</time>
      </trkpt>
      <trkpt lat="50.08387" lon="4.01104">
        <ele>179.4</ele>
        <time>2024-04-28T08:16:41Z</time>
      </trkpt>
      <trkpt lat="50.08384" lon="4.0111">
        <ele>179.8</ele>
        <time>2024-04-28T08:16:42Z</time>
      </trkpt>
      <trkpt lat="50.08381" lon="4.01117">
        <ele>180</ele>
        <time>2024-04-28T08:16:43Z</time>
      </trkpt>
      <trkpt lat="50.08378" lon="4.01124">
        <ele>180.4</ele>
        <time>2024-04-28T08:16:44Z</time>
      </trkpt>
      <trkpt lat="50.08375" lon="4.0113">
        <ele>180.8</ele>
        <time>2024-04-28T08:16:45Z</time>
      </trkpt>
      <trkpt lat="50.08372" lon="4.01137">
        <ele>181.2</ele>
        <time>2024-04-28T08:16:46Z</time>
      </trkpt>
      <trkpt lat="50.08369" lon="4.01143">
        <ele>181.8</ele>
        <time>2024-04-28T08:16:47Z</time>
      </trkpt>
      <trkpt lat="50.08366" lon="4.01149">
        <ele>182.2</ele>
        <time>2024-04-28T08:16:48Z</time>
      </trkpt>
      <trkpt lat="50.08364" lon="4.01155">
        <ele>182.4</ele>
        <time>2024-04-28T08:16:49Z</time>
      </trkpt>
      <trkpt lat="50.08361" lon="4.01162">
        <ele>182.8</ele>
        <time>2024-04-28T08:16:50Z</time>
      </trkpt>
      <trkpt lat="50.08358" lon="4.01168">
        <ele>183</ele>
        <time>2024-04-28T08:16:51Z</time>
      </trkpt>
      <trkpt lat="50.08355" lon="4.01174">
        <ele>183.2</ele>
        <time>2024-04-28T08:16:52Z</time>
      </trkpt>
      <trkpt lat="50.08353" lon="4.0118">
        <ele>183.4</ele>
        <time>2024-04-28T08:16:53Z</time>
      </trkpt>
      <trkpt lat="50.0835" lon="4.01186">
        <ele>183.8</ele>
        <time>2024-04-28T08:16:54Z</time>
      </trkpt>
      <trkpt lat="50.08347" lon="4.01192">
        <ele>184.2</ele>
        <time>2024-04-28T08:16:55Z</time>
      </trkpt>
      <trkpt lat="50.08345" lon="4.01198">
        <ele>184.2</ele>
        <time>2024-04-28T08:16:56Z</time>
      </trkpt>
      <trkpt lat="50.08342" lon="4.01204">
        <ele>184.4</ele>
        <time>2024-04-28T08:16:57Z</time>
      </trkpt>
      <trkpt lat="50.08339" lon="4.0121">
        <ele>184.6</ele>
        <time>2024-04-28T08:16:58Z</time>
      </trkpt>
      <trkpt lat="50.08337" lon="4.01216">
        <ele>184.6</ele>
        <time>2024-04-28T08:16:59Z</time>
      </trkpt>
      <trkpt lat="50.08334" lon="4.01222">
        <ele>185.4</ele>
        <time>2024-04-28T08:17:00Z</time>
      </trkpt>
      <trkpt lat="50.08332" lon="4.01228">
        <ele>185.8</ele>
        <time>2024-04-28T08:17:01Z</time>
      </trkpt>
      <trkpt lat="50.0833" lon="4.01233">
        <ele>185.8</ele>
        <time>2024-04-28T08:17:02Z</time>
      </trkpt>
      <trkpt lat="50.08327" lon="4.01239">
        <ele>186.2</ele>
        <time>2024-04-28T08:17:03Z</time>
      </trkpt>
      <trkpt lat="50.08325" lon="4.01245">
        <ele>186.4</ele>
        <time>2024-04-28T08:17:04Z</time>
      </trkpt>
      <trkpt lat="50.08322" lon="4.0125">
        <ele>186.8</ele>
        <time>2024-04-28T08:17:05Z</time>
      </trkpt>
      <trkpt lat="50.0832" lon="4.01255">
        <ele>187</ele>
        <time>2024-04-28T08:17:06Z</time>
      </trkpt>
      <trkpt lat="50.08318" lon="4.01261">
        <ele>187.6</ele>
        <time>2024-04-28T08:17:07Z</time>
      </trkpt>
      <trkpt lat="50.08315" lon="4.01266">
        <ele>187.8</ele>
        <time>2024-04-28T08:17:08Z</time>
      </trkpt>
      <trkpt lat="50.08313" lon="4.01271">
        <ele>188.2</ele>
        <time>2024-04-28T08:17:09Z</time>
      </trkpt>
      <trkpt lat="50.08311" lon="4.01277">
        <ele>188.4</ele>
        <time>2024-04-28T08:17:10Z</time>
      </trkpt>
      <trkpt lat="50.08308" lon="4.01282">
        <ele>188.4</ele>
        <time>2024-04-28T08:17:11Z</time>
      </trkpt>
      <trkpt lat="50.08306" lon="4.01287">
        <ele>188.4</ele>
        <time>2024-04-28T08:17:12Z</time>
      </trkpt>
      <trkpt lat="50.08304" lon="4.01292">
        <ele>188.6</ele>
        <time>2024-04-28T08:17:13Z</time>
      </trkpt>
      <trkpt lat="50.08302" lon="4.01298">
        <ele>188.8</ele>
        <time>2024-04-28T08:17:14Z</time>
      </trkpt>
      <trkpt lat="50.08299" lon="4.01303">
        <ele>189</ele>
        <time>2024-04-28T08:17:15Z</time>
      </trkpt>
      <trkpt lat="50.08297" lon="4.01308">
        <ele>189.2</ele>
        <time>2024-04-28T08:17:16Z</time>
      </trkpt>
      <trkpt lat="50.08294" lon="4.01313">
        <ele>189.4</ele>
        <time>2024-04-28T08:17:17Z</time>
      </trkpt>
      <trkpt lat="50.08292" lon="4.01319">
        <ele>189.6</ele>
        <time>2024-04-28T08:17:18Z</time>
      </trkpt>
      <trkpt lat="50.0829" lon="4.01324">
        <ele>189.6</ele>
        <time>2024-04-28T08:17:19Z</time>
      </trkpt>
      <trkpt lat="50.08287" lon="4.01329">
        <ele>189.8</ele>
        <time>2024-04-28T08:17:20Z</time>
      </trkpt>
      <trkpt lat="50.08285" lon="4.01335">
        <ele>190.4</ele>
        <time>2024-04-28T08:17:21Z</time>
      </trkpt>
      <trkpt lat="50.08283" lon="4.0134">
        <ele>191</ele>
        <time>2024-04-28T08:17:22Z</time>
      </trkpt>
      <trkpt lat="50.0828" lon="4.01346">
        <ele>191.2</ele>
        <time>2024-04-28T08:17:23Z</time>
      </trkpt>
      <trkpt lat="50.08278" lon="4.01351">
        <ele>191.6</ele>
        <time>2024-04-28T08:17:24Z</time>
      </trkpt>
      <trkpt lat="50.08276" lon="4.01356">
        <ele>191.8</ele>
        <time>2024-04-28T08:17:25Z</time>
      </trkpt>
      <trkpt lat="50.08273" lon="4.01362">
        <ele>192.2</ele>
        <time>2024-04-28T08:17:26Z</time>
      </trkpt>
      <trkpt lat="50.08271" lon="4.01367">
        <ele>192.8</ele>
        <time>2024-04-28T08:17:27Z</time>
      </trkpt>
      <trkpt lat="50.08269" lon="4.01372">
        <ele>193</ele>
        <time>2024-04-28T08:17:28Z</time>
      </trkpt>
      <trkpt lat="50.08266" lon="4.01377">
        <ele>193.2</ele>
        <time>2024-04-28T08:17:29Z</time>
      </trkpt>
      <trkpt lat="50.08264" lon="4.01383">
        <ele>193.2</ele>
        <time>2024-04-28T08:17:30Z</time>
      </trkpt>
      <trkpt lat="50.08262" lon="4.01388">
        <ele>193.4</ele>
        <time>2024-04-28T08:17:31Z</time>
      </trkpt>
      <trkpt lat="50.08259" lon="4.01393">
        <ele>193.6</ele>
        <time>2024-04-28T08:17:32Z</time>
      </trkpt>
      <trkpt lat="50.08257" lon="4.01398">
        <ele>194.2</ele>
        <time>2024-04-28T08:17:33Z</time>
      </trkpt>
      <trkpt lat="50.08254" lon="4.01404">
        <ele>195</ele>
        <time>2024-04-28T08:17:34Z</time>
      </trkpt>
      <trkpt lat="50.08252" lon="4.01409">
        <ele>195.2</ele>
        <time>2024-04-28T08:17:35Z</time>
      </trkpt>
      <trkpt lat="50.0825" lon="4.01414">
        <ele>195.6</ele>
        <time>2024-04-28T08:17:36Z</time>
      </trkpt>
      <trkpt lat="50.08247" lon="4.0142">
        <ele>195.6</ele>
        <time>2024-04-28T08:17:37Z</time>
      </trkpt>
      <trkpt lat="50.08245" lon="4.01425">
        <ele>195.8</ele>
        <time>2024-04-28T08:17:38Z</time>
      </trkpt>
      <trkpt lat="50.08242" lon="4.0143">
        <ele>196</ele>
        <time>2024-04-28T08:17:39Z</time>
      </trkpt>
      <trkpt lat="50.0824" lon="4.01436">
        <ele>196.4</ele>
        <time>2024-04-28T08:17:40Z</time>
      </trkpt>
      <trkpt lat="50.08237" lon="4.01441">
        <ele>196.6</ele>
        <time>2024-04-28T08:17:41Z</time>
      </trkpt>
      <trkpt lat="50.08235" lon="4.01446">
        <ele>197</ele>
        <time>2024-04-28T08:17:42Z</time>
      </trkpt>
      <trkpt lat="50.08233" lon="4.01451">
        <ele>197.2</ele>
        <time>2024-04-28T08:17:43Z</time>
      </trkpt>
      <trkpt lat="50.08231" lon="4.01456">
        <ele>197.4</ele>
        <time>2024-04-28T08:17:44Z</time>
      </trkpt>
      <trkpt lat="50.08229" lon="4.01461">
        <ele>197.6</ele>
        <time>2024-04-28T08:17:45Z</time>
      </trkpt>
      <trkpt lat="50.08227" lon="4.01466">
        <ele>197.8</ele>
        <time>2024-04-28T08:17:46Z</time>
      </trkpt>
      <trkpt lat="50.08224" lon="4.01471">
        <ele>198</ele>
        <time>2024-04-28T08:17:47Z</time>
      </trkpt>
      <trkpt lat="50.08222" lon="4.01475">
        <ele>198</ele>
        <time>2024-04-28T08:17:48Z</time>
      </trkpt>
      <trkpt lat="50.0822" lon="4.0148">
        <ele>198</ele>
        <time>2024-04-28T08:17:49Z</time>
      </trkpt>
      <trkpt lat="50.08218" lon="4.01485">
        <ele>198.2</ele>
        <time>2024-04-28T08:17:50Z</time>
      </trkpt>
      <trkpt lat="50.08216" lon="4.0149">
        <ele>198.4</ele>
        <time>2024-04-28T08:17:51Z</time>
      </trkpt>
      <trkpt lat="50.08214" lon="4.01495">
        <ele>198.6</ele>
        <time>2024-04-28T08:17:52Z</time>
      </trkpt>
      <trkpt lat="50.08212" lon="4.015">
        <ele>198.6</ele>
        <time>2024-04-28T08:17:53Z</time>
      </trkpt>
      <trkpt lat="50.0821" lon="4.01505">
        <ele>198.8</ele>
        <time>2024-04-28T08:17:54Z</time>
      </trkpt>
      <trkpt lat="50.08207" lon="4.0151">
        <ele>199</ele>
        <time>2024-04-28T08:17:55Z</time>
      </trkpt>
      <trkpt lat="50.08205" lon="4.01514">
        <ele>199.2</ele>
        <time>2024-04-28T08:17:56Z</time>
      </trkpt>
      <trkpt lat="50.08203" lon="4.01519">
        <ele>199.2</ele>
        <time>2024-04-28T08:17:57Z</time>
      </trkpt>
      <trkpt lat="50.08201" lon="4.01524">
        <ele>199.4</ele>
        <time>2024-04-28T08:17:58Z</time>
      </trkpt>
      <trkpt lat="50.08199" lon="4.01529">
        <ele>199.6</ele>
        <time>2024-04-28T08:17:59Z</time>
      </trkpt>
      <trkpt lat="50.08197" lon="4.01534">
        <ele>199.6</ele>
        <time>2024-04-28T08:18:00Z</time>
      </trkpt>
      <trkpt lat="50.08195" lon="4.01539">
        <ele>199.8</ele>
        <time>2024-04-28T08:18:01Z</time>
      </trkpt>
      <trkpt lat="50.08192" lon="4.01544">
        <ele>200.2</ele>
        <time>2024-04-28T08:18:02Z</time>
      </trkpt>
      <trkpt lat="50.0819" lon="4.01549">
        <ele>200.2</ele>
        <time>2024-04-28T08:18:03Z</time>
      </trkpt>
      <trkpt lat="50.08188" lon="4.01554">
        <ele>200.2</ele>
        <time>2024-04-28T08:18:04Z</time>
      </trkpt>
      <trkpt lat="50.08186" lon="4.01559">
        <ele>200.4</ele>
        <time>2024-04-28T08:18:05Z</time>
      </trkpt>
      <trkpt lat="50.08183" lon="4.01564">
        <ele>200.6</ele>
        <time>2024-04-28T08:18:06Z</time>
      </trkpt>
      <trkpt lat="50.08181" lon="4.01569">
        <ele>200.8</ele>
        <time>2024-04-28T08:18:07Z</time>
      </trkpt>
      <trkpt lat="50.08179" lon="4.01574">
        <ele>201.4</ele>
        <time>2024-04-28T08:18:08Z</time>
      </trkpt>
      <trkpt lat="50.08177" lon="4.01579">
        <ele>201.8</ele>
        <time>2024-04-28T08:18:09Z</time>
      </trkpt>
      <trkpt lat="50.08174" lon="4.01584">
        <ele>202.2</ele>
        <time>2024-04-28T08:18:10Z</time>
      </trkpt>
      <trkpt lat="50.08172" lon="4.01589">
        <ele>202.6</ele>
        <time>2024-04-28T08:18:11Z</time>
      </trkpt>
      <trkpt lat="50.0817" lon="4.01594">
        <ele>203</ele>
        <time>2024-04-28T08:18:12Z</time>
      </trkpt>
      <trkpt lat="50.08168" lon="4.01599">
        <ele>203.2</ele>
        <time>2024-04-28T08:18:13Z</time>
      </trkpt>
      <trkpt lat="50.08166" lon="4.01605">
        <ele>203.4</ele>
        <time>2024-04-28T08:18:14Z</time>
      </trkpt>
      <trkpt lat="50.08164" lon="4.0161">
        <ele>203.8</ele>
        <time>2024-04-28T08:18:15Z</time>
      </trkpt>
      <trkpt lat="50.08162" lon="4.01615">
        <ele>204</ele>
        <time>2024-04-28T08:18:16Z</time>
      </trkpt>
      <trkpt lat="50.0816" lon="4.0162">
        <ele>204</ele>
        <time>2024-04-28T08:18:17Z</time>
      </trkpt>
      <trkpt lat="50.08158" lon="4.01625">
        <ele>204.4</ele>
        <time>2024-04-28T08:18:18Z</time>
      </trkpt>
      <trkpt lat="50.08155" lon="4.01631">
        <ele>204.4</ele>
        <time>2024-04-28T08:18:19Z</time>
      </trkpt>
      <trkpt lat="50.08153" lon="4.01636">
        <ele>204.6</ele>
        <time>2024-04-28T08:18:20Z</time>
      </trkpt>
      <trkpt lat="50.0815" lon="4.01641">
        <ele>205</ele>
        <time>2024-04-28T08:18:21Z</time>
      </trkpt>
      <trkpt lat="50.08148" lon="4.01646">
        <ele>204.8</ele>
        <time>2024-04-28T08:18:22Z</time>
      </trkpt>
      <trkpt lat="50.08146" lon="4.01651">
        <ele>204.8</ele>
        <time>2024-04-28T08:18:23Z</time>
      </trkpt>
      <trkpt lat="50.08143" lon="4.01656">
        <ele>205</ele>
        <time>2024-04-28T08:18:24Z</time>
      </trkpt>
      <trkpt lat="50.08141" lon="4.01661">
        <ele>205</ele>
        <time>2024-04-28T08:18:25Z</time>
      </trkpt>
      <trkpt lat="50.08139" lon="4.01667">
        <ele>205.2</ele>
        <time>2024-04-28T08:18:26Z</time>
      </trkpt>
      <trkpt lat="50.08136" lon="4.01672">
        <ele>205.2</ele>
        <time>2024-04-28T08:18:27Z</time>
      </trkpt>
      <trkpt lat="50.08134" lon="4.01677">
        <ele>205.4</ele>
        <time>2024-04-28T08:18:28Z</time>
      </trkpt>
      <trkpt lat="50.08132" lon="4.01681">
        <ele>205.8</ele>
        <time>2024-04-28T08:18:29Z</time>
      </trkpt>
      <trkpt lat="50.0813" lon="4.01686">
        <ele>205.8</ele>
        <time>2024-04-28T08:18:30Z</time>
      </trkpt>
      <trkpt lat="50.08128" lon="4.01691">
        <ele>206.6</ele>
        <time>2024-04-28T08:18:31Z</time>
      </trkpt>
      <trkpt lat="50.08126" lon="4.01696">
        <ele>207.2</ele>
        <time>2024-04-28T08:18:32Z</time>
      </trkpt>
      <trkpt lat="50.08123" lon="4.01701">
        <ele>207.8</ele>
        <time>2024-04-28T08:18:33Z</time>
      </trkpt>
      <trkpt lat="50.08121" lon="4.01706">
        <ele>208.6</ele>
        <time>2024-04-28T08:18:34Z</time>
      </trkpt>
      <trkpt lat="50.08119" lon="4.01711">
        <ele>208.8</ele>
        <time>2024-04-28T08:18:35Z</time>
      </trkpt>
      <trkpt lat="50.08117" lon="4.01716">
        <ele>209.2</ele>
        <time>2024-04-28T08:18:36Z</time>
      </trkpt>
      <trkpt lat="50.08114" lon="4.01721">
        <ele>209.4</ele>
        <time>2024-04-28T08:18:37Z</time>
      </trkpt>
      <trkpt lat="50.08112" lon="4.01726">
        <ele>209.6</ele>
        <time>2024-04-28T08:18:38Z</time>
      </trkpt>
      <trkpt lat="50.0811" lon="4.01732">
        <ele>209.6</ele>
        <time>2024-04-28T08:18:39Z</time>
      </trkpt>
      <trkpt lat="50.08107" lon="4.01737">
        <ele>209.8</ele>
        <time>2024-04-28T08:18:40Z</time>
      </trkpt>
      <trkpt lat="50.08105" lon="4.01742">
        <ele>210</ele>
        <time>2024-04-28T08:18:41Z</time>
      </trkpt>
      <trkpt lat="50.08103" lon="4.01747">
        <ele>210</ele>
        <time>2024-04-28T08:18:42Z</time>
      </trkpt>
      <trkpt lat="50.08101" lon="4.01752">
        <ele>210.2</ele>
        <time>2024-04-28T08:18:43Z</time>
      </trkpt>
      <trkpt lat="50.08098" lon="4.01757">
        <ele>210.8</ele>
        <time>2024-04-28T08:18:44Z</time>
      </trkpt>
      <trkpt lat="50.08096" lon="4.01762">
        <ele>211.2</ele>
        <time>2024-04-28T08:18:45Z</time>
      </trkpt>
      <trkpt lat="50.08094" lon="4.01767">
        <ele>211.8</ele>
        <time>2024-04-28T08:18:46Z</time>
      </trkpt>
      <trkpt lat="50.08092" lon="4.01773">
        <ele>212.2</ele>
        <time>2024-04-28T08:18:47Z</time>
      </trkpt>
      <trkpt lat="50.08089" lon="4.01778">
        <ele>212.2</ele>
        <time>2024-04-28T08:18:48Z</time>
      </trkpt>
      <trkpt lat="50.08087" lon="4.01783">
        <ele>212.4</ele>
        <time>2024-04-28T08:18:49Z</time>
      </trkpt>
      <trkpt lat="50.08085" lon="4.01788">
        <ele>212.8</ele>
        <time>2024-04-28T08:18:50Z</time>
      </trkpt>
      <trkpt lat="50.08082" lon="4.01794">
        <ele>213</ele>
        <time>2024-04-28T08:18:51Z</time>
      </trkpt>
      <trkpt lat="50.0808" lon="4.01799">
        <ele>213</ele>
        <time>2024-04-28T08:18:52Z</time>
      </trkpt>
      <trkpt lat="50.08078" lon="4.01804">
        <ele>213</ele>
        <time>2024-04-28T08:18:53Z</time>
      </trkpt>
      <trkpt lat="50.08075" lon="4.0181">
        <ele>213</ele>
        <time>2024-04-28T08:18:54Z</time>
      </trkpt>
      <trkpt lat="50.08073" lon="4.01815">
        <ele>213.2</ele>
        <time>2024-04-28T08:18:55Z</time>
      </trkpt>
      <trkpt lat="50.0807" lon="4.01821">
        <ele>213.4</ele>
        <time>2024-04-28T08:18:56Z</time>
      </trkpt>
      <trkpt lat="50.08068" lon="4.01827">
        <ele>213.4</ele>
        <time>2024-04-28T08:18:57Z</time>
      </trkpt>
      <trkpt lat="50.08065" lon="4.01833">
        <ele>213.4</ele>
        <time>2024-04-28T08:18:58Z</time>
      </trkpt>
      <trkpt lat="50.08062" lon="4.01839">
        <ele>213.6</ele>
        <time>2024-04-28T08:18:59Z</time>
      </trkpt>
      <trkpt lat="50.08059" lon="4.01845">
        <ele>213.6</ele>
        <time>2024-04-28T08:19:00Z</time>
      </trkpt>
      <trkpt lat="50.08057" lon="4.01852">
        <ele>213.6</ele>
        <time>2024-04-28T08:19:01Z</time>
      </trkpt>
      <trkpt lat="50.08053" lon="4.01858">
        <ele>213.8</ele>
        <time>2024-04-28T08:19:02Z</time>
      </trkpt>
      <trkpt lat="50.0805" lon="4.01864">
        <ele>213.8</ele>
        <time>2024-04-28T08:19:03Z</time>
      </trkpt>
      <trkpt lat="50.08047" lon="4.0187">
        <ele>213.8</ele>
        <time>2024-04-28T08:19:04Z</time>
      </trkpt>
      <trkpt lat="50.08043" lon="4.01876">
        <ele>213.8</ele>
        <time>2024-04-28T08:19:05Z</time>
      </trkpt>
      <trkpt lat="50.0804" lon="4.01882">
        <ele>213.8</ele>
        <time>2024-04-28T08:19:06Z</time>
      </trkpt>
      <trkpt lat="50.08036" lon="4.01887">
        <ele>214</ele>
        <time>2024-04-28T08:19:07Z</time>
      </trkpt>
      <trkpt lat="50.08032" lon="4.01892">
        <ele>214</ele>
        <time>2024-04-28T08:19:08Z</time>
      </trkpt>
      <trkpt lat="50.08028" lon="4.01897">
        <ele>214</ele>
        <time>2024-04-28T08:19:09Z</time>
      </trkpt>
      <trkpt lat="50.08024" lon="4.01902">
        <ele>214</ele>
        <time>2024-04-28T08:19:10Z</time>
      </trkpt>
      <trkpt lat="50.0802" lon="4.01906">
        <ele>214.2</ele>
        <time>2024-04-28T08:19:11Z</time>
      </trkpt>
      <trkpt lat="50.08015" lon="4.0191">
        <ele>214.2</ele>
        <time>2024-04-28T08:19:12Z</time>
      </trkpt>
      <trkpt lat="50.08011" lon="4.01914">
        <ele>214</ele>
        <time>2024-04-28T08:19:13Z</time>
      </trkpt>
      <trkpt lat="50.08006" lon="4.01918">
        <ele>214</ele>
        <time>2024-04-28T08:19:14Z</time>
      </trkpt>
      <trkpt lat="50.08001" lon="4.01921">
        <ele>214</ele>
        <time>2024-04-28T08:19:15Z</time>
      </trkpt>
      <trkpt lat="50.07996" lon="4.01923">
        <ele>214.2</ele>
        <time>2024-04-28T08:19:16Z</time>
      </trkpt>
      <trkpt lat="50.07991" lon="4.01926">
        <ele>214</ele>
        <time>2024-04-28T08:19:17Z</time>
      </trkpt>
      <trkpt lat="50.07985" lon="4.01928">
        <ele>214.2</ele>
        <time>2024-04-28T08:19:18Z</time>
      </trkpt>
      <trkpt lat="50.07979" lon="4.0193">
        <ele>214</ele>
        <time>2024-04-28T08:19:19Z</time>
      </trkpt>
      <trkpt lat="50.07973" lon="4.01932">
        <ele>214.2</ele>
        <time>2024-04-28T08:19:20Z</time>
      </trkpt>
      <trkpt lat="50.07967" lon="4.01933">
        <ele>214</ele>
        <time>2024-04-28T08:19:21Z</time>
      </trkpt>
      <trkpt lat="50.07961" lon="4.01935">
        <ele>214</ele>
        <time>2024-04-28T08:19:22Z</time>
      </trkpt>
      <trkpt lat="50.07955" lon="4.01936">
        <ele>214</ele>
        <time>2024-04-28T08:19:23Z</time>
      </trkpt>
      <trkpt lat="50.07949" lon="4.01937">
        <ele>214</ele>
        <time>2024-04-28T08:19:24Z</time>
      </trkpt>
      <trkpt lat="50.07942" lon="4.01938">
        <ele>214.2</ele>
        <time>2024-04-28T08:19:25Z</time>
      </trkpt>
      <trkpt lat="50.07936" lon="4.0194">
        <ele>214</ele>
        <time>2024-04-28T08:19:26Z</time>
      </trkpt>
      <trkpt lat="50.07929" lon="4.01941">
        <ele>214</ele>
        <time>2024-04-28T08:19:27Z</time>
      </trkpt>
      <trkpt lat="50.07923" lon="4.01942">
        <ele>213.8</ele>
        <time>2024-04-28T08:19:28Z</time>
      </trkpt>
      <trkpt lat="50.07916" lon="4.01943">
        <ele>213.2</ele>
        <time>2024-04-28T08:19:29Z</time>
      </trkpt>
      <trkpt lat="50.0791" lon="4.01943">
        <ele>212.8</ele>
        <time>2024-04-28T08:19:30Z</time>
      </trkpt>
      <trkpt lat="50.07903" lon="4.01944">
        <ele>212.6</ele>
        <time>2024-04-28T08:19:31Z</time>
      </trkpt>
      <trkpt lat="50.07896" lon="4.01945">
        <ele>212.6</ele>
        <time>2024-04-28T08:19:32Z</time>
      </trkpt>
      <trkpt lat="50.07889" lon="4.01946">
        <ele>212.4</ele>
        <time>2024-04-28T08:19:33Z</time>
      </trkpt>
      <trkpt lat="50.07882" lon="4.01948">
        <ele>212.2</ele>
        <time>2024-04-28T08:19:34Z</time>
      </trkpt>
      <trkpt lat="50.07875" lon="4.01949">
        <ele>212</ele>
        <time>2024-04-28T08:19:35Z</time>
      </trkpt>
      <trkpt lat="50.07867" lon="4.0195">
        <ele>211.6</ele>
        <time>2024-04-28T08:19:36Z</time>
      </trkpt>
      <trkpt lat="50.0786" lon="4.01952">
        <ele>211.4</ele>
        <time>2024-04-28T08:19:37Z</time>
      </trkpt>
      <trkpt lat="50.07852" lon="4.01953">
        <ele>211.4</ele>
        <time>2024-04-28T08:19:38Z</time>
      </trkpt>
      <trkpt lat="50.07844" lon="4.01955">
        <ele>211.4</ele>
        <time>2024-04-28T08:19:39Z</time>
      </trkpt>
      <trkpt lat="50.07836" lon="4.01957">
        <ele>211.2</ele>
        <time>2024-04-28T08:19:40Z</time>
      </trkpt>
      <trkpt lat="50.07827" lon="4.01958">
        <ele>211.2</ele>
        <time>2024-04-28T08:19:41Z</time>
      </trkpt>
      <trkpt lat="50.07819" lon="4.01959">
        <ele>211</ele>
        <time>2024-04-28T08:19:42Z</time>
      </trkpt>
      <trkpt lat="50.0781" lon="4.01961">
        <ele>211</ele>
        <time>2024-04-28T08:19:43Z</time>
      </trkpt>
      <trkpt lat="50.078" lon="4.01963">
        <ele>211</ele>
        <time>2024-04-28T08:19:44Z</time>
      </trkpt>
      <trkpt lat="50.07791" lon="4.01964">
        <ele>211</ele>
        <time>2024-04-28T08:19:45Z</time>
      </trkpt>
      <trkpt lat="50.07781" lon="4.01966">
        <ele>210.8</ele>
        <time>2024-04-28T08:19:46Z</time>
      </trkpt>
      <trkpt lat="50.07771" lon="4.01968">
        <ele>210.6</ele>
        <time>2024-04-28T08:19:47Z</time>
      </trkpt>
      <trkpt lat="50.0776" lon="4.01969">
        <ele>209.8</ele>
        <time>2024-04-28T08:19:48Z</time>
      </trkpt>
      <trkpt lat="50.0775" lon="4.01971">
        <ele>209.8</ele>
        <time>2024-04-28T08:19:49Z</time>
      </trkpt>
      <trkpt lat="50.07739" lon="4.01973">
        <ele>209</ele>
        <time>2024-04-28T08:19:50Z</time>
      </trkpt>
      <trkpt lat="50.07728" lon="4.01975">
        <ele>208.6</ele>
        <time>2024-04-28T08:19:51Z</time>
      </trkpt>
      <trkpt lat="50.07717" lon="4.01977">
        <ele>208.2</ele>
        <time>2024-04-28T08:19:52Z</time>
      </trkpt>
      <trkpt lat="50.07706" lon="4.01979">
        <ele>208</ele>
        <time>2024-04-28T08:19:53Z</time>
      </trkpt>
      <trkpt lat="50.07695" lon="4.01981">
        <ele>207.8</ele>
        <time>2024-04-28T08:19:54Z</time>
      </trkpt>
      <trkpt lat="50.07684" lon="4.01983">
        <ele>207.6</ele>
        <time>2024-04-28T08:19:55Z</time>
      </trkpt>
      <trkpt lat="50.07673" lon="4.01984">
        <ele>206.6</ele>
        <time>2024-04-28T08:19:56Z</time>
      </trkpt>
      <trkpt lat="50.07662" lon="4.01986">
        <ele>205.6</ele>
        <time>2024-04-28T08:19:57Z</time>
      </trkpt>
      <trkpt lat="50.07651" lon="4.01988">
        <ele>205</ele>
        <time>2024-04-28T08:19:58Z</time>
      </trkpt>
      <trkpt lat="50.0764" lon="4.01989">
        <ele>204</ele>
        <time>2024-04-28T08:19:59Z</time>
      </trkpt>
      <trkpt lat="50.07629" lon="4.01991">
        <ele>201.8</ele>
        <time>2024-04-28T08:20:00Z</time>
      </trkpt>
      <trkpt lat="50.07618" lon="4.01992">
        <ele>200</ele>
        <time>2024-04-28T08:20:01Z</time>
      </trkpt>
      <trkpt lat="50.07607" lon="4.01994">
        <ele>199.2</ele>
        <time>2024-04-28T08:20:02Z</time>
      </trkpt>
      <trkpt lat="50.07596" lon="4.01996">
        <ele>198.4</ele>
        <time>2024-04-28T08:20:03Z</time>
      </trkpt>
      <trkpt lat="50.07584" lon="4.01998">
        <ele>197.4</ele>
        <time>2024-04-28T08:20:04Z</time>
      </trkpt>
      <trkpt lat="50.07573" lon="4.02">
        <ele>196.8</ele>
        <time>2024-04-28T08:20:05Z</time>
      </trkpt>
      <trkpt lat="50.07561" lon="4.02002">
        <ele>196.4</ele>
        <time>2024-04-28T08:20:06Z</time>
      </trkpt>
      <trkpt lat="50.07549" lon="4.02004">
        <ele>196.4</ele>
        <time>2024-04-28T08:20:07Z</time>
      </trkpt>
      <trkpt lat="50.07537" lon="4.02006">
        <ele>196</ele>
        <time>2024-04-28T08:20:08Z</time>
      </trkpt>
      <trkpt lat="50.07525" lon="4.02008">
        <ele>195.8</ele>
        <time>2024-04-28T08:20:09Z</time>
      </trkpt>
      <trkpt lat="50.07513" lon="4.0201">
        <ele>194.8</ele>
        <time>2024-04-28T08:20:10Z</time>
      </trkpt>
      <trkpt lat="50.07501" lon="4.02012">
        <ele>193.8</ele>
        <time>2024-04-28T08:20:11Z</time>
      </trkpt>
      <trkpt lat="50.07489" lon="4.02014">
        <ele>192.8</ele>
        <time>2024-04-28T08:20:12Z</time>
      </trkpt>
      <trkpt lat="50.07477" lon="4.02016">
        <ele>191.8</ele>
        <time>2024-04-28T08:20:13Z</time>
      </trkpt>
      <trkpt lat="50.07465" lon="4.02018">
        <ele>191.2</ele>
        <time>2024-04-28T08:20:14Z</time>
      </trkpt>
      <trkpt lat="50.07453" lon="4.02021">
        <ele>190.6</ele>
        <time>2024-04-28T08:20:15Z</time>
      </trkpt>
      <trkpt lat="50.07441" lon="4.02023">
        <ele>189</ele>
        <time>2024-04-28T08:20:16Z</time>
      </trkpt>
      <trkpt lat="50.07429" lon="4.02025">
        <ele>188</ele>
        <time>2024-04-28T08:20:17Z</time>
      </trkpt>
      <trkpt lat="50.07418" lon="4.02027">
        <ele>187.4</ele>
        <time>2024-04-28T08:20:18Z</time>
      </trkpt>
      <trkpt lat="50.07406" lon="4.02029">
        <ele>186.8</ele>
        <time>2024-04-28T08:20:19Z</time>
      </trkpt>
      <trkpt lat="50.07395" lon="4.02031">
        <ele>186.2</ele>
        <time>2024-04-28T08:20:20Z</time>
      </trkpt>
      <trkpt lat="50.07383" lon="4.02033">
        <ele>186</ele>
        <time>2024-04-28T08:20:21Z</time>
      </trkpt>
      <trkpt lat="50.07372" lon="4.02035">
        <ele>185.6</ele>
        <time>2024-04-28T08:20:22Z</time>
      </trkpt>
      <trkpt lat="50.0736" lon="4.02037">
        <ele>185.6</ele>
        <time>2024-04-28T08:20:23Z</time>
      </trkpt>
      <trkpt lat="50.07349" lon="4.02039">
        <ele>185.2</ele>
        <time>2024-04-28T08:20:24Z</time>
      </trkpt>
      <trkpt lat="50.07338" lon="4.02041">
        <ele>184.8</ele>
        <time>2024-04-28T08:20:25Z</time>
      </trkpt>
      <trkpt lat="50.07326" lon="4.02043">
        <ele>184</ele>
        <time>2024-04-28T08:20:26Z</time>
      </trkpt>
      <trkpt lat="50.07315" lon="4.02045">
        <ele>183.8</ele>
        <time>2024-04-28T08:20:27Z</time>
      </trkpt>
      <trkpt lat="50.07303" lon="4.02047">
        <ele>183.4</ele>
        <time>2024-04-28T08:20:28Z</time>
      </trkpt>
      <trkpt lat="50.07292" lon="4.0205">
        <ele>183</ele>
        <time>2024-04-28T08:20:29Z</time>
      </trkpt>
      <trkpt lat="50.0728" lon="4.02052">
        <ele>182.8</ele>
        <time>2024-04-28T08:20:30Z</time>
      </trkpt>
      <trkpt lat="50.07268" lon="4.02054">
        <ele>182.4</ele>
        <time>2024-04-28T08:20:31Z</time>
      </trkpt>
      <trkpt lat="50.07256" lon="4.02056">
        <ele>182</ele>
        <time>2024-04-28T08:20:32Z</time>
      </trkpt>
      <trkpt lat="50.07244" lon="4.02058">
        <ele>181.6</ele>
        <time>2024-04-28T08:20:33Z</time>
      </trkpt>
      <trkpt lat="50.07232" lon="4.02059">
        <ele>181</ele>
        <time>2024-04-28T08:20:34Z</time>
      </trkpt>
      <trkpt lat="50.0722" lon="4.02061">
        <ele>180.8</ele>
        <time>2024-04-28T08:20:35Z</time>
      </trkpt>
      <trkpt lat="50.07207" lon="4.02063">
        <ele>180.4</ele>
        <time>2024-04-28T08:20:36Z</time>
      </trkpt>
      <trkpt lat="50.07195" lon="4.02066">
        <ele>180.2</ele>
        <time>2024-04-28T08:20:37Z</time>
      </trkpt>
      <trkpt lat="50.07183" lon="4.02068">
        <ele>179.2</ele>
        <time>2024-04-28T08:20:38Z</time>
      </trkpt>
      <trkpt lat="50.07171" lon="4.0207">
        <ele>179.2</ele>
        <time>2024-04-28T08:20:39Z</time>
      </trkpt>
      <trkpt lat="50.07159" lon="4.02072">
        <ele>178.6</ele>
        <time>2024-04-28T08:20:40Z</time>
      </trkpt>
      <trkpt lat="50.07147" lon="4.02074">
        <ele>178.4</ele>
        <time>2024-04-28T08:20:41Z</time>
      </trkpt>
      <trkpt lat="50.07134" lon="4.02076">
        <ele>178</ele>
        <time>2024-04-28T08:20:42Z</time>
      </trkpt>
      <trkpt lat="50.07122" lon="4.02077">
        <ele>177.8</ele>
        <time>2024-04-28T08:20:43Z</time>
      </trkpt>
      <trkpt lat="50.07111" lon="4.02079">
        <ele>177.6</ele>
        <time>2024-04-28T08:20:44Z</time>
      </trkpt>
      <trkpt lat="50.07099" lon="4.02081">
        <ele>177.2</ele>
        <time>2024-04-28T08:20:45Z</time>
      </trkpt>
      <trkpt lat="50.07088" lon="4.02082">
        <ele>176.2</ele>
        <time>2024-04-28T08:20:46Z</time>
      </trkpt>
      <trkpt lat="50.07077" lon="4.02084">
        <ele>175.6</ele>
        <time>2024-04-28T08:20:47Z</time>
      </trkpt>
      <trkpt lat="50.07066" lon="4.02086">
        <ele>174.8</ele>
        <time>2024-04-28T08:20:48Z</time>
      </trkpt>
      <trkpt lat="50.07055" lon="4.02088">
        <ele>174</ele>
        <time>2024-04-28T08:20:49Z</time>
      </trkpt>
      <trkpt lat="50.07044" lon="4.0209">
        <ele>173.4</ele>
        <time>2024-04-28T08:20:50Z</time>
      </trkpt>
      <trkpt lat="50.07033" lon="4.02092">
        <ele>172.8</ele>
        <time>2024-04-28T08:20:51Z</time>
      </trkpt>
      <trkpt lat="50.07022" lon="4.02093">
        <ele>171.8</ele>
        <time>2024-04-28T08:20:52Z</time>
      </trkpt>
      <trkpt lat="50.07011" lon="4.02095">
        <ele>171.2</ele>
        <time>2024-04-28T08:20:53Z</time>
      </trkpt>
      <trkpt lat="50.07001" lon="4.02098">
        <ele>170.6</ele>
        <time>2024-04-28T08:20:54Z</time>
      </trkpt>
      <trkpt lat="50.0699" lon="4.02099">
        <ele>170.2</ele>
        <time>2024-04-28T08:20:55Z</time>
      </trkpt>
      <trkpt lat="50.06978" lon="4.02101">
        <ele>169.8</ele>
        <time>2024-04-28T08:20:56Z</time>
      </trkpt>
      <trkpt lat="50.06967" lon="4.02103">
        <ele>169.6</ele>
        <time>2024-04-28T08:20:57Z</time>
      </trkpt>
      <trkpt lat="50.06956" lon="4.02105">
        <ele>169.6</ele>
        <time>2024-04-28T08:20:58Z</time>
      </trkpt>
      <trkpt lat="50.06944" lon="4.02107">
        <ele>169</ele>
        <time>2024-04-28T08:20:59Z</time>
      </trkpt>
      <trkpt lat="50.06933" lon="4.02109">
        <ele>168.6</ele>
        <time>2024-04-28T08:21:00Z</time>
      </trkpt>
      <trkpt lat="50.06921" lon="4.02111">
        <ele>168.4</ele>
        <time>2024-04-28T08:21:01Z</time>
      </trkpt>
      <trkpt lat="50.0691" lon="4.02113">
        <ele>168</ele>
        <time>2024-04-28T08:21:02Z</time>
      </trkpt>
      <trkpt lat="50.06898" lon="4.02115">
        <ele>167.8</ele>
        <time>2024-04-28T08:21:03Z</time>
      </trkpt>
      <trkpt lat="50.06887" lon="4.02117">
        <ele>167.8</ele>
        <time>2024-04-28T08:21:04Z</time>
      </trkpt>
      <trkpt lat="50.06875" lon="4.02119">
        <ele>167.6</ele>
        <time>2024-04-28T08:21:05Z</time>
      </trkpt>
      <trkpt lat="50.06864" lon="4.02121">
        <ele>167.6</ele>
        <time>2024-04-28T08:21:06Z</time>
      </trkpt>
      <trkpt lat="50.06853" lon="4.02122">
        <ele>167.4</ele>
        <time>2024-04-28T08:21:07Z</time>
      </trkpt>
      <trkpt lat="50.06842" lon="4.02124">
        <ele>167.2</ele>
        <time>2024-04-28T08:21:08Z</time>
      </trkpt>
      <trkpt lat="50.06831" lon="4.02126">
        <ele>166.2</ele>
        <time>2024-04-28T08:21:09Z</time>
      </trkpt>
      <trkpt lat="50.0682" lon="4.02128">
        <ele>165.4</ele>
        <time>2024-04-28T08:21:10Z</time>
      </trkpt>
      <trkpt lat="50.06809" lon="4.0213">
        <ele>164.4</ele>
        <time>2024-04-28T08:21:11Z</time>
      </trkpt>
      <trkpt lat="50.06798" lon="4.02132">
        <ele>164</ele>
        <time>2024-04-28T08:21:12Z</time>
      </trkpt>
      <trkpt lat="50.06788" lon="4.02135">
        <ele>163.6</ele>
        <time>2024-04-28T08:21:13Z</time>
      </trkpt>
      <trkpt lat="50.06778" lon="4.02139">
        <ele>163.2</ele>
        <time>2024-04-28T08:21:14Z</time>
      </trkpt>
      <trkpt lat="50.06768" lon="4.02143">
        <ele>163</ele>
        <time>2024-04-28T08:21:15Z</time>
      </trkpt>
      <trkpt lat="50.06758" lon="4.02144">
        <ele>163</ele>
        <time>2024-04-28T08:21:16Z</time>
      </trkpt>
      <trkpt lat="50.06749" lon="4.02141">
        <ele>162.8</ele>
        <time>2024-04-28T08:21:17Z</time>
      </trkpt>
      <trkpt lat="50.06739" lon="4.02138">
        <ele>162.4</ele>
        <time>2024-04-28T08:21:18Z</time>
      </trkpt>
      <trkpt lat="50.0673" lon="4.02139">
        <ele>162</ele>
        <time>2024-04-28T08:21:19Z</time>
      </trkpt>
      <trkpt lat="50.06722" lon="4.02143">
        <ele>161.8</ele>
        <time>2024-04-28T08:21:20Z</time>
      </trkpt>
      <trkpt lat="50.06716" lon="4.02151">
        <ele>161.6</ele>
        <time>2024-04-28T08:21:21Z</time>
      </trkpt>
      <trkpt lat="50.06712" lon="4.02162">
        <ele>161.4</ele>
        <time>2024-04-28T08:21:22Z</time>
      </trkpt>
      <trkpt lat="50.0671" lon="4.02175">
        <ele>160.2</ele>
        <time>2024-04-28T08:21:23Z</time>
      </trkpt>
      <trkpt lat="50.0671" lon="4.02188">
        <ele>159.4</ele>
        <time>2024-04-28T08:21:24Z</time>
      </trkpt>
      <trkpt lat="50.06713" lon="4.02199">
        <ele>159</ele>
        <time>2024-04-28T08:21:25Z</time>
      </trkpt>
      <trkpt lat="50.06718" lon="4.0221">
        <ele>158.8</ele>
        <time>2024-04-28T08:21:26Z</time>
      </trkpt>
      <trkpt lat="50.06722" lon="4.0222">
        <ele>158.8</ele>
        <time>2024-04-28T08:21:27Z</time>
      </trkpt>
      <trkpt lat="50.06725" lon="4.02232">
        <ele>158.8</ele>
        <time>2024-04-28T08:21:28Z</time>
      </trkpt>
      <trkpt lat="50.06726" lon="4.02244">
        <ele>158.6</ele>
        <time>2024-04-28T08:21:29Z</time>
      </trkpt>
      <trkpt lat="50.06726" lon="4.02257">
        <ele>158.6</ele>
        <time>2024-04-28T08:21:30Z</time>
      </trkpt>
      <trkpt lat="50.06724" lon="4.02269">
        <ele>158.6</ele>
        <time>2024-04-28T08:21:31Z</time>
      </trkpt>
      <trkpt lat="50.06723" lon="4.02281">
        <ele>158.6</ele>
        <time>2024-04-28T08:21:32Z</time>
      </trkpt>
      <trkpt lat="50.06721" lon="4.02293">
        <ele>158.6</ele>
        <time>2024-04-28T08:21:33Z</time>
      </trkpt>
      <trkpt lat="50.06719" lon="4.02305">
        <ele>158.6</ele>
        <time>2024-04-28T08:21:34Z</time>
      </trkpt>
      <trkpt lat="50.06716" lon="4.02317">
        <ele>158.6</ele>
        <time>2024-04-28T08:21:35Z</time>
      </trkpt>
      <trkpt lat="50.06713" lon="4.02328">
        <ele>158.6</ele>
        <time>2024-04-28T08:21:36Z</time>
      </trkpt>
      <trkpt lat="50.06709" lon="4.02339">
        <ele>158.6</ele>
        <time>2024-04-28T08:21:37Z</time>
      </trkpt>
      <trkpt lat="50.06705" lon="4.0235">
        <ele>158.6</ele>
        <time>2024-04-28T08:21:38Z</time>
      </trkpt>
      <trkpt lat="50.06702" lon="4.02362">
        <ele>158.6</ele>
        <time>2024-04-28T08:21:39Z</time>
      </trkpt>
      <trkpt lat="50.06698" lon="4.02373">
        <ele>158.6</ele>
        <time>2024-04-28T08:21:40Z</time>
      </trkpt>
      <trkpt lat="50.06694" lon="4.02385">
        <ele>158.4</ele>
        <time>2024-04-28T08:21:41Z</time>
      </trkpt>
      <trkpt lat="50.0669" lon="4.02396">
        <ele>158.6</ele>
        <time>2024-04-28T08:21:42Z</time>
      </trkpt>
      <trkpt lat="50.06686" lon="4.02407">
        <ele>158.6</ele>
        <time>2024-04-28T08:21:43Z</time>
      </trkpt>
      <trkpt lat="50.06683" lon="4.02418">
        <ele>158.6</ele>
        <time>2024-04-28T08:21:44Z</time>
      </trkpt>
      <trkpt lat="50.06679" lon="4.02429">
        <ele>158.6</ele>
        <time>2024-04-28T08:21:45Z</time>
      </trkpt>
      <trkpt lat="50.06676" lon="4.0244">
        <ele>158.6</ele>
        <time>2024-04-28T08:21:46Z</time>
      </trkpt>
      <trkpt lat="50.06673" lon="4.02451">
        <ele>158.6</ele>
        <time>2024-04-28T08:21:47Z</time>
      </trkpt>
      <trkpt lat="50.06669" lon="4.02461">
        <ele>158.6</ele>
        <time>2024-04-28T08:21:48Z</time>
      </trkpt>
      <trkpt lat="50.06666" lon="4.02472">
        <ele>158.6</ele>
        <time>2024-04-28T08:21:49Z</time>
      </trkpt>
      <trkpt lat="50.06662" lon="4.02482">
        <ele>158.6</ele>
        <time>2024-04-28T08:21:50Z</time>
      </trkpt>
      <trkpt lat="50.06657" lon="4.02491">
        <ele>158.6</ele>
        <time>2024-04-28T08:21:51Z</time>
      </trkpt>
      <trkpt lat="50.06652" lon="4.025">
        <ele>158.6</ele>
        <time>2024-04-28T08:21:52Z</time>
      </trkpt>
      <trkpt lat="50.06645" lon="4.02508">
        <ele>158.6</ele>
        <time>2024-04-28T08:21:53Z</time>
      </trkpt>
      <trkpt lat="50.06638" lon="4.02515">
        <ele>158.6</ele>
        <time>2024-04-28T08:21:54Z</time>
      </trkpt>
      <trkpt lat="50.0663" lon="4.0252">
        <ele>159</ele>
        <time>2024-04-28T08:21:55Z</time>
      </trkpt>
      <trkpt lat="50.06622" lon="4.02522">
        <ele>159.2</ele>
        <time>2024-04-28T08:21:56Z</time>
      </trkpt>
      <trkpt lat="50.06613" lon="4.02522">
        <ele>159.4</ele>
        <time>2024-04-28T08:21:57Z</time>
      </trkpt>
      <trkpt lat="50.06604" lon="4.02521">
        <ele>159.4</ele>
        <time>2024-04-28T08:21:58Z</time>
      </trkpt>
      <trkpt lat="50.06596" lon="4.02519">
        <ele>159.4</ele>
        <time>2024-04-28T08:21:59Z</time>
      </trkpt>
      <trkpt lat="50.06587" lon="4.02516">
        <ele>159.4</ele>
        <time>2024-04-28T08:22:00Z</time>
      </trkpt>
      <trkpt lat="50.06579" lon="4.02514">
        <ele>159.4</ele>
        <time>2024-04-28T08:22:01Z</time>
      </trkpt>
      <trkpt lat="50.06571" lon="4.02511">
        <ele>159.4</ele>
        <time>2024-04-28T08:22:02Z</time>
      </trkpt>
      <trkpt lat="50.06563" lon="4.02509">
        <ele>159.4</ele>
        <time>2024-04-28T08:22:03Z</time>
      </trkpt>
      <trkpt lat="50.06554" lon="4.02506">
        <ele>159.4</ele>
        <time>2024-04-28T08:22:04Z</time>
      </trkpt>
      <trkpt lat="50.06546" lon="4.02503">
        <ele>159.4</ele>
        <time>2024-04-28T08:22:05Z</time>
      </trkpt>
      <trkpt lat="50.06538" lon="4.02501">
        <ele>159.4</ele>
        <time>2024-04-28T08:22:06Z</time>
      </trkpt>
      <trkpt lat="50.06529" lon="4.02499">
        <ele>159.4</ele>
        <time>2024-04-28T08:22:07Z</time>
      </trkpt>
      <trkpt lat="50.0652" lon="4.02497">
        <ele>159.4</ele>
        <time>2024-04-28T08:22:08Z</time>
      </trkpt>
      <trkpt lat="50.06511" lon="4.02496">
        <ele>159.4</ele>
        <time>2024-04-28T08:22:09Z</time>
      </trkpt>
      <trkpt lat="50.06501" lon="4.02496">
        <ele>159.2</ele>
        <time>2024-04-28T08:22:10Z</time>
      </trkpt>
      <trkpt lat="50.06492" lon="4.02497">
        <ele>159.4</ele>
        <time>2024-04-28T08:22:11Z</time>
      </trkpt>
      <trkpt lat="50.06484" lon="4.025">
        <ele>159.2</ele>
        <time>2024-04-28T08:22:12Z</time>
      </trkpt>
      <trkpt lat="50.06476" lon="4.02505">
        <ele>159.2</ele>
        <time>2024-04-28T08:22:13Z</time>
      </trkpt>
      <trkpt lat="50.06468" lon="4.02512">
        <ele>159</ele>
        <time>2024-04-28T08:22:14Z</time>
      </trkpt>
      <trkpt lat="50.06462" lon="4.0252">
        <ele>158.8</ele>
        <time>2024-04-28T08:22:15Z</time>
      </trkpt>
      <trkpt lat="50.06455" lon="4.02527">
        <ele>158.4</ele>
        <time>2024-04-28T08:22:16Z</time>
      </trkpt>
      <trkpt lat="50.06448" lon="4.02533">
        <ele>158</ele>
        <time>2024-04-28T08:22:17Z</time>
      </trkpt>
      <trkpt lat="50.06442" lon="4.0254">
        <ele>158.2</ele>
        <time>2024-04-28T08:22:18Z</time>
      </trkpt>
      <trkpt lat="50.06436" lon="4.02547">
        <ele>158</ele>
        <time>2024-04-28T08:22:19Z</time>
      </trkpt>
      <trkpt lat="50.0643" lon="4.02553">
        <ele>157.8</ele>
        <time>2024-04-28T08:22:20Z</time>
      </trkpt>
      <trkpt lat="50.06425" lon="4.02558">
        <ele>158</ele>
        <time>2024-04-28T08:22:21Z</time>
      </trkpt>
      <trkpt lat="50.06419" lon="4.02564">
        <ele>158</ele>
        <time>2024-04-28T08:22:22Z</time>
      </trkpt>
      <trkpt lat="50.06414" lon="4.0257">
        <ele>158</ele>
        <time>2024-04-28T08:22:23Z</time>
      </trkpt>
      <trkpt lat="50.06409" lon="4.02575">
        <ele>158</ele>
        <time>2024-04-28T08:22:24Z</time>
      </trkpt>
      <trkpt lat="50.06405" lon="4.0258">
        <ele>157.8</ele>
        <time>2024-04-28T08:22:25Z</time>
      </trkpt>
      <trkpt lat="50.06401" lon="4.02585">
        <ele>158.2</ele>
        <time>2024-04-28T08:22:26Z</time>
      </trkpt>
      <trkpt lat="50.06396" lon="4.0259">
        <ele>158.2</ele>
        <time>2024-04-28T08:22:27Z</time>
      </trkpt>
      <trkpt lat="50.06392" lon="4.02594">
        <ele>158.8</ele>
        <time>2024-04-28T08:22:28Z</time>
      </trkpt>
      <trkpt lat="50.06388" lon="4.02598">
        <ele>159.2</ele>
        <time>2024-04-28T08:22:29Z</time>
      </trkpt>
      <trkpt lat="50.06385" lon="4.02603">
        <ele>159.4</ele>
        <time>2024-04-28T08:22:30Z</time>
      </trkpt>
      <trkpt lat="50.06382" lon="4.02607">
        <ele>159.6</ele>
        <time>2024-04-28T08:22:31Z</time>
      </trkpt>
      <trkpt lat="50.06379" lon="4.02611">
        <ele>160</ele>
        <time>2024-04-28T08:22:32Z</time>
      </trkpt>
      <trkpt lat="50.06376" lon="4.02616">
        <ele>160.4</ele>
        <time>2024-04-28T08:22:33Z</time>
      </trkpt>
      <trkpt lat="50.06373" lon="4.02621">
        <ele>160.4</ele>
        <time>2024-04-28T08:22:34Z</time>
      </trkpt>
      <trkpt lat="50.0637" lon="4.02627">
        <ele>160.6</ele>
        <time>2024-04-28T08:22:35Z</time>
      </trkpt>
      <trkpt lat="50.06366" lon="4.02633">
        <ele>161</ele>
        <time>2024-04-28T08:22:36Z</time>
      </trkpt>
      <trkpt lat="50.06363" lon="4.0264">
        <ele>161.4</ele>
        <time>2024-04-28T08:22:37Z</time>
      </trkpt>
      <trkpt lat="50.06361" lon="4.02647">
        <ele>161.8</ele>
        <time>2024-04-28T08:22:38Z</time>
      </trkpt>
      <trkpt lat="50.06358" lon="4.02655">
        <ele>162.2</ele>
        <time>2024-04-28T08:22:39Z</time>
      </trkpt>
      <trkpt lat="50.06356" lon="4.02663">
        <ele>163</ele>
        <time>2024-04-28T08:22:40Z</time>
      </trkpt>
      <trkpt lat="50.06354" lon="4.02672">
        <ele>163.6</ele>
        <time>2024-04-28T08:22:41Z</time>
      </trkpt>
      <trkpt lat="50.06352" lon="4.02681">
        <ele>163.6</ele>
        <time>2024-04-28T08:22:42Z</time>
      </trkpt>
      <trkpt lat="50.0635" lon="4.02692">
        <ele>163.8</ele>
        <time>2024-04-28T08:22:43Z</time>
      </trkpt>
      <trkpt lat="50.06349" lon="4.02702">
        <ele>164.2</ele>
        <time>2024-04-28T08:22:44Z</time>
      </trkpt>
      <trkpt lat="50.06348" lon="4.02714">
        <ele>164.6</ele>
        <time>2024-04-28T08:22:45Z</time>
      </trkpt>
      <trkpt lat="50.06346" lon="4.02726">
        <ele>164.6</ele>
        <time>2024-04-28T08:22:46Z</time>
      </trkpt>
      <trkpt lat="50.06345" lon="4.02738">
        <ele>164.6</ele>
        <time>2024-04-28T08:22:47Z</time>
      </trkpt>
      <trkpt lat="50.06344" lon="4.0275">
        <ele>164.6</ele>
        <time>2024-04-28T08:22:48Z</time>
      </trkpt>
      <trkpt lat="50.06344" lon="4.02763">
        <ele>164.6</ele>
        <time>2024-04-28T08:22:49Z</time>
      </trkpt>
      <trkpt lat="50.06343" lon="4.02776">
        <ele>164.6</ele>
        <time>2024-04-28T08:22:50Z</time>
      </trkpt>
      <trkpt lat="50.06343" lon="4.0279">
        <ele>164.6</ele>
        <time>2024-04-28T08:22:51Z</time>
      </trkpt>
      <trkpt lat="50.06342" lon="4.02803">
        <ele>164.6</ele>
        <time>2024-04-28T08:22:52Z</time>
      </trkpt>
      <trkpt lat="50.06342" lon="4.02816">
        <ele>164.6</ele>
        <time>2024-04-28T08:22:53Z</time>
      </trkpt>
      <trkpt lat="50.06341" lon="4.02829">
        <ele>164.6</ele>
        <time>2024-04-28T08:22:54Z</time>
      </trkpt>
      <trkpt lat="50.06341" lon="4.02843">
        <ele>164.4</ele>
        <time>2024-04-28T08:22:55Z</time>
      </trkpt>
      <trkpt lat="50.0634" lon="4.02856">
        <ele>164.2</ele>
        <time>2024-04-28T08:22:56Z</time>
      </trkpt>
      <trkpt lat="50.0634" lon="4.02869">
        <ele>163.6</ele>
        <time>2024-04-28T08:22:57Z</time>
      </trkpt>
      <trkpt lat="50.0634" lon="4.02883">
        <ele>163.6</ele>
        <time>2024-04-28T08:22:58Z</time>
      </trkpt>
      <trkpt lat="50.0634" lon="4.02897">
        <ele>163.4</ele>
        <time>2024-04-28T08:22:59Z</time>
      </trkpt>
      <trkpt lat="50.06339" lon="4.02911">
        <ele>163</ele>
        <time>2024-04-28T08:23:00Z</time>
      </trkpt>
      <trkpt lat="50.06339" lon="4.02925">
        <ele>162.4</ele>
        <time>2024-04-28T08:23:01Z</time>
      </trkpt>
      <trkpt lat="50.06338" lon="4.02939">
        <ele>162.2</ele>
        <time>2024-04-28T08:23:02Z</time>
      </trkpt>
      <trkpt lat="50.06338" lon="4.02953">
        <ele>162</ele>
        <time>2024-04-28T08:23:03Z</time>
      </trkpt>
      <trkpt lat="50.06337" lon="4.02967">
        <ele>162</ele>
        <time>2024-04-28T08:23:04Z</time>
      </trkpt>
      <trkpt lat="50.06336" lon="4.0298">
        <ele>162</ele>
        <time>2024-04-28T08:23:05Z</time>
      </trkpt>
      <trkpt lat="50.06335" lon="4.02994">
        <ele>161.8</ele>
        <time>2024-04-28T08:23:06Z</time>
      </trkpt>
      <trkpt lat="50.06335" lon="4.03006">
        <ele>161.8</ele>
        <time>2024-04-28T08:23:07Z</time>
      </trkpt>
      <trkpt lat="50.06334" lon="4.03019">
        <ele>161.6</ele>
        <time>2024-04-28T08:23:08Z</time>
      </trkpt>
      <trkpt lat="50.06334" lon="4.03031">
        <ele>161</ele>
        <time>2024-04-28T08:23:09Z</time>
      </trkpt>
      <trkpt lat="50.06333" lon="4.03043">
        <ele>160.8</ele>
        <time>2024-04-28T08:23:10Z</time>
      </trkpt>
      <trkpt lat="50.06333" lon="4.03054">
        <ele>160.6</ele>
        <time>2024-04-28T08:23:11Z</time>
      </trkpt>
      <trkpt lat="50.06332" lon="4.03065">
        <ele>160.6</ele>
        <time>2024-04-28T08:23:12Z</time>
      </trkpt>
      <trkpt lat="50.06332" lon="4.03076">
        <ele>160.6</ele>
        <time>2024-04-28T08:23:13Z</time>
      </trkpt>
      <trkpt lat="50.06331" lon="4.03087">
        <ele>160.6</ele>
        <time>2024-04-28T08:23:14Z</time>
      </trkpt>
      <trkpt lat="50.06331" lon="4.03099">
        <ele>160.6</ele>
        <time>2024-04-28T08:23:15Z</time>
      </trkpt>
      <trkpt lat="50.0633" lon="4.0311">
        <ele>160.6</ele>
        <time>2024-04-28T08:23:16Z</time>
      </trkpt>
      <trkpt lat="50.0633" lon="4.03121">
        <ele>160.4</ele>
        <time>2024-04-28T08:23:17Z</time>
      </trkpt>
      <trkpt lat="50.06329" lon="4.03132">
        <ele>160.6</ele>
        <time>2024-04-28T08:23:18Z</time>
      </trkpt>
      <trkpt lat="50.06328" lon="4.03143">
        <ele>160.4</ele>
        <time>2024-04-28T08:23:19Z</time>
      </trkpt>
      <trkpt lat="50.06328" lon="4.03153">
        <ele>160.6</ele>
        <time>2024-04-28T08:23:20Z</time>
      </trkpt>
      <trkpt lat="50.06328" lon="4.03163">
        <ele>161</ele>
        <time>2024-04-28T08:23:21Z</time>
      </trkpt>
      <trkpt lat="50.06327" lon="4.03173">
        <ele>161</ele>
        <time>2024-04-28T08:23:22Z</time>
      </trkpt>
      <trkpt lat="50.06327" lon="4.03183">
        <ele>161.6</ele>
        <time>2024-04-28T08:23:23Z</time>
      </trkpt>
      <trkpt lat="50.06326" lon="4.03192">
        <ele>162.2</ele>
        <time>2024-04-28T08:23:24Z</time>
      </trkpt>
      <trkpt lat="50.06325" lon="4.03201">
        <ele>162.4</ele>
        <time>2024-04-28T08:23:25Z</time>
      </trkpt>
      <trkpt lat="50.06324" lon="4.0321">
        <ele>162.6</ele>
        <time>2024-04-28T08:23:26Z</time>
      </trkpt>
      <trkpt lat="50.06324" lon="4.0322">
        <ele>162.8</ele>
        <time>2024-04-28T08:23:27Z</time>
      </trkpt>
      <trkpt lat="50.06323" lon="4.03229">
        <ele>163</ele>
        <time>2024-04-28T08:23:28Z</time>
      </trkpt>
      <trkpt lat="50.06323" lon="4.03239">
        <ele>163</ele>
        <time>2024-04-28T08:23:29Z</time>
      </trkpt>
      <trkpt lat="50.06323" lon="4.0325">
        <ele>163.2</ele>
        <time>2024-04-28T08:23:30Z</time>
      </trkpt>
      <trkpt lat="50.06322" lon="4.0326">
        <ele>163.2</ele>
        <time>2024-04-28T08:23:31Z</time>
      </trkpt>
      <trkpt lat="50.06322" lon="4.03272">
        <ele>163.6</ele>
        <time>2024-04-28T08:23:32Z</time>
      </trkpt>
      <trkpt lat="50.06322" lon="4.03283">
        <ele>164</ele>
        <time>2024-04-28T08:23:33Z</time>
      </trkpt>
      <trkpt lat="50.06322" lon="4.03295">
        <ele>164.4</ele>
        <time>2024-04-28T08:23:34Z</time>
      </trkpt>
      <trkpt lat="50.06323" lon="4.03307">
        <ele>164.6</ele>
        <time>2024-04-28T08:23:35Z</time>
      </trkpt>
      <trkpt lat="50.06324" lon="4.0332">
        <ele>164.6</ele>
        <time>2024-04-28T08:23:36Z</time>
      </trkpt>
      <trkpt lat="50.06326" lon="4.03332">
        <ele>164.8</ele>
        <time>2024-04-28T08:23:37Z</time>
      </trkpt>
      <trkpt lat="50.06328" lon="4.03345">
        <ele>164.8</ele>
        <time>2024-04-28T08:23:38Z</time>
      </trkpt>
      <trkpt lat="50.06331" lon="4.03357">
        <ele>164.8</ele>
        <time>2024-04-28T08:23:39Z</time>
      </trkpt>
      <trkpt lat="50.06335" lon="4.03369">
        <ele>165</ele>
        <time>2024-04-28T08:23:40Z</time>
      </trkpt>
      <trkpt lat="50.06338" lon="4.03381">
        <ele>165</ele>
        <time>2024-04-28T08:23:41Z</time>
      </trkpt>
      <trkpt lat="50.06342" lon="4.03393">
        <ele>165</ele>
        <time>2024-04-28T08:23:42Z</time>
      </trkpt>
      <trkpt lat="50.06346" lon="4.03404">
        <ele>165</ele>
        <time>2024-04-28T08:23:43Z</time>
      </trkpt>
      <trkpt lat="50.0635" lon="4.03415">
        <ele>165</ele>
        <time>2024-04-28T08:23:44Z</time>
      </trkpt>
      <trkpt lat="50.06353" lon="4.03427">
        <ele>165</ele>
        <time>2024-04-28T08:23:45Z</time>
      </trkpt>
      <trkpt lat="50.06356" lon="4.03438">
        <ele>165</ele>
        <time>2024-04-28T08:23:46Z</time>
      </trkpt>
      <trkpt lat="50.06359" lon="4.03449">
        <ele>165</ele>
        <time>2024-04-28T08:23:47Z</time>
      </trkpt>
      <trkpt lat="50.06362" lon="4.03459">
        <ele>164.8</ele>
        <time>2024-04-28T08:23:48Z</time>
      </trkpt>
      <trkpt lat="50.06365" lon="4.0347">
        <ele>165</ele>
        <time>2024-04-28T08:23:49Z</time>
      </trkpt>
      <trkpt lat="50.06368" lon="4.03481">
        <ele>164.8</ele>
        <time>2024-04-28T08:23:50Z</time>
      </trkpt>
      <trkpt lat="50.06371" lon="4.03492">
        <ele>164.6</ele>
        <time>2024-04-28T08:23:51Z</time>
      </trkpt>
      <trkpt lat="50.06373" lon="4.03503">
        <ele>164.8</ele>
        <time>2024-04-28T08:23:52Z</time>
      </trkpt>
      <trkpt lat="50.06376" lon="4.03514">
        <ele>164.6</ele>
        <time>2024-04-28T08:23:53Z</time>
      </trkpt>
      <trkpt lat="50.06379" lon="4.03525">
        <ele>164.6</ele>
        <time>2024-04-28T08:23:54Z</time>
      </trkpt>
      <trkpt lat="50.06381" lon="4.03536">
        <ele>164.6</ele>
        <time>2024-04-28T08:23:55Z</time>
      </trkpt>
      <trkpt lat="50.06384" lon="4.03547">
        <ele>164.4</ele>
        <time>2024-04-28T08:23:56Z</time>
      </trkpt>
      <trkpt lat="50.06386" lon="4.03559">
        <ele>164.4</ele>
        <time>2024-04-28T08:23:57Z</time>
      </trkpt>
      <trkpt lat="50.06388" lon="4.03569">
        <ele>164.4</ele>
        <time>2024-04-28T08:23:58Z</time>
      </trkpt>
      <trkpt lat="50.0639" lon="4.0358">
        <ele>164.4</ele>
        <time>2024-04-28T08:23:59Z</time>
      </trkpt>
      <trkpt lat="50.06392" lon="4.03591">
        <ele>164.4</ele>
        <time>2024-04-28T08:24:00Z</time>
      </trkpt>
      <trkpt lat="50.06394" lon="4.03602">
        <ele>164.4</ele>
        <time>2024-04-28T08:24:01Z</time>
      </trkpt>
      <trkpt lat="50.06395" lon="4.03613">
        <ele>164.6</ele>
        <time>2024-04-28T08:24:02Z</time>
      </trkpt>
      <trkpt lat="50.06396" lon="4.03625">
        <ele>164.6</ele>
        <time>2024-04-28T08:24:03Z</time>
      </trkpt>
      <trkpt lat="50.06397" lon="4.03637">
        <ele>164.4</ele>
        <time>2024-04-28T08:24:04Z</time>
      </trkpt>
      <trkpt lat="50.06397" lon="4.03649">
        <ele>164.4</ele>
        <time>2024-04-28T08:24:05Z</time>
      </trkpt>
      <trkpt lat="50.06396" lon="4.03661">
        <ele>164.4</ele>
        <time>2024-04-28T08:24:06Z</time>
      </trkpt>
      <trkpt lat="50.06394" lon="4.03673">
        <ele>164.2</ele>
        <time>2024-04-28T08:24:07Z</time>
      </trkpt>
      <trkpt lat="50.06392" lon="4.03686">
        <ele>164.2</ele>
        <time>2024-04-28T08:24:08Z</time>
      </trkpt>
      <trkpt lat="50.06389" lon="4.03697">
        <ele>163.8</ele>
        <time>2024-04-28T08:24:09Z</time>
      </trkpt>
      <trkpt lat="50.06386" lon="4.0371">
        <ele>164</ele>
        <time>2024-04-28T08:24:10Z</time>
      </trkpt>
      <trkpt lat="50.06382" lon="4.03722">
        <ele>163.8</ele>
        <time>2024-04-28T08:24:11Z</time>
      </trkpt>
      <trkpt lat="50.06378" lon="4.03735">
        <ele>163.8</ele>
        <time>2024-04-28T08:24:12Z</time>
      </trkpt>
      <trkpt lat="50.06375" lon="4.03748">
        <ele>163.6</ele>
        <time>2024-04-28T08:24:13Z</time>
      </trkpt>
      <trkpt lat="50.06371" lon="4.03761">
        <ele>163.6</ele>
        <time>2024-04-28T08:24:14Z</time>
      </trkpt>
      <trkpt lat="50.06367" lon="4.03774">
        <ele>163.4</ele>
        <time>2024-04-28T08:24:15Z</time>
      </trkpt>
      <trkpt lat="50.06363" lon="4.03787">
        <ele>163.4</ele>
        <time>2024-04-28T08:24:16Z</time>
      </trkpt>
      <trkpt lat="50.06358" lon="4.038">
        <ele>163.4</ele>
        <time>2024-04-28T08:24:17Z</time>
      </trkpt>
      <trkpt lat="50.06353" lon="4.03811">
        <ele>163</ele>
        <time>2024-04-28T08:24:18Z</time>
      </trkpt>
      <trkpt lat="50.06347" lon="4.03822">
        <ele>162.6</ele>
        <time>2024-04-28T08:24:19Z</time>
      </trkpt>
      <trkpt lat="50.06341" lon="4.03832">
        <ele>162.6</ele>
        <time>2024-04-28T08:24:20Z</time>
      </trkpt>
      <trkpt lat="50.06335" lon="4.03842">
        <ele>162</ele>
        <time>2024-04-28T08:24:21Z</time>
      </trkpt>
      <trkpt lat="50.06329" lon="4.03851">
        <ele>161.8</ele>
        <time>2024-04-28T08:24:22Z</time>
      </trkpt>
      <trkpt lat="50.06322" lon="4.0386">
        <ele>161.4</ele>
        <time>2024-04-28T08:24:23Z</time>
      </trkpt>
      <trkpt lat="50.06316" lon="4.03868">
        <ele>161.4</ele>
        <time>2024-04-28T08:24:24Z</time>
      </trkpt>
      <trkpt lat="50.0631" lon="4.03876">
        <ele>161.6</ele>
        <time>2024-04-28T08:24:25Z</time>
      </trkpt>
      <trkpt lat="50.06305" lon="4.03884">
        <ele>161.4</ele>
        <time>2024-04-28T08:24:26Z</time>
      </trkpt>
      <trkpt lat="50.063" lon="4.03891">
        <ele>161.4</ele>
        <time>2024-04-28T08:24:27Z</time>
      </trkpt>
      <trkpt lat="50.06294" lon="4.03899">
        <ele>161.4</ele>
        <time>2024-04-28T08:24:28Z</time>
      </trkpt>
      <trkpt lat="50.06289" lon="4.03908">
        <ele>161.2</ele>
        <time>2024-04-28T08:24:29Z</time>
      </trkpt>
      <trkpt lat="50.06284" lon="4.03917">
        <ele>161.2</ele>
        <time>2024-04-28T08:24:30Z</time>
      </trkpt>
      <trkpt lat="50.0628" lon="4.03927">
        <ele>161</ele>
        <time>2024-04-28T08:24:31Z</time>
      </trkpt>
      <trkpt lat="50.06276" lon="4.03938">
        <ele>161</ele>
        <time>2024-04-28T08:24:32Z</time>
      </trkpt>
      <trkpt lat="50.06273" lon="4.03949">
        <ele>161.2</ele>
        <time>2024-04-28T08:24:33Z</time>
      </trkpt>
      <trkpt lat="50.06271" lon="4.03962">
        <ele>161.2</ele>
        <time>2024-04-28T08:24:34Z</time>
      </trkpt>
      <trkpt lat="50.06269" lon="4.03974">
        <ele>161.2</ele>
        <time>2024-04-28T08:24:35Z</time>
      </trkpt>
      <trkpt lat="50.06269" lon="4.03987">
        <ele>161.2</ele>
        <time>2024-04-28T08:24:36Z</time>
      </trkpt>
      <trkpt lat="50.0627" lon="4.04">
        <ele>161.2</ele>
        <time>2024-04-28T08:24:37Z</time>
      </trkpt>
      <trkpt lat="50.0627" lon="4.04013">
        <ele>161</ele>
        <time>2024-04-28T08:24:38Z</time>
      </trkpt>
      <trkpt lat="50.06271" lon="4.04025">
        <ele>161</ele>
        <time>2024-04-28T08:24:39Z</time>
      </trkpt>
      <trkpt lat="50.06271" lon="4.04037">
        <ele>161</ele>
        <time>2024-04-28T08:24:40Z</time>
      </trkpt>
      <trkpt lat="50.06272" lon="4.04048">
        <ele>161</ele>
        <time>2024-04-28T08:24:41Z</time>
      </trkpt>
      <trkpt lat="50.06273" lon="4.0406">
        <ele>161</ele>
        <time>2024-04-28T08:24:42Z</time>
      </trkpt>
      <trkpt lat="50.06274" lon="4.0407">
        <ele>161</ele>
        <time>2024-04-28T08:24:43Z</time>
      </trkpt>
      <trkpt lat="50.06275" lon="4.04081">
        <ele>160.8</ele>
        <time>2024-04-28T08:24:44Z</time>
      </trkpt>
      <trkpt lat="50.06276" lon="4.04092">
        <ele>161</ele>
        <time>2024-04-28T08:24:45Z</time>
      </trkpt>
      <trkpt lat="50.06277" lon="4.04102">
        <ele>161</ele>
        <time>2024-04-28T08:24:46Z</time>
      </trkpt>
      <trkpt lat="50.06277" lon="4.04111">
        <ele>160.8</ele>
        <time>2024-04-28T08:24:47Z</time>
      </trkpt>
      <trkpt lat="50.06278" lon="4.0412">
        <ele>160.8</ele>
        <time>2024-04-28T08:24:48Z</time>
      </trkpt>
      <trkpt lat="50.06279" lon="4.04129">
        <ele>161</ele>
        <time>2024-04-28T08:24:49Z</time>
      </trkpt>
      <trkpt lat="50.0628" lon="4.04138">
        <ele>161.2</ele>
        <time>2024-04-28T08:24:50Z</time>
      </trkpt>
      <trkpt lat="50.0628" lon="4.04146">
        <ele>161.2</ele>
        <time>2024-04-28T08:24:51Z</time>
      </trkpt>
      <trkpt lat="50.0628" lon="4.04154">
        <ele>161.2</ele>
        <time>2024-04-28T08:24:52Z</time>
      </trkpt>
      <trkpt lat="50.06281" lon="4.04162">
        <ele>161.8</ele>
        <time>2024-04-28T08:24:53Z</time>
      </trkpt>
      <trkpt lat="50.06281" lon="4.04169">
        <ele>162.4</ele>
        <time>2024-04-28T08:24:54Z</time>
      </trkpt>
      <trkpt lat="50.06281" lon="4.04178">
        <ele>163</ele>
        <time>2024-04-28T08:24:55Z</time>
      </trkpt>
      <trkpt lat="50.06282" lon="4.04186">
        <ele>163.6</ele>
        <time>2024-04-28T08:24:56Z</time>
      </trkpt>
      <trkpt lat="50.06283" lon="4.04194">
        <ele>164</ele>
        <time>2024-04-28T08:24:57Z</time>
      </trkpt>
      <trkpt lat="50.06283" lon="4.04202">
        <ele>164.4</ele>
        <time>2024-04-28T08:24:58Z</time>
      </trkpt>
      <trkpt lat="50.06284" lon="4.0421">
        <ele>165</ele>
        <time>2024-04-28T08:24:59Z</time>
      </trkpt>
      <trkpt lat="50.06285" lon="4.04219">
        <ele>165.2</ele>
        <time>2024-04-28T08:25:00Z</time>
      </trkpt>
      <trkpt lat="50.06286" lon="4.04227">
        <ele>165.4</ele>
        <time>2024-04-28T08:25:01Z</time>
      </trkpt>
      <trkpt lat="50.06287" lon="4.04235">
        <ele>166</ele>
        <time>2024-04-28T08:25:02Z</time>
      </trkpt>
      <trkpt lat="50.06289" lon="4.04243">
        <ele>166.4</ele>
        <time>2024-04-28T08:25:03Z</time>
      </trkpt>
      <trkpt lat="50.0629" lon="4.04251">
        <ele>166.8</ele>
        <time>2024-04-28T08:25:04Z</time>
      </trkpt>
      <trkpt lat="50.06292" lon="4.04259">
        <ele>167.4</ele>
        <time>2024-04-28T08:25:05Z</time>
      </trkpt>
      <trkpt lat="50.06293" lon="4.04267">
        <ele>167.6</ele>
        <time>2024-04-28T08:25:06Z</time>
      </trkpt>
      <trkpt lat="50.06295" lon="4.04275">
        <ele>168</ele>
        <time>2024-04-28T08:25:07Z</time>
      </trkpt>
      <trkpt lat="50.06297" lon="4.04283">
        <ele>168.4</ele>
        <time>2024-04-28T08:25:08Z</time>
      </trkpt>
      <trkpt lat="50.06299" lon="4.04292">
        <ele>168.6</ele>
        <time>2024-04-28T08:25:09Z</time>
      </trkpt>
      <trkpt lat="50.063" lon="4.043">
        <ele>168.6</ele>
        <time>2024-04-28T08:25:10Z</time>
      </trkpt>
      <trkpt lat="50.06302" lon="4.04308">
        <ele>168.8</ele>
        <time>2024-04-28T08:25:11Z</time>
      </trkpt>
      <trkpt lat="50.06304" lon="4.04317">
        <ele>169.2</ele>
        <time>2024-04-28T08:25:12Z</time>
      </trkpt>
      <trkpt lat="50.06305" lon="4.04326">
        <ele>169.6</ele>
        <time>2024-04-28T08:25:13Z</time>
      </trkpt>
      <trkpt lat="50.06306" lon="4.04335">
        <ele>169.6</ele>
        <time>2024-04-28T08:25:14Z</time>
      </trkpt>
      <trkpt lat="50.06307" lon="4.04344">
        <ele>169.8</ele>
        <time>2024-04-28T08:25:15Z</time>
      </trkpt>
      <trkpt lat="50.06308" lon="4.04353">
        <ele>169.8</ele>
        <time>2024-04-28T08:25:16Z</time>
      </trkpt>
      <trkpt lat="50.06308" lon="4.04362">
        <ele>169.8</ele>
        <time>2024-04-28T08:25:17Z</time>
      </trkpt>
      <trkpt lat="50.06308" lon="4.04372">
        <ele>169.8</ele>
        <time>2024-04-28T08:25:18Z</time>
      </trkpt>
      <trkpt lat="50.06308" lon="4.04381">
        <ele>169.8</ele>
        <time>2024-04-28T08:25:19Z</time>
      </trkpt>
      <trkpt lat="50.06308" lon="4.0439">
        <ele>169.8</ele>
        <time>2024-04-28T08:25:20Z</time>
      </trkpt>
      <trkpt lat="50.06308" lon="4.04399">
        <ele>169.8</ele>
        <time>2024-04-28T08:25:21Z</time>
      </trkpt>
      <trkpt lat="50.06307" lon="4.04408">
        <ele>170</ele>
        <time>2024-04-28T08:25:22Z</time>
      </trkpt>
      <trkpt lat="50.06306" lon="4.04417">
        <ele>169.8</ele>
        <time>2024-04-28T08:25:23Z</time>
      </trkpt>
      <trkpt lat="50.06305" lon="4.04425">
        <ele>170</ele>
        <time>2024-04-28T08:25:24Z</time>
      </trkpt>
      <trkpt lat="50.06304" lon="4.04434">
        <ele>170</ele>
        <time>2024-04-28T08:25:25Z</time>
      </trkpt>
      <trkpt lat="50.06303" lon="4.04442">
        <ele>170.2</ele>
        <time>2024-04-28T08:25:26Z</time>
      </trkpt>
      <trkpt lat="50.06302" lon="4.04451">
        <ele>170</ele>
        <time>2024-04-28T08:25:27Z</time>
      </trkpt>
      <trkpt lat="50.06301" lon="4.04459">
        <ele>170.2</ele>
        <time>2024-04-28T08:25:28Z</time>
      </trkpt>
      <trkpt lat="50.063" lon="4.04467">
        <ele>170.2</ele>
        <time>2024-04-28T08:25:29Z</time>
      </trkpt>
      <trkpt lat="50.06298" lon="4.04475">
        <ele>170.4</ele>
        <time>2024-04-28T08:25:30Z</time>
      </trkpt>
      <trkpt lat="50.06297" lon="4.04483">
        <ele>170.4</ele>
        <time>2024-04-28T08:25:31Z</time>
      </trkpt>
      <trkpt lat="50.06295" lon="4.04491">
        <ele>170.6</ele>
        <time>2024-04-28T08:25:32Z</time>
      </trkpt>
      <trkpt lat="50.06294" lon="4.04499">
        <ele>171.2</ele>
        <time>2024-04-28T08:25:33Z</time>
      </trkpt>
      <trkpt lat="50.06292" lon="4.04507">
        <ele>171.6</ele>
        <time>2024-04-28T08:25:34Z</time>
      </trkpt>
      <trkpt lat="50.0629" lon="4.04515">
        <ele>172</ele>
        <time>2024-04-28T08:25:35Z</time>
      </trkpt>
      <trkpt lat="50.06288" lon="4.04523">
        <ele>172.2</ele>
        <time>2024-04-28T08:25:36Z</time>
      </trkpt>
      <trkpt lat="50.06286" lon="4.04531">
        <ele>172.4</ele>
        <time>2024-04-28T08:25:37Z</time>
      </trkpt>
      <trkpt lat="50.06283" lon="4.0454">
        <ele>173.2</ele>
        <time>2024-04-28T08:25:38Z</time>
      </trkpt>
      <trkpt lat="50.06281" lon="4.04549">
        <ele>173.6</ele>
        <time>2024-04-28T08:25:39Z</time>
      </trkpt>
      <trkpt lat="50.06278" lon="4.04558">
        <ele>173.8</ele>
        <time>2024-04-28T08:25:40Z</time>
      </trkpt>
      <trkpt lat="50.06275" lon="4.04566">
        <ele>173.8</ele>
        <time>2024-04-28T08:25:41Z</time>
      </trkpt>
      <trkpt lat="50.06272" lon="4.04575">
        <ele>174</ele>
        <time>2024-04-28T08:25:42Z</time>
      </trkpt>
      <trkpt lat="50.06269" lon="4.04584">
        <ele>174.2</ele>
        <time>2024-04-28T08:25:43Z</time>
      </trkpt>
      <trkpt lat="50.06266" lon="4.04593">
        <ele>174</ele>
        <time>2024-04-28T08:25:44Z</time>
      </trkpt>
      <trkpt lat="50.06263" lon="4.04603">
        <ele>174.2</ele>
        <time>2024-04-28T08:25:45Z</time>
      </trkpt>
      <trkpt lat="50.06259" lon="4.04612">
        <ele>174.4</ele>
        <time>2024-04-28T08:25:46Z</time>
      </trkpt>
      <trkpt lat="50.06256" lon="4.04621">
        <ele>174.4</ele>
        <time>2024-04-28T08:25:47Z</time>
      </trkpt>
      <trkpt lat="50.06253" lon="4.0463">
        <ele>174.4</ele>
        <time>2024-04-28T08:25:48Z</time>
      </trkpt>
      <trkpt lat="50.0625" lon="4.04639">
        <ele>174.6</ele>
        <time>2024-04-28T08:25:49Z</time>
      </trkpt>
      <trkpt lat="50.06246" lon="4.04649">
        <ele>174.8</ele>
        <time>2024-04-28T08:25:50Z</time>
      </trkpt>
      <trkpt lat="50.06243" lon="4.04658">
        <ele>174.8</ele>
        <time>2024-04-28T08:25:51Z</time>
      </trkpt>
      <trkpt lat="50.0624" lon="4.04667">
        <ele>175</ele>
        <time>2024-04-28T08:25:52Z</time>
      </trkpt>
      <trkpt lat="50.06237" lon="4.04675">
        <ele>175.2</ele>
        <time>2024-04-28T08:25:53Z</time>
      </trkpt>
      <trkpt lat="50.06234" lon="4.04684">
        <ele>175.4</ele>
        <time>2024-04-28T08:25:54Z</time>
      </trkpt>
      <trkpt lat="50.0623" lon="4.04694">
        <ele>175.6</ele>
        <time>2024-04-28T08:25:55Z</time>
      </trkpt>
      <trkpt lat="50.06227" lon="4.04703">
        <ele>175.6</ele>
        <time>2024-04-28T08:25:56Z</time>
      </trkpt>
      <trkpt lat="50.06224" lon="4.04712">
        <ele>175.6</ele>
        <time>2024-04-28T08:25:57Z</time>
      </trkpt>
      <trkpt lat="50.06221" lon="4.04722">
        <ele>175.6</ele>
        <time>2024-04-28T08:25:58Z</time>
      </trkpt>
      <trkpt lat="50.06217" lon="4.04731">
        <ele>175.8</ele>
        <time>2024-04-28T08:25:59Z</time>
      </trkpt>
      <trkpt lat="50.06214" lon="4.04741">
        <ele>176</ele>
        <time>2024-04-28T08:26:00Z</time>
      </trkpt>
      <trkpt lat="50.06211" lon="4.0475">
        <ele>176</ele>
        <time>2024-04-28T08:26:01Z</time>
      </trkpt>
      <trkpt lat="50.06207" lon="4.04759">
        <ele>176.2</ele>
        <time>2024-04-28T08:26:02Z</time>
      </trkpt>
      <trkpt lat="50.06204" lon="4.04769">
        <ele>176.4</ele>
        <time>2024-04-28T08:26:03Z</time>
      </trkpt>
      <trkpt lat="50.06201" lon="4.04778">
        <ele>176.2</ele>
        <time>2024-04-28T08:26:04Z</time>
      </trkpt>
      <trkpt lat="50.06198" lon="4.04788">
        <ele>176.4</ele>
        <time>2024-04-28T08:26:05Z</time>
      </trkpt>
      <trkpt lat="50.06195" lon="4.04798">
        <ele>176.4</ele>
        <time>2024-04-28T08:26:06Z</time>
      </trkpt>
      <trkpt lat="50.06193" lon="4.04808">
        <ele>176.4</ele>
        <time>2024-04-28T08:26:07Z</time>
      </trkpt>
      <trkpt lat="50.06191" lon="4.04818">
        <ele>176.4</ele>
        <time>2024-04-28T08:26:08Z</time>
      </trkpt>
      <trkpt lat="50.06188" lon="4.04829">
        <ele>176.4</ele>
        <time>2024-04-28T08:26:09Z</time>
      </trkpt>
      <trkpt lat="50.06187" lon="4.0484">
        <ele>176.4</ele>
        <time>2024-04-28T08:26:10Z</time>
      </trkpt>
      <trkpt lat="50.06185" lon="4.04851">
        <ele>176.4</ele>
        <time>2024-04-28T08:26:11Z</time>
      </trkpt>
      <trkpt lat="50.06184" lon="4.04862">
        <ele>176.8</ele>
        <time>2024-04-28T08:26:12Z</time>
      </trkpt>
      <trkpt lat="50.06183" lon="4.04873">
        <ele>176.8</ele>
        <time>2024-04-28T08:26:13Z</time>
      </trkpt>
      <trkpt lat="50.06181" lon="4.04885">
        <ele>177</ele>
        <time>2024-04-28T08:26:14Z</time>
      </trkpt>
      <trkpt lat="50.0618" lon="4.04897">
        <ele>177</ele>
        <time>2024-04-28T08:26:15Z</time>
      </trkpt>
      <trkpt lat="50.0618" lon="4.0491">
        <ele>177</ele>
        <time>2024-04-28T08:26:16Z</time>
      </trkpt>
      <trkpt lat="50.06179" lon="4.04922">
        <ele>177</ele>
        <time>2024-04-28T08:26:17Z</time>
      </trkpt>
      <trkpt lat="50.06178" lon="4.04934">
        <ele>177</ele>
        <time>2024-04-28T08:26:18Z</time>
      </trkpt>
      <trkpt lat="50.06176" lon="4.04946">
        <ele>177</ele>
        <time>2024-04-28T08:26:19Z</time>
      </trkpt>
      <trkpt lat="50.06175" lon="4.04958">
        <ele>177</ele>
        <time>2024-04-28T08:26:20Z</time>
      </trkpt>
      <trkpt lat="50.06174" lon="4.04969">
        <ele>177</ele>
        <time>2024-04-28T08:26:21Z</time>
      </trkpt>
      <trkpt lat="50.06173" lon="4.0498">
        <ele>177</ele>
        <time>2024-04-28T08:26:22Z</time>
      </trkpt>
      <trkpt lat="50.06171" lon="4.04991">
        <ele>176.8</ele>
        <time>2024-04-28T08:26:23Z</time>
      </trkpt>
      <trkpt lat="50.0617" lon="4.05001">
        <ele>176.6</ele>
        <time>2024-04-28T08:26:24Z</time>
      </trkpt>
      <trkpt lat="50.06168" lon="4.05012">
        <ele>176.6</ele>
        <time>2024-04-28T08:26:25Z</time>
      </trkpt>
      <trkpt lat="50.06166" lon="4.05021">
        <ele>176.6</ele>
        <time>2024-04-28T08:26:26Z</time>
      </trkpt>
      <trkpt lat="50.06164" lon="4.05031">
        <ele>176.6</ele>
        <time>2024-04-28T08:26:27Z</time>
      </trkpt>
      <trkpt lat="50.06161" lon="4.0504">
        <ele>176.6</ele>
        <time>2024-04-28T08:26:28Z</time>
      </trkpt>
      <trkpt lat="50.06159" lon="4.05049">
        <ele>176.6</ele>
        <time>2024-04-28T08:26:29Z</time>
      </trkpt>
      <trkpt lat="50.06157" lon="4.05058">
        <ele>176.8</ele>
        <time>2024-04-28T08:26:30Z</time>
      </trkpt>
      <trkpt lat="50.06154" lon="4.05067">
        <ele>176.6</ele>
        <time>2024-04-28T08:26:31Z</time>
      </trkpt>
      <trkpt lat="50.06152" lon="4.05076">
        <ele>176.6</ele>
        <time>2024-04-28T08:26:32Z</time>
      </trkpt>
      <trkpt lat="50.0615" lon="4.05085">
        <ele>177</ele>
        <time>2024-04-28T08:26:33Z</time>
      </trkpt>
      <trkpt lat="50.06147" lon="4.05095">
        <ele>177.2</ele>
        <time>2024-04-28T08:26:34Z</time>
      </trkpt>
      <trkpt lat="50.06145" lon="4.05104">
        <ele>177.4</ele>
        <time>2024-04-28T08:26:35Z</time>
      </trkpt>
      <trkpt lat="50.06142" lon="4.05114">
        <ele>177.6</ele>
        <time>2024-04-28T08:26:36Z</time>
      </trkpt>
      <trkpt lat="50.0614" lon="4.05124">
        <ele>177.8</ele>
        <time>2024-04-28T08:26:37Z</time>
      </trkpt>
      <trkpt lat="50.06137" lon="4.05134">
        <ele>178</ele>
        <time>2024-04-28T08:26:38Z</time>
      </trkpt>
      <trkpt lat="50.06134" lon="4.05145">
        <ele>178.2</ele>
        <time>2024-04-28T08:26:39Z</time>
      </trkpt>
      <trkpt lat="50.06131" lon="4.05155">
        <ele>178.2</ele>
        <time>2024-04-28T08:26:40Z</time>
      </trkpt>
      <trkpt lat="50.06129" lon="4.05166">
        <ele>178.4</ele>
        <time>2024-04-28T08:26:41Z</time>
      </trkpt>
      <trkpt lat="50.06127" lon="4.05176">
        <ele>178.4</ele>
        <time>2024-04-28T08:26:42Z</time>
      </trkpt>
      <trkpt lat="50.06125" lon="4.05187">
        <ele>178.4</ele>
        <time>2024-04-28T08:26:43Z</time>
      </trkpt>
      <trkpt lat="50.06124" lon="4.05198">
        <ele>178.6</ele>
        <time>2024-04-28T08:26:44Z</time>
      </trkpt>
      <trkpt lat="50.06123" lon="4.05209">
        <ele>178.6</ele>
        <time>2024-04-28T08:26:45Z</time>
      </trkpt>
      <trkpt lat="50.06122" lon="4.0522">
        <ele>178.8</ele>
        <time>2024-04-28T08:26:46Z</time>
      </trkpt>
      <trkpt lat="50.06121" lon="4.05232">
        <ele>178.8</ele>
        <time>2024-04-28T08:26:47Z</time>
      </trkpt>
      <trkpt lat="50.06121" lon="4.05244">
        <ele>178.8</ele>
        <time>2024-04-28T08:26:48Z</time>
      </trkpt>
      <trkpt lat="50.06121" lon="4.05256">
        <ele>179</ele>
        <time>2024-04-28T08:26:49Z</time>
      </trkpt>
      <trkpt lat="50.06121" lon="4.05268">
        <ele>179</ele>
        <time>2024-04-28T08:26:50Z</time>
      </trkpt>
      <trkpt lat="50.06121" lon="4.0528">
        <ele>179.2</ele>
        <time>2024-04-28T08:26:51Z</time>
      </trkpt>
      <trkpt lat="50.06121" lon="4.05292">
        <ele>179.4</ele>
        <time>2024-04-28T08:26:52Z</time>
      </trkpt>
      <trkpt lat="50.06121" lon="4.05304">
        <ele>179.4</ele>
        <time>2024-04-28T08:26:53Z</time>
      </trkpt>
      <trkpt lat="50.0612" lon="4.05315">
        <ele>179.4</ele>
        <time>2024-04-28T08:26:54Z</time>
      </trkpt>
      <trkpt lat="50.0612" lon="4.05326">
        <ele>179.6</ele>
        <time>2024-04-28T08:26:55Z</time>
      </trkpt>
      <trkpt lat="50.0612" lon="4.05336">
        <ele>179.6</ele>
        <time>2024-04-28T08:26:56Z</time>
      </trkpt>
      <trkpt lat="50.0612" lon="4.05346">
        <ele>179.6</ele>
        <time>2024-04-28T08:26:57Z</time>
      </trkpt>
      <trkpt lat="50.0612" lon="4.05357">
        <ele>179.6</ele>
        <time>2024-04-28T08:26:58Z</time>
      </trkpt>
      <trkpt lat="50.0612" lon="4.05367">
        <ele>179.6</ele>
        <time>2024-04-28T08:26:59Z</time>
      </trkpt>
      <trkpt lat="50.0612" lon="4.05378">
        <ele>179.8</ele>
        <time>2024-04-28T08:27:00Z</time>
      </trkpt>
      <trkpt lat="50.06121" lon="4.05389">
        <ele>180.2</ele>
        <time>2024-04-28T08:27:01Z</time>
      </trkpt>
      <trkpt lat="50.06121" lon="4.054">
        <ele>180.4</ele>
        <time>2024-04-28T08:27:02Z</time>
      </trkpt>
      <trkpt lat="50.06121" lon="4.05412">
        <ele>180.8</ele>
        <time>2024-04-28T08:27:03Z</time>
      </trkpt>
      <trkpt lat="50.06121" lon="4.05424">
        <ele>181.4</ele>
        <time>2024-04-28T08:27:04Z</time>
      </trkpt>
      <trkpt lat="50.0612" lon="4.05435">
        <ele>182</ele>
        <time>2024-04-28T08:27:05Z</time>
      </trkpt>
      <trkpt lat="50.0612" lon="4.05445">
        <ele>182.4</ele>
        <time>2024-04-28T08:27:06Z</time>
      </trkpt>
      <trkpt lat="50.0612" lon="4.05455">
        <ele>182.8</ele>
        <time>2024-04-28T08:27:07Z</time>
      </trkpt>
      <trkpt lat="50.06119" lon="4.05465">
        <ele>183</ele>
        <time>2024-04-28T08:27:08Z</time>
      </trkpt>
      <trkpt lat="50.06119" lon="4.05475">
        <ele>183.2</ele>
        <time>2024-04-28T08:27:09Z</time>
      </trkpt>
      <trkpt lat="50.06119" lon="4.05485">
        <ele>183.4</ele>
        <time>2024-04-28T08:27:10Z</time>
      </trkpt>
      <trkpt lat="50.06118" lon="4.05496">
        <ele>183.4</ele>
        <time>2024-04-28T08:27:11Z</time>
      </trkpt>
      <trkpt lat="50.06118" lon="4.05506">
        <ele>183.4</ele>
        <time>2024-04-28T08:27:12Z</time>
      </trkpt>
      <trkpt lat="50.06117" lon="4.05516">
        <ele>183.6</ele>
        <time>2024-04-28T08:27:13Z</time>
      </trkpt>
      <trkpt lat="50.06117" lon="4.05527">
        <ele>183.6</ele>
        <time>2024-04-28T08:27:14Z</time>
      </trkpt>
      <trkpt lat="50.06116" lon="4.05537">
        <ele>183.6</ele>
        <time>2024-04-28T08:27:15Z</time>
      </trkpt>
      <trkpt lat="50.06115" lon="4.05548">
        <ele>183.6</ele>
        <time>2024-04-28T08:27:16Z</time>
      </trkpt>
      <trkpt lat="50.06114" lon="4.05559">
        <ele>184</ele>
        <time>2024-04-28T08:27:17Z</time>
      </trkpt>
      <trkpt lat="50.06114" lon="4.05571">
        <ele>184.2</ele>
        <time>2024-04-28T08:27:18Z</time>
      </trkpt>
      <trkpt lat="50.06113" lon="4.05583">
        <ele>184.4</ele>
        <time>2024-04-28T08:27:19Z</time>
      </trkpt>
      <trkpt lat="50.06113" lon="4.05594">
        <ele>184.6</ele>
        <time>2024-04-28T08:27:20Z</time>
      </trkpt>
      <trkpt lat="50.06112" lon="4.05606">
        <ele>184.4</ele>
        <time>2024-04-28T08:27:21Z</time>
      </trkpt>
      <trkpt lat="50.06111" lon="4.05619">
        <ele>184.6</ele>
        <time>2024-04-28T08:27:22Z</time>
      </trkpt>
      <trkpt lat="50.0611" lon="4.05632">
        <ele>184.6</ele>
        <time>2024-04-28T08:27:23Z</time>
      </trkpt>
      <trkpt lat="50.0611" lon="4.05645">
        <ele>184.4</ele>
        <time>2024-04-28T08:27:24Z</time>
      </trkpt>
      <trkpt lat="50.06109" lon="4.05657">
        <ele>184.6</ele>
        <time>2024-04-28T08:27:25Z</time>
      </trkpt>
      <trkpt lat="50.06108" lon="4.0567">
        <ele>184.4</ele>
        <time>2024-04-28T08:27:26Z</time>
      </trkpt>
      <trkpt lat="50.06108" lon="4.05683">
        <ele>184.6</ele>
        <time>2024-04-28T08:27:27Z</time>
      </trkpt>
      <trkpt lat="50.06107" lon="4.05695">
        <ele>184.4</ele>
        <time>2024-04-28T08:27:28Z</time>
      </trkpt>
      <trkpt lat="50.06106" lon="4.05708">
        <ele>184.2</ele>
        <time>2024-04-28T08:27:29Z</time>
      </trkpt>
      <trkpt lat="50.06105" lon="4.0572">
        <ele>183.4</ele>
        <time>2024-04-28T08:27:30Z</time>
      </trkpt>
      <trkpt lat="50.06104" lon="4.05732">
        <ele>183.2</ele>
        <time>2024-04-28T08:27:31Z</time>
      </trkpt>
      <trkpt lat="50.06103" lon="4.05743">
        <ele>183</ele>
        <time>2024-04-28T08:27:32Z</time>
      </trkpt>
      <trkpt lat="50.06101" lon="4.05755">
        <ele>183</ele>
        <time>2024-04-28T08:27:33Z</time>
      </trkpt>
      <trkpt lat="50.06099" lon="4.05766">
        <ele>183</ele>
        <time>2024-04-28T08:27:34Z</time>
      </trkpt>
      <trkpt lat="50.06096" lon="4.05777">
        <ele>182.6</ele>
        <time>2024-04-28T08:27:35Z</time>
      </trkpt>
      <trkpt lat="50.06093" lon="4.05788">
        <ele>182.6</ele>
        <time>2024-04-28T08:27:36Z</time>
      </trkpt>
      <trkpt lat="50.0609" lon="4.05799">
        <ele>182.6</ele>
        <time>2024-04-28T08:27:37Z</time>
      </trkpt>
      <trkpt lat="50.06086" lon="4.0581">
        <ele>182.6</ele>
        <time>2024-04-28T08:27:38Z</time>
      </trkpt>
      <trkpt lat="50.06083" lon="4.05821">
        <ele>182.6</ele>
        <time>2024-04-28T08:27:39Z</time>
      </trkpt>
      <trkpt lat="50.06079" lon="4.05831">
        <ele>182.6</ele>
        <time>2024-04-28T08:27:40Z</time>
      </trkpt>
      <trkpt lat="50.06075" lon="4.05842">
        <ele>182.4</ele>
        <time>2024-04-28T08:27:41Z</time>
      </trkpt>
      <trkpt lat="50.06072" lon="4.05852">
        <ele>182.6</ele>
        <time>2024-04-28T08:27:42Z</time>
      </trkpt>
      <trkpt lat="50.06068" lon="4.05863">
        <ele>182.6</ele>
        <time>2024-04-28T08:27:43Z</time>
      </trkpt>
      <trkpt lat="50.06064" lon="4.05874">
        <ele>182.6</ele>
        <time>2024-04-28T08:27:44Z</time>
      </trkpt>
      <trkpt lat="50.0606" lon="4.05885">
        <ele>182.6</ele>
        <time>2024-04-28T08:27:45Z</time>
      </trkpt>
      <trkpt lat="50.06056" lon="4.05896">
        <ele>182.8</ele>
        <time>2024-04-28T08:27:46Z</time>
      </trkpt>
      <trkpt lat="50.06052" lon="4.05907">
        <ele>182.8</ele>
        <time>2024-04-28T08:27:47Z</time>
      </trkpt>
      <trkpt lat="50.06049" lon="4.05918">
        <ele>182.6</ele>
        <time>2024-04-28T08:27:48Z</time>
      </trkpt>
      <trkpt lat="50.06046" lon="4.05929">
        <ele>182.6</ele>
        <time>2024-04-28T08:27:49Z</time>
      </trkpt>
      <trkpt lat="50.06043" lon="4.05941">
        <ele>182.6</ele>
        <time>2024-04-28T08:27:50Z</time>
      </trkpt>
      <trkpt lat="50.0604" lon="4.05952">
        <ele>182.6</ele>
        <time>2024-04-28T08:27:51Z</time>
      </trkpt>
      <trkpt lat="50.06038" lon="4.05964">
        <ele>182.8</ele>
        <time>2024-04-28T08:27:52Z</time>
      </trkpt>
      <trkpt lat="50.06035" lon="4.05976">
        <ele>182.6</ele>
        <time>2024-04-28T08:27:53Z</time>
      </trkpt>
      <trkpt lat="50.06033" lon="4.05989">
        <ele>182.6</ele>
        <time>2024-04-28T08:27:54Z</time>
      </trkpt>
      <trkpt lat="50.06031" lon="4.06001">
        <ele>182.6</ele>
        <time>2024-04-28T08:27:55Z</time>
      </trkpt>
      <trkpt lat="50.06029" lon="4.06014">
        <ele>182.6</ele>
        <time>2024-04-28T08:27:56Z</time>
      </trkpt>
      <trkpt lat="50.06027" lon="4.06026">
        <ele>182.6</ele>
        <time>2024-04-28T08:27:57Z</time>
      </trkpt>
      <trkpt lat="50.06025" lon="4.06039">
        <ele>182.6</ele>
        <time>2024-04-28T08:27:58Z</time>
      </trkpt>
      <trkpt lat="50.06023" lon="4.06052">
        <ele>182.8</ele>
        <time>2024-04-28T08:27:59Z</time>
      </trkpt>
      <trkpt lat="50.06021" lon="4.06065">
        <ele>182.6</ele>
        <time>2024-04-28T08:28:00Z</time>
      </trkpt>
      <trkpt lat="50.06019" lon="4.06078">
        <ele>182.6</ele>
        <time>2024-04-28T08:28:01Z</time>
      </trkpt>
      <trkpt lat="50.06017" lon="4.06091">
        <ele>182.4</ele>
        <time>2024-04-28T08:28:02Z</time>
      </trkpt>
      <trkpt lat="50.06014" lon="4.06105">
        <ele>182.6</ele>
        <time>2024-04-28T08:28:03Z</time>
      </trkpt>
      <trkpt lat="50.06012" lon="4.06118">
        <ele>182</ele>
        <time>2024-04-28T08:28:04Z</time>
      </trkpt>
      <trkpt lat="50.0601" lon="4.06132">
        <ele>182</ele>
        <time>2024-04-28T08:28:05Z</time>
      </trkpt>
      <trkpt lat="50.06008" lon="4.06146">
        <ele>182</ele>
        <time>2024-04-28T08:28:06Z</time>
      </trkpt>
      <trkpt lat="50.06006" lon="4.0616">
        <ele>181.8</ele>
        <time>2024-04-28T08:28:07Z</time>
      </trkpt>
      <trkpt lat="50.06003" lon="4.06175">
        <ele>181.6</ele>
        <time>2024-04-28T08:28:08Z</time>
      </trkpt>
      <trkpt lat="50.06001" lon="4.06189">
        <ele>181.4</ele>
        <time>2024-04-28T08:28:09Z</time>
      </trkpt>
      <trkpt lat="50.05998" lon="4.06203">
        <ele>181.2</ele>
        <time>2024-04-28T08:28:10Z</time>
      </trkpt>
      <trkpt lat="50.05996" lon="4.06216">
        <ele>180.8</ele>
        <time>2024-04-28T08:28:11Z</time>
      </trkpt>
      <trkpt lat="50.05994" lon="4.0623">
        <ele>180.4</ele>
        <time>2024-04-28T08:28:12Z</time>
      </trkpt>
      <trkpt lat="50.05992" lon="4.06243">
        <ele>179.8</ele>
        <time>2024-04-28T08:28:13Z</time>
      </trkpt>
      <trkpt lat="50.05989" lon="4.06257">
        <ele>179.4</ele>
        <time>2024-04-28T08:28:14Z</time>
      </trkpt>
      <trkpt lat="50.05987" lon="4.0627">
        <ele>179</ele>
        <time>2024-04-28T08:28:15Z</time>
      </trkpt>
      <trkpt lat="50.05985" lon="4.06283">
        <ele>179</ele>
        <time>2024-04-28T08:28:16Z</time>
      </trkpt>
      <trkpt lat="50.05983" lon="4.06297">
        <ele>179</ele>
        <time>2024-04-28T08:28:17Z</time>
      </trkpt>
      <trkpt lat="50.05981" lon="4.0631">
        <ele>178.6</ele>
        <time>2024-04-28T08:28:18Z</time>
      </trkpt>
      <trkpt lat="50.05978" lon="4.06323">
        <ele>178.4</ele>
        <time>2024-04-28T08:28:19Z</time>
      </trkpt>
      <trkpt lat="50.05976" lon="4.06336">
        <ele>178.4</ele>
        <time>2024-04-28T08:28:20Z</time>
      </trkpt>
      <trkpt lat="50.05974" lon="4.06349">
        <ele>178.4</ele>
        <time>2024-04-28T08:28:21Z</time>
      </trkpt>
      <trkpt lat="50.05972" lon="4.06362">
        <ele>178.4</ele>
        <time>2024-04-28T08:28:22Z</time>
      </trkpt>
      <trkpt lat="50.0597" lon="4.06374">
        <ele>178.2</ele>
        <time>2024-04-28T08:28:23Z</time>
      </trkpt>
      <trkpt lat="50.05968" lon="4.06385">
        <ele>178.4</ele>
        <time>2024-04-28T08:28:24Z</time>
      </trkpt>
      <trkpt lat="50.05967" lon="4.06397">
        <ele>178.2</ele>
        <time>2024-04-28T08:28:25Z</time>
      </trkpt>
      <trkpt lat="50.05965" lon="4.06409">
        <ele>178.2</ele>
        <time>2024-04-28T08:28:26Z</time>
      </trkpt>
      <trkpt lat="50.05964" lon="4.06421">
        <ele>178.4</ele>
        <time>2024-04-28T08:28:27Z</time>
      </trkpt>
      <trkpt lat="50.05963" lon="4.06433">
        <ele>178.4</ele>
        <time>2024-04-28T08:28:28Z</time>
      </trkpt>
      <trkpt lat="50.05962" lon="4.06445">
        <ele>178.2</ele>
        <time>2024-04-28T08:28:29Z</time>
      </trkpt>
      <trkpt lat="50.05961" lon="4.06457">
        <ele>178.4</ele>
        <time>2024-04-28T08:28:30Z</time>
      </trkpt>
      <trkpt lat="50.05961" lon="4.06469">
        <ele>178.4</ele>
        <time>2024-04-28T08:28:31Z</time>
      </trkpt>
      <trkpt lat="50.0596" lon="4.06481">
        <ele>178.8</ele>
        <time>2024-04-28T08:28:32Z</time>
      </trkpt>
      <trkpt lat="50.05959" lon="4.06492">
        <ele>179.6</ele>
        <time>2024-04-28T08:28:33Z</time>
      </trkpt>
      <trkpt lat="50.05958" lon="4.06505">
        <ele>179.8</ele>
        <time>2024-04-28T08:28:34Z</time>
      </trkpt>
      <trkpt lat="50.05958" lon="4.06517">
        <ele>180.2</ele>
        <time>2024-04-28T08:28:35Z</time>
      </trkpt>
      <trkpt lat="50.05957" lon="4.06529">
        <ele>180.4</ele>
        <time>2024-04-28T08:28:36Z</time>
      </trkpt>
      <trkpt lat="50.05956" lon="4.06542">
        <ele>180.4</ele>
        <time>2024-04-28T08:28:37Z</time>
      </trkpt>
      <trkpt lat="50.05955" lon="4.06555">
        <ele>180.4</ele>
        <time>2024-04-28T08:28:38Z</time>
      </trkpt>
      <trkpt lat="50.05954" lon="4.06568">
        <ele>180.4</ele>
        <time>2024-04-28T08:28:39Z</time>
      </trkpt>
      <trkpt lat="50.05953" lon="4.06581">
        <ele>180.6</ele>
        <time>2024-04-28T08:28:40Z</time>
      </trkpt>
      <trkpt lat="50.05953" lon="4.06595">
        <ele>180.4</ele>
        <time>2024-04-28T08:28:41Z</time>
      </trkpt>
      <trkpt lat="50.05952" lon="4.06609">
        <ele>180.6</ele>
        <time>2024-04-28T08:28:42Z</time>
      </trkpt>
      <trkpt lat="50.05951" lon="4.06623">
        <ele>180.6</ele>
        <time>2024-04-28T08:28:43Z</time>
      </trkpt>
      <trkpt lat="50.0595" lon="4.06636">
        <ele>180.6</ele>
        <time>2024-04-28T08:28:44Z</time>
      </trkpt>
      <trkpt lat="50.05949" lon="4.0665">
        <ele>180.6</ele>
        <time>2024-04-28T08:28:45Z</time>
      </trkpt>
      <trkpt lat="50.05948" lon="4.06664">
        <ele>180.6</ele>
        <time>2024-04-28T08:28:46Z</time>
      </trkpt>
      <trkpt lat="50.05947" lon="4.06677">
        <ele>180.6</ele>
        <time>2024-04-28T08:28:47Z</time>
      </trkpt>
      <trkpt lat="50.05947" lon="4.06691">
        <ele>180.6</ele>
        <time>2024-04-28T08:28:48Z</time>
      </trkpt>
      <trkpt lat="50.05946" lon="4.06704">
        <ele>180.6</ele>
        <time>2024-04-28T08:28:49Z</time>
      </trkpt>
      <trkpt lat="50.05944" lon="4.06718">
        <ele>180.4</ele>
        <time>2024-04-28T08:28:50Z</time>
      </trkpt>
      <trkpt lat="50.05943" lon="4.06731">
        <ele>180.6</ele>
        <time>2024-04-28T08:28:51Z</time>
      </trkpt>
      <trkpt lat="50.05941" lon="4.06744">
        <ele>180.4</ele>
        <time>2024-04-28T08:28:52Z</time>
      </trkpt>
      <trkpt lat="50.05939" lon="4.06758">
        <ele>180.4</ele>
        <time>2024-04-28T08:28:53Z</time>
      </trkpt>
      <trkpt lat="50.05937" lon="4.06771">
        <ele>180.4</ele>
        <time>2024-04-28T08:28:54Z</time>
      </trkpt>
      <trkpt lat="50.05935" lon="4.06785">
        <ele>180.2</ele>
        <time>2024-04-28T08:28:55Z</time>
      </trkpt>
      <trkpt lat="50.05932" lon="4.06799">
        <ele>180</ele>
        <time>2024-04-28T08:28:56Z</time>
      </trkpt>
      <trkpt lat="50.0593" lon="4.06813">
        <ele>179.8</ele>
        <time>2024-04-28T08:28:57Z</time>
      </trkpt>
      <trkpt lat="50.05927" lon="4.06827">
        <ele>179.8</ele>
        <time>2024-04-28T08:28:58Z</time>
      </trkpt>
      <trkpt lat="50.05925" lon="4.06841">
        <ele>179.4</ele>
        <time>2024-04-28T08:28:59Z</time>
      </trkpt>
      <trkpt lat="50.05922" lon="4.06855">
        <ele>178.8</ele>
        <time>2024-04-28T08:29:00Z</time>
      </trkpt>
      <trkpt lat="50.05919" lon="4.06869">
        <ele>178</ele>
        <time>2024-04-28T08:29:01Z</time>
      </trkpt>
      <trkpt lat="50.05917" lon="4.06884">
        <ele>177.6</ele>
        <time>2024-04-28T08:29:02Z</time>
      </trkpt>
      <trkpt lat="50.05914" lon="4.06899">
        <ele>176.8</ele>
        <time>2024-04-28T08:29:03Z</time>
      </trkpt>
      <trkpt lat="50.05911" lon="4.06914">
        <ele>176.4</ele>
        <time>2024-04-28T08:29:04Z</time>
      </trkpt>
      <trkpt lat="50.05909" lon="4.06929">
        <ele>176.2</ele>
        <time>2024-04-28T08:29:05Z</time>
      </trkpt>
      <trkpt lat="50.05906" lon="4.06944">
        <ele>175.8</ele>
        <time>2024-04-28T08:29:06Z</time>
      </trkpt>
      <trkpt lat="50.05904" lon="4.06959">
        <ele>175.6</ele>
        <time>2024-04-28T08:29:07Z</time>
      </trkpt>
      <trkpt lat="50.05901" lon="4.06974">
        <ele>175.2</ele>
        <time>2024-04-28T08:29:08Z</time>
      </trkpt>
      <trkpt lat="50.05899" lon="4.06989">
        <ele>175</ele>
        <time>2024-04-28T08:29:09Z</time>
      </trkpt>
      <trkpt lat="50.05897" lon="4.07004">
        <ele>174.4</ele>
        <time>2024-04-28T08:29:10Z</time>
      </trkpt>
      <trkpt lat="50.05895" lon="4.07019">
        <ele>173.8</ele>
        <time>2024-04-28T08:29:11Z</time>
      </trkpt>
      <trkpt lat="50.05894" lon="4.07034">
        <ele>173.2</ele>
        <time>2024-04-28T08:29:12Z</time>
      </trkpt>
      <trkpt lat="50.05892" lon="4.07049">
        <ele>172.6</ele>
        <time>2024-04-28T08:29:13Z</time>
      </trkpt>
      <trkpt lat="50.05891" lon="4.07063">
        <ele>172.4</ele>
        <time>2024-04-28T08:29:14Z</time>
      </trkpt>
      <trkpt lat="50.05889" lon="4.07078">
        <ele>172.4</ele>
        <time>2024-04-28T08:29:15Z</time>
      </trkpt>
      <trkpt lat="50.05888" lon="4.07092">
        <ele>172.4</ele>
        <time>2024-04-28T08:29:16Z</time>
      </trkpt>
      <trkpt lat="50.05886" lon="4.07107">
        <ele>172.2</ele>
        <time>2024-04-28T08:29:17Z</time>
      </trkpt>
      <trkpt lat="50.05884" lon="4.07121">
        <ele>172.2</ele>
        <time>2024-04-28T08:29:18Z</time>
      </trkpt>
      <trkpt lat="50.05883" lon="4.07136">
        <ele>172.2</ele>
        <time>2024-04-28T08:29:19Z</time>
      </trkpt>
      <trkpt lat="50.0588" lon="4.0715">
        <ele>172</ele>
        <time>2024-04-28T08:29:20Z</time>
      </trkpt>
      <trkpt lat="50.05877" lon="4.07163">
        <ele>172</ele>
        <time>2024-04-28T08:29:21Z</time>
      </trkpt>
      <trkpt lat="50.05873" lon="4.07176">
        <ele>172.2</ele>
        <time>2024-04-28T08:29:22Z</time>
      </trkpt>
      <trkpt lat="50.05869" lon="4.07188">
        <ele>172.2</ele>
        <time>2024-04-28T08:29:23Z</time>
      </trkpt>
      <trkpt lat="50.05865" lon="4.072">
        <ele>172.2</ele>
        <time>2024-04-28T08:29:24Z</time>
      </trkpt>
      <trkpt lat="50.0586" lon="4.0721">
        <ele>172.4</ele>
        <time>2024-04-28T08:29:25Z</time>
      </trkpt>
      <trkpt lat="50.05856" lon="4.07221">
        <ele>172.8</ele>
        <time>2024-04-28T08:29:26Z</time>
      </trkpt>
      <trkpt lat="50.05852" lon="4.07231">
        <ele>173</ele>
        <time>2024-04-28T08:29:27Z</time>
      </trkpt>
      <trkpt lat="50.05849" lon="4.07241">
        <ele>173.2</ele>
        <time>2024-04-28T08:29:28Z</time>
      </trkpt>
      <trkpt lat="50.05845" lon="4.0725">
        <ele>173.4</ele>
        <time>2024-04-28T08:29:29Z</time>
      </trkpt>
      <trkpt lat="50.05842" lon="4.07259">
        <ele>173.6</ele>
        <time>2024-04-28T08:29:30Z</time>
      </trkpt>
      <trkpt lat="50.05838" lon="4.07268">
        <ele>173.6</ele>
        <time>2024-04-28T08:29:31Z</time>
      </trkpt>
      <trkpt lat="50.05835" lon="4.07276">
        <ele>174</ele>
        <time>2024-04-28T08:29:32Z</time>
      </trkpt>
      <trkpt lat="50.05832" lon="4.07284">
        <ele>174.6</ele>
        <time>2024-04-28T08:29:33Z</time>
      </trkpt>
      <trkpt lat="50.05829" lon="4.07292">
        <ele>175</ele>
        <time>2024-04-28T08:29:34Z</time>
      </trkpt>
      <trkpt lat="50.05826" lon="4.073">
        <ele>175.4</ele>
        <time>2024-04-28T08:29:35Z</time>
      </trkpt>
      <trkpt lat="50.05823" lon="4.07308">
        <ele>175.8</ele>
        <time>2024-04-28T08:29:36Z</time>
      </trkpt>
      <trkpt lat="50.05821" lon="4.07316">
        <ele>176</ele>
        <time>2024-04-28T08:29:37Z</time>
      </trkpt>
      <trkpt lat="50.05818" lon="4.07323">
        <ele>176.2</ele>
        <time>2024-04-28T08:29:38Z</time>
      </trkpt>
      <trkpt lat="50.05815" lon="4.07331">
        <ele>176.2</ele>
        <time>2024-04-28T08:29:39Z</time>
      </trkpt>
      <trkpt lat="50.05812" lon="4.07339">
        <ele>176</ele>
        <time>2024-04-28T08:29:40Z</time>
      </trkpt>
      <trkpt lat="50.05809" lon="4.07347">
        <ele>176.2</ele>
        <time>2024-04-28T08:29:41Z</time>
      </trkpt>
      <trkpt lat="50.05806" lon="4.07354">
        <ele>176.2</ele>
        <time>2024-04-28T08:29:42Z</time>
      </trkpt>
      <trkpt lat="50.05803" lon="4.07362">
        <ele>176.4</ele>
        <time>2024-04-28T08:29:43Z</time>
      </trkpt>
      <trkpt lat="50.05799" lon="4.07368">
        <ele>176.4</ele>
        <time>2024-04-28T08:29:44Z</time>
      </trkpt>
      <trkpt lat="50.05795" lon="4.07373">
        <ele>176.2</ele>
        <time>2024-04-28T08:29:45Z</time>
      </trkpt>
      <trkpt lat="50.05789" lon="4.07374">
        <ele>176.4</ele>
        <time>2024-04-28T08:29:46Z</time>
      </trkpt>
      <trkpt lat="50.05784" lon="4.07372">
        <ele>176.4</ele>
        <time>2024-04-28T08:29:47Z</time>
      </trkpt>
      <trkpt lat="50.05779" lon="4.07367">
        <ele>176.4</ele>
        <time>2024-04-28T08:29:48Z</time>
      </trkpt>
      <trkpt lat="50.05774" lon="4.07362">
        <ele>176.2</ele>
        <time>2024-04-28T08:29:49Z</time>
      </trkpt>
      <trkpt lat="50.05769" lon="4.07356">
        <ele>176.2</ele>
        <time>2024-04-28T08:29:50Z</time>
      </trkpt>
      <trkpt lat="50.05763" lon="4.0735">
        <ele>176.2</ele>
        <time>2024-04-28T08:29:51Z</time>
      </trkpt>
      <trkpt lat="50.05758" lon="4.07345">
        <ele>176.2</ele>
        <time>2024-04-28T08:29:52Z</time>
      </trkpt>
      <trkpt lat="50.05752" lon="4.07339">
        <ele>176.2</ele>
        <time>2024-04-28T08:29:53Z</time>
      </trkpt>
      <trkpt lat="50.05747" lon="4.07334">
        <ele>176.2</ele>
        <time>2024-04-28T08:29:54Z</time>
      </trkpt>
      <trkpt lat="50.05741" lon="4.07329">
        <ele>176</ele>
        <time>2024-04-28T08:29:55Z</time>
      </trkpt>
      <trkpt lat="50.05736" lon="4.07323">
        <ele>176</ele>
        <time>2024-04-28T08:29:56Z</time>
      </trkpt>
      <trkpt lat="50.0573" lon="4.07318">
        <ele>176</ele>
        <time>2024-04-28T08:29:57Z</time>
      </trkpt>
      <trkpt lat="50.05725" lon="4.07313">
        <ele>176.2</ele>
        <time>2024-04-28T08:29:58Z</time>
      </trkpt>
      <trkpt lat="50.05719" lon="4.07308">
        <ele>176.2</ele>
        <time>2024-04-28T08:29:59Z</time>
      </trkpt>
      <trkpt lat="50.05714" lon="4.07303">
        <ele>176.4</ele>
        <time>2024-04-28T08:30:00Z</time>
      </trkpt>
      <trkpt lat="50.05708" lon="4.07299">
        <ele>176.2</ele>
        <time>2024-04-28T08:30:01Z</time>
      </trkpt>
      <trkpt lat="50.05702" lon="4.07294">
        <ele>176.4</ele>
        <time>2024-04-28T08:30:02Z</time>
      </trkpt>
      <trkpt lat="50.05697" lon="4.0729">
        <ele>176.4</ele>
        <time>2024-04-28T08:30:03Z</time>
      </trkpt>
      <trkpt lat="50.05691" lon="4.07286">
        <ele>176.4</ele>
        <time>2024-04-28T08:30:04Z</time>
      </trkpt>
      <trkpt lat="50.05685" lon="4.07282">
        <ele>176.4</ele>
        <time>2024-04-28T08:30:05Z</time>
      </trkpt>
      <trkpt lat="50.05679" lon="4.07278">
        <ele>176.4</ele>
        <time>2024-04-28T08:30:06Z</time>
      </trkpt>
      <trkpt lat="50.05674" lon="4.07274">
        <ele>176.6</ele>
        <time>2024-04-28T08:30:07Z</time>
      </trkpt>
      <trkpt lat="50.05668" lon="4.0727">
        <ele>176.8</ele>
        <time>2024-04-28T08:30:08Z</time>
      </trkpt>
      <trkpt lat="50.05662" lon="4.07266">
        <ele>177.2</ele>
        <time>2024-04-28T08:30:09Z</time>
      </trkpt>
      <trkpt lat="50.05656" lon="4.07263">
        <ele>177.4</ele>
        <time>2024-04-28T08:30:10Z</time>
      </trkpt>
      <trkpt lat="50.0565" lon="4.07259">
        <ele>177.6</ele>
        <time>2024-04-28T08:30:11Z</time>
      </trkpt>
      <trkpt lat="50.05644" lon="4.07255">
        <ele>177.6</ele>
        <time>2024-04-28T08:30:12Z</time>
      </trkpt>
      <trkpt lat="50.05638" lon="4.07251">
        <ele>177.8</ele>
        <time>2024-04-28T08:30:13Z</time>
      </trkpt>
      <trkpt lat="50.05632" lon="4.07247">
        <ele>177.6</ele>
        <time>2024-04-28T08:30:14Z</time>
      </trkpt>
      <trkpt lat="50.05626" lon="4.07243">
        <ele>177.8</ele>
        <time>2024-04-28T08:30:15Z</time>
      </trkpt>
      <trkpt lat="50.0562" lon="4.07239">
        <ele>177.8</ele>
        <time>2024-04-28T08:30:16Z</time>
      </trkpt>
      <trkpt lat="50.05614" lon="4.07235">
        <ele>177.6</ele>
        <time>2024-04-28T08:30:17Z</time>
      </trkpt>
      <trkpt lat="50.05608" lon="4.07231">
        <ele>177.8</ele>
        <time>2024-04-28T08:30:18Z</time>
      </trkpt>
      <trkpt lat="50.05602" lon="4.07227">
        <ele>177.8</ele>
        <time>2024-04-28T08:30:19Z</time>
      </trkpt>
      <trkpt lat="50.05596" lon="4.07223">
        <ele>177.6</ele>
        <time>2024-04-28T08:30:20Z</time>
      </trkpt>
      <trkpt lat="50.0559" lon="4.07219">
        <ele>177.8</ele>
        <time>2024-04-28T08:30:21Z</time>
      </trkpt>
      <trkpt lat="50.05584" lon="4.07215">
        <ele>177.8</ele>
        <time>2024-04-28T08:30:22Z</time>
      </trkpt>
      <trkpt lat="50.05579" lon="4.07211">
        <ele>177.8</ele>
        <time>2024-04-28T08:30:23Z</time>
      </trkpt>
      <trkpt lat="50.05573" lon="4.07207">
        <ele>177.8</ele>
        <time>2024-04-28T08:30:24Z</time>
      </trkpt>
      <trkpt lat="50.05568" lon="4.07202">
        <ele>177.8</ele>
        <time>2024-04-28T08:30:25Z</time>
      </trkpt>
      <trkpt lat="50.05562" lon="4.07198">
        <ele>177.8</ele>
        <time>2024-04-28T08:30:26Z</time>
      </trkpt>
      <trkpt lat="50.05557" lon="4.07194">
        <ele>178</ele>
        <time>2024-04-28T08:30:27Z</time>
      </trkpt>
      <trkpt lat="50.05552" lon="4.0719">
        <ele>178</ele>
        <time>2024-04-28T08:30:28Z</time>
      </trkpt>
      <trkpt lat="50.05546" lon="4.07186">
        <ele>178.2</ele>
        <time>2024-04-28T08:30:29Z</time>
      </trkpt>
      <trkpt lat="50.05541" lon="4.07182">
        <ele>178.4</ele>
        <time>2024-04-28T08:30:30Z</time>
      </trkpt>
      <trkpt lat="50.05536" lon="4.07178">
        <ele>178.4</ele>
        <time>2024-04-28T08:30:31Z</time>
      </trkpt>
      <trkpt lat="50.05531" lon="4.07174">
        <ele>178.6</ele>
        <time>2024-04-28T08:30:32Z</time>
      </trkpt>
      <trkpt lat="50.05525" lon="4.0717">
        <ele>178.8</ele>
        <time>2024-04-28T08:30:33Z</time>
      </trkpt>
      <trkpt lat="50.05519" lon="4.07167">
        <ele>178.8</ele>
        <time>2024-04-28T08:30:34Z</time>
      </trkpt>
      <trkpt lat="50.05514" lon="4.07163">
        <ele>179.2</ele>
        <time>2024-04-28T08:30:35Z</time>
      </trkpt>
      <trkpt lat="50.05508" lon="4.07159">
        <ele>179.2</ele>
        <time>2024-04-28T08:30:36Z</time>
      </trkpt>
      <trkpt lat="50.05503" lon="4.07155">
        <ele>179.8</ele>
        <time>2024-04-28T08:30:37Z</time>
      </trkpt>
      <trkpt lat="50.05498" lon="4.07151">
        <ele>180.2</ele>
        <time>2024-04-28T08:30:38Z</time>
      </trkpt>
      <trkpt lat="50.05493" lon="4.07147">
        <ele>180.2</ele>
        <time>2024-04-28T08:30:39Z</time>
      </trkpt>
      <trkpt lat="50.05488" lon="4.07142">
        <ele>180.6</ele>
        <time>2024-04-28T08:30:40Z</time>
      </trkpt>
      <trkpt lat="50.05482" lon="4.07138">
        <ele>180.6</ele>
        <time>2024-04-28T08:30:41Z</time>
      </trkpt>
      <trkpt lat="50.05478" lon="4.07133">
        <ele>180.6</ele>
        <time>2024-04-28T08:30:42Z</time>
      </trkpt>
      <trkpt lat="50.05473" lon="4.07129">
        <ele>181</ele>
        <time>2024-04-28T08:30:43Z</time>
      </trkpt>
      <trkpt lat="50.05468" lon="4.07124">
        <ele>181</ele>
        <time>2024-04-28T08:30:44Z</time>
      </trkpt>
      <trkpt lat="50.05463" lon="4.0712">
        <ele>181.2</ele>
        <time>2024-04-28T08:30:45Z</time>
      </trkpt>
      <trkpt lat="50.05458" lon="4.07116">
        <ele>181.4</ele>
        <time>2024-04-28T08:30:46Z</time>
      </trkpt>
      <trkpt lat="50.05453" lon="4.07112">
        <ele>181.4</ele>
        <time>2024-04-28T08:30:47Z</time>
      </trkpt>
      <trkpt lat="50.05449" lon="4.07109">
        <ele>181.6</ele>
        <time>2024-04-28T08:30:48Z</time>
      </trkpt>
      <trkpt lat="50.05444" lon="4.07105">
        <ele>181.8</ele>
        <time>2024-04-28T08:30:49Z</time>
      </trkpt>
      <trkpt lat="50.0544" lon="4.07101">
        <ele>181.8</ele>
        <time>2024-04-28T08:30:50Z</time>
      </trkpt>
      <trkpt lat="50.05436" lon="4.07098">
        <ele>181.8</ele>
        <time>2024-04-28T08:30:51Z</time>
      </trkpt>
      <trkpt lat="50.05432" lon="4.07095">
        <ele>182</ele>
        <time>2024-04-28T08:30:52Z</time>
      </trkpt>
      <trkpt lat="50.05428" lon="4.07092">
        <ele>182</ele>
        <time>2024-04-28T08:30:53Z</time>
      </trkpt>
      <trkpt lat="50.05425" lon="4.07088">
        <ele>182.2</ele>
        <time>2024-04-28T08:30:54Z</time>
      </trkpt>
      <trkpt lat="50.05421" lon="4.07085">
        <ele>182.6</ele>
        <time>2024-04-28T08:30:55Z</time>
      </trkpt>
      <trkpt lat="50.05417" lon="4.07081">
        <ele>182.6</ele>
        <time>2024-04-28T08:30:56Z</time>
      </trkpt>
      <trkpt lat="50.05413" lon="4.07077">
        <ele>183</ele>
        <time>2024-04-28T08:30:57Z</time>
      </trkpt>
      <trkpt lat="50.05409" lon="4.07073">
        <ele>183.4</ele>
        <time>2024-04-28T08:30:58Z</time>
      </trkpt>
      <trkpt lat="50.05405" lon="4.07069">
        <ele>183.8</ele>
        <time>2024-04-28T08:30:59Z</time>
      </trkpt>
      <trkpt lat="50.054" lon="4.07066">
        <ele>184.4</ele>
        <time>2024-04-28T08:31:00Z</time>
      </trkpt>
      <trkpt lat="50.05396" lon="4.07062">
        <ele>184.4</ele>
        <time>2024-04-28T08:31:01Z</time>
      </trkpt>
      <trkpt lat="50.05392" lon="4.07058">
        <ele>184.4</ele>
        <time>2024-04-28T08:31:02Z</time>
      </trkpt>
      <trkpt lat="50.05388" lon="4.07055">
        <ele>184.8</ele>
        <time>2024-04-28T08:31:03Z</time>
      </trkpt>
      <trkpt lat="50.05384" lon="4.07051">
        <ele>185.2</ele>
        <time>2024-04-28T08:31:04Z</time>
      </trkpt>
      <trkpt lat="50.0538" lon="4.07047">
        <ele>185.4</ele>
        <time>2024-04-28T08:31:05Z</time>
      </trkpt>
      <trkpt lat="50.05375" lon="4.07043">
        <ele>185.4</ele>
        <time>2024-04-28T08:31:06Z</time>
      </trkpt>
      <trkpt lat="50.05371" lon="4.07039">
        <ele>185.6</ele>
        <time>2024-04-28T08:31:07Z</time>
      </trkpt>
      <trkpt lat="50.05367" lon="4.07035">
        <ele>185.8</ele>
        <time>2024-04-28T08:31:08Z</time>
      </trkpt>
      <trkpt lat="50.05363" lon="4.07031">
        <ele>186</ele>
        <time>2024-04-28T08:31:09Z</time>
      </trkpt>
      <trkpt lat="50.05359" lon="4.07027">
        <ele>186</ele>
        <time>2024-04-28T08:31:10Z</time>
      </trkpt>
      <trkpt lat="50.05354" lon="4.07023">
        <ele>186</ele>
        <time>2024-04-28T08:31:11Z</time>
      </trkpt>
      <trkpt lat="50.0535" lon="4.07019">
        <ele>186.8</ele>
        <time>2024-04-28T08:31:12Z</time>
      </trkpt>
      <trkpt lat="50.05346" lon="4.07015">
        <ele>187.2</ele>
        <time>2024-04-28T08:31:13Z</time>
      </trkpt>
      <trkpt lat="50.05342" lon="4.07011">
        <ele>187.8</ele>
        <time>2024-04-28T08:31:14Z</time>
      </trkpt>
      <trkpt lat="50.05337" lon="4.07007">
        <ele>188</ele>
        <time>2024-04-28T08:31:15Z</time>
      </trkpt>
      <trkpt lat="50.05333" lon="4.07003">
        <ele>187.8</ele>
        <time>2024-04-28T08:31:16Z</time>
      </trkpt>
      <trkpt lat="50.05329" lon="4.07">
        <ele>188.2</ele>
        <time>2024-04-28T08:31:17Z</time>
      </trkpt>
      <trkpt lat="50.05325" lon="4.06996">
        <ele>188.2</ele>
        <time>2024-04-28T08:31:18Z</time>
      </trkpt>
      <trkpt lat="50.0532" lon="4.06993">
        <ele>188.2</ele>
        <time>2024-04-28T08:31:19Z</time>
      </trkpt>
      <trkpt lat="50.05316" lon="4.0699">
        <ele>188.4</ele>
        <time>2024-04-28T08:31:20Z</time>
      </trkpt>
      <trkpt lat="50.05312" lon="4.06987">
        <ele>188.6</ele>
        <time>2024-04-28T08:31:21Z</time>
      </trkpt>
      <trkpt lat="50.05308" lon="4.06984">
        <ele>188.8</ele>
        <time>2024-04-28T08:31:22Z</time>
      </trkpt>
      <trkpt lat="50.05304" lon="4.06981">
        <ele>189</ele>
        <time>2024-04-28T08:31:23Z</time>
      </trkpt>
      <trkpt lat="50.053" lon="4.06979">
        <ele>189</ele>
        <time>2024-04-28T08:31:24Z</time>
      </trkpt>
      <trkpt lat="50.05296" lon="4.06976">
        <ele>189.2</ele>
        <time>2024-04-28T08:31:25Z</time>
      </trkpt>
      <trkpt lat="50.05293" lon="4.06973">
        <ele>189.2</ele>
        <time>2024-04-28T08:31:26Z</time>
      </trkpt>
      <trkpt lat="50.05289" lon="4.06971">
        <ele>189.4</ele>
        <time>2024-04-28T08:31:27Z</time>
      </trkpt>
      <trkpt lat="50.05285" lon="4.06968">
        <ele>189.6</ele>
        <time>2024-04-28T08:31:28Z</time>
      </trkpt>
      <trkpt lat="50.05282" lon="4.06966">
        <ele>189.6</ele>
        <time>2024-04-28T08:31:29Z</time>
      </trkpt>
      <trkpt lat="50.05279" lon="4.06963">
        <ele>189.8</ele>
        <time>2024-04-28T08:31:30Z</time>
      </trkpt>
      <trkpt lat="50.05275" lon="4.0696">
        <ele>190.4</ele>
        <time>2024-04-28T08:31:31Z</time>
      </trkpt>
      <trkpt lat="50.05272" lon="4.06958">
        <ele>190.6</ele>
        <time>2024-04-28T08:31:32Z</time>
      </trkpt>
      <trkpt lat="50.05268" lon="4.06955">
        <ele>191</ele>
        <time>2024-04-28T08:31:33Z</time>
      </trkpt>
      <trkpt lat="50.05265" lon="4.06952">
        <ele>191</ele>
        <time>2024-04-28T08:31:34Z</time>
      </trkpt>
      <trkpt lat="50.05261" lon="4.0695">
        <ele>191</ele>
        <time>2024-04-28T08:31:35Z</time>
      </trkpt>
      <trkpt lat="50.05257" lon="4.06947">
        <ele>191.2</ele>
        <time>2024-04-28T08:31:36Z</time>
      </trkpt>
      <trkpt lat="50.05254" lon="4.06945">
        <ele>191.6</ele>
        <time>2024-04-28T08:31:37Z</time>
      </trkpt>
      <trkpt lat="50.0525" lon="4.06942">
        <ele>192.2</ele>
        <time>2024-04-28T08:31:38Z</time>
      </trkpt>
      <trkpt lat="50.05247" lon="4.0694">
        <ele>192.4</ele>
        <time>2024-04-28T08:31:39Z</time>
      </trkpt>
      <trkpt lat="50.05244" lon="4.06937">
        <ele>192.6</ele>
        <time>2024-04-28T08:31:40Z</time>
      </trkpt>
      <trkpt lat="50.0524" lon="4.06934">
        <ele>192.8</ele>
        <time>2024-04-28T08:31:41Z</time>
      </trkpt>
      <trkpt lat="50.05237" lon="4.06931">
        <ele>192.8</ele>
        <time>2024-04-28T08:31:42Z</time>
      </trkpt>
      <trkpt lat="50.05233" lon="4.06928">
        <ele>193</ele>
        <time>2024-04-28T08:31:43Z</time>
      </trkpt>
      <trkpt lat="50.0523" lon="4.06924">
        <ele>193</ele>
        <time>2024-04-28T08:31:44Z</time>
      </trkpt>
      <trkpt lat="50.05226" lon="4.0692">
        <ele>193.2</ele>
        <time>2024-04-28T08:31:45Z</time>
      </trkpt>
      <trkpt lat="50.05223" lon="4.06916">
        <ele>193.8</ele>
        <time>2024-04-28T08:31:46Z</time>
      </trkpt>
      <trkpt lat="50.0522" lon="4.06912">
        <ele>194</ele>
        <time>2024-04-28T08:31:47Z</time>
      </trkpt>
      <trkpt lat="50.05216" lon="4.06907">
        <ele>194</ele>
        <time>2024-04-28T08:31:48Z</time>
      </trkpt>
      <trkpt lat="50.05213" lon="4.06903">
        <ele>194.2</ele>
        <time>2024-04-28T08:31:49Z</time>
      </trkpt>
      <trkpt lat="50.05209" lon="4.06898">
        <ele>194.2</ele>
        <time>2024-04-28T08:31:50Z</time>
      </trkpt>
      <trkpt lat="50.05206" lon="4.06894">
        <ele>194.4</ele>
        <time>2024-04-28T08:31:51Z</time>
      </trkpt>
      <trkpt lat="50.05203" lon="4.06889">
        <ele>194.6</ele>
        <time>2024-04-28T08:31:52Z</time>
      </trkpt>
      <trkpt lat="50.052" lon="4.06885">
        <ele>194.6</ele>
        <time>2024-04-28T08:31:53Z</time>
      </trkpt>
      <trkpt lat="50.05196" lon="4.0688">
        <ele>194.8</ele>
        <time>2024-04-28T08:31:54Z</time>
      </trkpt>
      <trkpt lat="50.05193" lon="4.06876">
        <ele>195</ele>
        <time>2024-04-28T08:31:55Z</time>
      </trkpt>
      <trkpt lat="50.0519" lon="4.0687">
        <ele>195</ele>
        <time>2024-04-28T08:31:56Z</time>
      </trkpt>
      <trkpt lat="50.05186" lon="4.06865">
        <ele>195</ele>
        <time>2024-04-28T08:31:57Z</time>
      </trkpt>
      <trkpt lat="50.05183" lon="4.0686">
        <ele>195</ele>
        <time>2024-04-28T08:31:58Z</time>
      </trkpt>
      <trkpt lat="50.05179" lon="4.06855">
        <ele>195.2</ele>
        <time>2024-04-28T08:31:59Z</time>
      </trkpt>
      <trkpt lat="50.05175" lon="4.0685">
        <ele>195.2</ele>
        <time>2024-04-28T08:32:00Z</time>
      </trkpt>
      <trkpt lat="50.05172" lon="4.06845">
        <ele>195.4</ele>
        <time>2024-04-28T08:32:01Z</time>
      </trkpt>
      <trkpt lat="50.05169" lon="4.0684">
        <ele>195.6</ele>
        <time>2024-04-28T08:32:02Z</time>
      </trkpt>
      <trkpt lat="50.05165" lon="4.06835">
        <ele>195.4</ele>
        <time>2024-04-28T08:32:03Z</time>
      </trkpt>
      <trkpt lat="50.05162" lon="4.0683">
        <ele>195.8</ele>
        <time>2024-04-28T08:32:04Z</time>
      </trkpt>
      <trkpt lat="50.05158" lon="4.06826">
        <ele>195.8</ele>
        <time>2024-04-28T08:32:05Z</time>
      </trkpt>
      <trkpt lat="50.05155" lon="4.06821">
        <ele>195.8</ele>
        <time>2024-04-28T08:32:06Z</time>
      </trkpt>
      <trkpt lat="50.05152" lon="4.06816">
        <ele>195.8</ele>
        <time>2024-04-28T08:32:07Z</time>
      </trkpt>
      <trkpt lat="50.05148" lon="4.0681">
        <ele>196</ele>
        <time>2024-04-28T08:32:08Z</time>
      </trkpt>
      <trkpt lat="50.05145" lon="4.06805">
        <ele>196.2</ele>
        <time>2024-04-28T08:32:09Z</time>
      </trkpt>
      <trkpt lat="50.05141" lon="4.068">
        <ele>196.2</ele>
        <time>2024-04-28T08:32:10Z</time>
      </trkpt>
      <trkpt lat="50.05137" lon="4.06795">
        <ele>196.2</ele>
        <time>2024-04-28T08:32:11Z</time>
      </trkpt>
      <trkpt lat="50.05134" lon="4.0679">
        <ele>196.4</ele>
        <time>2024-04-28T08:32:12Z</time>
      </trkpt>
      <trkpt lat="50.0513" lon="4.06785">
        <ele>196.6</ele>
        <time>2024-04-28T08:32:13Z</time>
      </trkpt>
      <trkpt lat="50.05126" lon="4.0678">
        <ele>196.6</ele>
        <time>2024-04-28T08:32:14Z</time>
      </trkpt>
      <trkpt lat="50.05123" lon="4.06775">
        <ele>197.2</ele>
        <time>2024-04-28T08:32:15Z</time>
      </trkpt>
      <trkpt lat="50.05119" lon="4.0677">
        <ele>197.2</ele>
        <time>2024-04-28T08:32:16Z</time>
      </trkpt>
      <trkpt lat="50.05115" lon="4.06765">
        <ele>197.4</ele>
        <time>2024-04-28T08:32:17Z</time>
      </trkpt>
      <trkpt lat="50.05111" lon="4.0676">
        <ele>197.8</ele>
        <time>2024-04-28T08:32:18Z</time>
      </trkpt>
      <trkpt lat="50.05108" lon="4.06754">
        <ele>198</ele>
        <time>2024-04-28T08:32:19Z</time>
      </trkpt>
      <trkpt lat="50.05104" lon="4.06748">
        <ele>198.4</ele>
        <time>2024-04-28T08:32:20Z</time>
      </trkpt>
      <trkpt lat="50.051" lon="4.06742">
        <ele>198.8</ele>
        <time>2024-04-28T08:32:21Z</time>
      </trkpt>
      <trkpt lat="50.05095" lon="4.06737">
        <ele>199</ele>
        <time>2024-04-28T08:32:22Z</time>
      </trkpt>
      <trkpt lat="50.05091" lon="4.06731">
        <ele>199.2</ele>
        <time>2024-04-28T08:32:23Z</time>
      </trkpt>
      <trkpt lat="50.05087" lon="4.06726">
        <ele>199.2</ele>
        <time>2024-04-28T08:32:24Z</time>
      </trkpt>
      <trkpt lat="50.05083" lon="4.0672">
        <ele>199.2</ele>
        <time>2024-04-28T08:32:25Z</time>
      </trkpt>
      <trkpt lat="50.05079" lon="4.06715">
        <ele>199.2</ele>
        <time>2024-04-28T08:32:26Z</time>
      </trkpt>
      <trkpt lat="50.05075" lon="4.06709">
        <ele>199.2</ele>
        <time>2024-04-28T08:32:27Z</time>
      </trkpt>
      <trkpt lat="50.0507" lon="4.06703">
        <ele>199</ele>
        <time>2024-04-28T08:32:28Z</time>
      </trkpt>
      <trkpt lat="50.05066" lon="4.06697">
        <ele>199.2</ele>
        <time>2024-04-28T08:32:29Z</time>
      </trkpt>
      <trkpt lat="50.05061" lon="4.06692">
        <ele>199.2</ele>
        <time>2024-04-28T08:32:30Z</time>
      </trkpt>
      <trkpt lat="50.05056" lon="4.06686">
        <ele>199.2</ele>
        <time>2024-04-28T08:32:31Z</time>
      </trkpt>
      <trkpt lat="50.0505" lon="4.06681">
        <ele>198.6</ele>
        <time>2024-04-28T08:32:32Z</time>
      </trkpt>
      <trkpt lat="50.05045" lon="4.06676">
        <ele>198.4</ele>
        <time>2024-04-28T08:32:33Z</time>
      </trkpt>
      <trkpt lat="50.05039" lon="4.06671">
        <ele>198</ele>
        <time>2024-04-28T08:32:34Z</time>
      </trkpt>
      <trkpt lat="50.05032" lon="4.06666">
        <ele>198</ele>
        <time>2024-04-28T08:32:35Z</time>
      </trkpt>
      <trkpt lat="50.05026" lon="4.06661">
        <ele>198</ele>
        <time>2024-04-28T08:32:36Z</time>
      </trkpt>
      <trkpt lat="50.05019" lon="4.06658">
        <ele>197.8</ele>
        <time>2024-04-28T08:32:37Z</time>
      </trkpt>
      <trkpt lat="50.05012" lon="4.06655">
        <ele>197.6</ele>
        <time>2024-04-28T08:32:38Z</time>
      </trkpt>
      <trkpt lat="50.05005" lon="4.06653">
        <ele>197.4</ele>
        <time>2024-04-28T08:32:39Z</time>
      </trkpt>
      <trkpt lat="50.04998" lon="4.06651">
        <ele>197</ele>
        <time>2024-04-28T08:32:40Z</time>
      </trkpt>
      <trkpt lat="50.04991" lon="4.0665">
        <ele>196.8</ele>
        <time>2024-04-28T08:32:41Z</time>
      </trkpt>
      <trkpt lat="50.04984" lon="4.06649">
        <ele>196.6</ele>
        <time>2024-04-28T08:32:42Z</time>
      </trkpt>
      <trkpt lat="50.04977" lon="4.06648">
        <ele>196.4</ele>
        <time>2024-04-28T08:32:43Z</time>
      </trkpt>
      <trkpt lat="50.0497" lon="4.06647">
        <ele>196.4</ele>
        <time>2024-04-28T08:32:44Z</time>
      </trkpt>
      <trkpt lat="50.04963" lon="4.06646">
        <ele>195.8</ele>
        <time>2024-04-28T08:32:45Z</time>
      </trkpt>
      <trkpt lat="50.04956" lon="4.06646">
        <ele>195.4</ele>
        <time>2024-04-28T08:32:46Z</time>
      </trkpt>
      <trkpt lat="50.04949" lon="4.06645">
        <ele>195</ele>
        <time>2024-04-28T08:32:47Z</time>
      </trkpt>
      <trkpt lat="50.04943" lon="4.06645">
        <ele>194.8</ele>
        <time>2024-04-28T08:32:48Z</time>
      </trkpt>
      <trkpt lat="50.04936" lon="4.06644">
        <ele>194.4</ele>
        <time>2024-04-28T08:32:49Z</time>
      </trkpt>
      <trkpt lat="50.04929" lon="4.06644">
        <ele>194</ele>
        <time>2024-04-28T08:32:50Z</time>
      </trkpt>
      <trkpt lat="50.04923" lon="4.06643">
        <ele>193.8</ele>
        <time>2024-04-28T08:32:51Z</time>
      </trkpt>
      <trkpt lat="50.04916" lon="4.06643">
        <ele>193.6</ele>
        <time>2024-04-28T08:32:52Z</time>
      </trkpt>
      <trkpt lat="50.04909" lon="4.06643">
        <ele>193.6</ele>
        <time>2024-04-28T08:32:53Z</time>
      </trkpt>
      <trkpt lat="50.04902" lon="4.06642">
        <ele>193.4</ele>
        <time>2024-04-28T08:32:54Z</time>
      </trkpt>
      <trkpt lat="50.04895" lon="4.06641">
        <ele>193</ele>
        <time>2024-04-28T08:32:55Z</time>
      </trkpt>
      <trkpt lat="50.04888" lon="4.0664">
        <ele>193</ele>
        <time>2024-04-28T08:32:56Z</time>
      </trkpt>
      <trkpt lat="50.04882" lon="4.06639">
        <ele>193.2</ele>
        <time>2024-04-28T08:32:57Z</time>
      </trkpt>
      <trkpt lat="50.04875" lon="4.06638">
        <ele>193</ele>
        <time>2024-04-28T08:32:58Z</time>
      </trkpt>
      <trkpt lat="50.04868" lon="4.06637">
        <ele>193.2</ele>
        <time>2024-04-28T08:32:59Z</time>
      </trkpt>
      <trkpt lat="50.04862" lon="4.06635">
        <ele>193.2</ele>
        <time>2024-04-28T08:33:00Z</time>
      </trkpt>
      <trkpt lat="50.04855" lon="4.06634">
        <ele>193.4</ele>
        <time>2024-04-28T08:33:01Z</time>
      </trkpt>
      <trkpt lat="50.04848" lon="4.06632">
        <ele>193.4</ele>
        <time>2024-04-28T08:33:02Z</time>
      </trkpt>
      <trkpt lat="50.04842" lon="4.0663">
        <ele>193.6</ele>
        <time>2024-04-28T08:33:03Z</time>
      </trkpt>
      <trkpt lat="50.04836" lon="4.06627">
        <ele>193.6</ele>
        <time>2024-04-28T08:33:04Z</time>
      </trkpt>
      <trkpt lat="50.0483" lon="4.06625">
        <ele>193.8</ele>
        <time>2024-04-28T08:33:05Z</time>
      </trkpt>
      <trkpt lat="50.04823" lon="4.06622">
        <ele>193.8</ele>
        <time>2024-04-28T08:33:06Z</time>
      </trkpt>
      <trkpt lat="50.04817" lon="4.06619">
        <ele>193.8</ele>
        <time>2024-04-28T08:33:07Z</time>
      </trkpt>
      <trkpt lat="50.04811" lon="4.06617">
        <ele>194</ele>
        <time>2024-04-28T08:33:08Z</time>
      </trkpt>
      <trkpt lat="50.04806" lon="4.06614">
        <ele>194</ele>
        <time>2024-04-28T08:33:09Z</time>
      </trkpt>
      <trkpt lat="50.048" lon="4.06611">
        <ele>194.2</ele>
        <time>2024-04-28T08:33:10Z</time>
      </trkpt>
      <trkpt lat="50.04794" lon="4.06608">
        <ele>194.4</ele>
        <time>2024-04-28T08:33:11Z</time>
      </trkpt>
      <trkpt lat="50.04788" lon="4.06605">
        <ele>194.8</ele>
        <time>2024-04-28T08:33:12Z</time>
      </trkpt>
      <trkpt lat="50.04782" lon="4.06602">
        <ele>195</ele>
        <time>2024-04-28T08:33:13Z</time>
      </trkpt>
      <trkpt lat="50.04776" lon="4.06598">
        <ele>195.4</ele>
        <time>2024-04-28T08:33:14Z</time>
      </trkpt>
      <trkpt lat="50.04771" lon="4.06595">
        <ele>196.2</ele>
        <time>2024-04-28T08:33:15Z</time>
      </trkpt>
      <trkpt lat="50.04765" lon="4.06592">
        <ele>196.2</ele>
        <time>2024-04-28T08:33:16Z</time>
      </trkpt>
      <trkpt lat="50.0476" lon="4.06589">
        <ele>197</ele>
        <time>2024-04-28T08:33:17Z</time>
      </trkpt>
      <trkpt lat="50.04754" lon="4.06586">
        <ele>197.8</ele>
        <time>2024-04-28T08:33:18Z</time>
      </trkpt>
      <trkpt lat="50.04749" lon="4.06582">
        <ele>198.8</ele>
        <time>2024-04-28T08:33:19Z</time>
      </trkpt>
      <trkpt lat="50.04743" lon="4.06579">
        <ele>199</ele>
        <time>2024-04-28T08:33:20Z</time>
      </trkpt>
      <trkpt lat="50.04738" lon="4.06576">
        <ele>199.4</ele>
        <time>2024-04-28T08:33:21Z</time>
      </trkpt>
      <trkpt lat="50.04733" lon="4.06573">
        <ele>199.6</ele>
        <time>2024-04-28T08:33:22Z</time>
      </trkpt>
      <trkpt lat="50.04727" lon="4.06569">
        <ele>199.6</ele>
        <time>2024-04-28T08:33:23Z</time>
      </trkpt>
      <trkpt lat="50.04722" lon="4.06566">
        <ele>199.8</ele>
        <time>2024-04-28T08:33:24Z</time>
      </trkpt>
      <trkpt lat="50.04716" lon="4.06562">
        <ele>199.8</ele>
        <time>2024-04-28T08:33:25Z</time>
      </trkpt>
      <trkpt lat="50.04711" lon="4.06559">
        <ele>199.8</ele>
        <time>2024-04-28T08:33:26Z</time>
      </trkpt>
      <trkpt lat="50.04705" lon="4.06555">
        <ele>200</ele>
        <time>2024-04-28T08:33:27Z</time>
      </trkpt>
      <trkpt lat="50.047" lon="4.06551">
        <ele>200.2</ele>
        <time>2024-04-28T08:33:28Z</time>
      </trkpt>
      <trkpt lat="50.04695" lon="4.06547">
        <ele>200.2</ele>
        <time>2024-04-28T08:33:29Z</time>
      </trkpt>
      <trkpt lat="50.04689" lon="4.06543">
        <ele>200.2</ele>
        <time>2024-04-28T08:33:30Z</time>
      </trkpt>
      <trkpt lat="50.04684" lon="4.0654">
        <ele>200.2</ele>
        <time>2024-04-28T08:33:31Z</time>
      </trkpt>
      <trkpt lat="50.04679" lon="4.06536">
        <ele>200.4</ele>
        <time>2024-04-28T08:33:32Z</time>
      </trkpt>
      <trkpt lat="50.04674" lon="4.06532">
        <ele>200.4</ele>
        <time>2024-04-28T08:33:33Z</time>
      </trkpt>
      <trkpt lat="50.04669" lon="4.06528">
        <ele>200.4</ele>
        <time>2024-04-28T08:33:34Z</time>
      </trkpt>
      <trkpt lat="50.04664" lon="4.06524">
        <ele>200.4</ele>
        <time>2024-04-28T08:33:35Z</time>
      </trkpt>
      <trkpt lat="50.04659" lon="4.06521">
        <ele>200.6</ele>
        <time>2024-04-28T08:33:36Z</time>
      </trkpt>
      <trkpt lat="50.04654" lon="4.06517">
        <ele>200.6</ele>
        <time>2024-04-28T08:33:37Z</time>
      </trkpt>
      <trkpt lat="50.04649" lon="4.06513">
        <ele>200.6</ele>
        <time>2024-04-28T08:33:38Z</time>
      </trkpt>
      <trkpt lat="50.04645" lon="4.06509">
        <ele>200.6</ele>
        <time>2024-04-28T08:33:39Z</time>
      </trkpt>
      <trkpt lat="50.0464" lon="4.06506">
        <ele>200.8</ele>
        <time>2024-04-28T08:33:40Z</time>
      </trkpt>
      <trkpt lat="50.04635" lon="4.06502">
        <ele>200.6</ele>
        <time>2024-04-28T08:33:41Z</time>
      </trkpt>
      <trkpt lat="50.0463" lon="4.06499">
        <ele>200.8</ele>
        <time>2024-04-28T08:33:42Z</time>
      </trkpt>
      <trkpt lat="50.04626" lon="4.06495">
        <ele>200.6</ele>
        <time>2024-04-28T08:33:43Z</time>
      </trkpt>
      <trkpt lat="50.04621" lon="4.06492">
        <ele>200.8</ele>
        <time>2024-04-28T08:33:44Z</time>
      </trkpt>
      <trkpt lat="50.04616" lon="4.06488">
        <ele>201</ele>
        <time>2024-04-28T08:33:45Z</time>
      </trkpt>
      <trkpt lat="50.04612" lon="4.06484">
        <ele>201.6</ele>
        <time>2024-04-28T08:33:46Z</time>
      </trkpt>
      <trkpt lat="50.04607" lon="4.06481">
        <ele>201.8</ele>
        <time>2024-04-28T08:33:47Z</time>
      </trkpt>
      <trkpt lat="50.04602" lon="4.06477">
        <ele>202</ele>
        <time>2024-04-28T08:33:48Z</time>
      </trkpt>
      <trkpt lat="50.04598" lon="4.06473">
        <ele>202</ele>
        <time>2024-04-28T08:33:49Z</time>
      </trkpt>
      <trkpt lat="50.04593" lon="4.0647">
        <ele>202.2</ele>
        <time>2024-04-28T08:33:50Z</time>
      </trkpt>
      <trkpt lat="50.04588" lon="4.06466">
        <ele>202.4</ele>
        <time>2024-04-28T08:33:51Z</time>
      </trkpt>
      <trkpt lat="50.04583" lon="4.06462">
        <ele>202.4</ele>
        <time>2024-04-28T08:33:52Z</time>
      </trkpt>
      <trkpt lat="50.04579" lon="4.06458">
        <ele>202.4</ele>
        <time>2024-04-28T08:33:53Z</time>
      </trkpt>
      <trkpt lat="50.04574" lon="4.06454">
        <ele>202.6</ele>
        <time>2024-04-28T08:33:54Z</time>
      </trkpt>
      <trkpt lat="50.04569" lon="4.06451">
        <ele>202.6</ele>
        <time>2024-04-28T08:33:55Z</time>
      </trkpt>
      <trkpt lat="50.04564" lon="4.06447">
        <ele>202.6</ele>
        <time>2024-04-28T08:33:56Z</time>
      </trkpt>
      <trkpt lat="50.0456" lon="4.06443">
        <ele>203</ele>
        <time>2024-04-28T08:33:57Z</time>
      </trkpt>
      <trkpt lat="50.04555" lon="4.06439">
        <ele>203</ele>
        <time>2024-04-28T08:33:58Z</time>
      </trkpt>
      <trkpt lat="50.0455" lon="4.06436">
        <ele>203.6</ele>
        <time>2024-04-28T08:33:59Z</time>
      </trkpt>
      <trkpt lat="50.04546" lon="4.06432">
        <ele>204</ele>
        <time>2024-04-28T08:34:00Z</time>
      </trkpt>
      <trkpt lat="50.04541" lon="4.06428">
        <ele>204.2</ele>
        <time>2024-04-28T08:34:01Z</time>
      </trkpt>
      <trkpt lat="50.04537" lon="4.06425">
        <ele>204.2</ele>
        <time>2024-04-28T08:34:02Z</time>
      </trkpt>
      <trkpt lat="50.04532" lon="4.06421">
        <ele>204.4</ele>
        <time>2024-04-28T08:34:03Z</time>
      </trkpt>
      <trkpt lat="50.04528" lon="4.06418">
        <ele>204.4</ele>
        <time>2024-04-28T08:34:04Z</time>
      </trkpt>
      <trkpt lat="50.04523" lon="4.06414">
        <ele>204.6</ele>
        <time>2024-04-28T08:34:05Z</time>
      </trkpt>
      <trkpt lat="50.04519" lon="4.06411">
        <ele>204.6</ele>
        <time>2024-04-28T08:34:06Z</time>
      </trkpt>
      <trkpt lat="50.04514" lon="4.06407">
        <ele>205.6</ele>
        <time>2024-04-28T08:34:07Z</time>
      </trkpt>
      <trkpt lat="50.0451" lon="4.06403">
        <ele>206</ele>
        <time>2024-04-28T08:34:08Z</time>
      </trkpt>
      <trkpt lat="50.04505" lon="4.064">
        <ele>206.2</ele>
        <time>2024-04-28T08:34:09Z</time>
      </trkpt>
      <trkpt lat="50.045" lon="4.06396">
        <ele>206.2</ele>
        <time>2024-04-28T08:34:10Z</time>
      </trkpt>
      <trkpt lat="50.04495" lon="4.06392">
        <ele>206.4</ele>
        <time>2024-04-28T08:34:11Z</time>
      </trkpt>
      <trkpt lat="50.0449" lon="4.06387">
        <ele>206.6</ele>
        <time>2024-04-28T08:34:12Z</time>
      </trkpt>
      <trkpt lat="50.04485" lon="4.06382">
        <ele>206.8</ele>
        <time>2024-04-28T08:34:13Z</time>
      </trkpt>
      <trkpt lat="50.04481" lon="4.06376">
        <ele>207.2</ele>
        <time>2024-04-28T08:34:14Z</time>
      </trkpt>
      <trkpt lat="50.04477" lon="4.0637">
        <ele>207.4</ele>
        <time>2024-04-28T08:34:15Z</time>
      </trkpt>
      <trkpt lat="50.04472" lon="4.06364">
        <ele>207.8</ele>
        <time>2024-04-28T08:34:16Z</time>
      </trkpt>
      <trkpt lat="50.04468" lon="4.06357">
        <ele>208</ele>
        <time>2024-04-28T08:34:17Z</time>
      </trkpt>
      <trkpt lat="50.04464" lon="4.06351">
        <ele>208.2</ele>
        <time>2024-04-28T08:34:18Z</time>
      </trkpt>
      <trkpt lat="50.0446" lon="4.06344">
        <ele>208.4</ele>
        <time>2024-04-28T08:34:19Z</time>
      </trkpt>
      <trkpt lat="50.04456" lon="4.06337">
        <ele>208.4</ele>
        <time>2024-04-28T08:34:20Z</time>
      </trkpt>
      <trkpt lat="50.04452" lon="4.0633">
        <ele>208.4</ele>
        <time>2024-04-28T08:34:21Z</time>
      </trkpt>
      <trkpt lat="50.04448" lon="4.06322">
        <ele>208.6</ele>
        <time>2024-04-28T08:34:22Z</time>
      </trkpt>
      <trkpt lat="50.04444" lon="4.06315">
        <ele>208.8</ele>
        <time>2024-04-28T08:34:23Z</time>
      </trkpt>
      <trkpt lat="50.0444" lon="4.06308">
        <ele>208.8</ele>
        <time>2024-04-28T08:34:24Z</time>
      </trkpt>
      <trkpt lat="50.04436" lon="4.06301">
        <ele>208.8</ele>
        <time>2024-04-28T08:34:25Z</time>
      </trkpt>
      <trkpt lat="50.04432" lon="4.06294">
        <ele>209.2</ele>
        <time>2024-04-28T08:34:26Z</time>
      </trkpt>
      <trkpt lat="50.04428" lon="4.06287">
        <ele>209.2</ele>
        <time>2024-04-28T08:34:27Z</time>
      </trkpt>
      <trkpt lat="50.04424" lon="4.06279">
        <ele>209.2</ele>
        <time>2024-04-28T08:34:28Z</time>
      </trkpt>
      <trkpt lat="50.0442" lon="4.06272">
        <ele>209.2</ele>
        <time>2024-04-28T08:34:29Z</time>
      </trkpt>
      <trkpt lat="50.04416" lon="4.06265">
        <ele>209.4</ele>
        <time>2024-04-28T08:34:30Z</time>
      </trkpt>
      <trkpt lat="50.04411" lon="4.06258">
        <ele>210</ele>
        <time>2024-04-28T08:34:31Z</time>
      </trkpt>
      <trkpt lat="50.04407" lon="4.06251">
        <ele>210.2</ele>
        <time>2024-04-28T08:34:32Z</time>
      </trkpt>
      <trkpt lat="50.04403" lon="4.06243">
        <ele>210.4</ele>
        <time>2024-04-28T08:34:33Z</time>
      </trkpt>
      <trkpt lat="50.04399" lon="4.06236">
        <ele>210.4</ele>
        <time>2024-04-28T08:34:34Z</time>
      </trkpt>
      <trkpt lat="50.04395" lon="4.06228">
        <ele>210.6</ele>
        <time>2024-04-28T08:34:35Z</time>
      </trkpt>
      <trkpt lat="50.0439" lon="4.06221">
        <ele>210.4</ele>
        <time>2024-04-28T08:34:36Z</time>
      </trkpt>
      <trkpt lat="50.04386" lon="4.06214">
        <ele>210.4</ele>
        <time>2024-04-28T08:34:37Z</time>
      </trkpt>
      <trkpt lat="50.04382" lon="4.06207">
        <ele>210.6</ele>
        <time>2024-04-28T08:34:38Z</time>
      </trkpt>
      <trkpt lat="50.04378" lon="4.06201">
        <ele>210.6</ele>
        <time>2024-04-28T08:34:39Z</time>
      </trkpt>
      <trkpt lat="50.04374" lon="4.06194">
        <ele>210.8</ele>
        <time>2024-04-28T08:34:40Z</time>
      </trkpt>
      <trkpt lat="50.0437" lon="4.06187">
        <ele>211</ele>
        <time>2024-04-28T08:34:41Z</time>
      </trkpt>
      <trkpt lat="50.04365" lon="4.06181">
        <ele>211</ele>
        <time>2024-04-28T08:34:42Z</time>
      </trkpt>
      <trkpt lat="50.04361" lon="4.06175">
        <ele>211</ele>
        <time>2024-04-28T08:34:43Z</time>
      </trkpt>
      <trkpt lat="50.04356" lon="4.06169">
        <ele>211.2</ele>
        <time>2024-04-28T08:34:44Z</time>
      </trkpt>
      <trkpt lat="50.04351" lon="4.06163">
        <ele>211.4</ele>
        <time>2024-04-28T08:34:45Z</time>
      </trkpt>
      <trkpt lat="50.04346" lon="4.06157">
        <ele>211.6</ele>
        <time>2024-04-28T08:34:46Z</time>
      </trkpt>
      <trkpt lat="50.04341" lon="4.06151">
        <ele>211.6</ele>
        <time>2024-04-28T08:34:47Z</time>
      </trkpt>
      <trkpt lat="50.04335" lon="4.06145">
        <ele>212</ele>
        <time>2024-04-28T08:34:48Z</time>
      </trkpt>
      <trkpt lat="50.0433" lon="4.0614">
        <ele>212</ele>
        <time>2024-04-28T08:34:49Z</time>
      </trkpt>
      <trkpt lat="50.04324" lon="4.06134">
        <ele>212.4</ele>
        <time>2024-04-28T08:34:50Z</time>
      </trkpt>
      <trkpt lat="50.04318" lon="4.06129">
        <ele>212.2</ele>
        <time>2024-04-28T08:34:51Z</time>
      </trkpt>
      <trkpt lat="50.04312" lon="4.06123">
        <ele>212.2</ele>
        <time>2024-04-28T08:34:52Z</time>
      </trkpt>
      <trkpt lat="50.04305" lon="4.06119">
        <ele>212.2</ele>
        <time>2024-04-28T08:34:53Z</time>
      </trkpt>
      <trkpt lat="50.04298" lon="4.06114">
        <ele>212.4</ele>
        <time>2024-04-28T08:34:54Z</time>
      </trkpt>
      <trkpt lat="50.04291" lon="4.0611">
        <ele>212.4</ele>
        <time>2024-04-28T08:34:55Z</time>
      </trkpt>
      <trkpt lat="50.04284" lon="4.06106">
        <ele>212.2</ele>
        <time>2024-04-28T08:34:56Z</time>
      </trkpt>
      <trkpt lat="50.04276" lon="4.06102">
        <ele>212.4</ele>
        <time>2024-04-28T08:34:57Z</time>
      </trkpt>
      <trkpt lat="50.04268" lon="4.06098">
        <ele>212.2</ele>
        <time>2024-04-28T08:34:58Z</time>
      </trkpt>
      <trkpt lat="50.0426" lon="4.06094">
        <ele>212.2</ele>
        <time>2024-04-28T08:34:59Z</time>
      </trkpt>
      <trkpt lat="50.04252" lon="4.0609">
        <ele>211.2</ele>
        <time>2024-04-28T08:35:00Z</time>
      </trkpt>
      <trkpt lat="50.04244" lon="4.06086">
        <ele>210.6</ele>
        <time>2024-04-28T08:35:01Z</time>
      </trkpt>
      <trkpt lat="50.04236" lon="4.06082">
        <ele>210.4</ele>
        <time>2024-04-28T08:35:02Z</time>
      </trkpt>
      <trkpt lat="50.04227" lon="4.06078">
        <ele>209.8</ele>
        <time>2024-04-28T08:35:03Z</time>
      </trkpt>
      <trkpt lat="50.04219" lon="4.06074">
        <ele>209.6</ele>
        <time>2024-04-28T08:35:04Z</time>
      </trkpt>
      <trkpt lat="50.0421" lon="4.06069">
        <ele>209.2</ele>
        <time>2024-04-28T08:35:05Z</time>
      </trkpt>
      <trkpt lat="50.04202" lon="4.06065">
        <ele>208.8</ele>
        <time>2024-04-28T08:35:06Z</time>
      </trkpt>
      <trkpt lat="50.04193" lon="4.06061">
        <ele>207.8</ele>
        <time>2024-04-28T08:35:07Z</time>
      </trkpt>
      <trkpt lat="50.04184" lon="4.06057">
        <ele>207</ele>
        <time>2024-04-28T08:35:08Z</time>
      </trkpt>
      <trkpt lat="50.04175" lon="4.06052">
        <ele>206.2</ele>
        <time>2024-04-28T08:35:09Z</time>
      </trkpt>
      <trkpt lat="50.04166" lon="4.06048">
        <ele>205.4</ele>
        <time>2024-04-28T08:35:10Z</time>
      </trkpt>
      <trkpt lat="50.04157" lon="4.06042">
        <ele>205</ele>
        <time>2024-04-28T08:35:11Z</time>
      </trkpt>
      <trkpt lat="50.04148" lon="4.06036">
        <ele>204.4</ele>
        <time>2024-04-28T08:35:12Z</time>
      </trkpt>
      <trkpt lat="50.0414" lon="4.06028">
        <ele>204</ele>
        <time>2024-04-28T08:35:13Z</time>
      </trkpt>
      <trkpt lat="50.04131" lon="4.0602">
        <ele>204</ele>
        <time>2024-04-28T08:35:14Z</time>
      </trkpt>
      <trkpt lat="50.04123" lon="4.0601">
        <ele>203</ele>
        <time>2024-04-28T08:35:15Z</time>
      </trkpt>
      <trkpt lat="50.04115" lon="4.06">
        <ele>203</ele>
        <time>2024-04-28T08:35:16Z</time>
      </trkpt>
      <trkpt lat="50.04108" lon="4.05988">
        <ele>202.6</ele>
        <time>2024-04-28T08:35:17Z</time>
      </trkpt>
      <trkpt lat="50.04101" lon="4.05975">
        <ele>202</ele>
        <time>2024-04-28T08:35:18Z</time>
      </trkpt>
      <trkpt lat="50.04095" lon="4.05961">
        <ele>201.6</ele>
        <time>2024-04-28T08:35:19Z</time>
      </trkpt>
      <trkpt lat="50.04089" lon="4.05947">
        <ele>201.4</ele>
        <time>2024-04-28T08:35:20Z</time>
      </trkpt>
      <trkpt lat="50.04083" lon="4.05932">
        <ele>200.2</ele>
        <time>2024-04-28T08:35:21Z</time>
      </trkpt>
      <trkpt lat="50.04077" lon="4.05917">
        <ele>198.8</ele>
        <time>2024-04-28T08:35:22Z</time>
      </trkpt>
      <trkpt lat="50.04071" lon="4.05902">
        <ele>198</ele>
        <time>2024-04-28T08:35:23Z</time>
      </trkpt>
      <trkpt lat="50.04064" lon="4.05888">
        <ele>197.4</ele>
        <time>2024-04-28T08:35:24Z</time>
      </trkpt>
      <trkpt lat="50.04056" lon="4.05875">
        <ele>196</ele>
        <time>2024-04-28T08:35:25Z</time>
      </trkpt>
      <trkpt lat="50.04048" lon="4.05864">
        <ele>195</ele>
        <time>2024-04-28T08:35:26Z</time>
      </trkpt>
      <trkpt lat="50.04039" lon="4.05854">
        <ele>194.6</ele>
        <time>2024-04-28T08:35:27Z</time>
      </trkpt>
      <trkpt lat="50.0403" lon="4.05844">
        <ele>194.2</ele>
        <time>2024-04-28T08:35:28Z</time>
      </trkpt>
      <trkpt lat="50.04021" lon="4.05836">
        <ele>193.8</ele>
        <time>2024-04-28T08:35:29Z</time>
      </trkpt>
      <trkpt lat="50.04012" lon="4.0583">
        <ele>193.4</ele>
        <time>2024-04-28T08:35:30Z</time>
      </trkpt>
      <trkpt lat="50.04003" lon="4.05823">
        <ele>192.8</ele>
        <time>2024-04-28T08:35:31Z</time>
      </trkpt>
      <trkpt lat="50.03994" lon="4.05816">
        <ele>192.8</ele>
        <time>2024-04-28T08:35:32Z</time>
      </trkpt>
      <trkpt lat="50.03986" lon="4.0581">
        <ele>192.4</ele>
        <time>2024-04-28T08:35:33Z</time>
      </trkpt>
      <trkpt lat="50.03978" lon="4.05804">
        <ele>192.4</ele>
        <time>2024-04-28T08:35:34Z</time>
      </trkpt>
      <trkpt lat="50.0397" lon="4.05798">
        <ele>192.4</ele>
        <time>2024-04-28T08:35:35Z</time>
      </trkpt>
      <trkpt lat="50.03963" lon="4.05792">
        <ele>192.4</ele>
        <time>2024-04-28T08:35:36Z</time>
      </trkpt>
      <trkpt lat="50.03955" lon="4.05787">
        <ele>192.4</ele>
        <time>2024-04-28T08:35:37Z</time>
      </trkpt>
      <trkpt lat="50.03948" lon="4.05781">
        <ele>192.2</ele>
        <time>2024-04-28T08:35:38Z</time>
      </trkpt>
      <trkpt lat="50.03941" lon="4.05776">
        <ele>192.4</ele>
        <time>2024-04-28T08:35:39Z</time>
      </trkpt>
      <trkpt lat="50.03934" lon="4.05771">
        <ele>192.4</ele>
        <time>2024-04-28T08:35:40Z</time>
      </trkpt>
      <trkpt lat="50.03928" lon="4.05766">
        <ele>192.2</ele>
        <time>2024-04-28T08:35:41Z</time>
      </trkpt>
      <trkpt lat="50.03922" lon="4.05761">
        <ele>192.2</ele>
        <time>2024-04-28T08:35:42Z</time>
      </trkpt>
      <trkpt lat="50.03916" lon="4.05757">
        <ele>192.8</ele>
        <time>2024-04-28T08:35:43Z</time>
      </trkpt>
      <trkpt lat="50.0391" lon="4.05753">
        <ele>193.4</ele>
        <time>2024-04-28T08:35:44Z</time>
      </trkpt>
      <trkpt lat="50.03904" lon="4.0575">
        <ele>193.8</ele>
        <time>2024-04-28T08:35:45Z</time>
      </trkpt>
      <trkpt lat="50.03899" lon="4.05747">
        <ele>194.2</ele>
        <time>2024-04-28T08:35:46Z</time>
      </trkpt>
      <trkpt lat="50.03893" lon="4.05744">
        <ele>194.4</ele>
        <time>2024-04-28T08:35:47Z</time>
      </trkpt>
      <trkpt lat="50.03888" lon="4.05741">
        <ele>194.4</ele>
        <time>2024-04-28T08:35:48Z</time>
      </trkpt>
      <trkpt lat="50.03883" lon="4.05739">
        <ele>194.4</ele>
        <time>2024-04-28T08:35:49Z</time>
      </trkpt>
      <trkpt lat="50.03878" lon="4.05736">
        <ele>194.8</ele>
        <time>2024-04-28T08:35:50Z</time>
      </trkpt>
      <trkpt lat="50.03873" lon="4.05733">
        <ele>195</ele>
        <time>2024-04-28T08:35:51Z</time>
      </trkpt>
      <trkpt lat="50.03868" lon="4.0573">
        <ele>195.2</ele>
        <time>2024-04-28T08:35:52Z</time>
      </trkpt>
      <trkpt lat="50.03863" lon="4.05726">
        <ele>195.4</ele>
        <time>2024-04-28T08:35:53Z</time>
      </trkpt>
      <trkpt lat="50.03858" lon="4.05723">
        <ele>195.4</ele>
        <time>2024-04-28T08:35:54Z</time>
      </trkpt>
      <trkpt lat="50.03853" lon="4.0572">
        <ele>195.6</ele>
        <time>2024-04-28T08:35:55Z</time>
      </trkpt>
      <trkpt lat="50.03848" lon="4.05716">
        <ele>195.8</ele>
        <time>2024-04-28T08:35:56Z</time>
      </trkpt>
      <trkpt lat="50.03843" lon="4.05712">
        <ele>196</ele>
        <time>2024-04-28T08:35:57Z</time>
      </trkpt>
      <trkpt lat="50.03839" lon="4.05708">
        <ele>196.6</ele>
        <time>2024-04-28T08:35:58Z</time>
      </trkpt>
      <trkpt lat="50.03834" lon="4.05703">
        <ele>197.4</ele>
        <time>2024-04-28T08:35:59Z</time>
      </trkpt>
      <trkpt lat="50.0383" lon="4.05699">
        <ele>197.6</ele>
        <time>2024-04-28T08:36:00Z</time>
      </trkpt>
      <trkpt lat="50.03826" lon="4.05694">
        <ele>198</ele>
        <time>2024-04-28T08:36:01Z</time>
      </trkpt>
      <trkpt lat="50.03822" lon="4.0569">
        <ele>198.8</ele>
        <time>2024-04-28T08:36:02Z</time>
      </trkpt>
      <trkpt lat="50.03818" lon="4.05686">
        <ele>199.4</ele>
        <time>2024-04-28T08:36:03Z</time>
      </trkpt>
      <trkpt lat="50.03814" lon="4.05682">
        <ele>200.2</ele>
        <time>2024-04-28T08:36:04Z</time>
      </trkpt>
      <trkpt lat="50.0381" lon="4.05678">
        <ele>200.4</ele>
        <time>2024-04-28T08:36:05Z</time>
      </trkpt>
      <trkpt lat="50.03807" lon="4.05673">
        <ele>200.8</ele>
        <time>2024-04-28T08:36:06Z</time>
      </trkpt>
      <trkpt lat="50.03803" lon="4.05669">
        <ele>200.8</ele>
        <time>2024-04-28T08:36:07Z</time>
      </trkpt>
      <trkpt lat="50.03799" lon="4.05666">
        <ele>200.8</ele>
        <time>2024-04-28T08:36:08Z</time>
      </trkpt>
      <trkpt lat="50.03795" lon="4.05662">
        <ele>201</ele>
        <time>2024-04-28T08:36:09Z</time>
      </trkpt>
      <trkpt lat="50.03792" lon="4.05658">
        <ele>201.4</ele>
        <time>2024-04-28T08:36:10Z</time>
      </trkpt>
      <trkpt lat="50.03789" lon="4.05654">
        <ele>201.4</ele>
        <time>2024-04-28T08:36:11Z</time>
      </trkpt>
      <trkpt lat="50.03785" lon="4.05651">
        <ele>201.8</ele>
        <time>2024-04-28T08:36:12Z</time>
      </trkpt>
      <trkpt lat="50.03782" lon="4.05647">
        <ele>202</ele>
        <time>2024-04-28T08:36:13Z</time>
      </trkpt>
      <trkpt lat="50.03779" lon="4.05644">
        <ele>202.2</ele>
        <time>2024-04-28T08:36:14Z</time>
      </trkpt>
      <trkpt lat="50.03775" lon="4.0564">
        <ele>202.4</ele>
        <time>2024-04-28T08:36:15Z</time>
      </trkpt>
      <trkpt lat="50.03771" lon="4.05637">
        <ele>202.8</ele>
        <time>2024-04-28T08:36:16Z</time>
      </trkpt>
      <trkpt lat="50.03768" lon="4.05634">
        <ele>203</ele>
        <time>2024-04-28T08:36:17Z</time>
      </trkpt>
      <trkpt lat="50.03764" lon="4.05631">
        <ele>203.2</ele>
        <time>2024-04-28T08:36:18Z</time>
      </trkpt>
      <trkpt lat="50.0376" lon="4.05629">
        <ele>203.6</ele>
        <time>2024-04-28T08:36:19Z</time>
      </trkpt>
      <trkpt lat="50.03757" lon="4.05626">
        <ele>203.8</ele>
        <time>2024-04-28T08:36:20Z</time>
      </trkpt>
      <trkpt lat="50.03753" lon="4.05624">
        <ele>204.2</ele>
        <time>2024-04-28T08:36:21Z</time>
      </trkpt>
      <trkpt lat="50.03749" lon="4.05621">
        <ele>204.4</ele>
        <time>2024-04-28T08:36:22Z</time>
      </trkpt>
      <trkpt lat="50.03745" lon="4.05619">
        <ele>204.6</ele>
        <time>2024-04-28T08:36:23Z</time>
      </trkpt>
      <trkpt lat="50.03741" lon="4.05616">
        <ele>204.6</ele>
        <time>2024-04-28T08:36:24Z</time>
      </trkpt>
      <trkpt lat="50.03737" lon="4.05614">
        <ele>205</ele>
        <time>2024-04-28T08:36:25Z</time>
      </trkpt>
      <trkpt lat="50.03733" lon="4.05613">
        <ele>205.2</ele>
        <time>2024-04-28T08:36:26Z</time>
      </trkpt>
      <trkpt lat="50.03729" lon="4.05611">
        <ele>205</ele>
        <time>2024-04-28T08:36:27Z</time>
      </trkpt>
      <trkpt lat="50.03725" lon="4.0561">
        <ele>205.2</ele>
        <time>2024-04-28T08:36:28Z</time>
      </trkpt>
      <trkpt lat="50.03721" lon="4.05609">
        <ele>205.2</ele>
        <time>2024-04-28T08:36:29Z</time>
      </trkpt>
      <trkpt lat="50.03717" lon="4.05608">
        <ele>205.6</ele>
        <time>2024-04-28T08:36:30Z</time>
      </trkpt>
      <trkpt lat="50.03713" lon="4.05607">
        <ele>205.8</ele>
        <time>2024-04-28T08:36:31Z</time>
      </trkpt>
      <trkpt lat="50.03709" lon="4.05606">
        <ele>206.4</ele>
        <time>2024-04-28T08:36:32Z</time>
      </trkpt>
      <trkpt lat="50.03705" lon="4.05605">
        <ele>206.8</ele>
        <time>2024-04-28T08:36:33Z</time>
      </trkpt>
      <trkpt lat="50.03701" lon="4.05604">
        <ele>207.2</ele>
        <time>2024-04-28T08:36:34Z</time>
      </trkpt>
      <trkpt lat="50.03697" lon="4.05603">
        <ele>207.2</ele>
        <time>2024-04-28T08:36:35Z</time>
      </trkpt>
      <trkpt lat="50.03693" lon="4.05603">
        <ele>207.6</ele>
        <time>2024-04-28T08:36:36Z</time>
      </trkpt>
      <trkpt lat="50.03689" lon="4.05602">
        <ele>208</ele>
        <time>2024-04-28T08:36:37Z</time>
      </trkpt>
      <trkpt lat="50.03685" lon="4.05602">
        <ele>208.4</ele>
        <time>2024-04-28T08:36:38Z</time>
      </trkpt>
      <trkpt lat="50.03681" lon="4.05602">
        <ele>208.4</ele>
        <time>2024-04-28T08:36:39Z</time>
      </trkpt>
      <trkpt lat="50.03677" lon="4.05602">
        <ele>208.6</ele>
        <time>2024-04-28T08:36:40Z</time>
      </trkpt>
      <trkpt lat="50.03673" lon="4.05601">
        <ele>208.8</ele>
        <time>2024-04-28T08:36:41Z</time>
      </trkpt>
      <trkpt lat="50.03668" lon="4.05601">
        <ele>209.2</ele>
        <time>2024-04-28T08:36:42Z</time>
      </trkpt>
      <trkpt lat="50.03664" lon="4.05601">
        <ele>209.8</ele>
        <time>2024-04-28T08:36:43Z</time>
      </trkpt>
      <trkpt lat="50.0366" lon="4.05601">
        <ele>210.2</ele>
        <time>2024-04-28T08:36:44Z</time>
      </trkpt>
      <trkpt lat="50.03655" lon="4.056">
        <ele>210.4</ele>
        <time>2024-04-28T08:36:45Z</time>
      </trkpt>
      <trkpt lat="50.03651" lon="4.056">
        <ele>210.8</ele>
        <time>2024-04-28T08:36:46Z</time>
      </trkpt>
      <trkpt lat="50.03646" lon="4.056">
        <ele>210.8</ele>
        <time>2024-04-28T08:36:47Z</time>
      </trkpt>
      <trkpt lat="50.03642" lon="4.056">
        <ele>211</ele>
        <time>2024-04-28T08:36:48Z</time>
      </trkpt>
      <trkpt lat="50.03638" lon="4.056">
        <ele>211.4</ele>
        <time>2024-04-28T08:36:49Z</time>
      </trkpt>
      <trkpt lat="50.03633" lon="4.05601">
        <ele>211.4</ele>
        <time>2024-04-28T08:36:50Z</time>
      </trkpt>
      <trkpt lat="50.03629" lon="4.05601">
        <ele>211.4</ele>
        <time>2024-04-28T08:36:51Z</time>
      </trkpt>
      <trkpt lat="50.03625" lon="4.05602">
        <ele>211.6</ele>
        <time>2024-04-28T08:36:52Z</time>
      </trkpt>
      <trkpt lat="50.03621" lon="4.05603">
        <ele>211.6</ele>
        <time>2024-04-28T08:36:53Z</time>
      </trkpt>
      <trkpt lat="50.03616" lon="4.05604">
        <ele>211.8</ele>
        <time>2024-04-28T08:36:54Z</time>
      </trkpt>
      <trkpt lat="50.03612" lon="4.05605">
        <ele>211.8</ele>
        <time>2024-04-28T08:36:55Z</time>
      </trkpt>
      <trkpt lat="50.03608" lon="4.05606">
        <ele>211.8</ele>
        <time>2024-04-28T08:36:56Z</time>
      </trkpt>
      <trkpt lat="50.03604" lon="4.05608">
        <ele>211.8</ele>
        <time>2024-04-28T08:36:57Z</time>
      </trkpt>
      <trkpt lat="50.03599" lon="4.05609">
        <ele>212</ele>
        <time>2024-04-28T08:36:58Z</time>
      </trkpt>
      <trkpt lat="50.03595" lon="4.05611">
        <ele>212.4</ele>
        <time>2024-04-28T08:36:59Z</time>
      </trkpt>
      <trkpt lat="50.03591" lon="4.05613">
        <ele>212.4</ele>
        <time>2024-04-28T08:37:00Z</time>
      </trkpt>
      <trkpt lat="50.03586" lon="4.05615">
        <ele>212.6</ele>
        <time>2024-04-28T08:37:01Z</time>
      </trkpt>
      <trkpt lat="50.03582" lon="4.05617">
        <ele>212.8</ele>
        <time>2024-04-28T08:37:02Z</time>
      </trkpt>
      <trkpt lat="50.03578" lon="4.05619">
        <ele>213</ele>
        <time>2024-04-28T08:37:03Z</time>
      </trkpt>
      <trkpt lat="50.03574" lon="4.05622">
        <ele>213</ele>
        <time>2024-04-28T08:37:04Z</time>
      </trkpt>
      <trkpt lat="50.03569" lon="4.05624">
        <ele>213.4</ele>
        <time>2024-04-28T08:37:05Z</time>
      </trkpt>
      <trkpt lat="50.03564" lon="4.05627">
        <ele>213.4</ele>
        <time>2024-04-28T08:37:06Z</time>
      </trkpt>
      <trkpt lat="50.0356" lon="4.05629">
        <ele>213.8</ele>
        <time>2024-04-28T08:37:07Z</time>
      </trkpt>
      <trkpt lat="50.03555" lon="4.05632">
        <ele>213.6</ele>
        <time>2024-04-28T08:37:08Z</time>
      </trkpt>
      <trkpt lat="50.03551" lon="4.05634">
        <ele>214</ele>
        <time>2024-04-28T08:37:09Z</time>
      </trkpt>
      <trkpt lat="50.03546" lon="4.05637">
        <ele>214.4</ele>
        <time>2024-04-28T08:37:10Z</time>
      </trkpt>
      <trkpt lat="50.03542" lon="4.0564">
        <ele>214.4</ele>
        <time>2024-04-28T08:37:11Z</time>
      </trkpt>
      <trkpt lat="50.03537" lon="4.05642">
        <ele>214.4</ele>
        <time>2024-04-28T08:37:12Z</time>
      </trkpt>
      <trkpt lat="50.03532" lon="4.05645">
        <ele>214.6</ele>
        <time>2024-04-28T08:37:13Z</time>
      </trkpt>
      <trkpt lat="50.03528" lon="4.05648">
        <ele>214.6</ele>
        <time>2024-04-28T08:37:14Z</time>
      </trkpt>
      <trkpt lat="50.03523" lon="4.0565">
        <ele>214.8</ele>
        <time>2024-04-28T08:37:15Z</time>
      </trkpt>
      <trkpt lat="50.03518" lon="4.05653">
        <ele>215</ele>
        <time>2024-04-28T08:37:16Z</time>
      </trkpt>
      <trkpt lat="50.03514" lon="4.05655">
        <ele>215.2</ele>
        <time>2024-04-28T08:37:17Z</time>
      </trkpt>
      <trkpt lat="50.03509" lon="4.05658">
        <ele>215.4</ele>
        <time>2024-04-28T08:37:18Z</time>
      </trkpt>
      <trkpt lat="50.03504" lon="4.0566">
        <ele>215.4</ele>
        <time>2024-04-28T08:37:19Z</time>
      </trkpt>
      <trkpt lat="50.035" lon="4.05663">
        <ele>215.4</ele>
        <time>2024-04-28T08:37:20Z</time>
      </trkpt>
      <trkpt lat="50.03496" lon="4.05666">
        <ele>215.6</ele>
        <time>2024-04-28T08:37:21Z</time>
      </trkpt>
      <trkpt lat="50.03491" lon="4.05668">
        <ele>216</ele>
        <time>2024-04-28T08:37:22Z</time>
      </trkpt>
      <trkpt lat="50.03486" lon="4.05671">
        <ele>216.4</ele>
        <time>2024-04-28T08:37:23Z</time>
      </trkpt>
      <trkpt lat="50.03481" lon="4.05673">
        <ele>216.4</ele>
        <time>2024-04-28T08:37:24Z</time>
      </trkpt>
      <trkpt lat="50.03476" lon="4.05676">
        <ele>216.6</ele>
        <time>2024-04-28T08:37:25Z</time>
      </trkpt>
      <trkpt lat="50.03471" lon="4.05679">
        <ele>216.8</ele>
        <time>2024-04-28T08:37:26Z</time>
      </trkpt>
      <trkpt lat="50.03466" lon="4.05681">
        <ele>217</ele>
        <time>2024-04-28T08:37:27Z</time>
      </trkpt>
      <trkpt lat="50.03461" lon="4.05684">
        <ele>217.2</ele>
        <time>2024-04-28T08:37:28Z</time>
      </trkpt>
      <trkpt lat="50.03457" lon="4.05687">
        <ele>217.4</ele>
        <time>2024-04-28T08:37:29Z</time>
      </trkpt>
      <trkpt lat="50.03452" lon="4.0569">
        <ele>217.4</ele>
        <time>2024-04-28T08:37:30Z</time>
      </trkpt>
      <trkpt lat="50.03447" lon="4.05692">
        <ele>217.4</ele>
        <time>2024-04-28T08:37:31Z</time>
      </trkpt>
      <trkpt lat="50.03442" lon="4.05695">
        <ele>217.4</ele>
        <time>2024-04-28T08:37:32Z</time>
      </trkpt>
      <trkpt lat="50.03437" lon="4.05698">
        <ele>217.4</ele>
        <time>2024-04-28T08:37:33Z</time>
      </trkpt>
      <trkpt lat="50.03432" lon="4.057">
        <ele>217.6</ele>
        <time>2024-04-28T08:37:34Z</time>
      </trkpt>
      <trkpt lat="50.03427" lon="4.05703">
        <ele>217.6</ele>
        <time>2024-04-28T08:37:35Z</time>
      </trkpt>
      <trkpt lat="50.03422" lon="4.05706">
        <ele>217.8</ele>
        <time>2024-04-28T08:37:36Z</time>
      </trkpt>
      <trkpt lat="50.03417" lon="4.05709">
        <ele>218</ele>
        <time>2024-04-28T08:37:37Z</time>
      </trkpt>
      <trkpt lat="50.03412" lon="4.05712">
        <ele>218</ele>
        <time>2024-04-28T08:37:38Z</time>
      </trkpt>
      <trkpt lat="50.03406" lon="4.05714">
        <ele>218.2</ele>
        <time>2024-04-28T08:37:39Z</time>
      </trkpt>
      <trkpt lat="50.03401" lon="4.05718">
        <ele>218.2</ele>
        <time>2024-04-28T08:37:40Z</time>
      </trkpt>
      <trkpt lat="50.03396" lon="4.05721">
        <ele>218.2</ele>
        <time>2024-04-28T08:37:41Z</time>
      </trkpt>
      <trkpt lat="50.0339" lon="4.05725">
        <ele>218.4</ele>
        <time>2024-04-28T08:37:42Z</time>
      </trkpt>
      <trkpt lat="50.03384" lon="4.05729">
        <ele>218.2</ele>
        <time>2024-04-28T08:37:43Z</time>
      </trkpt>
      <trkpt lat="50.03379" lon="4.05733">
        <ele>218.2</ele>
        <time>2024-04-28T08:37:44Z</time>
      </trkpt>
      <trkpt lat="50.03373" lon="4.05738">
        <ele>218.2</ele>
        <time>2024-04-28T08:37:45Z</time>
      </trkpt>
      <trkpt lat="50.03368" lon="4.05744">
        <ele>218.2</ele>
        <time>2024-04-28T08:37:46Z</time>
      </trkpt>
      <trkpt lat="50.03363" lon="4.05749">
        <ele>218.2</ele>
        <time>2024-04-28T08:37:47Z</time>
      </trkpt>
      <trkpt lat="50.03358" lon="4.05756">
        <ele>218.2</ele>
        <time>2024-04-28T08:37:48Z</time>
      </trkpt>
      <trkpt lat="50.03352" lon="4.05763">
        <ele>218.2</ele>
        <time>2024-04-28T08:37:49Z</time>
      </trkpt>
      <trkpt lat="50.03348" lon="4.0577">
        <ele>218.4</ele>
        <time>2024-04-28T08:37:50Z</time>
      </trkpt>
      <trkpt lat="50.03343" lon="4.05778">
        <ele>218.6</ele>
        <time>2024-04-28T08:37:51Z</time>
      </trkpt>
      <trkpt lat="50.03338" lon="4.05786">
        <ele>218.6</ele>
        <time>2024-04-28T08:37:52Z</time>
      </trkpt>
      <trkpt lat="50.03334" lon="4.05795">
        <ele>218.8</ele>
        <time>2024-04-28T08:37:53Z</time>
      </trkpt>
      <trkpt lat="50.0333" lon="4.05804">
        <ele>218.8</ele>
        <time>2024-04-28T08:37:54Z</time>
      </trkpt>
      <trkpt lat="50.03326" lon="4.05813">
        <ele>218.8</ele>
        <time>2024-04-28T08:37:55Z</time>
      </trkpt>
      <trkpt lat="50.03323" lon="4.05823">
        <ele>219</ele>
        <time>2024-04-28T08:37:56Z</time>
      </trkpt>
      <trkpt lat="50.03319" lon="4.05834">
        <ele>219</ele>
        <time>2024-04-28T08:37:57Z</time>
      </trkpt>
      <trkpt lat="50.03316" lon="4.05844">
        <ele>219</ele>
        <time>2024-04-28T08:37:58Z</time>
      </trkpt>
      <trkpt lat="50.03312" lon="4.05855">
        <ele>219</ele>
        <time>2024-04-28T08:37:59Z</time>
      </trkpt>
      <trkpt lat="50.03309" lon="4.05865">
        <ele>219.4</ele>
        <time>2024-04-28T08:38:00Z</time>
      </trkpt>
      <trkpt lat="50.03305" lon="4.05876">
        <ele>219.4</ele>
        <time>2024-04-28T08:38:01Z</time>
      </trkpt>
      <trkpt lat="50.03301" lon="4.05887">
        <ele>219.2</ele>
        <time>2024-04-28T08:38:02Z</time>
      </trkpt>
      <trkpt lat="50.03298" lon="4.05898">
        <ele>219.4</ele>
        <time>2024-04-28T08:38:03Z</time>
      </trkpt>
      <trkpt lat="50.03294" lon="4.05909">
        <ele>219.4</ele>
        <time>2024-04-28T08:38:04Z</time>
      </trkpt>
      <trkpt lat="50.03289" lon="4.0592">
        <ele>219.4</ele>
        <time>2024-04-28T08:38:05Z</time>
      </trkpt>
      <trkpt lat="50.03285" lon="4.0593">
        <ele>219.4</ele>
        <time>2024-04-28T08:38:06Z</time>
      </trkpt>
      <trkpt lat="50.0328" lon="4.05941">
        <ele>219.4</ele>
        <time>2024-04-28T08:38:07Z</time>
      </trkpt>
      <trkpt lat="50.03276" lon="4.05951">
        <ele>219.4</ele>
        <time>2024-04-28T08:38:08Z</time>
      </trkpt>
      <trkpt lat="50.03271" lon="4.05961">
        <ele>219.4</ele>
        <time>2024-04-28T08:38:09Z</time>
      </trkpt>
      <trkpt lat="50.03266" lon="4.05971">
        <ele>219.4</ele>
        <time>2024-04-28T08:38:10Z</time>
      </trkpt>
      <trkpt lat="50.03261" lon="4.05981">
        <ele>219.2</ele>
        <time>2024-04-28T08:38:11Z</time>
      </trkpt>
      <trkpt lat="50.03257" lon="4.05991">
        <ele>219.2</ele>
        <time>2024-04-28T08:38:12Z</time>
      </trkpt>
      <trkpt lat="50.03253" lon="4.06002">
        <ele>219.2</ele>
        <time>2024-04-28T08:38:13Z</time>
      </trkpt>
      <trkpt lat="50.03249" lon="4.06012">
        <ele>219.2</ele>
        <time>2024-04-28T08:38:14Z</time>
      </trkpt>
      <trkpt lat="50.03245" lon="4.06022">
        <ele>219</ele>
        <time>2024-04-28T08:38:15Z</time>
      </trkpt>
      <trkpt lat="50.03241" lon="4.06032">
        <ele>219</ele>
        <time>2024-04-28T08:38:16Z</time>
      </trkpt>
      <trkpt lat="50.03236" lon="4.06042">
        <ele>218.8</ele>
        <time>2024-04-28T08:38:17Z</time>
      </trkpt>
      <trkpt lat="50.03232" lon="4.06052">
        <ele>218.8</ele>
        <time>2024-04-28T08:38:18Z</time>
      </trkpt>
      <trkpt lat="50.03229" lon="4.06063">
        <ele>218.6</ele>
        <time>2024-04-28T08:38:19Z</time>
      </trkpt>
      <trkpt lat="50.03225" lon="4.06075">
        <ele>218.6</ele>
        <time>2024-04-28T08:38:20Z</time>
      </trkpt>
      <trkpt lat="50.03221" lon="4.06086">
        <ele>218.4</ele>
        <time>2024-04-28T08:38:21Z</time>
      </trkpt>
      <trkpt lat="50.03216" lon="4.06097">
        <ele>218.4</ele>
        <time>2024-04-28T08:38:22Z</time>
      </trkpt>
      <trkpt lat="50.03212" lon="4.06109">
        <ele>218.4</ele>
        <time>2024-04-28T08:38:23Z</time>
      </trkpt>
      <trkpt lat="50.03208" lon="4.06121">
        <ele>218.4</ele>
        <time>2024-04-28T08:38:24Z</time>
      </trkpt>
      <trkpt lat="50.03204" lon="4.06132">
        <ele>218.2</ele>
        <time>2024-04-28T08:38:25Z</time>
      </trkpt>
      <trkpt lat="50.03199" lon="4.06144">
        <ele>217.4</ele>
        <time>2024-04-28T08:38:26Z</time>
      </trkpt>
      <trkpt lat="50.03195" lon="4.06157">
        <ele>216.6</ele>
        <time>2024-04-28T08:38:27Z</time>
      </trkpt>
      <trkpt lat="50.03191" lon="4.0617">
        <ele>216.2</ele>
        <time>2024-04-28T08:38:28Z</time>
      </trkpt>
      <trkpt lat="50.03187" lon="4.06182">
        <ele>215.6</ele>
        <time>2024-04-28T08:38:29Z</time>
      </trkpt>
      <trkpt lat="50.03184" lon="4.06195">
        <ele>215.2</ele>
        <time>2024-04-28T08:38:30Z</time>
      </trkpt>
      <trkpt lat="50.0318" lon="4.06207">
        <ele>215.2</ele>
        <time>2024-04-28T08:38:31Z</time>
      </trkpt>
      <trkpt lat="50.03176" lon="4.0622">
        <ele>215</ele>
        <time>2024-04-28T08:38:32Z</time>
      </trkpt>
      <trkpt lat="50.03173" lon="4.06234">
        <ele>214.8</ele>
        <time>2024-04-28T08:38:33Z</time>
      </trkpt>
      <trkpt lat="50.0317" lon="4.06248">
        <ele>214</ele>
        <time>2024-04-28T08:38:34Z</time>
      </trkpt>
      <trkpt lat="50.03166" lon="4.06262">
        <ele>212.4</ele>
        <time>2024-04-28T08:38:35Z</time>
      </trkpt>
      <trkpt lat="50.03163" lon="4.06278">
        <ele>211.6</ele>
        <time>2024-04-28T08:38:36Z</time>
      </trkpt>
      <trkpt lat="50.03159" lon="4.06293">
        <ele>211.2</ele>
        <time>2024-04-28T08:38:37Z</time>
      </trkpt>
      <trkpt lat="50.03155" lon="4.06309">
        <ele>210.8</ele>
        <time>2024-04-28T08:38:38Z</time>
      </trkpt>
      <trkpt lat="50.0315" lon="4.06325">
        <ele>210.6</ele>
        <time>2024-04-28T08:38:39Z</time>
      </trkpt>
      <trkpt lat="50.03146" lon="4.06342">
        <ele>210.6</ele>
        <time>2024-04-28T08:38:40Z</time>
      </trkpt>
      <trkpt lat="50.03141" lon="4.06359">
        <ele>210.4</ele>
        <time>2024-04-28T08:38:41Z</time>
      </trkpt>
      <trkpt lat="50.03136" lon="4.06375">
        <ele>209.4</ele>
        <time>2024-04-28T08:38:42Z</time>
      </trkpt>
      <trkpt lat="50.03129" lon="4.06391">
        <ele>209.4</ele>
        <time>2024-04-28T08:38:43Z</time>
      </trkpt>
      <trkpt lat="50.03122" lon="4.06406">
        <ele>208.6</ele>
        <time>2024-04-28T08:38:44Z</time>
      </trkpt>
      <trkpt lat="50.03114" lon="4.0642">
        <ele>208</ele>
        <time>2024-04-28T08:38:45Z</time>
      </trkpt>
      <trkpt lat="50.03105" lon="4.06433">
        <ele>206.2</ele>
        <time>2024-04-28T08:38:46Z</time>
      </trkpt>
      <trkpt lat="50.03095" lon="4.06444">
        <ele>205</ele>
        <time>2024-04-28T08:38:47Z</time>
      </trkpt>
      <trkpt lat="50.03085" lon="4.06454">
        <ele>204</ele>
        <time>2024-04-28T08:38:48Z</time>
      </trkpt>
      <trkpt lat="50.03075" lon="4.06462">
        <ele>203</ele>
        <time>2024-04-28T08:38:49Z</time>
      </trkpt>
      <trkpt lat="50.03066" lon="4.06468">
        <ele>202.2</ele>
        <time>2024-04-28T08:38:50Z</time>
      </trkpt>
      <trkpt lat="50.03057" lon="4.06472">
        <ele>202</ele>
        <time>2024-04-28T08:38:51Z</time>
      </trkpt>
      <trkpt lat="50.03047" lon="4.06476">
        <ele>201.6</ele>
        <time>2024-04-28T08:38:52Z</time>
      </trkpt>
      <trkpt lat="50.03038" lon="4.06478">
        <ele>201.4</ele>
        <time>2024-04-28T08:38:53Z</time>
      </trkpt>
      <trkpt lat="50.03029" lon="4.0648">
        <ele>201.4</ele>
        <time>2024-04-28T08:38:54Z</time>
      </trkpt>
      <trkpt lat="50.0302" lon="4.06482">
        <ele>201.2</ele>
        <time>2024-04-28T08:38:55Z</time>
      </trkpt>
      <trkpt lat="50.03012" lon="4.06484">
        <ele>201.2</ele>
        <time>2024-04-28T08:38:56Z</time>
      </trkpt>
      <trkpt lat="50.03004" lon="4.06486">
        <ele>201.4</ele>
        <time>2024-04-28T08:38:57Z</time>
      </trkpt>
      <trkpt lat="50.02996" lon="4.06488">
        <ele>201.2</ele>
        <time>2024-04-28T08:38:58Z</time>
      </trkpt>
      <trkpt lat="50.02988" lon="4.06489">
        <ele>201.2</ele>
        <time>2024-04-28T08:38:59Z</time>
      </trkpt>
      <trkpt lat="50.02981" lon="4.0649">
        <ele>201.4</ele>
        <time>2024-04-28T08:39:00Z</time>
      </trkpt>
      <trkpt lat="50.02974" lon="4.06492">
        <ele>201.4</ele>
        <time>2024-04-28T08:39:01Z</time>
      </trkpt>
      <trkpt lat="50.02968" lon="4.06493">
        <ele>201.4</ele>
        <time>2024-04-28T08:39:02Z</time>
      </trkpt>
      <trkpt lat="50.02962" lon="4.06494">
        <ele>201.6</ele>
        <time>2024-04-28T08:39:03Z</time>
      </trkpt>
      <trkpt lat="50.02955" lon="4.06496">
        <ele>202.2</ele>
        <time>2024-04-28T08:39:04Z</time>
      </trkpt>
      <trkpt lat="50.02949" lon="4.06498">
        <ele>202.6</ele>
        <time>2024-04-28T08:39:05Z</time>
      </trkpt>
      <trkpt lat="50.02943" lon="4.06499">
        <ele>203.4</ele>
        <time>2024-04-28T08:39:06Z</time>
      </trkpt>
      <trkpt lat="50.02936" lon="4.06501">
        <ele>203.8</ele>
        <time>2024-04-28T08:39:07Z</time>
      </trkpt>
      <trkpt lat="50.0293" lon="4.06502">
        <ele>204.6</ele>
        <time>2024-04-28T08:39:08Z</time>
      </trkpt>
      <trkpt lat="50.02923" lon="4.06503">
        <ele>205.8</ele>
        <time>2024-04-28T08:39:09Z</time>
      </trkpt>
      <trkpt lat="50.02917" lon="4.06505">
        <ele>206.2</ele>
        <time>2024-04-28T08:39:10Z</time>
      </trkpt>
      <trkpt lat="50.02911" lon="4.06506">
        <ele>206.8</ele>
        <time>2024-04-28T08:39:11Z</time>
      </trkpt>
      <trkpt lat="50.02904" lon="4.06508">
        <ele>207</ele>
        <time>2024-04-28T08:39:12Z</time>
      </trkpt>
      <trkpt lat="50.02898" lon="4.06509">
        <ele>207.2</ele>
        <time>2024-04-28T08:39:13Z</time>
      </trkpt>
      <trkpt lat="50.02892" lon="4.06511">
        <ele>207.6</ele>
        <time>2024-04-28T08:39:14Z</time>
      </trkpt>
      <trkpt lat="50.02885" lon="4.06512">
        <ele>207.6</ele>
        <time>2024-04-28T08:39:15Z</time>
      </trkpt>
      <trkpt lat="50.02879" lon="4.06514">
        <ele>207.6</ele>
        <time>2024-04-28T08:39:16Z</time>
      </trkpt>
      <trkpt lat="50.02872" lon="4.06515">
        <ele>207.6</ele>
        <time>2024-04-28T08:39:17Z</time>
      </trkpt>
      <trkpt lat="50.02866" lon="4.06517">
        <ele>207.8</ele>
        <time>2024-04-28T08:39:18Z</time>
      </trkpt>
      <trkpt lat="50.02859" lon="4.06518">
        <ele>207.8</ele>
        <time>2024-04-28T08:39:19Z</time>
      </trkpt>
      <trkpt lat="50.02852" lon="4.0652">
        <ele>208</ele>
        <time>2024-04-28T08:39:20Z</time>
      </trkpt>
      <trkpt lat="50.02845" lon="4.06521">
        <ele>208</ele>
        <time>2024-04-28T08:39:21Z</time>
      </trkpt>
      <trkpt lat="50.02838" lon="4.06523">
        <ele>208.2</ele>
        <time>2024-04-28T08:39:22Z</time>
      </trkpt>
      <trkpt lat="50.02831" lon="4.06524">
        <ele>208.2</ele>
        <time>2024-04-28T08:39:23Z</time>
      </trkpt>
      <trkpt lat="50.02824" lon="4.06525">
        <ele>208.2</ele>
        <time>2024-04-28T08:39:24Z</time>
      </trkpt>
      <trkpt lat="50.02817" lon="4.06526">
        <ele>208.4</ele>
        <time>2024-04-28T08:39:25Z</time>
      </trkpt>
      <trkpt lat="50.0281" lon="4.06526">
        <ele>208.6</ele>
        <time>2024-04-28T08:39:26Z</time>
      </trkpt>
      <trkpt lat="50.02803" lon="4.06526">
        <ele>208.8</ele>
        <time>2024-04-28T08:39:27Z</time>
      </trkpt>
      <trkpt lat="50.02796" lon="4.06527">
        <ele>208.8</ele>
        <time>2024-04-28T08:39:28Z</time>
      </trkpt>
      <trkpt lat="50.0279" lon="4.06527">
        <ele>209</ele>
        <time>2024-04-28T08:39:29Z</time>
      </trkpt>
      <trkpt lat="50.02783" lon="4.06527">
        <ele>209.2</ele>
        <time>2024-04-28T08:39:30Z</time>
      </trkpt>
      <trkpt lat="50.02776" lon="4.06526">
        <ele>209.2</ele>
        <time>2024-04-28T08:39:31Z</time>
      </trkpt>
      <trkpt lat="50.02769" lon="4.06526">
        <ele>209.4</ele>
        <time>2024-04-28T08:39:32Z</time>
      </trkpt>
      <trkpt lat="50.02762" lon="4.06526">
        <ele>209.4</ele>
        <time>2024-04-28T08:39:33Z</time>
      </trkpt>
      <trkpt lat="50.02755" lon="4.06525">
        <ele>209.4</ele>
        <time>2024-04-28T08:39:34Z</time>
      </trkpt>
      <trkpt lat="50.02748" lon="4.06525">
        <ele>209.6</ele>
        <time>2024-04-28T08:39:35Z</time>
      </trkpt>
      <trkpt lat="50.0274" lon="4.06525">
        <ele>209.4</ele>
        <time>2024-04-28T08:39:36Z</time>
      </trkpt>
      <trkpt lat="50.02733" lon="4.06524">
        <ele>209.4</ele>
        <time>2024-04-28T08:39:37Z</time>
      </trkpt>
      <trkpt lat="50.02725" lon="4.06524">
        <ele>209.4</ele>
        <time>2024-04-28T08:39:38Z</time>
      </trkpt>
      <trkpt lat="50.02718" lon="4.06523">
        <ele>209.6</ele>
        <time>2024-04-28T08:39:39Z</time>
      </trkpt>
      <trkpt lat="50.0271" lon="4.06522">
        <ele>209.6</ele>
        <time>2024-04-28T08:39:40Z</time>
      </trkpt>
      <trkpt lat="50.02702" lon="4.06522">
        <ele>209.4</ele>
        <time>2024-04-28T08:39:41Z</time>
      </trkpt>
      <trkpt lat="50.02694" lon="4.06522">
        <ele>209.4</ele>
        <time>2024-04-28T08:39:42Z</time>
      </trkpt>
      <trkpt lat="50.02686" lon="4.06521">
        <ele>209.2</ele>
        <time>2024-04-28T08:39:43Z</time>
      </trkpt>
      <trkpt lat="50.02678" lon="4.06521">
        <ele>209</ele>
        <time>2024-04-28T08:39:44Z</time>
      </trkpt>
      <trkpt lat="50.0267" lon="4.0652">
        <ele>208.2</ele>
        <time>2024-04-28T08:39:45Z</time>
      </trkpt>
      <trkpt lat="50.02661" lon="4.0652">
        <ele>207.8</ele>
        <time>2024-04-28T08:39:46Z</time>
      </trkpt>
      <trkpt lat="50.02653" lon="4.0652">
        <ele>207.4</ele>
        <time>2024-04-28T08:39:47Z</time>
      </trkpt>
      <trkpt lat="50.02644" lon="4.06519">
        <ele>206.8</ele>
        <time>2024-04-28T08:39:48Z</time>
      </trkpt>
      <trkpt lat="50.02636" lon="4.06519">
        <ele>206.4</ele>
        <time>2024-04-28T08:39:49Z</time>
      </trkpt>
      <trkpt lat="50.02627" lon="4.06518">
        <ele>206</ele>
        <time>2024-04-28T08:39:50Z</time>
      </trkpt>
      <trkpt lat="50.02618" lon="4.06518">
        <ele>206</ele>
        <time>2024-04-28T08:39:51Z</time>
      </trkpt>
      <trkpt lat="50.02609" lon="4.06517">
        <ele>205.6</ele>
        <time>2024-04-28T08:39:52Z</time>
      </trkpt>
      <trkpt lat="50.026" lon="4.06517">
        <ele>204.2</ele>
        <time>2024-04-28T08:39:53Z</time>
      </trkpt>
      <trkpt lat="50.02592" lon="4.06516">
        <ele>203.2</ele>
        <time>2024-04-28T08:39:54Z</time>
      </trkpt>
      <trkpt lat="50.02583" lon="4.06516">
        <ele>202.2</ele>
        <time>2024-04-28T08:39:55Z</time>
      </trkpt>
      <trkpt lat="50.02574" lon="4.06515">
        <ele>201.6</ele>
        <time>2024-04-28T08:39:56Z</time>
      </trkpt>
      <trkpt lat="50.02566" lon="4.06515">
        <ele>201.2</ele>
        <time>2024-04-28T08:39:57Z</time>
      </trkpt>
      <trkpt lat="50.02558" lon="4.06515">
        <ele>201</ele>
        <time>2024-04-28T08:39:58Z</time>
      </trkpt>
      <trkpt lat="50.0255" lon="4.06514">
        <ele>200.6</ele>
        <time>2024-04-28T08:39:59Z</time>
      </trkpt>
      <trkpt lat="50.02542" lon="4.06514">
        <ele>200.4</ele>
        <time>2024-04-28T08:40:00Z</time>
      </trkpt>
      <trkpt lat="50.02534" lon="4.06513">
        <ele>200.4</ele>
        <time>2024-04-28T08:40:01Z</time>
      </trkpt>
      <trkpt lat="50.02527" lon="4.06513">
        <ele>200.4</ele>
        <time>2024-04-28T08:40:02Z</time>
      </trkpt>
      <trkpt lat="50.0252" lon="4.06512">
        <ele>200.2</ele>
        <time>2024-04-28T08:40:03Z</time>
      </trkpt>
      <trkpt lat="50.02513" lon="4.0651">
        <ele>200.2</ele>
        <time>2024-04-28T08:40:04Z</time>
      </trkpt>
      <trkpt lat="50.02506" lon="4.06509">
        <ele>200.2</ele>
        <time>2024-04-28T08:40:05Z</time>
      </trkpt>
      <trkpt lat="50.02499" lon="4.06507">
        <ele>200.2</ele>
        <time>2024-04-28T08:40:06Z</time>
      </trkpt>
      <trkpt lat="50.02492" lon="4.06504">
        <ele>200</ele>
        <time>2024-04-28T08:40:07Z</time>
      </trkpt>
      <trkpt lat="50.02485" lon="4.06501">
        <ele>200</ele>
        <time>2024-04-28T08:40:08Z</time>
      </trkpt>
      <trkpt lat="50.02478" lon="4.06499">
        <ele>200</ele>
        <time>2024-04-28T08:40:09Z</time>
      </trkpt>
      <trkpt lat="50.02471" lon="4.06495">
        <ele>199.8</ele>
        <time>2024-04-28T08:40:10Z</time>
      </trkpt>
      <trkpt lat="50.02464" lon="4.06492">
        <ele>199.8</ele>
        <time>2024-04-28T08:40:11Z</time>
      </trkpt>
      <trkpt lat="50.02457" lon="4.06488">
        <ele>199.6</ele>
        <time>2024-04-28T08:40:12Z</time>
      </trkpt>
      <trkpt lat="50.0245" lon="4.06484">
        <ele>199.6</ele>
        <time>2024-04-28T08:40:13Z</time>
      </trkpt>
      <trkpt lat="50.02443" lon="4.06479">
        <ele>199.6</ele>
        <time>2024-04-28T08:40:14Z</time>
      </trkpt>
      <trkpt lat="50.02436" lon="4.06475">
        <ele>199.8</ele>
        <time>2024-04-28T08:40:15Z</time>
      </trkpt>
      <trkpt lat="50.02428" lon="4.06471">
        <ele>199.6</ele>
        <time>2024-04-28T08:40:16Z</time>
      </trkpt>
      <trkpt lat="50.02421" lon="4.06466">
        <ele>199.8</ele>
        <time>2024-04-28T08:40:17Z</time>
      </trkpt>
      <trkpt lat="50.02413" lon="4.06462">
        <ele>199.8</ele>
        <time>2024-04-28T08:40:18Z</time>
      </trkpt>
      <trkpt lat="50.02405" lon="4.06457">
        <ele>199.6</ele>
        <time>2024-04-28T08:40:19Z</time>
      </trkpt>
      <trkpt lat="50.02397" lon="4.06452">
        <ele>199.6</ele>
        <time>2024-04-28T08:40:20Z</time>
      </trkpt>
      <trkpt lat="50.02389" lon="4.06448">
        <ele>199.2</ele>
        <time>2024-04-28T08:40:21Z</time>
      </trkpt>
      <trkpt lat="50.0238" lon="4.06443">
        <ele>199</ele>
        <time>2024-04-28T08:40:22Z</time>
      </trkpt>
      <trkpt lat="50.02371" lon="4.06438">
        <ele>199</ele>
        <time>2024-04-28T08:40:23Z</time>
      </trkpt>
      <trkpt lat="50.02363" lon="4.06433">
        <ele>198.6</ele>
        <time>2024-04-28T08:40:24Z</time>
      </trkpt>
      <trkpt lat="50.02354" lon="4.06427">
        <ele>198.4</ele>
        <time>2024-04-28T08:40:25Z</time>
      </trkpt>
      <trkpt lat="50.02345" lon="4.06422">
        <ele>198</ele>
        <time>2024-04-28T08:40:26Z</time>
      </trkpt>
      <trkpt lat="50.02336" lon="4.06417">
        <ele>197.6</ele>
        <time>2024-04-28T08:40:27Z</time>
      </trkpt>
      <trkpt lat="50.02327" lon="4.06412">
        <ele>197.2</ele>
        <time>2024-04-28T08:40:28Z</time>
      </trkpt>
      <trkpt lat="50.02319" lon="4.06407">
        <ele>197</ele>
        <time>2024-04-28T08:40:29Z</time>
      </trkpt>
      <trkpt lat="50.02311" lon="4.06401">
        <ele>196</ele>
        <time>2024-04-28T08:40:30Z</time>
      </trkpt>
      <trkpt lat="50.02303" lon="4.06396">
        <ele>195.2</ele>
        <time>2024-04-28T08:40:31Z</time>
      </trkpt>
      <trkpt lat="50.02295" lon="4.0639">
        <ele>194.2</ele>
        <time>2024-04-28T08:40:32Z</time>
      </trkpt>
      <trkpt lat="50.02287" lon="4.06383">
        <ele>193.2</ele>
        <time>2024-04-28T08:40:33Z</time>
      </trkpt>
      <trkpt lat="50.02279" lon="4.06375">
        <ele>192.4</ele>
        <time>2024-04-28T08:40:34Z</time>
      </trkpt>
      <trkpt lat="50.02271" lon="4.06367">
        <ele>191</ele>
        <time>2024-04-28T08:40:35Z</time>
      </trkpt>
      <trkpt lat="50.02263" lon="4.06357">
        <ele>189.6</ele>
        <time>2024-04-28T08:40:36Z</time>
      </trkpt>
      <trkpt lat="50.02255" lon="4.06347">
        <ele>188.4</ele>
        <time>2024-04-28T08:40:37Z</time>
      </trkpt>
      <trkpt lat="50.02247" lon="4.06337">
        <ele>187.6</ele>
        <time>2024-04-28T08:40:38Z</time>
      </trkpt>
      <trkpt lat="50.0224" lon="4.06327">
        <ele>187</ele>
        <time>2024-04-28T08:40:39Z</time>
      </trkpt>
      <trkpt lat="50.02232" lon="4.06316">
        <ele>186.6</ele>
        <time>2024-04-28T08:40:40Z</time>
      </trkpt>
      <trkpt lat="50.02224" lon="4.06306">
        <ele>186.6</ele>
        <time>2024-04-28T08:40:41Z</time>
      </trkpt>
      <trkpt lat="50.02216" lon="4.06295">
        <ele>186.4</ele>
        <time>2024-04-28T08:40:42Z</time>
      </trkpt>
      <trkpt lat="50.02208" lon="4.06285">
        <ele>185.8</ele>
        <time>2024-04-28T08:40:43Z</time>
      </trkpt>
      <trkpt lat="50.02199" lon="4.06274">
        <ele>185</ele>
        <time>2024-04-28T08:40:44Z</time>
      </trkpt>
      <trkpt lat="50.0219" lon="4.06264">
        <ele>184.4</ele>
        <time>2024-04-28T08:40:45Z</time>
      </trkpt>
      <trkpt lat="50.02182" lon="4.06253">
        <ele>183.8</ele>
        <time>2024-04-28T08:40:46Z</time>
      </trkpt>
      <trkpt lat="50.02174" lon="4.06243">
        <ele>183.6</ele>
        <time>2024-04-28T08:40:47Z</time>
      </trkpt>
      <trkpt lat="50.02167" lon="4.06234">
        <ele>183.4</ele>
        <time>2024-04-28T08:40:48Z</time>
      </trkpt>
      <trkpt lat="50.0216" lon="4.06225">
        <ele>182.8</ele>
        <time>2024-04-28T08:40:49Z</time>
      </trkpt>
      <trkpt lat="50.02155" lon="4.06217">
        <ele>181.6</ele>
        <time>2024-04-28T08:40:50Z</time>
      </trkpt>
      <trkpt lat="50.02149" lon="4.0621">
        <ele>180.8</ele>
        <time>2024-04-28T08:40:51Z</time>
      </trkpt>
      <trkpt lat="50.02145" lon="4.06204">
        <ele>180.2</ele>
        <time>2024-04-28T08:40:52Z</time>
      </trkpt>
      <trkpt lat="50.02142" lon="4.062">
        <ele>179.8</ele>
        <time>2024-04-28T08:40:53Z</time>
      </trkpt>
      <trkpt lat="50.02138" lon="4.06198">
        <ele>179.6</ele>
        <time>2024-04-28T08:40:54Z</time>
      </trkpt>
      <trkpt lat="50.02134" lon="4.06198">
        <ele>179.4</ele>
        <time>2024-04-28T08:40:55Z</time>
      </trkpt>
      <trkpt lat="50.02131" lon="4.06202">
        <ele>179.2</ele>
        <time>2024-04-28T08:40:56Z</time>
      </trkpt>
      <trkpt lat="50.02128" lon="4.06208">
        <ele>179</ele>
        <time>2024-04-28T08:40:57Z</time>
      </trkpt>
      <trkpt lat="50.02126" lon="4.06215">
        <ele>179</ele>
        <time>2024-04-28T08:40:58Z</time>
      </trkpt>
      <trkpt lat="50.02124" lon="4.06223">
        <ele>179</ele>
        <time>2024-04-28T08:40:59Z</time>
      </trkpt>
      <trkpt lat="50.02124" lon="4.06231">
        <ele>179</ele>
        <time>2024-04-28T08:41:00Z</time>
      </trkpt>
      <trkpt lat="50.02123" lon="4.0624">
        <ele>179</ele>
        <time>2024-04-28T08:41:01Z</time>
      </trkpt>
      <trkpt lat="50.02122" lon="4.06249">
        <ele>178.8</ele>
        <time>2024-04-28T08:41:02Z</time>
      </trkpt>
      <trkpt lat="50.02121" lon="4.06258">
        <ele>178.8</ele>
        <time>2024-04-28T08:41:03Z</time>
      </trkpt>
      <trkpt lat="50.0212" lon="4.06267">
        <ele>179</ele>
        <time>2024-04-28T08:41:04Z</time>
      </trkpt>
      <trkpt lat="50.02119" lon="4.06276">
        <ele>178.8</ele>
        <time>2024-04-28T08:41:05Z</time>
      </trkpt>
      <trkpt lat="50.02118" lon="4.06285">
        <ele>178.8</ele>
        <time>2024-04-28T08:41:06Z</time>
      </trkpt>
      <trkpt lat="50.02117" lon="4.06294">
        <ele>179</ele>
        <time>2024-04-28T08:41:07Z</time>
      </trkpt>
      <trkpt lat="50.02116" lon="4.06302">
        <ele>179</ele>
        <time>2024-04-28T08:41:08Z</time>
      </trkpt>
      <trkpt lat="50.02116" lon="4.06311">
        <ele>179</ele>
        <time>2024-04-28T08:41:09Z</time>
      </trkpt>
      <trkpt lat="50.02115" lon="4.0632">
        <ele>179</ele>
        <time>2024-04-28T08:41:10Z</time>
      </trkpt>
      <trkpt lat="50.02115" lon="4.06328">
        <ele>179</ele>
        <time>2024-04-28T08:41:11Z</time>
      </trkpt>
      <trkpt lat="50.02115" lon="4.06337">
        <ele>179.2</ele>
        <time>2024-04-28T08:41:12Z</time>
      </trkpt>
      <trkpt lat="50.02115" lon="4.06346">
        <ele>179.2</ele>
        <time>2024-04-28T08:41:13Z</time>
      </trkpt>
      <trkpt lat="50.02116" lon="4.06354">
        <ele>179.4</ele>
        <time>2024-04-28T08:41:14Z</time>
      </trkpt>
      <trkpt lat="50.02116" lon="4.06363">
        <ele>179.4</ele>
        <time>2024-04-28T08:41:15Z</time>
      </trkpt>
      <trkpt lat="50.02116" lon="4.06372">
        <ele>179.6</ele>
        <time>2024-04-28T08:41:16Z</time>
      </trkpt>
      <trkpt lat="50.02116" lon="4.06381">
        <ele>180.4</ele>
        <time>2024-04-28T08:41:17Z</time>
      </trkpt>
      <trkpt lat="50.02116" lon="4.0639">
        <ele>181</ele>
        <time>2024-04-28T08:41:18Z</time>
      </trkpt>
      <trkpt lat="50.02116" lon="4.06399">
        <ele>181.2</ele>
        <time>2024-04-28T08:41:19Z</time>
      </trkpt>
      <trkpt lat="50.02115" lon="4.06408">
        <ele>181.4</ele>
        <time>2024-04-28T08:41:20Z</time>
      </trkpt>
      <trkpt lat="50.02115" lon="4.06417">
        <ele>181.4</ele>
        <time>2024-04-28T08:41:21Z</time>
      </trkpt>
      <trkpt lat="50.02115" lon="4.06426">
        <ele>181.8</ele>
        <time>2024-04-28T08:41:22Z</time>
      </trkpt>
      <trkpt lat="50.02115" lon="4.06435">
        <ele>182</ele>
        <time>2024-04-28T08:41:23Z</time>
      </trkpt>
      <trkpt lat="50.02115" lon="4.06444">
        <ele>182</ele>
        <time>2024-04-28T08:41:24Z</time>
      </trkpt>
      <trkpt lat="50.02115" lon="4.06452">
        <ele>182.6</ele>
        <time>2024-04-28T08:41:25Z</time>
      </trkpt>
      <trkpt lat="50.02115" lon="4.06461">
        <ele>182.6</ele>
        <time>2024-04-28T08:41:26Z</time>
      </trkpt>
      <trkpt lat="50.02115" lon="4.06469">
        <ele>182.8</ele>
        <time>2024-04-28T08:41:27Z</time>
      </trkpt>
      <trkpt lat="50.02115" lon="4.06477">
        <ele>183.2</ele>
        <time>2024-04-28T08:41:28Z</time>
      </trkpt>
      <trkpt lat="50.02115" lon="4.06485">
        <ele>183.4</ele>
        <time>2024-04-28T08:41:29Z</time>
      </trkpt>
      <trkpt lat="50.02116" lon="4.06494">
        <ele>183.6</ele>
        <time>2024-04-28T08:41:30Z</time>
      </trkpt>
      <trkpt lat="50.02116" lon="4.06502">
        <ele>184</ele>
        <time>2024-04-28T08:41:31Z</time>
      </trkpt>
      <trkpt lat="50.02116" lon="4.0651">
        <ele>184.4</ele>
        <time>2024-04-28T08:41:32Z</time>
      </trkpt>
      <trkpt lat="50.02117" lon="4.06519">
        <ele>184.4</ele>
        <time>2024-04-28T08:41:33Z</time>
      </trkpt>
      <trkpt lat="50.02117" lon="4.06527">
        <ele>184.6</ele>
        <time>2024-04-28T08:41:34Z</time>
      </trkpt>
      <trkpt lat="50.02117" lon="4.06536">
        <ele>184.8</ele>
        <time>2024-04-28T08:41:35Z</time>
      </trkpt>
      <trkpt lat="50.02118" lon="4.06544">
        <ele>185</ele>
        <time>2024-04-28T08:41:36Z</time>
      </trkpt>
      <trkpt lat="50.02118" lon="4.06552">
        <ele>185.2</ele>
        <time>2024-04-28T08:41:37Z</time>
      </trkpt>
      <trkpt lat="50.02118" lon="4.0656">
        <ele>185.8</ele>
        <time>2024-04-28T08:41:38Z</time>
      </trkpt>
      <trkpt lat="50.02119" lon="4.06568">
        <ele>185.8</ele>
        <time>2024-04-28T08:41:39Z</time>
      </trkpt>
      <trkpt lat="50.02119" lon="4.06576">
        <ele>186</ele>
        <time>2024-04-28T08:41:40Z</time>
      </trkpt>
      <trkpt lat="50.02119" lon="4.06583">
        <ele>186</ele>
        <time>2024-04-28T08:41:41Z</time>
      </trkpt>
      <trkpt lat="50.02119" lon="4.06591">
        <ele>186.2</ele>
        <time>2024-04-28T08:41:42Z</time>
      </trkpt>
      <trkpt lat="50.02119" lon="4.06599">
        <ele>186.2</ele>
        <time>2024-04-28T08:41:43Z</time>
      </trkpt>
      <trkpt lat="50.02119" lon="4.06607">
        <ele>186.2</ele>
        <time>2024-04-28T08:41:44Z</time>
      </trkpt>
      <trkpt lat="50.0212" lon="4.06616">
        <ele>186.4</ele>
        <time>2024-04-28T08:41:45Z</time>
      </trkpt>
      <trkpt lat="50.0212" lon="4.06625">
        <ele>186.4</ele>
        <time>2024-04-28T08:41:46Z</time>
      </trkpt>
      <trkpt lat="50.0212" lon="4.06634">
        <ele>186.6</ele>
        <time>2024-04-28T08:41:47Z</time>
      </trkpt>
      <trkpt lat="50.02119" lon="4.06643">
        <ele>186.4</ele>
        <time>2024-04-28T08:41:48Z</time>
      </trkpt>
      <trkpt lat="50.02119" lon="4.06652">
        <ele>186.6</ele>
        <time>2024-04-28T08:41:49Z</time>
      </trkpt>
      <trkpt lat="50.02119" lon="4.06661">
        <ele>186.8</ele>
        <time>2024-04-28T08:41:50Z</time>
      </trkpt>
      <trkpt lat="50.02119" lon="4.0667">
        <ele>186.8</ele>
        <time>2024-04-28T08:41:51Z</time>
      </trkpt>
      <trkpt lat="50.02118" lon="4.06679">
        <ele>187</ele>
        <time>2024-04-28T08:41:52Z</time>
      </trkpt>
      <trkpt lat="50.02117" lon="4.06689">
        <ele>187.2</ele>
        <time>2024-04-28T08:41:53Z</time>
      </trkpt>
      <trkpt lat="50.02115" lon="4.06698">
        <ele>187.6</ele>
        <time>2024-04-28T08:41:54Z</time>
      </trkpt>
      <trkpt lat="50.02114" lon="4.06708">
        <ele>188</ele>
        <time>2024-04-28T08:41:55Z</time>
      </trkpt>
      <trkpt lat="50.02113" lon="4.06717">
        <ele>188.2</ele>
        <time>2024-04-28T08:41:56Z</time>
      </trkpt>
      <trkpt lat="50.02112" lon="4.06727">
        <ele>188.4</ele>
        <time>2024-04-28T08:41:57Z</time>
      </trkpt>
      <trkpt lat="50.02111" lon="4.06737">
        <ele>188.8</ele>
        <time>2024-04-28T08:41:58Z</time>
      </trkpt>
      <trkpt lat="50.0211" lon="4.06746">
        <ele>189</ele>
        <time>2024-04-28T08:41:59Z</time>
      </trkpt>
      <trkpt lat="50.02109" lon="4.06757">
        <ele>189</ele>
        <time>2024-04-28T08:42:00Z</time>
      </trkpt>
      <trkpt lat="50.02108" lon="4.06767">
        <ele>189.2</ele>
        <time>2024-04-28T08:42:01Z</time>
      </trkpt>
      <trkpt lat="50.02107" lon="4.06777">
        <ele>189.2</ele>
        <time>2024-04-28T08:42:02Z</time>
      </trkpt>
      <trkpt lat="50.02106" lon="4.06787">
        <ele>189.2</ele>
        <time>2024-04-28T08:42:03Z</time>
      </trkpt>
      <trkpt lat="50.02105" lon="4.06797">
        <ele>189.2</ele>
        <time>2024-04-28T08:42:04Z</time>
      </trkpt>
      <trkpt lat="50.02105" lon="4.06807">
        <ele>189.4</ele>
        <time>2024-04-28T08:42:05Z</time>
      </trkpt>
      <trkpt lat="50.02104" lon="4.06817">
        <ele>189.4</ele>
        <time>2024-04-28T08:42:06Z</time>
      </trkpt>
      <trkpt lat="50.02104" lon="4.06828">
        <ele>189.2</ele>
        <time>2024-04-28T08:42:07Z</time>
      </trkpt>
      <trkpt lat="50.02103" lon="4.06838">
        <ele>189.2</ele>
        <time>2024-04-28T08:42:08Z</time>
      </trkpt>
      <trkpt lat="50.02103" lon="4.06849">
        <ele>189.4</ele>
        <time>2024-04-28T08:42:09Z</time>
      </trkpt>
      <trkpt lat="50.02104" lon="4.0686">
        <ele>189.2</ele>
        <time>2024-04-28T08:42:10Z</time>
      </trkpt>
      <trkpt lat="50.02104" lon="4.06871">
        <ele>189.2</ele>
        <time>2024-04-28T08:42:11Z</time>
      </trkpt>
      <trkpt lat="50.02105" lon="4.06882">
        <ele>189.2</ele>
        <time>2024-04-28T08:42:12Z</time>
      </trkpt>
      <trkpt lat="50.02105" lon="4.06893">
        <ele>189.2</ele>
        <time>2024-04-28T08:42:13Z</time>
      </trkpt>
      <trkpt lat="50.02106" lon="4.06904">
        <ele>189.2</ele>
        <time>2024-04-28T08:42:14Z</time>
      </trkpt>
      <trkpt lat="50.02108" lon="4.06915">
        <ele>189.2</ele>
        <time>2024-04-28T08:42:15Z</time>
      </trkpt>
      <trkpt lat="50.02109" lon="4.06926">
        <ele>189.2</ele>
        <time>2024-04-28T08:42:16Z</time>
      </trkpt>
      <trkpt lat="50.0211" lon="4.06938">
        <ele>189</ele>
        <time>2024-04-28T08:42:17Z</time>
      </trkpt>
      <trkpt lat="50.02111" lon="4.06949">
        <ele>188.8</ele>
        <time>2024-04-28T08:42:18Z</time>
      </trkpt>
      <trkpt lat="50.02113" lon="4.06961">
        <ele>188.8</ele>
        <time>2024-04-28T08:42:19Z</time>
      </trkpt>
      <trkpt lat="50.02114" lon="4.06972">
        <ele>188.4</ele>
        <time>2024-04-28T08:42:20Z</time>
      </trkpt>
      <trkpt lat="50.02115" lon="4.06983">
        <ele>188.4</ele>
        <time>2024-04-28T08:42:21Z</time>
      </trkpt>
      <trkpt lat="50.02116" lon="4.06994">
        <ele>188.2</ele>
        <time>2024-04-28T08:42:22Z</time>
      </trkpt>
      <trkpt lat="50.02117" lon="4.07005">
        <ele>187.8</ele>
        <time>2024-04-28T08:42:23Z</time>
      </trkpt>
      <trkpt lat="50.02118" lon="4.07016">
        <ele>187.8</ele>
        <time>2024-04-28T08:42:24Z</time>
      </trkpt>
      <trkpt lat="50.02119" lon="4.07027">
        <ele>187.6</ele>
        <time>2024-04-28T08:42:25Z</time>
      </trkpt>
      <trkpt lat="50.0212" lon="4.07037">
        <ele>187.6</ele>
        <time>2024-04-28T08:42:26Z</time>
      </trkpt>
      <trkpt lat="50.02121" lon="4.07048">
        <ele>187.6</ele>
        <time>2024-04-28T08:42:27Z</time>
      </trkpt>
      <trkpt lat="50.02122" lon="4.07059">
        <ele>187.6</ele>
        <time>2024-04-28T08:42:28Z</time>
      </trkpt>
      <trkpt lat="50.02123" lon="4.0707">
        <ele>187.4</ele>
        <time>2024-04-28T08:42:29Z</time>
      </trkpt>
      <trkpt lat="50.02125" lon="4.07081">
        <ele>187.2</ele>
        <time>2024-04-28T08:42:30Z</time>
      </trkpt>
      <trkpt lat="50.02126" lon="4.07092">
        <ele>187.2</ele>
        <time>2024-04-28T08:42:31Z</time>
      </trkpt>
      <trkpt lat="50.02127" lon="4.07103">
        <ele>187.4</ele>
        <time>2024-04-28T08:42:32Z</time>
      </trkpt>
      <trkpt lat="50.02128" lon="4.07114">
        <ele>187.4</ele>
        <time>2024-04-28T08:42:33Z</time>
      </trkpt>
      <trkpt lat="50.02129" lon="4.07125">
        <ele>187.4</ele>
        <time>2024-04-28T08:42:34Z</time>
      </trkpt>
      <trkpt lat="50.0213" lon="4.07135">
        <ele>187.4</ele>
        <time>2024-04-28T08:42:35Z</time>
      </trkpt>
      <trkpt lat="50.02131" lon="4.07146">
        <ele>187.4</ele>
        <time>2024-04-28T08:42:36Z</time>
      </trkpt>
      <trkpt lat="50.02132" lon="4.07157">
        <ele>187.4</ele>
        <time>2024-04-28T08:42:37Z</time>
      </trkpt>
      <trkpt lat="50.02133" lon="4.07167">
        <ele>187.4</ele>
        <time>2024-04-28T08:42:38Z</time>
      </trkpt>
      <trkpt lat="50.02135" lon="4.07178">
        <ele>187.4</ele>
        <time>2024-04-28T08:42:39Z</time>
      </trkpt>
      <trkpt lat="50.02137" lon="4.07188">
        <ele>187.4</ele>
        <time>2024-04-28T08:42:40Z</time>
      </trkpt>
      <trkpt lat="50.02139" lon="4.07199">
        <ele>187.4</ele>
        <time>2024-04-28T08:42:41Z</time>
      </trkpt>
      <trkpt lat="50.02142" lon="4.07209">
        <ele>187.4</ele>
        <time>2024-04-28T08:42:42Z</time>
      </trkpt>
      <trkpt lat="50.02146" lon="4.07218">
        <ele>187.2</ele>
        <time>2024-04-28T08:42:43Z</time>
      </trkpt>
      <trkpt lat="50.02151" lon="4.07227">
        <ele>187.2</ele>
        <time>2024-04-28T08:42:44Z</time>
      </trkpt>
      <trkpt lat="50.02156" lon="4.07236">
        <ele>187.2</ele>
        <time>2024-04-28T08:42:45Z</time>
      </trkpt>
      <trkpt lat="50.02162" lon="4.07244">
        <ele>187.2</ele>
        <time>2024-04-28T08:42:46Z</time>
      </trkpt>
      <trkpt lat="50.02168" lon="4.07251">
        <ele>187</ele>
        <time>2024-04-28T08:42:47Z</time>
      </trkpt>
      <trkpt lat="50.02175" lon="4.07258">
        <ele>187</ele>
        <time>2024-04-28T08:42:48Z</time>
      </trkpt>
      <trkpt lat="50.02181" lon="4.07265">
        <ele>187</ele>
        <time>2024-04-28T08:42:49Z</time>
      </trkpt>
      <trkpt lat="50.02188" lon="4.07273">
        <ele>187.2</ele>
        <time>2024-04-28T08:42:50Z</time>
      </trkpt>
      <trkpt lat="50.02194" lon="4.07281">
        <ele>187.2</ele>
        <time>2024-04-28T08:42:51Z</time>
      </trkpt>
      <trkpt lat="50.02201" lon="4.07291">
        <ele>187</ele>
        <time>2024-04-28T08:42:52Z</time>
      </trkpt>
      <trkpt lat="50.02206" lon="4.07301">
        <ele>187</ele>
        <time>2024-04-28T08:42:53Z</time>
      </trkpt>
      <trkpt lat="50.02212" lon="4.07313">
        <ele>186.8</ele>
        <time>2024-04-28T08:42:54Z</time>
      </trkpt>
      <trkpt lat="50.02216" lon="4.07326">
        <ele>186.8</ele>
        <time>2024-04-28T08:42:55Z</time>
      </trkpt>
      <trkpt lat="50.02221" lon="4.07338">
        <ele>186.6</ele>
        <time>2024-04-28T08:42:56Z</time>
      </trkpt>
      <trkpt lat="50.02224" lon="4.0735">
        <ele>186.8</ele>
        <time>2024-04-28T08:42:57Z</time>
      </trkpt>
      <trkpt lat="50.02228" lon="4.07362">
        <ele>186.4</ele>
        <time>2024-04-28T08:42:58Z</time>
      </trkpt>
      <trkpt lat="50.02232" lon="4.07375">
        <ele>186</ele>
        <time>2024-04-28T08:42:59Z</time>
      </trkpt>
      <trkpt lat="50.02235" lon="4.07386">
        <ele>186</ele>
        <time>2024-04-28T08:43:00Z</time>
      </trkpt>
      <trkpt lat="50.02238" lon="4.07398">
        <ele>185.6</ele>
        <time>2024-04-28T08:43:01Z</time>
      </trkpt>
      <trkpt lat="50.0224" lon="4.0741">
        <ele>185.6</ele>
        <time>2024-04-28T08:43:02Z</time>
      </trkpt>
      <trkpt lat="50.02241" lon="4.07422">
        <ele>185.6</ele>
        <time>2024-04-28T08:43:03Z</time>
      </trkpt>
      <trkpt lat="50.02243" lon="4.07434">
        <ele>185.6</ele>
        <time>2024-04-28T08:43:04Z</time>
      </trkpt>
      <trkpt lat="50.02243" lon="4.07446">
        <ele>185.6</ele>
        <time>2024-04-28T08:43:05Z</time>
      </trkpt>
      <trkpt lat="50.02244" lon="4.07458">
        <ele>185.6</ele>
        <time>2024-04-28T08:43:06Z</time>
      </trkpt>
      <trkpt lat="50.02244" lon="4.0747">
        <ele>185.4</ele>
        <time>2024-04-28T08:43:07Z</time>
      </trkpt>
      <trkpt lat="50.02243" lon="4.07481">
        <ele>185.6</ele>
        <time>2024-04-28T08:43:08Z</time>
      </trkpt>
      <trkpt lat="50.02242" lon="4.07492">
        <ele>185.6</ele>
        <time>2024-04-28T08:43:09Z</time>
      </trkpt>
      <trkpt lat="50.02241" lon="4.07504">
        <ele>185.4</ele>
        <time>2024-04-28T08:43:10Z</time>
      </trkpt>
      <trkpt lat="50.02239" lon="4.07514">
        <ele>185.4</ele>
        <time>2024-04-28T08:43:11Z</time>
      </trkpt>
      <trkpt lat="50.02237" lon="4.07525">
        <ele>185.4</ele>
        <time>2024-04-28T08:43:12Z</time>
      </trkpt>
      <trkpt lat="50.02234" lon="4.07535">
        <ele>185.6</ele>
        <time>2024-04-28T08:43:13Z</time>
      </trkpt>
      <trkpt lat="50.02231" lon="4.07545">
        <ele>185.8</ele>
        <time>2024-04-28T08:43:14Z</time>
      </trkpt>
      <trkpt lat="50.02228" lon="4.07555">
        <ele>185.8</ele>
        <time>2024-04-28T08:43:15Z</time>
      </trkpt>
      <trkpt lat="50.02224" lon="4.07564">
        <ele>185.8</ele>
        <time>2024-04-28T08:43:16Z</time>
      </trkpt>
      <trkpt lat="50.0222" lon="4.07573">
        <ele>185.8</ele>
        <time>2024-04-28T08:43:17Z</time>
      </trkpt>
      <trkpt lat="50.02216" lon="4.07581">
        <ele>185.8</ele>
        <time>2024-04-28T08:43:18Z</time>
      </trkpt>
      <trkpt lat="50.02212" lon="4.0759">
        <ele>186</ele>
        <time>2024-04-28T08:43:19Z</time>
      </trkpt>
      <trkpt lat="50.02208" lon="4.07599">
        <ele>186</ele>
        <time>2024-04-28T08:43:20Z</time>
      </trkpt>
      <trkpt lat="50.02203" lon="4.07607">
        <ele>186</ele>
        <time>2024-04-28T08:43:21Z</time>
      </trkpt>
      <trkpt lat="50.02199" lon="4.07615">
        <ele>186</ele>
        <time>2024-04-28T08:43:22Z</time>
      </trkpt>
      <trkpt lat="50.02195" lon="4.07623">
        <ele>186</ele>
        <time>2024-04-28T08:43:23Z</time>
      </trkpt>
      <trkpt lat="50.02191" lon="4.07631">
        <ele>186.4</ele>
        <time>2024-04-28T08:43:24Z</time>
      </trkpt>
      <trkpt lat="50.02187" lon="4.07639">
        <ele>186.2</ele>
        <time>2024-04-28T08:43:25Z</time>
      </trkpt>
      <trkpt lat="50.02183" lon="4.07647">
        <ele>186.4</ele>
        <time>2024-04-28T08:43:26Z</time>
      </trkpt>
      <trkpt lat="50.0218" lon="4.07655">
        <ele>186.4</ele>
        <time>2024-04-28T08:43:27Z</time>
      </trkpt>
      <trkpt lat="50.02177" lon="4.07663">
        <ele>186.4</ele>
        <time>2024-04-28T08:43:28Z</time>
      </trkpt>
      <trkpt lat="50.02173" lon="4.0767">
        <ele>186.4</ele>
        <time>2024-04-28T08:43:29Z</time>
      </trkpt>
      <trkpt lat="50.02171" lon="4.07678">
        <ele>186.4</ele>
        <time>2024-04-28T08:43:30Z</time>
      </trkpt>
      <trkpt lat="50.02168" lon="4.07686">
        <ele>186.6</ele>
        <time>2024-04-28T08:43:31Z</time>
      </trkpt>
      <trkpt lat="50.02166" lon="4.07694">
        <ele>186.6</ele>
        <time>2024-04-28T08:43:32Z</time>
      </trkpt>
      <trkpt lat="50.02163" lon="4.07702">
        <ele>186.6</ele>
        <time>2024-04-28T08:43:33Z</time>
      </trkpt>
      <trkpt lat="50.02161" lon="4.07709">
        <ele>186.8</ele>
        <time>2024-04-28T08:43:34Z</time>
      </trkpt>
      <trkpt lat="50.02159" lon="4.07717">
        <ele>186.8</ele>
        <time>2024-04-28T08:43:35Z</time>
      </trkpt>
      <trkpt lat="50.02157" lon="4.07724">
        <ele>186.8</ele>
        <time>2024-04-28T08:43:36Z</time>
      </trkpt>
      <trkpt lat="50.02155" lon="4.07732">
        <ele>186.8</ele>
        <time>2024-04-28T08:43:37Z</time>
      </trkpt>
      <trkpt lat="50.02153" lon="4.0774">
        <ele>186.8</ele>
        <time>2024-04-28T08:43:38Z</time>
      </trkpt>
      <trkpt lat="50.0215" lon="4.07747">
        <ele>187</ele>
        <time>2024-04-28T08:43:39Z</time>
      </trkpt>
      <trkpt lat="50.02148" lon="4.07755">
        <ele>187.2</ele>
        <time>2024-04-28T08:43:40Z</time>
      </trkpt>
      <trkpt lat="50.02145" lon="4.07762">
        <ele>187.2</ele>
        <time>2024-04-28T08:43:41Z</time>
      </trkpt>
      <trkpt lat="50.02143" lon="4.07769">
        <ele>187.6</ele>
        <time>2024-04-28T08:43:42Z</time>
      </trkpt>
      <trkpt lat="50.0214" lon="4.07776">
        <ele>188.2</ele>
        <time>2024-04-28T08:43:43Z</time>
      </trkpt>
      <trkpt lat="50.02137" lon="4.07783">
        <ele>188.4</ele>
        <time>2024-04-28T08:43:44Z</time>
      </trkpt>
      <trkpt lat="50.02135" lon="4.07789">
        <ele>189</ele>
        <time>2024-04-28T08:43:45Z</time>
      </trkpt>
      <trkpt lat="50.02132" lon="4.07796">
        <ele>189.6</ele>
        <time>2024-04-28T08:43:46Z</time>
      </trkpt>
      <trkpt lat="50.02129" lon="4.07802">
        <ele>190</ele>
        <time>2024-04-28T08:43:47Z</time>
      </trkpt>
      <trkpt lat="50.02126" lon="4.07808">
        <ele>190.2</ele>
        <time>2024-04-28T08:43:48Z</time>
      </trkpt>
      <trkpt lat="50.02123" lon="4.07814">
        <ele>190.6</ele>
        <time>2024-04-28T08:43:49Z</time>
      </trkpt>
      <trkpt lat="50.0212" lon="4.0782">
        <ele>191</ele>
        <time>2024-04-28T08:43:50Z</time>
      </trkpt>
      <trkpt lat="50.02117" lon="4.07826">
        <ele>191.2</ele>
        <time>2024-04-28T08:43:51Z</time>
      </trkpt>
      <trkpt lat="50.02113" lon="4.07832">
        <ele>191.6</ele>
        <time>2024-04-28T08:43:52Z</time>
      </trkpt>
      <trkpt lat="50.02111" lon="4.07838">
        <ele>191.6</ele>
        <time>2024-04-28T08:43:53Z</time>
      </trkpt>
      <trkpt lat="50.02108" lon="4.07845">
        <ele>192</ele>
        <time>2024-04-28T08:43:54Z</time>
      </trkpt>
      <trkpt lat="50.02105" lon="4.07851">
        <ele>192</ele>
        <time>2024-04-28T08:43:55Z</time>
      </trkpt>
      <trkpt lat="50.02103" lon="4.07857">
        <ele>192.2</ele>
        <time>2024-04-28T08:43:56Z</time>
      </trkpt>
      <trkpt lat="50.02101" lon="4.07864">
        <ele>192.8</ele>
        <time>2024-04-28T08:43:57Z</time>
      </trkpt>
      <trkpt lat="50.02099" lon="4.07871">
        <ele>193.4</ele>
        <time>2024-04-28T08:43:58Z</time>
      </trkpt>
      <trkpt lat="50.02097" lon="4.07878">
        <ele>194</ele>
        <time>2024-04-28T08:43:59Z</time>
      </trkpt>
      <trkpt lat="50.02095" lon="4.07885">
        <ele>194.2</ele>
        <time>2024-04-28T08:44:00Z</time>
      </trkpt>
      <trkpt lat="50.02093" lon="4.07893">
        <ele>194.4</ele>
        <time>2024-04-28T08:44:01Z</time>
      </trkpt>
      <trkpt lat="50.02091" lon="4.079">
        <ele>194.8</ele>
        <time>2024-04-28T08:44:02Z</time>
      </trkpt>
      <trkpt lat="50.0209" lon="4.07907">
        <ele>195</ele>
        <time>2024-04-28T08:44:03Z</time>
      </trkpt>
      <trkpt lat="50.02089" lon="4.07914">
        <ele>195.4</ele>
        <time>2024-04-28T08:44:04Z</time>
      </trkpt>
      <trkpt lat="50.02088" lon="4.07921">
        <ele>195.6</ele>
        <time>2024-04-28T08:44:05Z</time>
      </trkpt>
      <trkpt lat="50.02087" lon="4.07928">
        <ele>196.2</ele>
        <time>2024-04-28T08:44:06Z</time>
      </trkpt>
      <trkpt lat="50.02086" lon="4.07936">
        <ele>196.2</ele>
        <time>2024-04-28T08:44:07Z</time>
      </trkpt>
      <trkpt lat="50.02086" lon="4.07943">
        <ele>196.6</ele>
        <time>2024-04-28T08:44:08Z</time>
      </trkpt>
      <trkpt lat="50.02086" lon="4.07952">
        <ele>196.6</ele>
        <time>2024-04-28T08:44:09Z</time>
      </trkpt>
      <trkpt lat="50.02086" lon="4.0796">
        <ele>196.6</ele>
        <time>2024-04-28T08:44:10Z</time>
      </trkpt>
      <trkpt lat="50.02086" lon="4.07968">
        <ele>197.4</ele>
        <time>2024-04-28T08:44:11Z</time>
      </trkpt>
      <trkpt lat="50.02086" lon="4.07976">
        <ele>197.4</ele>
        <time>2024-04-28T08:44:12Z</time>
      </trkpt>
      <trkpt lat="50.02086" lon="4.07984">
        <ele>197.8</ele>
        <time>2024-04-28T08:44:13Z</time>
      </trkpt>
      <trkpt lat="50.02086" lon="4.07992">
        <ele>198</ele>
        <time>2024-04-28T08:44:14Z</time>
      </trkpt>
      <trkpt lat="50.02086" lon="4.08">
        <ele>198.2</ele>
        <time>2024-04-28T08:44:15Z</time>
      </trkpt>
      <trkpt lat="50.02087" lon="4.08008">
        <ele>198.4</ele>
        <time>2024-04-28T08:44:16Z</time>
      </trkpt>
      <trkpt lat="50.02087" lon="4.08015">
        <ele>198.4</ele>
        <time>2024-04-28T08:44:17Z</time>
      </trkpt>
      <trkpt lat="50.02087" lon="4.08023">
        <ele>198.4</ele>
        <time>2024-04-28T08:44:18Z</time>
      </trkpt>
      <trkpt lat="50.02088" lon="4.08031">
        <ele>198.6</ele>
        <time>2024-04-28T08:44:19Z</time>
      </trkpt>
      <trkpt lat="50.02088" lon="4.08039">
        <ele>198.8</ele>
        <time>2024-04-28T08:44:20Z</time>
      </trkpt>
      <trkpt lat="50.02089" lon="4.08047">
        <ele>198.8</ele>
        <time>2024-04-28T08:44:21Z</time>
      </trkpt>
      <trkpt lat="50.02089" lon="4.08055">
        <ele>198.8</ele>
        <time>2024-04-28T08:44:22Z</time>
      </trkpt>
      <trkpt lat="50.0209" lon="4.08063">
        <ele>198.8</ele>
        <time>2024-04-28T08:44:23Z</time>
      </trkpt>
      <trkpt lat="50.02091" lon="4.08072">
        <ele>199</ele>
        <time>2024-04-28T08:44:24Z</time>
      </trkpt>
      <trkpt lat="50.02091" lon="4.0808">
        <ele>199.2</ele>
        <time>2024-04-28T08:44:25Z</time>
      </trkpt>
      <trkpt lat="50.02092" lon="4.08088">
        <ele>199.4</ele>
        <time>2024-04-28T08:44:26Z</time>
      </trkpt>
      <trkpt lat="50.02092" lon="4.08096">
        <ele>199.8</ele>
        <time>2024-04-28T08:44:27Z</time>
      </trkpt>
      <trkpt lat="50.02093" lon="4.08104">
        <ele>199.8</ele>
        <time>2024-04-28T08:44:28Z</time>
      </trkpt>
      <trkpt lat="50.02093" lon="4.08113">
        <ele>200</ele>
        <time>2024-04-28T08:44:29Z</time>
      </trkpt>
      <trkpt lat="50.02094" lon="4.08121">
        <ele>200.4</ele>
        <time>2024-04-28T08:44:30Z</time>
      </trkpt>
      <trkpt lat="50.02095" lon="4.08129">
        <ele>200.8</ele>
        <time>2024-04-28T08:44:31Z</time>
      </trkpt>
      <trkpt lat="50.02095" lon="4.08138">
        <ele>201.4</ele>
        <time>2024-04-28T08:44:32Z</time>
      </trkpt>
      <trkpt lat="50.02096" lon="4.08147">
        <ele>201.8</ele>
        <time>2024-04-28T08:44:33Z</time>
      </trkpt>
      <trkpt lat="50.02096" lon="4.08156">
        <ele>202.2</ele>
        <time>2024-04-28T08:44:34Z</time>
      </trkpt>
      <trkpt lat="50.02097" lon="4.08165">
        <ele>202.4</ele>
        <time>2024-04-28T08:44:35Z</time>
      </trkpt>
      <trkpt lat="50.02097" lon="4.08174">
        <ele>202.4</ele>
        <time>2024-04-28T08:44:36Z</time>
      </trkpt>
      <trkpt lat="50.02098" lon="4.08183">
        <ele>202.4</ele>
        <time>2024-04-28T08:44:37Z</time>
      </trkpt>
      <trkpt lat="50.02099" lon="4.08193">
        <ele>202.4</ele>
        <time>2024-04-28T08:44:38Z</time>
      </trkpt>
      <trkpt lat="50.02099" lon="4.08203">
        <ele>202.4</ele>
        <time>2024-04-28T08:44:39Z</time>
      </trkpt>
      <trkpt lat="50.021" lon="4.08213">
        <ele>202.6</ele>
        <time>2024-04-28T08:44:40Z</time>
      </trkpt>
      <trkpt lat="50.021" lon="4.08223">
        <ele>202.4</ele>
        <time>2024-04-28T08:44:41Z</time>
      </trkpt>
      <trkpt lat="50.02101" lon="4.08233">
        <ele>202.4</ele>
        <time>2024-04-28T08:44:42Z</time>
      </trkpt>
      <trkpt lat="50.02101" lon="4.08244">
        <ele>202.6</ele>
        <time>2024-04-28T08:44:43Z</time>
      </trkpt>
      <trkpt lat="50.02102" lon="4.08255">
        <ele>202.2</ele>
        <time>2024-04-28T08:44:44Z</time>
      </trkpt>
      <trkpt lat="50.02103" lon="4.08266">
        <ele>202.2</ele>
        <time>2024-04-28T08:44:45Z</time>
      </trkpt>
      <trkpt lat="50.02103" lon="4.08278">
        <ele>202</ele>
        <time>2024-04-28T08:44:46Z</time>
      </trkpt>
      <trkpt lat="50.02104" lon="4.0829">
        <ele>201.8</ele>
        <time>2024-04-28T08:44:47Z</time>
      </trkpt>
      <trkpt lat="50.02105" lon="4.08303">
        <ele>201.6</ele>
        <time>2024-04-28T08:44:48Z</time>
      </trkpt>
      <trkpt lat="50.02105" lon="4.08316">
        <ele>201.4</ele>
        <time>2024-04-28T08:44:49Z</time>
      </trkpt>
      <trkpt lat="50.02106" lon="4.08329">
        <ele>201.2</ele>
        <time>2024-04-28T08:44:50Z</time>
      </trkpt>
      <trkpt lat="50.02107" lon="4.08343">
        <ele>201</ele>
        <time>2024-04-28T08:44:51Z</time>
      </trkpt>
      <trkpt lat="50.02108" lon="4.08357">
        <ele>200.4</ele>
        <time>2024-04-28T08:44:52Z</time>
      </trkpt>
      <trkpt lat="50.02109" lon="4.08371">
        <ele>200</ele>
        <time>2024-04-28T08:44:53Z</time>
      </trkpt>
      <trkpt lat="50.02111" lon="4.08385">
        <ele>199.8</ele>
        <time>2024-04-28T08:44:54Z</time>
      </trkpt>
      <trkpt lat="50.02112" lon="4.08399">
        <ele>199.4</ele>
        <time>2024-04-28T08:44:55Z</time>
      </trkpt>
      <trkpt lat="50.02114" lon="4.08413">
        <ele>199.2</ele>
        <time>2024-04-28T08:44:56Z</time>
      </trkpt>
      <trkpt lat="50.02116" lon="4.08427">
        <ele>198.2</ele>
        <time>2024-04-28T08:44:57Z</time>
      </trkpt>
      <trkpt lat="50.02117" lon="4.08441">
        <ele>197.4</ele>
        <time>2024-04-28T08:44:58Z</time>
      </trkpt>
      <trkpt lat="50.0212" lon="4.08455">
        <ele>196</ele>
        <time>2024-04-28T08:44:59Z</time>
      </trkpt>
      <trkpt lat="50.02122" lon="4.08468">
        <ele>195.2</ele>
        <time>2024-04-28T08:45:00Z</time>
      </trkpt>
      <trkpt lat="50.02124" lon="4.08482">
        <ele>194.6</ele>
        <time>2024-04-28T08:45:01Z</time>
      </trkpt>
      <trkpt lat="50.02127" lon="4.08495">
        <ele>194.4</ele>
        <time>2024-04-28T08:45:02Z</time>
      </trkpt>
      <trkpt lat="50.02129" lon="4.08509">
        <ele>194.4</ele>
        <time>2024-04-28T08:45:03Z</time>
      </trkpt>
      <trkpt lat="50.02132" lon="4.08522">
        <ele>194.4</ele>
        <time>2024-04-28T08:45:04Z</time>
      </trkpt>
      <trkpt lat="50.02134" lon="4.08536">
        <ele>194.2</ele>
        <time>2024-04-28T08:45:05Z</time>
      </trkpt>
      <trkpt lat="50.02137" lon="4.08549">
        <ele>194</ele>
        <time>2024-04-28T08:45:06Z</time>
      </trkpt>
      <trkpt lat="50.0214" lon="4.08562">
        <ele>194</ele>
        <time>2024-04-28T08:45:07Z</time>
      </trkpt>
      <trkpt lat="50.02142" lon="4.08576">
        <ele>194</ele>
        <time>2024-04-28T08:45:08Z</time>
      </trkpt>
      <trkpt lat="50.02145" lon="4.0859">
        <ele>193.8</ele>
        <time>2024-04-28T08:45:09Z</time>
      </trkpt>
      <trkpt lat="50.02148" lon="4.08604">
        <ele>193.8</ele>
        <time>2024-04-28T08:45:10Z</time>
      </trkpt>
      <trkpt lat="50.02151" lon="4.08618">
        <ele>193.6</ele>
        <time>2024-04-28T08:45:11Z</time>
      </trkpt>
      <trkpt lat="50.02153" lon="4.08632">
        <ele>193.6</ele>
        <time>2024-04-28T08:45:12Z</time>
      </trkpt>
      <trkpt lat="50.02156" lon="4.08646">
        <ele>193.4</ele>
        <time>2024-04-28T08:45:13Z</time>
      </trkpt>
      <trkpt lat="50.02159" lon="4.0866">
        <ele>193.4</ele>
        <time>2024-04-28T08:45:14Z</time>
      </trkpt>
      <trkpt lat="50.02161" lon="4.08674">
        <ele>193.2</ele>
        <time>2024-04-28T08:45:15Z</time>
      </trkpt>
      <trkpt lat="50.02164" lon="4.08688">
        <ele>192.8</ele>
        <time>2024-04-28T08:45:16Z</time>
      </trkpt>
      <trkpt lat="50.02167" lon="4.08702">
        <ele>192.8</ele>
        <time>2024-04-28T08:45:17Z</time>
      </trkpt>
      <trkpt lat="50.02169" lon="4.08715">
        <ele>192.4</ele>
        <time>2024-04-28T08:45:18Z</time>
      </trkpt>
      <trkpt lat="50.02172" lon="4.08729">
        <ele>192.2</ele>
        <time>2024-04-28T08:45:19Z</time>
      </trkpt>
      <trkpt lat="50.02175" lon="4.08742">
        <ele>192</ele>
        <time>2024-04-28T08:45:20Z</time>
      </trkpt>
      <trkpt lat="50.02178" lon="4.08755">
        <ele>192</ele>
        <time>2024-04-28T08:45:21Z</time>
      </trkpt>
      <trkpt lat="50.02181" lon="4.08768">
        <ele>192</ele>
        <time>2024-04-28T08:45:22Z</time>
      </trkpt>
      <trkpt lat="50.02184" lon="4.0878">
        <ele>192</ele>
        <time>2024-04-28T08:45:23Z</time>
      </trkpt>
      <trkpt lat="50.02187" lon="4.08792">
        <ele>192</ele>
        <time>2024-04-28T08:45:24Z</time>
      </trkpt>
      <trkpt lat="50.0219" lon="4.08804">
        <ele>192</ele>
        <time>2024-04-28T08:45:25Z</time>
      </trkpt>
      <trkpt lat="50.02193" lon="4.08816">
        <ele>192</ele>
        <time>2024-04-28T08:45:26Z</time>
      </trkpt>
      <trkpt lat="50.02196" lon="4.08827">
        <ele>192</ele>
        <time>2024-04-28T08:45:27Z</time>
      </trkpt>
      <trkpt lat="50.02198" lon="4.08838">
        <ele>192</ele>
        <time>2024-04-28T08:45:28Z</time>
      </trkpt>
      <trkpt lat="50.02201" lon="4.08849">
        <ele>191.8</ele>
        <time>2024-04-28T08:45:29Z</time>
      </trkpt>
      <trkpt lat="50.02203" lon="4.0886">
        <ele>192.2</ele>
        <time>2024-04-28T08:45:30Z</time>
      </trkpt>
      <trkpt lat="50.02205" lon="4.08872">
        <ele>192.6</ele>
        <time>2024-04-28T08:45:31Z</time>
      </trkpt>
      <trkpt lat="50.02207" lon="4.08883">
        <ele>192.8</ele>
        <time>2024-04-28T08:45:32Z</time>
      </trkpt>
      <trkpt lat="50.02209" lon="4.08895">
        <ele>193.2</ele>
        <time>2024-04-28T08:45:33Z</time>
      </trkpt>
      <trkpt lat="50.02211" lon="4.08907">
        <ele>193.6</ele>
        <time>2024-04-28T08:45:34Z</time>
      </trkpt>
      <trkpt lat="50.02213" lon="4.08919">
        <ele>194.2</ele>
        <time>2024-04-28T08:45:35Z</time>
      </trkpt>
      <trkpt lat="50.02214" lon="4.08931">
        <ele>194.4</ele>
        <time>2024-04-28T08:45:36Z</time>
      </trkpt>
      <trkpt lat="50.02215" lon="4.08943">
        <ele>194.6</ele>
        <time>2024-04-28T08:45:37Z</time>
      </trkpt>
      <trkpt lat="50.02217" lon="4.08955">
        <ele>194.6</ele>
        <time>2024-04-28T08:45:38Z</time>
      </trkpt>
      <trkpt lat="50.02218" lon="4.08966">
        <ele>194.6</ele>
        <time>2024-04-28T08:45:39Z</time>
      </trkpt>
      <trkpt lat="50.02219" lon="4.08978">
        <ele>195</ele>
        <time>2024-04-28T08:45:40Z</time>
      </trkpt>
      <trkpt lat="50.02221" lon="4.08989">
        <ele>195</ele>
        <time>2024-04-28T08:45:41Z</time>
      </trkpt>
      <trkpt lat="50.02222" lon="4.09">
        <ele>195.2</ele>
        <time>2024-04-28T08:45:42Z</time>
      </trkpt>
      <trkpt lat="50.02224" lon="4.0901">
        <ele>195.6</ele>
        <time>2024-04-28T08:45:43Z</time>
      </trkpt>
      <trkpt lat="50.02226" lon="4.0902">
        <ele>195.8</ele>
        <time>2024-04-28T08:45:44Z</time>
      </trkpt>
      <trkpt lat="50.02228" lon="4.09031">
        <ele>195.8</ele>
        <time>2024-04-28T08:45:45Z</time>
      </trkpt>
      <trkpt lat="50.02229" lon="4.09041">
        <ele>196</ele>
        <time>2024-04-28T08:45:46Z</time>
      </trkpt>
      <trkpt lat="50.02231" lon="4.09052">
        <ele>196</ele>
        <time>2024-04-28T08:45:47Z</time>
      </trkpt>
      <trkpt lat="50.02233" lon="4.09062">
        <ele>196.2</ele>
        <time>2024-04-28T08:45:48Z</time>
      </trkpt>
      <trkpt lat="50.02234" lon="4.09073">
        <ele>196.8</ele>
        <time>2024-04-28T08:45:49Z</time>
      </trkpt>
      <trkpt lat="50.02236" lon="4.09083">
        <ele>197.2</ele>
        <time>2024-04-28T08:45:50Z</time>
      </trkpt>
      <trkpt lat="50.02238" lon="4.09093">
        <ele>197.6</ele>
        <time>2024-04-28T08:45:51Z</time>
      </trkpt>
      <trkpt lat="50.0224" lon="4.09104">
        <ele>197.8</ele>
        <time>2024-04-28T08:45:52Z</time>
      </trkpt>
      <trkpt lat="50.02242" lon="4.09114">
        <ele>198.4</ele>
        <time>2024-04-28T08:45:53Z</time>
      </trkpt>
      <trkpt lat="50.02244" lon="4.09124">
        <ele>198.8</ele>
        <time>2024-04-28T08:45:54Z</time>
      </trkpt>
      <trkpt lat="50.02246" lon="4.09134">
        <ele>199.2</ele>
        <time>2024-04-28T08:45:55Z</time>
      </trkpt>
      <trkpt lat="50.02247" lon="4.09144">
        <ele>199.2</ele>
        <time>2024-04-28T08:45:56Z</time>
      </trkpt>
      <trkpt lat="50.02249" lon="4.09154">
        <ele>199.2</ele>
        <time>2024-04-28T08:45:57Z</time>
      </trkpt>
      <trkpt lat="50.02251" lon="4.09164">
        <ele>199.4</ele>
        <time>2024-04-28T08:45:58Z</time>
      </trkpt>
      <trkpt lat="50.02252" lon="4.09174">
        <ele>199.6</ele>
        <time>2024-04-28T08:45:59Z</time>
      </trkpt>
      <trkpt lat="50.02254" lon="4.09184">
        <ele>199.8</ele>
        <time>2024-04-28T08:46:00Z</time>
      </trkpt>
      <trkpt lat="50.02255" lon="4.09194">
        <ele>200</ele>
        <time>2024-04-28T08:46:01Z</time>
      </trkpt>
      <trkpt lat="50.02256" lon="4.09204">
        <ele>200.2</ele>
        <time>2024-04-28T08:46:02Z</time>
      </trkpt>
      <trkpt lat="50.02258" lon="4.09215">
        <ele>200.6</ele>
        <time>2024-04-28T08:46:03Z</time>
      </trkpt>
      <trkpt lat="50.02259" lon="4.09225">
        <ele>200.6</ele>
        <time>2024-04-28T08:46:04Z</time>
      </trkpt>
      <trkpt lat="50.0226" lon="4.09235">
        <ele>200.8</ele>
        <time>2024-04-28T08:46:05Z</time>
      </trkpt>
      <trkpt lat="50.02261" lon="4.09245">
        <ele>201</ele>
        <time>2024-04-28T08:46:06Z</time>
      </trkpt>
      <trkpt lat="50.02263" lon="4.09255">
        <ele>201</ele>
        <time>2024-04-28T08:46:07Z</time>
      </trkpt>
      <trkpt lat="50.02264" lon="4.09265">
        <ele>201.4</ele>
        <time>2024-04-28T08:46:08Z</time>
      </trkpt>
      <trkpt lat="50.02265" lon="4.09275">
        <ele>201.4</ele>
        <time>2024-04-28T08:46:09Z</time>
      </trkpt>
      <trkpt lat="50.02267" lon="4.09285">
        <ele>201.6</ele>
        <time>2024-04-28T08:46:10Z</time>
      </trkpt>
      <trkpt lat="50.02269" lon="4.09295">
        <ele>201.8</ele>
        <time>2024-04-28T08:46:11Z</time>
      </trkpt>
      <trkpt lat="50.02271" lon="4.09304">
        <ele>202</ele>
        <time>2024-04-28T08:46:12Z</time>
      </trkpt>
      <trkpt lat="50.02273" lon="4.09314">
        <ele>202</ele>
        <time>2024-04-28T08:46:13Z</time>
      </trkpt>
      <trkpt lat="50.02276" lon="4.09324">
        <ele>202</ele>
        <time>2024-04-28T08:46:14Z</time>
      </trkpt>
      <trkpt lat="50.02278" lon="4.09333">
        <ele>202.4</ele>
        <time>2024-04-28T08:46:15Z</time>
      </trkpt>
      <trkpt lat="50.02281" lon="4.09342">
        <ele>202.4</ele>
        <time>2024-04-28T08:46:16Z</time>
      </trkpt>
      <trkpt lat="50.02284" lon="4.09351">
        <ele>202.4</ele>
        <time>2024-04-28T08:46:17Z</time>
      </trkpt>
      <trkpt lat="50.02288" lon="4.0936">
        <ele>202.6</ele>
        <time>2024-04-28T08:46:18Z</time>
      </trkpt>
      <trkpt lat="50.02292" lon="4.09368">
        <ele>202.4</ele>
        <time>2024-04-28T08:46:19Z</time>
      </trkpt>
      <trkpt lat="50.02296" lon="4.09377">
        <ele>202.8</ele>
        <time>2024-04-28T08:46:20Z</time>
      </trkpt>
      <trkpt lat="50.023" lon="4.09385">
        <ele>202.8</ele>
        <time>2024-04-28T08:46:21Z</time>
      </trkpt>
      <trkpt lat="50.02304" lon="4.09393">
        <ele>202.8</ele>
        <time>2024-04-28T08:46:22Z</time>
      </trkpt>
      <trkpt lat="50.02309" lon="4.09401">
        <ele>203.4</ele>
        <time>2024-04-28T08:46:23Z</time>
      </trkpt>
      <trkpt lat="50.02313" lon="4.09409">
        <ele>203.6</ele>
        <time>2024-04-28T08:46:24Z</time>
      </trkpt>
      <trkpt lat="50.02318" lon="4.09418">
        <ele>203.8</ele>
        <time>2024-04-28T08:46:25Z</time>
      </trkpt>
      <trkpt lat="50.02322" lon="4.09427">
        <ele>204</ele>
        <time>2024-04-28T08:46:26Z</time>
      </trkpt>
      <trkpt lat="50.02327" lon="4.09436">
        <ele>204</ele>
        <time>2024-04-28T08:46:27Z</time>
      </trkpt>
      <trkpt lat="50.02332" lon="4.09445">
        <ele>204</ele>
        <time>2024-04-28T08:46:28Z</time>
      </trkpt>
      <trkpt lat="50.02336" lon="4.09454">
        <ele>204</ele>
        <time>2024-04-28T08:46:29Z</time>
      </trkpt>
      <trkpt lat="50.02341" lon="4.09463">
        <ele>204</ele>
        <time>2024-04-28T08:46:30Z</time>
      </trkpt>
      <trkpt lat="50.02346" lon="4.09472">
        <ele>204</ele>
        <time>2024-04-28T08:46:31Z</time>
      </trkpt>
      <trkpt lat="50.02351" lon="4.09481">
        <ele>204.2</ele>
        <time>2024-04-28T08:46:32Z</time>
      </trkpt>
      <trkpt lat="50.02356" lon="4.0949">
        <ele>204.2</ele>
        <time>2024-04-28T08:46:33Z</time>
      </trkpt>
      <trkpt lat="50.0236" lon="4.095">
        <ele>204.2</ele>
        <time>2024-04-28T08:46:34Z</time>
      </trkpt>
      <trkpt lat="50.02365" lon="4.09509">
        <ele>204.2</ele>
        <time>2024-04-28T08:46:35Z</time>
      </trkpt>
      <trkpt lat="50.0237" lon="4.09518">
        <ele>204.2</ele>
        <time>2024-04-28T08:46:36Z</time>
      </trkpt>
      <trkpt lat="50.02374" lon="4.09527">
        <ele>204.2</ele>
        <time>2024-04-28T08:46:37Z</time>
      </trkpt>
      <trkpt lat="50.02378" lon="4.09536">
        <ele>204.4</ele>
        <time>2024-04-28T08:46:38Z</time>
      </trkpt>
      <trkpt lat="50.02383" lon="4.09545">
        <ele>204.4</ele>
        <time>2024-04-28T08:46:39Z</time>
      </trkpt>
      <trkpt lat="50.02387" lon="4.09553">
        <ele>204.6</ele>
        <time>2024-04-28T08:46:40Z</time>
      </trkpt>
      <trkpt lat="50.02392" lon="4.09562">
        <ele>204.4</ele>
        <time>2024-04-28T08:46:41Z</time>
      </trkpt>
      <trkpt lat="50.02397" lon="4.09571">
        <ele>204.6</ele>
        <time>2024-04-28T08:46:42Z</time>
      </trkpt>
      <trkpt lat="50.02402" lon="4.0958">
        <ele>204.8</ele>
        <time>2024-04-28T08:46:43Z</time>
      </trkpt>
      <trkpt lat="50.02407" lon="4.09589">
        <ele>205</ele>
        <time>2024-04-28T08:46:44Z</time>
      </trkpt>
      <trkpt lat="50.02412" lon="4.09597">
        <ele>205.2</ele>
        <time>2024-04-28T08:46:45Z</time>
      </trkpt>
      <trkpt lat="50.02418" lon="4.09606">
        <ele>205.2</ele>
        <time>2024-04-28T08:46:46Z</time>
      </trkpt>
      <trkpt lat="50.02423" lon="4.09615">
        <ele>205.4</ele>
        <time>2024-04-28T08:46:47Z</time>
      </trkpt>
      <trkpt lat="50.02428" lon="4.09623">
        <ele>205.4</ele>
        <time>2024-04-28T08:46:48Z</time>
      </trkpt>
      <trkpt lat="50.02434" lon="4.09632">
        <ele>205.4</ele>
        <time>2024-04-28T08:46:49Z</time>
      </trkpt>
      <trkpt lat="50.02439" lon="4.0964">
        <ele>205.4</ele>
        <time>2024-04-28T08:46:50Z</time>
      </trkpt>
      <trkpt lat="50.02445" lon="4.09649">
        <ele>205.4</ele>
        <time>2024-04-28T08:46:51Z</time>
      </trkpt>
      <trkpt lat="50.0245" lon="4.09657">
        <ele>205.6</ele>
        <time>2024-04-28T08:46:52Z</time>
      </trkpt>
      <trkpt lat="50.02455" lon="4.09665">
        <ele>205.8</ele>
        <time>2024-04-28T08:46:53Z</time>
      </trkpt>
      <trkpt lat="50.0246" lon="4.09673">
        <ele>205.8</ele>
        <time>2024-04-28T08:46:54Z</time>
      </trkpt>
      <trkpt lat="50.02465" lon="4.0968">
        <ele>205.8</ele>
        <time>2024-04-28T08:46:55Z</time>
      </trkpt>
      <trkpt lat="50.0247" lon="4.09688">
        <ele>206</ele>
        <time>2024-04-28T08:46:56Z</time>
      </trkpt>
      <trkpt lat="50.02475" lon="4.09695">
        <ele>206.2</ele>
        <time>2024-04-28T08:46:57Z</time>
      </trkpt>
      <trkpt lat="50.02479" lon="4.09702">
        <ele>206.2</ele>
        <time>2024-04-28T08:46:58Z</time>
      </trkpt>
      <trkpt lat="50.02484" lon="4.09709">
        <ele>206.2</ele>
        <time>2024-04-28T08:46:59Z</time>
      </trkpt>
      <trkpt lat="50.02489" lon="4.09716">
        <ele>206.6</ele>
        <time>2024-04-28T08:47:00Z</time>
      </trkpt>
      <trkpt lat="50.02493" lon="4.09722">
        <ele>206.6</ele>
        <time>2024-04-28T08:47:01Z</time>
      </trkpt>
      <trkpt lat="50.02498" lon="4.09728">
        <ele>206.6</ele>
        <time>2024-04-28T08:47:02Z</time>
      </trkpt>
      <trkpt lat="50.02502" lon="4.09734">
        <ele>206.8</ele>
        <time>2024-04-28T08:47:03Z</time>
      </trkpt>
      <trkpt lat="50.02505" lon="4.0974">
        <ele>207</ele>
        <time>2024-04-28T08:47:04Z</time>
      </trkpt>
      <trkpt lat="50.02508" lon="4.09746">
        <ele>207.4</ele>
        <time>2024-04-28T08:47:05Z</time>
      </trkpt>
      <trkpt lat="50.02511" lon="4.0975">
        <ele>207.4</ele>
        <time>2024-04-28T08:47:06Z</time>
      </trkpt>
      <trkpt lat="50.02512" lon="4.09754">
        <ele>207.6</ele>
        <time>2024-04-28T08:47:07Z</time>
      </trkpt>
      <trkpt lat="50.02514" lon="4.09759">
        <ele>207.8</ele>
        <time>2024-04-28T08:47:08Z</time>
      </trkpt>
      <trkpt lat="50.02515" lon="4.09763">
        <ele>208</ele>
        <time>2024-04-28T08:47:09Z</time>
      </trkpt>
      <trkpt lat="50.02516" lon="4.09768">
        <ele>208</ele>
        <time>2024-04-28T08:47:10Z</time>
      </trkpt>
      <trkpt lat="50.02518" lon="4.09772">
        <ele>208.2</ele>
        <time>2024-04-28T08:47:11Z</time>
      </trkpt>
      <trkpt lat="50.0252" lon="4.09777">
        <ele>208.2</ele>
        <time>2024-04-28T08:47:12Z</time>
      </trkpt>
      <trkpt lat="50.02524" lon="4.09781">
        <ele>208.2</ele>
        <time>2024-04-28T08:47:13Z</time>
      </trkpt>
      <trkpt lat="50.02528" lon="4.09786">
        <ele>208.2</ele>
        <time>2024-04-28T08:47:14Z</time>
      </trkpt>
      <trkpt lat="50.02534" lon="4.0979">
        <ele>208.2</ele>
        <time>2024-04-28T08:47:15Z</time>
      </trkpt>
      <trkpt lat="50.0254" lon="4.09793">
        <ele>208.2</ele>
        <time>2024-04-28T08:47:16Z</time>
      </trkpt>
      <trkpt lat="50.02546" lon="4.09796">
        <ele>208.2</ele>
        <time>2024-04-28T08:47:17Z</time>
      </trkpt>
      <trkpt lat="50.02553" lon="4.098">
        <ele>208.2</ele>
        <time>2024-04-28T08:47:18Z</time>
      </trkpt>
      <trkpt lat="50.02559" lon="4.09804">
        <ele>208</ele>
        <time>2024-04-28T08:47:19Z</time>
      </trkpt>
      <trkpt lat="50.02566" lon="4.0981">
        <ele>208</ele>
        <time>2024-04-28T08:47:20Z</time>
      </trkpt>
      <trkpt lat="50.02574" lon="4.09815">
        <ele>207.8</ele>
        <time>2024-04-28T08:47:21Z</time>
      </trkpt>
      <trkpt lat="50.02581" lon="4.09822">
        <ele>207.6</ele>
        <time>2024-04-28T08:47:22Z</time>
      </trkpt>
      <trkpt lat="50.02587" lon="4.0983">
        <ele>207.6</ele>
        <time>2024-04-28T08:47:23Z</time>
      </trkpt>
      <trkpt lat="50.02593" lon="4.09838">
        <ele>207.6</ele>
        <time>2024-04-28T08:47:24Z</time>
      </trkpt>
      <trkpt lat="50.02598" lon="4.09846">
        <ele>207.4</ele>
        <time>2024-04-28T08:47:25Z</time>
      </trkpt>
      <trkpt lat="50.02603" lon="4.09853">
        <ele>207.2</ele>
        <time>2024-04-28T08:47:26Z</time>
      </trkpt>
      <trkpt lat="50.02609" lon="4.09861">
        <ele>206.8</ele>
        <time>2024-04-28T08:47:27Z</time>
      </trkpt>
      <trkpt lat="50.02613" lon="4.0987">
        <ele>206.6</ele>
        <time>2024-04-28T08:47:28Z</time>
      </trkpt>
      <trkpt lat="50.02618" lon="4.09878">
        <ele>206.6</ele>
        <time>2024-04-28T08:47:29Z</time>
      </trkpt>
      <trkpt lat="50.02622" lon="4.09886">
        <ele>206.4</ele>
        <time>2024-04-28T08:47:30Z</time>
      </trkpt>
      <trkpt lat="50.02626" lon="4.09894">
        <ele>206.4</ele>
        <time>2024-04-28T08:47:31Z</time>
      </trkpt>
      <trkpt lat="50.0263" lon="4.09901">
        <ele>206.6</ele>
        <time>2024-04-28T08:47:32Z</time>
      </trkpt>
      <trkpt lat="50.02634" lon="4.09909">
        <ele>206.6</ele>
        <time>2024-04-28T08:47:33Z</time>
      </trkpt>
      <trkpt lat="50.02637" lon="4.09916">
        <ele>206.6</ele>
        <time>2024-04-28T08:47:34Z</time>
      </trkpt>
      <trkpt lat="50.0264" lon="4.09924">
        <ele>206.6</ele>
        <time>2024-04-28T08:47:35Z</time>
      </trkpt>
      <trkpt lat="50.02643" lon="4.09931">
        <ele>206.6</ele>
        <time>2024-04-28T08:47:36Z</time>
      </trkpt>
      <trkpt lat="50.02646" lon="4.09938">
        <ele>206.6</ele>
        <time>2024-04-28T08:47:37Z</time>
      </trkpt>
      <trkpt lat="50.02649" lon="4.09945">
        <ele>207</ele>
        <time>2024-04-28T08:47:38Z</time>
      </trkpt>
      <trkpt lat="50.02652" lon="4.09951">
        <ele>207.4</ele>
        <time>2024-04-28T08:47:39Z</time>
      </trkpt>
      <trkpt lat="50.02655" lon="4.09957">
        <ele>207.4</ele>
        <time>2024-04-28T08:47:40Z</time>
      </trkpt>
      <trkpt lat="50.02658" lon="4.09963">
        <ele>207.8</ele>
        <time>2024-04-28T08:47:41Z</time>
      </trkpt>
      <trkpt lat="50.02661" lon="4.09968">
        <ele>208.6</ele>
        <time>2024-04-28T08:47:42Z</time>
      </trkpt>
      <trkpt lat="50.02664" lon="4.09973">
        <ele>209.2</ele>
        <time>2024-04-28T08:47:43Z</time>
      </trkpt>
      <trkpt lat="50.02667" lon="4.09978">
        <ele>210</ele>
        <time>2024-04-28T08:47:44Z</time>
      </trkpt>
      <trkpt lat="50.0267" lon="4.09982">
        <ele>210.4</ele>
        <time>2024-04-28T08:47:45Z</time>
      </trkpt>
      <trkpt lat="50.02673" lon="4.09986">
        <ele>210.8</ele>
        <time>2024-04-28T08:47:46Z</time>
      </trkpt>
      <trkpt lat="50.02677" lon="4.09989">
        <ele>211.2</ele>
        <time>2024-04-28T08:47:47Z</time>
      </trkpt>
      <trkpt lat="50.0268" lon="4.09992">
        <ele>211.8</ele>
        <time>2024-04-28T08:47:48Z</time>
      </trkpt>
      <trkpt lat="50.02684" lon="4.09995">
        <ele>211.8</ele>
        <time>2024-04-28T08:47:49Z</time>
      </trkpt>
      <trkpt lat="50.02688" lon="4.09997">
        <ele>212.2</ele>
        <time>2024-04-28T08:47:50Z</time>
      </trkpt>
      <trkpt lat="50.02692" lon="4.09999">
        <ele>212.8</ele>
        <time>2024-04-28T08:47:51Z</time>
      </trkpt>
      <trkpt lat="50.02696" lon="4.1">
        <ele>213.2</ele>
        <time>2024-04-28T08:47:52Z</time>
      </trkpt>
      <trkpt lat="50.027" lon="4.10001">
        <ele>213.4</ele>
        <time>2024-04-28T08:47:53Z</time>
      </trkpt>
      <trkpt lat="50.02705" lon="4.10002">
        <ele>214</ele>
        <time>2024-04-28T08:47:54Z</time>
      </trkpt>
      <trkpt lat="50.02709" lon="4.10003">
        <ele>214</ele>
        <time>2024-04-28T08:47:55Z</time>
      </trkpt>
      <trkpt lat="50.02713" lon="4.10004">
        <ele>214.2</ele>
        <time>2024-04-28T08:47:56Z</time>
      </trkpt>
      <trkpt lat="50.02718" lon="4.10004">
        <ele>214.2</ele>
        <time>2024-04-28T08:47:57Z</time>
      </trkpt>
      <trkpt lat="50.02722" lon="4.10005">
        <ele>214.8</ele>
        <time>2024-04-28T08:47:58Z</time>
      </trkpt>
      <trkpt lat="50.02727" lon="4.10005">
        <ele>215.2</ele>
        <time>2024-04-28T08:47:59Z</time>
      </trkpt>
      <trkpt lat="50.02731" lon="4.10006">
        <ele>215.6</ele>
        <time>2024-04-28T08:48:00Z</time>
      </trkpt>
      <trkpt lat="50.02735" lon="4.10007">
        <ele>215.8</ele>
        <time>2024-04-28T08:48:01Z</time>
      </trkpt>
      <trkpt lat="50.02739" lon="4.10008">
        <ele>216.2</ele>
        <time>2024-04-28T08:48:02Z</time>
      </trkpt>
      <trkpt lat="50.02744" lon="4.10008">
        <ele>216.6</ele>
        <time>2024-04-28T08:48:03Z</time>
      </trkpt>
      <trkpt lat="50.02748" lon="4.10009">
        <ele>216.8</ele>
        <time>2024-04-28T08:48:04Z</time>
      </trkpt>
      <trkpt lat="50.02752" lon="4.1001">
        <ele>217.2</ele>
        <time>2024-04-28T08:48:05Z</time>
      </trkpt>
      <trkpt lat="50.02757" lon="4.10012">
        <ele>217.6</ele>
        <time>2024-04-28T08:48:06Z</time>
      </trkpt>
      <trkpt lat="50.02761" lon="4.10013">
        <ele>218</ele>
        <time>2024-04-28T08:48:07Z</time>
      </trkpt>
      <trkpt lat="50.02765" lon="4.10014">
        <ele>218.6</ele>
        <time>2024-04-28T08:48:08Z</time>
      </trkpt>
      <trkpt lat="50.02769" lon="4.10015">
        <ele>218.8</ele>
        <time>2024-04-28T08:48:09Z</time>
      </trkpt>
      <trkpt lat="50.02774" lon="4.10016">
        <ele>219</ele>
        <time>2024-04-28T08:48:10Z</time>
      </trkpt>
      <trkpt lat="50.02778" lon="4.10017">
        <ele>219</ele>
        <time>2024-04-28T08:48:11Z</time>
      </trkpt>
      <trkpt lat="50.02782" lon="4.10018">
        <ele>219.2</ele>
        <time>2024-04-28T08:48:12Z</time>
      </trkpt>
      <trkpt lat="50.02786" lon="4.1002">
        <ele>219.6</ele>
        <time>2024-04-28T08:48:13Z</time>
      </trkpt>
      <trkpt lat="50.02791" lon="4.10021">
        <ele>219.6</ele>
        <time>2024-04-28T08:48:14Z</time>
      </trkpt>
      <trkpt lat="50.02795" lon="4.10023">
        <ele>219.8</ele>
        <time>2024-04-28T08:48:15Z</time>
      </trkpt>
      <trkpt lat="50.02799" lon="4.10025">
        <ele>220.2</ele>
        <time>2024-04-28T08:48:16Z</time>
      </trkpt>
      <trkpt lat="50.02803" lon="4.10026">
        <ele>220.2</ele>
        <time>2024-04-28T08:48:17Z</time>
      </trkpt>
      <trkpt lat="50.02808" lon="4.10028">
        <ele>220.2</ele>
        <time>2024-04-28T08:48:18Z</time>
      </trkpt>
      <trkpt lat="50.02812" lon="4.1003">
        <ele>220.4</ele>
        <time>2024-04-28T08:48:19Z</time>
      </trkpt>
      <trkpt lat="50.02817" lon="4.10031">
        <ele>220.4</ele>
        <time>2024-04-28T08:48:20Z</time>
      </trkpt>
      <trkpt lat="50.02821" lon="4.10032">
        <ele>220.4</ele>
        <time>2024-04-28T08:48:21Z</time>
      </trkpt>
      <trkpt lat="50.02826" lon="4.10034">
        <ele>220.8</ele>
        <time>2024-04-28T08:48:22Z</time>
      </trkpt>
      <trkpt lat="50.0283" lon="4.10036">
        <ele>220.8</ele>
        <time>2024-04-28T08:48:23Z</time>
      </trkpt>
      <trkpt lat="50.02834" lon="4.10038">
        <ele>221</ele>
        <time>2024-04-28T08:48:24Z</time>
      </trkpt>
      <trkpt lat="50.02838" lon="4.10039">
        <ele>221</ele>
        <time>2024-04-28T08:48:25Z</time>
      </trkpt>
      <trkpt lat="50.02842" lon="4.10041">
        <ele>221.4</ele>
        <time>2024-04-28T08:48:26Z</time>
      </trkpt>
      <trkpt lat="50.02847" lon="4.10042">
        <ele>222</ele>
        <time>2024-04-28T08:48:27Z</time>
      </trkpt>
      <trkpt lat="50.02852" lon="4.10044">
        <ele>222</ele>
        <time>2024-04-28T08:48:28Z</time>
      </trkpt>
      <trkpt lat="50.02856" lon="4.10046">
        <ele>222.4</ele>
        <time>2024-04-28T08:48:29Z</time>
      </trkpt>
      <trkpt lat="50.02861" lon="4.10048">
        <ele>222.6</ele>
        <time>2024-04-28T08:48:30Z</time>
      </trkpt>
      <trkpt lat="50.02866" lon="4.1005">
        <ele>222.8</ele>
        <time>2024-04-28T08:48:31Z</time>
      </trkpt>
      <trkpt lat="50.02871" lon="4.10051">
        <ele>223.4</ele>
        <time>2024-04-28T08:48:32Z</time>
      </trkpt>
      <trkpt lat="50.02875" lon="4.10053">
        <ele>223.8</ele>
        <time>2024-04-28T08:48:33Z</time>
      </trkpt>
      <trkpt lat="50.0288" lon="4.10054">
        <ele>224</ele>
        <time>2024-04-28T08:48:34Z</time>
      </trkpt>
      <trkpt lat="50.02885" lon="4.10055">
        <ele>224.6</ele>
        <time>2024-04-28T08:48:35Z</time>
      </trkpt>
      <trkpt lat="50.0289" lon="4.10057">
        <ele>224.8</ele>
        <time>2024-04-28T08:48:36Z</time>
      </trkpt>
      <trkpt lat="50.02895" lon="4.10058">
        <ele>225</ele>
        <time>2024-04-28T08:48:37Z</time>
      </trkpt>
      <trkpt lat="50.029" lon="4.10059">
        <ele>225.4</ele>
        <time>2024-04-28T08:48:38Z</time>
      </trkpt>
      <trkpt lat="50.02905" lon="4.1006">
        <ele>225.8</ele>
        <time>2024-04-28T08:48:39Z</time>
      </trkpt>
      <trkpt lat="50.0291" lon="4.10061">
        <ele>226</ele>
        <time>2024-04-28T08:48:40Z</time>
      </trkpt>
      <trkpt lat="50.02914" lon="4.10062">
        <ele>226.4</ele>
        <time>2024-04-28T08:48:41Z</time>
      </trkpt>
      <trkpt lat="50.02919" lon="4.10063">
        <ele>226.6</ele>
        <time>2024-04-28T08:48:42Z</time>
      </trkpt>
      <trkpt lat="50.02924" lon="4.10064">
        <ele>226.6</ele>
        <time>2024-04-28T08:48:43Z</time>
      </trkpt>
      <trkpt lat="50.02929" lon="4.10065">
        <ele>226.6</ele>
        <time>2024-04-28T08:48:44Z</time>
      </trkpt>
      <trkpt lat="50.02934" lon="4.10067">
        <ele>227</ele>
        <time>2024-04-28T08:48:45Z</time>
      </trkpt>
      <trkpt lat="50.02939" lon="4.10068">
        <ele>227.4</ele>
        <time>2024-04-28T08:48:46Z</time>
      </trkpt>
      <trkpt lat="50.02944" lon="4.10069">
        <ele>227.6</ele>
        <time>2024-04-28T08:48:47Z</time>
      </trkpt>
      <trkpt lat="50.02948" lon="4.1007">
        <ele>227.8</ele>
        <time>2024-04-28T08:48:48Z</time>
      </trkpt>
      <trkpt lat="50.02953" lon="4.10071">
        <ele>228</ele>
        <time>2024-04-28T08:48:49Z</time>
      </trkpt>
      <trkpt lat="50.02958" lon="4.10072">
        <ele>228.4</ele>
        <time>2024-04-28T08:48:50Z</time>
      </trkpt>
      <trkpt lat="50.02962" lon="4.10073">
        <ele>228.6</ele>
        <time>2024-04-28T08:48:51Z</time>
      </trkpt>
      <trkpt lat="50.02967" lon="4.10074">
        <ele>228.8</ele>
        <time>2024-04-28T08:48:52Z</time>
      </trkpt>
      <trkpt lat="50.02972" lon="4.10075">
        <ele>228.8</ele>
        <time>2024-04-28T08:48:53Z</time>
      </trkpt>
      <trkpt lat="50.02976" lon="4.10076">
        <ele>229</ele>
        <time>2024-04-28T08:48:54Z</time>
      </trkpt>
      <trkpt lat="50.02981" lon="4.10076">
        <ele>229.2</ele>
        <time>2024-04-28T08:48:55Z</time>
      </trkpt>
      <trkpt lat="50.02986" lon="4.10077">
        <ele>229.4</ele>
        <time>2024-04-28T08:48:56Z</time>
      </trkpt>
      <trkpt lat="50.02992" lon="4.10078">
        <ele>229.6</ele>
        <time>2024-04-28T08:48:57Z</time>
      </trkpt>
      <trkpt lat="50.02997" lon="4.1008">
        <ele>230.6</ele>
        <time>2024-04-28T08:48:58Z</time>
      </trkpt>
      <trkpt lat="50.03003" lon="4.10081">
        <ele>231</ele>
        <time>2024-04-28T08:48:59Z</time>
      </trkpt>
      <trkpt lat="50.03008" lon="4.10082">
        <ele>231.8</ele>
        <time>2024-04-28T08:49:00Z</time>
      </trkpt>
      <trkpt lat="50.03014" lon="4.10083">
        <ele>232</ele>
        <time>2024-04-28T08:49:01Z</time>
      </trkpt>
      <trkpt lat="50.03019" lon="4.10085">
        <ele>232</ele>
        <time>2024-04-28T08:49:02Z</time>
      </trkpt>
      <trkpt lat="50.03025" lon="4.10086">
        <ele>232</ele>
        <time>2024-04-28T08:49:03Z</time>
      </trkpt>
      <trkpt lat="50.0303" lon="4.10087">
        <ele>232.2</ele>
        <time>2024-04-28T08:49:04Z</time>
      </trkpt>
      <trkpt lat="50.03035" lon="4.10088">
        <ele>232.2</ele>
        <time>2024-04-28T08:49:05Z</time>
      </trkpt>
      <trkpt lat="50.03041" lon="4.10089">
        <ele>232.2</ele>
        <time>2024-04-28T08:49:06Z</time>
      </trkpt>
      <trkpt lat="50.03047" lon="4.1009">
        <ele>232.2</ele>
        <time>2024-04-28T08:49:07Z</time>
      </trkpt>
      <trkpt lat="50.03052" lon="4.10091">
        <ele>232.6</ele>
        <time>2024-04-28T08:49:08Z</time>
      </trkpt>
      <trkpt lat="50.03058" lon="4.10092">
        <ele>232.4</ele>
        <time>2024-04-28T08:49:09Z</time>
      </trkpt>
      <trkpt lat="50.03064" lon="4.10094">
        <ele>232.6</ele>
        <time>2024-04-28T08:49:10Z</time>
      </trkpt>
      <trkpt lat="50.0307" lon="4.10095">
        <ele>232.8</ele>
        <time>2024-04-28T08:49:11Z</time>
      </trkpt>
      <trkpt lat="50.03076" lon="4.10096">
        <ele>233.4</ele>
        <time>2024-04-28T08:49:12Z</time>
      </trkpt>
      <trkpt lat="50.03082" lon="4.10097">
        <ele>233.6</ele>
        <time>2024-04-28T08:49:13Z</time>
      </trkpt>
      <trkpt lat="50.03088" lon="4.10098">
        <ele>233.8</ele>
        <time>2024-04-28T08:49:14Z</time>
      </trkpt>
      <trkpt lat="50.03094" lon="4.10099">
        <ele>234</ele>
        <time>2024-04-28T08:49:15Z</time>
      </trkpt>
      <trkpt lat="50.031" lon="4.101">
        <ele>234</ele>
        <time>2024-04-28T08:49:16Z</time>
      </trkpt>
      <trkpt lat="50.03106" lon="4.10101">
        <ele>234.2</ele>
        <time>2024-04-28T08:49:17Z</time>
      </trkpt>
      <trkpt lat="50.03112" lon="4.10102">
        <ele>234.6</ele>
        <time>2024-04-28T08:49:18Z</time>
      </trkpt>
      <trkpt lat="50.03118" lon="4.10103">
        <ele>234.6</ele>
        <time>2024-04-28T08:49:19Z</time>
      </trkpt>
      <trkpt lat="50.03124" lon="4.10105">
        <ele>234.6</ele>
        <time>2024-04-28T08:49:20Z</time>
      </trkpt>
      <trkpt lat="50.0313" lon="4.10106">
        <ele>234.8</ele>
        <time>2024-04-28T08:49:21Z</time>
      </trkpt>
      <trkpt lat="50.03137" lon="4.10108">
        <ele>235</ele>
        <time>2024-04-28T08:49:22Z</time>
      </trkpt>
      <trkpt lat="50.03143" lon="4.10109">
        <ele>235</ele>
        <time>2024-04-28T08:49:23Z</time>
      </trkpt>
      <trkpt lat="50.03149" lon="4.1011">
        <ele>235</ele>
        <time>2024-04-28T08:49:24Z</time>
      </trkpt>
      <trkpt lat="50.03156" lon="4.10111">
        <ele>235.2</ele>
        <time>2024-04-28T08:49:25Z</time>
      </trkpt>
      <trkpt lat="50.03162" lon="4.10113">
        <ele>235.2</ele>
        <time>2024-04-28T08:49:26Z</time>
      </trkpt>
      <trkpt lat="50.03169" lon="4.10115">
        <ele>235.2</ele>
        <time>2024-04-28T08:49:27Z</time>
      </trkpt>
      <trkpt lat="50.03175" lon="4.10117">
        <ele>235.4</ele>
        <time>2024-04-28T08:49:28Z</time>
      </trkpt>
      <trkpt lat="50.03182" lon="4.10119">
        <ele>235.4</ele>
        <time>2024-04-28T08:49:29Z</time>
      </trkpt>
      <trkpt lat="50.03189" lon="4.10122">
        <ele>235.6</ele>
        <time>2024-04-28T08:49:30Z</time>
      </trkpt>
      <trkpt lat="50.03196" lon="4.10125">
        <ele>236</ele>
        <time>2024-04-28T08:49:31Z</time>
      </trkpt>
      <trkpt lat="50.03203" lon="4.10129">
        <ele>236</ele>
        <time>2024-04-28T08:49:32Z</time>
      </trkpt>
      <trkpt lat="50.0321" lon="4.10132">
        <ele>236.2</ele>
        <time>2024-04-28T08:49:33Z</time>
      </trkpt>
      <trkpt lat="50.03217" lon="4.10136">
        <ele>236.4</ele>
        <time>2024-04-28T08:49:34Z</time>
      </trkpt>
      <trkpt lat="50.03223" lon="4.1014">
        <ele>236.4</ele>
        <time>2024-04-28T08:49:35Z</time>
      </trkpt>
      <trkpt lat="50.0323" lon="4.10144">
        <ele>236.4</ele>
        <time>2024-04-28T08:49:36Z</time>
      </trkpt>
      <trkpt lat="50.03237" lon="4.10149">
        <ele>236.6</ele>
        <time>2024-04-28T08:49:37Z</time>
      </trkpt>
      <trkpt lat="50.03244" lon="4.10153">
        <ele>236.6</ele>
        <time>2024-04-28T08:49:38Z</time>
      </trkpt>
      <trkpt lat="50.03252" lon="4.10157">
        <ele>236.6</ele>
        <time>2024-04-28T08:49:39Z</time>
      </trkpt>
      <trkpt lat="50.03259" lon="4.10161">
        <ele>236.6</ele>
        <time>2024-04-28T08:49:40Z</time>
      </trkpt>
      <trkpt lat="50.03266" lon="4.10166">
        <ele>236.6</ele>
        <time>2024-04-28T08:49:41Z</time>
      </trkpt>
      <trkpt lat="50.03273" lon="4.1017">
        <ele>236.8</ele>
        <time>2024-04-28T08:49:42Z</time>
      </trkpt>
      <trkpt lat="50.0328" lon="4.10174">
        <ele>237</ele>
        <time>2024-04-28T08:49:43Z</time>
      </trkpt>
      <trkpt lat="50.03287" lon="4.10179">
        <ele>237.2</ele>
        <time>2024-04-28T08:49:44Z</time>
      </trkpt>
      <trkpt lat="50.03294" lon="4.10184">
        <ele>237.4</ele>
        <time>2024-04-28T08:49:45Z</time>
      </trkpt>
      <trkpt lat="50.03302" lon="4.10189">
        <ele>237.4</ele>
        <time>2024-04-28T08:49:46Z</time>
      </trkpt>
      <trkpt lat="50.0331" lon="4.10194">
        <ele>237.4</ele>
        <time>2024-04-28T08:49:47Z</time>
      </trkpt>
      <trkpt lat="50.03317" lon="4.10199">
        <ele>237.4</ele>
        <time>2024-04-28T08:49:48Z</time>
      </trkpt>
      <trkpt lat="50.03325" lon="4.10204">
        <ele>237.4</ele>
        <time>2024-04-28T08:49:49Z</time>
      </trkpt>
      <trkpt lat="50.03333" lon="4.10209">
        <ele>237.4</ele>
        <time>2024-04-28T08:49:50Z</time>
      </trkpt>
      <trkpt lat="50.03341" lon="4.10214">
        <ele>237.4</ele>
        <time>2024-04-28T08:49:51Z</time>
      </trkpt>
      <trkpt lat="50.03349" lon="4.10219">
        <ele>237.4</ele>
        <time>2024-04-28T08:49:52Z</time>
      </trkpt>
      <trkpt lat="50.03357" lon="4.10225">
        <ele>237.6</ele>
        <time>2024-04-28T08:49:53Z</time>
      </trkpt>
      <trkpt lat="50.03365" lon="4.1023">
        <ele>237.2</ele>
        <time>2024-04-28T08:49:54Z</time>
      </trkpt>
      <trkpt lat="50.03373" lon="4.10236">
        <ele>237</ele>
        <time>2024-04-28T08:49:55Z</time>
      </trkpt>
      <trkpt lat="50.03382" lon="4.10241">
        <ele>237</ele>
        <time>2024-04-28T08:49:56Z</time>
      </trkpt>
      <trkpt lat="50.0339" lon="4.10247">
        <ele>237</ele>
        <time>2024-04-28T08:49:57Z</time>
      </trkpt>
      <trkpt lat="50.03398" lon="4.10253">
        <ele>237</ele>
        <time>2024-04-28T08:49:58Z</time>
      </trkpt>
      <trkpt lat="50.03406" lon="4.10259">
        <ele>237</ele>
        <time>2024-04-28T08:49:59Z</time>
      </trkpt>
      <trkpt lat="50.03414" lon="4.10265">
        <ele>237</ele>
        <time>2024-04-28T08:50:00Z</time>
      </trkpt>
      <trkpt lat="50.03421" lon="4.10271">
        <ele>236.8</ele>
        <time>2024-04-28T08:50:01Z</time>
      </trkpt>
      <trkpt lat="50.03429" lon="4.10278">
        <ele>236.8</ele>
        <time>2024-04-28T08:50:02Z</time>
      </trkpt>
      <trkpt lat="50.03436" lon="4.10284">
        <ele>237</ele>
        <time>2024-04-28T08:50:03Z</time>
      </trkpt>
      <trkpt lat="50.03444" lon="4.10291">
        <ele>237</ele>
        <time>2024-04-28T08:50:04Z</time>
      </trkpt>
      <trkpt lat="50.03451" lon="4.10298">
        <ele>236.8</ele>
        <time>2024-04-28T08:50:05Z</time>
      </trkpt>
      <trkpt lat="50.03458" lon="4.10306">
        <ele>236.8</ele>
        <time>2024-04-28T08:50:06Z</time>
      </trkpt>
      <trkpt lat="50.03466" lon="4.10314">
        <ele>236.8</ele>
        <time>2024-04-28T08:50:07Z</time>
      </trkpt>
      <trkpt lat="50.03473" lon="4.10323">
        <ele>236.8</ele>
        <time>2024-04-28T08:50:08Z</time>
      </trkpt>
      <trkpt lat="50.0348" lon="4.10333">
        <ele>236.6</ele>
        <time>2024-04-28T08:50:09Z</time>
      </trkpt>
      <trkpt lat="50.03487" lon="4.10343">
        <ele>236.6</ele>
        <time>2024-04-28T08:50:10Z</time>
      </trkpt>
      <trkpt lat="50.03493" lon="4.10354">
        <ele>236.4</ele>
        <time>2024-04-28T08:50:11Z</time>
      </trkpt>
      <trkpt lat="50.03499" lon="4.10366">
        <ele>236.4</ele>
        <time>2024-04-28T08:50:12Z</time>
      </trkpt>
      <trkpt lat="50.03505" lon="4.10379">
        <ele>236.2</ele>
        <time>2024-04-28T08:50:13Z</time>
      </trkpt>
      <trkpt lat="50.03511" lon="4.10391">
        <ele>236.2</ele>
        <time>2024-04-28T08:50:14Z</time>
      </trkpt>
      <trkpt lat="50.03516" lon="4.10404">
        <ele>236.2</ele>
        <time>2024-04-28T08:50:15Z</time>
      </trkpt>
      <trkpt lat="50.03522" lon="4.10416">
        <ele>236.2</ele>
        <time>2024-04-28T08:50:16Z</time>
      </trkpt>
      <trkpt lat="50.03528" lon="4.10429">
        <ele>236</ele>
        <time>2024-04-28T08:50:17Z</time>
      </trkpt>
      <trkpt lat="50.03533" lon="4.10441">
        <ele>236</ele>
        <time>2024-04-28T08:50:18Z</time>
      </trkpt>
      <trkpt lat="50.03539" lon="4.10453">
        <ele>235.6</ele>
        <time>2024-04-28T08:50:19Z</time>
      </trkpt>
      <trkpt lat="50.03545" lon="4.10465">
        <ele>235.4</ele>
        <time>2024-04-28T08:50:20Z</time>
      </trkpt>
      <trkpt lat="50.0355" lon="4.10478">
        <ele>235.6</ele>
        <time>2024-04-28T08:50:21Z</time>
      </trkpt>
      <trkpt lat="50.03555" lon="4.1049">
        <ele>235.4</ele>
        <time>2024-04-28T08:50:22Z</time>
      </trkpt>
      <trkpt lat="50.0356" lon="4.10502">
        <ele>235.2</ele>
        <time>2024-04-28T08:50:23Z</time>
      </trkpt>
      <trkpt lat="50.03564" lon="4.10516">
        <ele>235.2</ele>
        <time>2024-04-28T08:50:24Z</time>
      </trkpt>
      <trkpt lat="50.03567" lon="4.10529">
        <ele>235.2</ele>
        <time>2024-04-28T08:50:25Z</time>
      </trkpt>
      <trkpt lat="50.03571" lon="4.10542">
        <ele>235.2</ele>
        <time>2024-04-28T08:50:26Z</time>
      </trkpt>
      <trkpt lat="50.03575" lon="4.10555">
        <ele>235</ele>
        <time>2024-04-28T08:50:27Z</time>
      </trkpt>
      <trkpt lat="50.03579" lon="4.10567">
        <ele>235.2</ele>
        <time>2024-04-28T08:50:28Z</time>
      </trkpt>
      <trkpt lat="50.03583" lon="4.1058">
        <ele>235.4</ele>
        <time>2024-04-28T08:50:29Z</time>
      </trkpt>
      <trkpt lat="50.03587" lon="4.10592">
        <ele>235.4</ele>
        <time>2024-04-28T08:50:30Z</time>
      </trkpt>
      <trkpt lat="50.0359" lon="4.10604">
        <ele>235.6</ele>
        <time>2024-04-28T08:50:31Z</time>
      </trkpt>
      <trkpt lat="50.03593" lon="4.10616">
        <ele>235.6</ele>
        <time>2024-04-28T08:50:32Z</time>
      </trkpt>
      <trkpt lat="50.03597" lon="4.10628">
        <ele>235.6</ele>
        <time>2024-04-28T08:50:33Z</time>
      </trkpt>
      <trkpt lat="50.03599" lon="4.10641">
        <ele>235.8</ele>
        <time>2024-04-28T08:50:34Z</time>
      </trkpt>
      <trkpt lat="50.03602" lon="4.10654">
        <ele>235.8</ele>
        <time>2024-04-28T08:50:35Z</time>
      </trkpt>
      <trkpt lat="50.03605" lon="4.10666">
        <ele>236.2</ele>
        <time>2024-04-28T08:50:36Z</time>
      </trkpt>
      <trkpt lat="50.03608" lon="4.10679">
        <ele>236.6</ele>
        <time>2024-04-28T08:50:37Z</time>
      </trkpt>
      <trkpt lat="50.0361" lon="4.10692">
        <ele>236.8</ele>
        <time>2024-04-28T08:50:38Z</time>
      </trkpt>
      <trkpt lat="50.03613" lon="4.10705">
        <ele>237</ele>
        <time>2024-04-28T08:50:39Z</time>
      </trkpt>
      <trkpt lat="50.03616" lon="4.10718">
        <ele>237</ele>
        <time>2024-04-28T08:50:40Z</time>
      </trkpt>
      <trkpt lat="50.03619" lon="4.10731">
        <ele>237</ele>
        <time>2024-04-28T08:50:41Z</time>
      </trkpt>
      <trkpt lat="50.03622" lon="4.10744">
        <ele>237</ele>
        <time>2024-04-28T08:50:42Z</time>
      </trkpt>
      <trkpt lat="50.03625" lon="4.10758">
        <ele>237</ele>
        <time>2024-04-28T08:50:43Z</time>
      </trkpt>
      <trkpt lat="50.03628" lon="4.10771">
        <ele>237.2</ele>
        <time>2024-04-28T08:50:44Z</time>
      </trkpt>
      <trkpt lat="50.03631" lon="4.10785">
        <ele>237</ele>
        <time>2024-04-28T08:50:45Z</time>
      </trkpt>
      <trkpt lat="50.03635" lon="4.10798">
        <ele>237</ele>
        <time>2024-04-28T08:50:46Z</time>
      </trkpt>
      <trkpt lat="50.0364" lon="4.10811">
        <ele>237.2</ele>
        <time>2024-04-28T08:50:47Z</time>
      </trkpt>
      <trkpt lat="50.03645" lon="4.10824">
        <ele>237.2</ele>
        <time>2024-04-28T08:50:48Z</time>
      </trkpt>
      <trkpt lat="50.0365" lon="4.10836">
        <ele>237</ele>
        <time>2024-04-28T08:50:49Z</time>
      </trkpt>
      <trkpt lat="50.03656" lon="4.10848">
        <ele>237</ele>
        <time>2024-04-28T08:50:50Z</time>
      </trkpt>
      <trkpt lat="50.03662" lon="4.10859">
        <ele>236.8</ele>
        <time>2024-04-28T08:50:51Z</time>
      </trkpt>
      <trkpt lat="50.03668" lon="4.10871">
        <ele>236.8</ele>
        <time>2024-04-28T08:50:52Z</time>
      </trkpt>
      <trkpt lat="50.03675" lon="4.10882">
        <ele>236.8</ele>
        <time>2024-04-28T08:50:53Z</time>
      </trkpt>
      <trkpt lat="50.03682" lon="4.10894">
        <ele>236.8</ele>
        <time>2024-04-28T08:50:54Z</time>
      </trkpt>
      <trkpt lat="50.03688" lon="4.10905">
        <ele>236.8</ele>
        <time>2024-04-28T08:50:55Z</time>
      </trkpt>
      <trkpt lat="50.03694" lon="4.10917">
        <ele>236.8</ele>
        <time>2024-04-28T08:50:56Z</time>
      </trkpt>
      <trkpt lat="50.03701" lon="4.10929">
        <ele>236.8</ele>
        <time>2024-04-28T08:50:57Z</time>
      </trkpt>
      <trkpt lat="50.03707" lon="4.10941">
        <ele>236.8</ele>
        <time>2024-04-28T08:50:58Z</time>
      </trkpt>
      <trkpt lat="50.03712" lon="4.10953">
        <ele>236.8</ele>
        <time>2024-04-28T08:50:59Z</time>
      </trkpt>
      <trkpt lat="50.03717" lon="4.10965">
        <ele>236.8</ele>
        <time>2024-04-28T08:51:00Z</time>
      </trkpt>
      <trkpt lat="50.03722" lon="4.10977">
        <ele>236.6</ele>
        <time>2024-04-28T08:51:01Z</time>
      </trkpt>
      <trkpt lat="50.03727" lon="4.1099">
        <ele>236.6</ele>
        <time>2024-04-28T08:51:02Z</time>
      </trkpt>
      <trkpt lat="50.03731" lon="4.11002">
        <ele>236.6</ele>
        <time>2024-04-28T08:51:03Z</time>
      </trkpt>
      <trkpt lat="50.03736" lon="4.11015">
        <ele>236.4</ele>
        <time>2024-04-28T08:51:04Z</time>
      </trkpt>
      <trkpt lat="50.0374" lon="4.11029">
        <ele>236.4</ele>
        <time>2024-04-28T08:51:05Z</time>
      </trkpt>
      <trkpt lat="50.03744" lon="4.11042">
        <ele>236.2</ele>
        <time>2024-04-28T08:51:06Z</time>
      </trkpt>
      <trkpt lat="50.03748" lon="4.11057">
        <ele>236.2</ele>
        <time>2024-04-28T08:51:07Z</time>
      </trkpt>
      <trkpt lat="50.03752" lon="4.11071">
        <ele>236.2</ele>
        <time>2024-04-28T08:51:08Z</time>
      </trkpt>
      <trkpt lat="50.03756" lon="4.11085">
        <ele>236.2</ele>
        <time>2024-04-28T08:51:09Z</time>
      </trkpt>
      <trkpt lat="50.0376" lon="4.111">
        <ele>236</ele>
        <time>2024-04-28T08:51:10Z</time>
      </trkpt>
      <trkpt lat="50.03764" lon="4.11114">
        <ele>235.8</ele>
        <time>2024-04-28T08:51:11Z</time>
      </trkpt>
      <trkpt lat="50.03768" lon="4.11129">
        <ele>235.6</ele>
        <time>2024-04-28T08:51:12Z</time>
      </trkpt>
      <trkpt lat="50.03773" lon="4.11144">
        <ele>235.4</ele>
        <time>2024-04-28T08:51:13Z</time>
      </trkpt>
      <trkpt lat="50.03777" lon="4.11158">
        <ele>235.2</ele>
        <time>2024-04-28T08:51:14Z</time>
      </trkpt>
      <trkpt lat="50.03781" lon="4.11174">
        <ele>235</ele>
        <time>2024-04-28T08:51:15Z</time>
      </trkpt>
      <trkpt lat="50.03784" lon="4.11189">
        <ele>235</ele>
        <time>2024-04-28T08:51:16Z</time>
      </trkpt>
      <trkpt lat="50.03788" lon="4.11205">
        <ele>235</ele>
        <time>2024-04-28T08:51:17Z</time>
      </trkpt>
      <trkpt lat="50.03791" lon="4.11221">
        <ele>234.8</ele>
        <time>2024-04-28T08:51:18Z</time>
      </trkpt>
      <trkpt lat="50.03793" lon="4.11238">
        <ele>234.6</ele>
        <time>2024-04-28T08:51:19Z</time>
      </trkpt>
      <trkpt lat="50.03794" lon="4.11255">
        <ele>234.4</ele>
        <time>2024-04-28T08:51:20Z</time>
      </trkpt>
      <trkpt lat="50.03794" lon="4.11272">
        <ele>233.8</ele>
        <time>2024-04-28T08:51:21Z</time>
      </trkpt>
      <trkpt lat="50.03794" lon="4.11289">
        <ele>233.2</ele>
        <time>2024-04-28T08:51:22Z</time>
      </trkpt>
      <trkpt lat="50.03795" lon="4.11306">
        <ele>232.4</ele>
        <time>2024-04-28T08:51:23Z</time>
      </trkpt>
      <trkpt lat="50.03795" lon="4.11323">
        <ele>231.6</ele>
        <time>2024-04-28T08:51:24Z</time>
      </trkpt>
      <trkpt lat="50.03795" lon="4.1134">
        <ele>231.4</ele>
        <time>2024-04-28T08:51:25Z</time>
      </trkpt>
      <trkpt lat="50.03796" lon="4.11356">
        <ele>231</ele>
        <time>2024-04-28T08:51:26Z</time>
      </trkpt>
      <trkpt lat="50.03797" lon="4.11373">
        <ele>231</ele>
        <time>2024-04-28T08:51:27Z</time>
      </trkpt>
      <trkpt lat="50.038" lon="4.11389">
        <ele>230.6</ele>
        <time>2024-04-28T08:51:28Z</time>
      </trkpt>
      <trkpt lat="50.03803" lon="4.11405">
        <ele>230.6</ele>
        <time>2024-04-28T08:51:29Z</time>
      </trkpt>
      <trkpt lat="50.03807" lon="4.1142">
        <ele>230.2</ele>
        <time>2024-04-28T08:51:30Z</time>
      </trkpt>
      <trkpt lat="50.03812" lon="4.11435">
        <ele>230.2</ele>
        <time>2024-04-28T08:51:31Z</time>
      </trkpt>
      <trkpt lat="50.03818" lon="4.11448">
        <ele>230</ele>
        <time>2024-04-28T08:51:32Z</time>
      </trkpt>
      <trkpt lat="50.03825" lon="4.11461">
        <ele>230</ele>
        <time>2024-04-28T08:51:33Z</time>
      </trkpt>
      <trkpt lat="50.03832" lon="4.11473">
        <ele>230</ele>
        <time>2024-04-28T08:51:34Z</time>
      </trkpt>
      <trkpt lat="50.03839" lon="4.11485">
        <ele>230</ele>
        <time>2024-04-28T08:51:35Z</time>
      </trkpt>
      <trkpt lat="50.03846" lon="4.11497">
        <ele>229.8</ele>
        <time>2024-04-28T08:51:36Z</time>
      </trkpt>
      <trkpt lat="50.03853" lon="4.11509">
        <ele>229.8</ele>
        <time>2024-04-28T08:51:37Z</time>
      </trkpt>
      <trkpt lat="50.03861" lon="4.11521">
        <ele>229.6</ele>
        <time>2024-04-28T08:51:38Z</time>
      </trkpt>
      <trkpt lat="50.03868" lon="4.11532">
        <ele>229.6</ele>
        <time>2024-04-28T08:51:39Z</time>
      </trkpt>
      <trkpt lat="50.03876" lon="4.11543">
        <ele>229.6</ele>
        <time>2024-04-28T08:51:40Z</time>
      </trkpt>
      <trkpt lat="50.03883" lon="4.11553">
        <ele>229.8</ele>
        <time>2024-04-28T08:51:41Z</time>
      </trkpt>
      <trkpt lat="50.0389" lon="4.11564">
        <ele>229.8</ele>
        <time>2024-04-28T08:51:42Z</time>
      </trkpt>
      <trkpt lat="50.03896" lon="4.11575">
        <ele>229.8</ele>
        <time>2024-04-28T08:51:43Z</time>
      </trkpt>
      <trkpt lat="50.03902" lon="4.11586">
        <ele>230</ele>
        <time>2024-04-28T08:51:44Z</time>
      </trkpt>
      <trkpt lat="50.03907" lon="4.11598">
        <ele>230</ele>
        <time>2024-04-28T08:51:45Z</time>
      </trkpt>
      <trkpt lat="50.0391" lon="4.11612">
        <ele>230.2</ele>
        <time>2024-04-28T08:51:46Z</time>
      </trkpt>
      <trkpt lat="50.03913" lon="4.11626">
        <ele>230.2</ele>
        <time>2024-04-28T08:51:47Z</time>
      </trkpt>
      <trkpt lat="50.03915" lon="4.1164">
        <ele>230.4</ele>
        <time>2024-04-28T08:51:48Z</time>
      </trkpt>
      <trkpt lat="50.03917" lon="4.11654">
        <ele>230.6</ele>
        <time>2024-04-28T08:51:49Z</time>
      </trkpt>
      <trkpt lat="50.03919" lon="4.11668">
        <ele>230.6</ele>
        <time>2024-04-28T08:51:50Z</time>
      </trkpt>
      <trkpt lat="50.03922" lon="4.11681">
        <ele>230.6</ele>
        <time>2024-04-28T08:51:51Z</time>
      </trkpt>
      <trkpt lat="50.03924" lon="4.11694">
        <ele>231</ele>
        <time>2024-04-28T08:51:52Z</time>
      </trkpt>
      <trkpt lat="50.03926" lon="4.11706">
        <ele>231.2</ele>
        <time>2024-04-28T08:51:53Z</time>
      </trkpt>
      <trkpt lat="50.03929" lon="4.11718">
        <ele>231.6</ele>
        <time>2024-04-28T08:51:54Z</time>
      </trkpt>
      <trkpt lat="50.03933" lon="4.11729">
        <ele>232.2</ele>
        <time>2024-04-28T08:51:55Z</time>
      </trkpt>
      <trkpt lat="50.03938" lon="4.1174">
        <ele>232.2</ele>
        <time>2024-04-28T08:51:56Z</time>
      </trkpt>
      <trkpt lat="50.03943" lon="4.11749">
        <ele>232.6</ele>
        <time>2024-04-28T08:51:57Z</time>
      </trkpt>
      <trkpt lat="50.03949" lon="4.11758">
        <ele>232.6</ele>
        <time>2024-04-28T08:51:58Z</time>
      </trkpt>
      <trkpt lat="50.03955" lon="4.11766">
        <ele>232.8</ele>
        <time>2024-04-28T08:51:59Z</time>
      </trkpt>
      <trkpt lat="50.03961" lon="4.11774">
        <ele>232.8</ele>
        <time>2024-04-28T08:52:00Z</time>
      </trkpt>
      <trkpt lat="50.03967" lon="4.11781">
        <ele>232.8</ele>
        <time>2024-04-28T08:52:01Z</time>
      </trkpt>
      <trkpt lat="50.03973" lon="4.11788">
        <ele>233</ele>
        <time>2024-04-28T08:52:02Z</time>
      </trkpt>
      <trkpt lat="50.03979" lon="4.11795">
        <ele>233.2</ele>
        <time>2024-04-28T08:52:03Z</time>
      </trkpt>
      <trkpt lat="50.03986" lon="4.11803">
        <ele>233</ele>
        <time>2024-04-28T08:52:04Z</time>
      </trkpt>
      <trkpt lat="50.03992" lon="4.11809">
        <ele>233.2</ele>
        <time>2024-04-28T08:52:05Z</time>
      </trkpt>
      <trkpt lat="50.03998" lon="4.11816">
        <ele>233.2</ele>
        <time>2024-04-28T08:52:06Z</time>
      </trkpt>
      <trkpt lat="50.04005" lon="4.11823">
        <ele>233.4</ele>
        <time>2024-04-28T08:52:07Z</time>
      </trkpt>
      <trkpt lat="50.04012" lon="4.11829">
        <ele>233.4</ele>
        <time>2024-04-28T08:52:08Z</time>
      </trkpt>
      <trkpt lat="50.04019" lon="4.11834">
        <ele>233.4</ele>
        <time>2024-04-28T08:52:09Z</time>
      </trkpt>
      <trkpt lat="50.04026" lon="4.11838">
        <ele>233.6</ele>
        <time>2024-04-28T08:52:10Z</time>
      </trkpt>
      <trkpt lat="50.04034" lon="4.1184">
        <ele>233.6</ele>
        <time>2024-04-28T08:52:11Z</time>
      </trkpt>
      <trkpt lat="50.04041" lon="4.11842">
        <ele>233.6</ele>
        <time>2024-04-28T08:52:12Z</time>
      </trkpt>
      <trkpt lat="50.04049" lon="4.11845">
        <ele>234</ele>
        <time>2024-04-28T08:52:13Z</time>
      </trkpt>
      <trkpt lat="50.04056" lon="4.11848">
        <ele>234.8</ele>
        <time>2024-04-28T08:52:14Z</time>
      </trkpt>
      <trkpt lat="50.04064" lon="4.11852">
        <ele>235.2</ele>
        <time>2024-04-28T08:52:15Z</time>
      </trkpt>
      <trkpt lat="50.04071" lon="4.11855">
        <ele>235.2</ele>
        <time>2024-04-28T08:52:16Z</time>
      </trkpt>
      <trkpt lat="50.04079" lon="4.11858">
        <ele>235.6</ele>
        <time>2024-04-28T08:52:17Z</time>
      </trkpt>
      <trkpt lat="50.04087" lon="4.11861">
        <ele>235.4</ele>
        <time>2024-04-28T08:52:18Z</time>
      </trkpt>
      <trkpt lat="50.04095" lon="4.11865">
        <ele>235.6</ele>
        <time>2024-04-28T08:52:19Z</time>
      </trkpt>
      <trkpt lat="50.04103" lon="4.11868">
        <ele>235.4</ele>
        <time>2024-04-28T08:52:20Z</time>
      </trkpt>
      <trkpt lat="50.04111" lon="4.11871">
        <ele>235.4</ele>
        <time>2024-04-28T08:52:21Z</time>
      </trkpt>
      <trkpt lat="50.0412" lon="4.11874">
        <ele>235.6</ele>
        <time>2024-04-28T08:52:22Z</time>
      </trkpt>
      <trkpt lat="50.04129" lon="4.11877">
        <ele>235.6</ele>
        <time>2024-04-28T08:52:23Z</time>
      </trkpt>
      <trkpt lat="50.04138" lon="4.1188">
        <ele>235.6</ele>
        <time>2024-04-28T08:52:24Z</time>
      </trkpt>
      <trkpt lat="50.04148" lon="4.11883">
        <ele>235.6</ele>
        <time>2024-04-28T08:52:25Z</time>
      </trkpt>
      <trkpt lat="50.04157" lon="4.11886">
        <ele>235.4</ele>
        <time>2024-04-28T08:52:26Z</time>
      </trkpt>
      <trkpt lat="50.04166" lon="4.11889">
        <ele>235.2</ele>
        <time>2024-04-28T08:52:27Z</time>
      </trkpt>
      <trkpt lat="50.04175" lon="4.11891">
        <ele>235.2</ele>
        <time>2024-04-28T08:52:28Z</time>
      </trkpt>
      <trkpt lat="50.04185" lon="4.11893">
        <ele>234.6</ele>
        <time>2024-04-28T08:52:29Z</time>
      </trkpt>
      <trkpt lat="50.04194" lon="4.11894">
        <ele>234.2</ele>
        <time>2024-04-28T08:52:30Z</time>
      </trkpt>
      <trkpt lat="50.04203" lon="4.11896">
        <ele>233.8</ele>
        <time>2024-04-28T08:52:31Z</time>
      </trkpt>
      <trkpt lat="50.04213" lon="4.11897">
        <ele>233</ele>
        <time>2024-04-28T08:52:32Z</time>
      </trkpt>
      <trkpt lat="50.04222" lon="4.11898">
        <ele>232.6</ele>
        <time>2024-04-28T08:52:33Z</time>
      </trkpt>
      <trkpt lat="50.04232" lon="4.11899">
        <ele>232.2</ele>
        <time>2024-04-28T08:52:34Z</time>
      </trkpt>
      <trkpt lat="50.04241" lon="4.11899">
        <ele>232</ele>
        <time>2024-04-28T08:52:35Z</time>
      </trkpt>
      <trkpt lat="50.04251" lon="4.11898">
        <ele>231.8</ele>
        <time>2024-04-28T08:52:36Z</time>
      </trkpt>
      <trkpt lat="50.04261" lon="4.11897">
        <ele>231.6</ele>
        <time>2024-04-28T08:52:37Z</time>
      </trkpt>
      <trkpt lat="50.04271" lon="4.11896">
        <ele>231</ele>
        <time>2024-04-28T08:52:38Z</time>
      </trkpt>
      <trkpt lat="50.04282" lon="4.11893">
        <ele>230.6</ele>
        <time>2024-04-28T08:52:39Z</time>
      </trkpt>
      <trkpt lat="50.04292" lon="4.11891">
        <ele>230.6</ele>
        <time>2024-04-28T08:52:40Z</time>
      </trkpt>
      <trkpt lat="50.04303" lon="4.11889">
        <ele>230.2</ele>
        <time>2024-04-28T08:52:41Z</time>
      </trkpt>
      <trkpt lat="50.04314" lon="4.11887">
        <ele>230.2</ele>
        <time>2024-04-28T08:52:42Z</time>
      </trkpt>
      <trkpt lat="50.04325" lon="4.11885">
        <ele>230</ele>
        <time>2024-04-28T08:52:43Z</time>
      </trkpt>
      <trkpt lat="50.04336" lon="4.11882">
        <ele>229.6</ele>
        <time>2024-04-28T08:52:44Z</time>
      </trkpt>
      <trkpt lat="50.04348" lon="4.11879">
        <ele>229.4</ele>
        <time>2024-04-28T08:52:45Z</time>
      </trkpt>
      <trkpt lat="50.04359" lon="4.11876">
        <ele>229</ele>
        <time>2024-04-28T08:52:46Z</time>
      </trkpt>
      <trkpt lat="50.04371" lon="4.11872">
        <ele>228.8</ele>
        <time>2024-04-28T08:52:47Z</time>
      </trkpt>
      <trkpt lat="50.04383" lon="4.11868">
        <ele>228.2</ele>
        <time>2024-04-28T08:52:48Z</time>
      </trkpt>
      <trkpt lat="50.04395" lon="4.11863">
        <ele>227.4</ele>
        <time>2024-04-28T08:52:49Z</time>
      </trkpt>
      <trkpt lat="50.04406" lon="4.11857">
        <ele>227</ele>
        <time>2024-04-28T08:52:50Z</time>
      </trkpt>
      <trkpt lat="50.04418" lon="4.11852">
        <ele>226.4</ele>
        <time>2024-04-28T08:52:51Z</time>
      </trkpt>
      <trkpt lat="50.0443" lon="4.11846">
        <ele>225.6</ele>
        <time>2024-04-28T08:52:52Z</time>
      </trkpt>
      <trkpt lat="50.04441" lon="4.11841">
        <ele>224.6</ele>
        <time>2024-04-28T08:52:53Z</time>
      </trkpt>
      <trkpt lat="50.04453" lon="4.11836">
        <ele>224</ele>
        <time>2024-04-28T08:52:54Z</time>
      </trkpt>
      <trkpt lat="50.04464" lon="4.1183">
        <ele>223.4</ele>
        <time>2024-04-28T08:52:55Z</time>
      </trkpt>
      <trkpt lat="50.04475" lon="4.11825">
        <ele>223.4</ele>
        <time>2024-04-28T08:52:56Z</time>
      </trkpt>
      <trkpt lat="50.04487" lon="4.11819">
        <ele>223.2</ele>
        <time>2024-04-28T08:52:57Z</time>
      </trkpt>
      <trkpt lat="50.04498" lon="4.11814">
        <ele>223</ele>
        <time>2024-04-28T08:52:58Z</time>
      </trkpt>
      <trkpt lat="50.04509" lon="4.11808">
        <ele>222.8</ele>
        <time>2024-04-28T08:52:59Z</time>
      </trkpt>
      <trkpt lat="50.0452" lon="4.11803">
        <ele>222.4</ele>
        <time>2024-04-28T08:53:00Z</time>
      </trkpt>
      <trkpt lat="50.0453" lon="4.11798">
        <ele>222.4</ele>
        <time>2024-04-28T08:53:01Z</time>
      </trkpt>
      <trkpt lat="50.0454" lon="4.11793">
        <ele>222.2</ele>
        <time>2024-04-28T08:53:02Z</time>
      </trkpt>
      <trkpt lat="50.0455" lon="4.11788">
        <ele>222.2</ele>
        <time>2024-04-28T08:53:03Z</time>
      </trkpt>
      <trkpt lat="50.0456" lon="4.11783">
        <ele>222.2</ele>
        <time>2024-04-28T08:53:04Z</time>
      </trkpt>
      <trkpt lat="50.0457" lon="4.11779">
        <ele>222</ele>
        <time>2024-04-28T08:53:05Z</time>
      </trkpt>
      <trkpt lat="50.0458" lon="4.11775">
        <ele>221.8</ele>
        <time>2024-04-28T08:53:06Z</time>
      </trkpt>
      <trkpt lat="50.0459" lon="4.1177">
        <ele>221.8</ele>
        <time>2024-04-28T08:53:07Z</time>
      </trkpt>
      <trkpt lat="50.046" lon="4.11766">
        <ele>221.6</ele>
        <time>2024-04-28T08:53:08Z</time>
      </trkpt>
      <trkpt lat="50.0461" lon="4.11762">
        <ele>221.8</ele>
        <time>2024-04-28T08:53:09Z</time>
      </trkpt>
      <trkpt lat="50.0462" lon="4.11758">
        <ele>221.6</ele>
        <time>2024-04-28T08:53:10Z</time>
      </trkpt>
      <trkpt lat="50.0463" lon="4.11754">
        <ele>221.4</ele>
        <time>2024-04-28T08:53:11Z</time>
      </trkpt>
      <trkpt lat="50.0464" lon="4.1175">
        <ele>221.4</ele>
        <time>2024-04-28T08:53:12Z</time>
      </trkpt>
      <trkpt lat="50.04651" lon="4.11746">
        <ele>221.4</ele>
        <time>2024-04-28T08:53:13Z</time>
      </trkpt>
      <trkpt lat="50.04661" lon="4.11742">
        <ele>221.4</ele>
        <time>2024-04-28T08:53:14Z</time>
      </trkpt>
      <trkpt lat="50.04671" lon="4.11738">
        <ele>221.6</ele>
        <time>2024-04-28T08:53:15Z</time>
      </trkpt>
      <trkpt lat="50.04681" lon="4.11733">
        <ele>221.6</ele>
        <time>2024-04-28T08:53:16Z</time>
      </trkpt>
      <trkpt lat="50.04691" lon="4.11729">
        <ele>221.6</ele>
        <time>2024-04-28T08:53:17Z</time>
      </trkpt>
      <trkpt lat="50.04701" lon="4.11724">
        <ele>221.6</ele>
        <time>2024-04-28T08:53:18Z</time>
      </trkpt>
      <trkpt lat="50.04711" lon="4.11719">
        <ele>221.4</ele>
        <time>2024-04-28T08:53:19Z</time>
      </trkpt>
      <trkpt lat="50.04721" lon="4.11713">
        <ele>221.4</ele>
        <time>2024-04-28T08:53:20Z</time>
      </trkpt>
      <trkpt lat="50.04731" lon="4.11707">
        <ele>221.4</ele>
        <time>2024-04-28T08:53:21Z</time>
      </trkpt>
      <trkpt lat="50.04741" lon="4.117">
        <ele>221.2</ele>
        <time>2024-04-28T08:53:22Z</time>
      </trkpt>
      <trkpt lat="50.04751" lon="4.11694">
        <ele>221.2</ele>
        <time>2024-04-28T08:53:23Z</time>
      </trkpt>
      <trkpt lat="50.04761" lon="4.11687">
        <ele>221</ele>
        <time>2024-04-28T08:53:24Z</time>
      </trkpt>
      <trkpt lat="50.04771" lon="4.1168">
        <ele>221</ele>
        <time>2024-04-28T08:53:25Z</time>
      </trkpt>
      <trkpt lat="50.04781" lon="4.11673">
        <ele>221</ele>
        <time>2024-04-28T08:53:26Z</time>
      </trkpt>
      <trkpt lat="50.04791" lon="4.11666">
        <ele>221</ele>
        <time>2024-04-28T08:53:27Z</time>
      </trkpt>
      <trkpt lat="50.04801" lon="4.11658">
        <ele>221</ele>
        <time>2024-04-28T08:53:28Z</time>
      </trkpt>
      <trkpt lat="50.04811" lon="4.11651">
        <ele>221</ele>
        <time>2024-04-28T08:53:29Z</time>
      </trkpt>
      <trkpt lat="50.04821" lon="4.11644">
        <ele>221</ele>
        <time>2024-04-28T08:53:30Z</time>
      </trkpt>
      <trkpt lat="50.04831" lon="4.11637">
        <ele>220.8</ele>
        <time>2024-04-28T08:53:31Z</time>
      </trkpt>
      <trkpt lat="50.04841" lon="4.1163">
        <ele>220.8</ele>
        <time>2024-04-28T08:53:32Z</time>
      </trkpt>
      <trkpt lat="50.04851" lon="4.11622">
        <ele>220.8</ele>
        <time>2024-04-28T08:53:33Z</time>
      </trkpt>
      <trkpt lat="50.0486" lon="4.11614">
        <ele>220.6</ele>
        <time>2024-04-28T08:53:34Z</time>
      </trkpt>
      <trkpt lat="50.0487" lon="4.11607">
        <ele>220.6</ele>
        <time>2024-04-28T08:53:35Z</time>
      </trkpt>
      <trkpt lat="50.0488" lon="4.116">
        <ele>220.4</ele>
        <time>2024-04-28T08:53:36Z</time>
      </trkpt>
      <trkpt lat="50.0489" lon="4.11593">
        <ele>220.4</ele>
        <time>2024-04-28T08:53:37Z</time>
      </trkpt>
      <trkpt lat="50.049" lon="4.11586">
        <ele>220.4</ele>
        <time>2024-04-28T08:53:38Z</time>
      </trkpt>
      <trkpt lat="50.0491" lon="4.11579">
        <ele>220.4</ele>
        <time>2024-04-28T08:53:39Z</time>
      </trkpt>
      <trkpt lat="50.04921" lon="4.11571">
        <ele>220.4</ele>
        <time>2024-04-28T08:53:40Z</time>
      </trkpt>
      <trkpt lat="50.04931" lon="4.11564">
        <ele>220.6</ele>
        <time>2024-04-28T08:53:41Z</time>
      </trkpt>
      <trkpt lat="50.04941" lon="4.11556">
        <ele>220.6</ele>
        <time>2024-04-28T08:53:42Z</time>
      </trkpt>
      <trkpt lat="50.04951" lon="4.11548">
        <ele>220.6</ele>
        <time>2024-04-28T08:53:43Z</time>
      </trkpt>
      <trkpt lat="50.04961" lon="4.11541">
        <ele>220.8</ele>
        <time>2024-04-28T08:53:44Z</time>
      </trkpt>
      <trkpt lat="50.04972" lon="4.11534">
        <ele>220.8</ele>
        <time>2024-04-28T08:53:45Z</time>
      </trkpt>
      <trkpt lat="50.04982" lon="4.11526">
        <ele>221.2</ele>
        <time>2024-04-28T08:53:46Z</time>
      </trkpt>
      <trkpt lat="50.04992" lon="4.11519">
        <ele>221.6</ele>
        <time>2024-04-28T08:53:47Z</time>
      </trkpt>
      <trkpt lat="50.05002" lon="4.11511">
        <ele>221.6</ele>
        <time>2024-04-28T08:53:48Z</time>
      </trkpt>
      <trkpt lat="50.05012" lon="4.11502">
        <ele>221.6</ele>
        <time>2024-04-28T08:53:49Z</time>
      </trkpt>
      <trkpt lat="50.05022" lon="4.11494">
        <ele>221.6</ele>
        <time>2024-04-28T08:53:50Z</time>
      </trkpt>
      <trkpt lat="50.05031" lon="4.11485">
        <ele>221.8</ele>
        <time>2024-04-28T08:53:51Z</time>
      </trkpt>
      <trkpt lat="50.05041" lon="4.11476">
        <ele>221.8</ele>
        <time>2024-04-28T08:53:52Z</time>
      </trkpt>
      <trkpt lat="50.0505" lon="4.11468">
        <ele>221.8</ele>
        <time>2024-04-28T08:53:53Z</time>
      </trkpt>
      <trkpt lat="50.05059" lon="4.11461">
        <ele>222</ele>
        <time>2024-04-28T08:53:54Z</time>
      </trkpt>
      <trkpt lat="50.05068" lon="4.11453">
        <ele>222</ele>
        <time>2024-04-28T08:53:55Z</time>
      </trkpt>
      <trkpt lat="50.05077" lon="4.11446">
        <ele>222</ele>
        <time>2024-04-28T08:53:56Z</time>
      </trkpt>
      <trkpt lat="50.05086" lon="4.11439">
        <ele>222.6</ele>
        <time>2024-04-28T08:53:57Z</time>
      </trkpt>
      <trkpt lat="50.05095" lon="4.11432">
        <ele>222.6</ele>
        <time>2024-04-28T08:53:58Z</time>
      </trkpt>
      <trkpt lat="50.05103" lon="4.11425">
        <ele>222.8</ele>
        <time>2024-04-28T08:53:59Z</time>
      </trkpt>
      <trkpt lat="50.05112" lon="4.11418">
        <ele>223</ele>
        <time>2024-04-28T08:54:00Z</time>
      </trkpt>
      <trkpt lat="50.05121" lon="4.11411">
        <ele>223.2</ele>
        <time>2024-04-28T08:54:01Z</time>
      </trkpt>
      <trkpt lat="50.05131" lon="4.11404">
        <ele>223.6</ele>
        <time>2024-04-28T08:54:02Z</time>
      </trkpt>
      <trkpt lat="50.0514" lon="4.11397">
        <ele>223.6</ele>
        <time>2024-04-28T08:54:03Z</time>
      </trkpt>
      <trkpt lat="50.05149" lon="4.11389">
        <ele>223.6</ele>
        <time>2024-04-28T08:54:04Z</time>
      </trkpt>
      <trkpt lat="50.05159" lon="4.11382">
        <ele>223.8</ele>
        <time>2024-04-28T08:54:05Z</time>
      </trkpt>
      <trkpt lat="50.05168" lon="4.11374">
        <ele>223.8</ele>
        <time>2024-04-28T08:54:06Z</time>
      </trkpt>
      <trkpt lat="50.05178" lon="4.11366">
        <ele>223.8</ele>
        <time>2024-04-28T08:54:07Z</time>
      </trkpt>
      <trkpt lat="50.05188" lon="4.11358">
        <ele>223.8</ele>
        <time>2024-04-28T08:54:08Z</time>
      </trkpt>
      <trkpt lat="50.05197" lon="4.11349">
        <ele>223.8</ele>
        <time>2024-04-28T08:54:09Z</time>
      </trkpt>
      <trkpt lat="50.05207" lon="4.1134">
        <ele>223.8</ele>
        <time>2024-04-28T08:54:10Z</time>
      </trkpt>
      <trkpt lat="50.05216" lon="4.1133">
        <ele>223.8</ele>
        <time>2024-04-28T08:54:11Z</time>
      </trkpt>
      <trkpt lat="50.05224" lon="4.1132">
        <ele>223.8</ele>
        <time>2024-04-28T08:54:12Z</time>
      </trkpt>
      <trkpt lat="50.05233" lon="4.11308">
        <ele>223.4</ele>
        <time>2024-04-28T08:54:13Z</time>
      </trkpt>
      <trkpt lat="50.05241" lon="4.11296">
        <ele>222.6</ele>
        <time>2024-04-28T08:54:14Z</time>
      </trkpt>
      <trkpt lat="50.0525" lon="4.11283">
        <ele>222</ele>
        <time>2024-04-28T08:54:15Z</time>
      </trkpt>
      <trkpt lat="50.05257" lon="4.1127">
        <ele>221.2</ele>
        <time>2024-04-28T08:54:16Z</time>
      </trkpt>
      <trkpt lat="50.05265" lon="4.11256">
        <ele>220.8</ele>
        <time>2024-04-28T08:54:17Z</time>
      </trkpt>
      <trkpt lat="50.05273" lon="4.11242">
        <ele>220.2</ele>
        <time>2024-04-28T08:54:18Z</time>
      </trkpt>
      <trkpt lat="50.05281" lon="4.11228">
        <ele>219.8</ele>
        <time>2024-04-28T08:54:19Z</time>
      </trkpt>
      <trkpt lat="50.05288" lon="4.11214">
        <ele>219.8</ele>
        <time>2024-04-28T08:54:20Z</time>
      </trkpt>
      <trkpt lat="50.05296" lon="4.11201">
        <ele>219.4</ele>
        <time>2024-04-28T08:54:21Z</time>
      </trkpt>
      <trkpt lat="50.05305" lon="4.11189">
        <ele>219</ele>
        <time>2024-04-28T08:54:22Z</time>
      </trkpt>
      <trkpt lat="50.05313" lon="4.11178">
        <ele>218.4</ele>
        <time>2024-04-28T08:54:23Z</time>
      </trkpt>
      <trkpt lat="50.05322" lon="4.11167">
        <ele>216.4</ele>
        <time>2024-04-28T08:54:24Z</time>
      </trkpt>
      <trkpt lat="50.05331" lon="4.11158">
        <ele>215</ele>
        <time>2024-04-28T08:54:25Z</time>
      </trkpt>
      <trkpt lat="50.05341" lon="4.11149">
        <ele>213.8</ele>
        <time>2024-04-28T08:54:26Z</time>
      </trkpt>
      <trkpt lat="50.0535" lon="4.11141">
        <ele>213</ele>
        <time>2024-04-28T08:54:27Z</time>
      </trkpt>
      <trkpt lat="50.05359" lon="4.11134">
        <ele>212.6</ele>
        <time>2024-04-28T08:54:28Z</time>
      </trkpt>
      <trkpt lat="50.05369" lon="4.11127">
        <ele>212.2</ele>
        <time>2024-04-28T08:54:29Z</time>
      </trkpt>
      <trkpt lat="50.05378" lon="4.11121">
        <ele>212</ele>
        <time>2024-04-28T08:54:30Z</time>
      </trkpt>
      <trkpt lat="50.05387" lon="4.11115">
        <ele>211.6</ele>
        <time>2024-04-28T08:54:31Z</time>
      </trkpt>
      <trkpt lat="50.05397" lon="4.11109">
        <ele>211.4</ele>
        <time>2024-04-28T08:54:32Z</time>
      </trkpt>
      <trkpt lat="50.05406" lon="4.11103">
        <ele>211.2</ele>
        <time>2024-04-28T08:54:33Z</time>
      </trkpt>
      <trkpt lat="50.05415" lon="4.11097">
        <ele>211.2</ele>
        <time>2024-04-28T08:54:34Z</time>
      </trkpt>
      <trkpt lat="50.05424" lon="4.11091">
        <ele>211</ele>
        <time>2024-04-28T08:54:35Z</time>
      </trkpt>
      <trkpt lat="50.05432" lon="4.11084">
        <ele>211</ele>
        <time>2024-04-28T08:54:36Z</time>
      </trkpt>
      <trkpt lat="50.0544" lon="4.11076">
        <ele>210.8</ele>
        <time>2024-04-28T08:54:37Z</time>
      </trkpt>
      <trkpt lat="50.05447" lon="4.11067">
        <ele>210.4</ele>
        <time>2024-04-28T08:54:38Z</time>
      </trkpt>
      <trkpt lat="50.05455" lon="4.11058">
        <ele>210.4</ele>
        <time>2024-04-28T08:54:39Z</time>
      </trkpt>
      <trkpt lat="50.05462" lon="4.11049">
        <ele>210.2</ele>
        <time>2024-04-28T08:54:40Z</time>
      </trkpt>
      <trkpt lat="50.05468" lon="4.11039">
        <ele>210.2</ele>
        <time>2024-04-28T08:54:41Z</time>
      </trkpt>
      <trkpt lat="50.05475" lon="4.1103">
        <ele>210.4</ele>
        <time>2024-04-28T08:54:42Z</time>
      </trkpt>
      <trkpt lat="50.05482" lon="4.11022">
        <ele>210.2</ele>
        <time>2024-04-28T08:54:43Z</time>
      </trkpt>
      <trkpt lat="50.05489" lon="4.11014">
        <ele>210.2</ele>
        <time>2024-04-28T08:54:44Z</time>
      </trkpt>
      <trkpt lat="50.05496" lon="4.11007">
        <ele>210</ele>
        <time>2024-04-28T08:54:45Z</time>
      </trkpt>
      <trkpt lat="50.05504" lon="4.11">
        <ele>210</ele>
        <time>2024-04-28T08:54:46Z</time>
      </trkpt>
      <trkpt lat="50.05511" lon="4.10993">
        <ele>209.8</ele>
        <time>2024-04-28T08:54:47Z</time>
      </trkpt>
      <trkpt lat="50.05519" lon="4.10986">
        <ele>210</ele>
        <time>2024-04-28T08:54:48Z</time>
      </trkpt>
      <trkpt lat="50.05527" lon="4.10979">
        <ele>210</ele>
        <time>2024-04-28T08:54:49Z</time>
      </trkpt>
      <trkpt lat="50.05535" lon="4.10972">
        <ele>209.8</ele>
        <time>2024-04-28T08:54:50Z</time>
      </trkpt>
      <trkpt lat="50.05542" lon="4.10964">
        <ele>209.6</ele>
        <time>2024-04-28T08:54:51Z</time>
      </trkpt>
      <trkpt lat="50.0555" lon="4.10957">
        <ele>209.6</ele>
        <time>2024-04-28T08:54:52Z</time>
      </trkpt>
      <trkpt lat="50.05558" lon="4.10949">
        <ele>209.4</ele>
        <time>2024-04-28T08:54:53Z</time>
      </trkpt>
      <trkpt lat="50.05566" lon="4.1094">
        <ele>209.4</ele>
        <time>2024-04-28T08:54:54Z</time>
      </trkpt>
      <trkpt lat="50.05574" lon="4.10932">
        <ele>209</ele>
        <time>2024-04-28T08:54:55Z</time>
      </trkpt>
      <trkpt lat="50.05581" lon="4.10923">
        <ele>208.8</ele>
        <time>2024-04-28T08:54:56Z</time>
      </trkpt>
      <trkpt lat="50.05588" lon="4.10914">
        <ele>208.6</ele>
        <time>2024-04-28T08:54:57Z</time>
      </trkpt>
      <trkpt lat="50.05596" lon="4.10905">
        <ele>208.6</ele>
        <time>2024-04-28T08:54:58Z</time>
      </trkpt>
      <trkpt lat="50.05603" lon="4.10897">
        <ele>208.4</ele>
        <time>2024-04-28T08:54:59Z</time>
      </trkpt>
      <trkpt lat="50.0561" lon="4.10888">
        <ele>208.2</ele>
        <time>2024-04-28T08:55:00Z</time>
      </trkpt>
      <trkpt lat="50.05618" lon="4.1088">
        <ele>208.4</ele>
        <time>2024-04-28T08:55:01Z</time>
      </trkpt>
      <trkpt lat="50.05625" lon="4.10871">
        <ele>208.4</ele>
        <time>2024-04-28T08:55:02Z</time>
      </trkpt>
      <trkpt lat="50.05633" lon="4.10862">
        <ele>208.2</ele>
        <time>2024-04-28T08:55:03Z</time>
      </trkpt>
      <trkpt lat="50.0564" lon="4.10854">
        <ele>208.2</ele>
        <time>2024-04-28T08:55:04Z</time>
      </trkpt>
      <trkpt lat="50.05648" lon="4.10846">
        <ele>208.2</ele>
        <time>2024-04-28T08:55:05Z</time>
      </trkpt>
      <trkpt lat="50.05656" lon="4.10837">
        <ele>208</ele>
        <time>2024-04-28T08:55:06Z</time>
      </trkpt>
      <trkpt lat="50.05664" lon="4.10828">
        <ele>208</ele>
        <time>2024-04-28T08:55:07Z</time>
      </trkpt>
      <trkpt lat="50.05672" lon="4.1082">
        <ele>207.8</ele>
        <time>2024-04-28T08:55:08Z</time>
      </trkpt>
      <trkpt lat="50.0568" lon="4.10811">
        <ele>208</ele>
        <time>2024-04-28T08:55:09Z</time>
      </trkpt>
      <trkpt lat="50.05688" lon="4.10802">
        <ele>207.8</ele>
        <time>2024-04-28T08:55:10Z</time>
      </trkpt>
      <trkpt lat="50.05696" lon="4.10793">
        <ele>207.8</ele>
        <time>2024-04-28T08:55:11Z</time>
      </trkpt>
      <trkpt lat="50.05704" lon="4.10785">
        <ele>207.4</ele>
        <time>2024-04-28T08:55:12Z</time>
      </trkpt>
      <trkpt lat="50.05712" lon="4.10776">
        <ele>206.8</ele>
        <time>2024-04-28T08:55:13Z</time>
      </trkpt>
      <trkpt lat="50.05719" lon="4.10768">
        <ele>206.6</ele>
        <time>2024-04-28T08:55:14Z</time>
      </trkpt>
      <trkpt lat="50.05727" lon="4.10759">
        <ele>206.2</ele>
        <time>2024-04-28T08:55:15Z</time>
      </trkpt>
      <trkpt lat="50.05734" lon="4.10751">
        <ele>205.8</ele>
        <time>2024-04-28T08:55:16Z</time>
      </trkpt>
      <trkpt lat="50.05742" lon="4.10742">
        <ele>205.2</ele>
        <time>2024-04-28T08:55:17Z</time>
      </trkpt>
      <trkpt lat="50.05749" lon="4.10734">
        <ele>204.6</ele>
        <time>2024-04-28T08:55:18Z</time>
      </trkpt>
      <trkpt lat="50.05757" lon="4.10726">
        <ele>203.6</ele>
        <time>2024-04-28T08:55:19Z</time>
      </trkpt>
      <trkpt lat="50.05764" lon="4.10718">
        <ele>203.2</ele>
        <time>2024-04-28T08:55:20Z</time>
      </trkpt>
      <trkpt lat="50.05771" lon="4.10709">
        <ele>202.8</ele>
        <time>2024-04-28T08:55:21Z</time>
      </trkpt>
      <trkpt lat="50.05778" lon="4.10701">
        <ele>202.4</ele>
        <time>2024-04-28T08:55:22Z</time>
      </trkpt>
      <trkpt lat="50.05785" lon="4.10693">
        <ele>202.6</ele>
        <time>2024-04-28T08:55:23Z</time>
      </trkpt>
      <trkpt lat="50.05792" lon="4.10686">
        <ele>202.2</ele>
        <time>2024-04-28T08:55:24Z</time>
      </trkpt>
      <trkpt lat="50.05799" lon="4.10679">
        <ele>202</ele>
        <time>2024-04-28T08:55:25Z</time>
      </trkpt>
      <trkpt lat="50.05805" lon="4.10671">
        <ele>202</ele>
        <time>2024-04-28T08:55:26Z</time>
      </trkpt>
      <trkpt lat="50.0581" lon="4.10663">
        <ele>201.4</ele>
        <time>2024-04-28T08:55:27Z</time>
      </trkpt>
      <trkpt lat="50.05816" lon="4.10656">
        <ele>201.4</ele>
        <time>2024-04-28T08:55:28Z</time>
      </trkpt>
      <trkpt lat="50.05821" lon="4.10649">
        <ele>201.2</ele>
        <time>2024-04-28T08:55:29Z</time>
      </trkpt>
      <trkpt lat="50.05825" lon="4.10641">
        <ele>201.2</ele>
        <time>2024-04-28T08:55:30Z</time>
      </trkpt>
      <trkpt lat="50.05827" lon="4.10634">
        <ele>201.4</ele>
        <time>2024-04-28T08:55:31Z</time>
      </trkpt>
      <trkpt lat="50.05827" lon="4.10626">
        <ele>201.6</ele>
        <time>2024-04-28T08:55:32Z</time>
      </trkpt>
      <trkpt lat="50.05825" lon="4.10619">
        <ele>201.6</ele>
        <time>2024-04-28T08:55:33Z</time>
      </trkpt>
      <trkpt lat="50.05822" lon="4.10612">
        <ele>201.8</ele>
        <time>2024-04-28T08:55:34Z</time>
      </trkpt>
      <trkpt lat="50.05818" lon="4.10607">
        <ele>201.6</ele>
        <time>2024-04-28T08:55:35Z</time>
      </trkpt>
      <trkpt lat="50.05813" lon="4.10601">
        <ele>201.4</ele>
        <time>2024-04-28T08:55:36Z</time>
      </trkpt>
      <trkpt lat="50.05808" lon="4.10596">
        <ele>201</ele>
        <time>2024-04-28T08:55:37Z</time>
      </trkpt>
      <trkpt lat="50.05804" lon="4.10589">
        <ele>201</ele>
        <time>2024-04-28T08:55:38Z</time>
      </trkpt>
      <trkpt lat="50.05799" lon="4.10583">
        <ele>200.8</ele>
        <time>2024-04-28T08:55:39Z</time>
      </trkpt>
      <trkpt lat="50.05794" lon="4.10577">
        <ele>200.8</ele>
        <time>2024-04-28T08:55:40Z</time>
      </trkpt>
      <trkpt lat="50.05789" lon="4.1057">
        <ele>200.8</ele>
        <time>2024-04-28T08:55:41Z</time>
      </trkpt>
      <trkpt lat="50.05783" lon="4.10564">
        <ele>200.8</ele>
        <time>2024-04-28T08:55:42Z</time>
      </trkpt>
      <trkpt lat="50.05778" lon="4.10557">
        <ele>200.6</ele>
        <time>2024-04-28T08:55:43Z</time>
      </trkpt>
      <trkpt lat="50.05774" lon="4.10548">
        <ele>200.6</ele>
        <time>2024-04-28T08:55:44Z</time>
      </trkpt>
      <trkpt lat="50.05772" lon="4.10538">
        <ele>200.6</ele>
        <time>2024-04-28T08:55:45Z</time>
      </trkpt>
      <trkpt lat="50.0577" lon="4.10526">
        <ele>200.4</ele>
        <time>2024-04-28T08:55:46Z</time>
      </trkpt>
      <trkpt lat="50.05768" lon="4.10513">
        <ele>200.2</ele>
        <time>2024-04-28T08:55:47Z</time>
      </trkpt>
      <trkpt lat="50.05766" lon="4.105">
        <ele>200.2</ele>
        <time>2024-04-28T08:55:48Z</time>
      </trkpt>
      <trkpt lat="50.05765" lon="4.10487">
        <ele>199.8</ele>
        <time>2024-04-28T08:55:49Z</time>
      </trkpt>
      <trkpt lat="50.05764" lon="4.10473">
        <ele>199.4</ele>
        <time>2024-04-28T08:55:50Z</time>
      </trkpt>
      <trkpt lat="50.05763" lon="4.10459">
        <ele>198.6</ele>
        <time>2024-04-28T08:55:51Z</time>
      </trkpt>
      <trkpt lat="50.05761" lon="4.10445">
        <ele>198</ele>
        <time>2024-04-28T08:55:52Z</time>
      </trkpt>
      <trkpt lat="50.0576" lon="4.10431">
        <ele>197.6</ele>
        <time>2024-04-28T08:55:53Z</time>
      </trkpt>
      <trkpt lat="50.0576" lon="4.10417">
        <ele>197.4</ele>
        <time>2024-04-28T08:55:54Z</time>
      </trkpt>
      <trkpt lat="50.05762" lon="4.10404">
        <ele>196.6</ele>
        <time>2024-04-28T08:55:55Z</time>
      </trkpt>
      <trkpt lat="50.05764" lon="4.1039">
        <ele>196.2</ele>
        <time>2024-04-28T08:55:56Z</time>
      </trkpt>
      <trkpt lat="50.05767" lon="4.10377">
        <ele>195.8</ele>
        <time>2024-04-28T08:55:57Z</time>
      </trkpt>
      <trkpt lat="50.05769" lon="4.10364">
        <ele>195.2</ele>
        <time>2024-04-28T08:55:58Z</time>
      </trkpt>
      <trkpt lat="50.05772" lon="4.10351">
        <ele>194.4</ele>
        <time>2024-04-28T08:55:59Z</time>
      </trkpt>
      <trkpt lat="50.05775" lon="4.10338">
        <ele>194.4</ele>
        <time>2024-04-28T08:56:00Z</time>
      </trkpt>
      <trkpt lat="50.05777" lon="4.10326">
        <ele>193.6</ele>
        <time>2024-04-28T08:56:01Z</time>
      </trkpt>
      <trkpt lat="50.05779" lon="4.10314">
        <ele>193.4</ele>
        <time>2024-04-28T08:56:02Z</time>
      </trkpt>
      <trkpt lat="50.0578" lon="4.10303">
        <ele>193</ele>
        <time>2024-04-28T08:56:03Z</time>
      </trkpt>
      <trkpt lat="50.05781" lon="4.10292">
        <ele>192.8</ele>
        <time>2024-04-28T08:56:04Z</time>
      </trkpt>
      <trkpt lat="50.05781" lon="4.10282">
        <ele>192.4</ele>
        <time>2024-04-28T08:56:05Z</time>
      </trkpt>
      <trkpt lat="50.05781" lon="4.10274">
        <ele>192.2</ele>
        <time>2024-04-28T08:56:06Z</time>
      </trkpt>
      <trkpt lat="50.05781" lon="4.10266">
        <ele>192.2</ele>
        <time>2024-04-28T08:56:07Z</time>
      </trkpt>
      <trkpt lat="50.05781" lon="4.10261">
        <ele>192.4</ele>
        <time>2024-04-28T08:56:08Z</time>
      </trkpt>
      <trkpt lat="50.05782" lon="4.10257">
        <ele>192.2</ele>
        <time>2024-04-28T08:56:09Z</time>
      </trkpt>
      <trkpt lat="50.05782" lon="4.10254">
        <ele>192.2</ele>
        <time>2024-04-28T08:56:10Z</time>
      </trkpt>
      <trkpt lat="50.05783" lon="4.1025">
        <ele>192.2</ele>
        <time>2024-04-28T08:56:11Z</time>
      </trkpt>
      <trkpt lat="50.05785" lon="4.10246">
        <ele>192.2</ele>
        <time>2024-04-28T08:56:12Z</time>
      </trkpt>
      <trkpt lat="50.05786" lon="4.10242">
        <ele>192.4</ele>
        <time>2024-04-28T08:56:13Z</time>
      </trkpt>
      <trkpt lat="50.05788" lon="4.1024">
        <ele>192.4</ele>
        <time>2024-04-28T08:56:14Z</time>
      </trkpt>
      <trkpt lat="50.05789" lon="4.10239">
        <ele>192.6</ele>
        <time>2024-04-28T08:56:15Z</time>
      </trkpt>
      <trkpt lat="50.05791" lon="4.10239">
        <ele>192.6</ele>
        <time>2024-04-28T08:56:16Z</time>
      </trkpt>
      <trkpt lat="50.05793" lon="4.10239">
        <ele>192.6</ele>
        <time>2024-04-28T08:56:17Z</time>
      </trkpt>
      <trkpt lat="50.05796" lon="4.10239">
        <ele>192.8</ele>
        <time>2024-04-28T08:56:18Z</time>
      </trkpt>
      <trkpt lat="50.05799" lon="4.10238">
        <ele>192.8</ele>
        <time>2024-04-28T08:56:19Z</time>
      </trkpt>
      <trkpt lat="50.05803" lon="4.10235">
        <ele>192.8</ele>
        <time>2024-04-28T08:56:20Z</time>
      </trkpt>
      <trkpt lat="50.05806" lon="4.10232">
        <ele>192.8</ele>
        <time>2024-04-28T08:56:21Z</time>
      </trkpt>
      <trkpt lat="50.0581" lon="4.10227">
        <ele>192.8</ele>
        <time>2024-04-28T08:56:22Z</time>
      </trkpt>
      <trkpt lat="50.05814" lon="4.1022">
        <ele>192.8</ele>
        <time>2024-04-28T08:56:23Z</time>
      </trkpt>
      <trkpt lat="50.05819" lon="4.10212">
        <ele>192.8</ele>
        <time>2024-04-28T08:56:24Z</time>
      </trkpt>
      <trkpt lat="50.05824" lon="4.10204">
        <ele>193</ele>
        <time>2024-04-28T08:56:25Z</time>
      </trkpt>
      <trkpt lat="50.0583" lon="4.10197">
        <ele>192.8</ele>
        <time>2024-04-28T08:56:26Z</time>
      </trkpt>
      <trkpt lat="50.05836" lon="4.10189">
        <ele>192.8</ele>
        <time>2024-04-28T08:56:27Z</time>
      </trkpt>
      <trkpt lat="50.05843" lon="4.10181">
        <ele>192.8</ele>
        <time>2024-04-28T08:56:28Z</time>
      </trkpt>
      <trkpt lat="50.05851" lon="4.10173">
        <ele>192.8</ele>
        <time>2024-04-28T08:56:29Z</time>
      </trkpt>
      <trkpt lat="50.05858" lon="4.10165">
        <ele>192.4</ele>
        <time>2024-04-28T08:56:30Z</time>
      </trkpt>
      <trkpt lat="50.05866" lon="4.10157">
        <ele>192.4</ele>
        <time>2024-04-28T08:56:31Z</time>
      </trkpt>
      <trkpt lat="50.05873" lon="4.10149">
        <ele>191.2</ele>
        <time>2024-04-28T08:56:32Z</time>
      </trkpt>
      <trkpt lat="50.05881" lon="4.10141">
        <ele>190</ele>
        <time>2024-04-28T08:56:33Z</time>
      </trkpt>
      <trkpt lat="50.05888" lon="4.10134">
        <ele>188.8</ele>
        <time>2024-04-28T08:56:34Z</time>
      </trkpt>
      <trkpt lat="50.05896" lon="4.10127">
        <ele>188</ele>
        <time>2024-04-28T08:56:35Z</time>
      </trkpt>
      <trkpt lat="50.05903" lon="4.10121">
        <ele>188</ele>
        <time>2024-04-28T08:56:36Z</time>
      </trkpt>
      <trkpt lat="50.0591" lon="4.10115">
        <ele>187.8</ele>
        <time>2024-04-28T08:56:37Z</time>
      </trkpt>
      <trkpt lat="50.05916" lon="4.1011">
        <ele>187.6</ele>
        <time>2024-04-28T08:56:38Z</time>
      </trkpt>
      <trkpt lat="50.05922" lon="4.10107">
        <ele>187.6</ele>
        <time>2024-04-28T08:56:39Z</time>
      </trkpt>
      <trkpt lat="50.05927" lon="4.10104">
        <ele>187.4</ele>
        <time>2024-04-28T08:56:40Z</time>
      </trkpt>
      <trkpt lat="50.05932" lon="4.10103">
        <ele>187.4</ele>
        <time>2024-04-28T08:56:41Z</time>
      </trkpt>
      <trkpt lat="50.05937" lon="4.10105">
        <ele>187.2</ele>
        <time>2024-04-28T08:56:42Z</time>
      </trkpt>
      <trkpt lat="50.05941" lon="4.10108">
        <ele>187</ele>
        <time>2024-04-28T08:56:43Z</time>
      </trkpt>
      <trkpt lat="50.05946" lon="4.10114">
        <ele>186.8</ele>
        <time>2024-04-28T08:56:44Z</time>
      </trkpt>
      <trkpt lat="50.0595" lon="4.10122">
        <ele>186.4</ele>
        <time>2024-04-28T08:56:45Z</time>
      </trkpt>
      <trkpt lat="50.05954" lon="4.1013">
        <ele>186.4</ele>
        <time>2024-04-28T08:56:46Z</time>
      </trkpt>
      <trkpt lat="50.05959" lon="4.10138">
        <ele>186</ele>
        <time>2024-04-28T08:56:47Z</time>
      </trkpt>
      <trkpt lat="50.05965" lon="4.10145">
        <ele>186</ele>
        <time>2024-04-28T08:56:48Z</time>
      </trkpt>
      <trkpt lat="50.05971" lon="4.10151">
        <ele>185.8</ele>
        <time>2024-04-28T08:56:49Z</time>
      </trkpt>
      <trkpt lat="50.05978" lon="4.10157">
        <ele>185.4</ele>
        <time>2024-04-28T08:56:50Z</time>
      </trkpt>
      <trkpt lat="50.05985" lon="4.10163">
        <ele>185.4</ele>
        <time>2024-04-28T08:56:51Z</time>
      </trkpt>
      <trkpt lat="50.05992" lon="4.10168">
        <ele>185.2</ele>
        <time>2024-04-28T08:56:52Z</time>
      </trkpt>
      <trkpt lat="50.06" lon="4.10171">
        <ele>185</ele>
        <time>2024-04-28T08:56:53Z</time>
      </trkpt>
      <trkpt lat="50.06008" lon="4.10171">
        <ele>185</ele>
        <time>2024-04-28T08:56:54Z</time>
      </trkpt>
      <trkpt lat="50.06016" lon="4.10169">
        <ele>184.8</ele>
        <time>2024-04-28T08:56:55Z</time>
      </trkpt>
      <trkpt lat="50.06024" lon="4.10164">
        <ele>184.8</ele>
        <time>2024-04-28T08:56:56Z</time>
      </trkpt>
      <trkpt lat="50.06032" lon="4.10157">
        <ele>184.2</ele>
        <time>2024-04-28T08:56:57Z</time>
      </trkpt>
      <trkpt lat="50.06039" lon="4.1015">
        <ele>183.2</ele>
        <time>2024-04-28T08:56:58Z</time>
      </trkpt>
      <trkpt lat="50.06046" lon="4.10143">
        <ele>182.2</ele>
        <time>2024-04-28T08:56:59Z</time>
      </trkpt>
      <trkpt lat="50.06054" lon="4.10137">
        <ele>181.6</ele>
        <time>2024-04-28T08:57:00Z</time>
      </trkpt>
      <trkpt lat="50.06063" lon="4.10134">
        <ele>181.2</ele>
        <time>2024-04-28T08:57:01Z</time>
      </trkpt>
      <trkpt lat="50.06072" lon="4.10133">
        <ele>180.6</ele>
        <time>2024-04-28T08:57:02Z</time>
      </trkpt>
      <trkpt lat="50.06081" lon="4.10133">
        <ele>180.2</ele>
        <time>2024-04-28T08:57:03Z</time>
      </trkpt>
      <trkpt lat="50.06089" lon="4.10135">
        <ele>179.8</ele>
        <time>2024-04-28T08:57:04Z</time>
      </trkpt>
      <trkpt lat="50.06098" lon="4.10137">
        <ele>179.8</ele>
        <time>2024-04-28T08:57:05Z</time>
      </trkpt>
      <trkpt lat="50.06107" lon="4.10139">
        <ele>179.6</ele>
        <time>2024-04-28T08:57:06Z</time>
      </trkpt>
      <trkpt lat="50.06115" lon="4.10141">
        <ele>179.2</ele>
        <time>2024-04-28T08:57:07Z</time>
      </trkpt>
      <trkpt lat="50.06124" lon="4.10143">
        <ele>179.4</ele>
        <time>2024-04-28T08:57:08Z</time>
      </trkpt>
      <trkpt lat="50.06132" lon="4.10144">
        <ele>179</ele>
        <time>2024-04-28T08:57:09Z</time>
      </trkpt>
      <trkpt lat="50.06141" lon="4.10146">
        <ele>179</ele>
        <time>2024-04-28T08:57:10Z</time>
      </trkpt>
      <trkpt lat="50.0615" lon="4.10147">
        <ele>178.8</ele>
        <time>2024-04-28T08:57:11Z</time>
      </trkpt>
      <trkpt lat="50.06158" lon="4.10149">
        <ele>178.4</ele>
        <time>2024-04-28T08:57:12Z</time>
      </trkpt>
      <trkpt lat="50.06167" lon="4.10151">
        <ele>178</ele>
        <time>2024-04-28T08:57:13Z</time>
      </trkpt>
      <trkpt lat="50.06175" lon="4.10153">
        <ele>177.8</ele>
        <time>2024-04-28T08:57:14Z</time>
      </trkpt>
      <trkpt lat="50.06184" lon="4.10155">
        <ele>177.6</ele>
        <time>2024-04-28T08:57:15Z</time>
      </trkpt>
      <trkpt lat="50.06193" lon="4.10156">
        <ele>177.4</ele>
        <time>2024-04-28T08:57:16Z</time>
      </trkpt>
      <trkpt lat="50.06202" lon="4.10158">
        <ele>177.2</ele>
        <time>2024-04-28T08:57:17Z</time>
      </trkpt>
      <trkpt lat="50.06211" lon="4.10159">
        <ele>177</ele>
        <time>2024-04-28T08:57:18Z</time>
      </trkpt>
      <trkpt lat="50.06219" lon="4.1016">
        <ele>176.6</ele>
        <time>2024-04-28T08:57:19Z</time>
      </trkpt>
      <trkpt lat="50.06228" lon="4.10162">
        <ele>176.6</ele>
        <time>2024-04-28T08:57:20Z</time>
      </trkpt>
      <trkpt lat="50.06236" lon="4.10165">
        <ele>176.4</ele>
        <time>2024-04-28T08:57:21Z</time>
      </trkpt>
      <trkpt lat="50.06244" lon="4.10169">
        <ele>176</ele>
        <time>2024-04-28T08:57:22Z</time>
      </trkpt>
      <trkpt lat="50.06252" lon="4.10175">
        <ele>175.4</ele>
        <time>2024-04-28T08:57:23Z</time>
      </trkpt>
      <trkpt lat="50.0626" lon="4.10181">
        <ele>175.2</ele>
        <time>2024-04-28T08:57:24Z</time>
      </trkpt>
      <trkpt lat="50.06268" lon="4.10187">
        <ele>174.8</ele>
        <time>2024-04-28T08:57:25Z</time>
      </trkpt>
      <trkpt lat="50.06276" lon="4.10192">
        <ele>174.8</ele>
        <time>2024-04-28T08:57:26Z</time>
      </trkpt>
      <trkpt lat="50.06284" lon="4.10197">
        <ele>174.6</ele>
        <time>2024-04-28T08:57:27Z</time>
      </trkpt>
      <trkpt lat="50.06292" lon="4.102">
        <ele>174.6</ele>
        <time>2024-04-28T08:57:28Z</time>
      </trkpt>
      <trkpt lat="50.06301" lon="4.102">
        <ele>174.6</ele>
        <time>2024-04-28T08:57:29Z</time>
      </trkpt>
      <trkpt lat="50.0631" lon="4.10199">
        <ele>174.6</ele>
        <time>2024-04-28T08:57:30Z</time>
      </trkpt>
      <trkpt lat="50.06319" lon="4.10195">
        <ele>174.4</ele>
        <time>2024-04-28T08:57:31Z</time>
      </trkpt>
      <trkpt lat="50.06327" lon="4.1019">
        <ele>174.2</ele>
        <time>2024-04-28T08:57:32Z</time>
      </trkpt>
      <trkpt lat="50.06334" lon="4.10182">
        <ele>174.4</ele>
        <time>2024-04-28T08:57:33Z</time>
      </trkpt>
      <trkpt lat="50.06341" lon="4.10173">
        <ele>174.2</ele>
        <time>2024-04-28T08:57:34Z</time>
      </trkpt>
      <trkpt lat="50.06347" lon="4.10162">
        <ele>174.2</ele>
        <time>2024-04-28T08:57:35Z</time>
      </trkpt>
      <trkpt lat="50.06351" lon="4.1015">
        <ele>174</ele>
        <time>2024-04-28T08:57:36Z</time>
      </trkpt>
      <trkpt lat="50.06356" lon="4.10138">
        <ele>174</ele>
        <time>2024-04-28T08:57:37Z</time>
      </trkpt>
      <trkpt lat="50.0636" lon="4.10125">
        <ele>174</ele>
        <time>2024-04-28T08:57:38Z</time>
      </trkpt>
      <trkpt lat="50.06363" lon="4.10113">
        <ele>173.8</ele>
        <time>2024-04-28T08:57:39Z</time>
      </trkpt>
      <trkpt lat="50.06366" lon="4.10101">
        <ele>173.6</ele>
        <time>2024-04-28T08:57:40Z</time>
      </trkpt>
      <trkpt lat="50.0637" lon="4.10089">
        <ele>173.4</ele>
        <time>2024-04-28T08:57:41Z</time>
      </trkpt>
      <trkpt lat="50.06374" lon="4.10078">
        <ele>173.2</ele>
        <time>2024-04-28T08:57:42Z</time>
      </trkpt>
      <trkpt lat="50.06379" lon="4.10068">
        <ele>173</ele>
        <time>2024-04-28T08:57:43Z</time>
      </trkpt>
      <trkpt lat="50.06385" lon="4.10059">
        <ele>173</ele>
        <time>2024-04-28T08:57:44Z</time>
      </trkpt>
      <trkpt lat="50.06391" lon="4.1005">
        <ele>173</ele>
        <time>2024-04-28T08:57:45Z</time>
      </trkpt>
      <trkpt lat="50.06398" lon="4.10042">
        <ele>173</ele>
        <time>2024-04-28T08:57:46Z</time>
      </trkpt>
      <trkpt lat="50.06404" lon="4.10034">
        <ele>173</ele>
        <time>2024-04-28T08:57:47Z</time>
      </trkpt>
      <trkpt lat="50.06411" lon="4.10027">
        <ele>173</ele>
        <time>2024-04-28T08:57:48Z</time>
      </trkpt>
      <trkpt lat="50.06418" lon="4.10019">
        <ele>173</ele>
        <time>2024-04-28T08:57:49Z</time>
      </trkpt>
      <trkpt lat="50.06424" lon="4.10011">
        <ele>173</ele>
        <time>2024-04-28T08:57:50Z</time>
      </trkpt>
      <trkpt lat="50.06431" lon="4.10003">
        <ele>173</ele>
        <time>2024-04-28T08:57:51Z</time>
      </trkpt>
      <trkpt lat="50.06437" lon="4.09995">
        <ele>173</ele>
        <time>2024-04-28T08:57:52Z</time>
      </trkpt>
      <trkpt lat="50.06443" lon="4.09987">
        <ele>173</ele>
        <time>2024-04-28T08:57:53Z</time>
      </trkpt>
      <trkpt lat="50.0645" lon="4.09979">
        <ele>173.2</ele>
        <time>2024-04-28T08:57:54Z</time>
      </trkpt>
      <trkpt lat="50.06456" lon="4.09971">
        <ele>173</ele>
        <time>2024-04-28T08:57:55Z</time>
      </trkpt>
      <trkpt lat="50.06463" lon="4.09963">
        <ele>172.8</ele>
        <time>2024-04-28T08:57:56Z</time>
      </trkpt>
      <trkpt lat="50.06469" lon="4.09956">
        <ele>173</ele>
        <time>2024-04-28T08:57:57Z</time>
      </trkpt>
      <trkpt lat="50.06476" lon="4.09948">
        <ele>173</ele>
        <time>2024-04-28T08:57:58Z</time>
      </trkpt>
      <trkpt lat="50.06482" lon="4.0994">
        <ele>173</ele>
        <time>2024-04-28T08:57:59Z</time>
      </trkpt>
      <trkpt lat="50.06489" lon="4.09932">
        <ele>173</ele>
        <time>2024-04-28T08:58:00Z</time>
      </trkpt>
      <trkpt lat="50.06495" lon="4.09924">
        <ele>173</ele>
        <time>2024-04-28T08:58:01Z</time>
      </trkpt>
      <trkpt lat="50.06502" lon="4.09916">
        <ele>173.2</ele>
        <time>2024-04-28T08:58:02Z</time>
      </trkpt>
      <trkpt lat="50.06509" lon="4.09909">
        <ele>173.2</ele>
        <time>2024-04-28T08:58:03Z</time>
      </trkpt>
      <trkpt lat="50.06517" lon="4.09902">
        <ele>173.2</ele>
        <time>2024-04-28T08:58:04Z</time>
      </trkpt>
      <trkpt lat="50.06525" lon="4.09896">
        <ele>173.2</ele>
        <time>2024-04-28T08:58:05Z</time>
      </trkpt>
      <trkpt lat="50.06533" lon="4.09892">
        <ele>173.4</ele>
        <time>2024-04-28T08:58:06Z</time>
      </trkpt>
      <trkpt lat="50.06542" lon="4.09889">
        <ele>173.2</ele>
        <time>2024-04-28T08:58:07Z</time>
      </trkpt>
      <trkpt lat="50.06551" lon="4.09888">
        <ele>173</ele>
        <time>2024-04-28T08:58:08Z</time>
      </trkpt>
      <trkpt lat="50.0656" lon="4.09889">
        <ele>173</ele>
        <time>2024-04-28T08:58:09Z</time>
      </trkpt>
      <trkpt lat="50.06569" lon="4.09891">
        <ele>173</ele>
        <time>2024-04-28T08:58:10Z</time>
      </trkpt>
      <trkpt lat="50.06577" lon="4.09895">
        <ele>172.8</ele>
        <time>2024-04-28T08:58:11Z</time>
      </trkpt>
      <trkpt lat="50.06586" lon="4.099">
        <ele>172.8</ele>
        <time>2024-04-28T08:58:12Z</time>
      </trkpt>
      <trkpt lat="50.06594" lon="4.09905">
        <ele>172.8</ele>
        <time>2024-04-28T08:58:13Z</time>
      </trkpt>
      <trkpt lat="50.06603" lon="4.09912">
        <ele>172.8</ele>
        <time>2024-04-28T08:58:14Z</time>
      </trkpt>
      <trkpt lat="50.06611" lon="4.09918">
        <ele>172.8</ele>
        <time>2024-04-28T08:58:15Z</time>
      </trkpt>
      <trkpt lat="50.0662" lon="4.09925">
        <ele>173</ele>
        <time>2024-04-28T08:58:16Z</time>
      </trkpt>
      <trkpt lat="50.06628" lon="4.09931">
        <ele>172.8</ele>
        <time>2024-04-28T08:58:17Z</time>
      </trkpt>
      <trkpt lat="50.06636" lon="4.09937">
        <ele>172.8</ele>
        <time>2024-04-28T08:58:18Z</time>
      </trkpt>
      <trkpt lat="50.06644" lon="4.09943">
        <ele>172.8</ele>
        <time>2024-04-28T08:58:19Z</time>
      </trkpt>
      <trkpt lat="50.06652" lon="4.09948">
        <ele>172.6</ele>
        <time>2024-04-28T08:58:20Z</time>
      </trkpt>
      <trkpt lat="50.0666" lon="4.09954">
        <ele>172.6</ele>
        <time>2024-04-28T08:58:21Z</time>
      </trkpt>
      <trkpt lat="50.06668" lon="4.0996">
        <ele>172.8</ele>
        <time>2024-04-28T08:58:22Z</time>
      </trkpt>
      <trkpt lat="50.06675" lon="4.09967">
        <ele>172.6</ele>
        <time>2024-04-28T08:58:23Z</time>
      </trkpt>
      <trkpt lat="50.06683" lon="4.09974">
        <ele>172.4</ele>
        <time>2024-04-28T08:58:24Z</time>
      </trkpt>
      <trkpt lat="50.06691" lon="4.0998">
        <ele>172.4</ele>
        <time>2024-04-28T08:58:25Z</time>
      </trkpt>
      <trkpt lat="50.06698" lon="4.09987">
        <ele>172.4</ele>
        <time>2024-04-28T08:58:26Z</time>
      </trkpt>
      <trkpt lat="50.06706" lon="4.09993">
        <ele>172.4</ele>
        <time>2024-04-28T08:58:27Z</time>
      </trkpt>
      <trkpt lat="50.06714" lon="4.09999">
        <ele>172.4</ele>
        <time>2024-04-28T08:58:28Z</time>
      </trkpt>
      <trkpt lat="50.06722" lon="4.10005">
        <ele>172.4</ele>
        <time>2024-04-28T08:58:29Z</time>
      </trkpt>
      <trkpt lat="50.0673" lon="4.10012">
        <ele>172.6</ele>
        <time>2024-04-28T08:58:30Z</time>
      </trkpt>
      <trkpt lat="50.06738" lon="4.10018">
        <ele>172.6</ele>
        <time>2024-04-28T08:58:31Z</time>
      </trkpt>
      <trkpt lat="50.06745" lon="4.10024">
        <ele>172.4</ele>
        <time>2024-04-28T08:58:32Z</time>
      </trkpt>
      <trkpt lat="50.06753" lon="4.10031">
        <ele>172.2</ele>
        <time>2024-04-28T08:58:33Z</time>
      </trkpt>
      <trkpt lat="50.0676" lon="4.10038">
        <ele>172.2</ele>
        <time>2024-04-28T08:58:34Z</time>
      </trkpt>
      <trkpt lat="50.06766" lon="4.10046">
        <ele>172.6</ele>
        <time>2024-04-28T08:58:35Z</time>
      </trkpt>
      <trkpt lat="50.06773" lon="4.10054">
        <ele>172.6</ele>
        <time>2024-04-28T08:58:36Z</time>
      </trkpt>
      <trkpt lat="50.0678" lon="4.10062">
        <ele>172.6</ele>
        <time>2024-04-28T08:58:37Z</time>
      </trkpt>
      <trkpt lat="50.06787" lon="4.10071">
        <ele>172.4</ele>
        <time>2024-04-28T08:58:38Z</time>
      </trkpt>
      <trkpt lat="50.06793" lon="4.10079">
        <ele>172.6</ele>
        <time>2024-04-28T08:58:39Z</time>
      </trkpt>
      <trkpt lat="50.068" lon="4.10088">
        <ele>172.4</ele>
        <time>2024-04-28T08:58:40Z</time>
      </trkpt>
      <trkpt lat="50.06807" lon="4.10097">
        <ele>172.6</ele>
        <time>2024-04-28T08:58:41Z</time>
      </trkpt>
      <trkpt lat="50.06814" lon="4.10106">
        <ele>172.6</ele>
        <time>2024-04-28T08:58:42Z</time>
      </trkpt>
      <trkpt lat="50.0682" lon="4.10115">
        <ele>172.6</ele>
        <time>2024-04-28T08:58:43Z</time>
      </trkpt>
      <trkpt lat="50.06827" lon="4.10124">
        <ele>172.6</ele>
        <time>2024-04-28T08:58:44Z</time>
      </trkpt>
      <trkpt lat="50.06834" lon="4.10133">
        <ele>172.6</ele>
        <time>2024-04-28T08:58:45Z</time>
      </trkpt>
      <trkpt lat="50.0684" lon="4.10142">
        <ele>172.8</ele>
        <time>2024-04-28T08:58:46Z</time>
      </trkpt>
      <trkpt lat="50.06847" lon="4.1015">
        <ele>172.8</ele>
        <time>2024-04-28T08:58:47Z</time>
      </trkpt>
      <trkpt lat="50.06854" lon="4.10159">
        <ele>172.8</ele>
        <time>2024-04-28T08:58:48Z</time>
      </trkpt>
      <trkpt lat="50.0686" lon="4.10167">
        <ele>172.8</ele>
        <time>2024-04-28T08:58:49Z</time>
      </trkpt>
      <trkpt lat="50.06867" lon="4.10176">
        <ele>172.6</ele>
        <time>2024-04-28T08:58:50Z</time>
      </trkpt>
      <trkpt lat="50.06874" lon="4.10185">
        <ele>172.6</ele>
        <time>2024-04-28T08:58:51Z</time>
      </trkpt>
      <trkpt lat="50.06881" lon="4.10194">
        <ele>172.8</ele>
        <time>2024-04-28T08:58:52Z</time>
      </trkpt>
      <trkpt lat="50.06888" lon="4.10203">
        <ele>172.6</ele>
        <time>2024-04-28T08:58:53Z</time>
      </trkpt>
      <trkpt lat="50.06895" lon="4.10213">
        <ele>172.4</ele>
        <time>2024-04-28T08:58:54Z</time>
      </trkpt>
      <trkpt lat="50.06902" lon="4.10222">
        <ele>172.4</ele>
        <time>2024-04-28T08:58:55Z</time>
      </trkpt>
      <trkpt lat="50.06909" lon="4.10232">
        <ele>172.2</ele>
        <time>2024-04-28T08:58:56Z</time>
      </trkpt>
      <trkpt lat="50.06917" lon="4.10242">
        <ele>171.8</ele>
        <time>2024-04-28T08:58:57Z</time>
      </trkpt>
      <trkpt lat="50.06924" lon="4.10252">
        <ele>171.4</ele>
        <time>2024-04-28T08:58:58Z</time>
      </trkpt>
      <trkpt lat="50.0693" lon="4.10263">
        <ele>171.2</ele>
        <time>2024-04-28T08:58:59Z</time>
      </trkpt>
      <trkpt lat="50.06936" lon="4.10274">
        <ele>171</ele>
        <time>2024-04-28T08:59:00Z</time>
      </trkpt>
      <trkpt lat="50.06941" lon="4.10287">
        <ele>170.8</ele>
        <time>2024-04-28T08:59:01Z</time>
      </trkpt>
      <trkpt lat="50.06946" lon="4.103">
        <ele>170.8</ele>
        <time>2024-04-28T08:59:02Z</time>
      </trkpt>
      <trkpt lat="50.06949" lon="4.10315">
        <ele>170.6</ele>
        <time>2024-04-28T08:59:03Z</time>
      </trkpt>
      <trkpt lat="50.06952" lon="4.10329">
        <ele>170.4</ele>
        <time>2024-04-28T08:59:04Z</time>
      </trkpt>
      <trkpt lat="50.06954" lon="4.10344">
        <ele>170.2</ele>
        <time>2024-04-28T08:59:05Z</time>
      </trkpt>
      <trkpt lat="50.06955" lon="4.10358">
        <ele>169.8</ele>
        <time>2024-04-28T08:59:06Z</time>
      </trkpt>
      <trkpt lat="50.06956" lon="4.10373">
        <ele>169.6</ele>
        <time>2024-04-28T08:59:07Z</time>
      </trkpt>
      <trkpt lat="50.06956" lon="4.10387">
        <ele>169</ele>
        <time>2024-04-28T08:59:08Z</time>
      </trkpt>
      <trkpt lat="50.06955" lon="4.10401">
        <ele>168.8</ele>
        <time>2024-04-28T08:59:09Z</time>
      </trkpt>
      <trkpt lat="50.06954" lon="4.10416">
        <ele>168.6</ele>
        <time>2024-04-28T08:59:10Z</time>
      </trkpt>
      <trkpt lat="50.06952" lon="4.1043">
        <ele>168.6</ele>
        <time>2024-04-28T08:59:11Z</time>
      </trkpt>
      <trkpt lat="50.06951" lon="4.10444">
        <ele>168.4</ele>
        <time>2024-04-28T08:59:12Z</time>
      </trkpt>
      <trkpt lat="50.0695" lon="4.10458">
        <ele>168.2</ele>
        <time>2024-04-28T08:59:13Z</time>
      </trkpt>
      <trkpt lat="50.0695" lon="4.10471">
        <ele>168.2</ele>
        <time>2024-04-28T08:59:14Z</time>
      </trkpt>
      <trkpt lat="50.06949" lon="4.10485">
        <ele>168.2</ele>
        <time>2024-04-28T08:59:15Z</time>
      </trkpt>
      <trkpt lat="50.06948" lon="4.10498">
        <ele>168.2</ele>
        <time>2024-04-28T08:59:16Z</time>
      </trkpt>
      <trkpt lat="50.06947" lon="4.10512">
        <ele>168.2</ele>
        <time>2024-04-28T08:59:17Z</time>
      </trkpt>
      <trkpt lat="50.06946" lon="4.10525">
        <ele>168.2</ele>
        <time>2024-04-28T08:59:18Z</time>
      </trkpt>
      <trkpt lat="50.06947" lon="4.10539">
        <ele>168.2</ele>
        <time>2024-04-28T08:59:19Z</time>
      </trkpt>
      <trkpt lat="50.06947" lon="4.10552">
        <ele>168</ele>
        <time>2024-04-28T08:59:20Z</time>
      </trkpt>
      <trkpt lat="50.06949" lon="4.10566">
        <ele>168.2</ele>
        <time>2024-04-28T08:59:21Z</time>
      </trkpt>
      <trkpt lat="50.06951" lon="4.1058">
        <ele>168.4</ele>
        <time>2024-04-28T08:59:22Z</time>
      </trkpt>
      <trkpt lat="50.06954" lon="4.10593">
        <ele>168.4</ele>
        <time>2024-04-28T08:59:23Z</time>
      </trkpt>
      <trkpt lat="50.06958" lon="4.10605">
        <ele>168.8</ele>
        <time>2024-04-28T08:59:24Z</time>
      </trkpt>
      <trkpt lat="50.06963" lon="4.10617">
        <ele>169</ele>
        <time>2024-04-28T08:59:25Z</time>
      </trkpt>
      <trkpt lat="50.06969" lon="4.10628">
        <ele>169.2</ele>
        <time>2024-04-28T08:59:26Z</time>
      </trkpt>
      <trkpt lat="50.06975" lon="4.10638">
        <ele>169.2</ele>
        <time>2024-04-28T08:59:27Z</time>
      </trkpt>
      <trkpt lat="50.06982" lon="4.10647">
        <ele>169.2</ele>
        <time>2024-04-28T08:59:28Z</time>
      </trkpt>
      <trkpt lat="50.06989" lon="4.10655">
        <ele>169.2</ele>
        <time>2024-04-28T08:59:29Z</time>
      </trkpt>
      <trkpt lat="50.06997" lon="4.10661">
        <ele>169.4</ele>
        <time>2024-04-28T08:59:30Z</time>
      </trkpt>
      <trkpt lat="50.07005" lon="4.10667">
        <ele>169.8</ele>
        <time>2024-04-28T08:59:31Z</time>
      </trkpt>
      <trkpt lat="50.07014" lon="4.10672">
        <ele>170.2</ele>
        <time>2024-04-28T08:59:32Z</time>
      </trkpt>
      <trkpt lat="50.07023" lon="4.10677">
        <ele>170.6</ele>
        <time>2024-04-28T08:59:33Z</time>
      </trkpt>
      <trkpt lat="50.07031" lon="4.10681">
        <ele>170.6</ele>
        <time>2024-04-28T08:59:34Z</time>
      </trkpt>
      <trkpt lat="50.0704" lon="4.10686">
        <ele>170.6</ele>
        <time>2024-04-28T08:59:35Z</time>
      </trkpt>
      <trkpt lat="50.07049" lon="4.10691">
        <ele>170.6</ele>
        <time>2024-04-28T08:59:36Z</time>
      </trkpt>
      <trkpt lat="50.07057" lon="4.10696">
        <ele>170.6</ele>
        <time>2024-04-28T08:59:37Z</time>
      </trkpt>
      <trkpt lat="50.07066" lon="4.10702">
        <ele>170.6</ele>
        <time>2024-04-28T08:59:38Z</time>
      </trkpt>
      <trkpt lat="50.07074" lon="4.10709">
        <ele>170.8</ele>
        <time>2024-04-28T08:59:39Z</time>
      </trkpt>
      <trkpt lat="50.07081" lon="4.10716">
        <ele>170.6</ele>
        <time>2024-04-28T08:59:40Z</time>
      </trkpt>
      <trkpt lat="50.07089" lon="4.10723">
        <ele>170.6</ele>
        <time>2024-04-28T08:59:41Z</time>
      </trkpt>
      <trkpt lat="50.07096" lon="4.1073">
        <ele>170.6</ele>
        <time>2024-04-28T08:59:42Z</time>
      </trkpt>
      <trkpt lat="50.07103" lon="4.10738">
        <ele>170.6</ele>
        <time>2024-04-28T08:59:43Z</time>
      </trkpt>
      <trkpt lat="50.0711" lon="4.10745">
        <ele>170.6</ele>
        <time>2024-04-28T08:59:44Z</time>
      </trkpt>
      <trkpt lat="50.07117" lon="4.10754">
        <ele>170.6</ele>
        <time>2024-04-28T08:59:45Z</time>
      </trkpt>
      <trkpt lat="50.07124" lon="4.10762">
        <ele>170.8</ele>
        <time>2024-04-28T08:59:46Z</time>
      </trkpt>
      <trkpt lat="50.0713" lon="4.10769">
        <ele>170.6</ele>
        <time>2024-04-28T08:59:47Z</time>
      </trkpt>
      <trkpt lat="50.07136" lon="4.10776">
        <ele>170.6</ele>
        <time>2024-04-28T08:59:48Z</time>
      </trkpt>
      <trkpt lat="50.07142" lon="4.10783">
        <ele>170.6</ele>
        <time>2024-04-28T08:59:49Z</time>
      </trkpt>
      <trkpt lat="50.07148" lon="4.1079">
        <ele>170.6</ele>
        <time>2024-04-28T08:59:50Z</time>
      </trkpt>
      <trkpt lat="50.07152" lon="4.10797">
        <ele>170.8</ele>
        <time>2024-04-28T08:59:51Z</time>
      </trkpt>
      <trkpt lat="50.07154" lon="4.10806">
        <ele>170.6</ele>
        <time>2024-04-28T08:59:52Z</time>
      </trkpt>
      <trkpt lat="50.07155" lon="4.10816">
        <ele>170.6</ele>
        <time>2024-04-28T08:59:53Z</time>
      </trkpt>
      <trkpt lat="50.07154" lon="4.10826">
        <ele>170.8</ele>
        <time>2024-04-28T08:59:54Z</time>
      </trkpt>
      <trkpt lat="50.07153" lon="4.10837">
        <ele>170.8</ele>
        <time>2024-04-28T08:59:55Z</time>
      </trkpt>
      <trkpt lat="50.07151" lon="4.10848">
        <ele>171</ele>
        <time>2024-04-28T08:59:56Z</time>
      </trkpt>
      <trkpt lat="50.0715" lon="4.10859">
        <ele>171.2</ele>
        <time>2024-04-28T08:59:57Z</time>
      </trkpt>
      <trkpt lat="50.07149" lon="4.1087">
        <ele>171.4</ele>
        <time>2024-04-28T08:59:58Z</time>
      </trkpt>
      <trkpt lat="50.07148" lon="4.10881">
        <ele>171.6</ele>
        <time>2024-04-28T08:59:59Z</time>
      </trkpt>
      <trkpt lat="50.07147" lon="4.10893">
        <ele>171.4</ele>
        <time>2024-04-28T09:00:00Z</time>
      </trkpt>
      <trkpt lat="50.07146" lon="4.10905">
        <ele>171.4</ele>
        <time>2024-04-28T09:00:01Z</time>
      </trkpt>
      <trkpt lat="50.07145" lon="4.10918">
        <ele>171.6</ele>
        <time>2024-04-28T09:00:02Z</time>
      </trkpt>
      <trkpt lat="50.07144" lon="4.10931">
        <ele>171.6</ele>
        <time>2024-04-28T09:00:03Z</time>
      </trkpt>
      <trkpt lat="50.07143" lon="4.10944">
        <ele>171.6</ele>
        <time>2024-04-28T09:00:04Z</time>
      </trkpt>
      <trkpt lat="50.07143" lon="4.10956">
        <ele>171.6</ele>
        <time>2024-04-28T09:00:05Z</time>
      </trkpt>
      <trkpt lat="50.07142" lon="4.10968">
        <ele>171.6</ele>
        <time>2024-04-28T09:00:06Z</time>
      </trkpt>
      <trkpt lat="50.07141" lon="4.10979">
        <ele>171.6</ele>
        <time>2024-04-28T09:00:07Z</time>
      </trkpt>
      <trkpt lat="50.0714" lon="4.10991">
        <ele>171.6</ele>
        <time>2024-04-28T09:00:08Z</time>
      </trkpt>
      <trkpt lat="50.07139" lon="4.11003">
        <ele>171.2</ele>
        <time>2024-04-28T09:00:09Z</time>
      </trkpt>
      <trkpt lat="50.07138" lon="4.11015">
        <ele>171.2</ele>
        <time>2024-04-28T09:00:10Z</time>
      </trkpt>
      <trkpt lat="50.07137" lon="4.11027">
        <ele>171</ele>
        <time>2024-04-28T09:00:11Z</time>
      </trkpt>
      <trkpt lat="50.07136" lon="4.1104">
        <ele>170.6</ele>
        <time>2024-04-28T09:00:12Z</time>
      </trkpt>
      <trkpt lat="50.07136" lon="4.11052">
        <ele>170.4</ele>
        <time>2024-04-28T09:00:13Z</time>
      </trkpt>
      <trkpt lat="50.07135" lon="4.11064">
        <ele>170.2</ele>
        <time>2024-04-28T09:00:14Z</time>
      </trkpt>
      <trkpt lat="50.07134" lon="4.11076">
        <ele>170.2</ele>
        <time>2024-04-28T09:00:15Z</time>
      </trkpt>
      <trkpt lat="50.07133" lon="4.11088">
        <ele>170.2</ele>
        <time>2024-04-28T09:00:16Z</time>
      </trkpt>
      <trkpt lat="50.07132" lon="4.11101">
        <ele>170.2</ele>
        <time>2024-04-28T09:00:17Z</time>
      </trkpt>
      <trkpt lat="50.07131" lon="4.11114">
        <ele>170.2</ele>
        <time>2024-04-28T09:00:18Z</time>
      </trkpt>
      <trkpt lat="50.07129" lon="4.11127">
        <ele>170.2</ele>
        <time>2024-04-28T09:00:19Z</time>
      </trkpt>
      <trkpt lat="50.07128" lon="4.1114">
        <ele>170</ele>
        <time>2024-04-28T09:00:20Z</time>
      </trkpt>
      <trkpt lat="50.07127" lon="4.11152">
        <ele>170</ele>
        <time>2024-04-28T09:00:21Z</time>
      </trkpt>
      <trkpt lat="50.07126" lon="4.11165">
        <ele>170</ele>
        <time>2024-04-28T09:00:22Z</time>
      </trkpt>
      <trkpt lat="50.07125" lon="4.11177">
        <ele>170</ele>
        <time>2024-04-28T09:00:23Z</time>
      </trkpt>
      <trkpt lat="50.07123" lon="4.11189">
        <ele>170</ele>
        <time>2024-04-28T09:00:24Z</time>
      </trkpt>
      <trkpt lat="50.07122" lon="4.11201">
        <ele>170</ele>
        <time>2024-04-28T09:00:25Z</time>
      </trkpt>
      <trkpt lat="50.07121" lon="4.11213">
        <ele>170</ele>
        <time>2024-04-28T09:00:26Z</time>
      </trkpt>
      <trkpt lat="50.0712" lon="4.11226">
        <ele>170</ele>
        <time>2024-04-28T09:00:27Z</time>
      </trkpt>
      <trkpt lat="50.07119" lon="4.11238">
        <ele>170</ele>
        <time>2024-04-28T09:00:28Z</time>
      </trkpt>
      <trkpt lat="50.07118" lon="4.1125">
        <ele>170</ele>
        <time>2024-04-28T09:00:29Z</time>
      </trkpt>
      <trkpt lat="50.07117" lon="4.11263">
        <ele>170</ele>
        <time>2024-04-28T09:00:30Z</time>
      </trkpt>
      <trkpt lat="50.07116" lon="4.11275">
        <ele>170</ele>
        <time>2024-04-28T09:00:31Z</time>
      </trkpt>
      <trkpt lat="50.07116" lon="4.11288">
        <ele>170</ele>
        <time>2024-04-28T09:00:32Z</time>
      </trkpt>
      <trkpt lat="50.07115" lon="4.11299">
        <ele>170.2</ele>
        <time>2024-04-28T09:00:33Z</time>
      </trkpt>
      <trkpt lat="50.07114" lon="4.11311">
        <ele>170.2</ele>
        <time>2024-04-28T09:00:34Z</time>
      </trkpt>
      <trkpt lat="50.07114" lon="4.11323">
        <ele>170</ele>
        <time>2024-04-28T09:00:35Z</time>
      </trkpt>
      <trkpt lat="50.07113" lon="4.11334">
        <ele>170.4</ele>
        <time>2024-04-28T09:00:36Z</time>
      </trkpt>
      <trkpt lat="50.07113" lon="4.11345">
        <ele>170.6</ele>
        <time>2024-04-28T09:00:37Z</time>
      </trkpt>
      <trkpt lat="50.07112" lon="4.11357">
        <ele>170.6</ele>
        <time>2024-04-28T09:00:38Z</time>
      </trkpt>
      <trkpt lat="50.07111" lon="4.1137">
        <ele>171</ele>
        <time>2024-04-28T09:00:39Z</time>
      </trkpt>
      <trkpt lat="50.0711" lon="4.11382">
        <ele>171.2</ele>
        <time>2024-04-28T09:00:40Z</time>
      </trkpt>
      <trkpt lat="50.07109" lon="4.11395">
        <ele>171.4</ele>
        <time>2024-04-28T09:00:41Z</time>
      </trkpt>
      <trkpt lat="50.0711" lon="4.11408">
        <ele>171.6</ele>
        <time>2024-04-28T09:00:42Z</time>
      </trkpt>
      <trkpt lat="50.07112" lon="4.11421">
        <ele>171.6</ele>
        <time>2024-04-28T09:00:43Z</time>
      </trkpt>
      <trkpt lat="50.07115" lon="4.11433">
        <ele>171.6</ele>
        <time>2024-04-28T09:00:44Z</time>
      </trkpt>
      <trkpt lat="50.0712" lon="4.11443">
        <ele>171.6</ele>
        <time>2024-04-28T09:00:45Z</time>
      </trkpt>
      <trkpt lat="50.07125" lon="4.11452">
        <ele>171.6</ele>
        <time>2024-04-28T09:00:46Z</time>
      </trkpt>
      <trkpt lat="50.07131" lon="4.11459">
        <ele>171.6</ele>
        <time>2024-04-28T09:00:47Z</time>
      </trkpt>
      <trkpt lat="50.07137" lon="4.11467">
        <ele>171.8</ele>
        <time>2024-04-28T09:00:48Z</time>
      </trkpt>
      <trkpt lat="50.07143" lon="4.11473">
        <ele>171.8</ele>
        <time>2024-04-28T09:00:49Z</time>
      </trkpt>
      <trkpt lat="50.07149" lon="4.11479">
        <ele>171.8</ele>
        <time>2024-04-28T09:00:50Z</time>
      </trkpt>
      <trkpt lat="50.07155" lon="4.11485">
        <ele>171.8</ele>
        <time>2024-04-28T09:00:51Z</time>
      </trkpt>
      <trkpt lat="50.07161" lon="4.11491">
        <ele>171.8</ele>
        <time>2024-04-28T09:00:52Z</time>
      </trkpt>
      <trkpt lat="50.07166" lon="4.11498">
        <ele>171.8</ele>
        <time>2024-04-28T09:00:53Z</time>
      </trkpt>
      <trkpt lat="50.07172" lon="4.11503">
        <ele>172</ele>
        <time>2024-04-28T09:00:54Z</time>
      </trkpt>
      <trkpt lat="50.07177" lon="4.11508">
        <ele>172.2</ele>
        <time>2024-04-28T09:00:55Z</time>
      </trkpt>
      <trkpt lat="50.07182" lon="4.11513">
        <ele>172.4</ele>
        <time>2024-04-28T09:00:56Z</time>
      </trkpt>
      <trkpt lat="50.07187" lon="4.11518">
        <ele>172.8</ele>
        <time>2024-04-28T09:00:57Z</time>
      </trkpt>
      <trkpt lat="50.07193" lon="4.11523">
        <ele>173.4</ele>
        <time>2024-04-28T09:00:58Z</time>
      </trkpt>
      <trkpt lat="50.07198" lon="4.11528">
        <ele>173.8</ele>
        <time>2024-04-28T09:00:59Z</time>
      </trkpt>
      <trkpt lat="50.07203" lon="4.11533">
        <ele>174.2</ele>
        <time>2024-04-28T09:01:00Z</time>
      </trkpt>
      <trkpt lat="50.07208" lon="4.11539">
        <ele>174.6</ele>
        <time>2024-04-28T09:01:01Z</time>
      </trkpt>
      <trkpt lat="50.07213" lon="4.11543">
        <ele>175</ele>
        <time>2024-04-28T09:01:02Z</time>
      </trkpt>
      <trkpt lat="50.07218" lon="4.11548">
        <ele>175.2</ele>
        <time>2024-04-28T09:01:03Z</time>
      </trkpt>
      <trkpt lat="50.07224" lon="4.11553">
        <ele>175.8</ele>
        <time>2024-04-28T09:01:04Z</time>
      </trkpt>
      <trkpt lat="50.07229" lon="4.11558">
        <ele>176.2</ele>
        <time>2024-04-28T09:01:05Z</time>
      </trkpt>
      <trkpt lat="50.07234" lon="4.11563">
        <ele>176.4</ele>
        <time>2024-04-28T09:01:06Z</time>
      </trkpt>
      <trkpt lat="50.07239" lon="4.11568">
        <ele>176.4</ele>
        <time>2024-04-28T09:01:07Z</time>
      </trkpt>
      <trkpt lat="50.07244" lon="4.11572">
        <ele>176.8</ele>
        <time>2024-04-28T09:01:08Z</time>
      </trkpt>
      <trkpt lat="50.07249" lon="4.11577">
        <ele>177</ele>
        <time>2024-04-28T09:01:09Z</time>
      </trkpt>
      <trkpt lat="50.07254" lon="4.11582">
        <ele>177.2</ele>
        <time>2024-04-28T09:01:10Z</time>
      </trkpt>
      <trkpt lat="50.07259" lon="4.11586">
        <ele>177.4</ele>
        <time>2024-04-28T09:01:11Z</time>
      </trkpt>
      <trkpt lat="50.07264" lon="4.11591">
        <ele>177.8</ele>
        <time>2024-04-28T09:01:12Z</time>
      </trkpt>
      <trkpt lat="50.07269" lon="4.11596">
        <ele>178</ele>
        <time>2024-04-28T09:01:13Z</time>
      </trkpt>
      <trkpt lat="50.07274" lon="4.116">
        <ele>178.2</ele>
        <time>2024-04-28T09:01:14Z</time>
      </trkpt>
      <trkpt lat="50.07278" lon="4.11605">
        <ele>178.6</ele>
        <time>2024-04-28T09:01:15Z</time>
      </trkpt>
      <trkpt lat="50.07283" lon="4.11609">
        <ele>178.8</ele>
        <time>2024-04-28T09:01:16Z</time>
      </trkpt>
      <trkpt lat="50.07288" lon="4.11615">
        <ele>179</ele>
        <time>2024-04-28T09:01:17Z</time>
      </trkpt>
      <trkpt lat="50.07293" lon="4.1162">
        <ele>179.4</ele>
        <time>2024-04-28T09:01:18Z</time>
      </trkpt>
      <trkpt lat="50.07298" lon="4.11625">
        <ele>179.8</ele>
        <time>2024-04-28T09:01:19Z</time>
      </trkpt>
      <trkpt lat="50.07303" lon="4.1163">
        <ele>180</ele>
        <time>2024-04-28T09:01:20Z</time>
      </trkpt>
      <trkpt lat="50.07309" lon="4.11635">
        <ele>180.4</ele>
        <time>2024-04-28T09:01:21Z</time>
      </trkpt>
      <trkpt lat="50.07313" lon="4.1164">
        <ele>181</ele>
        <time>2024-04-28T09:01:22Z</time>
      </trkpt>
      <trkpt lat="50.07318" lon="4.11645">
        <ele>181</ele>
        <time>2024-04-28T09:01:23Z</time>
      </trkpt>
      <trkpt lat="50.07324" lon="4.11651">
        <ele>181.8</ele>
        <time>2024-04-28T09:01:24Z</time>
      </trkpt>
      <trkpt lat="50.07329" lon="4.11656">
        <ele>182.4</ele>
        <time>2024-04-28T09:01:25Z</time>
      </trkpt>
      <trkpt lat="50.07334" lon="4.11662">
        <ele>182.8</ele>
        <time>2024-04-28T09:01:26Z</time>
      </trkpt>
      <trkpt lat="50.0734" lon="4.11667">
        <ele>182.8</ele>
        <time>2024-04-28T09:01:27Z</time>
      </trkpt>
      <trkpt lat="50.07345" lon="4.11672">
        <ele>183</ele>
        <time>2024-04-28T09:01:28Z</time>
      </trkpt>
      <trkpt lat="50.0735" lon="4.11677">
        <ele>183.4</ele>
        <time>2024-04-28T09:01:29Z</time>
      </trkpt>
      <trkpt lat="50.07355" lon="4.11683">
        <ele>183.4</ele>
        <time>2024-04-28T09:01:30Z</time>
      </trkpt>
      <trkpt lat="50.07361" lon="4.11688">
        <ele>183.8</ele>
        <time>2024-04-28T09:01:31Z</time>
      </trkpt>
      <trkpt lat="50.07366" lon="4.11694">
        <ele>184.4</ele>
        <time>2024-04-28T09:01:32Z</time>
      </trkpt>
      <trkpt lat="50.07372" lon="4.11699">
        <ele>184.8</ele>
        <time>2024-04-28T09:01:33Z</time>
      </trkpt>
      <trkpt lat="50.07377" lon="4.11705">
        <ele>185.2</ele>
        <time>2024-04-28T09:01:34Z</time>
      </trkpt>
      <trkpt lat="50.07382" lon="4.11711">
        <ele>185.2</ele>
        <time>2024-04-28T09:01:35Z</time>
      </trkpt>
      <trkpt lat="50.07388" lon="4.11716">
        <ele>185.6</ele>
        <time>2024-04-28T09:01:36Z</time>
      </trkpt>
      <trkpt lat="50.07393" lon="4.11722">
        <ele>185.8</ele>
        <time>2024-04-28T09:01:37Z</time>
      </trkpt>
      <trkpt lat="50.07399" lon="4.11727">
        <ele>186</ele>
        <time>2024-04-28T09:01:38Z</time>
      </trkpt>
      <trkpt lat="50.07405" lon="4.11733">
        <ele>186</ele>
        <time>2024-04-28T09:01:39Z</time>
      </trkpt>
      <trkpt lat="50.07411" lon="4.1174">
        <ele>186</ele>
        <time>2024-04-28T09:01:40Z</time>
      </trkpt>
      <trkpt lat="50.07417" lon="4.11746">
        <ele>186</ele>
        <time>2024-04-28T09:01:41Z</time>
      </trkpt>
      <trkpt lat="50.07424" lon="4.11752">
        <ele>185.8</ele>
        <time>2024-04-28T09:01:42Z</time>
      </trkpt>
      <trkpt lat="50.0743" lon="4.11758">
        <ele>186</ele>
        <time>2024-04-28T09:01:43Z</time>
      </trkpt>
      <trkpt lat="50.07437" lon="4.11765">
        <ele>186</ele>
        <time>2024-04-28T09:01:44Z</time>
      </trkpt>
      <trkpt lat="50.07444" lon="4.11771">
        <ele>186</ele>
        <time>2024-04-28T09:01:45Z</time>
      </trkpt>
      <trkpt lat="50.07451" lon="4.11778">
        <ele>186</ele>
        <time>2024-04-28T09:01:46Z</time>
      </trkpt>
      <trkpt lat="50.07458" lon="4.11785">
        <ele>185.8</ele>
        <time>2024-04-28T09:01:47Z</time>
      </trkpt>
      <trkpt lat="50.07464" lon="4.11792">
        <ele>185.8</ele>
        <time>2024-04-28T09:01:48Z</time>
      </trkpt>
      <trkpt lat="50.07471" lon="4.11799">
        <ele>186</ele>
        <time>2024-04-28T09:01:49Z</time>
      </trkpt>
      <trkpt lat="50.07478" lon="4.11805">
        <ele>185.8</ele>
        <time>2024-04-28T09:01:50Z</time>
      </trkpt>
      <trkpt lat="50.07485" lon="4.11812">
        <ele>185.6</ele>
        <time>2024-04-28T09:01:51Z</time>
      </trkpt>
      <trkpt lat="50.07492" lon="4.1182">
        <ele>185.4</ele>
        <time>2024-04-28T09:01:52Z</time>
      </trkpt>
      <trkpt lat="50.07499" lon="4.11827">
        <ele>185.2</ele>
        <time>2024-04-28T09:01:53Z</time>
      </trkpt>
      <trkpt lat="50.07506" lon="4.11834">
        <ele>185</ele>
        <time>2024-04-28T09:01:54Z</time>
      </trkpt>
      <trkpt lat="50.07514" lon="4.11841">
        <ele>184.6</ele>
        <time>2024-04-28T09:01:55Z</time>
      </trkpt>
      <trkpt lat="50.07521" lon="4.11849">
        <ele>184.6</ele>
        <time>2024-04-28T09:01:56Z</time>
      </trkpt>
      <trkpt lat="50.07527" lon="4.11856">
        <ele>184.6</ele>
        <time>2024-04-28T09:01:57Z</time>
      </trkpt>
      <trkpt lat="50.07534" lon="4.11863">
        <ele>184.4</ele>
        <time>2024-04-28T09:01:58Z</time>
      </trkpt>
      <trkpt lat="50.0754" lon="4.11869">
        <ele>184.4</ele>
        <time>2024-04-28T09:01:59Z</time>
      </trkpt>
      <trkpt lat="50.07547" lon="4.11876">
        <ele>184.4</ele>
        <time>2024-04-28T09:02:00Z</time>
      </trkpt>
      <trkpt lat="50.07553" lon="4.11882">
        <ele>184.6</ele>
        <time>2024-04-28T09:02:01Z</time>
      </trkpt>
      <trkpt lat="50.0756" lon="4.11889">
        <ele>184.4</ele>
        <time>2024-04-28T09:02:02Z</time>
      </trkpt>
      <trkpt lat="50.07566" lon="4.11896">
        <ele>184.4</ele>
        <time>2024-04-28T09:02:03Z</time>
      </trkpt>
      <trkpt lat="50.07573" lon="4.11902">
        <ele>184.6</ele>
        <time>2024-04-28T09:02:04Z</time>
      </trkpt>
      <trkpt lat="50.0758" lon="4.11909">
        <ele>184.6</ele>
        <time>2024-04-28T09:02:05Z</time>
      </trkpt>
      <trkpt lat="50.07586" lon="4.11915">
        <ele>184.4</ele>
        <time>2024-04-28T09:02:06Z</time>
      </trkpt>
      <trkpt lat="50.07592" lon="4.11921">
        <ele>184.6</ele>
        <time>2024-04-28T09:02:07Z</time>
      </trkpt>
      <trkpt lat="50.07598" lon="4.11927">
        <ele>184.6</ele>
        <time>2024-04-28T09:02:08Z</time>
      </trkpt>
      <trkpt lat="50.07605" lon="4.11934">
        <ele>184.8</ele>
        <time>2024-04-28T09:02:09Z</time>
      </trkpt>
      <trkpt lat="50.07611" lon="4.1194">
        <ele>185.2</ele>
        <time>2024-04-28T09:02:10Z</time>
      </trkpt>
      <trkpt lat="50.07617" lon="4.11946">
        <ele>185.2</ele>
        <time>2024-04-28T09:02:11Z</time>
      </trkpt>
      <trkpt lat="50.07623" lon="4.11952">
        <ele>185.6</ele>
        <time>2024-04-28T09:02:12Z</time>
      </trkpt>
      <trkpt lat="50.07629" lon="4.11959">
        <ele>186</ele>
        <time>2024-04-28T09:02:13Z</time>
      </trkpt>
      <trkpt lat="50.07636" lon="4.11965">
        <ele>186.4</ele>
        <time>2024-04-28T09:02:14Z</time>
      </trkpt>
      <trkpt lat="50.07642" lon="4.11972">
        <ele>186.4</ele>
        <time>2024-04-28T09:02:15Z</time>
      </trkpt>
      <trkpt lat="50.07649" lon="4.11979">
        <ele>187</ele>
        <time>2024-04-28T09:02:16Z</time>
      </trkpt>
      <trkpt lat="50.07655" lon="4.11986">
        <ele>187.2</ele>
        <time>2024-04-28T09:02:17Z</time>
      </trkpt>
      <trkpt lat="50.07662" lon="4.11993">
        <ele>187.2</ele>
        <time>2024-04-28T09:02:18Z</time>
      </trkpt>
      <trkpt lat="50.07668" lon="4.11999">
        <ele>187.6</ele>
        <time>2024-04-28T09:02:19Z</time>
      </trkpt>
      <trkpt lat="50.07675" lon="4.12006">
        <ele>187.4</ele>
        <time>2024-04-28T09:02:20Z</time>
      </trkpt>
      <trkpt lat="50.07682" lon="4.12013">
        <ele>187.6</ele>
        <time>2024-04-28T09:02:21Z</time>
      </trkpt>
      <trkpt lat="50.07688" lon="4.1202">
        <ele>187.8</ele>
        <time>2024-04-28T09:02:22Z</time>
      </trkpt>
      <trkpt lat="50.07695" lon="4.12027">
        <ele>187.8</ele>
        <time>2024-04-28T09:02:23Z</time>
      </trkpt>
      <trkpt lat="50.07702" lon="4.12034">
        <ele>187.8</ele>
        <time>2024-04-28T09:02:24Z</time>
      </trkpt>
      <trkpt lat="50.07709" lon="4.12041">
        <ele>188</ele>
        <time>2024-04-28T09:02:25Z</time>
      </trkpt>
      <trkpt lat="50.07716" lon="4.12048">
        <ele>187.8</ele>
        <time>2024-04-28T09:02:26Z</time>
      </trkpt>
      <trkpt lat="50.07723" lon="4.12056">
        <ele>187.8</ele>
        <time>2024-04-28T09:02:27Z</time>
      </trkpt>
      <trkpt lat="50.0773" lon="4.12063">
        <ele>188</ele>
        <time>2024-04-28T09:02:28Z</time>
      </trkpt>
      <trkpt lat="50.07737" lon="4.1207">
        <ele>188</ele>
        <time>2024-04-28T09:02:29Z</time>
      </trkpt>
      <trkpt lat="50.07744" lon="4.12077">
        <ele>188.2</ele>
        <time>2024-04-28T09:02:30Z</time>
      </trkpt>
      <trkpt lat="50.07751" lon="4.12084">
        <ele>188.2</ele>
        <time>2024-04-28T09:02:31Z</time>
      </trkpt>
      <trkpt lat="50.07757" lon="4.12091">
        <ele>188.8</ele>
        <time>2024-04-28T09:02:32Z</time>
      </trkpt>
      <trkpt lat="50.07764" lon="4.12098">
        <ele>188.8</ele>
        <time>2024-04-28T09:02:33Z</time>
      </trkpt>
      <trkpt lat="50.07771" lon="4.12104">
        <ele>189</ele>
        <time>2024-04-28T09:02:34Z</time>
      </trkpt>
      <trkpt lat="50.07778" lon="4.12111">
        <ele>189</ele>
        <time>2024-04-28T09:02:35Z</time>
      </trkpt>
      <trkpt lat="50.07785" lon="4.12118">
        <ele>189.2</ele>
        <time>2024-04-28T09:02:36Z</time>
      </trkpt>
      <trkpt lat="50.07791" lon="4.12124">
        <ele>189.2</ele>
        <time>2024-04-28T09:02:37Z</time>
      </trkpt>
      <trkpt lat="50.07798" lon="4.12131">
        <ele>189.2</ele>
        <time>2024-04-28T09:02:38Z</time>
      </trkpt>
      <trkpt lat="50.07806" lon="4.12138">
        <ele>189</ele>
        <time>2024-04-28T09:02:39Z</time>
      </trkpt>
      <trkpt lat="50.07813" lon="4.12145">
        <ele>189.2</ele>
        <time>2024-04-28T09:02:40Z</time>
      </trkpt>
      <trkpt lat="50.0782" lon="4.12153">
        <ele>189.2</ele>
        <time>2024-04-28T09:02:41Z</time>
      </trkpt>
      <trkpt lat="50.07827" lon="4.1216">
        <ele>189.2</ele>
        <time>2024-04-28T09:02:42Z</time>
      </trkpt>
      <trkpt lat="50.07835" lon="4.12167">
        <ele>189.2</ele>
        <time>2024-04-28T09:02:43Z</time>
      </trkpt>
      <trkpt lat="50.07842" lon="4.12175">
        <ele>189</ele>
        <time>2024-04-28T09:02:44Z</time>
      </trkpt>
      <trkpt lat="50.07849" lon="4.12182">
        <ele>189</ele>
        <time>2024-04-28T09:02:45Z</time>
      </trkpt>
      <trkpt lat="50.07857" lon="4.1219">
        <ele>188.8</ele>
        <time>2024-04-28T09:02:46Z</time>
      </trkpt>
      <trkpt lat="50.07864" lon="4.12198">
        <ele>188.8</ele>
        <time>2024-04-28T09:02:47Z</time>
      </trkpt>
      <trkpt lat="50.07871" lon="4.12205">
        <ele>188.8</ele>
        <time>2024-04-28T09:02:48Z</time>
      </trkpt>
      <trkpt lat="50.07878" lon="4.12213">
        <ele>188.8</ele>
        <time>2024-04-28T09:02:49Z</time>
      </trkpt>
      <trkpt lat="50.07886" lon="4.12221">
        <ele>188.8</ele>
        <time>2024-04-28T09:02:50Z</time>
      </trkpt>
      <trkpt lat="50.07893" lon="4.12228">
        <ele>188.8</ele>
        <time>2024-04-28T09:02:51Z</time>
      </trkpt>
      <trkpt lat="50.07901" lon="4.12235">
        <ele>188.6</ele>
        <time>2024-04-28T09:02:52Z</time>
      </trkpt>
      <trkpt lat="50.07908" lon="4.12243">
        <ele>188.4</ele>
        <time>2024-04-28T09:02:53Z</time>
      </trkpt>
      <trkpt lat="50.07916" lon="4.1225">
        <ele>188.2</ele>
        <time>2024-04-28T09:02:54Z</time>
      </trkpt>
      <trkpt lat="50.07923" lon="4.12258">
        <ele>188</ele>
        <time>2024-04-28T09:02:55Z</time>
      </trkpt>
      <trkpt lat="50.0793" lon="4.12265">
        <ele>188</ele>
        <time>2024-04-28T09:02:56Z</time>
      </trkpt>
      <trkpt lat="50.07937" lon="4.12272">
        <ele>187.8</ele>
        <time>2024-04-28T09:02:57Z</time>
      </trkpt>
      <trkpt lat="50.07945" lon="4.12279">
        <ele>187.6</ele>
        <time>2024-04-28T09:02:58Z</time>
      </trkpt>
      <trkpt lat="50.07952" lon="4.12287">
        <ele>187.6</ele>
        <time>2024-04-28T09:02:59Z</time>
      </trkpt>
      <trkpt lat="50.0796" lon="4.12294">
        <ele>187.4</ele>
        <time>2024-04-28T09:03:00Z</time>
      </trkpt>
      <trkpt lat="50.07967" lon="4.12302">
        <ele>187.2</ele>
        <time>2024-04-28T09:03:01Z</time>
      </trkpt>
      <trkpt lat="50.07974" lon="4.1231">
        <ele>187</ele>
        <time>2024-04-28T09:03:02Z</time>
      </trkpt>
      <trkpt lat="50.07982" lon="4.12317">
        <ele>186.8</ele>
        <time>2024-04-28T09:03:03Z</time>
      </trkpt>
      <trkpt lat="50.07989" lon="4.12325">
        <ele>186.6</ele>
        <time>2024-04-28T09:03:04Z</time>
      </trkpt>
      <trkpt lat="50.07997" lon="4.12333">
        <ele>186.6</ele>
        <time>2024-04-28T09:03:05Z</time>
      </trkpt>
      <trkpt lat="50.08004" lon="4.1234">
        <ele>186.6</ele>
        <time>2024-04-28T09:03:06Z</time>
      </trkpt>
      <trkpt lat="50.08012" lon="4.12348">
        <ele>186.4</ele>
        <time>2024-04-28T09:03:07Z</time>
      </trkpt>
      <trkpt lat="50.0802" lon="4.12355">
        <ele>186.4</ele>
        <time>2024-04-28T09:03:08Z</time>
      </trkpt>
      <trkpt lat="50.08028" lon="4.12363">
        <ele>186.2</ele>
        <time>2024-04-28T09:03:09Z</time>
      </trkpt>
      <trkpt lat="50.08035" lon="4.12371">
        <ele>186.2</ele>
        <time>2024-04-28T09:03:10Z</time>
      </trkpt>
      <trkpt lat="50.08043" lon="4.12378">
        <ele>186.2</ele>
        <time>2024-04-28T09:03:11Z</time>
      </trkpt>
      <trkpt lat="50.0805" lon="4.12385">
        <ele>186.4</ele>
        <time>2024-04-28T09:03:12Z</time>
      </trkpt>
      <trkpt lat="50.08057" lon="4.12393">
        <ele>186.4</ele>
        <time>2024-04-28T09:03:13Z</time>
      </trkpt>
      <trkpt lat="50.08064" lon="4.12401">
        <ele>186.2</ele>
        <time>2024-04-28T09:03:14Z</time>
      </trkpt>
      <trkpt lat="50.08071" lon="4.12408">
        <ele>186.2</ele>
        <time>2024-04-28T09:03:15Z</time>
      </trkpt>
      <trkpt lat="50.08078" lon="4.12416">
        <ele>186.4</ele>
        <time>2024-04-28T09:03:16Z</time>
      </trkpt>
      <trkpt lat="50.08085" lon="4.12423">
        <ele>186.2</ele>
        <time>2024-04-28T09:03:17Z</time>
      </trkpt>
      <trkpt lat="50.08092" lon="4.1243">
        <ele>186.6</ele>
        <time>2024-04-28T09:03:18Z</time>
      </trkpt>
      <trkpt lat="50.08099" lon="4.12437">
        <ele>186.4</ele>
        <time>2024-04-28T09:03:19Z</time>
      </trkpt>
      <trkpt lat="50.08106" lon="4.12445">
        <ele>186.4</ele>
        <time>2024-04-28T09:03:20Z</time>
      </trkpt>
      <trkpt lat="50.08113" lon="4.12452">
        <ele>186.4</ele>
        <time>2024-04-28T09:03:21Z</time>
      </trkpt>
      <trkpt lat="50.0812" lon="4.12459">
        <ele>186.6</ele>
        <time>2024-04-28T09:03:22Z</time>
      </trkpt>
      <trkpt lat="50.08127" lon="4.12466">
        <ele>186.6</ele>
        <time>2024-04-28T09:03:23Z</time>
      </trkpt>
      <trkpt lat="50.08134" lon="4.12473">
        <ele>187</ele>
        <time>2024-04-28T09:03:24Z</time>
      </trkpt>
      <trkpt lat="50.08141" lon="4.1248">
        <ele>187.2</ele>
        <time>2024-04-28T09:03:25Z</time>
      </trkpt>
      <trkpt lat="50.08148" lon="4.12487">
        <ele>187.4</ele>
        <time>2024-04-28T09:03:26Z</time>
      </trkpt>
      <trkpt lat="50.08155" lon="4.12494">
        <ele>187.6</ele>
        <time>2024-04-28T09:03:27Z</time>
      </trkpt>
      <trkpt lat="50.08162" lon="4.12501">
        <ele>188.2</ele>
        <time>2024-04-28T09:03:28Z</time>
      </trkpt>
      <trkpt lat="50.08169" lon="4.12508">
        <ele>188.2</ele>
        <time>2024-04-28T09:03:29Z</time>
      </trkpt>
      <trkpt lat="50.08175" lon="4.12515">
        <ele>188.6</ele>
        <time>2024-04-28T09:03:30Z</time>
      </trkpt>
      <trkpt lat="50.08182" lon="4.12522">
        <ele>188.8</ele>
        <time>2024-04-28T09:03:31Z</time>
      </trkpt>
      <trkpt lat="50.08189" lon="4.12529">
        <ele>189.2</ele>
        <time>2024-04-28T09:03:32Z</time>
      </trkpt>
      <trkpt lat="50.08195" lon="4.12537">
        <ele>189.2</ele>
        <time>2024-04-28T09:03:33Z</time>
      </trkpt>
      <trkpt lat="50.08203" lon="4.12544">
        <ele>189.2</ele>
        <time>2024-04-28T09:03:34Z</time>
      </trkpt>
      <trkpt lat="50.08209" lon="4.12551">
        <ele>189.6</ele>
        <time>2024-04-28T09:03:35Z</time>
      </trkpt>
      <trkpt lat="50.08216" lon="4.12559">
        <ele>190</ele>
        <time>2024-04-28T09:03:36Z</time>
      </trkpt>
      <trkpt lat="50.08223" lon="4.12566">
        <ele>190.2</ele>
        <time>2024-04-28T09:03:37Z</time>
      </trkpt>
      <trkpt lat="50.0823" lon="4.12572">
        <ele>190.4</ele>
        <time>2024-04-28T09:03:38Z</time>
      </trkpt>
      <trkpt lat="50.08237" lon="4.12579">
        <ele>190.4</ele>
        <time>2024-04-28T09:03:39Z</time>
      </trkpt>
      <trkpt lat="50.08244" lon="4.12586">
        <ele>190.6</ele>
        <time>2024-04-28T09:03:40Z</time>
      </trkpt>
      <trkpt lat="50.08251" lon="4.12593">
        <ele>190.6</ele>
        <time>2024-04-28T09:03:41Z</time>
      </trkpt>
      <trkpt lat="50.08258" lon="4.12601">
        <ele>190.6</ele>
        <time>2024-04-28T09:03:42Z</time>
      </trkpt>
      <trkpt lat="50.08265" lon="4.12609">
        <ele>190.6</ele>
        <time>2024-04-28T09:03:43Z</time>
      </trkpt>
      <trkpt lat="50.08273" lon="4.12617">
        <ele>190.8</ele>
        <time>2024-04-28T09:03:44Z</time>
      </trkpt>
      <trkpt lat="50.0828" lon="4.12625">
        <ele>190.6</ele>
        <time>2024-04-28T09:03:45Z</time>
      </trkpt>
      <trkpt lat="50.08288" lon="4.12632">
        <ele>191</ele>
        <time>2024-04-28T09:03:46Z</time>
      </trkpt>
      <trkpt lat="50.08295" lon="4.1264">
        <ele>190.8</ele>
        <time>2024-04-28T09:03:47Z</time>
      </trkpt>
      <trkpt lat="50.08302" lon="4.12648">
        <ele>191</ele>
        <time>2024-04-28T09:03:48Z</time>
      </trkpt>
      <trkpt lat="50.0831" lon="4.12656">
        <ele>191</ele>
        <time>2024-04-28T09:03:49Z</time>
      </trkpt>
      <trkpt lat="50.08317" lon="4.12663">
        <ele>191</ele>
        <time>2024-04-28T09:03:50Z</time>
      </trkpt>
      <trkpt lat="50.08325" lon="4.12671">
        <ele>190.8</ele>
        <time>2024-04-28T09:03:51Z</time>
      </trkpt>
      <trkpt lat="50.08332" lon="4.12679">
        <ele>191</ele>
        <time>2024-04-28T09:03:52Z</time>
      </trkpt>
      <trkpt lat="50.08339" lon="4.12686">
        <ele>191</ele>
        <time>2024-04-28T09:03:53Z</time>
      </trkpt>
      <trkpt lat="50.08347" lon="4.12694">
        <ele>191</ele>
        <time>2024-04-28T09:03:54Z</time>
      </trkpt>
      <trkpt lat="50.08354" lon="4.12702">
        <ele>190.8</ele>
        <time>2024-04-28T09:03:55Z</time>
      </trkpt>
      <trkpt lat="50.08362" lon="4.1271">
        <ele>190.8</ele>
        <time>2024-04-28T09:03:56Z</time>
      </trkpt>
      <trkpt lat="50.08369" lon="4.12718">
        <ele>190.8</ele>
        <time>2024-04-28T09:03:57Z</time>
      </trkpt>
      <trkpt lat="50.08377" lon="4.12726">
        <ele>191</ele>
        <time>2024-04-28T09:03:58Z</time>
      </trkpt>
      <trkpt lat="50.08384" lon="4.12734">
        <ele>191</ele>
        <time>2024-04-28T09:03:59Z</time>
      </trkpt>
      <trkpt lat="50.08392" lon="4.12742">
        <ele>190.8</ele>
        <time>2024-04-28T09:04:00Z</time>
      </trkpt>
      <trkpt lat="50.084" lon="4.1275">
        <ele>191</ele>
        <time>2024-04-28T09:04:01Z</time>
      </trkpt>
      <trkpt lat="50.08408" lon="4.12758">
        <ele>190.8</ele>
        <time>2024-04-28T09:04:02Z</time>
      </trkpt>
      <trkpt lat="50.08415" lon="4.12766">
        <ele>190.6</ele>
        <time>2024-04-28T09:04:03Z</time>
      </trkpt>
      <trkpt lat="50.08423" lon="4.12774">
        <ele>190.4</ele>
        <time>2024-04-28T09:04:04Z</time>
      </trkpt>
      <trkpt lat="50.08431" lon="4.12782">
        <ele>190.4</ele>
        <time>2024-04-28T09:04:05Z</time>
      </trkpt>
      <trkpt lat="50.08439" lon="4.1279">
        <ele>190</ele>
        <time>2024-04-28T09:04:06Z</time>
      </trkpt>
      <trkpt lat="50.08447" lon="4.12798">
        <ele>190</ele>
        <time>2024-04-28T09:04:07Z</time>
      </trkpt>
      <trkpt lat="50.08454" lon="4.12806">
        <ele>190.2</ele>
        <time>2024-04-28T09:04:08Z</time>
      </trkpt>
      <trkpt lat="50.08462" lon="4.12814">
        <ele>190</ele>
        <time>2024-04-28T09:04:09Z</time>
      </trkpt>
      <trkpt lat="50.0847" lon="4.12822">
        <ele>190</ele>
        <time>2024-04-28T09:04:10Z</time>
      </trkpt>
      <trkpt lat="50.08478" lon="4.12831">
        <ele>190</ele>
        <time>2024-04-28T09:04:11Z</time>
      </trkpt>
      <trkpt lat="50.08486" lon="4.12839">
        <ele>189.8</ele>
        <time>2024-04-28T09:04:12Z</time>
      </trkpt>
      <trkpt lat="50.08494" lon="4.12847">
        <ele>189.8</ele>
        <time>2024-04-28T09:04:13Z</time>
      </trkpt>
      <trkpt lat="50.08502" lon="4.12855">
        <ele>189.8</ele>
        <time>2024-04-28T09:04:14Z</time>
      </trkpt>
      <trkpt lat="50.0851" lon="4.12864">
        <ele>189.8</ele>
        <time>2024-04-28T09:04:15Z</time>
      </trkpt>
      <trkpt lat="50.08518" lon="4.12872">
        <ele>189.8</ele>
        <time>2024-04-28T09:04:16Z</time>
      </trkpt>
      <trkpt lat="50.08526" lon="4.1288">
        <ele>189.8</ele>
        <time>2024-04-28T09:04:17Z</time>
      </trkpt>
      <trkpt lat="50.08534" lon="4.12889">
        <ele>189.6</ele>
        <time>2024-04-28T09:04:18Z</time>
      </trkpt>
      <trkpt lat="50.08543" lon="4.12898">
        <ele>189.8</ele>
        <time>2024-04-28T09:04:19Z</time>
      </trkpt>
      <trkpt lat="50.08551" lon="4.12906">
        <ele>189.8</ele>
        <time>2024-04-28T09:04:20Z</time>
      </trkpt>
      <trkpt lat="50.08559" lon="4.12915">
        <ele>189.8</ele>
        <time>2024-04-28T09:04:21Z</time>
      </trkpt>
      <trkpt lat="50.08568" lon="4.12924">
        <ele>189.8</ele>
        <time>2024-04-28T09:04:22Z</time>
      </trkpt>
      <trkpt lat="50.08576" lon="4.12933">
        <ele>189.8</ele>
        <time>2024-04-28T09:04:23Z</time>
      </trkpt>
      <trkpt lat="50.08585" lon="4.12942">
        <ele>189.8</ele>
        <time>2024-04-28T09:04:24Z</time>
      </trkpt>
      <trkpt lat="50.08594" lon="4.12952">
        <ele>189.8</ele>
        <time>2024-04-28T09:04:25Z</time>
      </trkpt>
      <trkpt lat="50.08603" lon="4.12961">
        <ele>189.8</ele>
        <time>2024-04-28T09:04:26Z</time>
      </trkpt>
      <trkpt lat="50.08611" lon="4.1297">
        <ele>189.6</ele>
        <time>2024-04-28T09:04:27Z</time>
      </trkpt>
      <trkpt lat="50.0862" lon="4.1298">
        <ele>189.6</ele>
        <time>2024-04-28T09:04:28Z</time>
      </trkpt>
      <trkpt lat="50.08629" lon="4.12989">
        <ele>189.8</ele>
        <time>2024-04-28T09:04:29Z</time>
      </trkpt>
      <trkpt lat="50.08638" lon="4.12999">
        <ele>189.6</ele>
        <time>2024-04-28T09:04:30Z</time>
      </trkpt>
      <trkpt lat="50.08647" lon="4.13008">
        <ele>189.4</ele>
        <time>2024-04-28T09:04:31Z</time>
      </trkpt>
      <trkpt lat="50.08656" lon="4.13018">
        <ele>189.4</ele>
        <time>2024-04-28T09:04:32Z</time>
      </trkpt>
      <trkpt lat="50.08665" lon="4.13027">
        <ele>189.4</ele>
        <time>2024-04-28T09:04:33Z</time>
      </trkpt>
      <trkpt lat="50.08674" lon="4.13036">
        <ele>189.4</ele>
        <time>2024-04-28T09:04:34Z</time>
      </trkpt>
      <trkpt lat="50.08683" lon="4.13046">
        <ele>189.4</ele>
        <time>2024-04-28T09:04:35Z</time>
      </trkpt>
      <trkpt lat="50.08692" lon="4.13055">
        <ele>189.4</ele>
        <time>2024-04-28T09:04:36Z</time>
      </trkpt>
      <trkpt lat="50.08701" lon="4.13065">
        <ele>189</ele>
        <time>2024-04-28T09:04:37Z</time>
      </trkpt>
      <trkpt lat="50.0871" lon="4.13074">
        <ele>189</ele>
        <time>2024-04-28T09:04:38Z</time>
      </trkpt>
      <trkpt lat="50.08719" lon="4.13083">
        <ele>188.6</ele>
        <time>2024-04-28T09:04:39Z</time>
      </trkpt>
      <trkpt lat="50.08728" lon="4.13093">
        <ele>188.6</ele>
        <time>2024-04-28T09:04:40Z</time>
      </trkpt>
      <trkpt lat="50.08736" lon="4.13102">
        <ele>188.2</ele>
        <time>2024-04-28T09:04:41Z</time>
      </trkpt>
      <trkpt lat="50.08745" lon="4.13111">
        <ele>188.4</ele>
        <time>2024-04-28T09:04:42Z</time>
      </trkpt>
      <trkpt lat="50.08754" lon="4.1312">
        <ele>188.2</ele>
        <time>2024-04-28T09:04:43Z</time>
      </trkpt>
      <trkpt lat="50.08763" lon="4.13129">
        <ele>188</ele>
        <time>2024-04-28T09:04:44Z</time>
      </trkpt>
      <trkpt lat="50.08771" lon="4.13138">
        <ele>188</ele>
        <time>2024-04-28T09:04:45Z</time>
      </trkpt>
      <trkpt lat="50.0878" lon="4.13146">
        <ele>188</ele>
        <time>2024-04-28T09:04:46Z</time>
      </trkpt>
      <trkpt lat="50.08788" lon="4.13155">
        <ele>188</ele>
        <time>2024-04-28T09:04:47Z</time>
      </trkpt>
      <trkpt lat="50.08797" lon="4.13164">
        <ele>187.8</ele>
        <time>2024-04-28T09:04:48Z</time>
      </trkpt>
      <trkpt lat="50.08805" lon="4.13173">
        <ele>188</ele>
        <time>2024-04-28T09:04:49Z</time>
      </trkpt>
      <trkpt lat="50.08813" lon="4.13182">
        <ele>188</ele>
        <time>2024-04-28T09:04:50Z</time>
      </trkpt>
      <trkpt lat="50.08821" lon="4.13191">
        <ele>187.8</ele>
        <time>2024-04-28T09:04:51Z</time>
      </trkpt>
      <trkpt lat="50.08829" lon="4.13199">
        <ele>188</ele>
        <time>2024-04-28T09:04:52Z</time>
      </trkpt>
      <trkpt lat="50.08837" lon="4.13208">
        <ele>188</ele>
        <time>2024-04-28T09:04:53Z</time>
      </trkpt>
      <trkpt lat="50.08845" lon="4.13217">
        <ele>187.8</ele>
        <time>2024-04-28T09:04:54Z</time>
      </trkpt>
      <trkpt lat="50.08853" lon="4.13225">
        <ele>187.8</ele>
        <time>2024-04-28T09:04:55Z</time>
      </trkpt>
      <trkpt lat="50.08861" lon="4.13234">
        <ele>187.8</ele>
        <time>2024-04-28T09:04:56Z</time>
      </trkpt>
      <trkpt lat="50.08869" lon="4.13243">
        <ele>187.8</ele>
        <time>2024-04-28T09:04:57Z</time>
      </trkpt>
      <trkpt lat="50.08877" lon="4.13251">
        <ele>187.8</ele>
        <time>2024-04-28T09:04:58Z</time>
      </trkpt>
      <trkpt lat="50.08885" lon="4.13259">
        <ele>187.6</ele>
        <time>2024-04-28T09:04:59Z</time>
      </trkpt>
      <trkpt lat="50.08893" lon="4.13267">
        <ele>187.8</ele>
        <time>2024-04-28T09:05:00Z</time>
      </trkpt>
      <trkpt lat="50.08901" lon="4.13275">
        <ele>187.8</ele>
        <time>2024-04-28T09:05:01Z</time>
      </trkpt>
      <trkpt lat="50.08908" lon="4.13283">
        <ele>187.8</ele>
        <time>2024-04-28T09:05:02Z</time>
      </trkpt>
      <trkpt lat="50.08916" lon="4.13291">
        <ele>187.8</ele>
        <time>2024-04-28T09:05:03Z</time>
      </trkpt>
      <trkpt lat="50.08924" lon="4.13299">
        <ele>187.8</ele>
        <time>2024-04-28T09:05:04Z</time>
      </trkpt>
      <trkpt lat="50.08931" lon="4.13307">
        <ele>187.8</ele>
        <time>2024-04-28T09:05:05Z</time>
      </trkpt>
      <trkpt lat="50.08939" lon="4.13315">
        <ele>187.8</ele>
        <time>2024-04-28T09:05:06Z</time>
      </trkpt>
      <trkpt lat="50.08946" lon="4.13323">
        <ele>187.8</ele>
        <time>2024-04-28T09:05:07Z</time>
      </trkpt>
      <trkpt lat="50.08954" lon="4.13332">
        <ele>187.8</ele>
        <time>2024-04-28T09:05:08Z</time>
      </trkpt>
      <trkpt lat="50.08962" lon="4.1334">
        <ele>187.8</ele>
        <time>2024-04-28T09:05:09Z</time>
      </trkpt>
      <trkpt lat="50.0897" lon="4.13347">
        <ele>187.6</ele>
        <time>2024-04-28T09:05:10Z</time>
      </trkpt>
      <trkpt lat="50.08978" lon="4.13355">
        <ele>187.8</ele>
        <time>2024-04-28T09:05:11Z</time>
      </trkpt>
      <trkpt lat="50.08985" lon="4.13363">
        <ele>187.8</ele>
        <time>2024-04-28T09:05:12Z</time>
      </trkpt>
      <trkpt lat="50.08992" lon="4.13371">
        <ele>187.8</ele>
        <time>2024-04-28T09:05:13Z</time>
      </trkpt>
      <trkpt lat="50.09" lon="4.13378">
        <ele>187.8</ele>
        <time>2024-04-28T09:05:14Z</time>
      </trkpt>
      <trkpt lat="50.09007" lon="4.13386">
        <ele>187.8</ele>
        <time>2024-04-28T09:05:15Z</time>
      </trkpt>
      <trkpt lat="50.09015" lon="4.13395">
        <ele>187.6</ele>
        <time>2024-04-28T09:05:16Z</time>
      </trkpt>
      <trkpt lat="50.09023" lon="4.13403">
        <ele>187.8</ele>
        <time>2024-04-28T09:05:17Z</time>
      </trkpt>
      <trkpt lat="50.09031" lon="4.13411">
        <ele>187.8</ele>
        <time>2024-04-28T09:05:18Z</time>
      </trkpt>
      <trkpt lat="50.09039" lon="4.13419">
        <ele>187.8</ele>
        <time>2024-04-28T09:05:19Z</time>
      </trkpt>
      <trkpt lat="50.09047" lon="4.13427">
        <ele>187.8</ele>
        <time>2024-04-28T09:05:20Z</time>
      </trkpt>
      <trkpt lat="50.09054" lon="4.13435">
        <ele>187.6</ele>
        <time>2024-04-28T09:05:21Z</time>
      </trkpt>
      <trkpt lat="50.09062" lon="4.13443">
        <ele>187.6</ele>
        <time>2024-04-28T09:05:22Z</time>
      </trkpt>
      <trkpt lat="50.0907" lon="4.13452">
        <ele>187.8</ele>
        <time>2024-04-28T09:05:23Z</time>
      </trkpt>
      <trkpt lat="50.09077" lon="4.1346">
        <ele>187.8</ele>
        <time>2024-04-28T09:05:24Z</time>
      </trkpt>
      <trkpt lat="50.09085" lon="4.13468">
        <ele>187.8</ele>
        <time>2024-04-28T09:05:25Z</time>
      </trkpt>
      <trkpt lat="50.09093" lon="4.13476">
        <ele>188</ele>
        <time>2024-04-28T09:05:26Z</time>
      </trkpt>
      <trkpt lat="50.09101" lon="4.13484">
        <ele>188</ele>
        <time>2024-04-28T09:05:27Z</time>
      </trkpt>
      <trkpt lat="50.09109" lon="4.13493">
        <ele>188</ele>
        <time>2024-04-28T09:05:28Z</time>
      </trkpt>
      <trkpt lat="50.09117" lon="4.13501">
        <ele>188.2</ele>
        <time>2024-04-28T09:05:29Z</time>
      </trkpt>
      <trkpt lat="50.09124" lon="4.1351">
        <ele>188.2</ele>
        <time>2024-04-28T09:05:30Z</time>
      </trkpt>
      <trkpt lat="50.09132" lon="4.13518">
        <ele>188.2</ele>
        <time>2024-04-28T09:05:31Z</time>
      </trkpt>
      <trkpt lat="50.09141" lon="4.13527">
        <ele>188.2</ele>
        <time>2024-04-28T09:05:32Z</time>
      </trkpt>
      <trkpt lat="50.09149" lon="4.13535">
        <ele>188.2</ele>
        <time>2024-04-28T09:05:33Z</time>
      </trkpt>
      <trkpt lat="50.09157" lon="4.13544">
        <ele>188.4</ele>
        <time>2024-04-28T09:05:34Z</time>
      </trkpt>
      <trkpt lat="50.09165" lon="4.13552">
        <ele>188.4</ele>
        <time>2024-04-28T09:05:35Z</time>
      </trkpt>
      <trkpt lat="50.09174" lon="4.13561">
        <ele>188.4</ele>
        <time>2024-04-28T09:05:36Z</time>
      </trkpt>
      <trkpt lat="50.09182" lon="4.1357">
        <ele>188.6</ele>
        <time>2024-04-28T09:05:37Z</time>
      </trkpt>
      <trkpt lat="50.0919" lon="4.13579">
        <ele>188.6</ele>
        <time>2024-04-28T09:05:38Z</time>
      </trkpt>
      <trkpt lat="50.09199" lon="4.13588">
        <ele>188.8</ele>
        <time>2024-04-28T09:05:39Z</time>
      </trkpt>
      <trkpt lat="50.09207" lon="4.13597">
        <ele>189</ele>
        <time>2024-04-28T09:05:40Z</time>
      </trkpt>
      <trkpt lat="50.09215" lon="4.13606">
        <ele>188.8</ele>
        <time>2024-04-28T09:05:41Z</time>
      </trkpt>
      <trkpt lat="50.09224" lon="4.13615">
        <ele>188.8</ele>
        <time>2024-04-28T09:05:42Z</time>
      </trkpt>
      <trkpt lat="50.09232" lon="4.13624">
        <ele>189</ele>
        <time>2024-04-28T09:05:43Z</time>
      </trkpt>
      <trkpt lat="50.0924" lon="4.13634">
        <ele>189</ele>
        <time>2024-04-28T09:05:44Z</time>
      </trkpt>
      <trkpt lat="50.09249" lon="4.13644">
        <ele>189</ele>
        <time>2024-04-28T09:05:45Z</time>
      </trkpt>
      <trkpt lat="50.09258" lon="4.13654">
        <ele>189</ele>
        <time>2024-04-28T09:05:46Z</time>
      </trkpt>
      <trkpt lat="50.09267" lon="4.13664">
        <ele>189</ele>
        <time>2024-04-28T09:05:47Z</time>
      </trkpt>
      <trkpt lat="50.09276" lon="4.13675">
        <ele>189</ele>
        <time>2024-04-28T09:05:48Z</time>
      </trkpt>
      <trkpt lat="50.09285" lon="4.13685">
        <ele>189</ele>
        <time>2024-04-28T09:05:49Z</time>
      </trkpt>
      <trkpt lat="50.09294" lon="4.13696">
        <ele>189</ele>
        <time>2024-04-28T09:05:50Z</time>
      </trkpt>
      <trkpt lat="50.09303" lon="4.13706">
        <ele>188.4</ele>
        <time>2024-04-28T09:05:51Z</time>
      </trkpt>
      <trkpt lat="50.09312" lon="4.13716">
        <ele>188</ele>
        <time>2024-04-28T09:05:52Z</time>
      </trkpt>
      <trkpt lat="50.09321" lon="4.13727">
        <ele>187.6</ele>
        <time>2024-04-28T09:05:53Z</time>
      </trkpt>
      <trkpt lat="50.09331" lon="4.13738">
        <ele>187</ele>
        <time>2024-04-28T09:05:54Z</time>
      </trkpt>
      <trkpt lat="50.0934" lon="4.13748">
        <ele>186.6</ele>
        <time>2024-04-28T09:05:55Z</time>
      </trkpt>
      <trkpt lat="50.09349" lon="4.13759">
        <ele>185.8</ele>
        <time>2024-04-28T09:05:56Z</time>
      </trkpt>
      <trkpt lat="50.09359" lon="4.1377">
        <ele>185</ele>
        <time>2024-04-28T09:05:57Z</time>
      </trkpt>
      <trkpt lat="50.09368" lon="4.13781">
        <ele>184.4</ele>
        <time>2024-04-28T09:05:58Z</time>
      </trkpt>
      <trkpt lat="50.09378" lon="4.13792">
        <ele>184.2</ele>
        <time>2024-04-28T09:05:59Z</time>
      </trkpt>
      <trkpt lat="50.09387" lon="4.13803">
        <ele>184.2</ele>
        <time>2024-04-28T09:06:00Z</time>
      </trkpt>
      <trkpt lat="50.09396" lon="4.13814">
        <ele>183.8</ele>
        <time>2024-04-28T09:06:01Z</time>
      </trkpt>
      <trkpt lat="50.09405" lon="4.13825">
        <ele>182.4</ele>
        <time>2024-04-28T09:06:02Z</time>
      </trkpt>
      <trkpt lat="50.09414" lon="4.13835">
        <ele>181.6</ele>
        <time>2024-04-28T09:06:03Z</time>
      </trkpt>
      <trkpt lat="50.09424" lon="4.13846">
        <ele>180.8</ele>
        <time>2024-04-28T09:06:04Z</time>
      </trkpt>
      <trkpt lat="50.09433" lon="4.13857">
        <ele>180.2</ele>
        <time>2024-04-28T09:06:05Z</time>
      </trkpt>
      <trkpt lat="50.09443" lon="4.13868">
        <ele>179.8</ele>
        <time>2024-04-28T09:06:06Z</time>
      </trkpt>
      <trkpt lat="50.09453" lon="4.13878">
        <ele>178.8</ele>
        <time>2024-04-28T09:06:07Z</time>
      </trkpt>
      <trkpt lat="50.09462" lon="4.13889">
        <ele>178.4</ele>
        <time>2024-04-28T09:06:08Z</time>
      </trkpt>
      <trkpt lat="50.09472" lon="4.139">
        <ele>178.2</ele>
        <time>2024-04-28T09:06:09Z</time>
      </trkpt>
      <trkpt lat="50.09482" lon="4.13911">
        <ele>177.6</ele>
        <time>2024-04-28T09:06:10Z</time>
      </trkpt>
      <trkpt lat="50.09491" lon="4.13922">
        <ele>177.4</ele>
        <time>2024-04-28T09:06:11Z</time>
      </trkpt>
      <trkpt lat="50.09501" lon="4.13933">
        <ele>177.4</ele>
        <time>2024-04-28T09:06:12Z</time>
      </trkpt>
      <trkpt lat="50.0951" lon="4.13944">
        <ele>177.4</ele>
        <time>2024-04-28T09:06:13Z</time>
      </trkpt>
      <trkpt lat="50.0952" lon="4.13955">
        <ele>177.2</ele>
        <time>2024-04-28T09:06:14Z</time>
      </trkpt>
      <trkpt lat="50.0953" lon="4.13966">
        <ele>177.2</ele>
        <time>2024-04-28T09:06:15Z</time>
      </trkpt>
      <trkpt lat="50.09539" lon="4.13977">
        <ele>177.2</ele>
        <time>2024-04-28T09:06:16Z</time>
      </trkpt>
      <trkpt lat="50.09549" lon="4.13989">
        <ele>177</ele>
        <time>2024-04-28T09:06:17Z</time>
      </trkpt>
      <trkpt lat="50.09559" lon="4.14">
        <ele>177</ele>
        <time>2024-04-28T09:06:18Z</time>
      </trkpt>
      <trkpt lat="50.09568" lon="4.14011">
        <ele>177</ele>
        <time>2024-04-28T09:06:19Z</time>
      </trkpt>
      <trkpt lat="50.09578" lon="4.14023">
        <ele>176.6</ele>
        <time>2024-04-28T09:06:20Z</time>
      </trkpt>
      <trkpt lat="50.09587" lon="4.14034">
        <ele>176.6</ele>
        <time>2024-04-28T09:06:21Z</time>
      </trkpt>
      <trkpt lat="50.09596" lon="4.14046">
        <ele>176.4</ele>
        <time>2024-04-28T09:06:22Z</time>
      </trkpt>
      <trkpt lat="50.09605" lon="4.14057">
        <ele>176.4</ele>
        <time>2024-04-28T09:06:23Z</time>
      </trkpt>
      <trkpt lat="50.09614" lon="4.14068">
        <ele>176</ele>
        <time>2024-04-28T09:06:24Z</time>
      </trkpt>
      <trkpt lat="50.09622" lon="4.14079">
        <ele>175.6</ele>
        <time>2024-04-28T09:06:25Z</time>
      </trkpt>
      <trkpt lat="50.0963" lon="4.14089">
        <ele>175.8</ele>
        <time>2024-04-28T09:06:26Z</time>
      </trkpt>
      <trkpt lat="50.09639" lon="4.141">
        <ele>175.6</ele>
        <time>2024-04-28T09:06:27Z</time>
      </trkpt>
      <trkpt lat="50.09647" lon="4.1411">
        <ele>175.6</ele>
        <time>2024-04-28T09:06:28Z</time>
      </trkpt>
      <trkpt lat="50.09655" lon="4.1412">
        <ele>175.4</ele>
        <time>2024-04-28T09:06:29Z</time>
      </trkpt>
      <trkpt lat="50.09663" lon="4.1413">
        <ele>175</ele>
        <time>2024-04-28T09:06:30Z</time>
      </trkpt>
      <trkpt lat="50.0967" lon="4.14139">
        <ele>174.8</ele>
        <time>2024-04-28T09:06:31Z</time>
      </trkpt>
      <trkpt lat="50.09678" lon="4.14149">
        <ele>174.8</ele>
        <time>2024-04-28T09:06:32Z</time>
      </trkpt>
      <trkpt lat="50.09685" lon="4.14158">
        <ele>174.8</ele>
        <time>2024-04-28T09:06:33Z</time>
      </trkpt>
      <trkpt lat="50.09693" lon="4.14168">
        <ele>174.8</ele>
        <time>2024-04-28T09:06:34Z</time>
      </trkpt>
      <trkpt lat="50.097" lon="4.14178">
        <ele>174.6</ele>
        <time>2024-04-28T09:06:35Z</time>
      </trkpt>
      <trkpt lat="50.09708" lon="4.14187">
        <ele>174.8</ele>
        <time>2024-04-28T09:06:36Z</time>
      </trkpt>
      <trkpt lat="50.09715" lon="4.14197">
        <ele>174.6</ele>
        <time>2024-04-28T09:06:37Z</time>
      </trkpt>
      <trkpt lat="50.09723" lon="4.14206">
        <ele>174.6</ele>
        <time>2024-04-28T09:06:38Z</time>
      </trkpt>
      <trkpt lat="50.0973" lon="4.14216">
        <ele>174.8</ele>
        <time>2024-04-28T09:06:39Z</time>
      </trkpt>
      <trkpt lat="50.09738" lon="4.14226">
        <ele>174.8</ele>
        <time>2024-04-28T09:06:40Z</time>
      </trkpt>
      <trkpt lat="50.09745" lon="4.14235">
        <ele>174.8</ele>
        <time>2024-04-28T09:06:41Z</time>
      </trkpt>
      <trkpt lat="50.09753" lon="4.14245">
        <ele>174.8</ele>
        <time>2024-04-28T09:06:42Z</time>
      </trkpt>
      <trkpt lat="50.0976" lon="4.14254">
        <ele>175</ele>
        <time>2024-04-28T09:06:43Z</time>
      </trkpt>
      <trkpt lat="50.09768" lon="4.14264">
        <ele>175</ele>
        <time>2024-04-28T09:06:44Z</time>
      </trkpt>
      <trkpt lat="50.09775" lon="4.14273">
        <ele>175</ele>
        <time>2024-04-28T09:06:45Z</time>
      </trkpt>
      <trkpt lat="50.09783" lon="4.14283">
        <ele>175.2</ele>
        <time>2024-04-28T09:06:46Z</time>
      </trkpt>
      <trkpt lat="50.0979" lon="4.14292">
        <ele>175.2</ele>
        <time>2024-04-28T09:06:47Z</time>
      </trkpt>
      <trkpt lat="50.09798" lon="4.14302">
        <ele>175</ele>
        <time>2024-04-28T09:06:48Z</time>
      </trkpt>
      <trkpt lat="50.09805" lon="4.14311">
        <ele>175.2</ele>
        <time>2024-04-28T09:06:49Z</time>
      </trkpt>
      <trkpt lat="50.09813" lon="4.14321">
        <ele>175.2</ele>
        <time>2024-04-28T09:06:50Z</time>
      </trkpt>
      <trkpt lat="50.09821" lon="4.1433">
        <ele>175.2</ele>
        <time>2024-04-28T09:06:51Z</time>
      </trkpt>
      <trkpt lat="50.09828" lon="4.14339">
        <ele>175.4</ele>
        <time>2024-04-28T09:06:52Z</time>
      </trkpt>
      <trkpt lat="50.09836" lon="4.14349">
        <ele>175.6</ele>
        <time>2024-04-28T09:06:53Z</time>
      </trkpt>
      <trkpt lat="50.09844" lon="4.14359">
        <ele>175.6</ele>
        <time>2024-04-28T09:06:54Z</time>
      </trkpt>
      <trkpt lat="50.09852" lon="4.14369">
        <ele>175.8</ele>
        <time>2024-04-28T09:06:55Z</time>
      </trkpt>
      <trkpt lat="50.0986" lon="4.14379">
        <ele>176</ele>
        <time>2024-04-28T09:06:56Z</time>
      </trkpt>
      <trkpt lat="50.09868" lon="4.14389">
        <ele>176</ele>
        <time>2024-04-28T09:06:57Z</time>
      </trkpt>
      <trkpt lat="50.09876" lon="4.14399">
        <ele>176</ele>
        <time>2024-04-28T09:06:58Z</time>
      </trkpt>
      <trkpt lat="50.09884" lon="4.1441">
        <ele>176</ele>
        <time>2024-04-28T09:06:59Z</time>
      </trkpt>
      <trkpt lat="50.09892" lon="4.14421">
        <ele>175.8</ele>
        <time>2024-04-28T09:07:00Z</time>
      </trkpt>
      <trkpt lat="50.099" lon="4.14431">
        <ele>175.6</ele>
        <time>2024-04-28T09:07:01Z</time>
      </trkpt>
      <trkpt lat="50.09909" lon="4.14441">
        <ele>175.6</ele>
        <time>2024-04-28T09:07:02Z</time>
      </trkpt>
      <trkpt lat="50.09918" lon="4.14452">
        <ele>175.6</ele>
        <time>2024-04-28T09:07:03Z</time>
      </trkpt>
      <trkpt lat="50.09927" lon="4.14462">
        <ele>175.6</ele>
        <time>2024-04-28T09:07:04Z</time>
      </trkpt>
      <trkpt lat="50.09935" lon="4.14473">
        <ele>175.4</ele>
        <time>2024-04-28T09:07:05Z</time>
      </trkpt>
      <trkpt lat="50.09943" lon="4.14483">
        <ele>175.4</ele>
        <time>2024-04-28T09:07:06Z</time>
      </trkpt>
      <trkpt lat="50.09952" lon="4.14494">
        <ele>174.8</ele>
        <time>2024-04-28T09:07:07Z</time>
      </trkpt>
      <trkpt lat="50.09961" lon="4.14505">
        <ele>174.6</ele>
        <time>2024-04-28T09:07:08Z</time>
      </trkpt>
      <trkpt lat="50.0997" lon="4.14516">
        <ele>174</ele>
        <time>2024-04-28T09:07:09Z</time>
      </trkpt>
      <trkpt lat="50.09979" lon="4.14528">
        <ele>173.6</ele>
        <time>2024-04-28T09:07:10Z</time>
      </trkpt>
      <trkpt lat="50.09988" lon="4.14539">
        <ele>173</ele>
        <time>2024-04-28T09:07:11Z</time>
      </trkpt>
      <trkpt lat="50.09996" lon="4.14551">
        <ele>172.8</ele>
        <time>2024-04-28T09:07:12Z</time>
      </trkpt>
      <trkpt lat="50.10005" lon="4.14563">
        <ele>172.6</ele>
        <time>2024-04-28T09:07:13Z</time>
      </trkpt>
      <trkpt lat="50.10014" lon="4.14576">
        <ele>172.4</ele>
        <time>2024-04-28T09:07:14Z</time>
      </trkpt>
      <trkpt lat="50.10023" lon="4.14589">
        <ele>172.2</ele>
        <time>2024-04-28T09:07:15Z</time>
      </trkpt>
      <trkpt lat="50.10032" lon="4.14603">
        <ele>171.4</ele>
        <time>2024-04-28T09:07:16Z</time>
      </trkpt>
      <trkpt lat="50.10041" lon="4.14618">
        <ele>170.6</ele>
        <time>2024-04-28T09:07:17Z</time>
      </trkpt>
      <trkpt lat="50.10049" lon="4.14634">
        <ele>169.8</ele>
        <time>2024-04-28T09:07:18Z</time>
      </trkpt>
      <trkpt lat="50.10056" lon="4.1465">
        <ele>169.2</ele>
        <time>2024-04-28T09:07:19Z</time>
      </trkpt>
      <trkpt lat="50.10063" lon="4.14667">
        <ele>168.6</ele>
        <time>2024-04-28T09:07:20Z</time>
      </trkpt>
      <trkpt lat="50.1007" lon="4.14683">
        <ele>168.6</ele>
        <time>2024-04-28T09:07:21Z</time>
      </trkpt>
      <trkpt lat="50.10078" lon="4.147">
        <ele>167.8</ele>
        <time>2024-04-28T09:07:22Z</time>
      </trkpt>
      <trkpt lat="50.10085" lon="4.14716">
        <ele>167.2</ele>
        <time>2024-04-28T09:07:23Z</time>
      </trkpt>
      <trkpt lat="50.10092" lon="4.14732">
        <ele>166.2</ele>
        <time>2024-04-28T09:07:24Z</time>
      </trkpt>
      <trkpt lat="50.101" lon="4.14748">
        <ele>164.8</ele>
        <time>2024-04-28T09:07:25Z</time>
      </trkpt>
      <trkpt lat="50.10107" lon="4.14764">
        <ele>164</ele>
        <time>2024-04-28T09:07:26Z</time>
      </trkpt>
      <trkpt lat="50.10113" lon="4.14779">
        <ele>163.2</ele>
        <time>2024-04-28T09:07:27Z</time>
      </trkpt>
      <trkpt lat="50.10119" lon="4.14795">
        <ele>162.6</ele>
        <time>2024-04-28T09:07:28Z</time>
      </trkpt>
      <trkpt lat="50.10124" lon="4.1481">
        <ele>162.4</ele>
        <time>2024-04-28T09:07:29Z</time>
      </trkpt>
      <trkpt lat="50.1013" lon="4.14825">
        <ele>162</ele>
        <time>2024-04-28T09:07:30Z</time>
      </trkpt>
      <trkpt lat="50.10134" lon="4.14839">
        <ele>162</ele>
        <time>2024-04-28T09:07:31Z</time>
      </trkpt>
      <trkpt lat="50.10139" lon="4.14852">
        <ele>162</ele>
        <time>2024-04-28T09:07:32Z</time>
      </trkpt>
      <trkpt lat="50.10143" lon="4.14866">
        <ele>162</ele>
        <time>2024-04-28T09:07:33Z</time>
      </trkpt>
      <trkpt lat="50.10146" lon="4.14878">
        <ele>161.8</ele>
        <time>2024-04-28T09:07:34Z</time>
      </trkpt>
      <trkpt lat="50.1015" lon="4.1489">
        <ele>162</ele>
        <time>2024-04-28T09:07:35Z</time>
      </trkpt>
      <trkpt lat="50.10153" lon="4.14902">
        <ele>162</ele>
        <time>2024-04-28T09:07:36Z</time>
      </trkpt>
      <trkpt lat="50.10155" lon="4.14913">
        <ele>162</ele>
        <time>2024-04-28T09:07:37Z</time>
      </trkpt>
      <trkpt lat="50.10158" lon="4.14923">
        <ele>162</ele>
        <time>2024-04-28T09:07:38Z</time>
      </trkpt>
      <trkpt lat="50.1016" lon="4.14933">
        <ele>162.2</ele>
        <time>2024-04-28T09:07:39Z</time>
      </trkpt>
      <trkpt lat="50.10163" lon="4.14943">
        <ele>162</ele>
        <time>2024-04-28T09:07:40Z</time>
      </trkpt>
      <trkpt lat="50.10165" lon="4.14952">
        <ele>162.4</ele>
        <time>2024-04-28T09:07:41Z</time>
      </trkpt>
      <trkpt lat="50.10166" lon="4.14961">
        <ele>162.8</ele>
        <time>2024-04-28T09:07:42Z</time>
      </trkpt>
      <trkpt lat="50.10168" lon="4.1497">
        <ele>163.2</ele>
        <time>2024-04-28T09:07:43Z</time>
      </trkpt>
      <trkpt lat="50.1017" lon="4.14978">
        <ele>163.6</ele>
        <time>2024-04-28T09:07:44Z</time>
      </trkpt>
      <trkpt lat="50.10171" lon="4.14986">
        <ele>164</ele>
        <time>2024-04-28T09:07:45Z</time>
      </trkpt>
      <trkpt lat="50.10173" lon="4.14994">
        <ele>164.4</ele>
        <time>2024-04-28T09:07:46Z</time>
      </trkpt>
      <trkpt lat="50.10174" lon="4.15002">
        <ele>165</ele>
        <time>2024-04-28T09:07:47Z</time>
      </trkpt>
      <trkpt lat="50.10176" lon="4.15009">
        <ele>165.8</ele>
        <time>2024-04-28T09:07:48Z</time>
      </trkpt>
      <trkpt lat="50.10177" lon="4.15017">
        <ele>167</ele>
        <time>2024-04-28T09:07:49Z</time>
      </trkpt>
      <trkpt lat="50.10179" lon="4.15025">
        <ele>167.6</ele>
        <time>2024-04-28T09:07:50Z</time>
      </trkpt>
      <trkpt lat="50.1018" lon="4.15032">
        <ele>168</ele>
        <time>2024-04-28T09:07:51Z</time>
      </trkpt>
      <trkpt lat="50.10182" lon="4.15039">
        <ele>168.4</ele>
        <time>2024-04-28T09:07:52Z</time>
      </trkpt>
      <trkpt lat="50.10183" lon="4.15045">
        <ele>168.6</ele>
        <time>2024-04-28T09:07:53Z</time>
      </trkpt>
      <trkpt lat="50.10185" lon="4.15052">
        <ele>168.6</ele>
        <time>2024-04-28T09:07:54Z</time>
      </trkpt>
      <trkpt lat="50.10186" lon="4.15059">
        <ele>169</ele>
        <time>2024-04-28T09:07:55Z</time>
      </trkpt>
      <trkpt lat="50.10187" lon="4.15065">
        <ele>169.4</ele>
        <time>2024-04-28T09:07:56Z</time>
      </trkpt>
      <trkpt lat="50.10188" lon="4.15071">
        <ele>170</ele>
        <time>2024-04-28T09:07:57Z</time>
      </trkpt>
      <trkpt lat="50.10189" lon="4.15077">
        <ele>170.4</ele>
        <time>2024-04-28T09:07:58Z</time>
      </trkpt>
      <trkpt lat="50.1019" lon="4.15083">
        <ele>170.8</ele>
        <time>2024-04-28T09:07:59Z</time>
      </trkpt>
      <trkpt lat="50.10191" lon="4.15089">
        <ele>171.4</ele>
        <time>2024-04-28T09:08:00Z</time>
      </trkpt>
      <trkpt lat="50.10192" lon="4.15095">
        <ele>171.6</ele>
        <time>2024-04-28T09:08:01Z</time>
      </trkpt>
      <trkpt lat="50.10193" lon="4.15101">
        <ele>172.2</ele>
        <time>2024-04-28T09:08:02Z</time>
      </trkpt>
      <trkpt lat="50.10194" lon="4.15108">
        <ele>173</ele>
        <time>2024-04-28T09:08:03Z</time>
      </trkpt>
      <trkpt lat="50.10195" lon="4.15114">
        <ele>173.4</ele>
        <time>2024-04-28T09:08:04Z</time>
      </trkpt>
      <trkpt lat="50.10196" lon="4.1512">
        <ele>174.2</ele>
        <time>2024-04-28T09:08:05Z</time>
      </trkpt>
      <trkpt lat="50.10197" lon="4.15126">
        <ele>174.4</ele>
        <time>2024-04-28T09:08:06Z</time>
      </trkpt>
      <trkpt lat="50.10199" lon="4.15133">
        <ele>175</ele>
        <time>2024-04-28T09:08:07Z</time>
      </trkpt>
      <trkpt lat="50.102" lon="4.15139">
        <ele>175.2</ele>
        <time>2024-04-28T09:08:08Z</time>
      </trkpt>
      <trkpt lat="50.10201" lon="4.15146">
        <ele>175.4</ele>
        <time>2024-04-28T09:08:09Z</time>
      </trkpt>
      <trkpt lat="50.10202" lon="4.15154">
        <ele>175.6</ele>
        <time>2024-04-28T09:08:10Z</time>
      </trkpt>
      <trkpt lat="50.10204" lon="4.15161">
        <ele>175.6</ele>
        <time>2024-04-28T09:08:11Z</time>
      </trkpt>
      <trkpt lat="50.10205" lon="4.15168">
        <ele>175.6</ele>
        <time>2024-04-28T09:08:12Z</time>
      </trkpt>
      <trkpt lat="50.10206" lon="4.15174">
        <ele>175.8</ele>
        <time>2024-04-28T09:08:13Z</time>
      </trkpt>
      <trkpt lat="50.10208" lon="4.15181">
        <ele>175.8</ele>
        <time>2024-04-28T09:08:14Z</time>
      </trkpt>
      <trkpt lat="50.10209" lon="4.15187">
        <ele>176</ele>
        <time>2024-04-28T09:08:15Z</time>
      </trkpt>
      <trkpt lat="50.1021" lon="4.15194">
        <ele>176.4</ele>
        <time>2024-04-28T09:08:16Z</time>
      </trkpt>
      <trkpt lat="50.10211" lon="4.15201">
        <ele>176.4</ele>
        <time>2024-04-28T09:08:17Z</time>
      </trkpt>
      <trkpt lat="50.10213" lon="4.15208">
        <ele>177</ele>
        <time>2024-04-28T09:08:18Z</time>
      </trkpt>
      <trkpt lat="50.10214" lon="4.15214">
        <ele>177.6</ele>
        <time>2024-04-28T09:08:19Z</time>
      </trkpt>
      <trkpt lat="50.10215" lon="4.15221">
        <ele>177.8</ele>
        <time>2024-04-28T09:08:20Z</time>
      </trkpt>
      <trkpt lat="50.10217" lon="4.15228">
        <ele>178</ele>
        <time>2024-04-28T09:08:21Z</time>
      </trkpt>
      <trkpt lat="50.10218" lon="4.15234">
        <ele>178.4</ele>
        <time>2024-04-28T09:08:22Z</time>
      </trkpt>
      <trkpt lat="50.10219" lon="4.15241">
        <ele>178.6</ele>
        <time>2024-04-28T09:08:23Z</time>
      </trkpt>
      <trkpt lat="50.1022" lon="4.15247">
        <ele>178.8</ele>
        <time>2024-04-28T09:08:24Z</time>
      </trkpt>
      <trkpt lat="50.10222" lon="4.15254">
        <ele>179</ele>
        <time>2024-04-28T09:08:25Z</time>
      </trkpt>
      <trkpt lat="50.10223" lon="4.15261">
        <ele>178.8</ele>
        <time>2024-04-28T09:08:26Z</time>
      </trkpt>
      <trkpt lat="50.10224" lon="4.15267">
        <ele>179.2</ele>
        <time>2024-04-28T09:08:27Z</time>
      </trkpt>
      <trkpt lat="50.10225" lon="4.15274">
        <ele>179.2</ele>
        <time>2024-04-28T09:08:28Z</time>
      </trkpt>
      <trkpt lat="50.10227" lon="4.15281">
        <ele>179.6</ele>
        <time>2024-04-28T09:08:29Z</time>
      </trkpt>
      <trkpt lat="50.10228" lon="4.15287">
        <ele>179.8</ele>
        <time>2024-04-28T09:08:30Z</time>
      </trkpt>
      <trkpt lat="50.1023" lon="4.15294">
        <ele>180.6</ele>
        <time>2024-04-28T09:08:31Z</time>
      </trkpt>
      <trkpt lat="50.10232" lon="4.15301">
        <ele>181.6</ele>
        <time>2024-04-28T09:08:32Z</time>
      </trkpt>
      <trkpt lat="50.10233" lon="4.15307">
        <ele>182.2</ele>
        <time>2024-04-28T09:08:33Z</time>
      </trkpt>
      <trkpt lat="50.10235" lon="4.15313">
        <ele>182.4</ele>
        <time>2024-04-28T09:08:34Z</time>
      </trkpt>
      <trkpt lat="50.10237" lon="4.15319">
        <ele>182.6</ele>
        <time>2024-04-28T09:08:35Z</time>
      </trkpt>
      <trkpt lat="50.10239" lon="4.15326">
        <ele>182.8</ele>
        <time>2024-04-28T09:08:36Z</time>
      </trkpt>
      <trkpt lat="50.10241" lon="4.15332">
        <ele>183.2</ele>
        <time>2024-04-28T09:08:37Z</time>
      </trkpt>
      <trkpt lat="50.10243" lon="4.15338">
        <ele>183.6</ele>
        <time>2024-04-28T09:08:38Z</time>
      </trkpt>
      <trkpt lat="50.10245" lon="4.15344">
        <ele>184</ele>
        <time>2024-04-28T09:08:39Z</time>
      </trkpt>
      <trkpt lat="50.10248" lon="4.1535">
        <ele>184.2</ele>
        <time>2024-04-28T09:08:40Z</time>
      </trkpt>
      <trkpt lat="50.1025" lon="4.15355">
        <ele>184.4</ele>
        <time>2024-04-28T09:08:41Z</time>
      </trkpt>
      <trkpt lat="50.10252" lon="4.15361">
        <ele>184.6</ele>
        <time>2024-04-28T09:08:42Z</time>
      </trkpt>
      <trkpt lat="50.10255" lon="4.15365">
        <ele>185.2</ele>
        <time>2024-04-28T09:08:43Z</time>
      </trkpt>
      <trkpt lat="50.10257" lon="4.15371">
        <ele>185.2</ele>
        <time>2024-04-28T09:08:44Z</time>
      </trkpt>
      <trkpt lat="50.1026" lon="4.15376">
        <ele>185.2</ele>
        <time>2024-04-28T09:08:45Z</time>
      </trkpt>
      <trkpt lat="50.10263" lon="4.15381">
        <ele>185.4</ele>
        <time>2024-04-28T09:08:46Z</time>
      </trkpt>
      <trkpt lat="50.10266" lon="4.15385">
        <ele>185.6</ele>
        <time>2024-04-28T09:08:47Z</time>
      </trkpt>
      <trkpt lat="50.10268" lon="4.1539">
        <ele>185.8</ele>
        <time>2024-04-28T09:08:48Z</time>
      </trkpt>
      <trkpt lat="50.1027" lon="4.15394">
        <ele>185.8</ele>
        <time>2024-04-28T09:08:49Z</time>
      </trkpt>
      <trkpt lat="50.10273" lon="4.15399">
        <ele>186</ele>
        <time>2024-04-28T09:08:50Z</time>
      </trkpt>
      <trkpt lat="50.10276" lon="4.15403">
        <ele>186</ele>
        <time>2024-04-28T09:08:51Z</time>
      </trkpt>
      <trkpt lat="50.10278" lon="4.15408">
        <ele>186.2</ele>
        <time>2024-04-28T09:08:52Z</time>
      </trkpt>
      <trkpt lat="50.10281" lon="4.15412">
        <ele>186.4</ele>
        <time>2024-04-28T09:08:53Z</time>
      </trkpt>
      <trkpt lat="50.10284" lon="4.15417">
        <ele>186.8</ele>
        <time>2024-04-28T09:08:54Z</time>
      </trkpt>
      <trkpt lat="50.10286" lon="4.15421">
        <ele>187</ele>
        <time>2024-04-28T09:08:55Z</time>
      </trkpt>
      <trkpt lat="50.10289" lon="4.15425">
        <ele>187.8</ele>
        <time>2024-04-28T09:08:56Z</time>
      </trkpt>
      <trkpt lat="50.10292" lon="4.15429">
        <ele>188.6</ele>
        <time>2024-04-28T09:08:57Z</time>
      </trkpt>
      <trkpt lat="50.10294" lon="4.15434">
        <ele>189.2</ele>
        <time>2024-04-28T09:08:58Z</time>
      </trkpt>
      <trkpt lat="50.10297" lon="4.15438">
        <ele>189.4</ele>
        <time>2024-04-28T09:08:59Z</time>
      </trkpt>
      <trkpt lat="50.10299" lon="4.15442">
        <ele>189.6</ele>
        <time>2024-04-28T09:09:00Z</time>
      </trkpt>
      <trkpt lat="50.10302" lon="4.15446">
        <ele>189.6</ele>
        <time>2024-04-28T09:09:01Z</time>
      </trkpt>
      <trkpt lat="50.10305" lon="4.1545">
        <ele>189.8</ele>
        <time>2024-04-28T09:09:02Z</time>
      </trkpt>
      <trkpt lat="50.10307" lon="4.15455">
        <ele>190</ele>
        <time>2024-04-28T09:09:03Z</time>
      </trkpt>
      <trkpt lat="50.10309" lon="4.15459">
        <ele>190</ele>
        <time>2024-04-28T09:09:04Z</time>
      </trkpt>
      <trkpt lat="50.10312" lon="4.15463">
        <ele>190.2</ele>
        <time>2024-04-28T09:09:05Z</time>
      </trkpt>
      <trkpt lat="50.10314" lon="4.15467">
        <ele>190.4</ele>
        <time>2024-04-28T09:09:06Z</time>
      </trkpt>
      <trkpt lat="50.10317" lon="4.15472">
        <ele>191</ele>
        <time>2024-04-28T09:09:07Z</time>
      </trkpt>
      <trkpt lat="50.10319" lon="4.15476">
        <ele>191.4</ele>
        <time>2024-04-28T09:09:08Z</time>
      </trkpt>
      <trkpt lat="50.10322" lon="4.1548">
        <ele>191.6</ele>
        <time>2024-04-28T09:09:09Z</time>
      </trkpt>
      <trkpt lat="50.10325" lon="4.15484">
        <ele>191.8</ele>
        <time>2024-04-28T09:09:10Z</time>
      </trkpt>
      <trkpt lat="50.10328" lon="4.15488">
        <ele>192</ele>
        <time>2024-04-28T09:09:11Z</time>
      </trkpt>
      <trkpt lat="50.1033" lon="4.15492">
        <ele>192.4</ele>
        <time>2024-04-28T09:09:12Z</time>
      </trkpt>
      <trkpt lat="50.10333" lon="4.15496">
        <ele>192.4</ele>
        <time>2024-04-28T09:09:13Z</time>
      </trkpt>
      <trkpt lat="50.10336" lon="4.155">
        <ele>192.8</ele>
        <time>2024-04-28T09:09:14Z</time>
      </trkpt>
      <trkpt lat="50.10338" lon="4.15504">
        <ele>193.6</ele>
        <time>2024-04-28T09:09:15Z</time>
      </trkpt>
      <trkpt lat="50.10341" lon="4.15508">
        <ele>194.2</ele>
        <time>2024-04-28T09:09:16Z</time>
      </trkpt>
      <trkpt lat="50.10344" lon="4.15512">
        <ele>195.2</ele>
        <time>2024-04-28T09:09:17Z</time>
      </trkpt>
      <trkpt lat="50.10346" lon="4.15516">
        <ele>195.2</ele>
        <time>2024-04-28T09:09:18Z</time>
      </trkpt>
      <trkpt lat="50.10349" lon="4.1552">
        <ele>195.6</ele>
        <time>2024-04-28T09:09:19Z</time>
      </trkpt>
      <trkpt lat="50.10352" lon="4.15523">
        <ele>195.8</ele>
        <time>2024-04-28T09:09:20Z</time>
      </trkpt>
      <trkpt lat="50.10355" lon="4.15527">
        <ele>196.2</ele>
        <time>2024-04-28T09:09:21Z</time>
      </trkpt>
      <trkpt lat="50.10358" lon="4.15531">
        <ele>196.2</ele>
        <time>2024-04-28T09:09:22Z</time>
      </trkpt>
      <trkpt lat="50.10361" lon="4.15534">
        <ele>196.4</ele>
        <time>2024-04-28T09:09:23Z</time>
      </trkpt>
      <trkpt lat="50.10364" lon="4.15538">
        <ele>196.8</ele>
        <time>2024-04-28T09:09:24Z</time>
      </trkpt>
      <trkpt lat="50.10367" lon="4.15541">
        <ele>197</ele>
        <time>2024-04-28T09:09:25Z</time>
      </trkpt>
      <trkpt lat="50.10371" lon="4.15544">
        <ele>197.2</ele>
        <time>2024-04-28T09:09:26Z</time>
      </trkpt>
      <trkpt lat="50.10374" lon="4.15546">
        <ele>197.6</ele>
        <time>2024-04-28T09:09:27Z</time>
      </trkpt>
      <trkpt lat="50.10377" lon="4.1555">
        <ele>198</ele>
        <time>2024-04-28T09:09:28Z</time>
      </trkpt>
      <trkpt lat="50.10381" lon="4.15553">
        <ele>198</ele>
        <time>2024-04-28T09:09:29Z</time>
      </trkpt>
      <trkpt lat="50.10384" lon="4.15556">
        <ele>198.2</ele>
        <time>2024-04-28T09:09:30Z</time>
      </trkpt>
      <trkpt lat="50.10387" lon="4.15559">
        <ele>198.2</ele>
        <time>2024-04-28T09:09:31Z</time>
      </trkpt>
      <trkpt lat="50.10391" lon="4.15562">
        <ele>198.4</ele>
        <time>2024-04-28T09:09:32Z</time>
      </trkpt>
      <trkpt lat="50.10394" lon="4.15565">
        <ele>198.4</ele>
        <time>2024-04-28T09:09:33Z</time>
      </trkpt>
      <trkpt lat="50.10398" lon="4.15568">
        <ele>198.8</ele>
        <time>2024-04-28T09:09:34Z</time>
      </trkpt>
      <trkpt lat="50.10402" lon="4.15571">
        <ele>199</ele>
        <time>2024-04-28T09:09:35Z</time>
      </trkpt>
      <trkpt lat="50.10406" lon="4.15575">
        <ele>199</ele>
        <time>2024-04-28T09:09:36Z</time>
      </trkpt>
      <trkpt lat="50.10409" lon="4.15578">
        <ele>199.2</ele>
        <time>2024-04-28T09:09:37Z</time>
      </trkpt>
      <trkpt lat="50.10413" lon="4.15582">
        <ele>199.4</ele>
        <time>2024-04-28T09:09:38Z</time>
      </trkpt>
      <trkpt lat="50.10417" lon="4.15585">
        <ele>199.6</ele>
        <time>2024-04-28T09:09:39Z</time>
      </trkpt>
      <trkpt lat="50.1042" lon="4.15588">
        <ele>199.8</ele>
        <time>2024-04-28T09:09:40Z</time>
      </trkpt>
      <trkpt lat="50.10424" lon="4.15592">
        <ele>200</ele>
        <time>2024-04-28T09:09:41Z</time>
      </trkpt>
      <trkpt lat="50.10428" lon="4.15595">
        <ele>200.2</ele>
        <time>2024-04-28T09:09:42Z</time>
      </trkpt>
      <trkpt lat="50.10431" lon="4.15598">
        <ele>200.8</ele>
        <time>2024-04-28T09:09:43Z</time>
      </trkpt>
      <trkpt lat="50.10435" lon="4.15601">
        <ele>201.4</ele>
        <time>2024-04-28T09:09:44Z</time>
      </trkpt>
      <trkpt lat="50.10438" lon="4.15604">
        <ele>202</ele>
        <time>2024-04-28T09:09:45Z</time>
      </trkpt>
      <trkpt lat="50.10442" lon="4.15608">
        <ele>202.4</ele>
        <time>2024-04-28T09:09:46Z</time>
      </trkpt>
      <trkpt lat="50.10446" lon="4.15611">
        <ele>202.6</ele>
        <time>2024-04-28T09:09:47Z</time>
      </trkpt>
      <trkpt lat="50.1045" lon="4.15614">
        <ele>203.2</ele>
        <time>2024-04-28T09:09:48Z</time>
      </trkpt>
      <trkpt lat="50.10454" lon="4.15618">
        <ele>203.6</ele>
        <time>2024-04-28T09:09:49Z</time>
      </trkpt>
      <trkpt lat="50.10458" lon="4.15621">
        <ele>203.6</ele>
        <time>2024-04-28T09:09:50Z</time>
      </trkpt>
      <trkpt lat="50.10462" lon="4.15625">
        <ele>203.8</ele>
        <time>2024-04-28T09:09:51Z</time>
      </trkpt>
      <trkpt lat="50.10467" lon="4.15628">
        <ele>204</ele>
        <time>2024-04-28T09:09:52Z</time>
      </trkpt>
      <trkpt lat="50.10471" lon="4.15632">
        <ele>204.2</ele>
        <time>2024-04-28T09:09:53Z</time>
      </trkpt>
      <trkpt lat="50.10475" lon="4.15636">
        <ele>204.4</ele>
        <time>2024-04-28T09:09:54Z</time>
      </trkpt>
      <trkpt lat="50.1048" lon="4.1564">
        <ele>204.8</ele>
        <time>2024-04-28T09:09:55Z</time>
      </trkpt>
      <trkpt lat="50.10485" lon="4.15644">
        <ele>205</ele>
        <time>2024-04-28T09:09:56Z</time>
      </trkpt>
      <trkpt lat="50.1049" lon="4.15649">
        <ele>205</ele>
        <time>2024-04-28T09:09:57Z</time>
      </trkpt>
      <trkpt lat="50.10494" lon="4.15653">
        <ele>205</ele>
        <time>2024-04-28T09:09:58Z</time>
      </trkpt>
      <trkpt lat="50.10499" lon="4.15657">
        <ele>205</ele>
        <time>2024-04-28T09:09:59Z</time>
      </trkpt>
      <trkpt lat="50.10504" lon="4.15661">
        <ele>205.2</ele>
        <time>2024-04-28T09:10:00Z</time>
      </trkpt>
      <trkpt lat="50.10509" lon="4.15665">
        <ele>205.2</ele>
        <time>2024-04-28T09:10:01Z</time>
      </trkpt>
      <trkpt lat="50.10514" lon="4.1567">
        <ele>205</ele>
        <time>2024-04-28T09:10:02Z</time>
      </trkpt>
      <trkpt lat="50.10519" lon="4.15674">
        <ele>205.2</ele>
        <time>2024-04-28T09:10:03Z</time>
      </trkpt>
      <trkpt lat="50.10524" lon="4.15679">
        <ele>205.2</ele>
        <time>2024-04-28T09:10:04Z</time>
      </trkpt>
      <trkpt lat="50.10529" lon="4.15683">
        <ele>205.2</ele>
        <time>2024-04-28T09:10:05Z</time>
      </trkpt>
      <trkpt lat="50.10534" lon="4.15687">
        <ele>205.4</ele>
        <time>2024-04-28T09:10:06Z</time>
      </trkpt>
      <trkpt lat="50.10539" lon="4.15691">
        <ele>205.4</ele>
        <time>2024-04-28T09:10:07Z</time>
      </trkpt>
      <trkpt lat="50.10544" lon="4.15696">
        <ele>205.6</ele>
        <time>2024-04-28T09:10:08Z</time>
      </trkpt>
      <trkpt lat="50.10549" lon="4.157">
        <ele>205.6</ele>
        <time>2024-04-28T09:10:09Z</time>
      </trkpt>
      <trkpt lat="50.10553" lon="4.15704">
        <ele>206</ele>
        <time>2024-04-28T09:10:10Z</time>
      </trkpt>
      <trkpt lat="50.10558" lon="4.15709">
        <ele>205.8</ele>
        <time>2024-04-28T09:10:11Z</time>
      </trkpt>
      <trkpt lat="50.10563" lon="4.15713">
        <ele>206</ele>
        <time>2024-04-28T09:10:12Z</time>
      </trkpt>
      <trkpt lat="50.10568" lon="4.15717">
        <ele>206.4</ele>
        <time>2024-04-28T09:10:13Z</time>
      </trkpt>
      <trkpt lat="50.10573" lon="4.15722">
        <ele>206.4</ele>
        <time>2024-04-28T09:10:14Z</time>
      </trkpt>
      <trkpt lat="50.10578" lon="4.15726">
        <ele>206.6</ele>
        <time>2024-04-28T09:10:15Z</time>
      </trkpt>
      <trkpt lat="50.10583" lon="4.1573">
        <ele>206.6</ele>
        <time>2024-04-28T09:10:16Z</time>
      </trkpt>
      <trkpt lat="50.10588" lon="4.15735">
        <ele>206.8</ele>
        <time>2024-04-28T09:10:17Z</time>
      </trkpt>
      <trkpt lat="50.10592" lon="4.15739">
        <ele>207</ele>
        <time>2024-04-28T09:10:18Z</time>
      </trkpt>
      <trkpt lat="50.10597" lon="4.15743">
        <ele>207.4</ele>
        <time>2024-04-28T09:10:19Z</time>
      </trkpt>
      <trkpt lat="50.10602" lon="4.15747">
        <ele>207.4</ele>
        <time>2024-04-28T09:10:20Z</time>
      </trkpt>
      <trkpt lat="50.10607" lon="4.15752">
        <ele>207.8</ele>
        <time>2024-04-28T09:10:21Z</time>
      </trkpt>
      <trkpt lat="50.10612" lon="4.15756">
        <ele>207.8</ele>
        <time>2024-04-28T09:10:22Z</time>
      </trkpt>
      <trkpt lat="50.10616" lon="4.1576">
        <ele>208</ele>
        <time>2024-04-28T09:10:23Z</time>
      </trkpt>
      <trkpt lat="50.10621" lon="4.15764">
        <ele>208.2</ele>
        <time>2024-04-28T09:10:24Z</time>
      </trkpt>
      <trkpt lat="50.10626" lon="4.15769">
        <ele>208.4</ele>
        <time>2024-04-28T09:10:25Z</time>
      </trkpt>
      <trkpt lat="50.10631" lon="4.15773">
        <ele>208.8</ele>
        <time>2024-04-28T09:10:26Z</time>
      </trkpt>
      <trkpt lat="50.10636" lon="4.15777">
        <ele>209</ele>
        <time>2024-04-28T09:10:27Z</time>
      </trkpt>
      <trkpt lat="50.10641" lon="4.15782">
        <ele>209.6</ele>
        <time>2024-04-28T09:10:28Z</time>
      </trkpt>
      <trkpt lat="50.10645" lon="4.15786">
        <ele>209.6</ele>
        <time>2024-04-28T09:10:29Z</time>
      </trkpt>
      <trkpt lat="50.1065" lon="4.1579">
        <ele>209.6</ele>
        <time>2024-04-28T09:10:30Z</time>
      </trkpt>
      <trkpt lat="50.10655" lon="4.15795">
        <ele>210</ele>
        <time>2024-04-28T09:10:31Z</time>
      </trkpt>
      <trkpt lat="50.1066" lon="4.15799">
        <ele>210.4</ele>
        <time>2024-04-28T09:10:32Z</time>
      </trkpt>
      <trkpt lat="50.10665" lon="4.15803">
        <ele>210.8</ele>
        <time>2024-04-28T09:10:33Z</time>
      </trkpt>
      <trkpt lat="50.1067" lon="4.15807">
        <ele>211</ele>
        <time>2024-04-28T09:10:34Z</time>
      </trkpt>
      <trkpt lat="50.10674" lon="4.15812">
        <ele>211.2</ele>
        <time>2024-04-28T09:10:35Z</time>
      </trkpt>
      <trkpt lat="50.10679" lon="4.15816">
        <ele>211.4</ele>
        <time>2024-04-28T09:10:36Z</time>
      </trkpt>
      <trkpt lat="50.10684" lon="4.1582">
        <ele>211.4</ele>
        <time>2024-04-28T09:10:37Z</time>
      </trkpt>
      <trkpt lat="50.10688" lon="4.15824">
        <ele>212</ele>
        <time>2024-04-28T09:10:38Z</time>
      </trkpt>
      <trkpt lat="50.10693" lon="4.15829">
        <ele>212.2</ele>
        <time>2024-04-28T09:10:39Z</time>
      </trkpt>
      <trkpt lat="50.10698" lon="4.15833">
        <ele>212.6</ele>
        <time>2024-04-28T09:10:40Z</time>
      </trkpt>
      <trkpt lat="50.10703" lon="4.15838">
        <ele>212.8</ele>
        <time>2024-04-28T09:10:41Z</time>
      </trkpt>
      <trkpt lat="50.10707" lon="4.15842">
        <ele>213.2</ele>
        <time>2024-04-28T09:10:42Z</time>
      </trkpt>
      <trkpt lat="50.10712" lon="4.15847">
        <ele>213.6</ele>
        <time>2024-04-28T09:10:43Z</time>
      </trkpt>
      <trkpt lat="50.10717" lon="4.15852">
        <ele>213.8</ele>
        <time>2024-04-28T09:10:44Z</time>
      </trkpt>
      <trkpt lat="50.10722" lon="4.15856">
        <ele>214.2</ele>
        <time>2024-04-28T09:10:45Z</time>
      </trkpt>
      <trkpt lat="50.10726" lon="4.15861">
        <ele>214.4</ele>
        <time>2024-04-28T09:10:46Z</time>
      </trkpt>
      <trkpt lat="50.10731" lon="4.15867">
        <ele>214.6</ele>
        <time>2024-04-28T09:10:47Z</time>
      </trkpt>
      <trkpt lat="50.10736" lon="4.15872">
        <ele>215</ele>
        <time>2024-04-28T09:10:48Z</time>
      </trkpt>
      <trkpt lat="50.1074" lon="4.15878">
        <ele>215</ele>
        <time>2024-04-28T09:10:49Z</time>
      </trkpt>
      <trkpt lat="50.10744" lon="4.15883">
        <ele>215.2</ele>
        <time>2024-04-28T09:10:50Z</time>
      </trkpt>
      <trkpt lat="50.10749" lon="4.15889">
        <ele>215.6</ele>
        <time>2024-04-28T09:10:51Z</time>
      </trkpt>
      <trkpt lat="50.10754" lon="4.15895">
        <ele>215.8</ele>
        <time>2024-04-28T09:10:52Z</time>
      </trkpt>
      <trkpt lat="50.10758" lon="4.15901">
        <ele>216</ele>
        <time>2024-04-28T09:10:53Z</time>
      </trkpt>
      <trkpt lat="50.10762" lon="4.15908">
        <ele>216.2</ele>
        <time>2024-04-28T09:10:54Z</time>
      </trkpt>
      <trkpt lat="50.10767" lon="4.15914">
        <ele>216.2</ele>
        <time>2024-04-28T09:10:55Z</time>
      </trkpt>
      <trkpt lat="50.10771" lon="4.1592">
        <ele>216.4</ele>
        <time>2024-04-28T09:10:56Z</time>
      </trkpt>
      <trkpt lat="50.10776" lon="4.15926">
        <ele>216.4</ele>
        <time>2024-04-28T09:10:57Z</time>
      </trkpt>
      <trkpt lat="50.1078" lon="4.15933">
        <ele>216.8</ele>
        <time>2024-04-28T09:10:58Z</time>
      </trkpt>
      <trkpt lat="50.10785" lon="4.15939">
        <ele>217.2</ele>
        <time>2024-04-28T09:10:59Z</time>
      </trkpt>
      <trkpt lat="50.1079" lon="4.15946">
        <ele>217.2</ele>
        <time>2024-04-28T09:11:00Z</time>
      </trkpt>
      <trkpt lat="50.10794" lon="4.15954">
        <ele>217.2</ele>
        <time>2024-04-28T09:11:01Z</time>
      </trkpt>
      <trkpt lat="50.10799" lon="4.15961">
        <ele>217.6</ele>
        <time>2024-04-28T09:11:02Z</time>
      </trkpt>
      <trkpt lat="50.10804" lon="4.15969">
        <ele>217.6</ele>
        <time>2024-04-28T09:11:03Z</time>
      </trkpt>
      <trkpt lat="50.10808" lon="4.15976">
        <ele>217.6</ele>
        <time>2024-04-28T09:11:04Z</time>
      </trkpt>
      <trkpt lat="50.10813" lon="4.15984">
        <ele>218</ele>
        <time>2024-04-28T09:11:05Z</time>
      </trkpt>
      <trkpt lat="50.10818" lon="4.15992">
        <ele>218</ele>
        <time>2024-04-28T09:11:06Z</time>
      </trkpt>
      <trkpt lat="50.10823" lon="4.16">
        <ele>218.2</ele>
        <time>2024-04-28T09:11:07Z</time>
      </trkpt>
      <trkpt lat="50.10828" lon="4.16007">
        <ele>218.2</ele>
        <time>2024-04-28T09:11:08Z</time>
      </trkpt>
      <trkpt lat="50.10833" lon="4.16015">
        <ele>218.2</ele>
        <time>2024-04-28T09:11:09Z</time>
      </trkpt>
      <trkpt lat="50.10837" lon="4.16022">
        <ele>218.4</ele>
        <time>2024-04-28T09:11:10Z</time>
      </trkpt>
      <trkpt lat="50.10842" lon="4.1603">
        <ele>218.2</ele>
        <time>2024-04-28T09:11:11Z</time>
      </trkpt>
      <trkpt lat="50.10847" lon="4.16037">
        <ele>218.2</ele>
        <time>2024-04-28T09:11:12Z</time>
      </trkpt>
      <trkpt lat="50.10852" lon="4.16045">
        <ele>218.2</ele>
        <time>2024-04-28T09:11:13Z</time>
      </trkpt>
      <trkpt lat="50.10857" lon="4.16052">
        <ele>218.2</ele>
        <time>2024-04-28T09:11:14Z</time>
      </trkpt>
      <trkpt lat="50.10862" lon="4.1606">
        <ele>218.2</ele>
        <time>2024-04-28T09:11:15Z</time>
      </trkpt>
      <trkpt lat="50.10867" lon="4.16067">
        <ele>218.2</ele>
        <time>2024-04-28T09:11:16Z</time>
      </trkpt>
      <trkpt lat="50.10872" lon="4.16075">
        <ele>218.4</ele>
        <time>2024-04-28T09:11:17Z</time>
      </trkpt>
      <trkpt lat="50.10878" lon="4.16082">
        <ele>218.2</ele>
        <time>2024-04-28T09:11:18Z</time>
      </trkpt>
      <trkpt lat="50.10883" lon="4.1609">
        <ele>218.2</ele>
        <time>2024-04-28T09:11:19Z</time>
      </trkpt>
      <trkpt lat="50.10888" lon="4.16098">
        <ele>218.2</ele>
        <time>2024-04-28T09:11:20Z</time>
      </trkpt>
      <trkpt lat="50.10894" lon="4.16106">
        <ele>218.2</ele>
        <time>2024-04-28T09:11:21Z</time>
      </trkpt>
      <trkpt lat="50.10899" lon="4.16113">
        <ele>218.2</ele>
        <time>2024-04-28T09:11:22Z</time>
      </trkpt>
      <trkpt lat="50.10904" lon="4.16122">
        <ele>218.4</ele>
        <time>2024-04-28T09:11:23Z</time>
      </trkpt>
      <trkpt lat="50.10909" lon="4.16129">
        <ele>218.2</ele>
        <time>2024-04-28T09:11:24Z</time>
      </trkpt>
      <trkpt lat="50.10914" lon="4.16137">
        <ele>218.2</ele>
        <time>2024-04-28T09:11:25Z</time>
      </trkpt>
      <trkpt lat="50.10919" lon="4.16145">
        <ele>218.2</ele>
        <time>2024-04-28T09:11:26Z</time>
      </trkpt>
      <trkpt lat="50.10924" lon="4.16154">
        <ele>218.4</ele>
        <time>2024-04-28T09:11:27Z</time>
      </trkpt>
      <trkpt lat="50.1093" lon="4.16162">
        <ele>218.4</ele>
        <time>2024-04-28T09:11:28Z</time>
      </trkpt>
      <trkpt lat="50.10935" lon="4.1617">
        <ele>218.6</ele>
        <time>2024-04-28T09:11:29Z</time>
      </trkpt>
      <trkpt lat="50.1094" lon="4.16179">
        <ele>219</ele>
        <time>2024-04-28T09:11:30Z</time>
      </trkpt>
      <trkpt lat="50.10945" lon="4.16188">
        <ele>218.8</ele>
        <time>2024-04-28T09:11:31Z</time>
      </trkpt>
      <trkpt lat="50.1095" lon="4.16197">
        <ele>218.8</ele>
        <time>2024-04-28T09:11:32Z</time>
      </trkpt>
      <trkpt lat="50.10954" lon="4.16207">
        <ele>218.8</ele>
        <time>2024-04-28T09:11:33Z</time>
      </trkpt>
      <trkpt lat="50.10959" lon="4.16216">
        <ele>219</ele>
        <time>2024-04-28T09:11:34Z</time>
      </trkpt>
      <trkpt lat="50.10963" lon="4.16226">
        <ele>219</ele>
        <time>2024-04-28T09:11:35Z</time>
      </trkpt>
      <trkpt lat="50.10966" lon="4.16236">
        <ele>219</ele>
        <time>2024-04-28T09:11:36Z</time>
      </trkpt>
      <trkpt lat="50.10969" lon="4.16246">
        <ele>219</ele>
        <time>2024-04-28T09:11:37Z</time>
      </trkpt>
      <trkpt lat="50.10972" lon="4.16257">
        <ele>219</ele>
        <time>2024-04-28T09:11:38Z</time>
      </trkpt>
      <trkpt lat="50.10975" lon="4.16267">
        <ele>219</ele>
        <time>2024-04-28T09:11:39Z</time>
      </trkpt>
      <trkpt lat="50.10977" lon="4.16277">
        <ele>219.2</ele>
        <time>2024-04-28T09:11:40Z</time>
      </trkpt>
      <trkpt lat="50.1098" lon="4.16288">
        <ele>219.2</ele>
        <time>2024-04-28T09:11:41Z</time>
      </trkpt>
      <trkpt lat="50.10982" lon="4.16298">
        <ele>219.2</ele>
        <time>2024-04-28T09:11:42Z</time>
      </trkpt>
      <trkpt lat="50.10985" lon="4.16309">
        <ele>219.4</ele>
        <time>2024-04-28T09:11:43Z</time>
      </trkpt>
      <trkpt lat="50.10988" lon="4.1632">
        <ele>219.6</ele>
        <time>2024-04-28T09:11:44Z</time>
      </trkpt>
      <trkpt lat="50.1099" lon="4.16331">
        <ele>219.8</ele>
        <time>2024-04-28T09:11:45Z</time>
      </trkpt>
      <trkpt lat="50.10993" lon="4.16342">
        <ele>220.2</ele>
        <time>2024-04-28T09:11:46Z</time>
      </trkpt>
      <trkpt lat="50.10995" lon="4.16353">
        <ele>220</ele>
        <time>2024-04-28T09:11:47Z</time>
      </trkpt>
      <trkpt lat="50.10998" lon="4.16364">
        <ele>220.4</ele>
        <time>2024-04-28T09:11:48Z</time>
      </trkpt>
      <trkpt lat="50.11001" lon="4.16374">
        <ele>220.4</ele>
        <time>2024-04-28T09:11:49Z</time>
      </trkpt>
      <trkpt lat="50.11003" lon="4.16385">
        <ele>220.4</ele>
        <time>2024-04-28T09:11:50Z</time>
      </trkpt>
      <trkpt lat="50.11006" lon="4.16396">
        <ele>220.4</ele>
        <time>2024-04-28T09:11:51Z</time>
      </trkpt>
      <trkpt lat="50.1101" lon="4.16406">
        <ele>220.4</ele>
        <time>2024-04-28T09:11:52Z</time>
      </trkpt>
      <trkpt lat="50.11014" lon="4.16417">
        <ele>220.4</ele>
        <time>2024-04-28T09:11:53Z</time>
      </trkpt>
      <trkpt lat="50.11019" lon="4.16428">
        <ele>220.4</ele>
        <time>2024-04-28T09:11:54Z</time>
      </trkpt>
      <trkpt lat="50.11023" lon="4.16438">
        <ele>220.4</ele>
        <time>2024-04-28T09:11:55Z</time>
      </trkpt>
      <trkpt lat="50.11028" lon="4.16449">
        <ele>220.6</ele>
        <time>2024-04-28T09:11:56Z</time>
      </trkpt>
      <trkpt lat="50.11033" lon="4.16458">
        <ele>220.2</ele>
        <time>2024-04-28T09:11:57Z</time>
      </trkpt>
      <trkpt lat="50.11039" lon="4.16468">
        <ele>220.2</ele>
        <time>2024-04-28T09:11:58Z</time>
      </trkpt>
      <trkpt lat="50.11044" lon="4.16477">
        <ele>220.2</ele>
        <time>2024-04-28T09:11:59Z</time>
      </trkpt>
      <trkpt lat="50.1105" lon="4.16486">
        <ele>220.2</ele>
        <time>2024-04-28T09:12:00Z</time>
      </trkpt>
      <trkpt lat="50.11057" lon="4.16494">
        <ele>220.2</ele>
        <time>2024-04-28T09:12:01Z</time>
      </trkpt>
      <trkpt lat="50.11063" lon="4.16502">
        <ele>220.4</ele>
        <time>2024-04-28T09:12:02Z</time>
      </trkpt>
      <trkpt lat="50.1107" lon="4.16509">
        <ele>220.2</ele>
        <time>2024-04-28T09:12:03Z</time>
      </trkpt>
      <trkpt lat="50.11077" lon="4.16516">
        <ele>220</ele>
        <time>2024-04-28T09:12:04Z</time>
      </trkpt>
      <trkpt lat="50.11084" lon="4.16522">
        <ele>220.2</ele>
        <time>2024-04-28T09:12:05Z</time>
      </trkpt>
      <trkpt lat="50.11091" lon="4.16528">
        <ele>220</ele>
        <time>2024-04-28T09:12:06Z</time>
      </trkpt>
      <trkpt lat="50.11099" lon="4.16534">
        <ele>220</ele>
        <time>2024-04-28T09:12:07Z</time>
      </trkpt>
      <trkpt lat="50.11106" lon="4.1654">
        <ele>220</ele>
        <time>2024-04-28T09:12:08Z</time>
      </trkpt>
      <trkpt lat="50.11114" lon="4.16545">
        <ele>219.8</ele>
        <time>2024-04-28T09:12:09Z</time>
      </trkpt>
      <trkpt lat="50.11122" lon="4.1655">
        <ele>219.8</ele>
        <time>2024-04-28T09:12:10Z</time>
      </trkpt>
      <trkpt lat="50.11129" lon="4.16555">
        <ele>219.8</ele>
        <time>2024-04-28T09:12:11Z</time>
      </trkpt>
      <trkpt lat="50.11137" lon="4.16561">
        <ele>219.8</ele>
        <time>2024-04-28T09:12:12Z</time>
      </trkpt>
      <trkpt lat="50.11145" lon="4.16566">
        <ele>219.6</ele>
        <time>2024-04-28T09:12:13Z</time>
      </trkpt>
      <trkpt lat="50.11152" lon="4.16572">
        <ele>219.4</ele>
        <time>2024-04-28T09:12:14Z</time>
      </trkpt>
      <trkpt lat="50.1116" lon="4.16578">
        <ele>219.4</ele>
        <time>2024-04-28T09:12:15Z</time>
      </trkpt>
      <trkpt lat="50.11168" lon="4.16583">
        <ele>219.2</ele>
        <time>2024-04-28T09:12:16Z</time>
      </trkpt>
      <trkpt lat="50.11176" lon="4.16589">
        <ele>219.2</ele>
        <time>2024-04-28T09:12:17Z</time>
      </trkpt>
      <trkpt lat="50.11184" lon="4.16596">
        <ele>219.2</ele>
        <time>2024-04-28T09:12:18Z</time>
      </trkpt>
      <trkpt lat="50.11191" lon="4.16601">
        <ele>219</ele>
        <time>2024-04-28T09:12:19Z</time>
      </trkpt>
      <trkpt lat="50.112" lon="4.16608">
        <ele>219</ele>
        <time>2024-04-28T09:12:20Z</time>
      </trkpt>
      <trkpt lat="50.11208" lon="4.16614">
        <ele>219</ele>
        <time>2024-04-28T09:12:21Z</time>
      </trkpt>
      <trkpt lat="50.11216" lon="4.1662">
        <ele>219</ele>
        <time>2024-04-28T09:12:22Z</time>
      </trkpt>
      <trkpt lat="50.11224" lon="4.16626">
        <ele>219</ele>
        <time>2024-04-28T09:12:23Z</time>
      </trkpt>
      <trkpt lat="50.11232" lon="4.16632">
        <ele>218.8</ele>
        <time>2024-04-28T09:12:24Z</time>
      </trkpt>
      <trkpt lat="50.1124" lon="4.16638">
        <ele>218.8</ele>
        <time>2024-04-28T09:12:25Z</time>
      </trkpt>
      <trkpt lat="50.11249" lon="4.16644">
        <ele>218.8</ele>
        <time>2024-04-28T09:12:26Z</time>
      </trkpt>
      <trkpt lat="50.11257" lon="4.1665">
        <ele>218.8</ele>
        <time>2024-04-28T09:12:27Z</time>
      </trkpt>
      <trkpt lat="50.11266" lon="4.16656">
        <ele>218.8</ele>
        <time>2024-04-28T09:12:28Z</time>
      </trkpt>
      <trkpt lat="50.11274" lon="4.16662">
        <ele>218.8</ele>
        <time>2024-04-28T09:12:29Z</time>
      </trkpt>
      <trkpt lat="50.11283" lon="4.16669">
        <ele>218.8</ele>
        <time>2024-04-28T09:12:30Z</time>
      </trkpt>
      <trkpt lat="50.11291" lon="4.16675">
        <ele>218.6</ele>
        <time>2024-04-28T09:12:31Z</time>
      </trkpt>
      <trkpt lat="50.113" lon="4.16682">
        <ele>218.6</ele>
        <time>2024-04-28T09:12:32Z</time>
      </trkpt>
      <trkpt lat="50.11309" lon="4.16688">
        <ele>218.6</ele>
        <time>2024-04-28T09:12:33Z</time>
      </trkpt>
      <trkpt lat="50.11318" lon="4.16694">
        <ele>218.4</ele>
        <time>2024-04-28T09:12:34Z</time>
      </trkpt>
      <trkpt lat="50.11327" lon="4.167">
        <ele>218.4</ele>
        <time>2024-04-28T09:12:35Z</time>
      </trkpt>
      <trkpt lat="50.11336" lon="4.16706">
        <ele>218</ele>
        <time>2024-04-28T09:12:36Z</time>
      </trkpt>
      <trkpt lat="50.11345" lon="4.16712">
        <ele>218</ele>
        <time>2024-04-28T09:12:37Z</time>
      </trkpt>
      <trkpt lat="50.11354" lon="4.16718">
        <ele>217.8</ele>
        <time>2024-04-28T09:12:38Z</time>
      </trkpt>
      <trkpt lat="50.11363" lon="4.16724">
        <ele>217.6</ele>
        <time>2024-04-28T09:12:39Z</time>
      </trkpt>
      <trkpt lat="50.11372" lon="4.1673">
        <ele>217.2</ele>
        <time>2024-04-28T09:12:40Z</time>
      </trkpt>
      <trkpt lat="50.11381" lon="4.16737">
        <ele>217</ele>
        <time>2024-04-28T09:12:41Z</time>
      </trkpt>
      <trkpt lat="50.11389" lon="4.16744">
        <ele>216.4</ele>
        <time>2024-04-28T09:12:42Z</time>
      </trkpt>
      <trkpt lat="50.11398" lon="4.16752">
        <ele>216</ele>
        <time>2024-04-28T09:12:43Z</time>
      </trkpt>
      <trkpt lat="50.11405" lon="4.16762">
        <ele>216</ele>
        <time>2024-04-28T09:12:44Z</time>
      </trkpt>
      <trkpt lat="50.11411" lon="4.16774">
        <ele>215.2</ele>
        <time>2024-04-28T09:12:45Z</time>
      </trkpt>
      <trkpt lat="50.11417" lon="4.16787">
        <ele>214.4</ele>
        <time>2024-04-28T09:12:46Z</time>
      </trkpt>
      <trkpt lat="50.11421" lon="4.16802">
        <ele>214.2</ele>
        <time>2024-04-28T09:12:47Z</time>
      </trkpt>
      <trkpt lat="50.11425" lon="4.16817">
        <ele>214</ele>
        <time>2024-04-28T09:12:48Z</time>
      </trkpt>
      <trkpt lat="50.11429" lon="4.16833">
        <ele>212.6</ele>
        <time>2024-04-28T09:12:49Z</time>
      </trkpt>
      <trkpt lat="50.11432" lon="4.1685">
        <ele>211.4</ele>
        <time>2024-04-28T09:12:50Z</time>
      </trkpt>
      <trkpt lat="50.11434" lon="4.16867">
        <ele>210.6</ele>
        <time>2024-04-28T09:12:51Z</time>
      </trkpt>
      <trkpt lat="50.11437" lon="4.16885">
        <ele>210</ele>
        <time>2024-04-28T09:12:52Z</time>
      </trkpt>
      <trkpt lat="50.1144" lon="4.16902">
        <ele>209.6</ele>
        <time>2024-04-28T09:12:53Z</time>
      </trkpt>
      <trkpt lat="50.11442" lon="4.16919">
        <ele>209.2</ele>
        <time>2024-04-28T09:12:54Z</time>
      </trkpt>
      <trkpt lat="50.11444" lon="4.16937">
        <ele>208.8</ele>
        <time>2024-04-28T09:12:55Z</time>
      </trkpt>
      <trkpt lat="50.11445" lon="4.16955">
        <ele>208.4</ele>
        <time>2024-04-28T09:12:56Z</time>
      </trkpt>
      <trkpt lat="50.11446" lon="4.16974">
        <ele>208</ele>
        <time>2024-04-28T09:12:57Z</time>
      </trkpt>
      <trkpt lat="50.11448" lon="4.16993">
        <ele>207.8</ele>
        <time>2024-04-28T09:12:58Z</time>
      </trkpt>
      <trkpt lat="50.11449" lon="4.17013">
        <ele>207.4</ele>
        <time>2024-04-28T09:12:59Z</time>
      </trkpt>
      <trkpt lat="50.1145" lon="4.17032">
        <ele>206</ele>
        <time>2024-04-28T09:13:00Z</time>
      </trkpt>
      <trkpt lat="50.11452" lon="4.1705">
        <ele>206</ele>
        <time>2024-04-28T09:13:01Z</time>
      </trkpt>
      <trkpt lat="50.11456" lon="4.17069">
        <ele>205.2</ele>
        <time>2024-04-28T09:13:02Z</time>
      </trkpt>
      <trkpt lat="50.11459" lon="4.17088">
        <ele>204</ele>
        <time>2024-04-28T09:13:03Z</time>
      </trkpt>
      <trkpt lat="50.11462" lon="4.17107">
        <ele>203.4</ele>
        <time>2024-04-28T09:13:04Z</time>
      </trkpt>
      <trkpt lat="50.11465" lon="4.17125">
        <ele>202.8</ele>
        <time>2024-04-28T09:13:05Z</time>
      </trkpt>
      <trkpt lat="50.11468" lon="4.17143">
        <ele>202</ele>
        <time>2024-04-28T09:13:06Z</time>
      </trkpt>
      <trkpt lat="50.11472" lon="4.17161">
        <ele>201.2</ele>
        <time>2024-04-28T09:13:07Z</time>
      </trkpt>
      <trkpt lat="50.11474" lon="4.17179">
        <ele>200.8</ele>
        <time>2024-04-28T09:13:08Z</time>
      </trkpt>
      <trkpt lat="50.11477" lon="4.17199">
        <ele>199.8</ele>
        <time>2024-04-28T09:13:09Z</time>
      </trkpt>
      <trkpt lat="50.11478" lon="4.17219">
        <ele>199</ele>
        <time>2024-04-28T09:13:10Z</time>
      </trkpt>
      <trkpt lat="50.11478" lon="4.17239">
        <ele>198.6</ele>
        <time>2024-04-28T09:13:11Z</time>
      </trkpt>
      <trkpt lat="50.11479" lon="4.17259">
        <ele>198.2</ele>
        <time>2024-04-28T09:13:12Z</time>
      </trkpt>
      <trkpt lat="50.1148" lon="4.1728">
        <ele>198</ele>
        <time>2024-04-28T09:13:13Z</time>
      </trkpt>
      <trkpt lat="50.11481" lon="4.173">
        <ele>196.4</ele>
        <time>2024-04-28T09:13:14Z</time>
      </trkpt>
      <trkpt lat="50.11482" lon="4.1732">
        <ele>195</ele>
        <time>2024-04-28T09:13:15Z</time>
      </trkpt>
      <trkpt lat="50.11483" lon="4.17339">
        <ele>195</ele>
        <time>2024-04-28T09:13:16Z</time>
      </trkpt>
      <trkpt lat="50.11484" lon="4.17358">
        <ele>193.4</ele>
        <time>2024-04-28T09:13:17Z</time>
      </trkpt>
      <trkpt lat="50.11486" lon="4.17378">
        <ele>192.4</ele>
        <time>2024-04-28T09:13:18Z</time>
      </trkpt>
      <trkpt lat="50.11488" lon="4.17398">
        <ele>190.8</ele>
        <time>2024-04-28T09:13:19Z</time>
      </trkpt>
      <trkpt lat="50.11489" lon="4.17417">
        <ele>189.8</ele>
        <time>2024-04-28T09:13:20Z</time>
      </trkpt>
      <trkpt lat="50.1149" lon="4.17435">
        <ele>188.8</ele>
        <time>2024-04-28T09:13:21Z</time>
      </trkpt>
      <trkpt lat="50.11492" lon="4.17453">
        <ele>187</ele>
        <time>2024-04-28T09:13:22Z</time>
      </trkpt>
      <trkpt lat="50.11494" lon="4.1747">
        <ele>185.4</ele>
        <time>2024-04-28T09:13:23Z</time>
      </trkpt>
      <trkpt lat="50.11498" lon="4.17486">
        <ele>184.2</ele>
        <time>2024-04-28T09:13:24Z</time>
      </trkpt>
      <trkpt lat="50.11504" lon="4.17498">
        <ele>183.4</ele>
        <time>2024-04-28T09:13:25Z</time>
      </trkpt>
      <trkpt lat="50.11512" lon="4.1751">
        <ele>182.4</ele>
        <time>2024-04-28T09:13:26Z</time>
      </trkpt>
      <trkpt lat="50.11521" lon="4.17519">
        <ele>181.6</ele>
        <time>2024-04-28T09:13:27Z</time>
      </trkpt>
      <trkpt lat="50.1153" lon="4.17528">
        <ele>181.4</ele>
        <time>2024-04-28T09:13:28Z</time>
      </trkpt>
      <trkpt lat="50.1154" lon="4.17537">
        <ele>181</ele>
        <time>2024-04-28T09:13:29Z</time>
      </trkpt>
      <trkpt lat="50.1155" lon="4.17547">
        <ele>180.6</ele>
        <time>2024-04-28T09:13:30Z</time>
      </trkpt>
      <trkpt lat="50.11559" lon="4.17558">
        <ele>180.4</ele>
        <time>2024-04-28T09:13:31Z</time>
      </trkpt>
      <trkpt lat="50.11567" lon="4.17569">
        <ele>180.4</ele>
        <time>2024-04-28T09:13:32Z</time>
      </trkpt>
      <trkpt lat="50.11573" lon="4.17583">
        <ele>180.2</ele>
        <time>2024-04-28T09:13:33Z</time>
      </trkpt>
      <trkpt lat="50.11578" lon="4.17597">
        <ele>180</ele>
        <time>2024-04-28T09:13:34Z</time>
      </trkpt>
      <trkpt lat="50.11584" lon="4.1761">
        <ele>179.6</ele>
        <time>2024-04-28T09:13:35Z</time>
      </trkpt>
      <trkpt lat="50.11592" lon="4.17622">
        <ele>179</ele>
        <time>2024-04-28T09:13:36Z</time>
      </trkpt>
      <trkpt lat="50.11601" lon="4.17632">
        <ele>178.2</ele>
        <time>2024-04-28T09:13:37Z</time>
      </trkpt>
      <trkpt lat="50.1161" lon="4.17639">
        <ele>177.4</ele>
        <time>2024-04-28T09:13:38Z</time>
      </trkpt>
      <trkpt lat="50.11619" lon="4.17642">
        <ele>176.6</ele>
        <time>2024-04-28T09:13:39Z</time>
      </trkpt>
      <trkpt lat="50.11629" lon="4.17641">
        <ele>175.6</ele>
        <time>2024-04-28T09:13:40Z</time>
      </trkpt>
      <trkpt lat="50.11638" lon="4.17638">
        <ele>174.2</ele>
        <time>2024-04-28T09:13:41Z</time>
      </trkpt>
      <trkpt lat="50.11647" lon="4.17632">
        <ele>172.8</ele>
        <time>2024-04-28T09:13:42Z</time>
      </trkpt>
      <trkpt lat="50.11654" lon="4.17624">
        <ele>172.2</ele>
        <time>2024-04-28T09:13:43Z</time>
      </trkpt>
      <trkpt lat="50.11661" lon="4.17615">
        <ele>171.6</ele>
        <time>2024-04-28T09:13:44Z</time>
      </trkpt>
      <trkpt lat="50.11669" lon="4.17609">
        <ele>171.4</ele>
        <time>2024-04-28T09:13:45Z</time>
      </trkpt>
      <trkpt lat="50.11676" lon="4.17605">
        <ele>171</ele>
        <time>2024-04-28T09:13:46Z</time>
      </trkpt>
      <trkpt lat="50.11685" lon="4.17607">
        <ele>170.6</ele>
        <time>2024-04-28T09:13:47Z</time>
      </trkpt>
      <trkpt lat="50.11692" lon="4.17614">
        <ele>169.2</ele>
        <time>2024-04-28T09:13:48Z</time>
      </trkpt>
      <trkpt lat="50.11699" lon="4.17624">
        <ele>168.4</ele>
        <time>2024-04-28T09:13:49Z</time>
      </trkpt>
      <trkpt lat="50.11704" lon="4.17636">
        <ele>167.6</ele>
        <time>2024-04-28T09:13:50Z</time>
      </trkpt>
      <trkpt lat="50.11709" lon="4.17648">
        <ele>167.6</ele>
        <time>2024-04-28T09:13:51Z</time>
      </trkpt>
      <trkpt lat="50.11714" lon="4.17661">
        <ele>167</ele>
        <time>2024-04-28T09:13:52Z</time>
      </trkpt>
      <trkpt lat="50.11719" lon="4.17673">
        <ele>166</ele>
        <time>2024-04-28T09:13:53Z</time>
      </trkpt>
      <trkpt lat="50.11724" lon="4.17686">
        <ele>165.4</ele>
        <time>2024-04-28T09:13:54Z</time>
      </trkpt>
      <trkpt lat="50.1173" lon="4.17699">
        <ele>164.8</ele>
        <time>2024-04-28T09:13:55Z</time>
      </trkpt>
      <trkpt lat="50.11735" lon="4.17711">
        <ele>164.2</ele>
        <time>2024-04-28T09:13:56Z</time>
      </trkpt>
      <trkpt lat="50.11741" lon="4.17724">
        <ele>163.8</ele>
        <time>2024-04-28T09:13:57Z</time>
      </trkpt>
      <trkpt lat="50.11746" lon="4.17736">
        <ele>163.4</ele>
        <time>2024-04-28T09:13:58Z</time>
      </trkpt>
      <trkpt lat="50.11752" lon="4.17748">
        <ele>163.2</ele>
        <time>2024-04-28T09:13:59Z</time>
      </trkpt>
      <trkpt lat="50.11757" lon="4.1776">
        <ele>162.8</ele>
        <time>2024-04-28T09:14:00Z</time>
      </trkpt>
      <trkpt lat="50.11762" lon="4.17773">
        <ele>162.8</ele>
        <time>2024-04-28T09:14:01Z</time>
      </trkpt>
      <trkpt lat="50.11766" lon="4.17785">
        <ele>162.4</ele>
        <time>2024-04-28T09:14:02Z</time>
      </trkpt>
      <trkpt lat="50.11771" lon="4.17796">
        <ele>162.2</ele>
        <time>2024-04-28T09:14:03Z</time>
      </trkpt>
      <trkpt lat="50.11775" lon="4.17806">
        <ele>162</ele>
        <time>2024-04-28T09:14:04Z</time>
      </trkpt>
      <trkpt lat="50.11778" lon="4.17815">
        <ele>161.6</ele>
        <time>2024-04-28T09:14:05Z</time>
      </trkpt>
      <trkpt lat="50.11781" lon="4.17823">
        <ele>161.8</ele>
        <time>2024-04-28T09:14:06Z</time>
      </trkpt>
      <trkpt lat="50.11784" lon="4.17829">
        <ele>161.8</ele>
        <time>2024-04-28T09:14:07Z</time>
      </trkpt>
      <trkpt lat="50.11785" lon="4.17834">
        <ele>161.6</ele>
        <time>2024-04-28T09:14:08Z</time>
      </trkpt>
      <trkpt lat="50.11785" lon="4.17838">
        <ele>161.4</ele>
        <time>2024-04-28T09:14:09Z</time>
      </trkpt>
      <trkpt lat="50.11784" lon="4.17842">
        <ele>161.6</ele>
        <time>2024-04-28T09:14:10Z</time>
      </trkpt>
      <trkpt lat="50.11783" lon="4.17846">
        <ele>161.6</ele>
        <time>2024-04-28T09:14:11Z</time>
      </trkpt>
      <trkpt lat="50.11782" lon="4.1785">
        <ele>161.6</ele>
        <time>2024-04-28T09:14:12Z</time>
      </trkpt>
      <trkpt lat="50.1178" lon="4.17853">
        <ele>161.8</ele>
        <time>2024-04-28T09:14:13Z</time>
      </trkpt>
      <trkpt lat="50.11777" lon="4.17856">
        <ele>162</ele>
        <time>2024-04-28T09:14:14Z</time>
      </trkpt>
      <trkpt lat="50.11773" lon="4.17858">
        <ele>162</ele>
        <time>2024-04-28T09:14:15Z</time>
      </trkpt>
      <trkpt lat="50.11769" lon="4.17861">
        <ele>162.2</ele>
        <time>2024-04-28T09:14:16Z</time>
      </trkpt>
      <trkpt lat="50.11764" lon="4.17864">
        <ele>162.2</ele>
        <time>2024-04-28T09:14:17Z</time>
      </trkpt>
      <trkpt lat="50.11759" lon="4.17866">
        <ele>162.4</ele>
        <time>2024-04-28T09:14:18Z</time>
      </trkpt>
      <trkpt lat="50.11753" lon="4.17869">
        <ele>162.2</ele>
        <time>2024-04-28T09:14:19Z</time>
      </trkpt>
      <trkpt lat="50.11748" lon="4.17871">
        <ele>162.4</ele>
        <time>2024-04-28T09:14:20Z</time>
      </trkpt>
      <trkpt lat="50.11742" lon="4.17873">
        <ele>162.4</ele>
        <time>2024-04-28T09:14:21Z</time>
      </trkpt>
      <trkpt lat="50.11736" lon="4.17875">
        <ele>162.2</ele>
        <time>2024-04-28T09:14:22Z</time>
      </trkpt>
      <trkpt lat="50.1173" lon="4.17877">
        <ele>162.4</ele>
        <time>2024-04-28T09:14:23Z</time>
      </trkpt>
      <trkpt lat="50.11724" lon="4.17879">
        <ele>162.4</ele>
        <time>2024-04-28T09:14:24Z</time>
      </trkpt>
      <trkpt lat="50.11718" lon="4.17882">
        <ele>162.4</ele>
        <time>2024-04-28T09:14:25Z</time>
      </trkpt>
      <trkpt lat="50.11713" lon="4.17884">
        <ele>162.4</ele>
        <time>2024-04-28T09:14:26Z</time>
      </trkpt>
      <trkpt lat="50.11707" lon="4.17887">
        <ele>162.2</ele>
        <time>2024-04-28T09:14:27Z</time>
      </trkpt>
      <trkpt lat="50.11702" lon="4.1789">
        <ele>162.4</ele>
        <time>2024-04-28T09:14:28Z</time>
      </trkpt>
      <trkpt lat="50.11696" lon="4.17893">
        <ele>162.2</ele>
        <time>2024-04-28T09:14:29Z</time>
      </trkpt>
      <trkpt lat="50.11691" lon="4.17897">
        <ele>162.4</ele>
        <time>2024-04-28T09:14:30Z</time>
      </trkpt>
      <trkpt lat="50.11686" lon="4.179">
        <ele>162.4</ele>
        <time>2024-04-28T09:14:31Z</time>
      </trkpt>
      <trkpt lat="50.11681" lon="4.17904">
        <ele>162.4</ele>
        <time>2024-04-28T09:14:32Z</time>
      </trkpt>
      <trkpt lat="50.11677" lon="4.17907">
        <ele>162.4</ele>
        <time>2024-04-28T09:14:33Z</time>
      </trkpt>
      <trkpt lat="50.11672" lon="4.1791">
        <ele>162.4</ele>
        <time>2024-04-28T09:14:34Z</time>
      </trkpt>
      <trkpt lat="50.11668" lon="4.17914">
        <ele>162.6</ele>
        <time>2024-04-28T09:14:35Z</time>
      </trkpt>
      <trkpt lat="50.11664" lon="4.17918">
        <ele>163</ele>
        <time>2024-04-28T09:14:36Z</time>
      </trkpt>
      <trkpt lat="50.1166" lon="4.17921">
        <ele>163.4</ele>
        <time>2024-04-28T09:14:37Z</time>
      </trkpt>
      <trkpt lat="50.11656" lon="4.17925">
        <ele>163.8</ele>
        <time>2024-04-28T09:14:38Z</time>
      </trkpt>
      <trkpt lat="50.11652" lon="4.17928">
        <ele>164</ele>
        <time>2024-04-28T09:14:39Z</time>
      </trkpt>
      <trkpt lat="50.11649" lon="4.17931">
        <ele>164.2</ele>
        <time>2024-04-28T09:14:40Z</time>
      </trkpt>
      <trkpt lat="50.11645" lon="4.17934">
        <ele>164.2</ele>
        <time>2024-04-28T09:14:41Z</time>
      </trkpt>
      <trkpt lat="50.11642" lon="4.17938">
        <ele>164.6</ele>
        <time>2024-04-28T09:14:42Z</time>
      </trkpt>
      <trkpt lat="50.11639" lon="4.17941">
        <ele>164.6</ele>
        <time>2024-04-28T09:14:43Z</time>
      </trkpt>
      <trkpt lat="50.11635" lon="4.17944">
        <ele>164.8</ele>
        <time>2024-04-28T09:14:44Z</time>
      </trkpt>
      <trkpt lat="50.11632" lon="4.17947">
        <ele>165</ele>
        <time>2024-04-28T09:14:45Z</time>
      </trkpt>
      <trkpt lat="50.11629" lon="4.17951">
        <ele>165</ele>
        <time>2024-04-28T09:14:46Z</time>
      </trkpt>
      <trkpt lat="50.11625" lon="4.17954">
        <ele>165</ele>
        <time>2024-04-28T09:14:47Z</time>
      </trkpt>
      <trkpt lat="50.11622" lon="4.17958">
        <ele>165.4</ele>
        <time>2024-04-28T09:14:48Z</time>
      </trkpt>
      <trkpt lat="50.11619" lon="4.17962">
        <ele>165.6</ele>
        <time>2024-04-28T09:14:49Z</time>
      </trkpt>
      <trkpt lat="50.11615" lon="4.17965">
        <ele>166</ele>
        <time>2024-04-28T09:14:50Z</time>
      </trkpt>
      <trkpt lat="50.11612" lon="4.17969">
        <ele>166.6</ele>
        <time>2024-04-28T09:14:51Z</time>
      </trkpt>
      <trkpt lat="50.11608" lon="4.17972">
        <ele>167</ele>
        <time>2024-04-28T09:14:52Z</time>
      </trkpt>
      <trkpt lat="50.11604" lon="4.17976">
        <ele>167.4</ele>
        <time>2024-04-28T09:14:53Z</time>
      </trkpt>
      <trkpt lat="50.11601" lon="4.1798">
        <ele>167.4</ele>
        <time>2024-04-28T09:14:54Z</time>
      </trkpt>
      <trkpt lat="50.11597" lon="4.17984">
        <ele>168</ele>
        <time>2024-04-28T09:14:55Z</time>
      </trkpt>
      <trkpt lat="50.11594" lon="4.17989">
        <ele>168.6</ele>
        <time>2024-04-28T09:14:56Z</time>
      </trkpt>
      <trkpt lat="50.11591" lon="4.17994">
        <ele>169</ele>
        <time>2024-04-28T09:14:57Z</time>
      </trkpt>
      <trkpt lat="50.11588" lon="4.17998">
        <ele>169.4</ele>
        <time>2024-04-28T09:14:58Z</time>
      </trkpt>
      <trkpt lat="50.11585" lon="4.18003">
        <ele>169.4</ele>
        <time>2024-04-28T09:14:59Z</time>
      </trkpt>
      <trkpt lat="50.11581" lon="4.18008">
        <ele>169.6</ele>
        <time>2024-04-28T09:15:00Z</time>
      </trkpt>
      <trkpt lat="50.11578" lon="4.18013">
        <ele>169.6</ele>
        <time>2024-04-28T09:15:01Z</time>
      </trkpt>
      <trkpt lat="50.11575" lon="4.18017">
        <ele>169.8</ele>
        <time>2024-04-28T09:15:02Z</time>
      </trkpt>
      <trkpt lat="50.11572" lon="4.18022">
        <ele>170</ele>
        <time>2024-04-28T09:15:03Z</time>
      </trkpt>
      <trkpt lat="50.1157" lon="4.18027">
        <ele>170.4</ele>
        <time>2024-04-28T09:15:04Z</time>
      </trkpt>
      <trkpt lat="50.11567" lon="4.18032">
        <ele>170.8</ele>
        <time>2024-04-28T09:15:05Z</time>
      </trkpt>
      <trkpt lat="50.11564" lon="4.18036">
        <ele>171.8</ele>
        <time>2024-04-28T09:15:06Z</time>
      </trkpt>
      <trkpt lat="50.11561" lon="4.18041">
        <ele>172.8</ele>
        <time>2024-04-28T09:15:07Z</time>
      </trkpt>
      <trkpt lat="50.11557" lon="4.18047">
        <ele>173.4</ele>
        <time>2024-04-28T09:15:08Z</time>
      </trkpt>
      <trkpt lat="50.11553" lon="4.18052">
        <ele>174</ele>
        <time>2024-04-28T09:15:09Z</time>
      </trkpt>
      <trkpt lat="50.11549" lon="4.18058">
        <ele>174.4</ele>
        <time>2024-04-28T09:15:10Z</time>
      </trkpt>
      <trkpt lat="50.11545" lon="4.18063">
        <ele>174.8</ele>
        <time>2024-04-28T09:15:11Z</time>
      </trkpt>
      <trkpt lat="50.1154" lon="4.18067">
        <ele>175</ele>
        <time>2024-04-28T09:15:12Z</time>
      </trkpt>
      <trkpt lat="50.11534" lon="4.18072">
        <ele>175.2</ele>
        <time>2024-04-28T09:15:13Z</time>
      </trkpt>
      <trkpt lat="50.11529" lon="4.18077">
        <ele>175.2</ele>
        <time>2024-04-28T09:15:14Z</time>
      </trkpt>
      <trkpt lat="50.11523" lon="4.18082">
        <ele>175.2</ele>
        <time>2024-04-28T09:15:15Z</time>
      </trkpt>
      <trkpt lat="50.11517" lon="4.18087">
        <ele>175.2</ele>
        <time>2024-04-28T09:15:16Z</time>
      </trkpt>
      <trkpt lat="50.1151" lon="4.18094">
        <ele>175.2</ele>
        <time>2024-04-28T09:15:17Z</time>
      </trkpt>
      <trkpt lat="50.11504" lon="4.18101">
        <ele>175.2</ele>
        <time>2024-04-28T09:15:18Z</time>
      </trkpt>
      <trkpt lat="50.11498" lon="4.18109">
        <ele>175.2</ele>
        <time>2024-04-28T09:15:19Z</time>
      </trkpt>
      <trkpt lat="50.11492" lon="4.18118">
        <ele>175.2</ele>
        <time>2024-04-28T09:15:20Z</time>
      </trkpt>
      <trkpt lat="50.11485" lon="4.18127">
        <ele>175.4</ele>
        <time>2024-04-28T09:15:21Z</time>
      </trkpt>
      <trkpt lat="50.11478" lon="4.18136">
        <ele>175.2</ele>
        <time>2024-04-28T09:15:22Z</time>
      </trkpt>
      <trkpt lat="50.11471" lon="4.18145">
        <ele>175.2</ele>
        <time>2024-04-28T09:15:23Z</time>
      </trkpt>
      <trkpt lat="50.11463" lon="4.18154">
        <ele>175</ele>
        <time>2024-04-28T09:15:24Z</time>
      </trkpt>
      <trkpt lat="50.11454" lon="4.18162">
        <ele>174.4</ele>
        <time>2024-04-28T09:15:25Z</time>
      </trkpt>
      <trkpt lat="50.11444" lon="4.18169">
        <ele>173.8</ele>
        <time>2024-04-28T09:15:26Z</time>
      </trkpt>
      <trkpt lat="50.11434" lon="4.18176">
        <ele>173.2</ele>
        <time>2024-04-28T09:15:27Z</time>
      </trkpt>
      <trkpt lat="50.11424" lon="4.18183">
        <ele>172.2</ele>
        <time>2024-04-28T09:15:28Z</time>
      </trkpt>
      <trkpt lat="50.11414" lon="4.18191">
        <ele>171.4</ele>
        <time>2024-04-28T09:15:29Z</time>
      </trkpt>
      <trkpt lat="50.11404" lon="4.18199">
        <ele>170.6</ele>
        <time>2024-04-28T09:15:30Z</time>
      </trkpt>
      <trkpt lat="50.11394" lon="4.18207">
        <ele>169.6</ele>
        <time>2024-04-28T09:15:31Z</time>
      </trkpt>
      <trkpt lat="50.11385" lon="4.18215">
        <ele>168.4</ele>
        <time>2024-04-28T09:15:32Z</time>
      </trkpt>
      <trkpt lat="50.11376" lon="4.18223">
        <ele>168.4</ele>
        <time>2024-04-28T09:15:33Z</time>
      </trkpt>
      <trkpt lat="50.11367" lon="4.1823">
        <ele>167.4</ele>
        <time>2024-04-28T09:15:34Z</time>
      </trkpt>
      <trkpt lat="50.11359" lon="4.18237">
        <ele>165.8</ele>
        <time>2024-04-28T09:15:35Z</time>
      </trkpt>
      <trkpt lat="50.11352" lon="4.18244">
        <ele>165</ele>
        <time>2024-04-28T09:15:36Z</time>
      </trkpt>
      <trkpt lat="50.11345" lon="4.1825">
        <ele>164.6</ele>
        <time>2024-04-28T09:15:37Z</time>
      </trkpt>
      <trkpt lat="50.11339" lon="4.18257">
        <ele>164.4</ele>
        <time>2024-04-28T09:15:38Z</time>
      </trkpt>
      <trkpt lat="50.11332" lon="4.18263">
        <ele>164.2</ele>
        <time>2024-04-28T09:15:39Z</time>
      </trkpt>
      <trkpt lat="50.11326" lon="4.18269">
        <ele>164.2</ele>
        <time>2024-04-28T09:15:40Z</time>
      </trkpt>
      <trkpt lat="50.1132" lon="4.18275">
        <ele>164</ele>
        <time>2024-04-28T09:15:41Z</time>
      </trkpt>
      <trkpt lat="50.11313" lon="4.18281">
        <ele>164.2</ele>
        <time>2024-04-28T09:15:42Z</time>
      </trkpt>
      <trkpt lat="50.11307" lon="4.18287">
        <ele>164.2</ele>
        <time>2024-04-28T09:15:43Z</time>
      </trkpt>
      <trkpt lat="50.11301" lon="4.18292">
        <ele>164</ele>
        <time>2024-04-28T09:15:44Z</time>
      </trkpt>
      <trkpt lat="50.11294" lon="4.18297">
        <ele>163.8</ele>
        <time>2024-04-28T09:15:45Z</time>
      </trkpt>
      <trkpt lat="50.11287" lon="4.18302">
        <ele>163.6</ele>
        <time>2024-04-28T09:15:46Z</time>
      </trkpt>
      <trkpt lat="50.1128" lon="4.18306">
        <ele>163.6</ele>
        <time>2024-04-28T09:15:47Z</time>
      </trkpt>
      <trkpt lat="50.11273" lon="4.1831">
        <ele>163.4</ele>
        <time>2024-04-28T09:15:48Z</time>
      </trkpt>
      <trkpt lat="50.11266" lon="4.18313">
        <ele>163.4</ele>
        <time>2024-04-28T09:15:49Z</time>
      </trkpt>
      <trkpt lat="50.11258" lon="4.18316">
        <ele>163.4</ele>
        <time>2024-04-28T09:15:50Z</time>
      </trkpt>
      <trkpt lat="50.11251" lon="4.18319">
        <ele>163.4</ele>
        <time>2024-04-28T09:15:51Z</time>
      </trkpt>
      <trkpt lat="50.11244" lon="4.18322">
        <ele>163.4</ele>
        <time>2024-04-28T09:15:52Z</time>
      </trkpt>
      <trkpt lat="50.11237" lon="4.18324">
        <ele>163.2</ele>
        <time>2024-04-28T09:15:53Z</time>
      </trkpt>
      <trkpt lat="50.1123" lon="4.18327">
        <ele>163.4</ele>
        <time>2024-04-28T09:15:54Z</time>
      </trkpt>
      <trkpt lat="50.11223" lon="4.18329">
        <ele>163.4</ele>
        <time>2024-04-28T09:15:55Z</time>
      </trkpt>
      <trkpt lat="50.11216" lon="4.18331">
        <ele>163.6</ele>
        <time>2024-04-28T09:15:56Z</time>
      </trkpt>
      <trkpt lat="50.11209" lon="4.18333">
        <ele>163.6</ele>
        <time>2024-04-28T09:15:57Z</time>
      </trkpt>
      <trkpt lat="50.11203" lon="4.18335">
        <ele>163.8</ele>
        <time>2024-04-28T09:15:58Z</time>
      </trkpt>
      <trkpt lat="50.11196" lon="4.18336">
        <ele>163.6</ele>
        <time>2024-04-28T09:15:59Z</time>
      </trkpt>
      <trkpt lat="50.1119" lon="4.18338">
        <ele>163.8</ele>
        <time>2024-04-28T09:16:00Z</time>
      </trkpt>
      <trkpt lat="50.11184" lon="4.18339">
        <ele>163.8</ele>
        <time>2024-04-28T09:16:01Z</time>
      </trkpt>
      <trkpt lat="50.11179" lon="4.1834">
        <ele>163.6</ele>
        <time>2024-04-28T09:16:02Z</time>
      </trkpt>
      <trkpt lat="50.11173" lon="4.18342">
        <ele>163.8</ele>
        <time>2024-04-28T09:16:03Z</time>
      </trkpt>
      <trkpt lat="50.11168" lon="4.18343">
        <ele>164</ele>
        <time>2024-04-28T09:16:04Z</time>
      </trkpt>
      <trkpt lat="50.11162" lon="4.18345">
        <ele>164.2</ele>
        <time>2024-04-28T09:16:05Z</time>
      </trkpt>
      <trkpt lat="50.11157" lon="4.18346">
        <ele>164.2</ele>
        <time>2024-04-28T09:16:06Z</time>
      </trkpt>
      <trkpt lat="50.11152" lon="4.18348">
        <ele>164.8</ele>
        <time>2024-04-28T09:16:07Z</time>
      </trkpt>
      <trkpt lat="50.11148" lon="4.1835">
        <ele>165.2</ele>
        <time>2024-04-28T09:16:08Z</time>
      </trkpt>
      <trkpt lat="50.11143" lon="4.18352">
        <ele>165.6</ele>
        <time>2024-04-28T09:16:09Z</time>
      </trkpt>
      <trkpt lat="50.11138" lon="4.18354">
        <ele>166</ele>
        <time>2024-04-28T09:16:10Z</time>
      </trkpt>
      <trkpt lat="50.11134" lon="4.18357">
        <ele>166.6</ele>
        <time>2024-04-28T09:16:11Z</time>
      </trkpt>
      <trkpt lat="50.11129" lon="4.18359">
        <ele>167</ele>
        <time>2024-04-28T09:16:12Z</time>
      </trkpt>
      <trkpt lat="50.11124" lon="4.18361">
        <ele>167.6</ele>
        <time>2024-04-28T09:16:13Z</time>
      </trkpt>
      <trkpt lat="50.11119" lon="4.18364">
        <ele>168</ele>
        <time>2024-04-28T09:16:14Z</time>
      </trkpt>
      <trkpt lat="50.11115" lon="4.18367">
        <ele>168.2</ele>
        <time>2024-04-28T09:16:15Z</time>
      </trkpt>
      <trkpt lat="50.1111" lon="4.1837">
        <ele>168.4</ele>
        <time>2024-04-28T09:16:16Z</time>
      </trkpt>
      <trkpt lat="50.11105" lon="4.18373">
        <ele>168.6</ele>
        <time>2024-04-28T09:16:17Z</time>
      </trkpt>
      <trkpt lat="50.111" lon="4.18376">
        <ele>169.4</ele>
        <time>2024-04-28T09:16:18Z</time>
      </trkpt>
      <trkpt lat="50.11096" lon="4.1838">
        <ele>170</ele>
        <time>2024-04-28T09:16:19Z</time>
      </trkpt>
      <trkpt lat="50.11091" lon="4.18384">
        <ele>170.8</ele>
        <time>2024-04-28T09:16:20Z</time>
      </trkpt>
      <trkpt lat="50.11087" lon="4.18388">
        <ele>170.8</ele>
        <time>2024-04-28T09:16:21Z</time>
      </trkpt>
      <trkpt lat="50.11082" lon="4.18392">
        <ele>171.2</ele>
        <time>2024-04-28T09:16:22Z</time>
      </trkpt>
      <trkpt lat="50.11078" lon="4.18396">
        <ele>171.4</ele>
        <time>2024-04-28T09:16:23Z</time>
      </trkpt>
      <trkpt lat="50.11075" lon="4.18401">
        <ele>171.6</ele>
        <time>2024-04-28T09:16:24Z</time>
      </trkpt>
      <trkpt lat="50.11071" lon="4.18406">
        <ele>172</ele>
        <time>2024-04-28T09:16:25Z</time>
      </trkpt>
      <trkpt lat="50.11067" lon="4.18411">
        <ele>172.2</ele>
        <time>2024-04-28T09:16:26Z</time>
      </trkpt>
      <trkpt lat="50.11064" lon="4.18417">
        <ele>172.6</ele>
        <time>2024-04-28T09:16:27Z</time>
      </trkpt>
      <trkpt lat="50.1106" lon="4.18424">
        <ele>172.8</ele>
        <time>2024-04-28T09:16:28Z</time>
      </trkpt>
      <trkpt lat="50.11057" lon="4.1843">
        <ele>172.8</ele>
        <time>2024-04-28T09:16:29Z</time>
      </trkpt>
      <trkpt lat="50.11053" lon="4.18437">
        <ele>173</ele>
        <time>2024-04-28T09:16:30Z</time>
      </trkpt>
      <trkpt lat="50.1105" lon="4.18444">
        <ele>173.2</ele>
        <time>2024-04-28T09:16:31Z</time>
      </trkpt>
      <trkpt lat="50.11046" lon="4.18452">
        <ele>173.2</ele>
        <time>2024-04-28T09:16:32Z</time>
      </trkpt>
      <trkpt lat="50.11042" lon="4.1846">
        <ele>173.4</ele>
        <time>2024-04-28T09:16:33Z</time>
      </trkpt>
      <trkpt lat="50.11038" lon="4.18467">
        <ele>173.4</ele>
        <time>2024-04-28T09:16:34Z</time>
      </trkpt>
      <trkpt lat="50.11034" lon="4.18475">
        <ele>173.4</ele>
        <time>2024-04-28T09:16:35Z</time>
      </trkpt>
      <trkpt lat="50.11029" lon="4.18483">
        <ele>173.4</ele>
        <time>2024-04-28T09:16:36Z</time>
      </trkpt>
      <trkpt lat="50.11024" lon="4.18491">
        <ele>173.4</ele>
        <time>2024-04-28T09:16:37Z</time>
      </trkpt>
      <trkpt lat="50.11019" lon="4.18499">
        <ele>173.4</ele>
        <time>2024-04-28T09:16:38Z</time>
      </trkpt>
      <trkpt lat="50.11014" lon="4.18507">
        <ele>173.4</ele>
        <time>2024-04-28T09:16:39Z</time>
      </trkpt>
      <trkpt lat="50.11009" lon="4.18515">
        <ele>173.4</ele>
        <time>2024-04-28T09:16:40Z</time>
      </trkpt>
      <trkpt lat="50.11004" lon="4.18523">
        <ele>173.4</ele>
        <time>2024-04-28T09:16:41Z</time>
      </trkpt>
      <trkpt lat="50.10998" lon="4.18531">
        <ele>173.2</ele>
        <time>2024-04-28T09:16:42Z</time>
      </trkpt>
      <trkpt lat="50.10993" lon="4.18539">
        <ele>173.2</ele>
        <time>2024-04-28T09:16:43Z</time>
      </trkpt>
      <trkpt lat="50.10987" lon="4.18547">
        <ele>172.6</ele>
        <time>2024-04-28T09:16:44Z</time>
      </trkpt>
      <trkpt lat="50.10981" lon="4.18556">
        <ele>172.2</ele>
        <time>2024-04-28T09:16:45Z</time>
      </trkpt>
      <trkpt lat="50.10976" lon="4.18564">
        <ele>171.8</ele>
        <time>2024-04-28T09:16:46Z</time>
      </trkpt>
      <trkpt lat="50.1097" lon="4.18572">
        <ele>171.8</ele>
        <time>2024-04-28T09:16:47Z</time>
      </trkpt>
      <trkpt lat="50.10964" lon="4.18581">
        <ele>171.4</ele>
        <time>2024-04-28T09:16:48Z</time>
      </trkpt>
      <trkpt lat="50.10959" lon="4.1859">
        <ele>171.4</ele>
        <time>2024-04-28T09:16:49Z</time>
      </trkpt>
      <trkpt lat="50.10953" lon="4.186">
        <ele>171.4</ele>
        <time>2024-04-28T09:16:50Z</time>
      </trkpt>
      <trkpt lat="50.10948" lon="4.1861">
        <ele>171.4</ele>
        <time>2024-04-28T09:16:51Z</time>
      </trkpt>
      <trkpt lat="50.10943" lon="4.1862">
        <ele>171.2</ele>
        <time>2024-04-28T09:16:52Z</time>
      </trkpt>
      <trkpt lat="50.10938" lon="4.1863">
        <ele>171</ele>
        <time>2024-04-28T09:16:53Z</time>
      </trkpt>
      <trkpt lat="50.10933" lon="4.18642">
        <ele>171</ele>
        <time>2024-04-28T09:16:54Z</time>
      </trkpt>
      <trkpt lat="50.10927" lon="4.18654">
        <ele>170.6</ele>
        <time>2024-04-28T09:16:55Z</time>
      </trkpt>
      <trkpt lat="50.10922" lon="4.18667">
        <ele>170.6</ele>
        <time>2024-04-28T09:16:56Z</time>
      </trkpt>
      <trkpt lat="50.10916" lon="4.18679">
        <ele>170.6</ele>
        <time>2024-04-28T09:16:57Z</time>
      </trkpt>
      <trkpt lat="50.1091" lon="4.18691">
        <ele>170</ele>
        <time>2024-04-28T09:16:58Z</time>
      </trkpt>
      <trkpt lat="50.10905" lon="4.18703">
        <ele>169.8</ele>
        <time>2024-04-28T09:16:59Z</time>
      </trkpt>
      <trkpt lat="50.10899" lon="4.18715">
        <ele>169.6</ele>
        <time>2024-04-28T09:17:00Z</time>
      </trkpt>
      <trkpt lat="50.10894" lon="4.18727">
        <ele>168.8</ele>
        <time>2024-04-28T09:17:01Z</time>
      </trkpt>
      <trkpt lat="50.10888" lon="4.18739">
        <ele>168.2</ele>
        <time>2024-04-28T09:17:02Z</time>
      </trkpt>
      <trkpt lat="50.10882" lon="4.18751">
        <ele>167.6</ele>
        <time>2024-04-28T09:17:03Z</time>
      </trkpt>
      <trkpt lat="50.10877" lon="4.18763">
        <ele>167.4</ele>
        <time>2024-04-28T09:17:04Z</time>
      </trkpt>
      <trkpt lat="50.10871" lon="4.18775">
        <ele>167</ele>
        <time>2024-04-28T09:17:05Z</time>
      </trkpt>
      <trkpt lat="50.10866" lon="4.18787">
        <ele>166.2</ele>
        <time>2024-04-28T09:17:06Z</time>
      </trkpt>
      <trkpt lat="50.10861" lon="4.18799">
        <ele>165.6</ele>
        <time>2024-04-28T09:17:07Z</time>
      </trkpt>
      <trkpt lat="50.10855" lon="4.1881">
        <ele>165.4</ele>
        <time>2024-04-28T09:17:08Z</time>
      </trkpt>
      <trkpt lat="50.1085" lon="4.18822">
        <ele>165</ele>
        <time>2024-04-28T09:17:09Z</time>
      </trkpt>
      <trkpt lat="50.10845" lon="4.18834">
        <ele>164.8</ele>
        <time>2024-04-28T09:17:10Z</time>
      </trkpt>
      <trkpt lat="50.1084" lon="4.18846">
        <ele>164.6</ele>
        <time>2024-04-28T09:17:11Z</time>
      </trkpt>
      <trkpt lat="50.10835" lon="4.18858">
        <ele>164.2</ele>
        <time>2024-04-28T09:17:12Z</time>
      </trkpt>
      <trkpt lat="50.10831" lon="4.18871">
        <ele>163.8</ele>
        <time>2024-04-28T09:17:13Z</time>
      </trkpt>
      <trkpt lat="50.10827" lon="4.18884">
        <ele>163.8</ele>
        <time>2024-04-28T09:17:14Z</time>
      </trkpt>
      <trkpt lat="50.10825" lon="4.18897">
        <ele>163.8</ele>
        <time>2024-04-28T09:17:15Z</time>
      </trkpt>
      <trkpt lat="50.10823" lon="4.18911">
        <ele>163.4</ele>
        <time>2024-04-28T09:17:16Z</time>
      </trkpt>
      <trkpt lat="50.10821" lon="4.18925">
        <ele>163.4</ele>
        <time>2024-04-28T09:17:17Z</time>
      </trkpt>
      <trkpt lat="50.1082" lon="4.18939">
        <ele>163.4</ele>
        <time>2024-04-28T09:17:18Z</time>
      </trkpt>
      <trkpt lat="50.10818" lon="4.18953">
        <ele>163.4</ele>
        <time>2024-04-28T09:17:19Z</time>
      </trkpt>
      <trkpt lat="50.10816" lon="4.18967">
        <ele>163.2</ele>
        <time>2024-04-28T09:17:20Z</time>
      </trkpt>
      <trkpt lat="50.10815" lon="4.1898">
        <ele>163</ele>
        <time>2024-04-28T09:17:21Z</time>
      </trkpt>
      <trkpt lat="50.10813" lon="4.18993">
        <ele>163.2</ele>
        <time>2024-04-28T09:17:22Z</time>
      </trkpt>
      <trkpt lat="50.10811" lon="4.19006">
        <ele>163.2</ele>
        <time>2024-04-28T09:17:23Z</time>
      </trkpt>
      <trkpt lat="50.10808" lon="4.19018">
        <ele>163.2</ele>
        <time>2024-04-28T09:17:24Z</time>
      </trkpt>
      <trkpt lat="50.10806" lon="4.19031">
        <ele>163.2</ele>
        <time>2024-04-28T09:17:25Z</time>
      </trkpt>
      <trkpt lat="50.10803" lon="4.19042">
        <ele>163.2</ele>
        <time>2024-04-28T09:17:26Z</time>
      </trkpt>
      <trkpt lat="50.108" lon="4.19054">
        <ele>163.2</ele>
        <time>2024-04-28T09:17:27Z</time>
      </trkpt>
      <trkpt lat="50.10797" lon="4.19065">
        <ele>163.2</ele>
        <time>2024-04-28T09:17:28Z</time>
      </trkpt>
      <trkpt lat="50.10794" lon="4.19076">
        <ele>163.2</ele>
        <time>2024-04-28T09:17:29Z</time>
      </trkpt>
      <trkpt lat="50.1079" lon="4.19086">
        <ele>163.6</ele>
        <time>2024-04-28T09:17:30Z</time>
      </trkpt>
      <trkpt lat="50.10787" lon="4.19096">
        <ele>164</ele>
        <time>2024-04-28T09:17:31Z</time>
      </trkpt>
      <trkpt lat="50.10784" lon="4.19106">
        <ele>164.4</ele>
        <time>2024-04-28T09:17:32Z</time>
      </trkpt>
      <trkpt lat="50.10781" lon="4.19115">
        <ele>164.4</ele>
        <time>2024-04-28T09:17:33Z</time>
      </trkpt>
      <trkpt lat="50.10777" lon="4.19124">
        <ele>164.8</ele>
        <time>2024-04-28T09:17:34Z</time>
      </trkpt>
      <trkpt lat="50.10774" lon="4.19132">
        <ele>165</ele>
        <time>2024-04-28T09:17:35Z</time>
      </trkpt>
      <trkpt lat="50.10771" lon="4.19141">
        <ele>165.2</ele>
        <time>2024-04-28T09:17:36Z</time>
      </trkpt>
      <trkpt lat="50.10767" lon="4.19149">
        <ele>165.4</ele>
        <time>2024-04-28T09:17:37Z</time>
      </trkpt>
      <trkpt lat="50.10763" lon="4.19158">
        <ele>165.4</ele>
        <time>2024-04-28T09:17:38Z</time>
      </trkpt>
      <trkpt lat="50.10759" lon="4.19166">
        <ele>165.8</ele>
        <time>2024-04-28T09:17:39Z</time>
      </trkpt>
      <trkpt lat="50.10754" lon="4.19174">
        <ele>166</ele>
        <time>2024-04-28T09:17:40Z</time>
      </trkpt>
      <trkpt lat="50.1075" lon="4.19182">
        <ele>166.4</ele>
        <time>2024-04-28T09:17:41Z</time>
      </trkpt>
      <trkpt lat="50.10745" lon="4.1919">
        <ele>166.4</ele>
        <time>2024-04-28T09:17:42Z</time>
      </trkpt>
      <trkpt lat="50.10739" lon="4.19198">
        <ele>166.4</ele>
        <time>2024-04-28T09:17:43Z</time>
      </trkpt>
      <trkpt lat="50.10734" lon="4.19205">
        <ele>166.4</ele>
        <time>2024-04-28T09:17:44Z</time>
      </trkpt>
      <trkpt lat="50.10728" lon="4.19213">
        <ele>166.4</ele>
        <time>2024-04-28T09:17:45Z</time>
      </trkpt>
      <trkpt lat="50.10722" lon="4.19221">
        <ele>166.4</ele>
        <time>2024-04-28T09:17:46Z</time>
      </trkpt>
      <trkpt lat="50.10716" lon="4.19229">
        <ele>166.4</ele>
        <time>2024-04-28T09:17:47Z</time>
      </trkpt>
      <trkpt lat="50.1071" lon="4.19238">
        <ele>166.4</ele>
        <time>2024-04-28T09:17:48Z</time>
      </trkpt>
      <trkpt lat="50.10704" lon="4.19247">
        <ele>166.4</ele>
        <time>2024-04-28T09:17:49Z</time>
      </trkpt>
      <trkpt lat="50.10698" lon="4.19257">
        <ele>166.4</ele>
        <time>2024-04-28T09:17:50Z</time>
      </trkpt>
      <trkpt lat="50.10692" lon="4.19267">
        <ele>166</ele>
        <time>2024-04-28T09:17:51Z</time>
      </trkpt>
      <trkpt lat="50.10686" lon="4.19278">
        <ele>165.6</ele>
        <time>2024-04-28T09:17:52Z</time>
      </trkpt>
      <trkpt lat="50.10681" lon="4.19289">
        <ele>165.2</ele>
        <time>2024-04-28T09:17:53Z</time>
      </trkpt>
      <trkpt lat="50.10675" lon="4.19299">
        <ele>165</ele>
        <time>2024-04-28T09:17:54Z</time>
      </trkpt>
      <trkpt lat="50.10669" lon="4.19309">
        <ele>164.6</ele>
        <time>2024-04-28T09:17:55Z</time>
      </trkpt>
      <trkpt lat="50.10662" lon="4.19319">
        <ele>164.4</ele>
        <time>2024-04-28T09:17:56Z</time>
      </trkpt>
      <trkpt lat="50.10655" lon="4.19326">
        <ele>164.2</ele>
        <time>2024-04-28T09:17:57Z</time>
      </trkpt>
      <trkpt lat="50.10647" lon="4.19332">
        <ele>164</ele>
        <time>2024-04-28T09:17:58Z</time>
      </trkpt>
      <trkpt lat="50.10638" lon="4.19335">
        <ele>163.8</ele>
        <time>2024-04-28T09:17:59Z</time>
      </trkpt>
      <trkpt lat="50.1063" lon="4.19337">
        <ele>163.8</ele>
        <time>2024-04-28T09:18:00Z</time>
      </trkpt>
      <trkpt lat="50.10622" lon="4.19338">
        <ele>163.6</ele>
        <time>2024-04-28T09:18:01Z</time>
      </trkpt>
      <trkpt lat="50.10613" lon="4.19339">
        <ele>163.4</ele>
        <time>2024-04-28T09:18:02Z</time>
      </trkpt>
      <trkpt lat="50.10605" lon="4.19341">
        <ele>163.4</ele>
        <time>2024-04-28T09:18:03Z</time>
      </trkpt>
      <trkpt lat="50.10597" lon="4.19342">
        <ele>163.4</ele>
        <time>2024-04-28T09:18:04Z</time>
      </trkpt>
      <trkpt lat="50.10589" lon="4.19342">
        <ele>163.4</ele>
        <time>2024-04-28T09:18:05Z</time>
      </trkpt>
      <trkpt lat="50.10581" lon="4.19343">
        <ele>163.4</ele>
        <time>2024-04-28T09:18:06Z</time>
      </trkpt>
      <trkpt lat="50.10574" lon="4.19343">
        <ele>163.4</ele>
        <time>2024-04-28T09:18:07Z</time>
      </trkpt>
      <trkpt lat="50.10566" lon="4.19342">
        <ele>163.2</ele>
        <time>2024-04-28T09:18:08Z</time>
      </trkpt>
      <trkpt lat="50.10558" lon="4.19341">
        <ele>163.2</ele>
        <time>2024-04-28T09:18:09Z</time>
      </trkpt>
      <trkpt lat="50.10551" lon="4.1934">
        <ele>163.4</ele>
        <time>2024-04-28T09:18:10Z</time>
      </trkpt>
      <trkpt lat="50.10544" lon="4.19338">
        <ele>163.6</ele>
        <time>2024-04-28T09:18:11Z</time>
      </trkpt>
      <trkpt lat="50.10537" lon="4.19337">
        <ele>163.6</ele>
        <time>2024-04-28T09:18:12Z</time>
      </trkpt>
      <trkpt lat="50.10531" lon="4.19335">
        <ele>163.6</ele>
        <time>2024-04-28T09:18:13Z</time>
      </trkpt>
      <trkpt lat="50.10524" lon="4.19333">
        <ele>163.6</ele>
        <time>2024-04-28T09:18:14Z</time>
      </trkpt>
      <trkpt lat="50.10517" lon="4.19332">
        <ele>163.8</ele>
        <time>2024-04-28T09:18:15Z</time>
      </trkpt>
      <trkpt lat="50.10509" lon="4.19331">
        <ele>164</ele>
        <time>2024-04-28T09:18:16Z</time>
      </trkpt>
      <trkpt lat="50.10502" lon="4.1933">
        <ele>164</ele>
        <time>2024-04-28T09:18:17Z</time>
      </trkpt>
      <trkpt lat="50.10494" lon="4.1933">
        <ele>164.4</ele>
        <time>2024-04-28T09:18:18Z</time>
      </trkpt>
      <trkpt lat="50.10486" lon="4.19329">
        <ele>164.4</ele>
        <time>2024-04-28T09:18:19Z</time>
      </trkpt>
      <trkpt lat="50.10478" lon="4.19328">
        <ele>164.4</ele>
        <time>2024-04-28T09:18:20Z</time>
      </trkpt>
      <trkpt lat="50.1047" lon="4.19327">
        <ele>164.4</ele>
        <time>2024-04-28T09:18:21Z</time>
      </trkpt>
      <trkpt lat="50.10462" lon="4.19326">
        <ele>164.6</ele>
        <time>2024-04-28T09:18:22Z</time>
      </trkpt>
      <trkpt lat="50.10454" lon="4.19324">
        <ele>164.6</ele>
        <time>2024-04-28T09:18:23Z</time>
      </trkpt>
      <trkpt lat="50.10445" lon="4.19323">
        <ele>164.6</ele>
        <time>2024-04-28T09:18:24Z</time>
      </trkpt>
      <trkpt lat="50.10437" lon="4.19321">
        <ele>164.6</ele>
        <time>2024-04-28T09:18:25Z</time>
      </trkpt>
      <trkpt lat="50.10429" lon="4.1932">
        <ele>164.6</ele>
        <time>2024-04-28T09:18:26Z</time>
      </trkpt>
      <trkpt lat="50.10421" lon="4.19319">
        <ele>164.4</ele>
        <time>2024-04-28T09:18:27Z</time>
      </trkpt>
      <trkpt lat="50.10413" lon="4.19317">
        <ele>164.6</ele>
        <time>2024-04-28T09:18:28Z</time>
      </trkpt>
      <trkpt lat="50.10406" lon="4.19316">
        <ele>164.6</ele>
        <time>2024-04-28T09:18:29Z</time>
      </trkpt>
      <trkpt lat="50.10398" lon="4.19315">
        <ele>164.6</ele>
        <time>2024-04-28T09:18:30Z</time>
      </trkpt>
      <trkpt lat="50.1039" lon="4.19315">
        <ele>164.4</ele>
        <time>2024-04-28T09:18:31Z</time>
      </trkpt>
      <trkpt lat="50.10382" lon="4.19315">
        <ele>164.4</ele>
        <time>2024-04-28T09:18:32Z</time>
      </trkpt>
      <trkpt lat="50.10374" lon="4.19316">
        <ele>164.2</ele>
        <time>2024-04-28T09:18:33Z</time>
      </trkpt>
      <trkpt lat="50.10367" lon="4.19316">
        <ele>164.2</ele>
        <time>2024-04-28T09:18:34Z</time>
      </trkpt>
      <trkpt lat="50.10359" lon="4.19316">
        <ele>164</ele>
        <time>2024-04-28T09:18:35Z</time>
      </trkpt>
      <trkpt lat="50.10352" lon="4.19316">
        <ele>164.2</ele>
        <time>2024-04-28T09:18:36Z</time>
      </trkpt>
      <trkpt lat="50.10344" lon="4.19316">
        <ele>164</ele>
        <time>2024-04-28T09:18:37Z</time>
      </trkpt>
      <trkpt lat="50.10338" lon="4.19316">
        <ele>164.2</ele>
        <time>2024-04-28T09:18:38Z</time>
      </trkpt>
      <trkpt lat="50.10331" lon="4.19316">
        <ele>164</ele>
        <time>2024-04-28T09:18:39Z</time>
      </trkpt>
      <trkpt lat="50.10324" lon="4.19316">
        <ele>164</ele>
        <time>2024-04-28T09:18:40Z</time>
      </trkpt>
      <trkpt lat="50.10318" lon="4.19316">
        <ele>164.2</ele>
        <time>2024-04-28T09:18:41Z</time>
      </trkpt>
      <trkpt lat="50.10312" lon="4.19317">
        <ele>164</ele>
        <time>2024-04-28T09:18:42Z</time>
      </trkpt>
      <trkpt lat="50.10305" lon="4.19317">
        <ele>164</ele>
        <time>2024-04-28T09:18:43Z</time>
      </trkpt>
      <trkpt lat="50.10299" lon="4.19317">
        <ele>164.2</ele>
        <time>2024-04-28T09:18:44Z</time>
      </trkpt>
      <trkpt lat="50.10293" lon="4.19317">
        <ele>164.2</ele>
        <time>2024-04-28T09:18:45Z</time>
      </trkpt>
      <trkpt lat="50.10286" lon="4.19317">
        <ele>164.4</ele>
        <time>2024-04-28T09:18:46Z</time>
      </trkpt>
      <trkpt lat="50.1028" lon="4.19317">
        <ele>164.4</ele>
        <time>2024-04-28T09:18:47Z</time>
      </trkpt>
      <trkpt lat="50.10274" lon="4.19317">
        <ele>164.4</ele>
        <time>2024-04-28T09:18:48Z</time>
      </trkpt>
      <trkpt lat="50.10267" lon="4.19317">
        <ele>164.8</ele>
        <time>2024-04-28T09:18:49Z</time>
      </trkpt>
      <trkpt lat="50.10261" lon="4.19317">
        <ele>165.2</ele>
        <time>2024-04-28T09:18:50Z</time>
      </trkpt>
      <trkpt lat="50.10255" lon="4.19317">
        <ele>165.4</ele>
        <time>2024-04-28T09:18:51Z</time>
      </trkpt>
      <trkpt lat="50.10248" lon="4.19317">
        <ele>165.6</ele>
        <time>2024-04-28T09:18:52Z</time>
      </trkpt>
      <trkpt lat="50.10242" lon="4.19317">
        <ele>165.8</ele>
        <time>2024-04-28T09:18:53Z</time>
      </trkpt>
      <trkpt lat="50.10236" lon="4.19317">
        <ele>166.2</ele>
        <time>2024-04-28T09:18:54Z</time>
      </trkpt>
      <trkpt lat="50.1023" lon="4.19317">
        <ele>166.2</ele>
        <time>2024-04-28T09:18:55Z</time>
      </trkpt>
      <trkpt lat="50.10224" lon="4.19317">
        <ele>166.2</ele>
        <time>2024-04-28T09:18:56Z</time>
      </trkpt>
      <trkpt lat="50.10218" lon="4.19317">
        <ele>166.2</ele>
        <time>2024-04-28T09:18:57Z</time>
      </trkpt>
      <trkpt lat="50.10212" lon="4.19317">
        <ele>166.4</ele>
        <time>2024-04-28T09:18:58Z</time>
      </trkpt>
      <trkpt lat="50.10207" lon="4.19316">
        <ele>166.6</ele>
        <time>2024-04-28T09:18:59Z</time>
      </trkpt>
      <trkpt lat="50.10201" lon="4.19316">
        <ele>166.8</ele>
        <time>2024-04-28T09:19:00Z</time>
      </trkpt>
      <trkpt lat="50.10196" lon="4.19316">
        <ele>167</ele>
        <time>2024-04-28T09:19:01Z</time>
      </trkpt>
      <trkpt lat="50.10191" lon="4.19316">
        <ele>167</ele>
        <time>2024-04-28T09:19:02Z</time>
      </trkpt>
      <trkpt lat="50.10186" lon="4.19316">
        <ele>167.4</ele>
        <time>2024-04-28T09:19:03Z</time>
      </trkpt>
      <trkpt lat="50.10181" lon="4.19316">
        <ele>167.6</ele>
        <time>2024-04-28T09:19:04Z</time>
      </trkpt>
      <trkpt lat="50.10176" lon="4.19316">
        <ele>167.8</ele>
        <time>2024-04-28T09:19:05Z</time>
      </trkpt>
      <trkpt lat="50.10171" lon="4.19315">
        <ele>167.8</ele>
        <time>2024-04-28T09:19:06Z</time>
      </trkpt>
      <trkpt lat="50.10166" lon="4.19315">
        <ele>167.8</ele>
        <time>2024-04-28T09:19:07Z</time>
      </trkpt>
      <trkpt lat="50.10161" lon="4.19316">
        <ele>168</ele>
        <time>2024-04-28T09:19:08Z</time>
      </trkpt>
      <trkpt lat="50.10156" lon="4.19316">
        <ele>168.2</ele>
        <time>2024-04-28T09:19:09Z</time>
      </trkpt>
      <trkpt lat="50.10151" lon="4.19317">
        <ele>168.2</ele>
        <time>2024-04-28T09:19:10Z</time>
      </trkpt>
      <trkpt lat="50.10146" lon="4.19317">
        <ele>168.2</ele>
        <time>2024-04-28T09:19:11Z</time>
      </trkpt>
      <trkpt lat="50.10141" lon="4.19318">
        <ele>168.2</ele>
        <time>2024-04-28T09:19:12Z</time>
      </trkpt>
      <trkpt lat="50.10136" lon="4.19319">
        <ele>168.2</ele>
        <time>2024-04-28T09:19:13Z</time>
      </trkpt>
      <trkpt lat="50.10131" lon="4.19321">
        <ele>168.6</ele>
        <time>2024-04-28T09:19:14Z</time>
      </trkpt>
      <trkpt lat="50.10126" lon="4.19322">
        <ele>168.6</ele>
        <time>2024-04-28T09:19:15Z</time>
      </trkpt>
      <trkpt lat="50.10121" lon="4.19324">
        <ele>168.6</ele>
        <time>2024-04-28T09:19:16Z</time>
      </trkpt>
      <trkpt lat="50.10116" lon="4.19326">
        <ele>168.8</ele>
        <time>2024-04-28T09:19:17Z</time>
      </trkpt>
      <trkpt lat="50.10111" lon="4.19328">
        <ele>168.8</ele>
        <time>2024-04-28T09:19:18Z</time>
      </trkpt>
      <trkpt lat="50.10107" lon="4.19332">
        <ele>169</ele>
        <time>2024-04-28T09:19:19Z</time>
      </trkpt>
      <trkpt lat="50.10102" lon="4.19335">
        <ele>169.2</ele>
        <time>2024-04-28T09:19:20Z</time>
      </trkpt>
      <trkpt lat="50.10097" lon="4.19339">
        <ele>169.2</ele>
        <time>2024-04-28T09:19:21Z</time>
      </trkpt>
      <trkpt lat="50.10092" lon="4.19344">
        <ele>169.2</ele>
        <time>2024-04-28T09:19:22Z</time>
      </trkpt>
      <trkpt lat="50.10087" lon="4.19348">
        <ele>169.2</ele>
        <time>2024-04-28T09:19:23Z</time>
      </trkpt>
      <trkpt lat="50.10082" lon="4.19352">
        <ele>169.4</ele>
        <time>2024-04-28T09:19:24Z</time>
      </trkpt>
      <trkpt lat="50.10077" lon="4.19355">
        <ele>169.2</ele>
        <time>2024-04-28T09:19:25Z</time>
      </trkpt>
      <trkpt lat="50.10071" lon="4.19359">
        <ele>169.4</ele>
        <time>2024-04-28T09:19:26Z</time>
      </trkpt>
      <trkpt lat="50.10066" lon="4.19363">
        <ele>169.6</ele>
        <time>2024-04-28T09:19:27Z</time>
      </trkpt>
      <trkpt lat="50.10061" lon="4.19368">
        <ele>169.8</ele>
        <time>2024-04-28T09:19:28Z</time>
      </trkpt>
      <trkpt lat="50.10055" lon="4.19372">
        <ele>170.2</ele>
        <time>2024-04-28T09:19:29Z</time>
      </trkpt>
      <trkpt lat="50.10049" lon="4.19376">
        <ele>170.2</ele>
        <time>2024-04-28T09:19:30Z</time>
      </trkpt>
      <trkpt lat="50.10043" lon="4.19379">
        <ele>170.4</ele>
        <time>2024-04-28T09:19:31Z</time>
      </trkpt>
      <trkpt lat="50.10037" lon="4.19382">
        <ele>170.4</ele>
        <time>2024-04-28T09:19:32Z</time>
      </trkpt>
      <trkpt lat="50.10031" lon="4.19385">
        <ele>170.4</ele>
        <time>2024-04-28T09:19:33Z</time>
      </trkpt>
      <trkpt lat="50.10025" lon="4.19388">
        <ele>170.6</ele>
        <time>2024-04-28T09:19:34Z</time>
      </trkpt>
      <trkpt lat="50.10019" lon="4.1939">
        <ele>170.8</ele>
        <time>2024-04-28T09:19:35Z</time>
      </trkpt>
      <trkpt lat="50.10012" lon="4.19392">
        <ele>170.8</ele>
        <time>2024-04-28T09:19:36Z</time>
      </trkpt>
      <trkpt lat="50.10005" lon="4.19393">
        <ele>170.8</ele>
        <time>2024-04-28T09:19:37Z</time>
      </trkpt>
      <trkpt lat="50.09998" lon="4.19394">
        <ele>170.8</ele>
        <time>2024-04-28T09:19:38Z</time>
      </trkpt>
      <trkpt lat="50.09991" lon="4.19395">
        <ele>171</ele>
        <time>2024-04-28T09:19:39Z</time>
      </trkpt>
      <trkpt lat="50.09984" lon="4.19396">
        <ele>170.8</ele>
        <time>2024-04-28T09:19:40Z</time>
      </trkpt>
      <trkpt lat="50.09976" lon="4.19396">
        <ele>170.8</ele>
        <time>2024-04-28T09:19:41Z</time>
      </trkpt>
      <trkpt lat="50.09968" lon="4.19397">
        <ele>170.8</ele>
        <time>2024-04-28T09:19:42Z</time>
      </trkpt>
      <trkpt lat="50.0996" lon="4.19397">
        <ele>170.8</ele>
        <time>2024-04-28T09:19:43Z</time>
      </trkpt>
      <trkpt lat="50.09952" lon="4.19397">
        <ele>170.8</ele>
        <time>2024-04-28T09:19:44Z</time>
      </trkpt>
      <trkpt lat="50.09945" lon="4.19398">
        <ele>170.6</ele>
        <time>2024-04-28T09:19:45Z</time>
      </trkpt>
      <trkpt lat="50.09937" lon="4.19399">
        <ele>170.4</ele>
        <time>2024-04-28T09:19:46Z</time>
      </trkpt>
      <trkpt lat="50.09929" lon="4.194">
        <ele>170.4</ele>
        <time>2024-04-28T09:19:47Z</time>
      </trkpt>
      <trkpt lat="50.09921" lon="4.19401">
        <ele>170.2</ele>
        <time>2024-04-28T09:19:48Z</time>
      </trkpt>
      <trkpt lat="50.09913" lon="4.19402">
        <ele>169.8</ele>
        <time>2024-04-28T09:19:49Z</time>
      </trkpt>
      <trkpt lat="50.09904" lon="4.19402">
        <ele>169.6</ele>
        <time>2024-04-28T09:19:50Z</time>
      </trkpt>
      <trkpt lat="50.09895" lon="4.19403">
        <ele>169.2</ele>
        <time>2024-04-28T09:19:51Z</time>
      </trkpt>
      <trkpt lat="50.09887" lon="4.19403">
        <ele>168.8</ele>
        <time>2024-04-28T09:19:52Z</time>
      </trkpt>
      <trkpt lat="50.09878" lon="4.19403">
        <ele>168.6</ele>
        <time>2024-04-28T09:19:53Z</time>
      </trkpt>
      <trkpt lat="50.09869" lon="4.19403">
        <ele>168.2</ele>
        <time>2024-04-28T09:19:54Z</time>
      </trkpt>
      <trkpt lat="50.0986" lon="4.19402">
        <ele>168</ele>
        <time>2024-04-28T09:19:55Z</time>
      </trkpt>
      <trkpt lat="50.09851" lon="4.19402">
        <ele>167.6</ele>
        <time>2024-04-28T09:19:56Z</time>
      </trkpt>
      <trkpt lat="50.09842" lon="4.19402">
        <ele>167.4</ele>
        <time>2024-04-28T09:19:57Z</time>
      </trkpt>
      <trkpt lat="50.09833" lon="4.19402">
        <ele>167.2</ele>
        <time>2024-04-28T09:19:58Z</time>
      </trkpt>
      <trkpt lat="50.09824" lon="4.19402">
        <ele>167</ele>
        <time>2024-04-28T09:19:59Z</time>
      </trkpt>
      <trkpt lat="50.09816" lon="4.19402">
        <ele>166.8</ele>
        <time>2024-04-28T09:20:00Z</time>
      </trkpt>
      <trkpt lat="50.09807" lon="4.19402">
        <ele>166.2</ele>
        <time>2024-04-28T09:20:01Z</time>
      </trkpt>
      <trkpt lat="50.09798" lon="4.19402">
        <ele>165.8</ele>
        <time>2024-04-28T09:20:02Z</time>
      </trkpt>
      <trkpt lat="50.09789" lon="4.19402">
        <ele>165.4</ele>
        <time>2024-04-28T09:20:03Z</time>
      </trkpt>
      <trkpt lat="50.09781" lon="4.19401">
        <ele>165</ele>
        <time>2024-04-28T09:20:04Z</time>
      </trkpt>
      <trkpt lat="50.09772" lon="4.19401">
        <ele>165</ele>
        <time>2024-04-28T09:20:05Z</time>
      </trkpt>
      <trkpt lat="50.09764" lon="4.19401">
        <ele>164.8</ele>
        <time>2024-04-28T09:20:06Z</time>
      </trkpt>
      <trkpt lat="50.09756" lon="4.19401">
        <ele>164.6</ele>
        <time>2024-04-28T09:20:07Z</time>
      </trkpt>
      <trkpt lat="50.09747" lon="4.19401">
        <ele>164.4</ele>
        <time>2024-04-28T09:20:08Z</time>
      </trkpt>
      <trkpt lat="50.09738" lon="4.19402">
        <ele>164.2</ele>
        <time>2024-04-28T09:20:09Z</time>
      </trkpt>
      <trkpt lat="50.0973" lon="4.19403">
        <ele>164.2</ele>
        <time>2024-04-28T09:20:10Z</time>
      </trkpt>
      <trkpt lat="50.09722" lon="4.19406">
        <ele>164</ele>
        <time>2024-04-28T09:20:11Z</time>
      </trkpt>
      <trkpt lat="50.09714" lon="4.1941">
        <ele>164</ele>
        <time>2024-04-28T09:20:12Z</time>
      </trkpt>
      <trkpt lat="50.09706" lon="4.19415">
        <ele>163.8</ele>
        <time>2024-04-28T09:20:13Z</time>
      </trkpt>
      <trkpt lat="50.09699" lon="4.19422">
        <ele>163.6</ele>
        <time>2024-04-28T09:20:14Z</time>
      </trkpt>
      <trkpt lat="50.09691" lon="4.19429">
        <ele>163.6</ele>
        <time>2024-04-28T09:20:15Z</time>
      </trkpt>
      <trkpt lat="50.09684" lon="4.19436">
        <ele>163.4</ele>
        <time>2024-04-28T09:20:16Z</time>
      </trkpt>
      <trkpt lat="50.09677" lon="4.19443">
        <ele>163.4</ele>
        <time>2024-04-28T09:20:17Z</time>
      </trkpt>
      <trkpt lat="50.0967" lon="4.1945">
        <ele>163.2</ele>
        <time>2024-04-28T09:20:18Z</time>
      </trkpt>
      <trkpt lat="50.09663" lon="4.19457">
        <ele>163.2</ele>
        <time>2024-04-28T09:20:19Z</time>
      </trkpt>
      <trkpt lat="50.09656" lon="4.19464">
        <ele>163.2</ele>
        <time>2024-04-28T09:20:20Z</time>
      </trkpt>
      <trkpt lat="50.09649" lon="4.19471">
        <ele>163.2</ele>
        <time>2024-04-28T09:20:21Z</time>
      </trkpt>
      <trkpt lat="50.09642" lon="4.19479">
        <ele>163</ele>
        <time>2024-04-28T09:20:22Z</time>
      </trkpt>
      <trkpt lat="50.09635" lon="4.19488">
        <ele>162.8</ele>
        <time>2024-04-28T09:20:23Z</time>
      </trkpt>
      <trkpt lat="50.09629" lon="4.19496">
        <ele>162.8</ele>
        <time>2024-04-28T09:20:24Z</time>
      </trkpt>
      <trkpt lat="50.09623" lon="4.19505">
        <ele>162.8</ele>
        <time>2024-04-28T09:20:25Z</time>
      </trkpt>
      <trkpt lat="50.09616" lon="4.19514">
        <ele>162.8</ele>
        <time>2024-04-28T09:20:26Z</time>
      </trkpt>
      <trkpt lat="50.0961" lon="4.19523">
        <ele>162.8</ele>
        <time>2024-04-28T09:20:27Z</time>
      </trkpt>
      <trkpt lat="50.09603" lon="4.1953">
        <ele>162.8</ele>
        <time>2024-04-28T09:20:28Z</time>
      </trkpt>
      <trkpt lat="50.09595" lon="4.19536">
        <ele>162.6</ele>
        <time>2024-04-28T09:20:29Z</time>
      </trkpt>
      <trkpt lat="50.09587" lon="4.1954">
        <ele>162.8</ele>
        <time>2024-04-28T09:20:30Z</time>
      </trkpt>
      <trkpt lat="50.09578" lon="4.19542">
        <ele>162.8</ele>
        <time>2024-04-28T09:20:31Z</time>
      </trkpt>
      <trkpt lat="50.0957" lon="4.19543">
        <ele>162.8</ele>
        <time>2024-04-28T09:20:32Z</time>
      </trkpt>
      <trkpt lat="50.09562" lon="4.19544">
        <ele>162.8</ele>
        <time>2024-04-28T09:20:33Z</time>
      </trkpt>
      <trkpt lat="50.09554" lon="4.19544">
        <ele>163</ele>
        <time>2024-04-28T09:20:34Z</time>
      </trkpt>
      <trkpt lat="50.09546" lon="4.19544">
        <ele>163.2</ele>
        <time>2024-04-28T09:20:35Z</time>
      </trkpt>
      <trkpt lat="50.09538" lon="4.19544">
        <ele>163.2</ele>
        <time>2024-04-28T09:20:36Z</time>
      </trkpt>
      <trkpt lat="50.09531" lon="4.19543">
        <ele>163.2</ele>
        <time>2024-04-28T09:20:37Z</time>
      </trkpt>
      <trkpt lat="50.09524" lon="4.19542">
        <ele>163.4</ele>
        <time>2024-04-28T09:20:38Z</time>
      </trkpt>
      <trkpt lat="50.09517" lon="4.1954">
        <ele>163.4</ele>
        <time>2024-04-28T09:20:39Z</time>
      </trkpt>
      <trkpt lat="50.0951" lon="4.19536">
        <ele>163.4</ele>
        <time>2024-04-28T09:20:40Z</time>
      </trkpt>
      <trkpt lat="50.09504" lon="4.19532">
        <ele>163.4</ele>
        <time>2024-04-28T09:20:41Z</time>
      </trkpt>
      <trkpt lat="50.09498" lon="4.19526">
        <ele>163.6</ele>
        <time>2024-04-28T09:20:42Z</time>
      </trkpt>
      <trkpt lat="50.09492" lon="4.19519">
        <ele>164</ele>
        <time>2024-04-28T09:20:43Z</time>
      </trkpt>
      <trkpt lat="50.09487" lon="4.19511">
        <ele>164.2</ele>
        <time>2024-04-28T09:20:44Z</time>
      </trkpt>
      <trkpt lat="50.09482" lon="4.19502">
        <ele>164.4</ele>
        <time>2024-04-28T09:20:45Z</time>
      </trkpt>
      <trkpt lat="50.09478" lon="4.19494">
        <ele>164.8</ele>
        <time>2024-04-28T09:20:46Z</time>
      </trkpt>
      <trkpt lat="50.09473" lon="4.19485">
        <ele>164.8</ele>
        <time>2024-04-28T09:20:47Z</time>
      </trkpt>
      <trkpt lat="50.09468" lon="4.19476">
        <ele>165</ele>
        <time>2024-04-28T09:20:48Z</time>
      </trkpt>
      <trkpt lat="50.09463" lon="4.19468">
        <ele>165</ele>
        <time>2024-04-28T09:20:49Z</time>
      </trkpt>
      <trkpt lat="50.09458" lon="4.19459">
        <ele>165.2</ele>
        <time>2024-04-28T09:20:50Z</time>
      </trkpt>
      <trkpt lat="50.09453" lon="4.19451">
        <ele>165.2</ele>
        <time>2024-04-28T09:20:51Z</time>
      </trkpt>
      <trkpt lat="50.09448" lon="4.19443">
        <ele>165.2</ele>
        <time>2024-04-28T09:20:52Z</time>
      </trkpt>
      <trkpt lat="50.09442" lon="4.19434">
        <ele>165.4</ele>
        <time>2024-04-28T09:20:53Z</time>
      </trkpt>
      <trkpt lat="50.09437" lon="4.19426">
        <ele>165.4</ele>
        <time>2024-04-28T09:20:54Z</time>
      </trkpt>
      <trkpt lat="50.09432" lon="4.19418">
        <ele>165.6</ele>
        <time>2024-04-28T09:20:55Z</time>
      </trkpt>
      <trkpt lat="50.09428" lon="4.19409">
        <ele>165.6</ele>
        <time>2024-04-28T09:20:56Z</time>
      </trkpt>
      <trkpt lat="50.09423" lon="4.19401">
        <ele>166</ele>
        <time>2024-04-28T09:20:57Z</time>
      </trkpt>
      <trkpt lat="50.09418" lon="4.19393">
        <ele>166</ele>
        <time>2024-04-28T09:20:58Z</time>
      </trkpt>
      <trkpt lat="50.09414" lon="4.19386">
        <ele>166.2</ele>
        <time>2024-04-28T09:20:59Z</time>
      </trkpt>
      <trkpt lat="50.09409" lon="4.19378">
        <ele>166.2</ele>
        <time>2024-04-28T09:21:00Z</time>
      </trkpt>
      <trkpt lat="50.09404" lon="4.1937">
        <ele>166.4</ele>
        <time>2024-04-28T09:21:01Z</time>
      </trkpt>
      <trkpt lat="50.09399" lon="4.19363">
        <ele>166.4</ele>
        <time>2024-04-28T09:21:02Z</time>
      </trkpt>
      <trkpt lat="50.09393" lon="4.19357">
        <ele>166.6</ele>
        <time>2024-04-28T09:21:03Z</time>
      </trkpt>
      <trkpt lat="50.09388" lon="4.1935">
        <ele>166.6</ele>
        <time>2024-04-28T09:21:04Z</time>
      </trkpt>
      <trkpt lat="50.09382" lon="4.19344">
        <ele>166.8</ele>
        <time>2024-04-28T09:21:05Z</time>
      </trkpt>
      <trkpt lat="50.09376" lon="4.19339">
        <ele>166.6</ele>
        <time>2024-04-28T09:21:06Z</time>
      </trkpt>
      <trkpt lat="50.0937" lon="4.19334">
        <ele>166.8</ele>
        <time>2024-04-28T09:21:07Z</time>
      </trkpt>
      <trkpt lat="50.09363" lon="4.19331">
        <ele>166.8</ele>
        <time>2024-04-28T09:21:08Z</time>
      </trkpt>
      <trkpt lat="50.09357" lon="4.19328">
        <ele>166.8</ele>
        <time>2024-04-28T09:21:09Z</time>
      </trkpt>
      <trkpt lat="50.09351" lon="4.19326">
        <ele>166.8</ele>
        <time>2024-04-28T09:21:10Z</time>
      </trkpt>
      <trkpt lat="50.09344" lon="4.19324">
        <ele>166.8</ele>
        <time>2024-04-28T09:21:11Z</time>
      </trkpt>
      <trkpt lat="50.09338" lon="4.19323">
        <ele>167</ele>
        <time>2024-04-28T09:21:12Z</time>
      </trkpt>
      <trkpt lat="50.09331" lon="4.19322">
        <ele>167</ele>
        <time>2024-04-28T09:21:13Z</time>
      </trkpt>
      <trkpt lat="50.09324" lon="4.19322">
        <ele>167.2</ele>
        <time>2024-04-28T09:21:14Z</time>
      </trkpt>
      <trkpt lat="50.09318" lon="4.19322">
        <ele>167.4</ele>
        <time>2024-04-28T09:21:15Z</time>
      </trkpt>
      <trkpt lat="50.09311" lon="4.19322">
        <ele>167.6</ele>
        <time>2024-04-28T09:21:16Z</time>
      </trkpt>
      <trkpt lat="50.09304" lon="4.19322">
        <ele>167.6</ele>
        <time>2024-04-28T09:21:17Z</time>
      </trkpt>
      <trkpt lat="50.09297" lon="4.19322">
        <ele>167.8</ele>
        <time>2024-04-28T09:21:18Z</time>
      </trkpt>
      <trkpt lat="50.0929" lon="4.19323">
        <ele>168</ele>
        <time>2024-04-28T09:21:19Z</time>
      </trkpt>
      <trkpt lat="50.09284" lon="4.19324">
        <ele>168.2</ele>
        <time>2024-04-28T09:21:20Z</time>
      </trkpt>
      <trkpt lat="50.09277" lon="4.19325">
        <ele>168.2</ele>
        <time>2024-04-28T09:21:21Z</time>
      </trkpt>
      <trkpt lat="50.09271" lon="4.19327">
        <ele>168</ele>
        <time>2024-04-28T09:21:22Z</time>
      </trkpt>
      <trkpt lat="50.09264" lon="4.19329">
        <ele>168.2</ele>
        <time>2024-04-28T09:21:23Z</time>
      </trkpt>
      <trkpt lat="50.09257" lon="4.19331">
        <ele>168.6</ele>
        <time>2024-04-28T09:21:24Z</time>
      </trkpt>
      <trkpt lat="50.09251" lon="4.19334">
        <ele>168.8</ele>
        <time>2024-04-28T09:21:25Z</time>
      </trkpt>
      <trkpt lat="50.09244" lon="4.19336">
        <ele>169</ele>
        <time>2024-04-28T09:21:26Z</time>
      </trkpt>
      <trkpt lat="50.09238" lon="4.19339">
        <ele>169</ele>
        <time>2024-04-28T09:21:27Z</time>
      </trkpt>
      <trkpt lat="50.09231" lon="4.19341">
        <ele>169.2</ele>
        <time>2024-04-28T09:21:28Z</time>
      </trkpt>
      <trkpt lat="50.09225" lon="4.19343">
        <ele>169.6</ele>
        <time>2024-04-28T09:21:29Z</time>
      </trkpt>
      <trkpt lat="50.09218" lon="4.19345">
        <ele>169.6</ele>
        <time>2024-04-28T09:21:30Z</time>
      </trkpt>
      <trkpt lat="50.09212" lon="4.19347">
        <ele>169.8</ele>
        <time>2024-04-28T09:21:31Z</time>
      </trkpt>
      <trkpt lat="50.09205" lon="4.19349">
        <ele>169.8</ele>
        <time>2024-04-28T09:21:32Z</time>
      </trkpt>
      <trkpt lat="50.09199" lon="4.19351">
        <ele>169.8</ele>
        <time>2024-04-28T09:21:33Z</time>
      </trkpt>
      <trkpt lat="50.09192" lon="4.19352">
        <ele>169.8</ele>
        <time>2024-04-28T09:21:34Z</time>
      </trkpt>
      <trkpt lat="50.09186" lon="4.19353">
        <ele>169.8</ele>
        <time>2024-04-28T09:21:35Z</time>
      </trkpt>
      <trkpt lat="50.09179" lon="4.19354">
        <ele>170</ele>
        <time>2024-04-28T09:21:36Z</time>
      </trkpt>
      <trkpt lat="50.09172" lon="4.19355">
        <ele>169.8</ele>
        <time>2024-04-28T09:21:37Z</time>
      </trkpt>
      <trkpt lat="50.09166" lon="4.19355">
        <ele>169.8</ele>
        <time>2024-04-28T09:21:38Z</time>
      </trkpt>
      <trkpt lat="50.09159" lon="4.19356">
        <ele>169.8</ele>
        <time>2024-04-28T09:21:39Z</time>
      </trkpt>
      <trkpt lat="50.09153" lon="4.19356">
        <ele>170</ele>
        <time>2024-04-28T09:21:40Z</time>
      </trkpt>
      <trkpt lat="50.09146" lon="4.19356">
        <ele>170.2</ele>
        <time>2024-04-28T09:21:41Z</time>
      </trkpt>
      <trkpt lat="50.09139" lon="4.19356">
        <ele>170.4</ele>
        <time>2024-04-28T09:21:42Z</time>
      </trkpt>
      <trkpt lat="50.09133" lon="4.19356">
        <ele>170.4</ele>
        <time>2024-04-28T09:21:43Z</time>
      </trkpt>
      <trkpt lat="50.09125" lon="4.19356">
        <ele>170.4</ele>
        <time>2024-04-28T09:21:44Z</time>
      </trkpt>
      <trkpt lat="50.09118" lon="4.19355">
        <ele>170.4</ele>
        <time>2024-04-28T09:21:45Z</time>
      </trkpt>
      <trkpt lat="50.09111" lon="4.19355">
        <ele>170.4</ele>
        <time>2024-04-28T09:21:46Z</time>
      </trkpt>
      <trkpt lat="50.09104" lon="4.19355">
        <ele>170.4</ele>
        <time>2024-04-28T09:21:47Z</time>
      </trkpt>
      <trkpt lat="50.09097" lon="4.19355">
        <ele>170.6</ele>
        <time>2024-04-28T09:21:48Z</time>
      </trkpt>
      <trkpt lat="50.09089" lon="4.19355">
        <ele>170.8</ele>
        <time>2024-04-28T09:21:49Z</time>
      </trkpt>
      <trkpt lat="50.09082" lon="4.19355">
        <ele>170.8</ele>
        <time>2024-04-28T09:21:50Z</time>
      </trkpt>
      <trkpt lat="50.09075" lon="4.19355">
        <ele>171</ele>
        <time>2024-04-28T09:21:51Z</time>
      </trkpt>
      <trkpt lat="50.09067" lon="4.19355">
        <ele>171.4</ele>
        <time>2024-04-28T09:21:52Z</time>
      </trkpt>
      <trkpt lat="50.0906" lon="4.19355">
        <ele>171.4</ele>
        <time>2024-04-28T09:21:53Z</time>
      </trkpt>
      <trkpt lat="50.09052" lon="4.19355">
        <ele>171.4</ele>
        <time>2024-04-28T09:21:54Z</time>
      </trkpt>
      <trkpt lat="50.09044" lon="4.19355">
        <ele>171.6</ele>
        <time>2024-04-28T09:21:55Z</time>
      </trkpt>
      <trkpt lat="50.09036" lon="4.19355">
        <ele>171.6</ele>
        <time>2024-04-28T09:21:56Z</time>
      </trkpt>
      <trkpt lat="50.09028" lon="4.19354">
        <ele>171.6</ele>
        <time>2024-04-28T09:21:57Z</time>
      </trkpt>
      <trkpt lat="50.0902" lon="4.19354">
        <ele>171.6</ele>
        <time>2024-04-28T09:21:58Z</time>
      </trkpt>
      <trkpt lat="50.09012" lon="4.19353">
        <ele>171.6</ele>
        <time>2024-04-28T09:21:59Z</time>
      </trkpt>
      <trkpt lat="50.09004" lon="4.19352">
        <ele>171.6</ele>
        <time>2024-04-28T09:22:00Z</time>
      </trkpt>
      <trkpt lat="50.08996" lon="4.1935">
        <ele>171.8</ele>
        <time>2024-04-28T09:22:01Z</time>
      </trkpt>
      <trkpt lat="50.08988" lon="4.19348">
        <ele>171.6</ele>
        <time>2024-04-28T09:22:02Z</time>
      </trkpt>
      <trkpt lat="50.0898" lon="4.19345">
        <ele>171.6</ele>
        <time>2024-04-28T09:22:03Z</time>
      </trkpt>
      <trkpt lat="50.08972" lon="4.19342">
        <ele>171.6</ele>
        <time>2024-04-28T09:22:04Z</time>
      </trkpt>
      <trkpt lat="50.08964" lon="4.19338">
        <ele>171.4</ele>
        <time>2024-04-28T09:22:05Z</time>
      </trkpt>
      <trkpt lat="50.08957" lon="4.19335">
        <ele>171.2</ele>
        <time>2024-04-28T09:22:06Z</time>
      </trkpt>
      <trkpt lat="50.08949" lon="4.19331">
        <ele>170.8</ele>
        <time>2024-04-28T09:22:07Z</time>
      </trkpt>
      <trkpt lat="50.08941" lon="4.19328">
        <ele>170</ele>
        <time>2024-04-28T09:22:08Z</time>
      </trkpt>
      <trkpt lat="50.08933" lon="4.19324">
        <ele>169.4</ele>
        <time>2024-04-28T09:22:09Z</time>
      </trkpt>
      <trkpt lat="50.08925" lon="4.19321">
        <ele>169.2</ele>
        <time>2024-04-28T09:22:10Z</time>
      </trkpt>
      <trkpt lat="50.08917" lon="4.19318">
        <ele>168.8</ele>
        <time>2024-04-28T09:22:11Z</time>
      </trkpt>
      <trkpt lat="50.0891" lon="4.19315">
        <ele>168.6</ele>
        <time>2024-04-28T09:22:12Z</time>
      </trkpt>
      <trkpt lat="50.08902" lon="4.19312">
        <ele>168.2</ele>
        <time>2024-04-28T09:22:13Z</time>
      </trkpt>
      <trkpt lat="50.08894" lon="4.19311">
        <ele>168.2</ele>
        <time>2024-04-28T09:22:14Z</time>
      </trkpt>
      <trkpt lat="50.08886" lon="4.19311">
        <ele>168</ele>
        <time>2024-04-28T09:22:15Z</time>
      </trkpt>
      <trkpt lat="50.08878" lon="4.19311">
        <ele>168</ele>
        <time>2024-04-28T09:22:16Z</time>
      </trkpt>
      <trkpt lat="50.0887" lon="4.19311">
        <ele>167.8</ele>
        <time>2024-04-28T09:22:17Z</time>
      </trkpt>
      <trkpt lat="50.08862" lon="4.19312">
        <ele>167.6</ele>
        <time>2024-04-28T09:22:18Z</time>
      </trkpt>
      <trkpt lat="50.08854" lon="4.19314">
        <ele>167.6</ele>
        <time>2024-04-28T09:22:19Z</time>
      </trkpt>
      <trkpt lat="50.08846" lon="4.19315">
        <ele>167.6</ele>
        <time>2024-04-28T09:22:20Z</time>
      </trkpt>
      <trkpt lat="50.08838" lon="4.19316">
        <ele>167.4</ele>
        <time>2024-04-28T09:22:21Z</time>
      </trkpt>
      <trkpt lat="50.0883" lon="4.19317">
        <ele>167.4</ele>
        <time>2024-04-28T09:22:22Z</time>
      </trkpt>
      <trkpt lat="50.08822" lon="4.19319">
        <ele>167.2</ele>
        <time>2024-04-28T09:22:23Z</time>
      </trkpt>
      <trkpt lat="50.08813" lon="4.1932">
        <ele>167.2</ele>
        <time>2024-04-28T09:22:24Z</time>
      </trkpt>
      <trkpt lat="50.08805" lon="4.19321">
        <ele>167.4</ele>
        <time>2024-04-28T09:22:25Z</time>
      </trkpt>
      <trkpt lat="50.08797" lon="4.19322">
        <ele>167.4</ele>
        <time>2024-04-28T09:22:26Z</time>
      </trkpt>
      <trkpt lat="50.08789" lon="4.19323">
        <ele>167.4</ele>
        <time>2024-04-28T09:22:27Z</time>
      </trkpt>
      <trkpt lat="50.08781" lon="4.19323">
        <ele>167.2</ele>
        <time>2024-04-28T09:22:28Z</time>
      </trkpt>
      <trkpt lat="50.08773" lon="4.19324">
        <ele>167.4</ele>
        <time>2024-04-28T09:22:29Z</time>
      </trkpt>
      <trkpt lat="50.08765" lon="4.19325">
        <ele>167.4</ele>
        <time>2024-04-28T09:22:30Z</time>
      </trkpt>
      <trkpt lat="50.08757" lon="4.19326">
        <ele>167.4</ele>
        <time>2024-04-28T09:22:31Z</time>
      </trkpt>
      <trkpt lat="50.08749" lon="4.19326">
        <ele>167.2</ele>
        <time>2024-04-28T09:22:32Z</time>
      </trkpt>
      <trkpt lat="50.08741" lon="4.19327">
        <ele>167.4</ele>
        <time>2024-04-28T09:22:33Z</time>
      </trkpt>
      <trkpt lat="50.08733" lon="4.19328">
        <ele>167.2</ele>
        <time>2024-04-28T09:22:34Z</time>
      </trkpt>
      <trkpt lat="50.08725" lon="4.19328">
        <ele>167.4</ele>
        <time>2024-04-28T09:22:35Z</time>
      </trkpt>
      <trkpt lat="50.08717" lon="4.19328">
        <ele>167.4</ele>
        <time>2024-04-28T09:22:36Z</time>
      </trkpt>
      <trkpt lat="50.08709" lon="4.19327">
        <ele>167.4</ele>
        <time>2024-04-28T09:22:37Z</time>
      </trkpt>
      <trkpt lat="50.08701" lon="4.19326">
        <ele>167.4</ele>
        <time>2024-04-28T09:22:38Z</time>
      </trkpt>
      <trkpt lat="50.08693" lon="4.19324">
        <ele>167.4</ele>
        <time>2024-04-28T09:22:39Z</time>
      </trkpt>
      <trkpt lat="50.08686" lon="4.19322">
        <ele>167.6</ele>
        <time>2024-04-28T09:22:40Z</time>
      </trkpt>
      <trkpt lat="50.08678" lon="4.1932">
        <ele>167.8</ele>
        <time>2024-04-28T09:22:41Z</time>
      </trkpt>
      <trkpt lat="50.08671" lon="4.19318">
        <ele>167.8</ele>
        <time>2024-04-28T09:22:42Z</time>
      </trkpt>
      <trkpt lat="50.08663" lon="4.19315">
        <ele>168</ele>
        <time>2024-04-28T09:22:43Z</time>
      </trkpt>
      <trkpt lat="50.08656" lon="4.19313">
        <ele>168.4</ele>
        <time>2024-04-28T09:22:44Z</time>
      </trkpt>
      <trkpt lat="50.08649" lon="4.1931">
        <ele>168.6</ele>
        <time>2024-04-28T09:22:45Z</time>
      </trkpt>
      <trkpt lat="50.08641" lon="4.19308">
        <ele>168.6</ele>
        <time>2024-04-28T09:22:46Z</time>
      </trkpt>
      <trkpt lat="50.08634" lon="4.19305">
        <ele>168.8</ele>
        <time>2024-04-28T09:22:47Z</time>
      </trkpt>
      <trkpt lat="50.08627" lon="4.19302">
        <ele>168.8</ele>
        <time>2024-04-28T09:22:48Z</time>
      </trkpt>
      <trkpt lat="50.0862" lon="4.19299">
        <ele>169.2</ele>
        <time>2024-04-28T09:22:49Z</time>
      </trkpt>
      <trkpt lat="50.08614" lon="4.19296">
        <ele>169.6</ele>
        <time>2024-04-28T09:22:50Z</time>
      </trkpt>
      <trkpt lat="50.08607" lon="4.19293">
        <ele>169.8</ele>
        <time>2024-04-28T09:22:51Z</time>
      </trkpt>
      <trkpt lat="50.086" lon="4.19289">
        <ele>169.8</ele>
        <time>2024-04-28T09:22:52Z</time>
      </trkpt>
      <trkpt lat="50.08593" lon="4.19286">
        <ele>169.8</ele>
        <time>2024-04-28T09:22:53Z</time>
      </trkpt>
      <trkpt lat="50.08587" lon="4.19282">
        <ele>170</ele>
        <time>2024-04-28T09:22:54Z</time>
      </trkpt>
      <trkpt lat="50.08581" lon="4.19278">
        <ele>170.4</ele>
        <time>2024-04-28T09:22:55Z</time>
      </trkpt>
      <trkpt lat="50.08574" lon="4.19274">
        <ele>170.4</ele>
        <time>2024-04-28T09:22:56Z</time>
      </trkpt>
      <trkpt lat="50.08568" lon="4.1927">
        <ele>170.4</ele>
        <time>2024-04-28T09:22:57Z</time>
      </trkpt>
      <trkpt lat="50.08562" lon="4.19267">
        <ele>170.8</ele>
        <time>2024-04-28T09:22:58Z</time>
      </trkpt>
      <trkpt lat="50.08556" lon="4.19263">
        <ele>171.4</ele>
        <time>2024-04-28T09:22:59Z</time>
      </trkpt>
      <trkpt lat="50.0855" lon="4.1926">
        <ele>171.6</ele>
        <time>2024-04-28T09:23:00Z</time>
      </trkpt>
      <trkpt lat="50.08544" lon="4.19256">
        <ele>172</ele>
        <time>2024-04-28T09:23:01Z</time>
      </trkpt>
      <trkpt lat="50.08538" lon="4.19252">
        <ele>172</ele>
        <time>2024-04-28T09:23:02Z</time>
      </trkpt>
      <trkpt lat="50.08532" lon="4.19249">
        <ele>172.4</ele>
        <time>2024-04-28T09:23:03Z</time>
      </trkpt>
      <trkpt lat="50.08526" lon="4.19246">
        <ele>172.8</ele>
        <time>2024-04-28T09:23:04Z</time>
      </trkpt>
      <trkpt lat="50.0852" lon="4.19242">
        <ele>172.8</ele>
        <time>2024-04-28T09:23:05Z</time>
      </trkpt>
      <trkpt lat="50.08513" lon="4.19238">
        <ele>173.4</ele>
        <time>2024-04-28T09:23:06Z</time>
      </trkpt>
      <trkpt lat="50.08507" lon="4.19235">
        <ele>173.8</ele>
        <time>2024-04-28T09:23:07Z</time>
      </trkpt>
      <trkpt lat="50.08501" lon="4.19232">
        <ele>173.8</ele>
        <time>2024-04-28T09:23:08Z</time>
      </trkpt>
      <trkpt lat="50.08495" lon="4.19228">
        <ele>174</ele>
        <time>2024-04-28T09:23:09Z</time>
      </trkpt>
      <trkpt lat="50.08489" lon="4.19225">
        <ele>174.4</ele>
        <time>2024-04-28T09:23:10Z</time>
      </trkpt>
      <trkpt lat="50.08482" lon="4.19222">
        <ele>174.4</ele>
        <time>2024-04-28T09:23:11Z</time>
      </trkpt>
      <trkpt lat="50.08476" lon="4.19219">
        <ele>174.6</ele>
        <time>2024-04-28T09:23:12Z</time>
      </trkpt>
      <trkpt lat="50.0847" lon="4.19216">
        <ele>174.8</ele>
        <time>2024-04-28T09:23:13Z</time>
      </trkpt>
      <trkpt lat="50.08464" lon="4.19213">
        <ele>174.8</ele>
        <time>2024-04-28T09:23:14Z</time>
      </trkpt>
      <trkpt lat="50.08457" lon="4.19211">
        <ele>174.8</ele>
        <time>2024-04-28T09:23:15Z</time>
      </trkpt>
      <trkpt lat="50.08451" lon="4.19208">
        <ele>175</ele>
        <time>2024-04-28T09:23:16Z</time>
      </trkpt>
      <trkpt lat="50.08445" lon="4.19207">
        <ele>175</ele>
        <time>2024-04-28T09:23:17Z</time>
      </trkpt>
      <trkpt lat="50.08438" lon="4.19204">
        <ele>175</ele>
        <time>2024-04-28T09:23:18Z</time>
      </trkpt>
      <trkpt lat="50.08431" lon="4.19202">
        <ele>175.6</ele>
        <time>2024-04-28T09:23:19Z</time>
      </trkpt>
      <trkpt lat="50.08425" lon="4.19201">
        <ele>175.6</ele>
        <time>2024-04-28T09:23:20Z</time>
      </trkpt>
      <trkpt lat="50.08418" lon="4.19199">
        <ele>175.8</ele>
        <time>2024-04-28T09:23:21Z</time>
      </trkpt>
      <trkpt lat="50.08411" lon="4.19197">
        <ele>176</ele>
        <time>2024-04-28T09:23:22Z</time>
      </trkpt>
      <trkpt lat="50.08404" lon="4.19195">
        <ele>176</ele>
        <time>2024-04-28T09:23:23Z</time>
      </trkpt>
      <trkpt lat="50.08397" lon="4.19194">
        <ele>176.2</ele>
        <time>2024-04-28T09:23:24Z</time>
      </trkpt>
      <trkpt lat="50.0839" lon="4.19192">
        <ele>176.4</ele>
        <time>2024-04-28T09:23:25Z</time>
      </trkpt>
      <trkpt lat="50.08383" lon="4.1919">
        <ele>177</ele>
        <time>2024-04-28T09:23:26Z</time>
      </trkpt>
      <trkpt lat="50.08376" lon="4.19189">
        <ele>177</ele>
        <time>2024-04-28T09:23:27Z</time>
      </trkpt>
      <trkpt lat="50.08368" lon="4.19187">
        <ele>177.4</ele>
        <time>2024-04-28T09:23:28Z</time>
      </trkpt>
      <trkpt lat="50.08361" lon="4.19185">
        <ele>177.4</ele>
        <time>2024-04-28T09:23:29Z</time>
      </trkpt>
      <trkpt lat="50.08354" lon="4.19183">
        <ele>177.4</ele>
        <time>2024-04-28T09:23:30Z</time>
      </trkpt>
      <trkpt lat="50.08346" lon="4.1918">
        <ele>177.4</ele>
        <time>2024-04-28T09:23:31Z</time>
      </trkpt>
      <trkpt lat="50.08339" lon="4.19177">
        <ele>177.4</ele>
        <time>2024-04-28T09:23:32Z</time>
      </trkpt>
      <trkpt lat="50.08331" lon="4.19174">
        <ele>177.4</ele>
        <time>2024-04-28T09:23:33Z</time>
      </trkpt>
      <trkpt lat="50.08324" lon="4.1917">
        <ele>177.2</ele>
        <time>2024-04-28T09:23:34Z</time>
      </trkpt>
      <trkpt lat="50.08316" lon="4.19165">
        <ele>177.4</ele>
        <time>2024-04-28T09:23:35Z</time>
      </trkpt>
      <trkpt lat="50.08308" lon="4.1916">
        <ele>177.4</ele>
        <time>2024-04-28T09:23:36Z</time>
      </trkpt>
      <trkpt lat="50.08301" lon="4.19155">
        <ele>177.4</ele>
        <time>2024-04-28T09:23:37Z</time>
      </trkpt>
      <trkpt lat="50.08294" lon="4.19149">
        <ele>176.8</ele>
        <time>2024-04-28T09:23:38Z</time>
      </trkpt>
      <trkpt lat="50.08286" lon="4.19143">
        <ele>176.6</ele>
        <time>2024-04-28T09:23:39Z</time>
      </trkpt>
      <trkpt lat="50.08279" lon="4.19137">
        <ele>176.2</ele>
        <time>2024-04-28T09:23:40Z</time>
      </trkpt>
      <trkpt lat="50.08272" lon="4.19132">
        <ele>176</ele>
        <time>2024-04-28T09:23:41Z</time>
      </trkpt>
      <trkpt lat="50.08264" lon="4.19127">
        <ele>175.8</ele>
        <time>2024-04-28T09:23:42Z</time>
      </trkpt>
      <trkpt lat="50.08256" lon="4.19122">
        <ele>175</ele>
        <time>2024-04-28T09:23:43Z</time>
      </trkpt>
      <trkpt lat="50.08248" lon="4.19117">
        <ele>175</ele>
        <time>2024-04-28T09:23:44Z</time>
      </trkpt>
      <trkpt lat="50.0824" lon="4.19112">
        <ele>174.6</ele>
        <time>2024-04-28T09:23:45Z</time>
      </trkpt>
      <trkpt lat="50.08233" lon="4.19107">
        <ele>174.6</ele>
        <time>2024-04-28T09:23:46Z</time>
      </trkpt>
      <trkpt lat="50.08225" lon="4.19103">
        <ele>174.2</ele>
        <time>2024-04-28T09:23:47Z</time>
      </trkpt>
      <trkpt lat="50.08217" lon="4.19098">
        <ele>174.2</ele>
        <time>2024-04-28T09:23:48Z</time>
      </trkpt>
      <trkpt lat="50.08209" lon="4.19093">
        <ele>174</ele>
        <time>2024-04-28T09:23:49Z</time>
      </trkpt>
      <trkpt lat="50.08201" lon="4.19089">
        <ele>173.8</ele>
        <time>2024-04-28T09:23:50Z</time>
      </trkpt>
      <trkpt lat="50.08192" lon="4.19085">
        <ele>173.4</ele>
        <time>2024-04-28T09:23:51Z</time>
      </trkpt>
      <trkpt lat="50.08184" lon="4.19081">
        <ele>173.4</ele>
        <time>2024-04-28T09:23:52Z</time>
      </trkpt>
      <trkpt lat="50.08175" lon="4.19078">
        <ele>173.2</ele>
        <time>2024-04-28T09:23:53Z</time>
      </trkpt>
      <trkpt lat="50.08166" lon="4.19075">
        <ele>173</ele>
        <time>2024-04-28T09:23:54Z</time>
      </trkpt>
      <trkpt lat="50.08157" lon="4.19074">
        <ele>173</ele>
        <time>2024-04-28T09:23:55Z</time>
      </trkpt>
      <trkpt lat="50.08148" lon="4.19073">
        <ele>172.8</ele>
        <time>2024-04-28T09:23:56Z</time>
      </trkpt>
      <trkpt lat="50.08139" lon="4.19074">
        <ele>172.8</ele>
        <time>2024-04-28T09:23:57Z</time>
      </trkpt>
      <trkpt lat="50.0813" lon="4.19075">
        <ele>172.6</ele>
        <time>2024-04-28T09:23:58Z</time>
      </trkpt>
      <trkpt lat="50.08121" lon="4.19076">
        <ele>172.2</ele>
        <time>2024-04-28T09:23:59Z</time>
      </trkpt>
      <trkpt lat="50.08113" lon="4.19077">
        <ele>171.8</ele>
        <time>2024-04-28T09:24:00Z</time>
      </trkpt>
      <trkpt lat="50.08104" lon="4.19078">
        <ele>171.8</ele>
        <time>2024-04-28T09:24:01Z</time>
      </trkpt>
      <trkpt lat="50.08096" lon="4.1908">
        <ele>171.2</ele>
        <time>2024-04-28T09:24:02Z</time>
      </trkpt>
      <trkpt lat="50.08087" lon="4.19081">
        <ele>170.8</ele>
        <time>2024-04-28T09:24:03Z</time>
      </trkpt>
      <trkpt lat="50.08079" lon="4.19082">
        <ele>170.8</ele>
        <time>2024-04-28T09:24:04Z</time>
      </trkpt>
      <trkpt lat="50.08071" lon="4.19083">
        <ele>170.8</ele>
        <time>2024-04-28T09:24:05Z</time>
      </trkpt>
      <trkpt lat="50.08064" lon="4.19084">
        <ele>170.6</ele>
        <time>2024-04-28T09:24:06Z</time>
      </trkpt>
      <trkpt lat="50.08056" lon="4.19084">
        <ele>170.6</ele>
        <time>2024-04-28T09:24:07Z</time>
      </trkpt>
      <trkpt lat="50.08049" lon="4.19085">
        <ele>170.6</ele>
        <time>2024-04-28T09:24:08Z</time>
      </trkpt>
      <trkpt lat="50.08042" lon="4.19086">
        <ele>170.4</ele>
        <time>2024-04-28T09:24:09Z</time>
      </trkpt>
      <trkpt lat="50.08035" lon="4.19088">
        <ele>170.4</ele>
        <time>2024-04-28T09:24:10Z</time>
      </trkpt>
      <trkpt lat="50.08028" lon="4.1909">
        <ele>170.4</ele>
        <time>2024-04-28T09:24:11Z</time>
      </trkpt>
      <trkpt lat="50.08021" lon="4.19092">
        <ele>170.6</ele>
        <time>2024-04-28T09:24:12Z</time>
      </trkpt>
      <trkpt lat="50.08013" lon="4.19095">
        <ele>170.6</ele>
        <time>2024-04-28T09:24:13Z</time>
      </trkpt>
      <trkpt lat="50.08006" lon="4.19097">
        <ele>170.4</ele>
        <time>2024-04-28T09:24:14Z</time>
      </trkpt>
      <trkpt lat="50.07998" lon="4.191">
        <ele>170.4</ele>
        <time>2024-04-28T09:24:15Z</time>
      </trkpt>
      <trkpt lat="50.07991" lon="4.19102">
        <ele>170.6</ele>
        <time>2024-04-28T09:24:16Z</time>
      </trkpt>
      <trkpt lat="50.07984" lon="4.19105">
        <ele>170.6</ele>
        <time>2024-04-28T09:24:17Z</time>
      </trkpt>
      <trkpt lat="50.07976" lon="4.19108">
        <ele>170.6</ele>
        <time>2024-04-28T09:24:18Z</time>
      </trkpt>
      <trkpt lat="50.07969" lon="4.19112">
        <ele>170.6</ele>
        <time>2024-04-28T09:24:19Z</time>
      </trkpt>
      <trkpt lat="50.07962" lon="4.19116">
        <ele>170.6</ele>
        <time>2024-04-28T09:24:20Z</time>
      </trkpt>
      <trkpt lat="50.07954" lon="4.1912">
        <ele>170.6</ele>
        <time>2024-04-28T09:24:21Z</time>
      </trkpt>
      <trkpt lat="50.07947" lon="4.19124">
        <ele>171</ele>
        <time>2024-04-28T09:24:22Z</time>
      </trkpt>
      <trkpt lat="50.0794" lon="4.19129">
        <ele>170.8</ele>
        <time>2024-04-28T09:24:23Z</time>
      </trkpt>
      <trkpt lat="50.07933" lon="4.19133">
        <ele>171</ele>
        <time>2024-04-28T09:24:24Z</time>
      </trkpt>
      <trkpt lat="50.07927" lon="4.19138">
        <ele>171</ele>
        <time>2024-04-28T09:24:25Z</time>
      </trkpt>
      <trkpt lat="50.0792" lon="4.19142">
        <ele>171</ele>
        <time>2024-04-28T09:24:26Z</time>
      </trkpt>
      <trkpt lat="50.07913" lon="4.19147">
        <ele>171.2</ele>
        <time>2024-04-28T09:24:27Z</time>
      </trkpt>
      <trkpt lat="50.07906" lon="4.19151">
        <ele>171.2</ele>
        <time>2024-04-28T09:24:28Z</time>
      </trkpt>
      <trkpt lat="50.079" lon="4.19156">
        <ele>171.2</ele>
        <time>2024-04-28T09:24:29Z</time>
      </trkpt>
      <trkpt lat="50.07893" lon="4.1916">
        <ele>171.2</ele>
        <time>2024-04-28T09:24:30Z</time>
      </trkpt>
      <trkpt lat="50.07887" lon="4.19164">
        <ele>171.2</ele>
        <time>2024-04-28T09:24:31Z</time>
      </trkpt>
      <trkpt lat="50.0788" lon="4.19168">
        <ele>171.4</ele>
        <time>2024-04-28T09:24:32Z</time>
      </trkpt>
      <trkpt lat="50.07874" lon="4.19173">
        <ele>171.4</ele>
        <time>2024-04-28T09:24:33Z</time>
      </trkpt>
      <trkpt lat="50.07867" lon="4.19177">
        <ele>171.6</ele>
        <time>2024-04-28T09:24:34Z</time>
      </trkpt>
      <trkpt lat="50.07861" lon="4.19181">
        <ele>171.6</ele>
        <time>2024-04-28T09:24:35Z</time>
      </trkpt>
      <trkpt lat="50.07854" lon="4.19185">
        <ele>171.6</ele>
        <time>2024-04-28T09:24:36Z</time>
      </trkpt>
      <trkpt lat="50.07848" lon="4.1919">
        <ele>171.8</ele>
        <time>2024-04-28T09:24:37Z</time>
      </trkpt>
      <trkpt lat="50.07841" lon="4.19195">
        <ele>171.8</ele>
        <time>2024-04-28T09:24:38Z</time>
      </trkpt>
      <trkpt lat="50.07835" lon="4.192">
        <ele>172</ele>
        <time>2024-04-28T09:24:39Z</time>
      </trkpt>
      <trkpt lat="50.07829" lon="4.19205">
        <ele>171.8</ele>
        <time>2024-04-28T09:24:40Z</time>
      </trkpt>
      <trkpt lat="50.07822" lon="4.1921">
        <ele>172</ele>
        <time>2024-04-28T09:24:41Z</time>
      </trkpt>
      <trkpt lat="50.07816" lon="4.19215">
        <ele>172.2</ele>
        <time>2024-04-28T09:24:42Z</time>
      </trkpt>
      <trkpt lat="50.0781" lon="4.1922">
        <ele>172.2</ele>
        <time>2024-04-28T09:24:43Z</time>
      </trkpt>
      <trkpt lat="50.07803" lon="4.19225">
        <ele>172.6</ele>
        <time>2024-04-28T09:24:44Z</time>
      </trkpt>
      <trkpt lat="50.07797" lon="4.19231">
        <ele>172.8</ele>
        <time>2024-04-28T09:24:45Z</time>
      </trkpt>
      <trkpt lat="50.0779" lon="4.19236">
        <ele>173</ele>
        <time>2024-04-28T09:24:46Z</time>
      </trkpt>
      <trkpt lat="50.07784" lon="4.19241">
        <ele>173.2</ele>
        <time>2024-04-28T09:24:47Z</time>
      </trkpt>
      <trkpt lat="50.07777" lon="4.19246">
        <ele>173.4</ele>
        <time>2024-04-28T09:24:48Z</time>
      </trkpt>
      <trkpt lat="50.07771" lon="4.19251">
        <ele>173.6</ele>
        <time>2024-04-28T09:24:49Z</time>
      </trkpt>
      <trkpt lat="50.07765" lon="4.19256">
        <ele>173.6</ele>
        <time>2024-04-28T09:24:50Z</time>
      </trkpt>
      <trkpt lat="50.07758" lon="4.1926">
        <ele>173.8</ele>
        <time>2024-04-28T09:24:51Z</time>
      </trkpt>
      <trkpt lat="50.07752" lon="4.19265">
        <ele>174.2</ele>
        <time>2024-04-28T09:24:52Z</time>
      </trkpt>
      <trkpt lat="50.07746" lon="4.19269">
        <ele>174.2</ele>
        <time>2024-04-28T09:24:53Z</time>
      </trkpt>
      <trkpt lat="50.07739" lon="4.19273">
        <ele>174.2</ele>
        <time>2024-04-28T09:24:54Z</time>
      </trkpt>
      <trkpt lat="50.07733" lon="4.19277">
        <ele>174.6</ele>
        <time>2024-04-28T09:24:55Z</time>
      </trkpt>
      <trkpt lat="50.07726" lon="4.19281">
        <ele>174.6</ele>
        <time>2024-04-28T09:24:56Z</time>
      </trkpt>
      <trkpt lat="50.07719" lon="4.19285">
        <ele>174.8</ele>
        <time>2024-04-28T09:24:57Z</time>
      </trkpt>
      <trkpt lat="50.07712" lon="4.19289">
        <ele>174.8</ele>
        <time>2024-04-28T09:24:58Z</time>
      </trkpt>
      <trkpt lat="50.07705" lon="4.19293">
        <ele>174.8</ele>
        <time>2024-04-28T09:24:59Z</time>
      </trkpt>
      <trkpt lat="50.07697" lon="4.19297">
        <ele>174.8</ele>
        <time>2024-04-28T09:25:00Z</time>
      </trkpt>
      <trkpt lat="50.0769" lon="4.19302">
        <ele>174.8</ele>
        <time>2024-04-28T09:25:01Z</time>
      </trkpt>
      <trkpt lat="50.07682" lon="4.19308">
        <ele>174.6</ele>
        <time>2024-04-28T09:25:02Z</time>
      </trkpt>
      <trkpt lat="50.07675" lon="4.19313">
        <ele>174.4</ele>
        <time>2024-04-28T09:25:03Z</time>
      </trkpt>
      <trkpt lat="50.07667" lon="4.19319">
        <ele>174.6</ele>
        <time>2024-04-28T09:25:04Z</time>
      </trkpt>
      <trkpt lat="50.0766" lon="4.19326">
        <ele>174.4</ele>
        <time>2024-04-28T09:25:05Z</time>
      </trkpt>
      <trkpt lat="50.07652" lon="4.19332">
        <ele>174</ele>
        <time>2024-04-28T09:25:06Z</time>
      </trkpt>
      <trkpt lat="50.07645" lon="4.19339">
        <ele>173.8</ele>
        <time>2024-04-28T09:25:07Z</time>
      </trkpt>
      <trkpt lat="50.07637" lon="4.19346">
        <ele>173.8</ele>
        <time>2024-04-28T09:25:08Z</time>
      </trkpt>
      <trkpt lat="50.07628" lon="4.19352">
        <ele>173.8</ele>
        <time>2024-04-28T09:25:09Z</time>
      </trkpt>
      <trkpt lat="50.0762" lon="4.19359">
        <ele>173</ele>
        <time>2024-04-28T09:25:10Z</time>
      </trkpt>
      <trkpt lat="50.07612" lon="4.19365">
        <ele>172.2</ele>
        <time>2024-04-28T09:25:11Z</time>
      </trkpt>
      <trkpt lat="50.07604" lon="4.19372">
        <ele>171.6</ele>
        <time>2024-04-28T09:25:12Z</time>
      </trkpt>
      <trkpt lat="50.07596" lon="4.1938">
        <ele>170.8</ele>
        <time>2024-04-28T09:25:13Z</time>
      </trkpt>
      <trkpt lat="50.07589" lon="4.19388">
        <ele>170.2</ele>
        <time>2024-04-28T09:25:14Z</time>
      </trkpt>
      <trkpt lat="50.07582" lon="4.19398">
        <ele>170</ele>
        <time>2024-04-28T09:25:15Z</time>
      </trkpt>
      <trkpt lat="50.07575" lon="4.19409">
        <ele>169.4</ele>
        <time>2024-04-28T09:25:16Z</time>
      </trkpt>
      <trkpt lat="50.0757" lon="4.1942">
        <ele>169.4</ele>
        <time>2024-04-28T09:25:17Z</time>
      </trkpt>
      <trkpt lat="50.07565" lon="4.19431">
        <ele>169.2</ele>
        <time>2024-04-28T09:25:18Z</time>
      </trkpt>
      <trkpt lat="50.0756" lon="4.19442">
        <ele>169.2</ele>
        <time>2024-04-28T09:25:19Z</time>
      </trkpt>
      <trkpt lat="50.07556" lon="4.19453">
        <ele>169</ele>
        <time>2024-04-28T09:25:20Z</time>
      </trkpt>
      <trkpt lat="50.07552" lon="4.19465">
        <ele>169</ele>
        <time>2024-04-28T09:25:21Z</time>
      </trkpt>
      <trkpt lat="50.07548" lon="4.19476">
        <ele>169.2</ele>
        <time>2024-04-28T09:25:22Z</time>
      </trkpt>
      <trkpt lat="50.07544" lon="4.19488">
        <ele>169</ele>
        <time>2024-04-28T09:25:23Z</time>
      </trkpt>
      <trkpt lat="50.0754" lon="4.195">
        <ele>169</ele>
        <time>2024-04-28T09:25:24Z</time>
      </trkpt>
      <trkpt lat="50.07536" lon="4.19512">
        <ele>169</ele>
        <time>2024-04-28T09:25:25Z</time>
      </trkpt>
      <trkpt lat="50.07531" lon="4.19523">
        <ele>168.6</ele>
        <time>2024-04-28T09:25:26Z</time>
      </trkpt>
      <trkpt lat="50.07526" lon="4.19533">
        <ele>168.6</ele>
        <time>2024-04-28T09:25:27Z</time>
      </trkpt>
      <trkpt lat="50.0752" lon="4.19542">
        <ele>168.4</ele>
        <time>2024-04-28T09:25:28Z</time>
      </trkpt>
      <trkpt lat="50.07514" lon="4.19549">
        <ele>168.4</ele>
        <time>2024-04-28T09:25:29Z</time>
      </trkpt>
      <trkpt lat="50.07507" lon="4.19555">
        <ele>168.4</ele>
        <time>2024-04-28T09:25:30Z</time>
      </trkpt>
      <trkpt lat="50.07499" lon="4.19559">
        <ele>168.4</ele>
        <time>2024-04-28T09:25:31Z</time>
      </trkpt>
      <trkpt lat="50.07491" lon="4.19561">
        <ele>168.4</ele>
        <time>2024-04-28T09:25:32Z</time>
      </trkpt>
      <trkpt lat="50.07484" lon="4.19561">
        <ele>168.2</ele>
        <time>2024-04-28T09:25:33Z</time>
      </trkpt>
      <trkpt lat="50.07476" lon="4.19561">
        <ele>168.4</ele>
        <time>2024-04-28T09:25:34Z</time>
      </trkpt>
      <trkpt lat="50.07469" lon="4.19561">
        <ele>168.4</ele>
        <time>2024-04-28T09:25:35Z</time>
      </trkpt>
      <trkpt lat="50.07461" lon="4.1956">
        <ele>168.2</ele>
        <time>2024-04-28T09:25:36Z</time>
      </trkpt>
      <trkpt lat="50.07454" lon="4.19559">
        <ele>167.8</ele>
        <time>2024-04-28T09:25:37Z</time>
      </trkpt>
      <trkpt lat="50.07447" lon="4.19557">
        <ele>167.8</ele>
        <time>2024-04-28T09:25:38Z</time>
      </trkpt>
      <trkpt lat="50.07439" lon="4.19556">
        <ele>167.8</ele>
        <time>2024-04-28T09:25:39Z</time>
      </trkpt>
      <trkpt lat="50.07432" lon="4.19555">
        <ele>167.8</ele>
        <time>2024-04-28T09:25:40Z</time>
      </trkpt>
      <trkpt lat="50.07425" lon="4.19554">
        <ele>168</ele>
        <time>2024-04-28T09:25:41Z</time>
      </trkpt>
      <trkpt lat="50.07418" lon="4.19553">
        <ele>168</ele>
        <time>2024-04-28T09:25:42Z</time>
      </trkpt>
      <trkpt lat="50.07411" lon="4.19552">
        <ele>168</ele>
        <time>2024-04-28T09:25:43Z</time>
      </trkpt>
      <trkpt lat="50.07404" lon="4.19551">
        <ele>168</ele>
        <time>2024-04-28T09:25:44Z</time>
      </trkpt>
      <trkpt lat="50.07398" lon="4.1955">
        <ele>167.8</ele>
        <time>2024-04-28T09:25:45Z</time>
      </trkpt>
      <trkpt lat="50.07391" lon="4.1955">
        <ele>167.8</ele>
        <time>2024-04-28T09:25:46Z</time>
      </trkpt>
      <trkpt lat="50.07384" lon="4.1955">
        <ele>167.8</ele>
        <time>2024-04-28T09:25:47Z</time>
      </trkpt>
      <trkpt lat="50.07378" lon="4.1955">
        <ele>168.2</ele>
        <time>2024-04-28T09:25:48Z</time>
      </trkpt>
      <trkpt lat="50.07371" lon="4.1955">
        <ele>168.4</ele>
        <time>2024-04-28T09:25:49Z</time>
      </trkpt>
      <trkpt lat="50.07364" lon="4.1955">
        <ele>168.4</ele>
        <time>2024-04-28T09:25:50Z</time>
      </trkpt>
      <trkpt lat="50.07358" lon="4.19551">
        <ele>169.2</ele>
        <time>2024-04-28T09:25:51Z</time>
      </trkpt>
      <trkpt lat="50.07351" lon="4.19552">
        <ele>169.4</ele>
        <time>2024-04-28T09:25:52Z</time>
      </trkpt>
      <trkpt lat="50.07345" lon="4.19552">
        <ele>169.6</ele>
        <time>2024-04-28T09:25:53Z</time>
      </trkpt>
      <trkpt lat="50.07338" lon="4.19553">
        <ele>169.8</ele>
        <time>2024-04-28T09:25:54Z</time>
      </trkpt>
      <trkpt lat="50.07332" lon="4.19554">
        <ele>170.2</ele>
        <time>2024-04-28T09:25:55Z</time>
      </trkpt>
      <trkpt lat="50.07325" lon="4.19555">
        <ele>170.6</ele>
        <time>2024-04-28T09:25:56Z</time>
      </trkpt>
      <trkpt lat="50.07318" lon="4.19555">
        <ele>170.6</ele>
        <time>2024-04-28T09:25:57Z</time>
      </trkpt>
      <trkpt lat="50.07311" lon="4.19555">
        <ele>170.6</ele>
        <time>2024-04-28T09:25:58Z</time>
      </trkpt>
      <trkpt lat="50.07305" lon="4.19555">
        <ele>170.8</ele>
        <time>2024-04-28T09:25:59Z</time>
      </trkpt>
      <trkpt lat="50.07298" lon="4.19556">
        <ele>170.8</ele>
        <time>2024-04-28T09:26:00Z</time>
      </trkpt>
      <trkpt lat="50.07291" lon="4.19556">
        <ele>170.8</ele>
        <time>2024-04-28T09:26:01Z</time>
      </trkpt>
      <trkpt lat="50.07285" lon="4.19557">
        <ele>171</ele>
        <time>2024-04-28T09:26:02Z</time>
      </trkpt>
      <trkpt lat="50.07279" lon="4.19557">
        <ele>171.2</ele>
        <time>2024-04-28T09:26:03Z</time>
      </trkpt>
      <trkpt lat="50.07272" lon="4.19558">
        <ele>171.4</ele>
        <time>2024-04-28T09:26:04Z</time>
      </trkpt>
      <trkpt lat="50.07266" lon="4.19559">
        <ele>171.6</ele>
        <time>2024-04-28T09:26:05Z</time>
      </trkpt>
      <trkpt lat="50.0726" lon="4.1956">
        <ele>171.8</ele>
        <time>2024-04-28T09:26:06Z</time>
      </trkpt>
      <trkpt lat="50.07253" lon="4.1956">
        <ele>172</ele>
        <time>2024-04-28T09:26:07Z</time>
      </trkpt>
      <trkpt lat="50.07246" lon="4.19561">
        <ele>171.8</ele>
        <time>2024-04-28T09:26:08Z</time>
      </trkpt>
      <trkpt lat="50.07239" lon="4.19562">
        <ele>172</ele>
        <time>2024-04-28T09:26:09Z</time>
      </trkpt>
      <trkpt lat="50.07232" lon="4.19562">
        <ele>172.2</ele>
        <time>2024-04-28T09:26:10Z</time>
      </trkpt>
      <trkpt lat="50.07225" lon="4.19563">
        <ele>172.4</ele>
        <time>2024-04-28T09:26:11Z</time>
      </trkpt>
      <trkpt lat="50.07218" lon="4.19564">
        <ele>172.4</ele>
        <time>2024-04-28T09:26:12Z</time>
      </trkpt>
      <trkpt lat="50.07211" lon="4.19564">
        <ele>172.6</ele>
        <time>2024-04-28T09:26:13Z</time>
      </trkpt>
      <trkpt lat="50.07204" lon="4.19565">
        <ele>172.6</ele>
        <time>2024-04-28T09:26:14Z</time>
      </trkpt>
      <trkpt lat="50.07197" lon="4.19566">
        <ele>173.2</ele>
        <time>2024-04-28T09:26:15Z</time>
      </trkpt>
      <trkpt lat="50.07189" lon="4.19567">
        <ele>173.4</ele>
        <time>2024-04-28T09:26:16Z</time>
      </trkpt>
      <trkpt lat="50.07182" lon="4.19568">
        <ele>173.4</ele>
        <time>2024-04-28T09:26:17Z</time>
      </trkpt>
      <trkpt lat="50.07176" lon="4.19569">
        <ele>173.6</ele>
        <time>2024-04-28T09:26:18Z</time>
      </trkpt>
      <trkpt lat="50.07169" lon="4.19569">
        <ele>173.6</ele>
        <time>2024-04-28T09:26:19Z</time>
      </trkpt>
      <trkpt lat="50.07162" lon="4.1957">
        <ele>173.8</ele>
        <time>2024-04-28T09:26:20Z</time>
      </trkpt>
      <trkpt lat="50.07155" lon="4.19571">
        <ele>173.8</ele>
        <time>2024-04-28T09:26:21Z</time>
      </trkpt>
      <trkpt lat="50.07148" lon="4.19572">
        <ele>173.6</ele>
        <time>2024-04-28T09:26:22Z</time>
      </trkpt>
      <trkpt lat="50.07141" lon="4.19574">
        <ele>173.8</ele>
        <time>2024-04-28T09:26:23Z</time>
      </trkpt>
      <trkpt lat="50.07134" lon="4.19575">
        <ele>174</ele>
        <time>2024-04-28T09:26:24Z</time>
      </trkpt>
      <trkpt lat="50.07127" lon="4.19576">
        <ele>174</ele>
        <time>2024-04-28T09:26:25Z</time>
      </trkpt>
      <trkpt lat="50.0712" lon="4.19577">
        <ele>174.2</ele>
        <time>2024-04-28T09:26:26Z</time>
      </trkpt>
      <trkpt lat="50.07112" lon="4.19578">
        <ele>174.2</ele>
        <time>2024-04-28T09:26:27Z</time>
      </trkpt>
      <trkpt lat="50.07105" lon="4.19579">
        <ele>174.4</ele>
        <time>2024-04-28T09:26:28Z</time>
      </trkpt>
      <trkpt lat="50.07098" lon="4.19581">
        <ele>174.4</ele>
        <time>2024-04-28T09:26:29Z</time>
      </trkpt>
      <trkpt lat="50.0709" lon="4.19582">
        <ele>174.4</ele>
        <time>2024-04-28T09:26:30Z</time>
      </trkpt>
      <trkpt lat="50.07083" lon="4.19584">
        <ele>174.4</ele>
        <time>2024-04-28T09:26:31Z</time>
      </trkpt>
      <trkpt lat="50.07076" lon="4.19585">
        <ele>174.6</ele>
        <time>2024-04-28T09:26:32Z</time>
      </trkpt>
      <trkpt lat="50.07069" lon="4.19587">
        <ele>174.6</ele>
        <time>2024-04-28T09:26:33Z</time>
      </trkpt>
      <trkpt lat="50.07062" lon="4.19588">
        <ele>175</ele>
        <time>2024-04-28T09:26:34Z</time>
      </trkpt>
      <trkpt lat="50.07055" lon="4.1959">
        <ele>175.2</ele>
        <time>2024-04-28T09:26:35Z</time>
      </trkpt>
      <trkpt lat="50.07047" lon="4.19591">
        <ele>175.4</ele>
        <time>2024-04-28T09:26:36Z</time>
      </trkpt>
      <trkpt lat="50.0704" lon="4.19592">
        <ele>175.2</ele>
        <time>2024-04-28T09:26:37Z</time>
      </trkpt>
      <trkpt lat="50.07032" lon="4.19594">
        <ele>175.6</ele>
        <time>2024-04-28T09:26:38Z</time>
      </trkpt>
      <trkpt lat="50.07025" lon="4.19595">
        <ele>175.8</ele>
        <time>2024-04-28T09:26:39Z</time>
      </trkpt>
      <trkpt lat="50.07017" lon="4.19597">
        <ele>175.6</ele>
        <time>2024-04-28T09:26:40Z</time>
      </trkpt>
      <trkpt lat="50.07009" lon="4.19598">
        <ele>175.8</ele>
        <time>2024-04-28T09:26:41Z</time>
      </trkpt>
      <trkpt lat="50.07002" lon="4.19599">
        <ele>175.8</ele>
        <time>2024-04-28T09:26:42Z</time>
      </trkpt>
      <trkpt lat="50.06994" lon="4.196">
        <ele>176</ele>
        <time>2024-04-28T09:26:43Z</time>
      </trkpt>
      <trkpt lat="50.06986" lon="4.19601">
        <ele>176</ele>
        <time>2024-04-28T09:26:44Z</time>
      </trkpt>
      <trkpt lat="50.06979" lon="4.19603">
        <ele>176</ele>
        <time>2024-04-28T09:26:45Z</time>
      </trkpt>
      <trkpt lat="50.06971" lon="4.19604">
        <ele>176</ele>
        <time>2024-04-28T09:26:46Z</time>
      </trkpt>
      <trkpt lat="50.06963" lon="4.19604">
        <ele>176.6</ele>
        <time>2024-04-28T09:26:47Z</time>
      </trkpt>
      <trkpt lat="50.06956" lon="4.19605">
        <ele>176.6</ele>
        <time>2024-04-28T09:26:48Z</time>
      </trkpt>
      <trkpt lat="50.06948" lon="4.19606">
        <ele>176.8</ele>
        <time>2024-04-28T09:26:49Z</time>
      </trkpt>
      <trkpt lat="50.0694" lon="4.19607">
        <ele>176.6</ele>
        <time>2024-04-28T09:26:50Z</time>
      </trkpt>
      <trkpt lat="50.06933" lon="4.19607">
        <ele>176.8</ele>
        <time>2024-04-28T09:26:51Z</time>
      </trkpt>
      <trkpt lat="50.06925" lon="4.19607">
        <ele>176.8</ele>
        <time>2024-04-28T09:26:52Z</time>
      </trkpt>
      <trkpt lat="50.06917" lon="4.19607">
        <ele>176.8</ele>
        <time>2024-04-28T09:26:53Z</time>
      </trkpt>
      <trkpt lat="50.0691" lon="4.19606">
        <ele>176.8</ele>
        <time>2024-04-28T09:26:54Z</time>
      </trkpt>
      <trkpt lat="50.06902" lon="4.19605">
        <ele>176.8</ele>
        <time>2024-04-28T09:26:55Z</time>
      </trkpt>
      <trkpt lat="50.06894" lon="4.19603">
        <ele>177</ele>
        <time>2024-04-28T09:26:56Z</time>
      </trkpt>
      <trkpt lat="50.06887" lon="4.19602">
        <ele>177.2</ele>
        <time>2024-04-28T09:26:57Z</time>
      </trkpt>
      <trkpt lat="50.0688" lon="4.19599">
        <ele>177.2</ele>
        <time>2024-04-28T09:26:58Z</time>
      </trkpt>
      <trkpt lat="50.06872" lon="4.19597">
        <ele>177.2</ele>
        <time>2024-04-28T09:26:59Z</time>
      </trkpt>
      <trkpt lat="50.06865" lon="4.19594">
        <ele>177.4</ele>
        <time>2024-04-28T09:27:00Z</time>
      </trkpt>
      <trkpt lat="50.06858" lon="4.19591">
        <ele>177.4</ele>
        <time>2024-04-28T09:27:01Z</time>
      </trkpt>
      <trkpt lat="50.06852" lon="4.19589">
        <ele>177.4</ele>
        <time>2024-04-28T09:27:02Z</time>
      </trkpt>
      <trkpt lat="50.06845" lon="4.19586">
        <ele>177.4</ele>
        <time>2024-04-28T09:27:03Z</time>
      </trkpt>
      <trkpt lat="50.06838" lon="4.19583">
        <ele>177.6</ele>
        <time>2024-04-28T09:27:04Z</time>
      </trkpt>
      <trkpt lat="50.06832" lon="4.19581">
        <ele>177.4</ele>
        <time>2024-04-28T09:27:05Z</time>
      </trkpt>
      <trkpt lat="50.06825" lon="4.19578">
        <ele>177.6</ele>
        <time>2024-04-28T09:27:06Z</time>
      </trkpt>
      <trkpt lat="50.06819" lon="4.19576">
        <ele>177.8</ele>
        <time>2024-04-28T09:27:07Z</time>
      </trkpt>
      <trkpt lat="50.06813" lon="4.19574">
        <ele>177.8</ele>
        <time>2024-04-28T09:27:08Z</time>
      </trkpt>
      <trkpt lat="50.06806" lon="4.19571">
        <ele>177.8</ele>
        <time>2024-04-28T09:27:09Z</time>
      </trkpt>
      <trkpt lat="50.068" lon="4.19569">
        <ele>177.8</ele>
        <time>2024-04-28T09:27:10Z</time>
      </trkpt>
      <trkpt lat="50.06794" lon="4.19567">
        <ele>178</ele>
        <time>2024-04-28T09:27:11Z</time>
      </trkpt>
      <trkpt lat="50.06787" lon="4.19564">
        <ele>178</ele>
        <time>2024-04-28T09:27:12Z</time>
      </trkpt>
      <trkpt lat="50.06781" lon="4.19562">
        <ele>178.2</ele>
        <time>2024-04-28T09:27:13Z</time>
      </trkpt>
      <trkpt lat="50.06774" lon="4.19559">
        <ele>178.2</ele>
        <time>2024-04-28T09:27:14Z</time>
      </trkpt>
      <trkpt lat="50.06767" lon="4.19557">
        <ele>178.4</ele>
        <time>2024-04-28T09:27:15Z</time>
      </trkpt>
      <trkpt lat="50.0676" lon="4.19554">
        <ele>178.6</ele>
        <time>2024-04-28T09:27:16Z</time>
      </trkpt>
      <trkpt lat="50.06753" lon="4.19552">
        <ele>178.8</ele>
        <time>2024-04-28T09:27:17Z</time>
      </trkpt>
      <trkpt lat="50.06746" lon="4.1955">
        <ele>178.8</ele>
        <time>2024-04-28T09:27:18Z</time>
      </trkpt>
      <trkpt lat="50.06738" lon="4.19548">
        <ele>178.8</ele>
        <time>2024-04-28T09:27:19Z</time>
      </trkpt>
      <trkpt lat="50.0673" lon="4.19546">
        <ele>178.8</ele>
        <time>2024-04-28T09:27:20Z</time>
      </trkpt>
      <trkpt lat="50.06723" lon="4.19544">
        <ele>178.8</ele>
        <time>2024-04-28T09:27:21Z</time>
      </trkpt>
      <trkpt lat="50.06715" lon="4.19542">
        <ele>178.8</ele>
        <time>2024-04-28T09:27:22Z</time>
      </trkpt>
      <trkpt lat="50.06707" lon="4.19541">
        <ele>178.8</ele>
        <time>2024-04-28T09:27:23Z</time>
      </trkpt>
      <trkpt lat="50.06699" lon="4.1954">
        <ele>178.8</ele>
        <time>2024-04-28T09:27:24Z</time>
      </trkpt>
      <trkpt lat="50.06691" lon="4.1954">
        <ele>178.8</ele>
        <time>2024-04-28T09:27:25Z</time>
      </trkpt>
      <trkpt lat="50.06683" lon="4.1954">
        <ele>178.8</ele>
        <time>2024-04-28T09:27:26Z</time>
      </trkpt>
      <trkpt lat="50.06675" lon="4.19541">
        <ele>178.8</ele>
        <time>2024-04-28T09:27:27Z</time>
      </trkpt>
      <trkpt lat="50.06667" lon="4.19541">
        <ele>178.6</ele>
        <time>2024-04-28T09:27:28Z</time>
      </trkpt>
      <trkpt lat="50.06659" lon="4.19541">
        <ele>178.4</ele>
        <time>2024-04-28T09:27:29Z</time>
      </trkpt>
      <trkpt lat="50.06651" lon="4.19542">
        <ele>178.2</ele>
        <time>2024-04-28T09:27:30Z</time>
      </trkpt>
      <trkpt lat="50.06643" lon="4.19542">
        <ele>178</ele>
        <time>2024-04-28T09:27:31Z</time>
      </trkpt>
      <trkpt lat="50.06634" lon="4.19542">
        <ele>177.8</ele>
        <time>2024-04-28T09:27:32Z</time>
      </trkpt>
      <trkpt lat="50.06626" lon="4.19543">
        <ele>177.8</ele>
        <time>2024-04-28T09:27:33Z</time>
      </trkpt>
      <trkpt lat="50.06618" lon="4.19543">
        <ele>177.8</ele>
        <time>2024-04-28T09:27:34Z</time>
      </trkpt>
      <trkpt lat="50.0661" lon="4.19543">
        <ele>177.6</ele>
        <time>2024-04-28T09:27:35Z</time>
      </trkpt>
      <trkpt lat="50.06601" lon="4.19544">
        <ele>177.6</ele>
        <time>2024-04-28T09:27:36Z</time>
      </trkpt>
      <trkpt lat="50.06594" lon="4.19544">
        <ele>177.2</ele>
        <time>2024-04-28T09:27:37Z</time>
      </trkpt>
      <trkpt lat="50.06586" lon="4.19544">
        <ele>177.2</ele>
        <time>2024-04-28T09:27:38Z</time>
      </trkpt>
      <trkpt lat="50.06578" lon="4.19544">
        <ele>177</ele>
        <time>2024-04-28T09:27:39Z</time>
      </trkpt>
      <trkpt lat="50.0657" lon="4.19545">
        <ele>177</ele>
        <time>2024-04-28T09:27:40Z</time>
      </trkpt>
      <trkpt lat="50.06562" lon="4.19546">
        <ele>176.8</ele>
        <time>2024-04-28T09:27:41Z</time>
      </trkpt>
      <trkpt lat="50.06555" lon="4.19546">
        <ele>177</ele>
        <time>2024-04-28T09:27:42Z</time>
      </trkpt>
      <trkpt lat="50.06547" lon="4.19546">
        <ele>176.8</ele>
        <time>2024-04-28T09:27:43Z</time>
      </trkpt>
      <trkpt lat="50.0654" lon="4.19546">
        <ele>176.8</ele>
        <time>2024-04-28T09:27:44Z</time>
      </trkpt>
      <trkpt lat="50.06533" lon="4.19547">
        <ele>176.6</ele>
        <time>2024-04-28T09:27:45Z</time>
      </trkpt>
      <trkpt lat="50.06527" lon="4.19547">
        <ele>176.4</ele>
        <time>2024-04-28T09:27:46Z</time>
      </trkpt>
      <trkpt lat="50.0652" lon="4.19546">
        <ele>176.4</ele>
        <time>2024-04-28T09:27:47Z</time>
      </trkpt>
      <trkpt lat="50.06514" lon="4.19546">
        <ele>176.4</ele>
        <time>2024-04-28T09:27:48Z</time>
      </trkpt>
      <trkpt lat="50.06508" lon="4.19546">
        <ele>176.4</ele>
        <time>2024-04-28T09:27:49Z</time>
      </trkpt>
      <trkpt lat="50.06503" lon="4.19547">
        <ele>176.6</ele>
        <time>2024-04-28T09:27:50Z</time>
      </trkpt>
      <trkpt lat="50.06497" lon="4.1955">
        <ele>176.6</ele>
        <time>2024-04-28T09:27:51Z</time>
      </trkpt>
      <trkpt lat="50.06491" lon="4.19555">
        <ele>176.6</ele>
        <time>2024-04-28T09:27:52Z</time>
      </trkpt>
      <trkpt lat="50.06485" lon="4.19561">
        <ele>176.6</ele>
        <time>2024-04-28T09:27:53Z</time>
      </trkpt>
      <trkpt lat="50.0648" lon="4.19568">
        <ele>176.6</ele>
        <time>2024-04-28T09:27:54Z</time>
      </trkpt>
      <trkpt lat="50.06475" lon="4.19575">
        <ele>176.6</ele>
        <time>2024-04-28T09:27:55Z</time>
      </trkpt>
      <trkpt lat="50.0647" lon="4.19583">
        <ele>176.6</ele>
        <time>2024-04-28T09:27:56Z</time>
      </trkpt>
      <trkpt lat="50.06465" lon="4.19591">
        <ele>176.4</ele>
        <time>2024-04-28T09:27:57Z</time>
      </trkpt>
      <trkpt lat="50.06461" lon="4.196">
        <ele>176.6</ele>
        <time>2024-04-28T09:27:58Z</time>
      </trkpt>
      <trkpt lat="50.06456" lon="4.1961">
        <ele>176.8</ele>
        <time>2024-04-28T09:27:59Z</time>
      </trkpt>
      <trkpt lat="50.06452" lon="4.1962">
        <ele>177</ele>
        <time>2024-04-28T09:28:00Z</time>
      </trkpt>
      <trkpt lat="50.06449" lon="4.19631">
        <ele>176.8</ele>
        <time>2024-04-28T09:28:01Z</time>
      </trkpt>
      <trkpt lat="50.06446" lon="4.19643">
        <ele>176.8</ele>
        <time>2024-04-28T09:28:02Z</time>
      </trkpt>
      <trkpt lat="50.06445" lon="4.19656">
        <ele>176.8</ele>
        <time>2024-04-28T09:28:03Z</time>
      </trkpt>
      <trkpt lat="50.06443" lon="4.1967">
        <ele>177</ele>
        <time>2024-04-28T09:28:04Z</time>
      </trkpt>
      <trkpt lat="50.06443" lon="4.19684">
        <ele>177</ele>
        <time>2024-04-28T09:28:05Z</time>
      </trkpt>
      <trkpt lat="50.06442" lon="4.19699">
        <ele>176.8</ele>
        <time>2024-04-28T09:28:06Z</time>
      </trkpt>
      <trkpt lat="50.0644" lon="4.19714">
        <ele>176.8</ele>
        <time>2024-04-28T09:28:07Z</time>
      </trkpt>
      <trkpt lat="50.06438" lon="4.19729">
        <ele>176.8</ele>
        <time>2024-04-28T09:28:08Z</time>
      </trkpt>
      <trkpt lat="50.06436" lon="4.19744">
        <ele>176.6</ele>
        <time>2024-04-28T09:28:09Z</time>
      </trkpt>
      <trkpt lat="50.06434" lon="4.19759">
        <ele>176.6</ele>
        <time>2024-04-28T09:28:10Z</time>
      </trkpt>
      <trkpt lat="50.06431" lon="4.19773">
        <ele>176.4</ele>
        <time>2024-04-28T09:28:11Z</time>
      </trkpt>
      <trkpt lat="50.06429" lon="4.19787">
        <ele>176.4</ele>
        <time>2024-04-28T09:28:12Z</time>
      </trkpt>
      <trkpt lat="50.06426" lon="4.19801">
        <ele>175.8</ele>
        <time>2024-04-28T09:28:13Z</time>
      </trkpt>
      <trkpt lat="50.06423" lon="4.19814">
        <ele>174.6</ele>
        <time>2024-04-28T09:28:14Z</time>
      </trkpt>
      <trkpt lat="50.06421" lon="4.19827">
        <ele>174.6</ele>
        <time>2024-04-28T09:28:15Z</time>
      </trkpt>
      <trkpt lat="50.06418" lon="4.1984">
        <ele>174</ele>
        <time>2024-04-28T09:28:16Z</time>
      </trkpt>
      <trkpt lat="50.06415" lon="4.19853">
        <ele>173.6</ele>
        <time>2024-04-28T09:28:17Z</time>
      </trkpt>
      <trkpt lat="50.06413" lon="4.19865">
        <ele>173.4</ele>
        <time>2024-04-28T09:28:18Z</time>
      </trkpt>
      <trkpt lat="50.06409" lon="4.19876">
        <ele>173.4</ele>
        <time>2024-04-28T09:28:19Z</time>
      </trkpt>
      <trkpt lat="50.06403" lon="4.19885">
        <ele>173.2</ele>
        <time>2024-04-28T09:28:20Z</time>
      </trkpt>
      <trkpt lat="50.06396" lon="4.19892">
        <ele>173</ele>
        <time>2024-04-28T09:28:21Z</time>
      </trkpt>
      <trkpt lat="50.06388" lon="4.19897">
        <ele>173</ele>
        <time>2024-04-28T09:28:22Z</time>
      </trkpt>
      <trkpt lat="50.0638" lon="4.199">
        <ele>173</ele>
        <time>2024-04-28T09:28:23Z</time>
      </trkpt>
      <trkpt lat="50.06372" lon="4.19904">
        <ele>173</ele>
        <time>2024-04-28T09:28:24Z</time>
      </trkpt>
      <trkpt lat="50.06364" lon="4.19908">
        <ele>172.8</ele>
        <time>2024-04-28T09:28:25Z</time>
      </trkpt>
      <trkpt lat="50.06357" lon="4.19912">
        <ele>172.8</ele>
        <time>2024-04-28T09:28:26Z</time>
      </trkpt>
      <trkpt lat="50.0635" lon="4.19916">
        <ele>172.4</ele>
        <time>2024-04-28T09:28:27Z</time>
      </trkpt>
      <trkpt lat="50.06343" lon="4.19921">
        <ele>172.4</ele>
        <time>2024-04-28T09:28:28Z</time>
      </trkpt>
      <trkpt lat="50.06337" lon="4.19926">
        <ele>172.8</ele>
        <time>2024-04-28T09:28:29Z</time>
      </trkpt>
      <trkpt lat="50.06331" lon="4.19931">
        <ele>172.8</ele>
        <time>2024-04-28T09:28:30Z</time>
      </trkpt>
      <trkpt lat="50.06326" lon="4.19937">
        <ele>173</ele>
        <time>2024-04-28T09:28:31Z</time>
      </trkpt>
      <trkpt lat="50.06321" lon="4.19943">
        <ele>173</ele>
        <time>2024-04-28T09:28:32Z</time>
      </trkpt>
      <trkpt lat="50.06317" lon="4.1995">
        <ele>173</ele>
        <time>2024-04-28T09:28:33Z</time>
      </trkpt>
      <trkpt lat="50.06314" lon="4.19959">
        <ele>173</ele>
        <time>2024-04-28T09:28:34Z</time>
      </trkpt>
      <trkpt lat="50.06312" lon="4.19967">
        <ele>173</ele>
        <time>2024-04-28T09:28:35Z</time>
      </trkpt>
      <trkpt lat="50.06311" lon="4.19976">
        <ele>173.2</ele>
        <time>2024-04-28T09:28:36Z</time>
      </trkpt>
      <trkpt lat="50.06311" lon="4.19985">
        <ele>173</ele>
        <time>2024-04-28T09:28:37Z</time>
      </trkpt>
      <trkpt lat="50.06311" lon="4.19994">
        <ele>173.2</ele>
        <time>2024-04-28T09:28:38Z</time>
      </trkpt>
      <trkpt lat="50.06312" lon="4.20004">
        <ele>173.4</ele>
        <time>2024-04-28T09:28:39Z</time>
      </trkpt>
      <trkpt lat="50.06312" lon="4.20013">
        <ele>174</ele>
        <time>2024-04-28T09:28:40Z</time>
      </trkpt>
      <trkpt lat="50.06312" lon="4.20023">
        <ele>174.8</ele>
        <time>2024-04-28T09:28:41Z</time>
      </trkpt>
      <trkpt lat="50.06312" lon="4.20032">
        <ele>175.4</ele>
        <time>2024-04-28T09:28:42Z</time>
      </trkpt>
      <trkpt lat="50.06311" lon="4.20042">
        <ele>176.4</ele>
        <time>2024-04-28T09:28:43Z</time>
      </trkpt>
      <trkpt lat="50.06309" lon="4.20051">
        <ele>177.2</ele>
        <time>2024-04-28T09:28:44Z</time>
      </trkpt>
      <trkpt lat="50.06307" lon="4.2006">
        <ele>177.6</ele>
        <time>2024-04-28T09:28:45Z</time>
      </trkpt>
      <trkpt lat="50.06304" lon="4.20069">
        <ele>178.2</ele>
        <time>2024-04-28T09:28:46Z</time>
      </trkpt>
      <trkpt lat="50.06302" lon="4.20078">
        <ele>178.2</ele>
        <time>2024-04-28T09:28:47Z</time>
      </trkpt>
      <trkpt lat="50.063" lon="4.20088">
        <ele>178.2</ele>
        <time>2024-04-28T09:28:48Z</time>
      </trkpt>
      <trkpt lat="50.06298" lon="4.20098">
        <ele>178.6</ele>
        <time>2024-04-28T09:28:49Z</time>
      </trkpt>
      <trkpt lat="50.06297" lon="4.20109">
        <ele>179</ele>
        <time>2024-04-28T09:28:50Z</time>
      </trkpt>
      <trkpt lat="50.06297" lon="4.20119">
        <ele>179.2</ele>
        <time>2024-04-28T09:28:51Z</time>
      </trkpt>
      <trkpt lat="50.06296" lon="4.20129">
        <ele>180</ele>
        <time>2024-04-28T09:28:52Z</time>
      </trkpt>
      <trkpt lat="50.06296" lon="4.2014">
        <ele>180.4</ele>
        <time>2024-04-28T09:28:53Z</time>
      </trkpt>
      <trkpt lat="50.06295" lon="4.20149">
        <ele>180.8</ele>
        <time>2024-04-28T09:28:54Z</time>
      </trkpt>
      <trkpt lat="50.06295" lon="4.20159">
        <ele>181</ele>
        <time>2024-04-28T09:28:55Z</time>
      </trkpt>
      <trkpt lat="50.06294" lon="4.20169">
        <ele>181.6</ele>
        <time>2024-04-28T09:28:56Z</time>
      </trkpt>
      <trkpt lat="50.06293" lon="4.20179">
        <ele>181.4</ele>
        <time>2024-04-28T09:28:57Z</time>
      </trkpt>
      <trkpt lat="50.06293" lon="4.20189">
        <ele>181.6</ele>
        <time>2024-04-28T09:28:58Z</time>
      </trkpt>
      <trkpt lat="50.06293" lon="4.20198">
        <ele>182</ele>
        <time>2024-04-28T09:28:59Z</time>
      </trkpt>
      <trkpt lat="50.06293" lon="4.20207">
        <ele>182</ele>
        <time>2024-04-28T09:29:00Z</time>
      </trkpt>
      <trkpt lat="50.06293" lon="4.20217">
        <ele>182.2</ele>
        <time>2024-04-28T09:29:01Z</time>
      </trkpt>
      <trkpt lat="50.06293" lon="4.20226">
        <ele>182.2</ele>
        <time>2024-04-28T09:29:02Z</time>
      </trkpt>
      <trkpt lat="50.06292" lon="4.20236">
        <ele>182.4</ele>
        <time>2024-04-28T09:29:03Z</time>
      </trkpt>
      <trkpt lat="50.06292" lon="4.20245">
        <ele>182.4</ele>
        <time>2024-04-28T09:29:04Z</time>
      </trkpt>
      <trkpt lat="50.06291" lon="4.20255">
        <ele>182.6</ele>
        <time>2024-04-28T09:29:05Z</time>
      </trkpt>
      <trkpt lat="50.06291" lon="4.20265">
        <ele>182.4</ele>
        <time>2024-04-28T09:29:06Z</time>
      </trkpt>
      <trkpt lat="50.06291" lon="4.20275">
        <ele>182.6</ele>
        <time>2024-04-28T09:29:07Z</time>
      </trkpt>
      <trkpt lat="50.0629" lon="4.20285">
        <ele>182.8</ele>
        <time>2024-04-28T09:29:08Z</time>
      </trkpt>
      <trkpt lat="50.0629" lon="4.20295">
        <ele>182.8</ele>
        <time>2024-04-28T09:29:09Z</time>
      </trkpt>
      <trkpt lat="50.06289" lon="4.20305">
        <ele>183</ele>
        <time>2024-04-28T09:29:10Z</time>
      </trkpt>
      <trkpt lat="50.06289" lon="4.20315">
        <ele>183.2</ele>
        <time>2024-04-28T09:29:11Z</time>
      </trkpt>
      <trkpt lat="50.06289" lon="4.20325">
        <ele>183.2</ele>
        <time>2024-04-28T09:29:12Z</time>
      </trkpt>
      <trkpt lat="50.06288" lon="4.20335">
        <ele>183.4</ele>
        <time>2024-04-28T09:29:13Z</time>
      </trkpt>
      <trkpt lat="50.06288" lon="4.20345">
        <ele>183.6</ele>
        <time>2024-04-28T09:29:14Z</time>
      </trkpt>
      <trkpt lat="50.06288" lon="4.20355">
        <ele>183.8</ele>
        <time>2024-04-28T09:29:15Z</time>
      </trkpt>
      <trkpt lat="50.06288" lon="4.20365">
        <ele>183.8</ele>
        <time>2024-04-28T09:29:16Z</time>
      </trkpt>
      <trkpt lat="50.06287" lon="4.20375">
        <ele>183.8</ele>
        <time>2024-04-28T09:29:17Z</time>
      </trkpt>
      <trkpt lat="50.06287" lon="4.20385">
        <ele>183.8</ele>
        <time>2024-04-28T09:29:18Z</time>
      </trkpt>
      <trkpt lat="50.06287" lon="4.20395">
        <ele>183.8</ele>
        <time>2024-04-28T09:29:19Z</time>
      </trkpt>
      <trkpt lat="50.06287" lon="4.20405">
        <ele>183.8</ele>
        <time>2024-04-28T09:29:20Z</time>
      </trkpt>
      <trkpt lat="50.06286" lon="4.20414">
        <ele>184</ele>
        <time>2024-04-28T09:29:21Z</time>
      </trkpt>
      <trkpt lat="50.06286" lon="4.20424">
        <ele>184.2</ele>
        <time>2024-04-28T09:29:22Z</time>
      </trkpt>
      <trkpt lat="50.06286" lon="4.20434">
        <ele>184.2</ele>
        <time>2024-04-28T09:29:23Z</time>
      </trkpt>
      <trkpt lat="50.06286" lon="4.20444">
        <ele>184.4</ele>
        <time>2024-04-28T09:29:24Z</time>
      </trkpt>
      <trkpt lat="50.06285" lon="4.20454">
        <ele>184.4</ele>
        <time>2024-04-28T09:29:25Z</time>
      </trkpt>
      <trkpt lat="50.06285" lon="4.20464">
        <ele>184.2</ele>
        <time>2024-04-28T09:29:26Z</time>
      </trkpt>
      <trkpt lat="50.06284" lon="4.20474">
        <ele>184.2</ele>
        <time>2024-04-28T09:29:27Z</time>
      </trkpt>
      <trkpt lat="50.06284" lon="4.20485">
        <ele>184.2</ele>
        <time>2024-04-28T09:29:28Z</time>
      </trkpt>
      <trkpt lat="50.06284" lon="4.20495">
        <ele>184.2</ele>
        <time>2024-04-28T09:29:29Z</time>
      </trkpt>
      <trkpt lat="50.06284" lon="4.20506">
        <ele>184.2</ele>
        <time>2024-04-28T09:29:30Z</time>
      </trkpt>
      <trkpt lat="50.06284" lon="4.20516">
        <ele>184.4</ele>
        <time>2024-04-28T09:29:31Z</time>
      </trkpt>
      <trkpt lat="50.06283" lon="4.20527">
        <ele>184.2</ele>
        <time>2024-04-28T09:29:32Z</time>
      </trkpt>
      <trkpt lat="50.06283" lon="4.20538">
        <ele>184.4</ele>
        <time>2024-04-28T09:29:33Z</time>
      </trkpt>
      <trkpt lat="50.06283" lon="4.20549">
        <ele>184.4</ele>
        <time>2024-04-28T09:29:34Z</time>
      </trkpt>
      <trkpt lat="50.06284" lon="4.2056">
        <ele>184.4</ele>
        <time>2024-04-28T09:29:35Z</time>
      </trkpt>
      <trkpt lat="50.06284" lon="4.20571">
        <ele>184.8</ele>
        <time>2024-04-28T09:29:36Z</time>
      </trkpt>
      <trkpt lat="50.06285" lon="4.20582">
        <ele>184.8</ele>
        <time>2024-04-28T09:29:37Z</time>
      </trkpt>
      <trkpt lat="50.06285" lon="4.20594">
        <ele>184.8</ele>
        <time>2024-04-28T09:29:38Z</time>
      </trkpt>
      <trkpt lat="50.06286" lon="4.20605">
        <ele>185.2</ele>
        <time>2024-04-28T09:29:39Z</time>
      </trkpt>
      <trkpt lat="50.06287" lon="4.20616">
        <ele>185.2</ele>
        <time>2024-04-28T09:29:40Z</time>
      </trkpt>
      <trkpt lat="50.06288" lon="4.20628">
        <ele>185.2</ele>
        <time>2024-04-28T09:29:41Z</time>
      </trkpt>
      <trkpt lat="50.06289" lon="4.20639">
        <ele>185.4</ele>
        <time>2024-04-28T09:29:42Z</time>
      </trkpt>
      <trkpt lat="50.06291" lon="4.20651">
        <ele>185.2</ele>
        <time>2024-04-28T09:29:43Z</time>
      </trkpt>
      <trkpt lat="50.06292" lon="4.20662">
        <ele>184.8</ele>
        <time>2024-04-28T09:29:44Z</time>
      </trkpt>
      <trkpt lat="50.06293" lon="4.20673">
        <ele>184.8</ele>
        <time>2024-04-28T09:29:45Z</time>
      </trkpt>
      <trkpt lat="50.06295" lon="4.20684">
        <ele>184.6</ele>
        <time>2024-04-28T09:29:46Z</time>
      </trkpt>
      <trkpt lat="50.06297" lon="4.20695">
        <ele>184.6</ele>
        <time>2024-04-28T09:29:47Z</time>
      </trkpt>
      <trkpt lat="50.06299" lon="4.20706">
        <ele>184.6</ele>
        <time>2024-04-28T09:29:48Z</time>
      </trkpt>
      <trkpt lat="50.06302" lon="4.20717">
        <ele>184.4</ele>
        <time>2024-04-28T09:29:49Z</time>
      </trkpt>
      <trkpt lat="50.06305" lon="4.20727">
        <ele>184.4</ele>
        <time>2024-04-28T09:29:50Z</time>
      </trkpt>
      <trkpt lat="50.06308" lon="4.20738">
        <ele>184.4</ele>
        <time>2024-04-28T09:29:51Z</time>
      </trkpt>
      <trkpt lat="50.06311" lon="4.20748">
        <ele>184.4</ele>
        <time>2024-04-28T09:29:52Z</time>
      </trkpt>
      <trkpt lat="50.06314" lon="4.20758">
        <ele>184.6</ele>
        <time>2024-04-28T09:29:53Z</time>
      </trkpt>
      <trkpt lat="50.06317" lon="4.20769">
        <ele>184.6</ele>
        <time>2024-04-28T09:29:54Z</time>
      </trkpt>
      <trkpt lat="50.0632" lon="4.20779">
        <ele>184.6</ele>
        <time>2024-04-28T09:29:55Z</time>
      </trkpt>
      <trkpt lat="50.06323" lon="4.20788">
        <ele>184.6</ele>
        <time>2024-04-28T09:29:56Z</time>
      </trkpt>
      <trkpt lat="50.06326" lon="4.20798">
        <ele>184.6</ele>
        <time>2024-04-28T09:29:57Z</time>
      </trkpt>
      <trkpt lat="50.0633" lon="4.20808">
        <ele>184.6</ele>
        <time>2024-04-28T09:29:58Z</time>
      </trkpt>
      <trkpt lat="50.06333" lon="4.20817">
        <ele>184.6</ele>
        <time>2024-04-28T09:29:59Z</time>
      </trkpt>
      <trkpt lat="50.06336" lon="4.20826">
        <ele>184.6</ele>
        <time>2024-04-28T09:30:00Z</time>
      </trkpt>
      <trkpt lat="50.06339" lon="4.20835">
        <ele>184.6</ele>
        <time>2024-04-28T09:30:01Z</time>
      </trkpt>
      <trkpt lat="50.06342" lon="4.20844">
        <ele>184.8</ele>
        <time>2024-04-28T09:30:02Z</time>
      </trkpt>
      <trkpt lat="50.06345" lon="4.20853">
        <ele>185</ele>
        <time>2024-04-28T09:30:03Z</time>
      </trkpt>
      <trkpt lat="50.06348" lon="4.20862">
        <ele>185.2</ele>
        <time>2024-04-28T09:30:04Z</time>
      </trkpt>
      <trkpt lat="50.06351" lon="4.2087">
        <ele>185.2</ele>
        <time>2024-04-28T09:30:05Z</time>
      </trkpt>
      <trkpt lat="50.06354" lon="4.20879">
        <ele>185.4</ele>
        <time>2024-04-28T09:30:06Z</time>
      </trkpt>
      <trkpt lat="50.06357" lon="4.20887">
        <ele>185.4</ele>
        <time>2024-04-28T09:30:07Z</time>
      </trkpt>
      <trkpt lat="50.0636" lon="4.20896">
        <ele>185.4</ele>
        <time>2024-04-28T09:30:08Z</time>
      </trkpt>
      <trkpt lat="50.06363" lon="4.20904">
        <ele>185.6</ele>
        <time>2024-04-28T09:30:09Z</time>
      </trkpt>
      <trkpt lat="50.06366" lon="4.20913">
        <ele>186</ele>
        <time>2024-04-28T09:30:10Z</time>
      </trkpt>
      <trkpt lat="50.06369" lon="4.20921">
        <ele>186.6</ele>
        <time>2024-04-28T09:30:11Z</time>
      </trkpt>
      <trkpt lat="50.06372" lon="4.20929">
        <ele>186.8</ele>
        <time>2024-04-28T09:30:12Z</time>
      </trkpt>
      <trkpt lat="50.06376" lon="4.20937">
        <ele>187</ele>
        <time>2024-04-28T09:30:13Z</time>
      </trkpt>
      <trkpt lat="50.06379" lon="4.20945">
        <ele>187.6</ele>
        <time>2024-04-28T09:30:14Z</time>
      </trkpt>
      <trkpt lat="50.06383" lon="4.20953">
        <ele>188.2</ele>
        <time>2024-04-28T09:30:15Z</time>
      </trkpt>
      <trkpt lat="50.06386" lon="4.20961">
        <ele>188.6</ele>
        <time>2024-04-28T09:30:16Z</time>
      </trkpt>
      <trkpt lat="50.0639" lon="4.20969">
        <ele>188.6</ele>
        <time>2024-04-28T09:30:17Z</time>
      </trkpt>
      <trkpt lat="50.06394" lon="4.20976">
        <ele>188.8</ele>
        <time>2024-04-28T09:30:18Z</time>
      </trkpt>
      <trkpt lat="50.06398" lon="4.20983">
        <ele>189</ele>
        <time>2024-04-28T09:30:19Z</time>
      </trkpt>
      <trkpt lat="50.06402" lon="4.20991">
        <ele>189.2</ele>
        <time>2024-04-28T09:30:20Z</time>
      </trkpt>
      <trkpt lat="50.06407" lon="4.20998">
        <ele>189.2</ele>
        <time>2024-04-28T09:30:21Z</time>
      </trkpt>
      <trkpt lat="50.06411" lon="4.21005">
        <ele>189.4</ele>
        <time>2024-04-28T09:30:22Z</time>
      </trkpt>
      <trkpt lat="50.06415" lon="4.21013">
        <ele>190.2</ele>
        <time>2024-04-28T09:30:23Z</time>
      </trkpt>
      <trkpt lat="50.06419" lon="4.2102">
        <ele>190.2</ele>
        <time>2024-04-28T09:30:24Z</time>
      </trkpt>
      <trkpt lat="50.06423" lon="4.21028">
        <ele>190.2</ele>
        <time>2024-04-28T09:30:25Z</time>
      </trkpt>
      <trkpt lat="50.06426" lon="4.21037">
        <ele>190.4</ele>
        <time>2024-04-28T09:30:26Z</time>
      </trkpt>
      <trkpt lat="50.0643" lon="4.21045">
        <ele>190.6</ele>
        <time>2024-04-28T09:30:27Z</time>
      </trkpt>
      <trkpt lat="50.06432" lon="4.21054">
        <ele>190.6</ele>
        <time>2024-04-28T09:30:28Z</time>
      </trkpt>
      <trkpt lat="50.06435" lon="4.21063">
        <ele>190.8</ele>
        <time>2024-04-28T09:30:29Z</time>
      </trkpt>
      <trkpt lat="50.06437" lon="4.21072">
        <ele>190.8</ele>
        <time>2024-04-28T09:30:30Z</time>
      </trkpt>
      <trkpt lat="50.06439" lon="4.2108">
        <ele>190.8</ele>
        <time>2024-04-28T09:30:31Z</time>
      </trkpt>
      <trkpt lat="50.06441" lon="4.21088">
        <ele>191</ele>
        <time>2024-04-28T09:30:32Z</time>
      </trkpt>
      <trkpt lat="50.06443" lon="4.21096">
        <ele>191</ele>
        <time>2024-04-28T09:30:33Z</time>
      </trkpt>
      <trkpt lat="50.06445" lon="4.21104">
        <ele>191.2</ele>
        <time>2024-04-28T09:30:34Z</time>
      </trkpt>
      <trkpt lat="50.06447" lon="4.21111">
        <ele>191.2</ele>
        <time>2024-04-28T09:30:35Z</time>
      </trkpt>
      <trkpt lat="50.06448" lon="4.21118">
        <ele>191.4</ele>
        <time>2024-04-28T09:30:36Z</time>
      </trkpt>
      <trkpt lat="50.0645" lon="4.21125">
        <ele>191.4</ele>
        <time>2024-04-28T09:30:37Z</time>
      </trkpt>
      <trkpt lat="50.06452" lon="4.21132">
        <ele>191.6</ele>
        <time>2024-04-28T09:30:38Z</time>
      </trkpt>
      <trkpt lat="50.06455" lon="4.21139">
        <ele>191.4</ele>
        <time>2024-04-28T09:30:39Z</time>
      </trkpt>
      <trkpt lat="50.06457" lon="4.21145">
        <ele>191.6</ele>
        <time>2024-04-28T09:30:40Z</time>
      </trkpt>
      <trkpt lat="50.06459" lon="4.21151">
        <ele>191.6</ele>
        <time>2024-04-28T09:30:41Z</time>
      </trkpt>
      <trkpt lat="50.06461" lon="4.21156">
        <ele>191.8</ele>
        <time>2024-04-28T09:30:42Z</time>
      </trkpt>
      <trkpt lat="50.06464" lon="4.21162">
        <ele>191.8</ele>
        <time>2024-04-28T09:30:43Z</time>
      </trkpt>
      <trkpt lat="50.06466" lon="4.21167">
        <ele>191.6</ele>
        <time>2024-04-28T09:30:44Z</time>
      </trkpt>
      <trkpt lat="50.06469" lon="4.21173">
        <ele>192.2</ele>
        <time>2024-04-28T09:30:45Z</time>
      </trkpt>
      <trkpt lat="50.06472" lon="4.21178">
        <ele>192.4</ele>
        <time>2024-04-28T09:30:46Z</time>
      </trkpt>
      <trkpt lat="50.06474" lon="4.21182">
        <ele>193</ele>
        <time>2024-04-28T09:30:47Z</time>
      </trkpt>
      <trkpt lat="50.06477" lon="4.21187">
        <ele>193.4</ele>
        <time>2024-04-28T09:30:48Z</time>
      </trkpt>
      <trkpt lat="50.0648" lon="4.21193">
        <ele>193.8</ele>
        <time>2024-04-28T09:30:49Z</time>
      </trkpt>
      <trkpt lat="50.06483" lon="4.21198">
        <ele>194.4</ele>
        <time>2024-04-28T09:30:50Z</time>
      </trkpt>
      <trkpt lat="50.06485" lon="4.21203">
        <ele>195.2</ele>
        <time>2024-04-28T09:30:51Z</time>
      </trkpt>
      <trkpt lat="50.06488" lon="4.21209">
        <ele>196</ele>
        <time>2024-04-28T09:30:52Z</time>
      </trkpt>
      <trkpt lat="50.0649" lon="4.21215">
        <ele>196.8</ele>
        <time>2024-04-28T09:30:53Z</time>
      </trkpt>
      <trkpt lat="50.06493" lon="4.2122">
        <ele>197.2</ele>
        <time>2024-04-28T09:30:54Z</time>
      </trkpt>
      <trkpt lat="50.06495" lon="4.21226">
        <ele>197.8</ele>
        <time>2024-04-28T09:30:55Z</time>
      </trkpt>
      <trkpt lat="50.06497" lon="4.21232">
        <ele>198.4</ele>
        <time>2024-04-28T09:30:56Z</time>
      </trkpt>
      <trkpt lat="50.06499" lon="4.21238">
        <ele>199.2</ele>
        <time>2024-04-28T09:30:57Z</time>
      </trkpt>
      <trkpt lat="50.06501" lon="4.21244">
        <ele>199.2</ele>
        <time>2024-04-28T09:30:58Z</time>
      </trkpt>
      <trkpt lat="50.06503" lon="4.21249">
        <ele>199.6</ele>
        <time>2024-04-28T09:30:59Z</time>
      </trkpt>
      <trkpt lat="50.06505" lon="4.21255">
        <ele>200.4</ele>
        <time>2024-04-28T09:31:00Z</time>
      </trkpt>
      <trkpt lat="50.06507" lon="4.21261">
        <ele>201</ele>
        <time>2024-04-28T09:31:01Z</time>
      </trkpt>
      <trkpt lat="50.06509" lon="4.21267">
        <ele>201.4</ele>
        <time>2024-04-28T09:31:02Z</time>
      </trkpt>
      <trkpt lat="50.06511" lon="4.21272">
        <ele>201.8</ele>
        <time>2024-04-28T09:31:03Z</time>
      </trkpt>
      <trkpt lat="50.06513" lon="4.21278">
        <ele>202.2</ele>
        <time>2024-04-28T09:31:04Z</time>
      </trkpt>
      <trkpt lat="50.06515" lon="4.21284">
        <ele>202.6</ele>
        <time>2024-04-28T09:31:05Z</time>
      </trkpt>
      <trkpt lat="50.06517" lon="4.2129">
        <ele>202.8</ele>
        <time>2024-04-28T09:31:06Z</time>
      </trkpt>
      <trkpt lat="50.06519" lon="4.21296">
        <ele>203</ele>
        <time>2024-04-28T09:31:07Z</time>
      </trkpt>
      <trkpt lat="50.0652" lon="4.21302">
        <ele>203.2</ele>
        <time>2024-04-28T09:31:08Z</time>
      </trkpt>
      <trkpt lat="50.06522" lon="4.21308">
        <ele>203.6</ele>
        <time>2024-04-28T09:31:09Z</time>
      </trkpt>
      <trkpt lat="50.06524" lon="4.21314">
        <ele>204</ele>
        <time>2024-04-28T09:31:10Z</time>
      </trkpt>
      <trkpt lat="50.06526" lon="4.2132">
        <ele>204.2</ele>
        <time>2024-04-28T09:31:11Z</time>
      </trkpt>
      <trkpt lat="50.06528" lon="4.21326">
        <ele>204.2</ele>
        <time>2024-04-28T09:31:12Z</time>
      </trkpt>
      <trkpt lat="50.0653" lon="4.21331">
        <ele>204.6</ele>
        <time>2024-04-28T09:31:13Z</time>
      </trkpt>
      <trkpt lat="50.06532" lon="4.21337">
        <ele>204.6</ele>
        <time>2024-04-28T09:31:14Z</time>
      </trkpt>
      <trkpt lat="50.06534" lon="4.21343">
        <ele>204.6</ele>
        <time>2024-04-28T09:31:15Z</time>
      </trkpt>
      <trkpt lat="50.06535" lon="4.21349">
        <ele>204.8</ele>
        <time>2024-04-28T09:31:16Z</time>
      </trkpt>
      <trkpt lat="50.06537" lon="4.21355">
        <ele>205</ele>
        <time>2024-04-28T09:31:17Z</time>
      </trkpt>
      <trkpt lat="50.06539" lon="4.21361">
        <ele>205</ele>
        <time>2024-04-28T09:31:18Z</time>
      </trkpt>
      <trkpt lat="50.0654" lon="4.21367">
        <ele>205.2</ele>
        <time>2024-04-28T09:31:19Z</time>
      </trkpt>
      <trkpt lat="50.06542" lon="4.21374">
        <ele>205.6</ele>
        <time>2024-04-28T09:31:20Z</time>
      </trkpt>
      <trkpt lat="50.06543" lon="4.21381">
        <ele>206.4</ele>
        <time>2024-04-28T09:31:21Z</time>
      </trkpt>
      <trkpt lat="50.06545" lon="4.21387">
        <ele>206.8</ele>
        <time>2024-04-28T09:31:22Z</time>
      </trkpt>
      <trkpt lat="50.06547" lon="4.21394">
        <ele>207</ele>
        <time>2024-04-28T09:31:23Z</time>
      </trkpt>
      <trkpt lat="50.06548" lon="4.214">
        <ele>207.6</ele>
        <time>2024-04-28T09:31:24Z</time>
      </trkpt>
      <trkpt lat="50.06549" lon="4.21407">
        <ele>208</ele>
        <time>2024-04-28T09:31:25Z</time>
      </trkpt>
      <trkpt lat="50.0655" lon="4.21413">
        <ele>208.2</ele>
        <time>2024-04-28T09:31:26Z</time>
      </trkpt>
      <trkpt lat="50.06551" lon="4.2142">
        <ele>208.4</ele>
        <time>2024-04-28T09:31:27Z</time>
      </trkpt>
      <trkpt lat="50.06551" lon="4.21427">
        <ele>208.6</ele>
        <time>2024-04-28T09:31:28Z</time>
      </trkpt>
      <trkpt lat="50.06551" lon="4.21433">
        <ele>208.8</ele>
        <time>2024-04-28T09:31:29Z</time>
      </trkpt>
      <trkpt lat="50.06551" lon="4.2144">
        <ele>209.4</ele>
        <time>2024-04-28T09:31:30Z</time>
      </trkpt>
      <trkpt lat="50.06551" lon="4.21447">
        <ele>209.8</ele>
        <time>2024-04-28T09:31:31Z</time>
      </trkpt>
      <trkpt lat="50.06551" lon="4.21454">
        <ele>210.2</ele>
        <time>2024-04-28T09:31:32Z</time>
      </trkpt>
      <trkpt lat="50.0655" lon="4.2146">
        <ele>210.2</ele>
        <time>2024-04-28T09:31:33Z</time>
      </trkpt>
      <trkpt lat="50.0655" lon="4.21466">
        <ele>210.4</ele>
        <time>2024-04-28T09:31:34Z</time>
      </trkpt>
      <trkpt lat="50.06549" lon="4.21472">
        <ele>210.4</ele>
        <time>2024-04-28T09:31:35Z</time>
      </trkpt>
      <trkpt lat="50.06548" lon="4.21478">
        <ele>210.6</ele>
        <time>2024-04-28T09:31:36Z</time>
      </trkpt>
      <trkpt lat="50.06548" lon="4.21483">
        <ele>210.8</ele>
        <time>2024-04-28T09:31:37Z</time>
      </trkpt>
      <trkpt lat="50.06547" lon="4.21489">
        <ele>210.6</ele>
        <time>2024-04-28T09:31:38Z</time>
      </trkpt>
      <trkpt lat="50.06546" lon="4.21495">
        <ele>210.6</ele>
        <time>2024-04-28T09:31:39Z</time>
      </trkpt>
      <trkpt lat="50.06546" lon="4.21501">
        <ele>211</ele>
        <time>2024-04-28T09:31:40Z</time>
      </trkpt>
      <trkpt lat="50.06545" lon="4.21507">
        <ele>211.2</ele>
        <time>2024-04-28T09:31:41Z</time>
      </trkpt>
      <trkpt lat="50.06544" lon="4.21513">
        <ele>211.6</ele>
        <time>2024-04-28T09:31:42Z</time>
      </trkpt>
      <trkpt lat="50.06543" lon="4.21519">
        <ele>212.4</ele>
        <time>2024-04-28T09:31:43Z</time>
      </trkpt>
      <trkpt lat="50.06542" lon="4.21526">
        <ele>213</ele>
        <time>2024-04-28T09:31:44Z</time>
      </trkpt>
      <trkpt lat="50.06542" lon="4.21532">
        <ele>213.4</ele>
        <time>2024-04-28T09:31:45Z</time>
      </trkpt>
      <trkpt lat="50.06541" lon="4.21538">
        <ele>213.6</ele>
        <time>2024-04-28T09:31:46Z</time>
      </trkpt>
      <trkpt lat="50.06541" lon="4.21544">
        <ele>214</ele>
        <time>2024-04-28T09:31:47Z</time>
      </trkpt>
      <trkpt lat="50.0654" lon="4.2155">
        <ele>214</ele>
        <time>2024-04-28T09:31:48Z</time>
      </trkpt>
      <trkpt lat="50.06539" lon="4.21557">
        <ele>214.2</ele>
        <time>2024-04-28T09:31:49Z</time>
      </trkpt>
      <trkpt lat="50.06539" lon="4.21563">
        <ele>214.2</ele>
        <time>2024-04-28T09:31:50Z</time>
      </trkpt>
      <trkpt lat="50.06538" lon="4.2157">
        <ele>214.2</ele>
        <time>2024-04-28T09:31:51Z</time>
      </trkpt>
      <trkpt lat="50.06537" lon="4.21576">
        <ele>214.2</ele>
        <time>2024-04-28T09:31:52Z</time>
      </trkpt>
      <trkpt lat="50.06536" lon="4.21583">
        <ele>214.4</ele>
        <time>2024-04-28T09:31:53Z</time>
      </trkpt>
      <trkpt lat="50.06535" lon="4.21589">
        <ele>214.6</ele>
        <time>2024-04-28T09:31:54Z</time>
      </trkpt>
      <trkpt lat="50.06535" lon="4.21596">
        <ele>214.6</ele>
        <time>2024-04-28T09:31:55Z</time>
      </trkpt>
      <trkpt lat="50.06534" lon="4.21603">
        <ele>215</ele>
        <time>2024-04-28T09:31:56Z</time>
      </trkpt>
      <trkpt lat="50.06534" lon="4.2161">
        <ele>215.4</ele>
        <time>2024-04-28T09:31:57Z</time>
      </trkpt>
      <trkpt lat="50.06533" lon="4.21617">
        <ele>215.6</ele>
        <time>2024-04-28T09:31:58Z</time>
      </trkpt>
      <trkpt lat="50.06532" lon="4.21624">
        <ele>215.8</ele>
        <time>2024-04-28T09:31:59Z</time>
      </trkpt>
      <trkpt lat="50.06532" lon="4.21631">
        <ele>216.2</ele>
        <time>2024-04-28T09:32:00Z</time>
      </trkpt>
      <trkpt lat="50.06531" lon="4.21638">
        <ele>216.6</ele>
        <time>2024-04-28T09:32:01Z</time>
      </trkpt>
      <trkpt lat="50.0653" lon="4.21646">
        <ele>216.8</ele>
        <time>2024-04-28T09:32:02Z</time>
      </trkpt>
      <trkpt lat="50.06529" lon="4.21653">
        <ele>216.8</ele>
        <time>2024-04-28T09:32:03Z</time>
      </trkpt>
      <trkpt lat="50.06528" lon="4.21661">
        <ele>217.2</ele>
        <time>2024-04-28T09:32:04Z</time>
      </trkpt>
      <trkpt lat="50.06527" lon="4.21669">
        <ele>217.2</ele>
        <time>2024-04-28T09:32:05Z</time>
      </trkpt>
      <trkpt lat="50.06527" lon="4.21676">
        <ele>217.4</ele>
        <time>2024-04-28T09:32:06Z</time>
      </trkpt>
      <trkpt lat="50.06526" lon="4.21684">
        <ele>217.4</ele>
        <time>2024-04-28T09:32:07Z</time>
      </trkpt>
      <trkpt lat="50.06525" lon="4.21692">
        <ele>217.6</ele>
        <time>2024-04-28T09:32:08Z</time>
      </trkpt>
      <trkpt lat="50.06525" lon="4.217">
        <ele>217.6</ele>
        <time>2024-04-28T09:32:09Z</time>
      </trkpt>
      <trkpt lat="50.06524" lon="4.21708">
        <ele>217.6</ele>
        <time>2024-04-28T09:32:10Z</time>
      </trkpt>
      <trkpt lat="50.06524" lon="4.21716">
        <ele>217.6</ele>
        <time>2024-04-28T09:32:11Z</time>
      </trkpt>
      <trkpt lat="50.06524" lon="4.21725">
        <ele>217.6</ele>
        <time>2024-04-28T09:32:12Z</time>
      </trkpt>
      <trkpt lat="50.06525" lon="4.21733">
        <ele>217.8</ele>
        <time>2024-04-28T09:32:13Z</time>
      </trkpt>
      <trkpt lat="50.06525" lon="4.21742">
        <ele>217.8</ele>
        <time>2024-04-28T09:32:14Z</time>
      </trkpt>
      <trkpt lat="50.06526" lon="4.21751">
        <ele>217.8</ele>
        <time>2024-04-28T09:32:15Z</time>
      </trkpt>
      <trkpt lat="50.06526" lon="4.21759">
        <ele>218</ele>
        <time>2024-04-28T09:32:16Z</time>
      </trkpt>
      <trkpt lat="50.06527" lon="4.21768">
        <ele>218.4</ele>
        <time>2024-04-28T09:32:17Z</time>
      </trkpt>
      <trkpt lat="50.06528" lon="4.21777">
        <ele>218.6</ele>
        <time>2024-04-28T09:32:18Z</time>
      </trkpt>
      <trkpt lat="50.06528" lon="4.21786">
        <ele>218.8</ele>
        <time>2024-04-28T09:32:19Z</time>
      </trkpt>
      <trkpt lat="50.06529" lon="4.21796">
        <ele>219.2</ele>
        <time>2024-04-28T09:32:20Z</time>
      </trkpt>
      <trkpt lat="50.0653" lon="4.21805">
        <ele>219.2</ele>
        <time>2024-04-28T09:32:21Z</time>
      </trkpt>
      <trkpt lat="50.06531" lon="4.21815">
        <ele>219.2</ele>
        <time>2024-04-28T09:32:22Z</time>
      </trkpt>
      <trkpt lat="50.06532" lon="4.21824">
        <ele>219</ele>
        <time>2024-04-28T09:32:23Z</time>
      </trkpt>
      <trkpt lat="50.06533" lon="4.21835">
        <ele>219.2</ele>
        <time>2024-04-28T09:32:24Z</time>
      </trkpt>
      <trkpt lat="50.06534" lon="4.21845">
        <ele>219.4</ele>
        <time>2024-04-28T09:32:25Z</time>
      </trkpt>
      <trkpt lat="50.06535" lon="4.21855">
        <ele>219.4</ele>
        <time>2024-04-28T09:32:26Z</time>
      </trkpt>
      <trkpt lat="50.06536" lon="4.21866">
        <ele>219.6</ele>
        <time>2024-04-28T09:32:27Z</time>
      </trkpt>
      <trkpt lat="50.06537" lon="4.21877">
        <ele>219.6</ele>
        <time>2024-04-28T09:32:28Z</time>
      </trkpt>
      <trkpt lat="50.06537" lon="4.21888">
        <ele>219.8</ele>
        <time>2024-04-28T09:32:29Z</time>
      </trkpt>
      <trkpt lat="50.06539" lon="4.21899">
        <ele>219.8</ele>
        <time>2024-04-28T09:32:30Z</time>
      </trkpt>
      <trkpt lat="50.0654" lon="4.21909">
        <ele>219.8</ele>
        <time>2024-04-28T09:32:31Z</time>
      </trkpt>
      <trkpt lat="50.06541" lon="4.2192">
        <ele>219.6</ele>
        <time>2024-04-28T09:32:32Z</time>
      </trkpt>
      <trkpt lat="50.06542" lon="4.21931">
        <ele>219.6</ele>
        <time>2024-04-28T09:32:33Z</time>
      </trkpt>
      <trkpt lat="50.06543" lon="4.21942">
        <ele>219.6</ele>
        <time>2024-04-28T09:32:34Z</time>
      </trkpt>
      <trkpt lat="50.06544" lon="4.21953">
        <ele>219.6</ele>
        <time>2024-04-28T09:32:35Z</time>
      </trkpt>
      <trkpt lat="50.06545" lon="4.21964">
        <ele>219.6</ele>
        <time>2024-04-28T09:32:36Z</time>
      </trkpt>
      <trkpt lat="50.06545" lon="4.21976">
        <ele>219.6</ele>
        <time>2024-04-28T09:32:37Z</time>
      </trkpt>
      <trkpt lat="50.06546" lon="4.21988">
        <ele>219.6</ele>
        <time>2024-04-28T09:32:38Z</time>
      </trkpt>
      <trkpt lat="50.06547" lon="4.21999">
        <ele>219.6</ele>
        <time>2024-04-28T09:32:39Z</time>
      </trkpt>
      <trkpt lat="50.06548" lon="4.22011">
        <ele>219.8</ele>
        <time>2024-04-28T09:32:40Z</time>
      </trkpt>
      <trkpt lat="50.06549" lon="4.22022">
        <ele>219.6</ele>
        <time>2024-04-28T09:32:41Z</time>
      </trkpt>
      <trkpt lat="50.0655" lon="4.22034">
        <ele>219.6</ele>
        <time>2024-04-28T09:32:42Z</time>
      </trkpt>
      <trkpt lat="50.06551" lon="4.22045">
        <ele>219.4</ele>
        <time>2024-04-28T09:32:43Z</time>
      </trkpt>
      <trkpt lat="50.06552" lon="4.22057">
        <ele>219.2</ele>
        <time>2024-04-28T09:32:44Z</time>
      </trkpt>
      <trkpt lat="50.06553" lon="4.22068">
        <ele>219</ele>
        <time>2024-04-28T09:32:45Z</time>
      </trkpt>
      <trkpt lat="50.06555" lon="4.22079">
        <ele>219</ele>
        <time>2024-04-28T09:32:46Z</time>
      </trkpt>
      <trkpt lat="50.06556" lon="4.22091">
        <ele>218.8</ele>
        <time>2024-04-28T09:32:47Z</time>
      </trkpt>
      <trkpt lat="50.06557" lon="4.22103">
        <ele>218.8</ele>
        <time>2024-04-28T09:32:48Z</time>
      </trkpt>
      <trkpt lat="50.06558" lon="4.22115">
        <ele>218.6</ele>
        <time>2024-04-28T09:32:49Z</time>
      </trkpt>
      <trkpt lat="50.06559" lon="4.22127">
        <ele>218.6</ele>
        <time>2024-04-28T09:32:50Z</time>
      </trkpt>
      <trkpt lat="50.0656" lon="4.22139">
        <ele>218.6</ele>
        <time>2024-04-28T09:32:51Z</time>
      </trkpt>
      <trkpt lat="50.06561" lon="4.22151">
        <ele>218.6</ele>
        <time>2024-04-28T09:32:52Z</time>
      </trkpt>
      <trkpt lat="50.06562" lon="4.22164">
        <ele>218.4</ele>
        <time>2024-04-28T09:32:53Z</time>
      </trkpt>
      <trkpt lat="50.06563" lon="4.22176">
        <ele>218.4</ele>
        <time>2024-04-28T09:32:54Z</time>
      </trkpt>
      <trkpt lat="50.06564" lon="4.22188">
        <ele>218.4</ele>
        <time>2024-04-28T09:32:55Z</time>
      </trkpt>
      <trkpt lat="50.06566" lon="4.22201">
        <ele>218.4</ele>
        <time>2024-04-28T09:32:56Z</time>
      </trkpt>
      <trkpt lat="50.06567" lon="4.22213">
        <ele>218.4</ele>
        <time>2024-04-28T09:32:57Z</time>
      </trkpt>
      <trkpt lat="50.06568" lon="4.22226">
        <ele>218.4</ele>
        <time>2024-04-28T09:32:58Z</time>
      </trkpt>
      <trkpt lat="50.06569" lon="4.22238">
        <ele>218.2</ele>
        <time>2024-04-28T09:32:59Z</time>
      </trkpt>
      <trkpt lat="50.0657" lon="4.22251">
        <ele>218</ele>
        <time>2024-04-28T09:33:00Z</time>
      </trkpt>
      <trkpt lat="50.06571" lon="4.22263">
        <ele>218</ele>
        <time>2024-04-28T09:33:01Z</time>
      </trkpt>
      <trkpt lat="50.06571" lon="4.22276">
        <ele>218</ele>
        <time>2024-04-28T09:33:02Z</time>
      </trkpt>
      <trkpt lat="50.06572" lon="4.22288">
        <ele>218</ele>
        <time>2024-04-28T09:33:03Z</time>
      </trkpt>
      <trkpt lat="50.06572" lon="4.22301">
        <ele>218</ele>
        <time>2024-04-28T09:33:04Z</time>
      </trkpt>
      <trkpt lat="50.06573" lon="4.22313">
        <ele>218</ele>
        <time>2024-04-28T09:33:05Z</time>
      </trkpt>
      <trkpt lat="50.06573" lon="4.22326">
        <ele>218</ele>
        <time>2024-04-28T09:33:06Z</time>
      </trkpt>
      <trkpt lat="50.06574" lon="4.22339">
        <ele>218</ele>
        <time>2024-04-28T09:33:07Z</time>
      </trkpt>
      <trkpt lat="50.06574" lon="4.22352">
        <ele>218</ele>
        <time>2024-04-28T09:33:08Z</time>
      </trkpt>
      <trkpt lat="50.06574" lon="4.22365">
        <ele>218</ele>
        <time>2024-04-28T09:33:09Z</time>
      </trkpt>
      <trkpt lat="50.06575" lon="4.22378">
        <ele>217.8</ele>
        <time>2024-04-28T09:33:10Z</time>
      </trkpt>
      <trkpt lat="50.06575" lon="4.22391">
        <ele>217.6</ele>
        <time>2024-04-28T09:33:11Z</time>
      </trkpt>
      <trkpt lat="50.06576" lon="4.22403">
        <ele>217.6</ele>
        <time>2024-04-28T09:33:12Z</time>
      </trkpt>
      <trkpt lat="50.06576" lon="4.22415">
        <ele>217.6</ele>
        <time>2024-04-28T09:33:13Z</time>
      </trkpt>
      <trkpt lat="50.06576" lon="4.22428">
        <ele>217.6</ele>
        <time>2024-04-28T09:33:14Z</time>
      </trkpt>
      <trkpt lat="50.06577" lon="4.22441">
        <ele>217.6</ele>
        <time>2024-04-28T09:33:15Z</time>
      </trkpt>
      <trkpt lat="50.06577" lon="4.22454">
        <ele>217.4</ele>
        <time>2024-04-28T09:33:16Z</time>
      </trkpt>
      <trkpt lat="50.06577" lon="4.22467">
        <ele>217.4</ele>
        <time>2024-04-28T09:33:17Z</time>
      </trkpt>
      <trkpt lat="50.06578" lon="4.2248">
        <ele>217.4</ele>
        <time>2024-04-28T09:33:18Z</time>
      </trkpt>
      <trkpt lat="50.06578" lon="4.22494">
        <ele>217.4</ele>
        <time>2024-04-28T09:33:19Z</time>
      </trkpt>
      <trkpt lat="50.06579" lon="4.22507">
        <ele>217.4</ele>
        <time>2024-04-28T09:33:20Z</time>
      </trkpt>
      <trkpt lat="50.06579" lon="4.2252">
        <ele>217.4</ele>
        <time>2024-04-28T09:33:21Z</time>
      </trkpt>
      <trkpt lat="50.06579" lon="4.22534">
        <ele>217.4</ele>
        <time>2024-04-28T09:33:22Z</time>
      </trkpt>
      <trkpt lat="50.0658" lon="4.22547">
        <ele>217.2</ele>
        <time>2024-04-28T09:33:23Z</time>
      </trkpt>
      <trkpt lat="50.0658" lon="4.2256">
        <ele>217.2</ele>
        <time>2024-04-28T09:33:24Z</time>
      </trkpt>
      <trkpt lat="50.0658" lon="4.22573">
        <ele>217.2</ele>
        <time>2024-04-28T09:33:25Z</time>
      </trkpt>
      <trkpt lat="50.06581" lon="4.22586">
        <ele>217.2</ele>
        <time>2024-04-28T09:33:26Z</time>
      </trkpt>
      <trkpt lat="50.06581" lon="4.22599">
        <ele>217.2</ele>
        <time>2024-04-28T09:33:27Z</time>
      </trkpt>
      <trkpt lat="50.06581" lon="4.22611">
        <ele>217.2</ele>
        <time>2024-04-28T09:33:28Z</time>
      </trkpt>
      <trkpt lat="50.06582" lon="4.22623">
        <ele>217</ele>
        <time>2024-04-28T09:33:29Z</time>
      </trkpt>
      <trkpt lat="50.06582" lon="4.22635">
        <ele>217.2</ele>
        <time>2024-04-28T09:33:30Z</time>
      </trkpt>
      <trkpt lat="50.06583" lon="4.22648">
        <ele>217.2</ele>
        <time>2024-04-28T09:33:31Z</time>
      </trkpt>
      <trkpt lat="50.06583" lon="4.2266">
        <ele>217.2</ele>
        <time>2024-04-28T09:33:32Z</time>
      </trkpt>
      <trkpt lat="50.06583" lon="4.22672">
        <ele>217.2</ele>
        <time>2024-04-28T09:33:33Z</time>
      </trkpt>
      <trkpt lat="50.06584" lon="4.22684">
        <ele>217</ele>
        <time>2024-04-28T09:33:34Z</time>
      </trkpt>
      <trkpt lat="50.06584" lon="4.22696">
        <ele>217</ele>
        <time>2024-04-28T09:33:35Z</time>
      </trkpt>
      <trkpt lat="50.06585" lon="4.22709">
        <ele>216.6</ele>
        <time>2024-04-28T09:33:36Z</time>
      </trkpt>
      <trkpt lat="50.06585" lon="4.22722">
        <ele>216.4</ele>
        <time>2024-04-28T09:33:37Z</time>
      </trkpt>
      <trkpt lat="50.06585" lon="4.22736">
        <ele>216</ele>
        <time>2024-04-28T09:33:38Z</time>
      </trkpt>
      <trkpt lat="50.06585" lon="4.22749">
        <ele>215.6</ele>
        <time>2024-04-28T09:33:39Z</time>
      </trkpt>
      <trkpt lat="50.06585" lon="4.22763">
        <ele>215.4</ele>
        <time>2024-04-28T09:33:40Z</time>
      </trkpt>
      <trkpt lat="50.06585" lon="4.22777">
        <ele>215</ele>
        <time>2024-04-28T09:33:41Z</time>
      </trkpt>
      <trkpt lat="50.06585" lon="4.22791">
        <ele>214.6</ele>
        <time>2024-04-28T09:33:42Z</time>
      </trkpt>
      <trkpt lat="50.06586" lon="4.22805">
        <ele>214.4</ele>
        <time>2024-04-28T09:33:43Z</time>
      </trkpt>
      <trkpt lat="50.06588" lon="4.2282">
        <ele>214.2</ele>
        <time>2024-04-28T09:33:44Z</time>
      </trkpt>
      <trkpt lat="50.0659" lon="4.22833">
        <ele>214</ele>
        <time>2024-04-28T09:33:45Z</time>
      </trkpt>
      <trkpt lat="50.06592" lon="4.22847">
        <ele>213.6</ele>
        <time>2024-04-28T09:33:46Z</time>
      </trkpt>
      <trkpt lat="50.06595" lon="4.2286">
        <ele>213.6</ele>
        <time>2024-04-28T09:33:47Z</time>
      </trkpt>
      <trkpt lat="50.06598" lon="4.22874">
        <ele>213.2</ele>
        <time>2024-04-28T09:33:48Z</time>
      </trkpt>
      <trkpt lat="50.06601" lon="4.22888">
        <ele>212.4</ele>
        <time>2024-04-28T09:33:49Z</time>
      </trkpt>
      <trkpt lat="50.06604" lon="4.22903">
        <ele>212</ele>
        <time>2024-04-28T09:33:50Z</time>
      </trkpt>
      <trkpt lat="50.06608" lon="4.22917">
        <ele>211.8</ele>
        <time>2024-04-28T09:33:51Z</time>
      </trkpt>
      <trkpt lat="50.06612" lon="4.22932">
        <ele>211.4</ele>
        <time>2024-04-28T09:33:52Z</time>
      </trkpt>
      <trkpt lat="50.06615" lon="4.22946">
        <ele>210.8</ele>
        <time>2024-04-28T09:33:53Z</time>
      </trkpt>
      <trkpt lat="50.06619" lon="4.22961">
        <ele>210.6</ele>
        <time>2024-04-28T09:33:54Z</time>
      </trkpt>
      <trkpt lat="50.06623" lon="4.22976">
        <ele>210.4</ele>
        <time>2024-04-28T09:33:55Z</time>
      </trkpt>
      <trkpt lat="50.06627" lon="4.2299">
        <ele>210.2</ele>
        <time>2024-04-28T09:33:56Z</time>
      </trkpt>
      <trkpt lat="50.0663" lon="4.23005">
        <ele>209.8</ele>
        <time>2024-04-28T09:33:57Z</time>
      </trkpt>
      <trkpt lat="50.06634" lon="4.23021">
        <ele>209.4</ele>
        <time>2024-04-28T09:33:58Z</time>
      </trkpt>
      <trkpt lat="50.06638" lon="4.23036">
        <ele>208.8</ele>
        <time>2024-04-28T09:33:59Z</time>
      </trkpt>
      <trkpt lat="50.06642" lon="4.23052">
        <ele>208.6</ele>
        <time>2024-04-28T09:34:00Z</time>
      </trkpt>
      <trkpt lat="50.06645" lon="4.23068">
        <ele>208.2</ele>
        <time>2024-04-28T09:34:01Z</time>
      </trkpt>
      <trkpt lat="50.06649" lon="4.23084">
        <ele>207.8</ele>
        <time>2024-04-28T09:34:02Z</time>
      </trkpt>
      <trkpt lat="50.06653" lon="4.231">
        <ele>207.4</ele>
        <time>2024-04-28T09:34:03Z</time>
      </trkpt>
      <trkpt lat="50.06657" lon="4.23117">
        <ele>207.2</ele>
        <time>2024-04-28T09:34:04Z</time>
      </trkpt>
      <trkpt lat="50.06661" lon="4.23133">
        <ele>206.8</ele>
        <time>2024-04-28T09:34:05Z</time>
      </trkpt>
      <trkpt lat="50.06664" lon="4.2315">
        <ele>206.8</ele>
        <time>2024-04-28T09:34:06Z</time>
      </trkpt>
      <trkpt lat="50.06667" lon="4.23168">
        <ele>206.6</ele>
        <time>2024-04-28T09:34:07Z</time>
      </trkpt>
      <trkpt lat="50.0667" lon="4.23186">
        <ele>206.4</ele>
        <time>2024-04-28T09:34:08Z</time>
      </trkpt>
      <trkpt lat="50.06673" lon="4.23204">
        <ele>206.2</ele>
        <time>2024-04-28T09:34:09Z</time>
      </trkpt>
      <trkpt lat="50.06676" lon="4.23223">
        <ele>206</ele>
        <time>2024-04-28T09:34:10Z</time>
      </trkpt>
      <trkpt lat="50.06679" lon="4.23242">
        <ele>205.4</ele>
        <time>2024-04-28T09:34:11Z</time>
      </trkpt>
      <trkpt lat="50.06682" lon="4.23261">
        <ele>205</ele>
        <time>2024-04-28T09:34:12Z</time>
      </trkpt>
      <trkpt lat="50.06685" lon="4.2328">
        <ele>203.8</ele>
        <time>2024-04-28T09:34:13Z</time>
      </trkpt>
      <trkpt lat="50.06688" lon="4.233">
        <ele>202.6</ele>
        <time>2024-04-28T09:34:14Z</time>
      </trkpt>
      <trkpt lat="50.06691" lon="4.2332">
        <ele>201.8</ele>
        <time>2024-04-28T09:34:15Z</time>
      </trkpt>
      <trkpt lat="50.06694" lon="4.2334">
        <ele>201.2</ele>
        <time>2024-04-28T09:34:16Z</time>
      </trkpt>
      <trkpt lat="50.06697" lon="4.2336">
        <ele>200.8</ele>
        <time>2024-04-28T09:34:17Z</time>
      </trkpt>
      <trkpt lat="50.067" lon="4.2338">
        <ele>200.2</ele>
        <time>2024-04-28T09:34:18Z</time>
      </trkpt>
      <trkpt lat="50.06705" lon="4.23398">
        <ele>199</ele>
        <time>2024-04-28T09:34:19Z</time>
      </trkpt>
      <trkpt lat="50.06711" lon="4.23416">
        <ele>197</ele>
        <time>2024-04-28T09:34:20Z</time>
      </trkpt>
      <trkpt lat="50.06717" lon="4.23433">
        <ele>195.8</ele>
        <time>2024-04-28T09:34:21Z</time>
      </trkpt>
      <trkpt lat="50.06724" lon="4.23448">
        <ele>194.4</ele>
        <time>2024-04-28T09:34:22Z</time>
      </trkpt>
      <trkpt lat="50.06732" lon="4.23463">
        <ele>194.4</ele>
        <time>2024-04-28T09:34:23Z</time>
      </trkpt>
      <trkpt lat="50.06739" lon="4.23477">
        <ele>193</ele>
        <time>2024-04-28T09:34:24Z</time>
      </trkpt>
      <trkpt lat="50.06747" lon="4.23491">
        <ele>192</ele>
        <time>2024-04-28T09:34:25Z</time>
      </trkpt>
      <trkpt lat="50.06754" lon="4.23505">
        <ele>191.6</ele>
        <time>2024-04-28T09:34:26Z</time>
      </trkpt>
      <trkpt lat="50.06762" lon="4.23518">
        <ele>191</ele>
        <time>2024-04-28T09:34:27Z</time>
      </trkpt>
      <trkpt lat="50.06769" lon="4.23532">
        <ele>190.4</ele>
        <time>2024-04-28T09:34:28Z</time>
      </trkpt>
      <trkpt lat="50.06777" lon="4.23546">
        <ele>190</ele>
        <time>2024-04-28T09:34:29Z</time>
      </trkpt>
      <trkpt lat="50.06785" lon="4.23559">
        <ele>189.8</ele>
        <time>2024-04-28T09:34:30Z</time>
      </trkpt>
      <trkpt lat="50.06793" lon="4.23571">
        <ele>189.6</ele>
        <time>2024-04-28T09:34:31Z</time>
      </trkpt>
      <trkpt lat="50.06801" lon="4.23584">
        <ele>189.6</ele>
        <time>2024-04-28T09:34:32Z</time>
      </trkpt>
      <trkpt lat="50.0681" lon="4.23596">
        <ele>189.2</ele>
        <time>2024-04-28T09:34:33Z</time>
      </trkpt>
      <trkpt lat="50.06819" lon="4.23607">
        <ele>189</ele>
        <time>2024-04-28T09:34:34Z</time>
      </trkpt>
      <trkpt lat="50.06829" lon="4.23616">
        <ele>189</ele>
        <time>2024-04-28T09:34:35Z</time>
      </trkpt>
      <trkpt lat="50.06839" lon="4.23625">
        <ele>188.8</ele>
        <time>2024-04-28T09:34:36Z</time>
      </trkpt>
      <trkpt lat="50.06848" lon="4.23634">
        <ele>188.6</ele>
        <time>2024-04-28T09:34:37Z</time>
      </trkpt>
      <trkpt lat="50.06856" lon="4.23643">
        <ele>188.4</ele>
        <time>2024-04-28T09:34:38Z</time>
      </trkpt>
      <trkpt lat="50.06864" lon="4.23652">
        <ele>188.2</ele>
        <time>2024-04-28T09:34:39Z</time>
      </trkpt>
      <trkpt lat="50.0687" lon="4.23663">
        <ele>188.4</ele>
        <time>2024-04-28T09:34:40Z</time>
      </trkpt>
      <trkpt lat="50.06875" lon="4.23674">
        <ele>188.4</ele>
        <time>2024-04-28T09:34:41Z</time>
      </trkpt>
      <trkpt lat="50.06879" lon="4.23686">
        <ele>188.4</ele>
        <time>2024-04-28T09:34:42Z</time>
      </trkpt>
      <trkpt lat="50.06882" lon="4.23697">
        <ele>188.4</ele>
        <time>2024-04-28T09:34:43Z</time>
      </trkpt>
      <trkpt lat="50.06884" lon="4.23708">
        <ele>188.4</ele>
        <time>2024-04-28T09:34:44Z</time>
      </trkpt>
      <trkpt lat="50.06886" lon="4.23718">
        <ele>188.2</ele>
        <time>2024-04-28T09:34:45Z</time>
      </trkpt>
      <trkpt lat="50.06889" lon="4.23728">
        <ele>188.4</ele>
        <time>2024-04-28T09:34:46Z</time>
      </trkpt>
      <trkpt lat="50.06891" lon="4.23737">
        <ele>188.4</ele>
        <time>2024-04-28T09:34:47Z</time>
      </trkpt>
      <trkpt lat="50.06893" lon="4.23746">
        <ele>188.4</ele>
        <time>2024-04-28T09:34:48Z</time>
      </trkpt>
      <trkpt lat="50.06896" lon="4.23755">
        <ele>188.6</ele>
        <time>2024-04-28T09:34:49Z</time>
      </trkpt>
      <trkpt lat="50.06898" lon="4.23763">
        <ele>189.6</ele>
        <time>2024-04-28T09:34:50Z</time>
      </trkpt>
      <trkpt lat="50.069" lon="4.23772">
        <ele>190.6</ele>
        <time>2024-04-28T09:34:51Z</time>
      </trkpt>
      <trkpt lat="50.06902" lon="4.2378">
        <ele>191.2</ele>
        <time>2024-04-28T09:34:52Z</time>
      </trkpt>
      <trkpt lat="50.06904" lon="4.23788">
        <ele>191.6</ele>
        <time>2024-04-28T09:34:53Z</time>
      </trkpt>
      <trkpt lat="50.06906" lon="4.23796">
        <ele>192</ele>
        <time>2024-04-28T09:34:54Z</time>
      </trkpt>
      <trkpt lat="50.06908" lon="4.23804">
        <ele>192</ele>
        <time>2024-04-28T09:34:55Z</time>
      </trkpt>
      <trkpt lat="50.0691" lon="4.23812">
        <ele>192.4</ele>
        <time>2024-04-28T09:34:56Z</time>
      </trkpt>
      <trkpt lat="50.06912" lon="4.2382">
        <ele>192.4</ele>
        <time>2024-04-28T09:34:57Z</time>
      </trkpt>
      <trkpt lat="50.06913" lon="4.23828">
        <ele>193</ele>
        <time>2024-04-28T09:34:58Z</time>
      </trkpt>
      <trkpt lat="50.06915" lon="4.23836">
        <ele>193</ele>
        <time>2024-04-28T09:34:59Z</time>
      </trkpt>
      <trkpt lat="50.06916" lon="4.23844">
        <ele>193.2</ele>
        <time>2024-04-28T09:35:00Z</time>
      </trkpt>
      <trkpt lat="50.06917" lon="4.23852">
        <ele>193.6</ele>
        <time>2024-04-28T09:35:01Z</time>
      </trkpt>
      <trkpt lat="50.06918" lon="4.2386">
        <ele>194</ele>
        <time>2024-04-28T09:35:02Z</time>
      </trkpt>
      <trkpt lat="50.06919" lon="4.23868">
        <ele>194.2</ele>
        <time>2024-04-28T09:35:03Z</time>
      </trkpt>
      <trkpt lat="50.0692" lon="4.23877">
        <ele>194.2</ele>
        <time>2024-04-28T09:35:04Z</time>
      </trkpt>
      <trkpt lat="50.06922" lon="4.23885">
        <ele>194.4</ele>
        <time>2024-04-28T09:35:05Z</time>
      </trkpt>
      <trkpt lat="50.06924" lon="4.23894">
        <ele>194.2</ele>
        <time>2024-04-28T09:35:06Z</time>
      </trkpt>
      <trkpt lat="50.06926" lon="4.23903">
        <ele>194.2</ele>
        <time>2024-04-28T09:35:07Z</time>
      </trkpt>
      <trkpt lat="50.06927" lon="4.23914">
        <ele>194.2</ele>
        <time>2024-04-28T09:35:08Z</time>
      </trkpt>
      <trkpt lat="50.06928" lon="4.23925">
        <ele>194.2</ele>
        <time>2024-04-28T09:35:09Z</time>
      </trkpt>
      <trkpt lat="50.0693" lon="4.23937">
        <ele>194.2</ele>
        <time>2024-04-28T09:35:10Z</time>
      </trkpt>
      <trkpt lat="50.06932" lon="4.23949">
        <ele>194.2</ele>
        <time>2024-04-28T09:35:11Z</time>
      </trkpt>
      <trkpt lat="50.06934" lon="4.23962">
        <ele>194.2</ele>
        <time>2024-04-28T09:35:12Z</time>
      </trkpt>
      <trkpt lat="50.06938" lon="4.23975">
        <ele>194.2</ele>
        <time>2024-04-28T09:35:13Z</time>
      </trkpt>
      <trkpt lat="50.06942" lon="4.23988">
        <ele>194</ele>
        <time>2024-04-28T09:35:14Z</time>
      </trkpt>
      <trkpt lat="50.06948" lon="4.24">
        <ele>193.8</ele>
        <time>2024-04-28T09:35:15Z</time>
      </trkpt>
      <trkpt lat="50.06954" lon="4.24011">
        <ele>193.8</ele>
        <time>2024-04-28T09:35:16Z</time>
      </trkpt>
      <trkpt lat="50.0696" lon="4.24022">
        <ele>193.6</ele>
        <time>2024-04-28T09:35:17Z</time>
      </trkpt>
      <trkpt lat="50.06967" lon="4.24034">
        <ele>193</ele>
        <time>2024-04-28T09:35:18Z</time>
      </trkpt>
      <trkpt lat="50.06973" lon="4.24045">
        <ele>192.4</ele>
        <time>2024-04-28T09:35:19Z</time>
      </trkpt>
      <trkpt lat="50.06979" lon="4.24056">
        <ele>191.8</ele>
        <time>2024-04-28T09:35:20Z</time>
      </trkpt>
      <trkpt lat="50.06985" lon="4.24066">
        <ele>191.4</ele>
        <time>2024-04-28T09:35:21Z</time>
      </trkpt>
      <trkpt lat="50.06991" lon="4.24077">
        <ele>191</ele>
        <time>2024-04-28T09:35:22Z</time>
      </trkpt>
      <trkpt lat="50.06996" lon="4.24088">
        <ele>189.8</ele>
        <time>2024-04-28T09:35:23Z</time>
      </trkpt>
      <trkpt lat="50.07001" lon="4.24098">
        <ele>189.2</ele>
        <time>2024-04-28T09:35:24Z</time>
      </trkpt>
      <trkpt lat="50.07005" lon="4.24108">
        <ele>188.8</ele>
        <time>2024-04-28T09:35:25Z</time>
      </trkpt>
      <trkpt lat="50.07008" lon="4.24119">
        <ele>188.4</ele>
        <time>2024-04-28T09:35:26Z</time>
      </trkpt>
      <trkpt lat="50.07011" lon="4.24128">
        <ele>188.4</ele>
        <time>2024-04-28T09:35:27Z</time>
      </trkpt>
      <trkpt lat="50.07014" lon="4.24138">
        <ele>188.4</ele>
        <time>2024-04-28T09:35:28Z</time>
      </trkpt>
      <trkpt lat="50.07017" lon="4.24148">
        <ele>188.2</ele>
        <time>2024-04-28T09:35:29Z</time>
      </trkpt>
      <trkpt lat="50.0702" lon="4.24158">
        <ele>188.2</ele>
        <time>2024-04-28T09:35:30Z</time>
      </trkpt>
      <trkpt lat="50.07023" lon="4.24167">
        <ele>188.4</ele>
        <time>2024-04-28T09:35:31Z</time>
      </trkpt>
      <trkpt lat="50.07027" lon="4.24177">
        <ele>188.4</ele>
        <time>2024-04-28T09:35:32Z</time>
      </trkpt>
      <trkpt lat="50.0703" lon="4.24185">
        <ele>188.2</ele>
        <time>2024-04-28T09:35:33Z</time>
      </trkpt>
      <trkpt lat="50.07032" lon="4.24194">
        <ele>188.2</ele>
        <time>2024-04-28T09:35:34Z</time>
      </trkpt>
      <trkpt lat="50.07035" lon="4.24203">
        <ele>188.6</ele>
        <time>2024-04-28T09:35:35Z</time>
      </trkpt>
      <trkpt lat="50.07037" lon="4.24212">
        <ele>188.6</ele>
        <time>2024-04-28T09:35:36Z</time>
      </trkpt>
      <trkpt lat="50.07039" lon="4.24221">
        <ele>188.8</ele>
        <time>2024-04-28T09:35:37Z</time>
      </trkpt>
      <trkpt lat="50.07041" lon="4.2423">
        <ele>189.2</ele>
        <time>2024-04-28T09:35:38Z</time>
      </trkpt>
      <trkpt lat="50.07043" lon="4.24238">
        <ele>189.4</ele>
        <time>2024-04-28T09:35:39Z</time>
      </trkpt>
      <trkpt lat="50.07045" lon="4.24248">
        <ele>189.6</ele>
        <time>2024-04-28T09:35:40Z</time>
      </trkpt>
      <trkpt lat="50.07047" lon="4.24257">
        <ele>189.6</ele>
        <time>2024-04-28T09:35:41Z</time>
      </trkpt>
      <trkpt lat="50.07049" lon="4.24266">
        <ele>190</ele>
        <time>2024-04-28T09:35:42Z</time>
      </trkpt>
      <trkpt lat="50.0705" lon="4.24275">
        <ele>190.6</ele>
        <time>2024-04-28T09:35:43Z</time>
      </trkpt>
      <trkpt lat="50.07052" lon="4.24285">
        <ele>190.6</ele>
        <time>2024-04-28T09:35:44Z</time>
      </trkpt>
      <trkpt lat="50.07054" lon="4.24294">
        <ele>190.8</ele>
        <time>2024-04-28T09:35:45Z</time>
      </trkpt>
      <trkpt lat="50.07055" lon="4.24303">
        <ele>191.2</ele>
        <time>2024-04-28T09:35:46Z</time>
      </trkpt>
      <trkpt lat="50.07057" lon="4.24313">
        <ele>191</ele>
        <time>2024-04-28T09:35:47Z</time>
      </trkpt>
      <trkpt lat="50.07058" lon="4.24322">
        <ele>191.4</ele>
        <time>2024-04-28T09:35:48Z</time>
      </trkpt>
      <trkpt lat="50.07059" lon="4.24332">
        <ele>191.6</ele>
        <time>2024-04-28T09:35:49Z</time>
      </trkpt>
      <trkpt lat="50.0706" lon="4.24341">
        <ele>191.6</ele>
        <time>2024-04-28T09:35:50Z</time>
      </trkpt>
      <trkpt lat="50.07062" lon="4.2435">
        <ele>191.6</ele>
        <time>2024-04-28T09:35:51Z</time>
      </trkpt>
      <trkpt lat="50.07063" lon="4.24359">
        <ele>191.8</ele>
        <time>2024-04-28T09:35:52Z</time>
      </trkpt>
      <trkpt lat="50.07064" lon="4.24368">
        <ele>192</ele>
        <time>2024-04-28T09:35:53Z</time>
      </trkpt>
      <trkpt lat="50.07066" lon="4.24377">
        <ele>192</ele>
        <time>2024-04-28T09:35:54Z</time>
      </trkpt>
      <trkpt lat="50.07067" lon="4.24386">
        <ele>192.2</ele>
        <time>2024-04-28T09:35:55Z</time>
      </trkpt>
      <trkpt lat="50.07068" lon="4.24395">
        <ele>192.4</ele>
        <time>2024-04-28T09:35:56Z</time>
      </trkpt>
      <trkpt lat="50.07069" lon="4.24404">
        <ele>192.6</ele>
        <time>2024-04-28T09:35:57Z</time>
      </trkpt>
      <trkpt lat="50.07071" lon="4.24413">
        <ele>192.6</ele>
        <time>2024-04-28T09:35:58Z</time>
      </trkpt>
      <trkpt lat="50.07072" lon="4.24421">
        <ele>192.6</ele>
        <time>2024-04-28T09:35:59Z</time>
      </trkpt>
      <trkpt lat="50.07073" lon="4.2443">
        <ele>192.8</ele>
        <time>2024-04-28T09:36:00Z</time>
      </trkpt>
      <trkpt lat="50.07074" lon="4.24439">
        <ele>192.8</ele>
        <time>2024-04-28T09:36:01Z</time>
      </trkpt>
      <trkpt lat="50.07075" lon="4.24448">
        <ele>193</ele>
        <time>2024-04-28T09:36:02Z</time>
      </trkpt>
      <trkpt lat="50.07077" lon="4.24456">
        <ele>193</ele>
        <time>2024-04-28T09:36:03Z</time>
      </trkpt>
      <trkpt lat="50.07078" lon="4.24465">
        <ele>193</ele>
        <time>2024-04-28T09:36:04Z</time>
      </trkpt>
      <trkpt lat="50.07079" lon="4.24474">
        <ele>193.2</ele>
        <time>2024-04-28T09:36:05Z</time>
      </trkpt>
      <trkpt lat="50.0708" lon="4.24483">
        <ele>193.2</ele>
        <time>2024-04-28T09:36:06Z</time>
      </trkpt>
      <trkpt lat="50.07081" lon="4.24492">
        <ele>193.4</ele>
        <time>2024-04-28T09:36:07Z</time>
      </trkpt>
      <trkpt lat="50.07082" lon="4.245">
        <ele>193.4</ele>
        <time>2024-04-28T09:36:08Z</time>
      </trkpt>
      <trkpt lat="50.07083" lon="4.24509">
        <ele>193.4</ele>
        <time>2024-04-28T09:36:09Z</time>
      </trkpt>
      <trkpt lat="50.07084" lon="4.24518">
        <ele>193.4</ele>
        <time>2024-04-28T09:36:10Z</time>
      </trkpt>
      <trkpt lat="50.07086" lon="4.24527">
        <ele>193.8</ele>
        <time>2024-04-28T09:36:11Z</time>
      </trkpt>
      <trkpt lat="50.07087" lon="4.24536">
        <ele>193.8</ele>
        <time>2024-04-28T09:36:12Z</time>
      </trkpt>
      <trkpt lat="50.07088" lon="4.24545">
        <ele>193.8</ele>
        <time>2024-04-28T09:36:13Z</time>
      </trkpt>
      <trkpt lat="50.07089" lon="4.24554">
        <ele>194</ele>
        <time>2024-04-28T09:36:14Z</time>
      </trkpt>
      <trkpt lat="50.0709" lon="4.24563">
        <ele>193.8</ele>
        <time>2024-04-28T09:36:15Z</time>
      </trkpt>
      <trkpt lat="50.07091" lon="4.24572">
        <ele>194</ele>
        <time>2024-04-28T09:36:16Z</time>
      </trkpt>
      <trkpt lat="50.07092" lon="4.2458">
        <ele>194</ele>
        <time>2024-04-28T09:36:17Z</time>
      </trkpt>
      <trkpt lat="50.07093" lon="4.24589">
        <ele>194</ele>
        <time>2024-04-28T09:36:18Z</time>
      </trkpt>
      <trkpt lat="50.07094" lon="4.24598">
        <ele>194.2</ele>
        <time>2024-04-28T09:36:19Z</time>
      </trkpt>
      <trkpt lat="50.07096" lon="4.24606">
        <ele>194.2</ele>
        <time>2024-04-28T09:36:20Z</time>
      </trkpt>
      <trkpt lat="50.07097" lon="4.24615">
        <ele>194.4</ele>
        <time>2024-04-28T09:36:21Z</time>
      </trkpt>
      <trkpt lat="50.07098" lon="4.24623">
        <ele>194.4</ele>
        <time>2024-04-28T09:36:22Z</time>
      </trkpt>
      <trkpt lat="50.07099" lon="4.24631">
        <ele>194.6</ele>
        <time>2024-04-28T09:36:23Z</time>
      </trkpt>
      <trkpt lat="50.071" lon="4.2464">
        <ele>194.8</ele>
        <time>2024-04-28T09:36:24Z</time>
      </trkpt>
      <trkpt lat="50.07102" lon="4.24648">
        <ele>194.8</ele>
        <time>2024-04-28T09:36:25Z</time>
      </trkpt>
      <trkpt lat="50.07103" lon="4.24656">
        <ele>194.8</ele>
        <time>2024-04-28T09:36:26Z</time>
      </trkpt>
      <trkpt lat="50.07104" lon="4.24664">
        <ele>195</ele>
        <time>2024-04-28T09:36:27Z</time>
      </trkpt>
      <trkpt lat="50.07105" lon="4.24672">
        <ele>195.4</ele>
        <time>2024-04-28T09:36:28Z</time>
      </trkpt>
      <trkpt lat="50.07107" lon="4.2468">
        <ele>195.6</ele>
        <time>2024-04-28T09:36:29Z</time>
      </trkpt>
      <trkpt lat="50.07108" lon="4.24688">
        <ele>195.8</ele>
        <time>2024-04-28T09:36:30Z</time>
      </trkpt>
      <trkpt lat="50.07108" lon="4.24696">
        <ele>196</ele>
        <time>2024-04-28T09:36:31Z</time>
      </trkpt>
      <trkpt lat="50.07109" lon="4.24704">
        <ele>196.2</ele>
        <time>2024-04-28T09:36:32Z</time>
      </trkpt>
      <trkpt lat="50.0711" lon="4.24713">
        <ele>196.6</ele>
        <time>2024-04-28T09:36:33Z</time>
      </trkpt>
      <trkpt lat="50.0711" lon="4.24721">
        <ele>197</ele>
        <time>2024-04-28T09:36:34Z</time>
      </trkpt>
      <trkpt lat="50.07109" lon="4.2473">
        <ele>197.2</ele>
        <time>2024-04-28T09:36:35Z</time>
      </trkpt>
      <trkpt lat="50.07109" lon="4.24738">
        <ele>197.2</ele>
        <time>2024-04-28T09:36:36Z</time>
      </trkpt>
      <trkpt lat="50.07109" lon="4.24747">
        <ele>197.4</ele>
        <time>2024-04-28T09:36:37Z</time>
      </trkpt>
      <trkpt lat="50.07108" lon="4.24755">
        <ele>197.6</ele>
        <time>2024-04-28T09:36:38Z</time>
      </trkpt>
      <trkpt lat="50.07108" lon="4.24764">
        <ele>197.6</ele>
        <time>2024-04-28T09:36:39Z</time>
      </trkpt>
      <trkpt lat="50.07108" lon="4.24772">
        <ele>197.6</ele>
        <time>2024-04-28T09:36:40Z</time>
      </trkpt>
      <trkpt lat="50.07108" lon="4.2478">
        <ele>197.6</ele>
        <time>2024-04-28T09:36:41Z</time>
      </trkpt>
      <trkpt lat="50.07108" lon="4.24788">
        <ele>197.6</ele>
        <time>2024-04-28T09:36:42Z</time>
      </trkpt>
      <trkpt lat="50.07109" lon="4.24796">
        <ele>197.8</ele>
        <time>2024-04-28T09:36:43Z</time>
      </trkpt>
      <trkpt lat="50.07111" lon="4.24804">
        <ele>197.6</ele>
        <time>2024-04-28T09:36:44Z</time>
      </trkpt>
      <trkpt lat="50.07113" lon="4.24812">
        <ele>197.8</ele>
        <time>2024-04-28T09:36:45Z</time>
      </trkpt>
      <trkpt lat="50.07115" lon="4.2482">
        <ele>197.8</ele>
        <time>2024-04-28T09:36:46Z</time>
      </trkpt>
      <trkpt lat="50.07117" lon="4.24827">
        <ele>197.6</ele>
        <time>2024-04-28T09:36:47Z</time>
      </trkpt>
      <trkpt lat="50.0712" lon="4.24836">
        <ele>197.6</ele>
        <time>2024-04-28T09:36:48Z</time>
      </trkpt>
      <trkpt lat="50.07124" lon="4.24844">
        <ele>197.8</ele>
        <time>2024-04-28T09:36:49Z</time>
      </trkpt>
      <trkpt lat="50.07127" lon="4.24852">
        <ele>197.6</ele>
        <time>2024-04-28T09:36:50Z</time>
      </trkpt>
      <trkpt lat="50.07131" lon="4.2486">
        <ele>197.6</ele>
        <time>2024-04-28T09:36:51Z</time>
      </trkpt>
      <trkpt lat="50.07134" lon="4.24868">
        <ele>197.4</ele>
        <time>2024-04-28T09:36:52Z</time>
      </trkpt>
      <trkpt lat="50.07138" lon="4.24876">
        <ele>197.4</ele>
        <time>2024-04-28T09:36:53Z</time>
      </trkpt>
      <trkpt lat="50.07142" lon="4.24885">
        <ele>197.4</ele>
        <time>2024-04-28T09:36:54Z</time>
      </trkpt>
      <trkpt lat="50.07145" lon="4.24893">
        <ele>197.4</ele>
        <time>2024-04-28T09:36:55Z</time>
      </trkpt>
      <trkpt lat="50.07149" lon="4.24901">
        <ele>197.4</ele>
        <time>2024-04-28T09:36:56Z</time>
      </trkpt>
      <trkpt lat="50.07152" lon="4.24909">
        <ele>197.2</ele>
        <time>2024-04-28T09:36:57Z</time>
      </trkpt>
      <trkpt lat="50.07156" lon="4.24917">
        <ele>197.2</ele>
        <time>2024-04-28T09:36:58Z</time>
      </trkpt>
      <trkpt lat="50.07159" lon="4.24926">
        <ele>197.4</ele>
        <time>2024-04-28T09:36:59Z</time>
      </trkpt>
      <trkpt lat="50.07162" lon="4.24934">
        <ele>197.4</ele>
        <time>2024-04-28T09:37:00Z</time>
      </trkpt>
      <trkpt lat="50.07165" lon="4.24942">
        <ele>197.2</ele>
        <time>2024-04-28T09:37:01Z</time>
      </trkpt>
      <trkpt lat="50.07168" lon="4.24951">
        <ele>197.4</ele>
        <time>2024-04-28T09:37:02Z</time>
      </trkpt>
      <trkpt lat="50.07171" lon="4.24959">
        <ele>197.6</ele>
        <time>2024-04-28T09:37:03Z</time>
      </trkpt>
      <trkpt lat="50.07174" lon="4.24968">
        <ele>197.6</ele>
        <time>2024-04-28T09:37:04Z</time>
      </trkpt>
      <trkpt lat="50.07177" lon="4.24977">
        <ele>197.6</ele>
        <time>2024-04-28T09:37:05Z</time>
      </trkpt>
      <trkpt lat="50.07179" lon="4.24986">
        <ele>197.6</ele>
        <time>2024-04-28T09:37:06Z</time>
      </trkpt>
      <trkpt lat="50.07182" lon="4.24994">
        <ele>197.6</ele>
        <time>2024-04-28T09:37:07Z</time>
      </trkpt>
      <trkpt lat="50.07185" lon="4.25002">
        <ele>197.6</ele>
        <time>2024-04-28T09:37:08Z</time>
      </trkpt>
      <trkpt lat="50.07187" lon="4.25011">
        <ele>197.8</ele>
        <time>2024-04-28T09:37:09Z</time>
      </trkpt>
      <trkpt lat="50.07189" lon="4.25019">
        <ele>197.8</ele>
        <time>2024-04-28T09:37:10Z</time>
      </trkpt>
      <trkpt lat="50.07191" lon="4.25025">
        <ele>197.8</ele>
        <time>2024-04-28T09:37:11Z</time>
      </trkpt>
      <trkpt lat="50.07192" lon="4.25031">
        <ele>198</ele>
        <time>2024-04-28T09:37:12Z</time>
      </trkpt>
      <trkpt lat="50.07194" lon="4.25036">
        <ele>198</ele>
        <time>2024-04-28T09:37:13Z</time>
      </trkpt>
      <trkpt lat="50.07195" lon="4.25042">
        <ele>198</ele>
        <time>2024-04-28T09:37:14Z</time>
      </trkpt>
      <trkpt lat="50.07196" lon="4.25047">
        <ele>198</ele>
        <time>2024-04-28T09:37:15Z</time>
      </trkpt>
      <trkpt lat="50.07198" lon="4.25053">
        <ele>198</ele>
        <time>2024-04-28T09:37:16Z</time>
      </trkpt>
      <trkpt lat="50.07199" lon="4.25059">
        <ele>198</ele>
        <time>2024-04-28T09:37:17Z</time>
      </trkpt>
      <trkpt lat="50.07201" lon="4.25065">
        <ele>198</ele>
        <time>2024-04-28T09:37:18Z</time>
      </trkpt>
      <trkpt lat="50.07203" lon="4.2507">
        <ele>198</ele>
        <time>2024-04-28T09:37:19Z</time>
      </trkpt>
      <trkpt lat="50.07204" lon="4.25076">
        <ele>198</ele>
        <time>2024-04-28T09:37:20Z</time>
      </trkpt>
      <trkpt lat="50.07206" lon="4.25082">
        <ele>197.8</ele>
        <time>2024-04-28T09:37:21Z</time>
      </trkpt>
      <trkpt lat="50.07207" lon="4.25089">
        <ele>197.8</ele>
        <time>2024-04-28T09:37:22Z</time>
      </trkpt>
      <trkpt lat="50.07209" lon="4.25094">
        <ele>197.6</ele>
        <time>2024-04-28T09:37:23Z</time>
      </trkpt>
      <trkpt lat="50.0721" lon="4.25098">
        <ele>197.8</ele>
        <time>2024-04-28T09:37:24Z</time>
      </trkpt>
      <trkpt lat="50.07212" lon="4.251">
        <ele>197.6</ele>
        <time>2024-04-28T09:37:25Z</time>
      </trkpt>
      <trkpt lat="50.07212" lon="4.25102">
        <ele>197.8</ele>
        <time>2024-04-28T09:37:26Z</time>
      </trkpt>
      <trkpt lat="50.07213" lon="4.25103">
        <ele>197.8</ele>
        <time>2024-04-28T09:37:27Z</time>
      </trkpt>
      <trkpt lat="50.07213" lon="4.25103">
        <ele>197.6</ele>
        <time>2024-04-28T09:37:28Z</time>
      </trkpt>
      <trkpt lat="50.07212" lon="4.25103">
        <ele>197.6</ele>
        <time>2024-04-28T09:37:29Z</time>
      </trkpt>
      <trkpt lat="50.07213" lon="4.25105">
        <ele>197.6</ele>
        <time>2024-04-28T09:37:30Z</time>
      </trkpt>
      <trkpt lat="50.07214" lon="4.25108">
        <ele>197.4</ele>
        <time>2024-04-28T09:37:31Z</time>
      </trkpt>
      <trkpt lat="50.07214" lon="4.25112">
        <ele>197.4</ele>
        <time>2024-04-28T09:37:32Z</time>
      </trkpt>
      <trkpt lat="50.07216" lon="4.25116">
        <ele>197.2</ele>
        <time>2024-04-28T09:37:33Z</time>
      </trkpt>
      <trkpt lat="50.07216" lon="4.25121">
        <ele>197.2</ele>
        <time>2024-04-28T09:37:34Z</time>
      </trkpt>
      <trkpt lat="50.07217" lon="4.25128">
        <ele>197</ele>
        <time>2024-04-28T09:37:35Z</time>
      </trkpt>
      <trkpt lat="50.07218" lon="4.25135">
        <ele>197</ele>
        <time>2024-04-28T09:37:36Z</time>
      </trkpt>
      <trkpt lat="50.07219" lon="4.25143">
        <ele>197</ele>
        <time>2024-04-28T09:37:37Z</time>
      </trkpt>
      <trkpt lat="50.0722" lon="4.25152">
        <ele>196.8</ele>
        <time>2024-04-28T09:37:38Z</time>
      </trkpt>
      <trkpt lat="50.07221" lon="4.25161">
        <ele>197</ele>
        <time>2024-04-28T09:37:39Z</time>
      </trkpt>
      <trkpt lat="50.07222" lon="4.25171">
        <ele>197</ele>
        <time>2024-04-28T09:37:40Z</time>
      </trkpt>
      <trkpt lat="50.07223" lon="4.25182">
        <ele>196.8</ele>
        <time>2024-04-28T09:37:41Z</time>
      </trkpt>
      <trkpt lat="50.07224" lon="4.25193">
        <ele>196.8</ele>
        <time>2024-04-28T09:37:42Z</time>
      </trkpt>
      <trkpt lat="50.07225" lon="4.25204">
        <ele>196.6</ele>
        <time>2024-04-28T09:37:43Z</time>
      </trkpt>
      <trkpt lat="50.07225" lon="4.25215">
        <ele>195.8</ele>
        <time>2024-04-28T09:37:44Z</time>
      </trkpt>
      <trkpt lat="50.07225" lon="4.25227">
        <ele>195.2</ele>
        <time>2024-04-28T09:37:45Z</time>
      </trkpt>
      <trkpt lat="50.07225" lon="4.25238">
        <ele>194.6</ele>
        <time>2024-04-28T09:37:46Z</time>
      </trkpt>
      <trkpt lat="50.07225" lon="4.25251">
        <ele>194.2</ele>
        <time>2024-04-28T09:37:47Z</time>
      </trkpt>
      <trkpt lat="50.07224" lon="4.25263">
        <ele>193.8</ele>
        <time>2024-04-28T09:37:48Z</time>
      </trkpt>
      <trkpt lat="50.07224" lon="4.25275">
        <ele>193.8</ele>
        <time>2024-04-28T09:37:49Z</time>
      </trkpt>
      <trkpt lat="50.07224" lon="4.25287">
        <ele>193.4</ele>
        <time>2024-04-28T09:37:50Z</time>
      </trkpt>
      <trkpt lat="50.07223" lon="4.25299">
        <ele>193</ele>
        <time>2024-04-28T09:37:51Z</time>
      </trkpt>
      <trkpt lat="50.07223" lon="4.25311">
        <ele>192.6</ele>
        <time>2024-04-28T09:37:52Z</time>
      </trkpt>
      <trkpt lat="50.07223" lon="4.25323">
        <ele>192.6</ele>
        <time>2024-04-28T09:37:53Z</time>
      </trkpt>
      <trkpt lat="50.07222" lon="4.25335">
        <ele>192.6</ele>
        <time>2024-04-28T09:37:54Z</time>
      </trkpt>
      <trkpt lat="50.07221" lon="4.25347">
        <ele>192.2</ele>
        <time>2024-04-28T09:37:55Z</time>
      </trkpt>
      <trkpt lat="50.07221" lon="4.25359">
        <ele>192</ele>
        <time>2024-04-28T09:37:56Z</time>
      </trkpt>
      <trkpt lat="50.07221" lon="4.25372">
        <ele>191.8</ele>
        <time>2024-04-28T09:37:57Z</time>
      </trkpt>
      <trkpt lat="50.07221" lon="4.25384">
        <ele>191.8</ele>
        <time>2024-04-28T09:37:58Z</time>
      </trkpt>
      <trkpt lat="50.07221" lon="4.25396">
        <ele>191.8</ele>
        <time>2024-04-28T09:37:59Z</time>
      </trkpt>
      <trkpt lat="50.07221" lon="4.25409">
        <ele>191.8</ele>
        <time>2024-04-28T09:38:00Z</time>
      </trkpt>
      <trkpt lat="50.07221" lon="4.25421">
        <ele>191.6</ele>
        <time>2024-04-28T09:38:01Z</time>
      </trkpt>
      <trkpt lat="50.07221" lon="4.25433">
        <ele>191.6</ele>
        <time>2024-04-28T09:38:02Z</time>
      </trkpt>
      <trkpt lat="50.07221" lon="4.25446">
        <ele>191.6</ele>
        <time>2024-04-28T09:38:03Z</time>
      </trkpt>
      <trkpt lat="50.07221" lon="4.25458">
        <ele>191.6</ele>
        <time>2024-04-28T09:38:04Z</time>
      </trkpt>
      <trkpt lat="50.07221" lon="4.2547">
        <ele>191.6</ele>
        <time>2024-04-28T09:38:05Z</time>
      </trkpt>
      <trkpt lat="50.07221" lon="4.25481">
        <ele>191.6</ele>
        <time>2024-04-28T09:38:06Z</time>
      </trkpt>
      <trkpt lat="50.07221" lon="4.25493">
        <ele>191.6</ele>
        <time>2024-04-28T09:38:07Z</time>
      </trkpt>
      <trkpt lat="50.07221" lon="4.25505">
        <ele>191.8</ele>
        <time>2024-04-28T09:38:08Z</time>
      </trkpt>
      <trkpt lat="50.07221" lon="4.25516">
        <ele>191.8</ele>
        <time>2024-04-28T09:38:09Z</time>
      </trkpt>
      <trkpt lat="50.0722" lon="4.25528">
        <ele>191.6</ele>
        <time>2024-04-28T09:38:10Z</time>
      </trkpt>
      <trkpt lat="50.07221" lon="4.2554">
        <ele>191.6</ele>
        <time>2024-04-28T09:38:11Z</time>
      </trkpt>
      <trkpt lat="50.07221" lon="4.25552">
        <ele>191.6</ele>
        <time>2024-04-28T09:38:12Z</time>
      </trkpt>
      <trkpt lat="50.07222" lon="4.25564">
        <ele>191.6</ele>
        <time>2024-04-28T09:38:13Z</time>
      </trkpt>
      <trkpt lat="50.07223" lon="4.25576">
        <ele>191.6</ele>
        <time>2024-04-28T09:38:14Z</time>
      </trkpt>
      <trkpt lat="50.07224" lon="4.25588">
        <ele>191.6</ele>
        <time>2024-04-28T09:38:15Z</time>
      </trkpt>
      <trkpt lat="50.07225" lon="4.256">
        <ele>191.8</ele>
        <time>2024-04-28T09:38:16Z</time>
      </trkpt>
      <trkpt lat="50.07227" lon="4.25612">
        <ele>192</ele>
        <time>2024-04-28T09:38:17Z</time>
      </trkpt>
      <trkpt lat="50.07228" lon="4.25625">
        <ele>192</ele>
        <time>2024-04-28T09:38:18Z</time>
      </trkpt>
      <trkpt lat="50.0723" lon="4.25637">
        <ele>191.8</ele>
        <time>2024-04-28T09:38:19Z</time>
      </trkpt>
      <trkpt lat="50.07231" lon="4.2565">
        <ele>192</ele>
        <time>2024-04-28T09:38:20Z</time>
      </trkpt>
      <trkpt lat="50.07232" lon="4.25663">
        <ele>191.8</ele>
        <time>2024-04-28T09:38:21Z</time>
      </trkpt>
      <trkpt lat="50.07234" lon="4.25676">
        <ele>191.8</ele>
        <time>2024-04-28T09:38:22Z</time>
      </trkpt>
      <trkpt lat="50.07235" lon="4.25689">
        <ele>192</ele>
        <time>2024-04-28T09:38:23Z</time>
      </trkpt>
      <trkpt lat="50.07236" lon="4.25701">
        <ele>192</ele>
        <time>2024-04-28T09:38:24Z</time>
      </trkpt>
      <trkpt lat="50.07237" lon="4.25714">
        <ele>192</ele>
        <time>2024-04-28T09:38:25Z</time>
      </trkpt>
      <trkpt lat="50.07238" lon="4.25727">
        <ele>192</ele>
        <time>2024-04-28T09:38:26Z</time>
      </trkpt>
      <trkpt lat="50.07238" lon="4.2574">
        <ele>192</ele>
        <time>2024-04-28T09:38:27Z</time>
      </trkpt>
      <trkpt lat="50.07238" lon="4.25754">
        <ele>191.6</ele>
        <time>2024-04-28T09:38:28Z</time>
      </trkpt>
      <trkpt lat="50.07237" lon="4.25768">
        <ele>191.4</ele>
        <time>2024-04-28T09:38:29Z</time>
      </trkpt>
      <trkpt lat="50.07236" lon="4.25783">
        <ele>191.4</ele>
        <time>2024-04-28T09:38:30Z</time>
      </trkpt>
      <trkpt lat="50.07234" lon="4.25798">
        <ele>191.4</ele>
        <time>2024-04-28T09:38:31Z</time>
      </trkpt>
      <trkpt lat="50.07231" lon="4.25812">
        <ele>191.2</ele>
        <time>2024-04-28T09:38:32Z</time>
      </trkpt>
      <trkpt lat="50.07229" lon="4.25826">
        <ele>191.2</ele>
        <time>2024-04-28T09:38:33Z</time>
      </trkpt>
      <trkpt lat="50.07227" lon="4.2584">
        <ele>191.2</ele>
        <time>2024-04-28T09:38:34Z</time>
      </trkpt>
      <trkpt lat="50.07226" lon="4.25854">
        <ele>190.8</ele>
        <time>2024-04-28T09:38:35Z</time>
      </trkpt>
      <trkpt lat="50.07226" lon="4.25868">
        <ele>190.8</ele>
        <time>2024-04-28T09:38:36Z</time>
      </trkpt>
      <trkpt lat="50.07228" lon="4.25882">
        <ele>190.4</ele>
        <time>2024-04-28T09:38:37Z</time>
      </trkpt>
      <trkpt lat="50.07232" lon="4.25893">
        <ele>190</ele>
        <time>2024-04-28T09:38:38Z</time>
      </trkpt>
      <trkpt lat="50.07237" lon="4.25904">
        <ele>189.6</ele>
        <time>2024-04-28T09:38:39Z</time>
      </trkpt>
      <trkpt lat="50.07243" lon="4.25914">
        <ele>188.8</ele>
        <time>2024-04-28T09:38:40Z</time>
      </trkpt>
      <trkpt lat="50.07247" lon="4.25925">
        <ele>188</ele>
        <time>2024-04-28T09:38:41Z</time>
      </trkpt>
      <trkpt lat="50.07251" lon="4.25936">
        <ele>187.4</ele>
        <time>2024-04-28T09:38:42Z</time>
      </trkpt>
      <trkpt lat="50.07255" lon="4.25947">
        <ele>187.2</ele>
        <time>2024-04-28T09:38:43Z</time>
      </trkpt>
      <trkpt lat="50.07258" lon="4.25959">
        <ele>187</ele>
        <time>2024-04-28T09:38:44Z</time>
      </trkpt>
      <trkpt lat="50.0726" lon="4.2597">
        <ele>186.8</ele>
        <time>2024-04-28T09:38:45Z</time>
      </trkpt>
      <trkpt lat="50.07262" lon="4.25981">
        <ele>186.8</ele>
        <time>2024-04-28T09:38:46Z</time>
      </trkpt>
      <trkpt lat="50.07264" lon="4.25992">
        <ele>187</ele>
        <time>2024-04-28T09:38:47Z</time>
      </trkpt>
      <trkpt lat="50.07265" lon="4.26003">
        <ele>187</ele>
        <time>2024-04-28T09:38:48Z</time>
      </trkpt>
      <trkpt lat="50.07266" lon="4.26014">
        <ele>186.8</ele>
        <time>2024-04-28T09:38:49Z</time>
      </trkpt>
      <trkpt lat="50.07267" lon="4.26024">
        <ele>187</ele>
        <time>2024-04-28T09:38:50Z</time>
      </trkpt>
      <trkpt lat="50.07268" lon="4.26033">
        <ele>187.2</ele>
        <time>2024-04-28T09:38:51Z</time>
      </trkpt>
      <trkpt lat="50.07269" lon="4.26043">
        <ele>187.6</ele>
        <time>2024-04-28T09:38:52Z</time>
      </trkpt>
      <trkpt lat="50.0727" lon="4.26052">
        <ele>187.8</ele>
        <time>2024-04-28T09:38:53Z</time>
      </trkpt>
      <trkpt lat="50.07271" lon="4.26062">
        <ele>188.4</ele>
        <time>2024-04-28T09:38:54Z</time>
      </trkpt>
      <trkpt lat="50.07272" lon="4.26071">
        <ele>189.4</ele>
        <time>2024-04-28T09:38:55Z</time>
      </trkpt>
      <trkpt lat="50.07272" lon="4.2608">
        <ele>190</ele>
        <time>2024-04-28T09:38:56Z</time>
      </trkpt>
      <trkpt lat="50.07273" lon="4.26088">
        <ele>190.2</ele>
        <time>2024-04-28T09:38:57Z</time>
      </trkpt>
      <trkpt lat="50.07274" lon="4.26097">
        <ele>190.4</ele>
        <time>2024-04-28T09:38:58Z</time>
      </trkpt>
      <trkpt lat="50.07275" lon="4.26106">
        <ele>190.8</ele>
        <time>2024-04-28T09:38:59Z</time>
      </trkpt>
      <trkpt lat="50.07276" lon="4.26115">
        <ele>191.4</ele>
        <time>2024-04-28T09:39:00Z</time>
      </trkpt>
      <trkpt lat="50.07276" lon="4.26124">
        <ele>191.8</ele>
        <time>2024-04-28T09:39:01Z</time>
      </trkpt>
      <trkpt lat="50.07277" lon="4.26132">
        <ele>192.8</ele>
        <time>2024-04-28T09:39:02Z</time>
      </trkpt>
      <trkpt lat="50.07278" lon="4.26141">
        <ele>193.4</ele>
        <time>2024-04-28T09:39:03Z</time>
      </trkpt>
      <trkpt lat="50.07279" lon="4.2615">
        <ele>193.6</ele>
        <time>2024-04-28T09:39:04Z</time>
      </trkpt>
      <trkpt lat="50.07279" lon="4.26158">
        <ele>193.6</ele>
        <time>2024-04-28T09:39:05Z</time>
      </trkpt>
      <trkpt lat="50.0728" lon="4.26167">
        <ele>194</ele>
        <time>2024-04-28T09:39:06Z</time>
      </trkpt>
      <trkpt lat="50.07281" lon="4.26175">
        <ele>194.2</ele>
        <time>2024-04-28T09:39:07Z</time>
      </trkpt>
      <trkpt lat="50.07281" lon="4.26184">
        <ele>194.8</ele>
        <time>2024-04-28T09:39:08Z</time>
      </trkpt>
      <trkpt lat="50.07282" lon="4.26192">
        <ele>195</ele>
        <time>2024-04-28T09:39:09Z</time>
      </trkpt>
      <trkpt lat="50.07283" lon="4.262">
        <ele>195</ele>
        <time>2024-04-28T09:39:10Z</time>
      </trkpt>
      <trkpt lat="50.07284" lon="4.26208">
        <ele>195.2</ele>
        <time>2024-04-28T09:39:11Z</time>
      </trkpt>
      <trkpt lat="50.07285" lon="4.26216">
        <ele>196</ele>
        <time>2024-04-28T09:39:12Z</time>
      </trkpt>
      <trkpt lat="50.07286" lon="4.26225">
        <ele>196.4</ele>
        <time>2024-04-28T09:39:13Z</time>
      </trkpt>
      <trkpt lat="50.07287" lon="4.26233">
        <ele>196.6</ele>
        <time>2024-04-28T09:39:14Z</time>
      </trkpt>
      <trkpt lat="50.07288" lon="4.26242">
        <ele>196.8</ele>
        <time>2024-04-28T09:39:15Z</time>
      </trkpt>
      <trkpt lat="50.07289" lon="4.2625">
        <ele>196.8</ele>
        <time>2024-04-28T09:39:16Z</time>
      </trkpt>
      <trkpt lat="50.07289" lon="4.26258">
        <ele>197.4</ele>
        <time>2024-04-28T09:39:17Z</time>
      </trkpt>
      <trkpt lat="50.0729" lon="4.26266">
        <ele>197.6</ele>
        <time>2024-04-28T09:39:18Z</time>
      </trkpt>
      <trkpt lat="50.07292" lon="4.26274">
        <ele>198.2</ele>
        <time>2024-04-28T09:39:19Z</time>
      </trkpt>
      <trkpt lat="50.07292" lon="4.26282">
        <ele>198.4</ele>
        <time>2024-04-28T09:39:20Z</time>
      </trkpt>
      <trkpt lat="50.07293" lon="4.2629">
        <ele>198.8</ele>
        <time>2024-04-28T09:39:21Z</time>
      </trkpt>
      <trkpt lat="50.07294" lon="4.26298">
        <ele>199.4</ele>
        <time>2024-04-28T09:39:22Z</time>
      </trkpt>
      <trkpt lat="50.07295" lon="4.26307">
        <ele>199.8</ele>
        <time>2024-04-28T09:39:23Z</time>
      </trkpt>
      <trkpt lat="50.07295" lon="4.26316">
        <ele>199.8</ele>
        <time>2024-04-28T09:39:24Z</time>
      </trkpt>
      <trkpt lat="50.07295" lon="4.26324">
        <ele>200.2</ele>
        <time>2024-04-28T09:39:25Z</time>
      </trkpt>
      <trkpt lat="50.07296" lon="4.26332">
        <ele>200.2</ele>
        <time>2024-04-28T09:39:26Z</time>
      </trkpt>
      <trkpt lat="50.07297" lon="4.2634">
        <ele>200.4</ele>
        <time>2024-04-28T09:39:27Z</time>
      </trkpt>
      <trkpt lat="50.07298" lon="4.26348">
        <ele>200.6</ele>
        <time>2024-04-28T09:39:28Z</time>
      </trkpt>
      <trkpt lat="50.07299" lon="4.26356">
        <ele>201.2</ele>
        <time>2024-04-28T09:39:29Z</time>
      </trkpt>
      <trkpt lat="50.073" lon="4.26364">
        <ele>201.6</ele>
        <time>2024-04-28T09:39:30Z</time>
      </trkpt>
      <trkpt lat="50.073" lon="4.26372">
        <ele>201.8</ele>
        <time>2024-04-28T09:39:31Z</time>
      </trkpt>
      <trkpt lat="50.07301" lon="4.2638">
        <ele>202.2</ele>
        <time>2024-04-28T09:39:32Z</time>
      </trkpt>
      <trkpt lat="50.07301" lon="4.26388">
        <ele>202.6</ele>
        <time>2024-04-28T09:39:33Z</time>
      </trkpt>
      <trkpt lat="50.07302" lon="4.26396">
        <ele>203</ele>
        <time>2024-04-28T09:39:34Z</time>
      </trkpt>
      <trkpt lat="50.07303" lon="4.26404">
        <ele>203.4</ele>
        <time>2024-04-28T09:39:35Z</time>
      </trkpt>
      <trkpt lat="50.07303" lon="4.26412">
        <ele>203.6</ele>
        <time>2024-04-28T09:39:36Z</time>
      </trkpt>
      <trkpt lat="50.07304" lon="4.2642">
        <ele>204.2</ele>
        <time>2024-04-28T09:39:37Z</time>
      </trkpt>
      <trkpt lat="50.07304" lon="4.26428">
        <ele>204.4</ele>
        <time>2024-04-28T09:39:38Z</time>
      </trkpt>
      <trkpt lat="50.07305" lon="4.26435">
        <ele>204.6</ele>
        <time>2024-04-28T09:39:39Z</time>
      </trkpt>
      <trkpt lat="50.07305" lon="4.26443">
        <ele>204.6</ele>
        <time>2024-04-28T09:39:40Z</time>
      </trkpt>
      <trkpt lat="50.07306" lon="4.2645">
        <ele>204.6</ele>
        <time>2024-04-28T09:39:41Z</time>
      </trkpt>
      <trkpt lat="50.07307" lon="4.26458">
        <ele>204.8</ele>
        <time>2024-04-28T09:39:42Z</time>
      </trkpt>
      <trkpt lat="50.07307" lon="4.26465">
        <ele>204.8</ele>
        <time>2024-04-28T09:39:43Z</time>
      </trkpt>
      <trkpt lat="50.07307" lon="4.26472">
        <ele>205</ele>
        <time>2024-04-28T09:39:44Z</time>
      </trkpt>
      <trkpt lat="50.07307" lon="4.2648">
        <ele>205</ele>
        <time>2024-04-28T09:39:45Z</time>
      </trkpt>
      <trkpt lat="50.07307" lon="4.26487">
        <ele>205</ele>
        <time>2024-04-28T09:39:46Z</time>
      </trkpt>
      <trkpt lat="50.07308" lon="4.26494">
        <ele>205.4</ele>
        <time>2024-04-28T09:39:47Z</time>
      </trkpt>
      <trkpt lat="50.07308" lon="4.26502">
        <ele>205.4</ele>
        <time>2024-04-28T09:39:48Z</time>
      </trkpt>
      <trkpt lat="50.07308" lon="4.26509">
        <ele>205.6</ele>
        <time>2024-04-28T09:39:49Z</time>
      </trkpt>
      <trkpt lat="50.07308" lon="4.26515">
        <ele>205.8</ele>
        <time>2024-04-28T09:39:50Z</time>
      </trkpt>
      <trkpt lat="50.07308" lon="4.26522">
        <ele>206.2</ele>
        <time>2024-04-28T09:39:51Z</time>
      </trkpt>
      <trkpt lat="50.07308" lon="4.26529">
        <ele>206.6</ele>
        <time>2024-04-28T09:39:52Z</time>
      </trkpt>
      <trkpt lat="50.07308" lon="4.26536">
        <ele>206.8</ele>
        <time>2024-04-28T09:39:53Z</time>
      </trkpt>
      <trkpt lat="50.07308" lon="4.26542">
        <ele>207.4</ele>
        <time>2024-04-28T09:39:54Z</time>
      </trkpt>
      <trkpt lat="50.07308" lon="4.26549">
        <ele>208</ele>
        <time>2024-04-28T09:39:55Z</time>
      </trkpt>
      <trkpt lat="50.07308" lon="4.26555">
        <ele>208.6</ele>
        <time>2024-04-28T09:39:56Z</time>
      </trkpt>
      <trkpt lat="50.07308" lon="4.26562">
        <ele>209</ele>
        <time>2024-04-28T09:39:57Z</time>
      </trkpt>
      <trkpt lat="50.07307" lon="4.26567">
        <ele>209.2</ele>
        <time>2024-04-28T09:39:58Z</time>
      </trkpt>
      <trkpt lat="50.07307" lon="4.26574">
        <ele>209.4</ele>
        <time>2024-04-28T09:39:59Z</time>
      </trkpt>
      <trkpt lat="50.07307" lon="4.2658">
        <ele>209.6</ele>
        <time>2024-04-28T09:40:00Z</time>
      </trkpt>
      <trkpt lat="50.07307" lon="4.26587">
        <ele>209.8</ele>
        <time>2024-04-28T09:40:01Z</time>
      </trkpt>
      <trkpt lat="50.07306" lon="4.26592">
        <ele>210.2</ele>
        <time>2024-04-28T09:40:02Z</time>
      </trkpt>
      <trkpt lat="50.07306" lon="4.26599">
        <ele>210.2</ele>
        <time>2024-04-28T09:40:03Z</time>
      </trkpt>
      <trkpt lat="50.07305" lon="4.26605">
        <ele>210.6</ele>
        <time>2024-04-28T09:40:04Z</time>
      </trkpt>
      <trkpt lat="50.07305" lon="4.26612">
        <ele>210.6</ele>
        <time>2024-04-28T09:40:05Z</time>
      </trkpt>
      <trkpt lat="50.07304" lon="4.26618">
        <ele>210.8</ele>
        <time>2024-04-28T09:40:06Z</time>
      </trkpt>
      <trkpt lat="50.07304" lon="4.26625">
        <ele>211.2</ele>
        <time>2024-04-28T09:40:07Z</time>
      </trkpt>
      <trkpt lat="50.07304" lon="4.26631">
        <ele>211.6</ele>
        <time>2024-04-28T09:40:08Z</time>
      </trkpt>
      <trkpt lat="50.07304" lon="4.26638">
        <ele>212</ele>
        <time>2024-04-28T09:40:09Z</time>
      </trkpt>
      <trkpt lat="50.07303" lon="4.26644">
        <ele>212.4</ele>
        <time>2024-04-28T09:40:10Z</time>
      </trkpt>
      <trkpt lat="50.07303" lon="4.26651">
        <ele>212.4</ele>
        <time>2024-04-28T09:40:11Z</time>
      </trkpt>
      <trkpt lat="50.07302" lon="4.26658">
        <ele>212.8</ele>
        <time>2024-04-28T09:40:12Z</time>
      </trkpt>
      <trkpt lat="50.07302" lon="4.26665">
        <ele>212.8</ele>
        <time>2024-04-28T09:40:13Z</time>
      </trkpt>
      <trkpt lat="50.07301" lon="4.26672">
        <ele>213.2</ele>
        <time>2024-04-28T09:40:14Z</time>
      </trkpt>
      <trkpt lat="50.07301" lon="4.26679">
        <ele>213.2</ele>
        <time>2024-04-28T09:40:15Z</time>
      </trkpt>
      <trkpt lat="50.073" lon="4.26686">
        <ele>213.2</ele>
        <time>2024-04-28T09:40:16Z</time>
      </trkpt>
      <trkpt lat="50.073" lon="4.26692">
        <ele>213.6</ele>
        <time>2024-04-28T09:40:17Z</time>
      </trkpt>
      <trkpt lat="50.07299" lon="4.26699">
        <ele>214</ele>
        <time>2024-04-28T09:40:18Z</time>
      </trkpt>
      <trkpt lat="50.07299" lon="4.26705">
        <ele>214.2</ele>
        <time>2024-04-28T09:40:19Z</time>
      </trkpt>
      <trkpt lat="50.07299" lon="4.26711">
        <ele>214.4</ele>
        <time>2024-04-28T09:40:20Z</time>
      </trkpt>
      <trkpt lat="50.07298" lon="4.26718">
        <ele>214.4</ele>
        <time>2024-04-28T09:40:21Z</time>
      </trkpt>
      <trkpt lat="50.07298" lon="4.26724">
        <ele>214.6</ele>
        <time>2024-04-28T09:40:22Z</time>
      </trkpt>
      <trkpt lat="50.07298" lon="4.26731">
        <ele>214.8</ele>
        <time>2024-04-28T09:40:23Z</time>
      </trkpt>
      <trkpt lat="50.07297" lon="4.26738">
        <ele>215</ele>
        <time>2024-04-28T09:40:24Z</time>
      </trkpt>
      <trkpt lat="50.07297" lon="4.26745">
        <ele>215.4</ele>
        <time>2024-04-28T09:40:25Z</time>
      </trkpt>
      <trkpt lat="50.07297" lon="4.26751">
        <ele>215.6</ele>
        <time>2024-04-28T09:40:26Z</time>
      </trkpt>
      <trkpt lat="50.07296" lon="4.26758">
        <ele>215.8</ele>
        <time>2024-04-28T09:40:27Z</time>
      </trkpt>
      <trkpt lat="50.07296" lon="4.26765">
        <ele>216.2</ele>
        <time>2024-04-28T09:40:28Z</time>
      </trkpt>
      <trkpt lat="50.07296" lon="4.26772">
        <ele>216.8</ele>
        <time>2024-04-28T09:40:29Z</time>
      </trkpt>
      <trkpt lat="50.07295" lon="4.26779">
        <ele>217</ele>
        <time>2024-04-28T09:40:30Z</time>
      </trkpt>
      <trkpt lat="50.07295" lon="4.26786">
        <ele>217</ele>
        <time>2024-04-28T09:40:31Z</time>
      </trkpt>
      <trkpt lat="50.07295" lon="4.26793">
        <ele>217.2</ele>
        <time>2024-04-28T09:40:32Z</time>
      </trkpt>
      <trkpt lat="50.07294" lon="4.268">
        <ele>217.2</ele>
        <time>2024-04-28T09:40:33Z</time>
      </trkpt>
      <trkpt lat="50.07294" lon="4.26807">
        <ele>217.4</ele>
        <time>2024-04-28T09:40:34Z</time>
      </trkpt>
      <trkpt lat="50.07294" lon="4.26815">
        <ele>217.4</ele>
        <time>2024-04-28T09:40:35Z</time>
      </trkpt>
      <trkpt lat="50.07293" lon="4.26822">
        <ele>217.6</ele>
        <time>2024-04-28T09:40:36Z</time>
      </trkpt>
      <trkpt lat="50.07293" lon="4.26829">
        <ele>217.4</ele>
        <time>2024-04-28T09:40:37Z</time>
      </trkpt>
      <trkpt lat="50.07293" lon="4.26837">
        <ele>217.6</ele>
        <time>2024-04-28T09:40:38Z</time>
      </trkpt>
      <trkpt lat="50.07292" lon="4.26844">
        <ele>217.6</ele>
        <time>2024-04-28T09:40:39Z</time>
      </trkpt>
      <trkpt lat="50.07292" lon="4.26852">
        <ele>217.6</ele>
        <time>2024-04-28T09:40:40Z</time>
      </trkpt>
      <trkpt lat="50.07291" lon="4.26859">
        <ele>217.6</ele>
        <time>2024-04-28T09:40:41Z</time>
      </trkpt>
      <trkpt lat="50.07291" lon="4.26867">
        <ele>217.8</ele>
        <time>2024-04-28T09:40:42Z</time>
      </trkpt>
      <trkpt lat="50.07291" lon="4.26875">
        <ele>217.6</ele>
        <time>2024-04-28T09:40:43Z</time>
      </trkpt>
      <trkpt lat="50.0729" lon="4.26882">
        <ele>217.6</ele>
        <time>2024-04-28T09:40:44Z</time>
      </trkpt>
      <trkpt lat="50.0729" lon="4.2689">
        <ele>217.8</ele>
        <time>2024-04-28T09:40:45Z</time>
      </trkpt>
      <trkpt lat="50.07289" lon="4.26898">
        <ele>217.6</ele>
        <time>2024-04-28T09:40:46Z</time>
      </trkpt>
      <trkpt lat="50.07289" lon="4.26906">
        <ele>217.8</ele>
        <time>2024-04-28T09:40:47Z</time>
      </trkpt>
      <trkpt lat="50.07288" lon="4.26914">
        <ele>217.8</ele>
        <time>2024-04-28T09:40:48Z</time>
      </trkpt>
      <trkpt lat="50.07288" lon="4.26921">
        <ele>217.8</ele>
        <time>2024-04-28T09:40:49Z</time>
      </trkpt>
      <trkpt lat="50.07287" lon="4.26929">
        <ele>218</ele>
        <time>2024-04-28T09:40:50Z</time>
      </trkpt>
      <trkpt lat="50.07286" lon="4.26937">
        <ele>218</ele>
        <time>2024-04-28T09:40:51Z</time>
      </trkpt>
      <trkpt lat="50.07286" lon="4.26945">
        <ele>218</ele>
        <time>2024-04-28T09:40:52Z</time>
      </trkpt>
      <trkpt lat="50.07285" lon="4.26953">
        <ele>218.4</ele>
        <time>2024-04-28T09:40:53Z</time>
      </trkpt>
      <trkpt lat="50.07285" lon="4.26962">
        <ele>218.6</ele>
        <time>2024-04-28T09:40:54Z</time>
      </trkpt>
      <trkpt lat="50.07284" lon="4.2697">
        <ele>218.4</ele>
        <time>2024-04-28T09:40:55Z</time>
      </trkpt>
      <trkpt lat="50.07284" lon="4.26978">
        <ele>218.4</ele>
        <time>2024-04-28T09:40:56Z</time>
      </trkpt>
      <trkpt lat="50.07283" lon="4.26987">
        <ele>218.6</ele>
        <time>2024-04-28T09:40:57Z</time>
      </trkpt>
      <trkpt lat="50.07282" lon="4.26995">
        <ele>218.6</ele>
        <time>2024-04-28T09:40:58Z</time>
      </trkpt>
      <trkpt lat="50.07282" lon="4.27003">
        <ele>218.8</ele>
        <time>2024-04-28T09:40:59Z</time>
      </trkpt>
      <trkpt lat="50.07281" lon="4.27012">
        <ele>218.8</ele>
        <time>2024-04-28T09:41:00Z</time>
      </trkpt>
      <trkpt lat="50.07281" lon="4.2702">
        <ele>219</ele>
        <time>2024-04-28T09:41:01Z</time>
      </trkpt>
      <trkpt lat="50.0728" lon="4.27029">
        <ele>218.8</ele>
        <time>2024-04-28T09:41:02Z</time>
      </trkpt>
      <trkpt lat="50.07279" lon="4.27037">
        <ele>218.8</ele>
        <time>2024-04-28T09:41:03Z</time>
      </trkpt>
      <trkpt lat="50.07279" lon="4.27046">
        <ele>219</ele>
        <time>2024-04-28T09:41:04Z</time>
      </trkpt>
      <trkpt lat="50.07278" lon="4.27054">
        <ele>219</ele>
        <time>2024-04-28T09:41:05Z</time>
      </trkpt>
      <trkpt lat="50.07278" lon="4.27062">
        <ele>219.4</ele>
        <time>2024-04-28T09:41:06Z</time>
      </trkpt>
      <trkpt lat="50.07277" lon="4.27071">
        <ele>219.2</ele>
        <time>2024-04-28T09:41:07Z</time>
      </trkpt>
      <trkpt lat="50.07277" lon="4.27079">
        <ele>219.4</ele>
        <time>2024-04-28T09:41:08Z</time>
      </trkpt>
      <trkpt lat="50.07276" lon="4.27088">
        <ele>219.4</ele>
        <time>2024-04-28T09:41:09Z</time>
      </trkpt>
      <trkpt lat="50.07276" lon="4.27096">
        <ele>219.2</ele>
        <time>2024-04-28T09:41:10Z</time>
      </trkpt>
      <trkpt lat="50.07275" lon="4.27105">
        <ele>219.4</ele>
        <time>2024-04-28T09:41:11Z</time>
      </trkpt>
      <trkpt lat="50.07275" lon="4.27113">
        <ele>219.4</ele>
        <time>2024-04-28T09:41:12Z</time>
      </trkpt>
      <trkpt lat="50.07275" lon="4.27122">
        <ele>219.4</ele>
        <time>2024-04-28T09:41:13Z</time>
      </trkpt>
      <trkpt lat="50.07274" lon="4.27131">
        <ele>219.6</ele>
        <time>2024-04-28T09:41:14Z</time>
      </trkpt>
      <trkpt lat="50.07274" lon="4.27139">
        <ele>219.8</ele>
        <time>2024-04-28T09:41:15Z</time>
      </trkpt>
      <trkpt lat="50.07273" lon="4.27148">
        <ele>220</ele>
        <time>2024-04-28T09:41:16Z</time>
      </trkpt>
      <trkpt lat="50.07272" lon="4.27157">
        <ele>220</ele>
        <time>2024-04-28T09:41:17Z</time>
      </trkpt>
      <trkpt lat="50.07272" lon="4.27166">
        <ele>220.2</ele>
        <time>2024-04-28T09:41:18Z</time>
      </trkpt>
      <trkpt lat="50.07271" lon="4.27175">
        <ele>220.4</ele>
        <time>2024-04-28T09:41:19Z</time>
      </trkpt>
      <trkpt lat="50.0727" lon="4.27184">
        <ele>220.4</ele>
        <time>2024-04-28T09:41:20Z</time>
      </trkpt>
      <trkpt lat="50.07269" lon="4.27194">
        <ele>220.6</ele>
        <time>2024-04-28T09:41:21Z</time>
      </trkpt>
      <trkpt lat="50.07269" lon="4.27203">
        <ele>220.6</ele>
        <time>2024-04-28T09:41:22Z</time>
      </trkpt>
      <trkpt lat="50.07268" lon="4.27213">
        <ele>220.8</ele>
        <time>2024-04-28T09:41:23Z</time>
      </trkpt>
      <trkpt lat="50.07268" lon="4.27222">
        <ele>220.8</ele>
        <time>2024-04-28T09:41:24Z</time>
      </trkpt>
      <trkpt lat="50.07268" lon="4.27232">
        <ele>220.6</ele>
        <time>2024-04-28T09:41:25Z</time>
      </trkpt>
      <trkpt lat="50.07267" lon="4.27241">
        <ele>220.8</ele>
        <time>2024-04-28T09:41:26Z</time>
      </trkpt>
      <trkpt lat="50.07267" lon="4.27251">
        <ele>220.8</ele>
        <time>2024-04-28T09:41:27Z</time>
      </trkpt>
      <trkpt lat="50.07267" lon="4.2726">
        <ele>221</ele>
        <time>2024-04-28T09:41:28Z</time>
      </trkpt>
      <trkpt lat="50.07266" lon="4.2727">
        <ele>221</ele>
        <time>2024-04-28T09:41:29Z</time>
      </trkpt>
      <trkpt lat="50.07266" lon="4.27279">
        <ele>221</ele>
        <time>2024-04-28T09:41:30Z</time>
      </trkpt>
      <trkpt lat="50.07266" lon="4.27288">
        <ele>221.2</ele>
        <time>2024-04-28T09:41:31Z</time>
      </trkpt>
      <trkpt lat="50.07266" lon="4.27298">
        <ele>221.6</ele>
        <time>2024-04-28T09:41:32Z</time>
      </trkpt>
      <trkpt lat="50.07266" lon="4.27307">
        <ele>221.8</ele>
        <time>2024-04-28T09:41:33Z</time>
      </trkpt>
      <trkpt lat="50.07266" lon="4.27317">
        <ele>222.2</ele>
        <time>2024-04-28T09:41:34Z</time>
      </trkpt>
      <trkpt lat="50.07266" lon="4.27326">
        <ele>222.2</ele>
        <time>2024-04-28T09:41:35Z</time>
      </trkpt>
      <trkpt lat="50.07266" lon="4.27336">
        <ele>222.2</ele>
        <time>2024-04-28T09:41:36Z</time>
      </trkpt>
      <trkpt lat="50.07266" lon="4.27345">
        <ele>222.4</ele>
        <time>2024-04-28T09:41:37Z</time>
      </trkpt>
      <trkpt lat="50.07267" lon="4.27355">
        <ele>222.4</ele>
        <time>2024-04-28T09:41:38Z</time>
      </trkpt>
      <trkpt lat="50.07267" lon="4.27364">
        <ele>222.6</ele>
        <time>2024-04-28T09:41:39Z</time>
      </trkpt>
      <trkpt lat="50.07267" lon="4.27374">
        <ele>222.6</ele>
        <time>2024-04-28T09:41:40Z</time>
      </trkpt>
      <trkpt lat="50.07267" lon="4.27384">
        <ele>222.8</ele>
        <time>2024-04-28T09:41:41Z</time>
      </trkpt>
      <trkpt lat="50.07267" lon="4.27395">
        <ele>222.6</ele>
        <time>2024-04-28T09:41:42Z</time>
      </trkpt>
      <trkpt lat="50.07268" lon="4.27405">
        <ele>222.6</ele>
        <time>2024-04-28T09:41:43Z</time>
      </trkpt>
      <trkpt lat="50.07268" lon="4.27416">
        <ele>222.8</ele>
        <time>2024-04-28T09:41:44Z</time>
      </trkpt>
      <trkpt lat="50.07268" lon="4.27426">
        <ele>222.6</ele>
        <time>2024-04-28T09:41:45Z</time>
      </trkpt>
      <trkpt lat="50.07268" lon="4.27437">
        <ele>222.8</ele>
        <time>2024-04-28T09:41:46Z</time>
      </trkpt>
      <trkpt lat="50.07269" lon="4.27448">
        <ele>222.8</ele>
        <time>2024-04-28T09:41:47Z</time>
      </trkpt>
      <trkpt lat="50.07269" lon="4.27459">
        <ele>222.6</ele>
        <time>2024-04-28T09:41:48Z</time>
      </trkpt>
      <trkpt lat="50.07269" lon="4.2747">
        <ele>222.6</ele>
        <time>2024-04-28T09:41:49Z</time>
      </trkpt>
      <trkpt lat="50.07269" lon="4.27481">
        <ele>222.4</ele>
        <time>2024-04-28T09:41:50Z</time>
      </trkpt>
      <trkpt lat="50.07269" lon="4.27492">
        <ele>222.4</ele>
        <time>2024-04-28T09:41:51Z</time>
      </trkpt>
      <trkpt lat="50.0727" lon="4.27503">
        <ele>222.4</ele>
        <time>2024-04-28T09:41:52Z</time>
      </trkpt>
      <trkpt lat="50.0727" lon="4.27515">
        <ele>222.6</ele>
        <time>2024-04-28T09:41:53Z</time>
      </trkpt>
      <trkpt lat="50.0727" lon="4.27526">
        <ele>222.4</ele>
        <time>2024-04-28T09:41:54Z</time>
      </trkpt>
      <trkpt lat="50.07271" lon="4.27537">
        <ele>222.2</ele>
        <time>2024-04-28T09:41:55Z</time>
      </trkpt>
      <trkpt lat="50.07271" lon="4.27548">
        <ele>222.2</ele>
        <time>2024-04-28T09:41:56Z</time>
      </trkpt>
      <trkpt lat="50.07271" lon="4.2756">
        <ele>222.2</ele>
        <time>2024-04-28T09:41:57Z</time>
      </trkpt>
      <trkpt lat="50.07272" lon="4.27571">
        <ele>222.2</ele>
        <time>2024-04-28T09:41:58Z</time>
      </trkpt>
      <trkpt lat="50.07272" lon="4.27583">
        <ele>222.2</ele>
        <time>2024-04-28T09:41:59Z</time>
      </trkpt>
      <trkpt lat="50.07272" lon="4.27595">
        <ele>222</ele>
        <time>2024-04-28T09:42:00Z</time>
      </trkpt>
      <trkpt lat="50.07272" lon="4.27608">
        <ele>222</ele>
        <time>2024-04-28T09:42:01Z</time>
      </trkpt>
      <trkpt lat="50.07272" lon="4.27621">
        <ele>222</ele>
        <time>2024-04-28T09:42:02Z</time>
      </trkpt>
      <trkpt lat="50.07272" lon="4.27634">
        <ele>221.8</ele>
        <time>2024-04-28T09:42:03Z</time>
      </trkpt>
      <trkpt lat="50.07273" lon="4.27646">
        <ele>221.6</ele>
        <time>2024-04-28T09:42:04Z</time>
      </trkpt>
      <trkpt lat="50.07273" lon="4.27659">
        <ele>221.6</ele>
        <time>2024-04-28T09:42:05Z</time>
      </trkpt>
      <trkpt lat="50.07273" lon="4.27671">
        <ele>221.8</ele>
        <time>2024-04-28T09:42:06Z</time>
      </trkpt>
      <trkpt lat="50.07273" lon="4.27682">
        <ele>221.8</ele>
        <time>2024-04-28T09:42:07Z</time>
      </trkpt>
      <trkpt lat="50.07273" lon="4.27694">
        <ele>222</ele>
        <time>2024-04-28T09:42:08Z</time>
      </trkpt>
      <trkpt lat="50.07272" lon="4.27705">
        <ele>222</ele>
        <time>2024-04-28T09:42:09Z</time>
      </trkpt>
      <trkpt lat="50.07272" lon="4.27715">
        <ele>222.2</ele>
        <time>2024-04-28T09:42:10Z</time>
      </trkpt>
      <trkpt lat="50.07271" lon="4.27726">
        <ele>222.4</ele>
        <time>2024-04-28T09:42:11Z</time>
      </trkpt>
      <trkpt lat="50.0727" lon="4.27736">
        <ele>222.4</ele>
        <time>2024-04-28T09:42:12Z</time>
      </trkpt>
      <trkpt lat="50.07268" lon="4.27746">
        <ele>222.4</ele>
        <time>2024-04-28T09:42:13Z</time>
      </trkpt>
      <trkpt lat="50.07267" lon="4.27756">
        <ele>222.8</ele>
        <time>2024-04-28T09:42:14Z</time>
      </trkpt>
      <trkpt lat="50.07266" lon="4.27765">
        <ele>223</ele>
        <time>2024-04-28T09:42:15Z</time>
      </trkpt>
      <trkpt lat="50.07266" lon="4.27776">
        <ele>223.2</ele>
        <time>2024-04-28T09:42:16Z</time>
      </trkpt>
      <trkpt lat="50.07265" lon="4.27786">
        <ele>223.4</ele>
        <time>2024-04-28T09:42:17Z</time>
      </trkpt>
      <trkpt lat="50.07265" lon="4.27795">
        <ele>223.4</ele>
        <time>2024-04-28T09:42:18Z</time>
      </trkpt>
      <trkpt lat="50.07264" lon="4.27805">
        <ele>223.4</ele>
        <time>2024-04-28T09:42:19Z</time>
      </trkpt>
      <trkpt lat="50.07263" lon="4.27814">
        <ele>223.4</ele>
        <time>2024-04-28T09:42:20Z</time>
      </trkpt>
      <trkpt lat="50.07262" lon="4.27825">
        <ele>223.4</ele>
        <time>2024-04-28T09:42:21Z</time>
      </trkpt>
      <trkpt lat="50.07261" lon="4.27836">
        <ele>223.4</ele>
        <time>2024-04-28T09:42:22Z</time>
      </trkpt>
      <trkpt lat="50.0726" lon="4.27847">
        <ele>223.6</ele>
        <time>2024-04-28T09:42:23Z</time>
      </trkpt>
      <trkpt lat="50.07259" lon="4.27858">
        <ele>223.6</ele>
        <time>2024-04-28T09:42:24Z</time>
      </trkpt>
      <trkpt lat="50.07258" lon="4.27869">
        <ele>223.6</ele>
        <time>2024-04-28T09:42:25Z</time>
      </trkpt>
      <trkpt lat="50.07257" lon="4.2788">
        <ele>223.6</ele>
        <time>2024-04-28T09:42:26Z</time>
      </trkpt>
      <trkpt lat="50.07257" lon="4.27892">
        <ele>223.8</ele>
        <time>2024-04-28T09:42:27Z</time>
      </trkpt>
      <trkpt lat="50.07256" lon="4.27903">
        <ele>223.6</ele>
        <time>2024-04-28T09:42:28Z</time>
      </trkpt>
      <trkpt lat="50.07256" lon="4.27915">
        <ele>223.6</ele>
        <time>2024-04-28T09:42:29Z</time>
      </trkpt>
      <trkpt lat="50.07257" lon="4.27926">
        <ele>223.8</ele>
        <time>2024-04-28T09:42:30Z</time>
      </trkpt>
      <trkpt lat="50.07258" lon="4.27937">
        <ele>223.8</ele>
        <time>2024-04-28T09:42:31Z</time>
      </trkpt>
      <trkpt lat="50.07259" lon="4.27948">
        <ele>223.8</ele>
        <time>2024-04-28T09:42:32Z</time>
      </trkpt>
      <trkpt lat="50.07261" lon="4.27958">
        <ele>223.8</ele>
        <time>2024-04-28T09:42:33Z</time>
      </trkpt>
      <trkpt lat="50.07263" lon="4.27969">
        <ele>224</ele>
        <time>2024-04-28T09:42:34Z</time>
      </trkpt>
      <trkpt lat="50.07265" lon="4.2798">
        <ele>223.8</ele>
        <time>2024-04-28T09:42:35Z</time>
      </trkpt>
      <trkpt lat="50.07267" lon="4.2799">
        <ele>224</ele>
        <time>2024-04-28T09:42:36Z</time>
      </trkpt>
      <trkpt lat="50.0727" lon="4.28001">
        <ele>224</ele>
        <time>2024-04-28T09:42:37Z</time>
      </trkpt>
      <trkpt lat="50.07273" lon="4.28011">
        <ele>224</ele>
        <time>2024-04-28T09:42:38Z</time>
      </trkpt>
      <trkpt lat="50.07275" lon="4.28022">
        <ele>224.2</ele>
        <time>2024-04-28T09:42:39Z</time>
      </trkpt>
      <trkpt lat="50.07278" lon="4.28032">
        <ele>224.2</ele>
        <time>2024-04-28T09:42:40Z</time>
      </trkpt>
      <trkpt lat="50.07279" lon="4.28043">
        <ele>224.4</ele>
        <time>2024-04-28T09:42:41Z</time>
      </trkpt>
      <trkpt lat="50.07281" lon="4.28054">
        <ele>224.4</ele>
        <time>2024-04-28T09:42:42Z</time>
      </trkpt>
      <trkpt lat="50.07282" lon="4.28065">
        <ele>224.4</ele>
        <time>2024-04-28T09:42:43Z</time>
      </trkpt>
      <trkpt lat="50.07283" lon="4.28076">
        <ele>224.6</ele>
        <time>2024-04-28T09:42:44Z</time>
      </trkpt>
      <trkpt lat="50.07284" lon="4.28087">
        <ele>224.8</ele>
        <time>2024-04-28T09:42:45Z</time>
      </trkpt>
      <trkpt lat="50.07286" lon="4.28098">
        <ele>225.2</ele>
        <time>2024-04-28T09:42:46Z</time>
      </trkpt>
      <trkpt lat="50.07287" lon="4.2811">
        <ele>225.2</ele>
        <time>2024-04-28T09:42:47Z</time>
      </trkpt>
      <trkpt lat="50.07288" lon="4.28121">
        <ele>225.4</ele>
        <time>2024-04-28T09:42:48Z</time>
      </trkpt>
      <trkpt lat="50.0729" lon="4.28132">
        <ele>225.8</ele>
        <time>2024-04-28T09:42:49Z</time>
      </trkpt>
      <trkpt lat="50.07291" lon="4.28144">
        <ele>226</ele>
        <time>2024-04-28T09:42:50Z</time>
      </trkpt>
      <trkpt lat="50.07291" lon="4.28155">
        <ele>226.4</ele>
        <time>2024-04-28T09:42:51Z</time>
      </trkpt>
      <trkpt lat="50.07291" lon="4.28166">
        <ele>226.6</ele>
        <time>2024-04-28T09:42:52Z</time>
      </trkpt>
      <trkpt lat="50.07291" lon="4.28178">
        <ele>226.6</ele>
        <time>2024-04-28T09:42:53Z</time>
      </trkpt>
      <trkpt lat="50.07291" lon="4.2819">
        <ele>226.6</ele>
        <time>2024-04-28T09:42:54Z</time>
      </trkpt>
      <trkpt lat="50.0729" lon="4.28201">
        <ele>226.6</ele>
        <time>2024-04-28T09:42:55Z</time>
      </trkpt>
      <trkpt lat="50.07288" lon="4.28212">
        <ele>226.6</ele>
        <time>2024-04-28T09:42:56Z</time>
      </trkpt>
      <trkpt lat="50.07285" lon="4.28223">
        <ele>226.6</ele>
        <time>2024-04-28T09:42:57Z</time>
      </trkpt>
      <trkpt lat="50.07282" lon="4.28233">
        <ele>226.8</ele>
        <time>2024-04-28T09:42:58Z</time>
      </trkpt>
      <trkpt lat="50.07278" lon="4.28242">
        <ele>226.8</ele>
        <time>2024-04-28T09:42:59Z</time>
      </trkpt>
      <trkpt lat="50.07273" lon="4.28251">
        <ele>226.8</ele>
        <time>2024-04-28T09:43:00Z</time>
      </trkpt>
      <trkpt lat="50.07268" lon="4.28258">
        <ele>226.8</ele>
        <time>2024-04-28T09:43:01Z</time>
      </trkpt>
      <trkpt lat="50.07263" lon="4.28265">
        <ele>226.8</ele>
        <time>2024-04-28T09:43:02Z</time>
      </trkpt>
      <trkpt lat="50.07257" lon="4.28272">
        <ele>226.4</ele>
        <time>2024-04-28T09:43:03Z</time>
      </trkpt>
      <trkpt lat="50.07252" lon="4.28278">
        <ele>226.6</ele>
        <time>2024-04-28T09:43:04Z</time>
      </trkpt>
      <trkpt lat="50.07246" lon="4.28285">
        <ele>226.8</ele>
        <time>2024-04-28T09:43:05Z</time>
      </trkpt>
      <trkpt lat="50.07242" lon="4.28292">
        <ele>226.8</ele>
        <time>2024-04-28T09:43:06Z</time>
      </trkpt>
      <trkpt lat="50.07237" lon="4.28299">
        <ele>226.6</ele>
        <time>2024-04-28T09:43:07Z</time>
      </trkpt>
      <trkpt lat="50.07233" lon="4.28307">
        <ele>226.6</ele>
        <time>2024-04-28T09:43:08Z</time>
      </trkpt>
      <trkpt lat="50.0723" lon="4.28315">
        <ele>226.4</ele>
        <time>2024-04-28T09:43:09Z</time>
      </trkpt>
      <trkpt lat="50.07227" lon="4.28324">
        <ele>226.4</ele>
        <time>2024-04-28T09:43:10Z</time>
      </trkpt>
      <trkpt lat="50.07224" lon="4.28332">
        <ele>226.4</ele>
        <time>2024-04-28T09:43:11Z</time>
      </trkpt>
      <trkpt lat="50.07222" lon="4.28341">
        <ele>226.2</ele>
        <time>2024-04-28T09:43:12Z</time>
      </trkpt>
      <trkpt lat="50.0722" lon="4.28349">
        <ele>226.4</ele>
        <time>2024-04-28T09:43:13Z</time>
      </trkpt>
      <trkpt lat="50.07217" lon="4.28358">
        <ele>226.4</ele>
        <time>2024-04-28T09:43:14Z</time>
      </trkpt>
      <trkpt lat="50.07215" lon="4.28367">
        <ele>226.4</ele>
        <time>2024-04-28T09:43:15Z</time>
      </trkpt>
      <trkpt lat="50.07213" lon="4.28375">
        <ele>226.4</ele>
        <time>2024-04-28T09:43:16Z</time>
      </trkpt>
      <trkpt lat="50.07212" lon="4.28384">
        <ele>226.6</ele>
        <time>2024-04-28T09:43:17Z</time>
      </trkpt>
      <trkpt lat="50.0721" lon="4.28392">
        <ele>227</ele>
        <time>2024-04-28T09:43:18Z</time>
      </trkpt>
      <trkpt lat="50.07208" lon="4.28401">
        <ele>227.4</ele>
        <time>2024-04-28T09:43:19Z</time>
      </trkpt>
      <trkpt lat="50.07206" lon="4.2841">
        <ele>227.6</ele>
        <time>2024-04-28T09:43:20Z</time>
      </trkpt>
      <trkpt lat="50.07204" lon="4.28419">
        <ele>228</ele>
        <time>2024-04-28T09:43:21Z</time>
      </trkpt>
      <trkpt lat="50.07202" lon="4.28428">
        <ele>228.8</ele>
        <time>2024-04-28T09:43:22Z</time>
      </trkpt>
      <trkpt lat="50.072" lon="4.28437">
        <ele>229.4</ele>
        <time>2024-04-28T09:43:23Z</time>
      </trkpt>
      <trkpt lat="50.07198" lon="4.28446">
        <ele>230.2</ele>
        <time>2024-04-28T09:43:24Z</time>
      </trkpt>
      <trkpt lat="50.07195" lon="4.28455">
        <ele>231.2</ele>
        <time>2024-04-28T09:43:25Z</time>
      </trkpt>
      <trkpt lat="50.07194" lon="4.28465">
        <ele>232.2</ele>
        <time>2024-04-28T09:43:26Z</time>
      </trkpt>
      <trkpt lat="50.07192" lon="4.28474">
        <ele>232.8</ele>
        <time>2024-04-28T09:43:27Z</time>
      </trkpt>
      <trkpt lat="50.07189" lon="4.28483">
        <ele>233.2</ele>
        <time>2024-04-28T09:43:28Z</time>
      </trkpt>
      <trkpt lat="50.07187" lon="4.28492">
        <ele>233.2</ele>
        <time>2024-04-28T09:43:29Z</time>
      </trkpt>
      <trkpt lat="50.07185" lon="4.28502">
        <ele>233.4</ele>
        <time>2024-04-28T09:43:30Z</time>
      </trkpt>
      <trkpt lat="50.07183" lon="4.28511">
        <ele>233.4</ele>
        <time>2024-04-28T09:43:31Z</time>
      </trkpt>
      <trkpt lat="50.07181" lon="4.2852">
        <ele>233.4</ele>
        <time>2024-04-28T09:43:32Z</time>
      </trkpt>
      <trkpt lat="50.07178" lon="4.28529">
        <ele>233.6</ele>
        <time>2024-04-28T09:43:33Z</time>
      </trkpt>
      <trkpt lat="50.07176" lon="4.28539">
        <ele>233.6</ele>
        <time>2024-04-28T09:43:34Z</time>
      </trkpt>
      <trkpt lat="50.07174" lon="4.28548">
        <ele>233.8</ele>
        <time>2024-04-28T09:43:35Z</time>
      </trkpt>
      <trkpt lat="50.07172" lon="4.28558">
        <ele>233.6</ele>
        <time>2024-04-28T09:43:36Z</time>
      </trkpt>
      <trkpt lat="50.07169" lon="4.28567">
        <ele>233.6</ele>
        <time>2024-04-28T09:43:37Z</time>
      </trkpt>
      <trkpt lat="50.07167" lon="4.28577">
        <ele>233.6</ele>
        <time>2024-04-28T09:43:38Z</time>
      </trkpt>
      <trkpt lat="50.07164" lon="4.28587">
        <ele>233.8</ele>
        <time>2024-04-28T09:43:39Z</time>
      </trkpt>
      <trkpt lat="50.07162" lon="4.28596">
        <ele>233.6</ele>
        <time>2024-04-28T09:43:40Z</time>
      </trkpt>
      <trkpt lat="50.07159" lon="4.28606">
        <ele>233.8</ele>
        <time>2024-04-28T09:43:41Z</time>
      </trkpt>
      <trkpt lat="50.07156" lon="4.28615">
        <ele>233.8</ele>
        <time>2024-04-28T09:43:42Z</time>
      </trkpt>
      <trkpt lat="50.07154" lon="4.28624">
        <ele>233.8</ele>
        <time>2024-04-28T09:43:43Z</time>
      </trkpt>
      <trkpt lat="50.07151" lon="4.28634">
        <ele>233.8</ele>
        <time>2024-04-28T09:43:44Z</time>
      </trkpt>
      <trkpt lat="50.07148" lon="4.28644">
        <ele>233.8</ele>
        <time>2024-04-28T09:43:45Z</time>
      </trkpt>
      <trkpt lat="50.07145" lon="4.28653">
        <ele>233.6</ele>
        <time>2024-04-28T09:43:46Z</time>
      </trkpt>
      <trkpt lat="50.07143" lon="4.28663">
        <ele>233.4</ele>
        <time>2024-04-28T09:43:47Z</time>
      </trkpt>
      <trkpt lat="50.0714" lon="4.28672">
        <ele>233.4</ele>
        <time>2024-04-28T09:43:48Z</time>
      </trkpt>
      <trkpt lat="50.07137" lon="4.28682">
        <ele>233.4</ele>
        <time>2024-04-28T09:43:49Z</time>
      </trkpt>
      <trkpt lat="50.07134" lon="4.28692">
        <ele>233.2</ele>
        <time>2024-04-28T09:43:50Z</time>
      </trkpt>
      <trkpt lat="50.07131" lon="4.28701">
        <ele>233.2</ele>
        <time>2024-04-28T09:43:51Z</time>
      </trkpt>
      <trkpt lat="50.07129" lon="4.28711">
        <ele>233.4</ele>
        <time>2024-04-28T09:43:52Z</time>
      </trkpt>
      <trkpt lat="50.07126" lon="4.28721">
        <ele>233.4</ele>
        <time>2024-04-28T09:43:53Z</time>
      </trkpt>
      <trkpt lat="50.07123" lon="4.28731">
        <ele>233.4</ele>
        <time>2024-04-28T09:43:54Z</time>
      </trkpt>
      <trkpt lat="50.07119" lon="4.2874">
        <ele>233.4</ele>
        <time>2024-04-28T09:43:55Z</time>
      </trkpt>
      <trkpt lat="50.07116" lon="4.28749">
        <ele>233.4</ele>
        <time>2024-04-28T09:43:56Z</time>
      </trkpt>
      <trkpt lat="50.07112" lon="4.28758">
        <ele>233.4</ele>
        <time>2024-04-28T09:43:57Z</time>
      </trkpt>
      <trkpt lat="50.07109" lon="4.28767">
        <ele>233.2</ele>
        <time>2024-04-28T09:43:58Z</time>
      </trkpt>
      <trkpt lat="50.07105" lon="4.28775">
        <ele>233.2</ele>
        <time>2024-04-28T09:43:59Z</time>
      </trkpt>
      <trkpt lat="50.07102" lon="4.28784">
        <ele>233.4</ele>
        <time>2024-04-28T09:44:00Z</time>
      </trkpt>
      <trkpt lat="50.071" lon="4.28793">
        <ele>233.2</ele>
        <time>2024-04-28T09:44:01Z</time>
      </trkpt>
      <trkpt lat="50.07097" lon="4.28803">
        <ele>233.2</ele>
        <time>2024-04-28T09:44:02Z</time>
      </trkpt>
      <trkpt lat="50.07095" lon="4.28812">
        <ele>233.2</ele>
        <time>2024-04-28T09:44:03Z</time>
      </trkpt>
      <trkpt lat="50.07092" lon="4.28822">
        <ele>233.2</ele>
        <time>2024-04-28T09:44:04Z</time>
      </trkpt>
      <trkpt lat="50.07089" lon="4.28831">
        <ele>233.2</ele>
        <time>2024-04-28T09:44:05Z</time>
      </trkpt>
      <trkpt lat="50.07086" lon="4.2884">
        <ele>233.4</ele>
        <time>2024-04-28T09:44:06Z</time>
      </trkpt>
      <trkpt lat="50.07083" lon="4.28849">
        <ele>233.4</ele>
        <time>2024-04-28T09:44:07Z</time>
      </trkpt>
      <trkpt lat="50.07079" lon="4.28858">
        <ele>233.4</ele>
        <time>2024-04-28T09:44:08Z</time>
      </trkpt>
      <trkpt lat="50.07076" lon="4.28867">
        <ele>233.4</ele>
        <time>2024-04-28T09:44:09Z</time>
      </trkpt>
      <trkpt lat="50.07073" lon="4.28875">
        <ele>233.6</ele>
        <time>2024-04-28T09:44:10Z</time>
      </trkpt>
      <trkpt lat="50.07069" lon="4.28884">
        <ele>234</ele>
        <time>2024-04-28T09:44:11Z</time>
      </trkpt>
      <trkpt lat="50.07065" lon="4.28892">
        <ele>234.2</ele>
        <time>2024-04-28T09:44:12Z</time>
      </trkpt>
      <trkpt lat="50.0706" lon="4.28899">
        <ele>234.2</ele>
        <time>2024-04-28T09:44:13Z</time>
      </trkpt>
      <trkpt lat="50.07054" lon="4.28904">
        <ele>234.2</ele>
        <time>2024-04-28T09:44:14Z</time>
      </trkpt>
      <trkpt lat="50.07048" lon="4.28909">
        <ele>234.4</ele>
        <time>2024-04-28T09:44:15Z</time>
      </trkpt>
      <trkpt lat="50.07042" lon="4.28914">
        <ele>234.4</ele>
        <time>2024-04-28T09:44:16Z</time>
      </trkpt>
      <trkpt lat="50.07035" lon="4.28918">
        <ele>234.6</ele>
        <time>2024-04-28T09:44:17Z</time>
      </trkpt>
      <trkpt lat="50.07029" lon="4.28923">
        <ele>234.6</ele>
        <time>2024-04-28T09:44:18Z</time>
      </trkpt>
      <trkpt lat="50.07022" lon="4.28927">
        <ele>234.6</ele>
        <time>2024-04-28T09:44:19Z</time>
      </trkpt>
      <trkpt lat="50.07015" lon="4.28931">
        <ele>234.6</ele>
        <time>2024-04-28T09:44:20Z</time>
      </trkpt>
      <trkpt lat="50.07009" lon="4.28936">
        <ele>234.4</ele>
        <time>2024-04-28T09:44:21Z</time>
      </trkpt>
      <trkpt lat="50.07002" lon="4.2894">
        <ele>234.4</ele>
        <time>2024-04-28T09:44:22Z</time>
      </trkpt>
      <trkpt lat="50.06996" lon="4.28944">
        <ele>234.4</ele>
        <time>2024-04-28T09:44:23Z</time>
      </trkpt>
      <trkpt lat="50.06989" lon="4.28948">
        <ele>234.8</ele>
        <time>2024-04-28T09:44:24Z</time>
      </trkpt>
      <trkpt lat="50.06982" lon="4.28952">
        <ele>235</ele>
        <time>2024-04-28T09:44:25Z</time>
      </trkpt>
      <trkpt lat="50.06976" lon="4.28957">
        <ele>235</ele>
        <time>2024-04-28T09:44:26Z</time>
      </trkpt>
      <trkpt lat="50.0697" lon="4.28961">
        <ele>234.8</ele>
        <time>2024-04-28T09:44:27Z</time>
      </trkpt>
      <trkpt lat="50.06963" lon="4.28965">
        <ele>235</ele>
        <time>2024-04-28T09:44:28Z</time>
      </trkpt>
      <trkpt lat="50.06957" lon="4.28969">
        <ele>235</ele>
        <time>2024-04-28T09:44:29Z</time>
      </trkpt>
      <trkpt lat="50.06951" lon="4.28974">
        <ele>235</ele>
        <time>2024-04-28T09:44:30Z</time>
      </trkpt>
      <trkpt lat="50.06945" lon="4.28978">
        <ele>234.8</ele>
        <time>2024-04-28T09:44:31Z</time>
      </trkpt>
      <trkpt lat="50.06939" lon="4.28983">
        <ele>234.8</ele>
        <time>2024-04-28T09:44:32Z</time>
      </trkpt>
      <trkpt lat="50.06933" lon="4.28988">
        <ele>234.8</ele>
        <time>2024-04-28T09:44:33Z</time>
      </trkpt>
      <trkpt lat="50.06928" lon="4.28993">
        <ele>235</ele>
        <time>2024-04-28T09:44:34Z</time>
      </trkpt>
      <trkpt lat="50.06922" lon="4.28998">
        <ele>235</ele>
        <time>2024-04-28T09:44:35Z</time>
      </trkpt>
      <trkpt lat="50.06917" lon="4.29004">
        <ele>235</ele>
        <time>2024-04-28T09:44:36Z</time>
      </trkpt>
      <trkpt lat="50.06911" lon="4.2901">
        <ele>235.2</ele>
        <time>2024-04-28T09:44:37Z</time>
      </trkpt>
      <trkpt lat="50.06906" lon="4.29015">
        <ele>235.2</ele>
        <time>2024-04-28T09:44:38Z</time>
      </trkpt>
      <trkpt lat="50.069" lon="4.29021">
        <ele>235.2</ele>
        <time>2024-04-28T09:44:39Z</time>
      </trkpt>
      <trkpt lat="50.06895" lon="4.29027">
        <ele>235.2</ele>
        <time>2024-04-28T09:44:40Z</time>
      </trkpt>
      <trkpt lat="50.06889" lon="4.29033">
        <ele>235.4</ele>
        <time>2024-04-28T09:44:41Z</time>
      </trkpt>
      <trkpt lat="50.06884" lon="4.29039">
        <ele>235.4</ele>
        <time>2024-04-28T09:44:42Z</time>
      </trkpt>
      <trkpt lat="50.06878" lon="4.29044">
        <ele>235.4</ele>
        <time>2024-04-28T09:44:43Z</time>
      </trkpt>
      <trkpt lat="50.06873" lon="4.29049">
        <ele>235.8</ele>
        <time>2024-04-28T09:44:44Z</time>
      </trkpt>
      <trkpt lat="50.06867" lon="4.29055">
        <ele>235.8</ele>
        <time>2024-04-28T09:44:45Z</time>
      </trkpt>
      <trkpt lat="50.06862" lon="4.29061">
        <ele>236.4</ele>
        <time>2024-04-28T09:44:46Z</time>
      </trkpt>
      <trkpt lat="50.06857" lon="4.29067">
        <ele>236.6</ele>
        <time>2024-04-28T09:44:47Z</time>
      </trkpt>
      <trkpt lat="50.06852" lon="4.29072">
        <ele>236.8</ele>
        <time>2024-04-28T09:44:48Z</time>
      </trkpt>
      <trkpt lat="50.06847" lon="4.29078">
        <ele>236.6</ele>
        <time>2024-04-28T09:44:49Z</time>
      </trkpt>
      <trkpt lat="50.06842" lon="4.29084">
        <ele>236.8</ele>
        <time>2024-04-28T09:44:50Z</time>
      </trkpt>
      <trkpt lat="50.06837" lon="4.29089">
        <ele>236.8</ele>
        <time>2024-04-28T09:44:51Z</time>
      </trkpt>
      <trkpt lat="50.06832" lon="4.29095">
        <ele>236.8</ele>
        <time>2024-04-28T09:44:52Z</time>
      </trkpt>
      <trkpt lat="50.06826" lon="4.291">
        <ele>236.8</ele>
        <time>2024-04-28T09:44:53Z</time>
      </trkpt>
      <trkpt lat="50.06821" lon="4.29104">
        <ele>236.8</ele>
        <time>2024-04-28T09:44:54Z</time>
      </trkpt>
      <trkpt lat="50.06817" lon="4.29109">
        <ele>237.2</ele>
        <time>2024-04-28T09:44:55Z</time>
      </trkpt>
      <trkpt lat="50.06812" lon="4.29114">
        <ele>237.4</ele>
        <time>2024-04-28T09:44:56Z</time>
      </trkpt>
      <trkpt lat="50.06807" lon="4.29119">
        <ele>237.4</ele>
        <time>2024-04-28T09:44:57Z</time>
      </trkpt>
      <trkpt lat="50.06803" lon="4.29123">
        <ele>237.6</ele>
        <time>2024-04-28T09:44:58Z</time>
      </trkpt>
      <trkpt lat="50.06799" lon="4.29128">
        <ele>237.4</ele>
        <time>2024-04-28T09:44:59Z</time>
      </trkpt>
      <trkpt lat="50.06795" lon="4.29132">
        <ele>237.6</ele>
        <time>2024-04-28T09:45:00Z</time>
      </trkpt>
      <trkpt lat="50.06791" lon="4.29135">
        <ele>237.6</ele>
        <time>2024-04-28T09:45:01Z</time>
      </trkpt>
      <trkpt lat="50.06788" lon="4.29139">
        <ele>237.6</ele>
        <time>2024-04-28T09:45:02Z</time>
      </trkpt>
      <trkpt lat="50.06785" lon="4.29142">
        <ele>238</ele>
        <time>2024-04-28T09:45:03Z</time>
      </trkpt>
      <trkpt lat="50.06782" lon="4.29145">
        <ele>238</ele>
        <time>2024-04-28T09:45:04Z</time>
      </trkpt>
      <trkpt lat="50.06779" lon="4.29148">
        <ele>238.4</ele>
        <time>2024-04-28T09:45:05Z</time>
      </trkpt>
      <trkpt lat="50.06777" lon="4.29151">
        <ele>238.6</ele>
        <time>2024-04-28T09:45:06Z</time>
      </trkpt>
      <trkpt lat="50.06774" lon="4.29155">
        <ele>239</ele>
        <time>2024-04-28T09:45:07Z</time>
      </trkpt>
      <trkpt lat="50.06771" lon="4.29158">
        <ele>239.2</ele>
        <time>2024-04-28T09:45:08Z</time>
      </trkpt>
      <trkpt lat="50.06769" lon="4.29161">
        <ele>239.4</ele>
        <time>2024-04-28T09:45:09Z</time>
      </trkpt>
      <trkpt lat="50.06766" lon="4.29164">
        <ele>239.6</ele>
        <time>2024-04-28T09:45:10Z</time>
      </trkpt>
      <trkpt lat="50.06763" lon="4.29166">
        <ele>239.8</ele>
        <time>2024-04-28T09:45:11Z</time>
      </trkpt>
      <trkpt lat="50.0676" lon="4.29169">
        <ele>240.6</ele>
        <time>2024-04-28T09:45:12Z</time>
      </trkpt>
      <trkpt lat="50.06757" lon="4.29171">
        <ele>241.2</ele>
        <time>2024-04-28T09:45:13Z</time>
      </trkpt>
      <trkpt lat="50.06754" lon="4.29173">
        <ele>241.4</ele>
        <time>2024-04-28T09:45:14Z</time>
      </trkpt>
      <trkpt lat="50.06752" lon="4.29175">
        <ele>242</ele>
        <time>2024-04-28T09:45:15Z</time>
      </trkpt>
      <trkpt lat="50.0675" lon="4.29177">
        <ele>242</ele>
        <time>2024-04-28T09:45:16Z</time>
      </trkpt>
      <trkpt lat="50.06747" lon="4.29178">
        <ele>242.4</ele>
        <time>2024-04-28T09:45:17Z</time>
      </trkpt>
      <trkpt lat="50.06745" lon="4.29179">
        <ele>242.4</ele>
        <time>2024-04-28T09:45:18Z</time>
      </trkpt>
      <trkpt lat="50.06743" lon="4.29179">
        <ele>242.8</ele>
        <time>2024-04-28T09:45:19Z</time>
      </trkpt>
      <trkpt lat="50.06741" lon="4.2918">
        <ele>243.2</ele>
        <time>2024-04-28T09:45:20Z</time>
      </trkpt>
      <trkpt lat="50.06739" lon="4.29179">
        <ele>243.2</ele>
        <time>2024-04-28T09:45:21Z</time>
      </trkpt>
      <trkpt lat="50.06738" lon="4.29176">
        <ele>243.6</ele>
        <time>2024-04-28T09:45:22Z</time>
      </trkpt>
      <trkpt lat="50.06738" lon="4.29173">
        <ele>243.6</ele>
        <time>2024-04-28T09:45:23Z</time>
      </trkpt>
      <trkpt lat="50.06738" lon="4.2917">
        <ele>244</ele>
        <time>2024-04-28T09:45:24Z</time>
      </trkpt>
      <trkpt lat="50.06738" lon="4.29165">
        <ele>244.2</ele>
        <time>2024-04-28T09:45:25Z</time>
      </trkpt>
      <trkpt lat="50.06738" lon="4.29159">
        <ele>244.4</ele>
        <time>2024-04-28T09:45:26Z</time>
      </trkpt>
      <trkpt lat="50.06738" lon="4.29153">
        <ele>244.2</ele>
        <time>2024-04-28T09:45:27Z</time>
      </trkpt>
      <trkpt lat="50.06738" lon="4.29146">
        <ele>244.4</ele>
        <time>2024-04-28T09:45:28Z</time>
      </trkpt>
      <trkpt lat="50.06737" lon="4.29139">
        <ele>244.4</ele>
        <time>2024-04-28T09:45:29Z</time>
      </trkpt>
      <trkpt lat="50.06737" lon="4.29131">
        <ele>244.4</ele>
        <time>2024-04-28T09:45:30Z</time>
      </trkpt>
      <trkpt lat="50.06737" lon="4.29124">
        <ele>244.2</ele>
        <time>2024-04-28T09:45:31Z</time>
      </trkpt>
      <trkpt lat="50.06737" lon="4.29116">
        <ele>244.4</ele>
        <time>2024-04-28T09:45:32Z</time>
      </trkpt>
      <trkpt lat="50.06737" lon="4.29108">
        <ele>244.4</ele>
        <time>2024-04-28T09:45:33Z</time>
      </trkpt>
      <trkpt lat="50.06737" lon="4.29099">
        <ele>244.2</ele>
        <time>2024-04-28T09:45:34Z</time>
      </trkpt>
      <trkpt lat="50.06737" lon="4.2909">
        <ele>244.2</ele>
        <time>2024-04-28T09:45:35Z</time>
      </trkpt>
      <trkpt lat="50.06736" lon="4.29081">
        <ele>244.2</ele>
        <time>2024-04-28T09:45:36Z</time>
      </trkpt>
      <trkpt lat="50.06736" lon="4.29071">
        <ele>244.2</ele>
        <time>2024-04-28T09:45:37Z</time>
      </trkpt>
      <trkpt lat="50.06736" lon="4.29061">
        <ele>244.2</ele>
        <time>2024-04-28T09:45:38Z</time>
      </trkpt>
      <trkpt lat="50.06736" lon="4.2905">
        <ele>244.2</ele>
        <time>2024-04-28T09:45:39Z</time>
      </trkpt>
      <trkpt lat="50.06736" lon="4.2904">
        <ele>243.8</ele>
        <time>2024-04-28T09:45:40Z</time>
      </trkpt>
      <trkpt lat="50.06736" lon="4.29029">
        <ele>243.8</ele>
        <time>2024-04-28T09:45:41Z</time>
      </trkpt>
      <trkpt lat="50.06736" lon="4.29018">
        <ele>243.6</ele>
        <time>2024-04-28T09:45:42Z</time>
      </trkpt>
      <trkpt lat="50.06736" lon="4.29006">
        <ele>243.2</ele>
        <time>2024-04-28T09:45:43Z</time>
      </trkpt>
      <trkpt lat="50.06735" lon="4.28995">
        <ele>243</ele>
        <time>2024-04-28T09:45:44Z</time>
      </trkpt>
      <trkpt lat="50.06735" lon="4.28983">
        <ele>242.8</ele>
        <time>2024-04-28T09:45:45Z</time>
      </trkpt>
      <trkpt lat="50.06735" lon="4.28972">
        <ele>242.4</ele>
        <time>2024-04-28T09:45:46Z</time>
      </trkpt>
      <trkpt lat="50.06735" lon="4.2896">
        <ele>242</ele>
        <time>2024-04-28T09:45:47Z</time>
      </trkpt>
      <trkpt lat="50.06735" lon="4.28949">
        <ele>241.6</ele>
        <time>2024-04-28T09:45:48Z</time>
      </trkpt>
      <trkpt lat="50.06735" lon="4.28938">
        <ele>241.2</ele>
        <time>2024-04-28T09:45:49Z</time>
      </trkpt>
      <trkpt lat="50.06735" lon="4.28927">
        <ele>240.8</ele>
        <time>2024-04-28T09:45:50Z</time>
      </trkpt>
      <trkpt lat="50.06735" lon="4.28916">
        <ele>240.2</ele>
        <time>2024-04-28T09:45:51Z</time>
      </trkpt>
      <trkpt lat="50.06735" lon="4.28905">
        <ele>239.8</ele>
        <time>2024-04-28T09:45:52Z</time>
      </trkpt>
      <trkpt lat="50.06736" lon="4.28894">
        <ele>239.4</ele>
        <time>2024-04-28T09:45:53Z</time>
      </trkpt>
      <trkpt lat="50.06736" lon="4.28883">
        <ele>239.2</ele>
        <time>2024-04-28T09:45:54Z</time>
      </trkpt>
      <trkpt lat="50.06736" lon="4.28872">
        <ele>239.2</ele>
        <time>2024-04-28T09:45:55Z</time>
      </trkpt>
      <trkpt lat="50.06735" lon="4.28861">
        <ele>239</ele>
        <time>2024-04-28T09:45:56Z</time>
      </trkpt>
      <trkpt lat="50.06732" lon="4.28852">
        <ele>239</ele>
        <time>2024-04-28T09:45:57Z</time>
      </trkpt>
      <trkpt lat="50.06728" lon="4.28844">
        <ele>238.8</ele>
        <time>2024-04-28T09:45:58Z</time>
      </trkpt>
      <trkpt lat="50.06722" lon="4.28838">
        <ele>238.8</ele>
        <time>2024-04-28T09:45:59Z</time>
      </trkpt>
      <trkpt lat="50.06716" lon="4.28835">
        <ele>238.6</ele>
        <time>2024-04-28T09:46:00Z</time>
      </trkpt>
      <trkpt lat="50.06709" lon="4.28833">
        <ele>238.6</ele>
        <time>2024-04-28T09:46:01Z</time>
      </trkpt>
      <trkpt lat="50.06703" lon="4.28832">
        <ele>238.4</ele>
        <time>2024-04-28T09:46:02Z</time>
      </trkpt>
      <trkpt lat="50.06696" lon="4.28832">
        <ele>238.4</ele>
        <time>2024-04-28T09:46:03Z</time>
      </trkpt>
      <trkpt lat="50.06689" lon="4.28831">
        <ele>238.2</ele>
        <time>2024-04-28T09:46:04Z</time>
      </trkpt>
      <trkpt lat="50.06682" lon="4.2883">
        <ele>238.2</ele>
        <time>2024-04-28T09:46:05Z</time>
      </trkpt>
      <trkpt lat="50.06675" lon="4.2883">
        <ele>238.2</ele>
        <time>2024-04-28T09:46:06Z</time>
      </trkpt>
      <trkpt lat="50.06668" lon="4.2883">
        <ele>237.8</ele>
        <time>2024-04-28T09:46:07Z</time>
      </trkpt>
      <trkpt lat="50.0666" lon="4.28829">
        <ele>237</ele>
        <time>2024-04-28T09:46:08Z</time>
      </trkpt>
      <trkpt lat="50.06652" lon="4.2883">
        <ele>236.2</ele>
        <time>2024-04-28T09:46:09Z</time>
      </trkpt>
      <trkpt lat="50.06644" lon="4.2883">
        <ele>235.6</ele>
        <time>2024-04-28T09:46:10Z</time>
      </trkpt>
      <trkpt lat="50.06635" lon="4.28831">
        <ele>235.2</ele>
        <time>2024-04-28T09:46:11Z</time>
      </trkpt>
      <trkpt lat="50.06627" lon="4.28832">
        <ele>235</ele>
        <time>2024-04-28T09:46:12Z</time>
      </trkpt>
      <trkpt lat="50.06618" lon="4.28834">
        <ele>235</ele>
        <time>2024-04-28T09:46:13Z</time>
      </trkpt>
      <trkpt lat="50.06609" lon="4.28835">
        <ele>234.4</ele>
        <time>2024-04-28T09:46:14Z</time>
      </trkpt>
      <trkpt lat="50.066" lon="4.28837">
        <ele>234</ele>
        <time>2024-04-28T09:46:15Z</time>
      </trkpt>
      <trkpt lat="50.06592" lon="4.2884">
        <ele>233.6</ele>
        <time>2024-04-28T09:46:16Z</time>
      </trkpt>
      <trkpt lat="50.06584" lon="4.28843">
        <ele>233</ele>
        <time>2024-04-28T09:46:17Z</time>
      </trkpt>
      <trkpt lat="50.06576" lon="4.28846">
        <ele>232.4</ele>
        <time>2024-04-28T09:46:18Z</time>
      </trkpt>
      <trkpt lat="50.06568" lon="4.28849">
        <ele>232.4</ele>
        <time>2024-04-28T09:46:19Z</time>
      </trkpt>
      <trkpt lat="50.0656" lon="4.28853">
        <ele>232</ele>
        <time>2024-04-28T09:46:20Z</time>
      </trkpt>
      <trkpt lat="50.06552" lon="4.28857">
        <ele>231.8</ele>
        <time>2024-04-28T09:46:21Z</time>
      </trkpt>
      <trkpt lat="50.06544" lon="4.2886">
        <ele>231.6</ele>
        <time>2024-04-28T09:46:22Z</time>
      </trkpt>
      <trkpt lat="50.06536" lon="4.28864">
        <ele>231.8</ele>
        <time>2024-04-28T09:46:23Z</time>
      </trkpt>
      <trkpt lat="50.06528" lon="4.28869">
        <ele>231.6</ele>
        <time>2024-04-28T09:46:24Z</time>
      </trkpt>
      <trkpt lat="50.0652" lon="4.28875">
        <ele>231.4</ele>
        <time>2024-04-28T09:46:25Z</time>
      </trkpt>
      <trkpt lat="50.06512" lon="4.28881">
        <ele>231.2</ele>
        <time>2024-04-28T09:46:26Z</time>
      </trkpt>
      <trkpt lat="50.06504" lon="4.28888">
        <ele>231.2</ele>
        <time>2024-04-28T09:46:27Z</time>
      </trkpt>
      <trkpt lat="50.06495" lon="4.28894">
        <ele>231</ele>
        <time>2024-04-28T09:46:28Z</time>
      </trkpt>
      <trkpt lat="50.06487" lon="4.28901">
        <ele>230.6</ele>
        <time>2024-04-28T09:46:29Z</time>
      </trkpt>
      <trkpt lat="50.06479" lon="4.28908">
        <ele>230.6</ele>
        <time>2024-04-28T09:46:30Z</time>
      </trkpt>
      <trkpt lat="50.0647" lon="4.28915">
        <ele>230.2</ele>
        <time>2024-04-28T09:46:31Z</time>
      </trkpt>
      <trkpt lat="50.06461" lon="4.28921">
        <ele>230</ele>
        <time>2024-04-28T09:46:32Z</time>
      </trkpt>
      <trkpt lat="50.06452" lon="4.28929">
        <ele>229.8</ele>
        <time>2024-04-28T09:46:33Z</time>
      </trkpt>
      <trkpt lat="50.06443" lon="4.28936">
        <ele>229.4</ele>
        <time>2024-04-28T09:46:34Z</time>
      </trkpt>
      <trkpt lat="50.06434" lon="4.28944">
        <ele>229</ele>
        <time>2024-04-28T09:46:35Z</time>
      </trkpt>
      <trkpt lat="50.06425" lon="4.28951">
        <ele>229</ele>
        <time>2024-04-28T09:46:36Z</time>
      </trkpt>
      <trkpt lat="50.06416" lon="4.28958">
        <ele>229</ele>
        <time>2024-04-28T09:46:37Z</time>
      </trkpt>
      <trkpt lat="50.06407" lon="4.28966">
        <ele>228.6</ele>
        <time>2024-04-28T09:46:38Z</time>
      </trkpt>
      <trkpt lat="50.06397" lon="4.28973">
        <ele>228.6</ele>
        <time>2024-04-28T09:46:39Z</time>
      </trkpt>
      <trkpt lat="50.06388" lon="4.28981">
        <ele>228.6</ele>
        <time>2024-04-28T09:46:40Z</time>
      </trkpt>
      <trkpt lat="50.06379" lon="4.28988">
        <ele>228.4</ele>
        <time>2024-04-28T09:46:41Z</time>
      </trkpt>
      <trkpt lat="50.06369" lon="4.28995">
        <ele>228.4</ele>
        <time>2024-04-28T09:46:42Z</time>
      </trkpt>
      <trkpt lat="50.06359" lon="4.29003">
        <ele>228.2</ele>
        <time>2024-04-28T09:46:43Z</time>
      </trkpt>
      <trkpt lat="50.0635" lon="4.29011">
        <ele>228</ele>
        <time>2024-04-28T09:46:44Z</time>
      </trkpt>
      <trkpt lat="50.0634" lon="4.29019">
        <ele>228</ele>
        <time>2024-04-28T09:46:45Z</time>
      </trkpt>
      <trkpt lat="50.06331" lon="4.29027">
        <ele>228</ele>
        <time>2024-04-28T09:46:46Z</time>
      </trkpt>
      <trkpt lat="50.06321" lon="4.29035">
        <ele>228</ele>
        <time>2024-04-28T09:46:47Z</time>
      </trkpt>
      <trkpt lat="50.06311" lon="4.29042">
        <ele>228</ele>
        <time>2024-04-28T09:46:48Z</time>
      </trkpt>
      <trkpt lat="50.06301" lon="4.2905">
        <ele>228</ele>
        <time>2024-04-28T09:46:49Z</time>
      </trkpt>
      <trkpt lat="50.06292" lon="4.29057">
        <ele>227.8</ele>
        <time>2024-04-28T09:46:50Z</time>
      </trkpt>
      <trkpt lat="50.06282" lon="4.29065">
        <ele>227.6</ele>
        <time>2024-04-28T09:46:51Z</time>
      </trkpt>
      <trkpt lat="50.06272" lon="4.29073">
        <ele>227.6</ele>
        <time>2024-04-28T09:46:52Z</time>
      </trkpt>
      <trkpt lat="50.06262" lon="4.29081">
        <ele>227.4</ele>
        <time>2024-04-28T09:46:53Z</time>
      </trkpt>
      <trkpt lat="50.06253" lon="4.29089">
        <ele>227</ele>
        <time>2024-04-28T09:46:54Z</time>
      </trkpt>
      <trkpt lat="50.06243" lon="4.29097">
        <ele>226.8</ele>
        <time>2024-04-28T09:46:55Z</time>
      </trkpt>
      <trkpt lat="50.06233" lon="4.29105">
        <ele>226.6</ele>
        <time>2024-04-28T09:46:56Z</time>
      </trkpt>
      <trkpt lat="50.06223" lon="4.29113">
        <ele>226.4</ele>
        <time>2024-04-28T09:46:57Z</time>
      </trkpt>
      <trkpt lat="50.06213" lon="4.29121">
        <ele>226.2</ele>
        <time>2024-04-28T09:46:58Z</time>
      </trkpt>
      <trkpt lat="50.06203" lon="4.29129">
        <ele>226.2</ele>
        <time>2024-04-28T09:46:59Z</time>
      </trkpt>
      <trkpt lat="50.06193" lon="4.29137">
        <ele>226</ele>
        <time>2024-04-28T09:47:00Z</time>
      </trkpt>
      <trkpt lat="50.06183" lon="4.29145">
        <ele>226</ele>
        <time>2024-04-28T09:47:01Z</time>
      </trkpt>
      <trkpt lat="50.06173" lon="4.29152">
        <ele>226</ele>
        <time>2024-04-28T09:47:02Z</time>
      </trkpt>
      <trkpt lat="50.06162" lon="4.2916">
        <ele>225.8</ele>
        <time>2024-04-28T09:47:03Z</time>
      </trkpt>
      <trkpt lat="50.06152" lon="4.29169">
        <ele>225.2</ele>
        <time>2024-04-28T09:47:04Z</time>
      </trkpt>
      <trkpt lat="50.06142" lon="4.29176">
        <ele>225</ele>
        <time>2024-04-28T09:47:05Z</time>
      </trkpt>
      <trkpt lat="50.06132" lon="4.29184">
        <ele>225</ele>
        <time>2024-04-28T09:47:06Z</time>
      </trkpt>
      <trkpt lat="50.06122" lon="4.29193">
        <ele>225</ele>
        <time>2024-04-28T09:47:07Z</time>
      </trkpt>
      <trkpt lat="50.06112" lon="4.29201">
        <ele>224.6</ele>
        <time>2024-04-28T09:47:08Z</time>
      </trkpt>
      <trkpt lat="50.06102" lon="4.29208">
        <ele>224.6</ele>
        <time>2024-04-28T09:47:09Z</time>
      </trkpt>
      <trkpt lat="50.06091" lon="4.29216">
        <ele>224.4</ele>
        <time>2024-04-28T09:47:10Z</time>
      </trkpt>
      <trkpt lat="50.06081" lon="4.29224">
        <ele>224.4</ele>
        <time>2024-04-28T09:47:11Z</time>
      </trkpt>
      <trkpt lat="50.06071" lon="4.29233">
        <ele>224</ele>
        <time>2024-04-28T09:47:12Z</time>
      </trkpt>
      <trkpt lat="50.06061" lon="4.29241">
        <ele>224</ele>
        <time>2024-04-28T09:47:13Z</time>
      </trkpt>
      <trkpt lat="50.06051" lon="4.29248">
        <ele>223.6</ele>
        <time>2024-04-28T09:47:14Z</time>
      </trkpt>
      <trkpt lat="50.06041" lon="4.29256">
        <ele>223.4</ele>
        <time>2024-04-28T09:47:15Z</time>
      </trkpt>
      <trkpt lat="50.06031" lon="4.29264">
        <ele>223.2</ele>
        <time>2024-04-28T09:47:16Z</time>
      </trkpt>
      <trkpt lat="50.06021" lon="4.29273">
        <ele>222.8</ele>
        <time>2024-04-28T09:47:17Z</time>
      </trkpt>
      <trkpt lat="50.06011" lon="4.29281">
        <ele>222.4</ele>
        <time>2024-04-28T09:47:18Z</time>
      </trkpt>
      <trkpt lat="50.06" lon="4.29289">
        <ele>222.2</ele>
        <time>2024-04-28T09:47:19Z</time>
      </trkpt>
      <trkpt lat="50.0599" lon="4.29297">
        <ele>222</ele>
        <time>2024-04-28T09:47:20Z</time>
      </trkpt>
      <trkpt lat="50.0598" lon="4.29305">
        <ele>222</ele>
        <time>2024-04-28T09:47:21Z</time>
      </trkpt>
      <trkpt lat="50.0597" lon="4.29312">
        <ele>221.8</ele>
        <time>2024-04-28T09:47:22Z</time>
      </trkpt>
      <trkpt lat="50.05961" lon="4.2932">
        <ele>221.6</ele>
        <time>2024-04-28T09:47:23Z</time>
      </trkpt>
      <trkpt lat="50.05951" lon="4.29328">
        <ele>221.4</ele>
        <time>2024-04-28T09:47:24Z</time>
      </trkpt>
      <trkpt lat="50.05941" lon="4.29335">
        <ele>221.4</ele>
        <time>2024-04-28T09:47:25Z</time>
      </trkpt>
      <trkpt lat="50.05932" lon="4.29342">
        <ele>221.2</ele>
        <time>2024-04-28T09:47:26Z</time>
      </trkpt>
      <trkpt lat="50.05922" lon="4.2935">
        <ele>221</ele>
        <time>2024-04-28T09:47:27Z</time>
      </trkpt>
      <trkpt lat="50.05913" lon="4.29358">
        <ele>220.6</ele>
        <time>2024-04-28T09:47:28Z</time>
      </trkpt>
      <trkpt lat="50.05904" lon="4.29365">
        <ele>220.4</ele>
        <time>2024-04-28T09:47:29Z</time>
      </trkpt>
      <trkpt lat="50.05894" lon="4.29373">
        <ele>219.8</ele>
        <time>2024-04-28T09:47:30Z</time>
      </trkpt>
      <trkpt lat="50.05885" lon="4.2938">
        <ele>219.4</ele>
        <time>2024-04-28T09:47:31Z</time>
      </trkpt>
      <trkpt lat="50.05876" lon="4.29387">
        <ele>219</ele>
        <time>2024-04-28T09:47:32Z</time>
      </trkpt>
      <trkpt lat="50.05867" lon="4.29394">
        <ele>219</ele>
        <time>2024-04-28T09:47:33Z</time>
      </trkpt>
      <trkpt lat="50.05858" lon="4.29402">
        <ele>219</ele>
        <time>2024-04-28T09:47:34Z</time>
      </trkpt>
      <trkpt lat="50.05849" lon="4.29409">
        <ele>219</ele>
        <time>2024-04-28T09:47:35Z</time>
      </trkpt>
      <trkpt lat="50.0584" lon="4.29417">
        <ele>219</ele>
        <time>2024-04-28T09:47:36Z</time>
      </trkpt>
      <trkpt lat="50.05831" lon="4.29423">
        <ele>218.8</ele>
        <time>2024-04-28T09:47:37Z</time>
      </trkpt>
      <trkpt lat="50.05822" lon="4.2943">
        <ele>218.8</ele>
        <time>2024-04-28T09:47:38Z</time>
      </trkpt>
      <trkpt lat="50.05813" lon="4.29437">
        <ele>218.8</ele>
        <time>2024-04-28T09:47:39Z</time>
      </trkpt>
      <trkpt lat="50.05804" lon="4.29444">
        <ele>218.8</ele>
        <time>2024-04-28T09:47:40Z</time>
      </trkpt>
      <trkpt lat="50.05796" lon="4.2945">
        <ele>218.8</ele>
        <time>2024-04-28T09:47:41Z</time>
      </trkpt>
      <trkpt lat="50.05788" lon="4.29457">
        <ele>219</ele>
        <time>2024-04-28T09:47:42Z</time>
      </trkpt>
      <trkpt lat="50.05779" lon="4.29463">
        <ele>218.8</ele>
        <time>2024-04-28T09:47:43Z</time>
      </trkpt>
      <trkpt lat="50.05771" lon="4.2947">
        <ele>218.8</ele>
        <time>2024-04-28T09:47:44Z</time>
      </trkpt>
      <trkpt lat="50.05763" lon="4.29476">
        <ele>218.8</ele>
        <time>2024-04-28T09:47:45Z</time>
      </trkpt>
      <trkpt lat="50.05755" lon="4.29482">
        <ele>218.8</ele>
        <time>2024-04-28T09:47:46Z</time>
      </trkpt>
      <trkpt lat="50.05747" lon="4.29488">
        <ele>218.8</ele>
        <time>2024-04-28T09:47:47Z</time>
      </trkpt>
      <trkpt lat="50.05739" lon="4.29494">
        <ele>218.8</ele>
        <time>2024-04-28T09:47:48Z</time>
      </trkpt>
      <trkpt lat="50.05731" lon="4.295">
        <ele>219</ele>
        <time>2024-04-28T09:47:49Z</time>
      </trkpt>
      <trkpt lat="50.05723" lon="4.29506">
        <ele>219</ele>
        <time>2024-04-28T09:47:50Z</time>
      </trkpt>
      <trkpt lat="50.05715" lon="4.29512">
        <ele>219</ele>
        <time>2024-04-28T09:47:51Z</time>
      </trkpt>
      <trkpt lat="50.05707" lon="4.29518">
        <ele>219.2</ele>
        <time>2024-04-28T09:47:52Z</time>
      </trkpt>
      <trkpt lat="50.05699" lon="4.29524">
        <ele>218.8</ele>
        <time>2024-04-28T09:47:53Z</time>
      </trkpt>
      <trkpt lat="50.05691" lon="4.2953">
        <ele>219</ele>
        <time>2024-04-28T09:47:54Z</time>
      </trkpt>
      <trkpt lat="50.05683" lon="4.29536">
        <ele>219</ele>
        <time>2024-04-28T09:47:55Z</time>
      </trkpt>
      <trkpt lat="50.05676" lon="4.29543">
        <ele>220</ele>
        <time>2024-04-28T09:47:56Z</time>
      </trkpt>
      <trkpt lat="50.05668" lon="4.29549">
        <ele>220.4</ele>
        <time>2024-04-28T09:47:57Z</time>
      </trkpt>
      <trkpt lat="50.0566" lon="4.29556">
        <ele>220.6</ele>
        <time>2024-04-28T09:47:58Z</time>
      </trkpt>
      <trkpt lat="50.05652" lon="4.29562">
        <ele>220.8</ele>
        <time>2024-04-28T09:47:59Z</time>
      </trkpt>
      <trkpt lat="50.05644" lon="4.29569">
        <ele>220.8</ele>
        <time>2024-04-28T09:48:00Z</time>
      </trkpt>
      <trkpt lat="50.05636" lon="4.29575">
        <ele>221.2</ele>
        <time>2024-04-28T09:48:01Z</time>
      </trkpt>
      <trkpt lat="50.05627" lon="4.29582">
        <ele>221.2</ele>
        <time>2024-04-28T09:48:02Z</time>
      </trkpt>
      <trkpt lat="50.05619" lon="4.29588">
        <ele>221.4</ele>
        <time>2024-04-28T09:48:03Z</time>
      </trkpt>
      <trkpt lat="50.0561" lon="4.29595">
        <ele>221.4</ele>
        <time>2024-04-28T09:48:04Z</time>
      </trkpt>
      <trkpt lat="50.05602" lon="4.29602">
        <ele>221.6</ele>
        <time>2024-04-28T09:48:05Z</time>
      </trkpt>
      <trkpt lat="50.05594" lon="4.29608">
        <ele>221.6</ele>
        <time>2024-04-28T09:48:06Z</time>
      </trkpt>
      <trkpt lat="50.05586" lon="4.29615">
        <ele>221.6</ele>
        <time>2024-04-28T09:48:07Z</time>
      </trkpt>
      <trkpt lat="50.05577" lon="4.29621">
        <ele>221.6</ele>
        <time>2024-04-28T09:48:08Z</time>
      </trkpt>
      <trkpt lat="50.05569" lon="4.29627">
        <ele>221.6</ele>
        <time>2024-04-28T09:48:09Z</time>
      </trkpt>
      <trkpt lat="50.05562" lon="4.29633">
        <ele>221.6</ele>
        <time>2024-04-28T09:48:10Z</time>
      </trkpt>
      <trkpt lat="50.05554" lon="4.29638">
        <ele>221.8</ele>
        <time>2024-04-28T09:48:11Z</time>
      </trkpt>
      <trkpt lat="50.05547" lon="4.29644">
        <ele>221.8</ele>
        <time>2024-04-28T09:48:12Z</time>
      </trkpt>
      <trkpt lat="50.0554" lon="4.2965">
        <ele>221.8</ele>
        <time>2024-04-28T09:48:13Z</time>
      </trkpt>
      <trkpt lat="50.05533" lon="4.29656">
        <ele>221.6</ele>
        <time>2024-04-28T09:48:14Z</time>
      </trkpt>
      <trkpt lat="50.05526" lon="4.29662">
        <ele>222</ele>
        <time>2024-04-28T09:48:15Z</time>
      </trkpt>
      <trkpt lat="50.05519" lon="4.29667">
        <ele>222</ele>
        <time>2024-04-28T09:48:16Z</time>
      </trkpt>
      <trkpt lat="50.05512" lon="4.29673">
        <ele>221.8</ele>
        <time>2024-04-28T09:48:17Z</time>
      </trkpt>
      <trkpt lat="50.05505" lon="4.29679">
        <ele>221.8</ele>
        <time>2024-04-28T09:48:18Z</time>
      </trkpt>
      <trkpt lat="50.05498" lon="4.29685">
        <ele>222</ele>
        <time>2024-04-28T09:48:19Z</time>
      </trkpt>
      <trkpt lat="50.05491" lon="4.29691">
        <ele>222</ele>
        <time>2024-04-28T09:48:20Z</time>
      </trkpt>
      <trkpt lat="50.05484" lon="4.29696">
        <ele>222</ele>
        <time>2024-04-28T09:48:21Z</time>
      </trkpt>
      <trkpt lat="50.05476" lon="4.29701">
        <ele>222</ele>
        <time>2024-04-28T09:48:22Z</time>
      </trkpt>
      <trkpt lat="50.05469" lon="4.29707">
        <ele>222.4</ele>
        <time>2024-04-28T09:48:23Z</time>
      </trkpt>
      <trkpt lat="50.05462" lon="4.29712">
        <ele>222.6</ele>
        <time>2024-04-28T09:48:24Z</time>
      </trkpt>
      <trkpt lat="50.05456" lon="4.29717">
        <ele>223</ele>
        <time>2024-04-28T09:48:25Z</time>
      </trkpt>
      <trkpt lat="50.05449" lon="4.29722">
        <ele>223</ele>
        <time>2024-04-28T09:48:26Z</time>
      </trkpt>
      <trkpt lat="50.05442" lon="4.29728">
        <ele>223.2</ele>
        <time>2024-04-28T09:48:27Z</time>
      </trkpt>
      <trkpt lat="50.05436" lon="4.29733">
        <ele>223.2</ele>
        <time>2024-04-28T09:48:28Z</time>
      </trkpt>
      <trkpt lat="50.0543" lon="4.29738">
        <ele>223.2</ele>
        <time>2024-04-28T09:48:29Z</time>
      </trkpt>
      <trkpt lat="50.05423" lon="4.29743">
        <ele>223.2</ele>
        <time>2024-04-28T09:48:30Z</time>
      </trkpt>
      <trkpt lat="50.05417" lon="4.29747">
        <ele>223.2</ele>
        <time>2024-04-28T09:48:31Z</time>
      </trkpt>
      <trkpt lat="50.05412" lon="4.29752">
        <ele>223.2</ele>
        <time>2024-04-28T09:48:32Z</time>
      </trkpt>
      <trkpt lat="50.05406" lon="4.29756">
        <ele>223.2</ele>
        <time>2024-04-28T09:48:33Z</time>
      </trkpt>
      <trkpt lat="50.05401" lon="4.29761">
        <ele>223</ele>
        <time>2024-04-28T09:48:34Z</time>
      </trkpt>
      <trkpt lat="50.05395" lon="4.29765">
        <ele>223</ele>
        <time>2024-04-28T09:48:35Z</time>
      </trkpt>
      <trkpt lat="50.0539" lon="4.29769">
        <ele>223</ele>
        <time>2024-04-28T09:48:36Z</time>
      </trkpt>
      <trkpt lat="50.05385" lon="4.29774">
        <ele>223</ele>
        <time>2024-04-28T09:48:37Z</time>
      </trkpt>
      <trkpt lat="50.05379" lon="4.29778">
        <ele>223</ele>
        <time>2024-04-28T09:48:38Z</time>
      </trkpt>
      <trkpt lat="50.05374" lon="4.29781">
        <ele>222.8</ele>
        <time>2024-04-28T09:48:39Z</time>
      </trkpt>
      <trkpt lat="50.05368" lon="4.29782">
        <ele>222.8</ele>
        <time>2024-04-28T09:48:40Z</time>
      </trkpt>
      <trkpt lat="50.05362" lon="4.29779">
        <ele>222.8</ele>
        <time>2024-04-28T09:48:41Z</time>
      </trkpt>
      <trkpt lat="50.05357" lon="4.29775">
        <ele>222.8</ele>
        <time>2024-04-28T09:48:42Z</time>
      </trkpt>
      <trkpt lat="50.05354" lon="4.29769">
        <ele>222.6</ele>
        <time>2024-04-28T09:48:43Z</time>
      </trkpt>
      <trkpt lat="50.05351" lon="4.29762">
        <ele>222.6</ele>
        <time>2024-04-28T09:48:44Z</time>
      </trkpt>
      <trkpt lat="50.05348" lon="4.29755">
        <ele>222.6</ele>
        <time>2024-04-28T09:48:45Z</time>
      </trkpt>
      <trkpt lat="50.05346" lon="4.29748">
        <ele>222.6</ele>
        <time>2024-04-28T09:48:46Z</time>
      </trkpt>
      <trkpt lat="50.05344" lon="4.2974">
        <ele>222.8</ele>
        <time>2024-04-28T09:48:47Z</time>
      </trkpt>
      <trkpt lat="50.05343" lon="4.29733">
        <ele>222.8</ele>
        <time>2024-04-28T09:48:48Z</time>
      </trkpt>
      <trkpt lat="50.05341" lon="4.29725">
        <ele>222.6</ele>
        <time>2024-04-28T09:48:49Z</time>
      </trkpt>
      <trkpt lat="50.05339" lon="4.29718">
        <ele>223</ele>
        <time>2024-04-28T09:48:50Z</time>
      </trkpt>
      <trkpt lat="50.05337" lon="4.29711">
        <ele>223</ele>
        <time>2024-04-28T09:48:51Z</time>
      </trkpt>
      <trkpt lat="50.05335" lon="4.29704">
        <ele>223.2</ele>
        <time>2024-04-28T09:48:52Z</time>
      </trkpt>
      <trkpt lat="50.05333" lon="4.29697">
        <ele>223.6</ele>
        <time>2024-04-28T09:48:53Z</time>
      </trkpt>
      <trkpt lat="50.05331" lon="4.29689">
        <ele>223.6</ele>
        <time>2024-04-28T09:48:54Z</time>
      </trkpt>
      <trkpt lat="50.05329" lon="4.29682">
        <ele>223.8</ele>
        <time>2024-04-28T09:48:55Z</time>
      </trkpt>
      <trkpt lat="50.05327" lon="4.29675">
        <ele>224</ele>
        <time>2024-04-28T09:48:56Z</time>
      </trkpt>
      <trkpt lat="50.05325" lon="4.29668">
        <ele>224.8</ele>
        <time>2024-04-28T09:48:57Z</time>
      </trkpt>
      <trkpt lat="50.05322" lon="4.29662">
        <ele>225.4</ele>
        <time>2024-04-28T09:48:58Z</time>
      </trkpt>
      <trkpt lat="50.0532" lon="4.29655">
        <ele>225.8</ele>
        <time>2024-04-28T09:48:59Z</time>
      </trkpt>
      <trkpt lat="50.05318" lon="4.29649">
        <ele>226</ele>
        <time>2024-04-28T09:49:00Z</time>
      </trkpt>
      <trkpt lat="50.05316" lon="4.29643">
        <ele>226.2</ele>
        <time>2024-04-28T09:49:01Z</time>
      </trkpt>
      <trkpt lat="50.05314" lon="4.29637">
        <ele>226.2</ele>
        <time>2024-04-28T09:49:02Z</time>
      </trkpt>
      <trkpt lat="50.05312" lon="4.29631">
        <ele>226.6</ele>
        <time>2024-04-28T09:49:03Z</time>
      </trkpt>
      <trkpt lat="50.05311" lon="4.29625">
        <ele>226.6</ele>
        <time>2024-04-28T09:49:04Z</time>
      </trkpt>
      <trkpt lat="50.05311" lon="4.29618">
        <ele>226.6</ele>
        <time>2024-04-28T09:49:05Z</time>
      </trkpt>
      <trkpt lat="50.05311" lon="4.29611">
        <ele>226.8</ele>
        <time>2024-04-28T09:49:06Z</time>
      </trkpt>
      <trkpt lat="50.05311" lon="4.29604">
        <ele>226.8</ele>
        <time>2024-04-28T09:49:07Z</time>
      </trkpt>
      <trkpt lat="50.0531" lon="4.29598">
        <ele>226.6</ele>
        <time>2024-04-28T09:49:08Z</time>
      </trkpt>
      <trkpt lat="50.05308" lon="4.29591">
        <ele>226.8</ele>
        <time>2024-04-28T09:49:09Z</time>
      </trkpt>
      <trkpt lat="50.05305" lon="4.29586">
        <ele>226.6</ele>
        <time>2024-04-28T09:49:10Z</time>
      </trkpt>
      <trkpt lat="50.05301" lon="4.29581">
        <ele>226.8</ele>
        <time>2024-04-28T09:49:11Z</time>
      </trkpt>
      <trkpt lat="50.05297" lon="4.29579">
        <ele>226.8</ele>
        <time>2024-04-28T09:49:12Z</time>
      </trkpt>
      <trkpt lat="50.05293" lon="4.29577">
        <ele>226.8</ele>
        <time>2024-04-28T09:49:13Z</time>
      </trkpt>
      <trkpt lat="50.05288" lon="4.29577">
        <ele>227</ele>
        <time>2024-04-28T09:49:14Z</time>
      </trkpt>
      <trkpt lat="50.05284" lon="4.29579">
        <ele>226.8</ele>
        <time>2024-04-28T09:49:15Z</time>
      </trkpt>
      <trkpt lat="50.0528" lon="4.29583">
        <ele>226.8</ele>
        <time>2024-04-28T09:49:16Z</time>
      </trkpt>
      <trkpt lat="50.05277" lon="4.29588">
        <ele>227.2</ele>
        <time>2024-04-28T09:49:17Z</time>
      </trkpt>
      <trkpt lat="50.05274" lon="4.29594">
        <ele>227.2</ele>
        <time>2024-04-28T09:49:18Z</time>
      </trkpt>
      <trkpt lat="50.05273" lon="4.29601">
        <ele>227.2</ele>
        <time>2024-04-28T09:49:19Z</time>
      </trkpt>
      <trkpt lat="50.05272" lon="4.29609">
        <ele>227.2</ele>
        <time>2024-04-28T09:49:20Z</time>
      </trkpt>
      <trkpt lat="50.05273" lon="4.29616">
        <ele>227.4</ele>
        <time>2024-04-28T09:49:21Z</time>
      </trkpt>
      <trkpt lat="50.05274" lon="4.29623">
        <ele>227.4</ele>
        <time>2024-04-28T09:49:22Z</time>
      </trkpt>
      <trkpt lat="50.05274" lon="4.29631">
        <ele>227.4</ele>
        <time>2024-04-28T09:49:23Z</time>
      </trkpt>
      <trkpt lat="50.05274" lon="4.29639">
        <ele>227.4</ele>
        <time>2024-04-28T09:49:24Z</time>
      </trkpt>
      <trkpt lat="50.05272" lon="4.29647">
        <ele>227.4</ele>
        <time>2024-04-28T09:49:25Z</time>
      </trkpt>
      <trkpt lat="50.0527" lon="4.29655">
        <ele>227.4</ele>
        <time>2024-04-28T09:49:26Z</time>
      </trkpt>
      <trkpt lat="50.05268" lon="4.29663">
        <ele>227.4</ele>
        <time>2024-04-28T09:49:27Z</time>
      </trkpt>
      <trkpt lat="50.05266" lon="4.29672">
        <ele>227</ele>
        <time>2024-04-28T09:49:28Z</time>
      </trkpt>
      <trkpt lat="50.05264" lon="4.2968">
        <ele>226.8</ele>
        <time>2024-04-28T09:49:29Z</time>
      </trkpt>
      <trkpt lat="50.05262" lon="4.29689">
        <ele>226.8</ele>
        <time>2024-04-28T09:49:30Z</time>
      </trkpt>
      <trkpt lat="50.0526" lon="4.29698">
        <ele>226.8</ele>
        <time>2024-04-28T09:49:31Z</time>
      </trkpt>
      <trkpt lat="50.05258" lon="4.29708">
        <ele>226.8</ele>
        <time>2024-04-28T09:49:32Z</time>
      </trkpt>
      <trkpt lat="50.05257" lon="4.29718">
        <ele>226.8</ele>
        <time>2024-04-28T09:49:33Z</time>
      </trkpt>
      <trkpt lat="50.05255" lon="4.29728">
        <ele>226.8</ele>
        <time>2024-04-28T09:49:34Z</time>
      </trkpt>
      <trkpt lat="50.05253" lon="4.29738">
        <ele>226.8</ele>
        <time>2024-04-28T09:49:35Z</time>
      </trkpt>
      <trkpt lat="50.05251" lon="4.29748">
        <ele>226.6</ele>
        <time>2024-04-28T09:49:36Z</time>
      </trkpt>
      <trkpt lat="50.05249" lon="4.29759">
        <ele>226.4</ele>
        <time>2024-04-28T09:49:37Z</time>
      </trkpt>
      <trkpt lat="50.05246" lon="4.29769">
        <ele>226.2</ele>
        <time>2024-04-28T09:49:38Z</time>
      </trkpt>
      <trkpt lat="50.05244" lon="4.2978">
        <ele>225.8</ele>
        <time>2024-04-28T09:49:39Z</time>
      </trkpt>
      <trkpt lat="50.05242" lon="4.2979">
        <ele>225.8</ele>
        <time>2024-04-28T09:49:40Z</time>
      </trkpt>
      <trkpt lat="50.0524" lon="4.29801">
        <ele>225.6</ele>
        <time>2024-04-28T09:49:41Z</time>
      </trkpt>
      <trkpt lat="50.05238" lon="4.29812">
        <ele>225.6</ele>
        <time>2024-04-28T09:49:42Z</time>
      </trkpt>
      <trkpt lat="50.05236" lon="4.29823">
        <ele>225.4</ele>
        <time>2024-04-28T09:49:43Z</time>
      </trkpt>
      <trkpt lat="50.05234" lon="4.29834">
        <ele>225.4</ele>
        <time>2024-04-28T09:49:44Z</time>
      </trkpt>
      <trkpt lat="50.05231" lon="4.29844">
        <ele>225</ele>
        <time>2024-04-28T09:49:45Z</time>
      </trkpt>
      <trkpt lat="50.05229" lon="4.29855">
        <ele>224.8</ele>
        <time>2024-04-28T09:49:46Z</time>
      </trkpt>
      <trkpt lat="50.05227" lon="4.29866">
        <ele>224.8</ele>
        <time>2024-04-28T09:49:47Z</time>
      </trkpt>
      <trkpt lat="50.05225" lon="4.29877">
        <ele>224.8</ele>
        <time>2024-04-28T09:49:48Z</time>
      </trkpt>
      <trkpt lat="50.05222" lon="4.29888">
        <ele>224.6</ele>
        <time>2024-04-28T09:49:49Z</time>
      </trkpt>
      <trkpt lat="50.0522" lon="4.29898">
        <ele>224.6</ele>
        <time>2024-04-28T09:49:50Z</time>
      </trkpt>
      <trkpt lat="50.05218" lon="4.29909">
        <ele>224.6</ele>
        <time>2024-04-28T09:49:51Z</time>
      </trkpt>
      <trkpt lat="50.05216" lon="4.29919">
        <ele>224.8</ele>
        <time>2024-04-28T09:49:52Z</time>
      </trkpt>
      <trkpt lat="50.05214" lon="4.2993">
        <ele>224.4</ele>
        <time>2024-04-28T09:49:53Z</time>
      </trkpt>
      <trkpt lat="50.05212" lon="4.2994">
        <ele>224.6</ele>
        <time>2024-04-28T09:49:54Z</time>
      </trkpt>
      <trkpt lat="50.05209" lon="4.29951">
        <ele>224.6</ele>
        <time>2024-04-28T09:49:55Z</time>
      </trkpt>
      <trkpt lat="50.05207" lon="4.29961">
        <ele>224.6</ele>
        <time>2024-04-28T09:49:56Z</time>
      </trkpt>
      <trkpt lat="50.05205" lon="4.29972">
        <ele>224.4</ele>
        <time>2024-04-28T09:49:57Z</time>
      </trkpt>
      <trkpt lat="50.05203" lon="4.29983">
        <ele>224.6</ele>
        <time>2024-04-28T09:49:58Z</time>
      </trkpt>
      <trkpt lat="50.052" lon="4.29994">
        <ele>225</ele>
        <time>2024-04-28T09:49:59Z</time>
      </trkpt>
      <trkpt lat="50.05198" lon="4.30004">
        <ele>224.8</ele>
        <time>2024-04-28T09:50:00Z</time>
      </trkpt>
      <trkpt lat="50.05196" lon="4.30014">
        <ele>225</ele>
        <time>2024-04-28T09:50:01Z</time>
      </trkpt>
      <trkpt lat="50.05194" lon="4.30025">
        <ele>224.8</ele>
        <time>2024-04-28T09:50:02Z</time>
      </trkpt>
      <trkpt lat="50.05192" lon="4.30034">
        <ele>225</ele>
        <time>2024-04-28T09:50:03Z</time>
      </trkpt>
      <trkpt lat="50.0519" lon="4.30044">
        <ele>224.8</ele>
        <time>2024-04-28T09:50:04Z</time>
      </trkpt>
      <trkpt lat="50.05188" lon="4.30053">
        <ele>224.8</ele>
        <time>2024-04-28T09:50:05Z</time>
      </trkpt>
      <trkpt lat="50.05185" lon="4.30063">
        <ele>224.8</ele>
        <time>2024-04-28T09:50:06Z</time>
      </trkpt>
      <trkpt lat="50.05183" lon="4.30072">
        <ele>224.6</ele>
        <time>2024-04-28T09:50:07Z</time>
      </trkpt>
      <trkpt lat="50.05181" lon="4.30081">
        <ele>224.6</ele>
        <time>2024-04-28T09:50:08Z</time>
      </trkpt>
      <trkpt lat="50.05179" lon="4.3009">
        <ele>223.6</ele>
        <time>2024-04-28T09:50:09Z</time>
      </trkpt>
      <trkpt lat="50.05177" lon="4.30099">
        <ele>223.2</ele>
        <time>2024-04-28T09:50:10Z</time>
      </trkpt>
      <trkpt lat="50.05174" lon="4.30107">
        <ele>223</ele>
        <time>2024-04-28T09:50:11Z</time>
      </trkpt>
      <trkpt lat="50.05172" lon="4.30116">
        <ele>222.8</ele>
        <time>2024-04-28T09:50:12Z</time>
      </trkpt>
      <trkpt lat="50.0517" lon="4.30124">
        <ele>222.6</ele>
        <time>2024-04-28T09:50:13Z</time>
      </trkpt>
      <trkpt lat="50.05167" lon="4.30132">
        <ele>222.6</ele>
        <time>2024-04-28T09:50:14Z</time>
      </trkpt>
      <trkpt lat="50.05165" lon="4.30141">
        <ele>222.6</ele>
        <time>2024-04-28T09:50:15Z</time>
      </trkpt>
      <trkpt lat="50.05162" lon="4.30149">
        <ele>222.6</ele>
        <time>2024-04-28T09:50:16Z</time>
      </trkpt>
      <trkpt lat="50.0516" lon="4.30157">
        <ele>222.4</ele>
        <time>2024-04-28T09:50:17Z</time>
      </trkpt>
      <trkpt lat="50.05158" lon="4.30166">
        <ele>222.4</ele>
        <time>2024-04-28T09:50:18Z</time>
      </trkpt>
      <trkpt lat="50.05155" lon="4.30174">
        <ele>222.2</ele>
        <time>2024-04-28T09:50:19Z</time>
      </trkpt>
      <trkpt lat="50.05153" lon="4.30182">
        <ele>222.2</ele>
        <time>2024-04-28T09:50:20Z</time>
      </trkpt>
      <trkpt lat="50.0515" lon="4.30191">
        <ele>222.2</ele>
        <time>2024-04-28T09:50:21Z</time>
      </trkpt>
      <trkpt lat="50.05148" lon="4.30199">
        <ele>222.2</ele>
        <time>2024-04-28T09:50:22Z</time>
      </trkpt>
      <trkpt lat="50.05145" lon="4.30208">
        <ele>222.4</ele>
        <time>2024-04-28T09:50:23Z</time>
      </trkpt>
      <trkpt lat="50.05142" lon="4.30217">
        <ele>222.4</ele>
        <time>2024-04-28T09:50:24Z</time>
      </trkpt>
      <trkpt lat="50.0514" lon="4.30226">
        <ele>222.4</ele>
        <time>2024-04-28T09:50:25Z</time>
      </trkpt>
      <trkpt lat="50.05137" lon="4.30235">
        <ele>222.4</ele>
        <time>2024-04-28T09:50:26Z</time>
      </trkpt>
      <trkpt lat="50.05135" lon="4.30243">
        <ele>222.4</ele>
        <time>2024-04-28T09:50:27Z</time>
      </trkpt>
      <trkpt lat="50.05132" lon="4.30252">
        <ele>222.4</ele>
        <time>2024-04-28T09:50:28Z</time>
      </trkpt>
      <trkpt lat="50.0513" lon="4.30261">
        <ele>222.4</ele>
        <time>2024-04-28T09:50:29Z</time>
      </trkpt>
      <trkpt lat="50.05127" lon="4.3027">
        <ele>222.4</ele>
        <time>2024-04-28T09:50:30Z</time>
      </trkpt>
      <trkpt lat="50.05124" lon="4.30279">
        <ele>222.6</ele>
        <time>2024-04-28T09:50:31Z</time>
      </trkpt>
      <trkpt lat="50.05122" lon="4.30288">
        <ele>222.6</ele>
        <time>2024-04-28T09:50:32Z</time>
      </trkpt>
      <trkpt lat="50.05119" lon="4.30297">
        <ele>222.6</ele>
        <time>2024-04-28T09:50:33Z</time>
      </trkpt>
      <trkpt lat="50.05116" lon="4.30307">
        <ele>222.4</ele>
        <time>2024-04-28T09:50:34Z</time>
      </trkpt>
      <trkpt lat="50.05114" lon="4.30316">
        <ele>222.6</ele>
        <time>2024-04-28T09:50:35Z</time>
      </trkpt>
      <trkpt lat="50.05111" lon="4.30327">
        <ele>222.8</ele>
        <time>2024-04-28T09:50:36Z</time>
      </trkpt>
      <trkpt lat="50.05108" lon="4.30337">
        <ele>222.8</ele>
        <time>2024-04-28T09:50:37Z</time>
      </trkpt>
      <trkpt lat="50.05105" lon="4.30348">
        <ele>222.8</ele>
        <time>2024-04-28T09:50:38Z</time>
      </trkpt>
      <trkpt lat="50.05101" lon="4.30359">
        <ele>223</ele>
        <time>2024-04-28T09:50:39Z</time>
      </trkpt>
      <trkpt lat="50.05098" lon="4.30371">
        <ele>223</ele>
        <time>2024-04-28T09:50:40Z</time>
      </trkpt>
      <trkpt lat="50.05095" lon="4.30382">
        <ele>223</ele>
        <time>2024-04-28T09:50:41Z</time>
      </trkpt>
      <trkpt lat="50.05092" lon="4.30394">
        <ele>222.8</ele>
        <time>2024-04-28T09:50:42Z</time>
      </trkpt>
      <trkpt lat="50.05088" lon="4.30405">
        <ele>223</ele>
        <time>2024-04-28T09:50:43Z</time>
      </trkpt>
      <trkpt lat="50.05085" lon="4.30417">
        <ele>222.8</ele>
        <time>2024-04-28T09:50:44Z</time>
      </trkpt>
      <trkpt lat="50.05082" lon="4.30428">
        <ele>223</ele>
        <time>2024-04-28T09:50:45Z</time>
      </trkpt>
      <trkpt lat="50.05078" lon="4.3044">
        <ele>223</ele>
        <time>2024-04-28T09:50:46Z</time>
      </trkpt>
      <trkpt lat="50.05075" lon="4.30452">
        <ele>223</ele>
        <time>2024-04-28T09:50:47Z</time>
      </trkpt>
      <trkpt lat="50.05071" lon="4.30464">
        <ele>222.8</ele>
        <time>2024-04-28T09:50:48Z</time>
      </trkpt>
      <trkpt lat="50.05068" lon="4.30476">
        <ele>222.8</ele>
        <time>2024-04-28T09:50:49Z</time>
      </trkpt>
      <trkpt lat="50.05064" lon="4.30487">
        <ele>222.8</ele>
        <time>2024-04-28T09:50:50Z</time>
      </trkpt>
      <trkpt lat="50.05061" lon="4.30499">
        <ele>222.6</ele>
        <time>2024-04-28T09:50:51Z</time>
      </trkpt>
      <trkpt lat="50.05057" lon="4.30511">
        <ele>222.6</ele>
        <time>2024-04-28T09:50:52Z</time>
      </trkpt>
      <trkpt lat="50.05054" lon="4.30523">
        <ele>222.6</ele>
        <time>2024-04-28T09:50:53Z</time>
      </trkpt>
      <trkpt lat="50.0505" lon="4.30536">
        <ele>222.4</ele>
        <time>2024-04-28T09:50:54Z</time>
      </trkpt>
      <trkpt lat="50.05047" lon="4.30548">
        <ele>222.4</ele>
        <time>2024-04-28T09:50:55Z</time>
      </trkpt>
      <trkpt lat="50.05043" lon="4.30561">
        <ele>222.2</ele>
        <time>2024-04-28T09:50:56Z</time>
      </trkpt>
      <trkpt lat="50.05039" lon="4.30573">
        <ele>222</ele>
        <time>2024-04-28T09:50:57Z</time>
      </trkpt>
      <trkpt lat="50.05036" lon="4.30586">
        <ele>222</ele>
        <time>2024-04-28T09:50:58Z</time>
      </trkpt>
      <trkpt lat="50.05032" lon="4.30599">
        <ele>222</ele>
        <time>2024-04-28T09:50:59Z</time>
      </trkpt>
      <trkpt lat="50.05029" lon="4.30612">
        <ele>221.8</ele>
        <time>2024-04-28T09:51:00Z</time>
      </trkpt>
      <trkpt lat="50.05026" lon="4.30625">
        <ele>221.6</ele>
        <time>2024-04-28T09:51:01Z</time>
      </trkpt>
      <trkpt lat="50.05024" lon="4.30638">
        <ele>221.6</ele>
        <time>2024-04-28T09:51:02Z</time>
      </trkpt>
      <trkpt lat="50.05022" lon="4.30652">
        <ele>221.2</ele>
        <time>2024-04-28T09:51:03Z</time>
      </trkpt>
      <trkpt lat="50.05021" lon="4.30666">
        <ele>220.8</ele>
        <time>2024-04-28T09:51:04Z</time>
      </trkpt>
      <trkpt lat="50.05021" lon="4.3068">
        <ele>220.8</ele>
        <time>2024-04-28T09:51:05Z</time>
      </trkpt>
      <trkpt lat="50.05021" lon="4.30694">
        <ele>220.6</ele>
        <time>2024-04-28T09:51:06Z</time>
      </trkpt>
      <trkpt lat="50.0502" lon="4.30709">
        <ele>220.4</ele>
        <time>2024-04-28T09:51:07Z</time>
      </trkpt>
      <trkpt lat="50.05021" lon="4.30723">
        <ele>220.2</ele>
        <time>2024-04-28T09:51:08Z</time>
      </trkpt>
      <trkpt lat="50.05021" lon="4.30738">
        <ele>220.2</ele>
        <time>2024-04-28T09:51:09Z</time>
      </trkpt>
      <trkpt lat="50.05021" lon="4.30753">
        <ele>220.2</ele>
        <time>2024-04-28T09:51:10Z</time>
      </trkpt>
      <trkpt lat="50.0502" lon="4.30769">
        <ele>220.2</ele>
        <time>2024-04-28T09:51:11Z</time>
      </trkpt>
      <trkpt lat="50.0502" lon="4.30784">
        <ele>219.8</ele>
        <time>2024-04-28T09:51:12Z</time>
      </trkpt>
      <trkpt lat="50.05021" lon="4.308">
        <ele>219.6</ele>
        <time>2024-04-28T09:51:13Z</time>
      </trkpt>
      <trkpt lat="50.05021" lon="4.30816">
        <ele>219.4</ele>
        <time>2024-04-28T09:51:14Z</time>
      </trkpt>
      <trkpt lat="50.0502" lon="4.30832">
        <ele>219.2</ele>
        <time>2024-04-28T09:51:15Z</time>
      </trkpt>
      <trkpt lat="50.05019" lon="4.30848">
        <ele>218.8</ele>
        <time>2024-04-28T09:51:16Z</time>
      </trkpt>
      <trkpt lat="50.05017" lon="4.30863">
        <ele>218.6</ele>
        <time>2024-04-28T09:51:17Z</time>
      </trkpt>
      <trkpt lat="50.05015" lon="4.30878">
        <ele>218.4</ele>
        <time>2024-04-28T09:51:18Z</time>
      </trkpt>
      <trkpt lat="50.05012" lon="4.30892">
        <ele>218.2</ele>
        <time>2024-04-28T09:51:19Z</time>
      </trkpt>
      <trkpt lat="50.05009" lon="4.30907">
        <ele>218</ele>
        <time>2024-04-28T09:51:20Z</time>
      </trkpt>
      <trkpt lat="50.05005" lon="4.3092">
        <ele>218</ele>
        <time>2024-04-28T09:51:21Z</time>
      </trkpt>
      <trkpt lat="50.05" lon="4.30932">
        <ele>218</ele>
        <time>2024-04-28T09:51:22Z</time>
      </trkpt>
      <trkpt lat="50.04996" lon="4.30941">
        <ele>217.2</ele>
        <time>2024-04-28T09:51:23Z</time>
      </trkpt>
      <trkpt lat="50.04992" lon="4.30948">
        <ele>217.2</ele>
        <time>2024-04-28T09:51:24Z</time>
      </trkpt>
      <trkpt lat="50.04989" lon="4.30951">
        <ele>216</ele>
        <time>2024-04-28T09:51:25Z</time>
      </trkpt>
      <trkpt lat="50.04986" lon="4.30953">
        <ele>216</ele>
        <time>2024-04-28T09:51:26Z</time>
      </trkpt>
      <trkpt lat="50.04983" lon="4.30955">
        <ele>215.2</ele>
        <time>2024-04-28T09:51:27Z</time>
      </trkpt>
      <trkpt lat="50.04979" lon="4.30957">
        <ele>214.4</ele>
        <time>2024-04-28T09:51:28Z</time>
      </trkpt>
      <trkpt lat="50.04974" lon="4.3096">
        <ele>213.6</ele>
        <time>2024-04-28T09:51:29Z</time>
      </trkpt>
      <trkpt lat="50.04969" lon="4.30963">
        <ele>213.4</ele>
        <time>2024-04-28T09:51:30Z</time>
      </trkpt>
      <trkpt lat="50.04963" lon="4.30965">
        <ele>213.2</ele>
        <time>2024-04-28T09:51:31Z</time>
      </trkpt>
      <trkpt lat="50.04956" lon="4.30967">
        <ele>212.8</ele>
        <time>2024-04-28T09:51:32Z</time>
      </trkpt>
      <trkpt lat="50.04948" lon="4.30968">
        <ele>212.4</ele>
        <time>2024-04-28T09:51:33Z</time>
      </trkpt>
      <trkpt lat="50.0494" lon="4.30969">
        <ele>212.2</ele>
        <time>2024-04-28T09:51:34Z</time>
      </trkpt>
      <trkpt lat="50.04932" lon="4.30971">
        <ele>212.2</ele>
        <time>2024-04-28T09:51:35Z</time>
      </trkpt>
      <trkpt lat="50.04923" lon="4.30974">
        <ele>212</ele>
        <time>2024-04-28T09:51:36Z</time>
      </trkpt>
      <trkpt lat="50.04915" lon="4.30977">
        <ele>211.8</ele>
        <time>2024-04-28T09:51:37Z</time>
      </trkpt>
      <trkpt lat="50.04906" lon="4.3098">
        <ele>211.2</ele>
        <time>2024-04-28T09:51:38Z</time>
      </trkpt>
      <trkpt lat="50.04898" lon="4.30984">
        <ele>210.6</ele>
        <time>2024-04-28T09:51:39Z</time>
      </trkpt>
      <trkpt lat="50.04889" lon="4.30987">
        <ele>210.2</ele>
        <time>2024-04-28T09:51:40Z</time>
      </trkpt>
      <trkpt lat="50.04881" lon="4.30991">
        <ele>209.8</ele>
        <time>2024-04-28T09:51:41Z</time>
      </trkpt>
      <trkpt lat="50.04872" lon="4.30994">
        <ele>209.4</ele>
        <time>2024-04-28T09:51:42Z</time>
      </trkpt>
      <trkpt lat="50.04864" lon="4.30997">
        <ele>208.8</ele>
        <time>2024-04-28T09:51:43Z</time>
      </trkpt>
      <trkpt lat="50.04855" lon="4.31002">
        <ele>208</ele>
        <time>2024-04-28T09:51:44Z</time>
      </trkpt>
      <trkpt lat="50.04846" lon="4.31007">
        <ele>208</ele>
        <time>2024-04-28T09:51:45Z</time>
      </trkpt>
      <trkpt lat="50.04837" lon="4.31013">
        <ele>207.6</ele>
        <time>2024-04-28T09:51:46Z</time>
      </trkpt>
      <trkpt lat="50.04828" lon="4.3102">
        <ele>207.4</ele>
        <time>2024-04-28T09:51:47Z</time>
      </trkpt>
      <trkpt lat="50.04819" lon="4.31027">
        <ele>207</ele>
        <time>2024-04-28T09:51:48Z</time>
      </trkpt>
      <trkpt lat="50.04809" lon="4.31034">
        <ele>206.8</ele>
        <time>2024-04-28T09:51:49Z</time>
      </trkpt>
      <trkpt lat="50.048" lon="4.31042">
        <ele>206.6</ele>
        <time>2024-04-28T09:51:50Z</time>
      </trkpt>
      <trkpt lat="50.0479" lon="4.31049">
        <ele>206.2</ele>
        <time>2024-04-28T09:51:51Z</time>
      </trkpt>
      <trkpt lat="50.04781" lon="4.31057">
        <ele>206</ele>
        <time>2024-04-28T09:51:52Z</time>
      </trkpt>
      <trkpt lat="50.04772" lon="4.31064">
        <ele>205.6</ele>
        <time>2024-04-28T09:51:53Z</time>
      </trkpt>
      <trkpt lat="50.04762" lon="4.31072">
        <ele>205.6</ele>
        <time>2024-04-28T09:51:54Z</time>
      </trkpt>
      <trkpt lat="50.04753" lon="4.3108">
        <ele>204.8</ele>
        <time>2024-04-28T09:51:55Z</time>
      </trkpt>
      <trkpt lat="50.04743" lon="4.31087">
        <ele>204.2</ele>
        <time>2024-04-28T09:51:56Z</time>
      </trkpt>
      <trkpt lat="50.04734" lon="4.31094">
        <ele>203.4</ele>
        <time>2024-04-28T09:51:57Z</time>
      </trkpt>
      <trkpt lat="50.04724" lon="4.31101">
        <ele>202.4</ele>
        <time>2024-04-28T09:51:58Z</time>
      </trkpt>
      <trkpt lat="50.04715" lon="4.31108">
        <ele>200.8</ele>
        <time>2024-04-28T09:51:59Z</time>
      </trkpt>
      <trkpt lat="50.04706" lon="4.31116">
        <ele>199.8</ele>
        <time>2024-04-28T09:52:00Z</time>
      </trkpt>
      <trkpt lat="50.04699" lon="4.31126">
        <ele>199.2</ele>
        <time>2024-04-28T09:52:01Z</time>
      </trkpt>
      <trkpt lat="50.04694" lon="4.31137">
        <ele>199</ele>
        <time>2024-04-28T09:52:02Z</time>
      </trkpt>
      <trkpt lat="50.04692" lon="4.31149">
        <ele>199</ele>
        <time>2024-04-28T09:52:03Z</time>
      </trkpt>
      <trkpt lat="50.04691" lon="4.31161">
        <ele>198.8</ele>
        <time>2024-04-28T09:52:04Z</time>
      </trkpt>
      <trkpt lat="50.04692" lon="4.31173">
        <ele>198.8</ele>
        <time>2024-04-28T09:52:05Z</time>
      </trkpt>
      <trkpt lat="50.04693" lon="4.31185">
        <ele>198.8</ele>
        <time>2024-04-28T09:52:06Z</time>
      </trkpt>
      <trkpt lat="50.04696" lon="4.31195">
        <ele>198.8</ele>
        <time>2024-04-28T09:52:07Z</time>
      </trkpt>
      <trkpt lat="50.04698" lon="4.31205">
        <ele>198.8</ele>
        <time>2024-04-28T09:52:08Z</time>
      </trkpt>
      <trkpt lat="50.047" lon="4.31215">
        <ele>198.8</ele>
        <time>2024-04-28T09:52:09Z</time>
      </trkpt>
      <trkpt lat="50.04702" lon="4.31224">
        <ele>199</ele>
        <time>2024-04-28T09:52:10Z</time>
      </trkpt>
      <trkpt lat="50.04704" lon="4.31234">
        <ele>199.4</ele>
        <time>2024-04-28T09:52:11Z</time>
      </trkpt>
      <trkpt lat="50.04707" lon="4.31243">
        <ele>200.4</ele>
        <time>2024-04-28T09:52:12Z</time>
      </trkpt>
      <trkpt lat="50.04709" lon="4.31252">
        <ele>201.2</ele>
        <time>2024-04-28T09:52:13Z</time>
      </trkpt>
      <trkpt lat="50.04711" lon="4.31261">
        <ele>201.6</ele>
        <time>2024-04-28T09:52:14Z</time>
      </trkpt>
      <trkpt lat="50.04713" lon="4.31269">
        <ele>201.8</ele>
        <time>2024-04-28T09:52:15Z</time>
      </trkpt>
      <trkpt lat="50.04715" lon="4.31278">
        <ele>202.8</ele>
        <time>2024-04-28T09:52:16Z</time>
      </trkpt>
      <trkpt lat="50.04717" lon="4.31286">
        <ele>203.4</ele>
        <time>2024-04-28T09:52:17Z</time>
      </trkpt>
      <trkpt lat="50.04719" lon="4.31294">
        <ele>203.8</ele>
        <time>2024-04-28T09:52:18Z</time>
      </trkpt>
      <trkpt lat="50.04721" lon="4.31303">
        <ele>204.6</ele>
        <time>2024-04-28T09:52:19Z</time>
      </trkpt>
      <trkpt lat="50.04722" lon="4.31311">
        <ele>204.6</ele>
        <time>2024-04-28T09:52:20Z</time>
      </trkpt>
      <trkpt lat="50.04724" lon="4.3132">
        <ele>205</ele>
        <time>2024-04-28T09:52:21Z</time>
      </trkpt>
      <trkpt lat="50.04725" lon="4.31328">
        <ele>205.4</ele>
        <time>2024-04-28T09:52:22Z</time>
      </trkpt>
      <trkpt lat="50.04727" lon="4.31336">
        <ele>206</ele>
        <time>2024-04-28T09:52:23Z</time>
      </trkpt>
      <trkpt lat="50.04729" lon="4.31344">
        <ele>206.6</ele>
        <time>2024-04-28T09:52:24Z</time>
      </trkpt>
      <trkpt lat="50.04731" lon="4.31352">
        <ele>206.8</ele>
        <time>2024-04-28T09:52:25Z</time>
      </trkpt>
      <trkpt lat="50.04733" lon="4.3136">
        <ele>207</ele>
        <time>2024-04-28T09:52:26Z</time>
      </trkpt>
      <trkpt lat="50.04735" lon="4.31368">
        <ele>207.4</ele>
        <time>2024-04-28T09:52:27Z</time>
      </trkpt>
      <trkpt lat="50.04737" lon="4.31376">
        <ele>207.8</ele>
        <time>2024-04-28T09:52:28Z</time>
      </trkpt>
      <trkpt lat="50.04738" lon="4.31384">
        <ele>208</ele>
        <time>2024-04-28T09:52:29Z</time>
      </trkpt>
      <trkpt lat="50.0474" lon="4.31392">
        <ele>208.6</ele>
        <time>2024-04-28T09:52:30Z</time>
      </trkpt>
      <trkpt lat="50.04741" lon="4.314">
        <ele>209.2</ele>
        <time>2024-04-28T09:52:31Z</time>
      </trkpt>
      <trkpt lat="50.04743" lon="4.31408">
        <ele>209.6</ele>
        <time>2024-04-28T09:52:32Z</time>
      </trkpt>
      <trkpt lat="50.04744" lon="4.31417">
        <ele>210</ele>
        <time>2024-04-28T09:52:33Z</time>
      </trkpt>
      <trkpt lat="50.04745" lon="4.31425">
        <ele>210</ele>
        <time>2024-04-28T09:52:34Z</time>
      </trkpt>
      <trkpt lat="50.04746" lon="4.31434">
        <ele>210.4</ele>
        <time>2024-04-28T09:52:35Z</time>
      </trkpt>
      <trkpt lat="50.04748" lon="4.31442">
        <ele>210.4</ele>
        <time>2024-04-28T09:52:36Z</time>
      </trkpt>
      <trkpt lat="50.04749" lon="4.3145">
        <ele>210.6</ele>
        <time>2024-04-28T09:52:37Z</time>
      </trkpt>
      <trkpt lat="50.04751" lon="4.31459">
        <ele>211</ele>
        <time>2024-04-28T09:52:38Z</time>
      </trkpt>
      <trkpt lat="50.04752" lon="4.31467">
        <ele>211.2</ele>
        <time>2024-04-28T09:52:39Z</time>
      </trkpt>
      <trkpt lat="50.04754" lon="4.31475">
        <ele>211.4</ele>
        <time>2024-04-28T09:52:40Z</time>
      </trkpt>
      <trkpt lat="50.04756" lon="4.31484">
        <ele>211.6</ele>
        <time>2024-04-28T09:52:41Z</time>
      </trkpt>
      <trkpt lat="50.04757" lon="4.31492">
        <ele>211.6</ele>
        <time>2024-04-28T09:52:42Z</time>
      </trkpt>
      <trkpt lat="50.04758" lon="4.315">
        <ele>211.8</ele>
        <time>2024-04-28T09:52:43Z</time>
      </trkpt>
      <trkpt lat="50.0476" lon="4.31509">
        <ele>211.8</ele>
        <time>2024-04-28T09:52:44Z</time>
      </trkpt>
      <trkpt lat="50.0476" lon="4.31516">
        <ele>212</ele>
        <time>2024-04-28T09:52:45Z</time>
      </trkpt>
      <trkpt lat="50.04762" lon="4.31524">
        <ele>212</ele>
        <time>2024-04-28T09:52:46Z</time>
      </trkpt>
      <trkpt lat="50.04763" lon="4.31532">
        <ele>212.4</ele>
        <time>2024-04-28T09:52:47Z</time>
      </trkpt>
      <trkpt lat="50.04764" lon="4.3154">
        <ele>212.4</ele>
        <time>2024-04-28T09:52:48Z</time>
      </trkpt>
      <trkpt lat="50.04765" lon="4.31547">
        <ele>212.4</ele>
        <time>2024-04-28T09:52:49Z</time>
      </trkpt>
      <trkpt lat="50.04766" lon="4.31555">
        <ele>212.6</ele>
        <time>2024-04-28T09:52:50Z</time>
      </trkpt>
      <trkpt lat="50.04767" lon="4.31562">
        <ele>212.4</ele>
        <time>2024-04-28T09:52:51Z</time>
      </trkpt>
      <trkpt lat="50.04768" lon="4.31569">
        <ele>212.6</ele>
        <time>2024-04-28T09:52:52Z</time>
      </trkpt>
      <trkpt lat="50.04767" lon="4.31576">
        <ele>212.6</ele>
        <time>2024-04-28T09:52:53Z</time>
      </trkpt>
      <trkpt lat="50.04767" lon="4.31583">
        <ele>212.6</ele>
        <time>2024-04-28T09:52:54Z</time>
      </trkpt>
      <trkpt lat="50.04766" lon="4.3159">
        <ele>213</ele>
        <time>2024-04-28T09:52:55Z</time>
      </trkpt>
      <trkpt lat="50.04766" lon="4.31597">
        <ele>213.2</ele>
        <time>2024-04-28T09:52:56Z</time>
      </trkpt>
      <trkpt lat="50.04764" lon="4.31603">
        <ele>213.6</ele>
        <time>2024-04-28T09:52:57Z</time>
      </trkpt>
      <trkpt lat="50.04763" lon="4.3161">
        <ele>214</ele>
        <time>2024-04-28T09:52:58Z</time>
      </trkpt>
      <trkpt lat="50.04762" lon="4.31617">
        <ele>214.4</ele>
        <time>2024-04-28T09:52:59Z</time>
      </trkpt>
      <trkpt lat="50.04761" lon="4.31623">
        <ele>214.8</ele>
        <time>2024-04-28T09:53:00Z</time>
      </trkpt>
      <trkpt lat="50.0476" lon="4.31629">
        <ele>215</ele>
        <time>2024-04-28T09:53:01Z</time>
      </trkpt>
      <trkpt lat="50.04758" lon="4.31635">
        <ele>215</ele>
        <time>2024-04-28T09:53:02Z</time>
      </trkpt>
      <trkpt lat="50.04756" lon="4.3164">
        <ele>215.2</ele>
        <time>2024-04-28T09:53:03Z</time>
      </trkpt>
      <trkpt lat="50.04754" lon="4.31646">
        <ele>215.2</ele>
        <time>2024-04-28T09:53:04Z</time>
      </trkpt>
      <trkpt lat="50.04752" lon="4.31651">
        <ele>215.4</ele>
        <time>2024-04-28T09:53:05Z</time>
      </trkpt>
      <trkpt lat="50.04749" lon="4.31656">
        <ele>215.6</ele>
        <time>2024-04-28T09:53:06Z</time>
      </trkpt>
      <trkpt lat="50.04747" lon="4.31662">
        <ele>215.6</ele>
        <time>2024-04-28T09:53:07Z</time>
      </trkpt>
      <trkpt lat="50.04745" lon="4.31667">
        <ele>216</ele>
        <time>2024-04-28T09:53:08Z</time>
      </trkpt>
      <trkpt lat="50.04743" lon="4.31673">
        <ele>215.8</ele>
        <time>2024-04-28T09:53:09Z</time>
      </trkpt>
      <trkpt lat="50.0474" lon="4.31679">
        <ele>216</ele>
        <time>2024-04-28T09:53:10Z</time>
      </trkpt>
      <trkpt lat="50.04738" lon="4.31686">
        <ele>216.2</ele>
        <time>2024-04-28T09:53:11Z</time>
      </trkpt>
      <trkpt lat="50.04735" lon="4.31692">
        <ele>216.2</ele>
        <time>2024-04-28T09:53:12Z</time>
      </trkpt>
      <trkpt lat="50.04732" lon="4.31698">
        <ele>216.4</ele>
        <time>2024-04-28T09:53:13Z</time>
      </trkpt>
      <trkpt lat="50.0473" lon="4.31704">
        <ele>216.6</ele>
        <time>2024-04-28T09:53:14Z</time>
      </trkpt>
      <trkpt lat="50.04727" lon="4.31709">
        <ele>217</ele>
        <time>2024-04-28T09:53:15Z</time>
      </trkpt>
      <trkpt lat="50.04724" lon="4.31714">
        <ele>217</ele>
        <time>2024-04-28T09:53:16Z</time>
      </trkpt>
      <trkpt lat="50.04721" lon="4.31719">
        <ele>217.2</ele>
        <time>2024-04-28T09:53:17Z</time>
      </trkpt>
      <trkpt lat="50.04717" lon="4.31723">
        <ele>217.2</ele>
        <time>2024-04-28T09:53:18Z</time>
      </trkpt>
      <trkpt lat="50.04714" lon="4.31727">
        <ele>217.2</ele>
        <time>2024-04-28T09:53:19Z</time>
      </trkpt>
      <trkpt lat="50.0471" lon="4.3173">
        <ele>217.4</ele>
        <time>2024-04-28T09:53:20Z</time>
      </trkpt>
      <trkpt lat="50.04706" lon="4.31734">
        <ele>217.6</ele>
        <time>2024-04-28T09:53:21Z</time>
      </trkpt>
      <trkpt lat="50.04703" lon="4.31736">
        <ele>217.8</ele>
        <time>2024-04-28T09:53:22Z</time>
      </trkpt>
      <trkpt lat="50.04699" lon="4.3174">
        <ele>217.8</ele>
        <time>2024-04-28T09:53:23Z</time>
      </trkpt>
      <trkpt lat="50.04696" lon="4.31743">
        <ele>218</ele>
        <time>2024-04-28T09:53:24Z</time>
      </trkpt>
      <trkpt lat="50.04693" lon="4.31747">
        <ele>218.2</ele>
        <time>2024-04-28T09:53:25Z</time>
      </trkpt>
      <trkpt lat="50.0469" lon="4.31752">
        <ele>218.2</ele>
        <time>2024-04-28T09:53:26Z</time>
      </trkpt>
      <trkpt lat="50.04688" lon="4.31757">
        <ele>218.6</ele>
        <time>2024-04-28T09:53:27Z</time>
      </trkpt>
      <trkpt lat="50.04687" lon="4.31763">
        <ele>218.6</ele>
        <time>2024-04-28T09:53:28Z</time>
      </trkpt>
      <trkpt lat="50.04687" lon="4.31769">
        <ele>218.4</ele>
        <time>2024-04-28T09:53:29Z</time>
      </trkpt>
      <trkpt lat="50.04689" lon="4.31776">
        <ele>218.8</ele>
        <time>2024-04-28T09:53:30Z</time>
      </trkpt>
      <trkpt lat="50.0469" lon="4.31783">
        <ele>218.8</ele>
        <time>2024-04-28T09:53:31Z</time>
      </trkpt>
      <trkpt lat="50.04692" lon="4.31789">
        <ele>218.8</ele>
        <time>2024-04-28T09:53:32Z</time>
      </trkpt>
      <trkpt lat="50.04694" lon="4.31796">
        <ele>219</ele>
        <time>2024-04-28T09:53:33Z</time>
      </trkpt>
      <trkpt lat="50.04696" lon="4.31803">
        <ele>219.2</ele>
        <time>2024-04-28T09:53:34Z</time>
      </trkpt>
      <trkpt lat="50.04699" lon="4.31811">
        <ele>219.2</ele>
        <time>2024-04-28T09:53:35Z</time>
      </trkpt>
      <trkpt lat="50.04701" lon="4.31818">
        <ele>219.2</ele>
        <time>2024-04-28T09:53:36Z</time>
      </trkpt>
      <trkpt lat="50.04704" lon="4.31825">
        <ele>219.4</ele>
        <time>2024-04-28T09:53:37Z</time>
      </trkpt>
      <trkpt lat="50.04706" lon="4.31832">
        <ele>219.6</ele>
        <time>2024-04-28T09:53:38Z</time>
      </trkpt>
      <trkpt lat="50.04709" lon="4.3184">
        <ele>219.8</ele>
        <time>2024-04-28T09:53:39Z</time>
      </trkpt>
      <trkpt lat="50.04711" lon="4.31847">
        <ele>220</ele>
        <time>2024-04-28T09:53:40Z</time>
      </trkpt>
      <trkpt lat="50.04714" lon="4.31854">
        <ele>220.2</ele>
        <time>2024-04-28T09:53:41Z</time>
      </trkpt>
      <trkpt lat="50.04716" lon="4.31862">
        <ele>220.2</ele>
        <time>2024-04-28T09:53:42Z</time>
      </trkpt>
      <trkpt lat="50.04718" lon="4.3187">
        <ele>220.4</ele>
        <time>2024-04-28T09:53:43Z</time>
      </trkpt>
      <trkpt lat="50.0472" lon="4.31879">
        <ele>220.4</ele>
        <time>2024-04-28T09:53:44Z</time>
      </trkpt>
      <trkpt lat="50.04722" lon="4.31887">
        <ele>220.4</ele>
        <time>2024-04-28T09:53:45Z</time>
      </trkpt>
      <trkpt lat="50.04723" lon="4.31896">
        <ele>220.4</ele>
        <time>2024-04-28T09:53:46Z</time>
      </trkpt>
      <trkpt lat="50.04724" lon="4.31904">
        <ele>220.4</ele>
        <time>2024-04-28T09:53:47Z</time>
      </trkpt>
      <trkpt lat="50.04724" lon="4.31913">
        <ele>220.4</ele>
        <time>2024-04-28T09:53:48Z</time>
      </trkpt>
      <trkpt lat="50.04724" lon="4.31922">
        <ele>220.6</ele>
        <time>2024-04-28T09:53:49Z</time>
      </trkpt>
      <trkpt lat="50.04723" lon="4.31931">
        <ele>220.6</ele>
        <time>2024-04-28T09:53:50Z</time>
      </trkpt>
      <trkpt lat="50.04722" lon="4.3194">
        <ele>220.8</ele>
        <time>2024-04-28T09:53:51Z</time>
      </trkpt>
      <trkpt lat="50.0472" lon="4.31949">
        <ele>221</ele>
        <time>2024-04-28T09:53:52Z</time>
      </trkpt>
      <trkpt lat="50.04719" lon="4.31959">
        <ele>221.2</ele>
        <time>2024-04-28T09:53:53Z</time>
      </trkpt>
      <trkpt lat="50.04718" lon="4.31968">
        <ele>221.2</ele>
        <time>2024-04-28T09:53:54Z</time>
      </trkpt>
      <trkpt lat="50.04717" lon="4.31977">
        <ele>221.4</ele>
        <time>2024-04-28T09:53:55Z</time>
      </trkpt>
      <trkpt lat="50.04716" lon="4.31987">
        <ele>221.4</ele>
        <time>2024-04-28T09:53:56Z</time>
      </trkpt>
      <trkpt lat="50.04714" lon="4.31996">
        <ele>221.6</ele>
        <time>2024-04-28T09:53:57Z</time>
      </trkpt>
      <trkpt lat="50.04713" lon="4.32005">
        <ele>221.6</ele>
        <time>2024-04-28T09:53:58Z</time>
      </trkpt>
      <trkpt lat="50.04712" lon="4.32014">
        <ele>221.8</ele>
        <time>2024-04-28T09:53:59Z</time>
      </trkpt>
      <trkpt lat="50.0471" lon="4.32023">
        <ele>221.8</ele>
        <time>2024-04-28T09:54:00Z</time>
      </trkpt>
      <trkpt lat="50.04709" lon="4.32032">
        <ele>221.8</ele>
        <time>2024-04-28T09:54:01Z</time>
      </trkpt>
      <trkpt lat="50.04707" lon="4.32041">
        <ele>222</ele>
        <time>2024-04-28T09:54:02Z</time>
      </trkpt>
      <trkpt lat="50.04706" lon="4.3205">
        <ele>222</ele>
        <time>2024-04-28T09:54:03Z</time>
      </trkpt>
      <trkpt lat="50.04704" lon="4.32059">
        <ele>222</ele>
        <time>2024-04-28T09:54:04Z</time>
      </trkpt>
      <trkpt lat="50.04702" lon="4.32068">
        <ele>222.4</ele>
        <time>2024-04-28T09:54:05Z</time>
      </trkpt>
      <trkpt lat="50.04701" lon="4.32077">
        <ele>222.8</ele>
        <time>2024-04-28T09:54:06Z</time>
      </trkpt>
      <trkpt lat="50.047" lon="4.32085">
        <ele>223</ele>
        <time>2024-04-28T09:54:07Z</time>
      </trkpt>
      <trkpt lat="50.04699" lon="4.32094">
        <ele>223</ele>
        <time>2024-04-28T09:54:08Z</time>
      </trkpt>
      <trkpt lat="50.04698" lon="4.32103">
        <ele>223.2</ele>
        <time>2024-04-28T09:54:09Z</time>
      </trkpt>
      <trkpt lat="50.04696" lon="4.32111">
        <ele>223.4</ele>
        <time>2024-04-28T09:54:10Z</time>
      </trkpt>
      <trkpt lat="50.04695" lon="4.3212">
        <ele>223.4</ele>
        <time>2024-04-28T09:54:11Z</time>
      </trkpt>
      <trkpt lat="50.04694" lon="4.32129">
        <ele>223.4</ele>
        <time>2024-04-28T09:54:12Z</time>
      </trkpt>
      <trkpt lat="50.04693" lon="4.32138">
        <ele>223.4</ele>
        <time>2024-04-28T09:54:13Z</time>
      </trkpt>
      <trkpt lat="50.04691" lon="4.32146">
        <ele>223.4</ele>
        <time>2024-04-28T09:54:14Z</time>
      </trkpt>
      <trkpt lat="50.0469" lon="4.32155">
        <ele>223.4</ele>
        <time>2024-04-28T09:54:15Z</time>
      </trkpt>
      <trkpt lat="50.04689" lon="4.32163">
        <ele>223.6</ele>
        <time>2024-04-28T09:54:16Z</time>
      </trkpt>
      <trkpt lat="50.04688" lon="4.32172">
        <ele>223.6</ele>
        <time>2024-04-28T09:54:17Z</time>
      </trkpt>
      <trkpt lat="50.04686" lon="4.3218">
        <ele>223.8</ele>
        <time>2024-04-28T09:54:18Z</time>
      </trkpt>
      <trkpt lat="50.04684" lon="4.32188">
        <ele>223.8</ele>
        <time>2024-04-28T09:54:19Z</time>
      </trkpt>
      <trkpt lat="50.04681" lon="4.32195">
        <ele>224</ele>
        <time>2024-04-28T09:54:20Z</time>
      </trkpt>
      <trkpt lat="50.0468" lon="4.32203">
        <ele>224</ele>
        <time>2024-04-28T09:54:21Z</time>
      </trkpt>
      <trkpt lat="50.0468" lon="4.32211">
        <ele>224</ele>
        <time>2024-04-28T09:54:22Z</time>
      </trkpt>
      <trkpt lat="50.04682" lon="4.32217">
        <ele>224.2</ele>
        <time>2024-04-28T09:54:23Z</time>
      </trkpt>
      <trkpt lat="50.04686" lon="4.32222">
        <ele>224.2</ele>
        <time>2024-04-28T09:54:24Z</time>
      </trkpt>
      <trkpt lat="50.04691" lon="4.32224">
        <ele>224.8</ele>
        <time>2024-04-28T09:54:25Z</time>
      </trkpt>
      <trkpt lat="50.04697" lon="4.32224">
        <ele>225.2</ele>
        <time>2024-04-28T09:54:26Z</time>
      </trkpt>
      <trkpt lat="50.04704" lon="4.32224">
        <ele>225.4</ele>
        <time>2024-04-28T09:54:27Z</time>
      </trkpt>
      <trkpt lat="50.0471" lon="4.32227">
        <ele>225.8</ele>
        <time>2024-04-28T09:54:28Z</time>
      </trkpt>
      <trkpt lat="50.04715" lon="4.32234">
        <ele>225.8</ele>
        <time>2024-04-28T09:54:29Z</time>
      </trkpt>
      <trkpt lat="50.04719" lon="4.32242">
        <ele>225.8</ele>
        <time>2024-04-28T09:54:30Z</time>
      </trkpt>
      <trkpt lat="50.04723" lon="4.32252">
        <ele>225.8</ele>
        <time>2024-04-28T09:54:31Z</time>
      </trkpt>
      <trkpt lat="50.04727" lon="4.32261">
        <ele>225.8</ele>
        <time>2024-04-28T09:54:32Z</time>
      </trkpt>
      <trkpt lat="50.04732" lon="4.32271">
        <ele>225.8</ele>
        <time>2024-04-28T09:54:33Z</time>
      </trkpt>
      <trkpt lat="50.04736" lon="4.3228">
        <ele>225.8</ele>
        <time>2024-04-28T09:54:34Z</time>
      </trkpt>
      <trkpt lat="50.04741" lon="4.3229">
        <ele>225.6</ele>
        <time>2024-04-28T09:54:35Z</time>
      </trkpt>
      <trkpt lat="50.04746" lon="4.32299">
        <ele>225.4</ele>
        <time>2024-04-28T09:54:36Z</time>
      </trkpt>
      <trkpt lat="50.04752" lon="4.32308">
        <ele>225</ele>
        <time>2024-04-28T09:54:37Z</time>
      </trkpt>
      <trkpt lat="50.04757" lon="4.32318">
        <ele>224.8</ele>
        <time>2024-04-28T09:54:38Z</time>
      </trkpt>
      <trkpt lat="50.04762" lon="4.32327">
        <ele>224.4</ele>
        <time>2024-04-28T09:54:39Z</time>
      </trkpt>
      <trkpt lat="50.04768" lon="4.32337">
        <ele>224</ele>
        <time>2024-04-28T09:54:40Z</time>
      </trkpt>
      <trkpt lat="50.04773" lon="4.32348">
        <ele>223.4</ele>
        <time>2024-04-28T09:54:41Z</time>
      </trkpt>
      <trkpt lat="50.04778" lon="4.32359">
        <ele>223.4</ele>
        <time>2024-04-28T09:54:42Z</time>
      </trkpt>
      <trkpt lat="50.04784" lon="4.32369">
        <ele>223</ele>
        <time>2024-04-28T09:54:43Z</time>
      </trkpt>
      <trkpt lat="50.04789" lon="4.3238">
        <ele>222.8</ele>
        <time>2024-04-28T09:54:44Z</time>
      </trkpt>
      <trkpt lat="50.04794" lon="4.32391">
        <ele>222.8</ele>
        <time>2024-04-28T09:54:45Z</time>
      </trkpt>
      <trkpt lat="50.048" lon="4.32401">
        <ele>222.6</ele>
        <time>2024-04-28T09:54:46Z</time>
      </trkpt>
      <trkpt lat="50.04805" lon="4.32412">
        <ele>222.4</ele>
        <time>2024-04-28T09:54:47Z</time>
      </trkpt>
      <trkpt lat="50.04812" lon="4.32423">
        <ele>222.2</ele>
        <time>2024-04-28T09:54:48Z</time>
      </trkpt>
      <trkpt lat="50.04818" lon="4.32434">
        <ele>221.8</ele>
        <time>2024-04-28T09:54:49Z</time>
      </trkpt>
      <trkpt lat="50.04825" lon="4.32443">
        <ele>221.2</ele>
        <time>2024-04-28T09:54:50Z</time>
      </trkpt>
      <trkpt lat="50.04833" lon="4.32453">
        <ele>220.2</ele>
        <time>2024-04-28T09:54:51Z</time>
      </trkpt>
      <trkpt lat="50.0484" lon="4.32464">
        <ele>219.6</ele>
        <time>2024-04-28T09:54:52Z</time>
      </trkpt>
      <trkpt lat="50.04848" lon="4.32474">
        <ele>219.2</ele>
        <time>2024-04-28T09:54:53Z</time>
      </trkpt>
      <trkpt lat="50.04855" lon="4.32484">
        <ele>219</ele>
        <time>2024-04-28T09:54:54Z</time>
      </trkpt>
      <trkpt lat="50.04863" lon="4.32493">
        <ele>218.6</ele>
        <time>2024-04-28T09:54:55Z</time>
      </trkpt>
      <trkpt lat="50.0487" lon="4.32503">
        <ele>217.8</ele>
        <time>2024-04-28T09:54:56Z</time>
      </trkpt>
      <trkpt lat="50.04879" lon="4.32512">
        <ele>217.6</ele>
        <time>2024-04-28T09:54:57Z</time>
      </trkpt>
      <trkpt lat="50.04887" lon="4.3252">
        <ele>217</ele>
        <time>2024-04-28T09:54:58Z</time>
      </trkpt>
      <trkpt lat="50.04895" lon="4.32529">
        <ele>216.6</ele>
        <time>2024-04-28T09:54:59Z</time>
      </trkpt>
      <trkpt lat="50.04903" lon="4.32537">
        <ele>216.6</ele>
        <time>2024-04-28T09:55:00Z</time>
      </trkpt>
      <trkpt lat="50.04912" lon="4.32544">
        <ele>216.2</ele>
        <time>2024-04-28T09:55:01Z</time>
      </trkpt>
      <trkpt lat="50.0492" lon="4.3255">
        <ele>216</ele>
        <time>2024-04-28T09:55:02Z</time>
      </trkpt>
      <trkpt lat="50.04927" lon="4.32556">
        <ele>215.2</ele>
        <time>2024-04-28T09:55:03Z</time>
      </trkpt>
      <trkpt lat="50.04934" lon="4.32562">
        <ele>214.8</ele>
        <time>2024-04-28T09:55:04Z</time>
      </trkpt>
      <trkpt lat="50.04939" lon="4.32569">
        <ele>214.4</ele>
        <time>2024-04-28T09:55:05Z</time>
      </trkpt>
      <trkpt lat="50.04943" lon="4.32577">
        <ele>214.2</ele>
        <time>2024-04-28T09:55:06Z</time>
      </trkpt>
      <trkpt lat="50.04944" lon="4.32587">
        <ele>214</ele>
        <time>2024-04-28T09:55:07Z</time>
      </trkpt>
      <trkpt lat="50.04943" lon="4.32597">
        <ele>214</ele>
        <time>2024-04-28T09:55:08Z</time>
      </trkpt>
      <trkpt lat="50.04941" lon="4.32607">
        <ele>213.6</ele>
        <time>2024-04-28T09:55:09Z</time>
      </trkpt>
      <trkpt lat="50.04938" lon="4.32615">
        <ele>213.4</ele>
        <time>2024-04-28T09:55:10Z</time>
      </trkpt>
      <trkpt lat="50.04934" lon="4.32623">
        <ele>213.2</ele>
        <time>2024-04-28T09:55:11Z</time>
      </trkpt>
      <trkpt lat="50.04929" lon="4.32628">
        <ele>213.2</ele>
        <time>2024-04-28T09:55:12Z</time>
      </trkpt>
      <trkpt lat="50.04924" lon="4.32632">
        <ele>213</ele>
        <time>2024-04-28T09:55:13Z</time>
      </trkpt>
      <trkpt lat="50.04919" lon="4.32635">
        <ele>213.2</ele>
        <time>2024-04-28T09:55:14Z</time>
      </trkpt>
      <trkpt lat="50.04914" lon="4.32637">
        <ele>213.2</ele>
        <time>2024-04-28T09:55:15Z</time>
      </trkpt>
      <trkpt lat="50.04909" lon="4.32638">
        <ele>213</ele>
        <time>2024-04-28T09:55:16Z</time>
      </trkpt>
      <trkpt lat="50.04905" lon="4.3264">
        <ele>213</ele>
        <time>2024-04-28T09:55:17Z</time>
      </trkpt>
      <trkpt lat="50.04901" lon="4.32644">
        <ele>213</ele>
        <time>2024-04-28T09:55:18Z</time>
      </trkpt>
      <trkpt lat="50.04898" lon="4.32648">
        <ele>213</ele>
        <time>2024-04-28T09:55:19Z</time>
      </trkpt>
      <trkpt lat="50.04897" lon="4.32654">
        <ele>213</ele>
        <time>2024-04-28T09:55:20Z</time>
      </trkpt>
      <trkpt lat="50.04897" lon="4.32659">
        <ele>213</ele>
        <time>2024-04-28T09:55:21Z</time>
      </trkpt>
      <trkpt lat="50.04898" lon="4.32664">
        <ele>213</ele>
        <time>2024-04-28T09:55:22Z</time>
      </trkpt>
      <trkpt lat="50.04899" lon="4.32669">
        <ele>213</ele>
        <time>2024-04-28T09:55:23Z</time>
      </trkpt>
      <trkpt lat="50.049" lon="4.32674">
        <ele>213</ele>
        <time>2024-04-28T09:55:24Z</time>
      </trkpt>
      <trkpt lat="50.049" lon="4.32679">
        <ele>213</ele>
        <time>2024-04-28T09:55:25Z</time>
      </trkpt>
      <trkpt lat="50.04901" lon="4.32684">
        <ele>213.2</ele>
        <time>2024-04-28T09:55:26Z</time>
      </trkpt>
      <trkpt lat="50.04901" lon="4.32688">
        <ele>213.4</ele>
        <time>2024-04-28T09:55:27Z</time>
      </trkpt>
      <trkpt lat="50.04902" lon="4.32693">
        <ele>213.6</ele>
        <time>2024-04-28T09:55:28Z</time>
      </trkpt>
      <trkpt lat="50.04902" lon="4.32697">
        <ele>213.6</ele>
        <time>2024-04-28T09:55:29Z</time>
      </trkpt>
      <trkpt lat="50.04903" lon="4.32702">
        <ele>213.6</ele>
        <time>2024-04-28T09:55:30Z</time>
      </trkpt>
      <trkpt lat="50.04903" lon="4.32706">
        <ele>213.4</ele>
        <time>2024-04-28T09:55:31Z</time>
      </trkpt>
      <trkpt lat="50.04904" lon="4.32709">
        <ele>213.6</ele>
        <time>2024-04-28T09:55:32Z</time>
      </trkpt>
      <trkpt lat="50.04904" lon="4.32713">
        <ele>213.4</ele>
        <time>2024-04-28T09:55:33Z</time>
      </trkpt>
      <trkpt lat="50.04905" lon="4.32716">
        <ele>213.4</ele>
        <time>2024-04-28T09:55:34Z</time>
      </trkpt>
      <trkpt lat="50.04905" lon="4.32719">
        <ele>213.4</ele>
        <time>2024-04-28T09:55:35Z</time>
      </trkpt>
      <trkpt lat="50.04905" lon="4.32722">
        <ele>213.4</ele>
        <time>2024-04-28T09:55:36Z</time>
      </trkpt>
      <trkpt lat="50.04906" lon="4.32725">
        <ele>213.4</ele>
        <time>2024-04-28T09:55:37Z</time>
      </trkpt>
      <trkpt lat="50.04906" lon="4.32728">
        <ele>213.2</ele>
        <time>2024-04-28T09:55:38Z</time>
      </trkpt>
      <trkpt lat="50.04906" lon="4.32729">
        <ele>213.2</ele>
        <time>2024-04-28T09:55:39Z</time>
      </trkpt>
      <trkpt lat="50.04906" lon="4.32733">
        <ele>213.2</ele>
        <time>2024-04-28T09:55:40Z</time>
      </trkpt>
      <trkpt lat="50.04906" lon="4.32735">
        <ele>213.2</ele>
        <time>2024-04-28T09:55:41Z</time>
      </trkpt>
      <trkpt lat="50.04907" lon="4.32737">
        <ele>213.2</ele>
        <time>2024-04-28T09:55:42Z</time>
      </trkpt>
      <trkpt lat="50.04907" lon="4.32739">
        <ele>213.2</ele>
        <time>2024-04-28T09:55:43Z</time>
      </trkpt>
      <trkpt lat="50.04908" lon="4.3274">
        <ele>213.4</ele>
        <time>2024-04-28T09:55:44Z</time>
      </trkpt>
      <trkpt lat="50.04908" lon="4.32741">
        <ele>213.2</ele>
        <time>2024-04-28T09:55:45Z</time>
      </trkpt>
      <trkpt lat="50.04908" lon="4.32741">
        <ele>213.2</ele>
        <time>2024-04-28T09:55:46Z</time>
      </trkpt>
      <trkpt lat="50.04909" lon="4.32733">
        <ele>214</ele>
        <time>2024-04-28T09:58:16Z</time>
      </trkpt>
      <trkpt lat="50.04909" lon="4.32731">
        <ele>214</ele>
        <time>2024-04-28T09:58:17Z</time>
      </trkpt>
      <trkpt lat="50.04908" lon="4.32729">
        <ele>214</ele>
        <time>2024-04-28T09:58:18Z</time>
      </trkpt>
      <trkpt lat="50.04908" lon="4.32727">
        <ele>214</ele>
        <time>2024-04-28T09:58:19Z</time>
      </trkpt>
      <trkpt lat="50.04909" lon="4.32725">
        <ele>214</ele>
        <time>2024-04-28T09:58:20Z</time>
      </trkpt>
      <trkpt lat="50.0491" lon="4.32724">
        <ele>214.2</ele>
        <time>2024-04-28T09:58:21Z</time>
      </trkpt>
      <trkpt lat="50.04912" lon="4.32723">
        <ele>214</ele>
        <time>2024-04-28T09:58:22Z</time>
      </trkpt>
      <trkpt lat="50.04914" lon="4.32722">
        <ele>214</ele>
        <time>2024-04-28T09:58:23Z</time>
      </trkpt>
      <trkpt lat="50.04915" lon="4.32722">
        <ele>214</ele>
        <time>2024-04-28T09:58:24Z</time>
      </trkpt>
      <trkpt lat="50.04917" lon="4.32721">
        <ele>214</ele>
        <time>2024-04-28T09:58:25Z</time>
      </trkpt>
      <trkpt lat="50.04918" lon="4.3272">
        <ele>214</ele>
        <time>2024-04-28T09:58:26Z</time>
      </trkpt>
      <trkpt lat="50.04919" lon="4.3272">
        <ele>214</ele>
        <time>2024-04-28T09:58:27Z</time>
      </trkpt>
      <trkpt lat="50.0492" lon="4.3272">
        <ele>214</ele>
        <time>2024-04-28T09:58:28Z</time>
      </trkpt>
      <trkpt lat="50.04921" lon="4.3272">
        <ele>213.8</ele>
        <time>2024-04-28T09:58:29Z</time>
      </trkpt>
      <trkpt lat="50.04921" lon="4.3272">
        <ele>214</ele>
        <time>2024-04-28T09:58:30Z</time>
      </trkpt>
      <trkpt lat="50.04908" lon="4.32702">
        <ele>202</ele>
        <time>2024-04-28T11:24:54Z</time>
      </trkpt>
      <trkpt lat="50.04907" lon="4.32697">
        <ele>202</ele>
        <time>2024-04-28T11:24:55Z</time>
      </trkpt>
      <trkpt lat="50.04906" lon="4.32691">
        <ele>202</ele>
        <time>2024-04-28T11:24:56Z</time>
      </trkpt>
      <trkpt lat="50.04905" lon="4.32685">
        <ele>202</ele>
        <time>2024-04-28T11:24:57Z</time>
      </trkpt>
      <trkpt lat="50.04904" lon="4.32679">
        <ele>202.2</ele>
        <time>2024-04-28T11:24:58Z</time>
      </trkpt>
      <trkpt lat="50.04903" lon="4.32671">
        <ele>202.4</ele>
        <time>2024-04-28T11:24:59Z</time>
      </trkpt>
      <trkpt lat="50.04902" lon="4.32663">
        <ele>202.2</ele>
        <time>2024-04-28T11:25:00Z</time>
      </trkpt>
      <trkpt lat="50.04901" lon="4.32654">
        <ele>202.4</ele>
        <time>2024-04-28T11:25:01Z</time>
      </trkpt>
      <trkpt lat="50.049" lon="4.32645">
        <ele>202.4</ele>
        <time>2024-04-28T11:25:02Z</time>
      </trkpt>
      <trkpt lat="50.04899" lon="4.32635">
        <ele>202.4</ele>
        <time>2024-04-28T11:25:03Z</time>
      </trkpt>
      <trkpt lat="50.04898" lon="4.32624">
        <ele>202.4</ele>
        <time>2024-04-28T11:25:04Z</time>
      </trkpt>
      <trkpt lat="50.04897" lon="4.32614">
        <ele>202.4</ele>
        <time>2024-04-28T11:25:05Z</time>
      </trkpt>
      <trkpt lat="50.04896" lon="4.32603">
        <ele>202.4</ele>
        <time>2024-04-28T11:25:06Z</time>
      </trkpt>
      <trkpt lat="50.04896" lon="4.32594">
        <ele>202.4</ele>
        <time>2024-04-28T11:25:07Z</time>
      </trkpt>
      <trkpt lat="50.04896" lon="4.32587">
        <ele>202.2</ele>
        <time>2024-04-28T11:25:08Z</time>
      </trkpt>
      <trkpt lat="50.04894" lon="4.32581">
        <ele>202.2</ele>
        <time>2024-04-28T11:25:09Z</time>
      </trkpt>
      <trkpt lat="50.04892" lon="4.32578">
        <ele>202.2</ele>
        <time>2024-04-28T11:25:10Z</time>
      </trkpt>
      <trkpt lat="50.04888" lon="4.32575">
        <ele>202.2</ele>
        <time>2024-04-28T11:25:11Z</time>
      </trkpt>
      <trkpt lat="50.04886" lon="4.32572">
        <ele>202</ele>
        <time>2024-04-28T11:25:12Z</time>
      </trkpt>
      <trkpt lat="50.04884" lon="4.3257">
        <ele>202.2</ele>
        <time>2024-04-28T11:25:13Z</time>
      </trkpt>
      <trkpt lat="50.04881" lon="4.32568">
        <ele>202</ele>
        <time>2024-04-28T11:25:14Z</time>
      </trkpt>
      <trkpt lat="50.0488" lon="4.32565">
        <ele>202.2</ele>
        <time>2024-04-28T11:25:15Z</time>
      </trkpt>
      <trkpt lat="50.04878" lon="4.32561">
        <ele>202.2</ele>
        <time>2024-04-28T11:25:16Z</time>
      </trkpt>
      <trkpt lat="50.04879" lon="4.32554">
        <ele>202.2</ele>
        <time>2024-04-28T11:25:17Z</time>
      </trkpt>
      <trkpt lat="50.0488" lon="4.32548">
        <ele>202.2</ele>
        <time>2024-04-28T11:25:18Z</time>
      </trkpt>
      <trkpt lat="50.04882" lon="4.32542">
        <ele>202.2</ele>
        <time>2024-04-28T11:25:19Z</time>
      </trkpt>
      <trkpt lat="50.04885" lon="4.32537">
        <ele>202.2</ele>
        <time>2024-04-28T11:25:20Z</time>
      </trkpt>
      <trkpt lat="50.04887" lon="4.32531">
        <ele>202.4</ele>
        <time>2024-04-28T11:25:21Z</time>
      </trkpt>
      <trkpt lat="50.04887" lon="4.32525">
        <ele>202.6</ele>
        <time>2024-04-28T11:25:22Z</time>
      </trkpt>
      <trkpt lat="50.04885" lon="4.32521">
        <ele>202.8</ele>
        <time>2024-04-28T11:25:23Z</time>
      </trkpt>
      <trkpt lat="50.04882" lon="4.32516">
        <ele>202.8</ele>
        <time>2024-04-28T11:25:24Z</time>
      </trkpt>
      <trkpt lat="50.04878" lon="4.3251">
        <ele>203.2</ele>
        <time>2024-04-28T11:25:25Z</time>
      </trkpt>
      <trkpt lat="50.04874" lon="4.32505">
        <ele>203.2</ele>
        <time>2024-04-28T11:25:26Z</time>
      </trkpt>
      <trkpt lat="50.0487" lon="4.325">
        <ele>203.4</ele>
        <time>2024-04-28T11:25:27Z</time>
      </trkpt>
      <trkpt lat="50.04867" lon="4.32495">
        <ele>203.4</ele>
        <time>2024-04-28T11:25:28Z</time>
      </trkpt>
      <trkpt lat="50.04863" lon="4.32489">
        <ele>203.4</ele>
        <time>2024-04-28T11:25:29Z</time>
      </trkpt>
      <trkpt lat="50.0486" lon="4.32483">
        <ele>203.6</ele>
        <time>2024-04-28T11:25:30Z</time>
      </trkpt>
      <trkpt lat="50.04856" lon="4.32476">
        <ele>203.8</ele>
        <time>2024-04-28T11:25:31Z</time>
      </trkpt>
      <trkpt lat="50.04853" lon="4.32469">
        <ele>204</ele>
        <time>2024-04-28T11:25:32Z</time>
      </trkpt>
      <trkpt lat="50.0485" lon="4.32462">
        <ele>204</ele>
        <time>2024-04-28T11:25:33Z</time>
      </trkpt>
      <trkpt lat="50.04846" lon="4.32454">
        <ele>204</ele>
        <time>2024-04-28T11:25:34Z</time>
      </trkpt>
      <trkpt lat="50.04843" lon="4.32446">
        <ele>204</ele>
        <time>2024-04-28T11:25:35Z</time>
      </trkpt>
      <trkpt lat="50.04839" lon="4.32438">
        <ele>204</ele>
        <time>2024-04-28T11:25:36Z</time>
      </trkpt>
      <trkpt lat="50.04835" lon="4.32431">
        <ele>204</ele>
        <time>2024-04-28T11:25:37Z</time>
      </trkpt>
      <trkpt lat="50.04831" lon="4.32425">
        <ele>204.2</ele>
        <time>2024-04-28T11:25:38Z</time>
      </trkpt>
      <trkpt lat="50.04828" lon="4.32418">
        <ele>204</ele>
        <time>2024-04-28T11:25:39Z</time>
      </trkpt>
      <trkpt lat="50.04824" lon="4.32411">
        <ele>204.2</ele>
        <time>2024-04-28T11:25:40Z</time>
      </trkpt>
      <trkpt lat="50.0482" lon="4.32404">
        <ele>204.2</ele>
        <time>2024-04-28T11:25:41Z</time>
      </trkpt>
      <trkpt lat="50.04815" lon="4.32397">
        <ele>204.6</ele>
        <time>2024-04-28T11:25:42Z</time>
      </trkpt>
      <trkpt lat="50.04811" lon="4.32389">
        <ele>204.8</ele>
        <time>2024-04-28T11:25:43Z</time>
      </trkpt>
      <trkpt lat="50.04807" lon="4.32381">
        <ele>204.8</ele>
        <time>2024-04-28T11:25:44Z</time>
      </trkpt>
      <trkpt lat="50.04803" lon="4.32375">
        <ele>205.2</ele>
        <time>2024-04-28T11:25:45Z</time>
      </trkpt>
      <trkpt lat="50.04799" lon="4.32368">
        <ele>205.2</ele>
        <time>2024-04-28T11:25:46Z</time>
      </trkpt>
      <trkpt lat="50.04794" lon="4.3236">
        <ele>205.8</ele>
        <time>2024-04-28T11:25:47Z</time>
      </trkpt>
      <trkpt lat="50.0479" lon="4.32353">
        <ele>206.2</ele>
        <time>2024-04-28T11:25:48Z</time>
      </trkpt>
      <trkpt lat="50.04786" lon="4.32346">
        <ele>206.8</ele>
        <time>2024-04-28T11:25:49Z</time>
      </trkpt>
      <trkpt lat="50.04782" lon="4.32336">
        <ele>207.2</ele>
        <time>2024-04-28T11:25:50Z</time>
      </trkpt>
      <trkpt lat="50.04778" lon="4.32329">
        <ele>207.2</ele>
        <time>2024-04-28T11:25:51Z</time>
      </trkpt>
      <trkpt lat="50.04774" lon="4.32321">
        <ele>207.6</ele>
        <time>2024-04-28T11:25:52Z</time>
      </trkpt>
      <trkpt lat="50.04771" lon="4.32314">
        <ele>208</ele>
        <time>2024-04-28T11:25:53Z</time>
      </trkpt>
      <trkpt lat="50.04767" lon="4.32308">
        <ele>208.2</ele>
        <time>2024-04-28T11:25:54Z</time>
      </trkpt>
      <trkpt lat="50.04763" lon="4.32301">
        <ele>208.4</ele>
        <time>2024-04-28T11:25:55Z</time>
      </trkpt>
      <trkpt lat="50.0476" lon="4.32295">
        <ele>208.6</ele>
        <time>2024-04-28T11:25:56Z</time>
      </trkpt>
      <trkpt lat="50.04757" lon="4.32288">
        <ele>208.8</ele>
        <time>2024-04-28T11:25:57Z</time>
      </trkpt>
      <trkpt lat="50.04754" lon="4.32282">
        <ele>208.8</ele>
        <time>2024-04-28T11:25:58Z</time>
      </trkpt>
      <trkpt lat="50.0475" lon="4.32276">
        <ele>209</ele>
        <time>2024-04-28T11:25:59Z</time>
      </trkpt>
      <trkpt lat="50.04747" lon="4.32269">
        <ele>209</ele>
        <time>2024-04-28T11:26:00Z</time>
      </trkpt>
      <trkpt lat="50.04743" lon="4.32263">
        <ele>209.2</ele>
        <time>2024-04-28T11:26:01Z</time>
      </trkpt>
      <trkpt lat="50.0474" lon="4.32257">
        <ele>209.4</ele>
        <time>2024-04-28T11:26:02Z</time>
      </trkpt>
      <trkpt lat="50.04736" lon="4.32251">
        <ele>209.6</ele>
        <time>2024-04-28T11:26:03Z</time>
      </trkpt>
      <trkpt lat="50.04733" lon="4.32245">
        <ele>209.8</ele>
        <time>2024-04-28T11:26:04Z</time>
      </trkpt>
      <trkpt lat="50.04729" lon="4.32239">
        <ele>209.8</ele>
        <time>2024-04-28T11:26:05Z</time>
      </trkpt>
      <trkpt lat="50.04725" lon="4.32233">
        <ele>210</ele>
        <time>2024-04-28T11:26:06Z</time>
      </trkpt>
      <trkpt lat="50.04722" lon="4.32227">
        <ele>210.2</ele>
        <time>2024-04-28T11:26:07Z</time>
      </trkpt>
      <trkpt lat="50.04718" lon="4.32221">
        <ele>210.2</ele>
        <time>2024-04-28T11:26:08Z</time>
      </trkpt>
      <trkpt lat="50.04715" lon="4.32214">
        <ele>210.2</ele>
        <time>2024-04-28T11:26:09Z</time>
      </trkpt>
      <trkpt lat="50.04712" lon="4.32208">
        <ele>210.6</ele>
        <time>2024-04-28T11:26:10Z</time>
      </trkpt>
      <trkpt lat="50.04708" lon="4.32202">
        <ele>211</ele>
        <time>2024-04-28T11:26:11Z</time>
      </trkpt>
      <trkpt lat="50.04703" lon="4.32198">
        <ele>211.8</ele>
        <time>2024-04-28T11:26:12Z</time>
      </trkpt>
      <trkpt lat="50.04698" lon="4.32195">
        <ele>212</ele>
        <time>2024-04-28T11:26:13Z</time>
      </trkpt>
      <trkpt lat="50.04694" lon="4.32195">
        <ele>212</ele>
        <time>2024-04-28T11:26:14Z</time>
      </trkpt>
      <trkpt lat="50.04689" lon="4.32198">
        <ele>212.4</ele>
        <time>2024-04-28T11:26:15Z</time>
      </trkpt>
      <trkpt lat="50.04685" lon="4.32203">
        <ele>212.2</ele>
        <time>2024-04-28T11:26:16Z</time>
      </trkpt>
      <trkpt lat="50.04682" lon="4.32209">
        <ele>212.4</ele>
        <time>2024-04-28T11:26:17Z</time>
      </trkpt>
      <trkpt lat="50.04678" lon="4.32214">
        <ele>212.4</ele>
        <time>2024-04-28T11:26:18Z</time>
      </trkpt>
      <trkpt lat="50.04673" lon="4.32219">
        <ele>212.6</ele>
        <time>2024-04-28T11:26:19Z</time>
      </trkpt>
      <trkpt lat="50.04668" lon="4.32224">
        <ele>212.4</ele>
        <time>2024-04-28T11:26:20Z</time>
      </trkpt>
      <trkpt lat="50.04664" lon="4.32229">
        <ele>212.6</ele>
        <time>2024-04-28T11:26:21Z</time>
      </trkpt>
      <trkpt lat="50.04659" lon="4.32234">
        <ele>212.6</ele>
        <time>2024-04-28T11:26:22Z</time>
      </trkpt>
      <trkpt lat="50.04655" lon="4.32239">
        <ele>212.8</ele>
        <time>2024-04-28T11:26:23Z</time>
      </trkpt>
      <trkpt lat="50.04651" lon="4.32244">
        <ele>212.8</ele>
        <time>2024-04-28T11:26:24Z</time>
      </trkpt>
      <trkpt lat="50.04647" lon="4.32249">
        <ele>212.8</ele>
        <time>2024-04-28T11:26:25Z</time>
      </trkpt>
      <trkpt lat="50.04642" lon="4.32254">
        <ele>213</ele>
        <time>2024-04-28T11:26:26Z</time>
      </trkpt>
      <trkpt lat="50.04638" lon="4.32259">
        <ele>213.6</ele>
        <time>2024-04-28T11:26:27Z</time>
      </trkpt>
      <trkpt lat="50.04633" lon="4.32264">
        <ele>213.8</ele>
        <time>2024-04-28T11:26:28Z</time>
      </trkpt>
      <trkpt lat="50.04629" lon="4.32269">
        <ele>214</ele>
        <time>2024-04-28T11:26:29Z</time>
      </trkpt>
      <trkpt lat="50.04625" lon="4.32274">
        <ele>214.2</ele>
        <time>2024-04-28T11:26:30Z</time>
      </trkpt>
      <trkpt lat="50.04621" lon="4.32279">
        <ele>214.2</ele>
        <time>2024-04-28T11:26:31Z</time>
      </trkpt>
      <trkpt lat="50.04617" lon="4.32284">
        <ele>214.6</ele>
        <time>2024-04-28T11:26:32Z</time>
      </trkpt>
      <trkpt lat="50.04612" lon="4.32289">
        <ele>214.8</ele>
        <time>2024-04-28T11:26:33Z</time>
      </trkpt>
      <trkpt lat="50.04608" lon="4.32293">
        <ele>215</ele>
        <time>2024-04-28T11:26:34Z</time>
      </trkpt>
      <trkpt lat="50.04604" lon="4.32298">
        <ele>215</ele>
        <time>2024-04-28T11:26:35Z</time>
      </trkpt>
      <trkpt lat="50.046" lon="4.32303">
        <ele>215.4</ele>
        <time>2024-04-28T11:26:36Z</time>
      </trkpt>
      <trkpt lat="50.04595" lon="4.32308">
        <ele>215.4</ele>
        <time>2024-04-28T11:26:37Z</time>
      </trkpt>
      <trkpt lat="50.04591" lon="4.32313">
        <ele>215.6</ele>
        <time>2024-04-28T11:26:38Z</time>
      </trkpt>
      <trkpt lat="50.04587" lon="4.32318">
        <ele>215.6</ele>
        <time>2024-04-28T11:26:39Z</time>
      </trkpt>
      <trkpt lat="50.04582" lon="4.32322">
        <ele>215.8</ele>
        <time>2024-04-28T11:26:40Z</time>
      </trkpt>
      <trkpt lat="50.04578" lon="4.32327">
        <ele>215.8</ele>
        <time>2024-04-28T11:26:41Z</time>
      </trkpt>
      <trkpt lat="50.04574" lon="4.32332">
        <ele>215.8</ele>
        <time>2024-04-28T11:26:42Z</time>
      </trkpt>
      <trkpt lat="50.0457" lon="4.32337">
        <ele>216</ele>
        <time>2024-04-28T11:26:43Z</time>
      </trkpt>
      <trkpt lat="50.04566" lon="4.32341">
        <ele>216</ele>
        <time>2024-04-28T11:26:44Z</time>
      </trkpt>
      <trkpt lat="50.04562" lon="4.32346">
        <ele>216.2</ele>
        <time>2024-04-28T11:26:45Z</time>
      </trkpt>
      <trkpt lat="50.04558" lon="4.3235">
        <ele>216.2</ele>
        <time>2024-04-28T11:26:46Z</time>
      </trkpt>
      <trkpt lat="50.04554" lon="4.32354">
        <ele>216.4</ele>
        <time>2024-04-28T11:26:47Z</time>
      </trkpt>
      <trkpt lat="50.04551" lon="4.32358">
        <ele>216.2</ele>
        <time>2024-04-28T11:26:48Z</time>
      </trkpt>
      <trkpt lat="50.04547" lon="4.32362">
        <ele>216.4</ele>
        <time>2024-04-28T11:26:49Z</time>
      </trkpt>
      <trkpt lat="50.04543" lon="4.32367">
        <ele>216.2</ele>
        <time>2024-04-28T11:26:50Z</time>
      </trkpt>
      <trkpt lat="50.0454" lon="4.32371">
        <ele>216.4</ele>
        <time>2024-04-28T11:26:51Z</time>
      </trkpt>
      <trkpt lat="50.04536" lon="4.32376">
        <ele>216.4</ele>
        <time>2024-04-28T11:26:52Z</time>
      </trkpt>
      <trkpt lat="50.04532" lon="4.3238">
        <ele>216.4</ele>
        <time>2024-04-28T11:26:53Z</time>
      </trkpt>
      <trkpt lat="50.04528" lon="4.32384">
        <ele>216.6</ele>
        <time>2024-04-28T11:26:54Z</time>
      </trkpt>
      <trkpt lat="50.04525" lon="4.32388">
        <ele>216.4</ele>
        <time>2024-04-28T11:26:55Z</time>
      </trkpt>
      <trkpt lat="50.04521" lon="4.32393">
        <ele>216.4</ele>
        <time>2024-04-28T11:26:56Z</time>
      </trkpt>
      <trkpt lat="50.04517" lon="4.32397">
        <ele>216.8</ele>
        <time>2024-04-28T11:26:57Z</time>
      </trkpt>
      <trkpt lat="50.04513" lon="4.32402">
        <ele>216.8</ele>
        <time>2024-04-28T11:26:58Z</time>
      </trkpt>
      <trkpt lat="50.04509" lon="4.32406">
        <ele>217</ele>
        <time>2024-04-28T11:26:59Z</time>
      </trkpt>
      <trkpt lat="50.04505" lon="4.32411">
        <ele>217</ele>
        <time>2024-04-28T11:27:00Z</time>
      </trkpt>
      <trkpt lat="50.04501" lon="4.32415">
        <ele>217.2</ele>
        <time>2024-04-28T11:27:01Z</time>
      </trkpt>
      <trkpt lat="50.04497" lon="4.3242">
        <ele>217.6</ele>
        <time>2024-04-28T11:27:02Z</time>
      </trkpt>
      <trkpt lat="50.04493" lon="4.32424">
        <ele>218.4</ele>
        <time>2024-04-28T11:27:03Z</time>
      </trkpt>
      <trkpt lat="50.04489" lon="4.32429">
        <ele>219</ele>
        <time>2024-04-28T11:27:04Z</time>
      </trkpt>
      <trkpt lat="50.04485" lon="4.32433">
        <ele>219.6</ele>
        <time>2024-04-28T11:27:05Z</time>
      </trkpt>
      <trkpt lat="50.04482" lon="4.32438">
        <ele>220</ele>
        <time>2024-04-28T11:27:06Z</time>
      </trkpt>
      <trkpt lat="50.04477" lon="4.32443">
        <ele>220</ele>
        <time>2024-04-28T11:27:07Z</time>
      </trkpt>
      <trkpt lat="50.04473" lon="4.32447">
        <ele>220.2</ele>
        <time>2024-04-28T11:27:08Z</time>
      </trkpt>
      <trkpt lat="50.04469" lon="4.32452">
        <ele>220.4</ele>
        <time>2024-04-28T11:27:09Z</time>
      </trkpt>
      <trkpt lat="50.04466" lon="4.32457">
        <ele>220.6</ele>
        <time>2024-04-28T11:27:10Z</time>
      </trkpt>
      <trkpt lat="50.04461" lon="4.32461">
        <ele>220.8</ele>
        <time>2024-04-28T11:27:11Z</time>
      </trkpt>
      <trkpt lat="50.04457" lon="4.32466">
        <ele>221.2</ele>
        <time>2024-04-28T11:27:12Z</time>
      </trkpt>
      <trkpt lat="50.04454" lon="4.3247">
        <ele>221.6</ele>
        <time>2024-04-28T11:27:13Z</time>
      </trkpt>
      <trkpt lat="50.0445" lon="4.32475">
        <ele>221.6</ele>
        <time>2024-04-28T11:27:14Z</time>
      </trkpt>
      <trkpt lat="50.04446" lon="4.32479">
        <ele>222</ele>
        <time>2024-04-28T11:27:15Z</time>
      </trkpt>
      <trkpt lat="50.04442" lon="4.32484">
        <ele>222.2</ele>
        <time>2024-04-28T11:27:16Z</time>
      </trkpt>
      <trkpt lat="50.04438" lon="4.32488">
        <ele>222.2</ele>
        <time>2024-04-28T11:27:17Z</time>
      </trkpt>
      <trkpt lat="50.04434" lon="4.32493">
        <ele>222.4</ele>
        <time>2024-04-28T11:27:18Z</time>
      </trkpt>
      <trkpt lat="50.0443" lon="4.32497">
        <ele>222.6</ele>
        <time>2024-04-28T11:27:19Z</time>
      </trkpt>
      <trkpt lat="50.04427" lon="4.32501">
        <ele>222.6</ele>
        <time>2024-04-28T11:27:20Z</time>
      </trkpt>
      <trkpt lat="50.04423" lon="4.32506">
        <ele>222.6</ele>
        <time>2024-04-28T11:27:21Z</time>
      </trkpt>
      <trkpt lat="50.04419" lon="4.3251">
        <ele>222.8</ele>
        <time>2024-04-28T11:27:22Z</time>
      </trkpt>
      <trkpt lat="50.04416" lon="4.32514">
        <ele>222.8</ele>
        <time>2024-04-28T11:27:23Z</time>
      </trkpt>
      <trkpt lat="50.04412" lon="4.32519">
        <ele>222.8</ele>
        <time>2024-04-28T11:27:24Z</time>
      </trkpt>
      <trkpt lat="50.04408" lon="4.32523">
        <ele>222.8</ele>
        <time>2024-04-28T11:27:25Z</time>
      </trkpt>
      <trkpt lat="50.04405" lon="4.32528">
        <ele>222.8</ele>
        <time>2024-04-28T11:27:26Z</time>
      </trkpt>
      <trkpt lat="50.04401" lon="4.32532">
        <ele>222.8</ele>
        <time>2024-04-28T11:27:27Z</time>
      </trkpt>
      <trkpt lat="50.04397" lon="4.32536">
        <ele>223</ele>
        <time>2024-04-28T11:27:28Z</time>
      </trkpt>
      <trkpt lat="50.04393" lon="4.32541">
        <ele>223.2</ele>
        <time>2024-04-28T11:27:29Z</time>
      </trkpt>
      <trkpt lat="50.0439" lon="4.32546">
        <ele>223.2</ele>
        <time>2024-04-28T11:27:30Z</time>
      </trkpt>
      <trkpt lat="50.04386" lon="4.3255">
        <ele>223.2</ele>
        <time>2024-04-28T11:27:31Z</time>
      </trkpt>
      <trkpt lat="50.04382" lon="4.32555">
        <ele>223.2</ele>
        <time>2024-04-28T11:27:32Z</time>
      </trkpt>
      <trkpt lat="50.04378" lon="4.32559">
        <ele>223.2</ele>
        <time>2024-04-28T11:27:33Z</time>
      </trkpt>
      <trkpt lat="50.04374" lon="4.32563">
        <ele>223.2</ele>
        <time>2024-04-28T11:27:34Z</time>
      </trkpt>
      <trkpt lat="50.0437" lon="4.32568">
        <ele>223.2</ele>
        <time>2024-04-28T11:27:35Z</time>
      </trkpt>
      <trkpt lat="50.04367" lon="4.32573">
        <ele>223.2</ele>
        <time>2024-04-28T11:27:36Z</time>
      </trkpt>
      <trkpt lat="50.04363" lon="4.32577">
        <ele>223</ele>
        <time>2024-04-28T11:27:37Z</time>
      </trkpt>
      <trkpt lat="50.04359" lon="4.32582">
        <ele>223.2</ele>
        <time>2024-04-28T11:27:38Z</time>
      </trkpt>
      <trkpt lat="50.04355" lon="4.32586">
        <ele>223.2</ele>
        <time>2024-04-28T11:27:39Z</time>
      </trkpt>
      <trkpt lat="50.04351" lon="4.32591">
        <ele>223.6</ele>
        <time>2024-04-28T11:27:40Z</time>
      </trkpt>
      <trkpt lat="50.04347" lon="4.32596">
        <ele>223.6</ele>
        <time>2024-04-28T11:27:41Z</time>
      </trkpt>
      <trkpt lat="50.04343" lon="4.326">
        <ele>223.6</ele>
        <time>2024-04-28T11:27:42Z</time>
      </trkpt>
      <trkpt lat="50.04339" lon="4.32605">
        <ele>223.8</ele>
        <time>2024-04-28T11:27:43Z</time>
      </trkpt>
      <trkpt lat="50.04335" lon="4.3261">
        <ele>224.2</ele>
        <time>2024-04-28T11:27:44Z</time>
      </trkpt>
      <trkpt lat="50.04331" lon="4.32615">
        <ele>224.4</ele>
        <time>2024-04-28T11:27:45Z</time>
      </trkpt>
      <trkpt lat="50.04327" lon="4.3262">
        <ele>224.8</ele>
        <time>2024-04-28T11:27:46Z</time>
      </trkpt>
      <trkpt lat="50.04323" lon="4.32625">
        <ele>224.8</ele>
        <time>2024-04-28T11:27:47Z</time>
      </trkpt>
      <trkpt lat="50.04319" lon="4.3263">
        <ele>225.2</ele>
        <time>2024-04-28T11:27:48Z</time>
      </trkpt>
      <trkpt lat="50.04315" lon="4.32636">
        <ele>225.2</ele>
        <time>2024-04-28T11:27:49Z</time>
      </trkpt>
      <trkpt lat="50.04311" lon="4.32642">
        <ele>225.2</ele>
        <time>2024-04-28T11:27:50Z</time>
      </trkpt>
      <trkpt lat="50.04307" lon="4.32648">
        <ele>225.6</ele>
        <time>2024-04-28T11:27:51Z</time>
      </trkpt>
      <trkpt lat="50.04302" lon="4.32654">
        <ele>225.8</ele>
        <time>2024-04-28T11:27:52Z</time>
      </trkpt>
      <trkpt lat="50.04298" lon="4.3266">
        <ele>226</ele>
        <time>2024-04-28T11:27:53Z</time>
      </trkpt>
      <trkpt lat="50.04294" lon="4.32667">
        <ele>226.2</ele>
        <time>2024-04-28T11:27:54Z</time>
      </trkpt>
      <trkpt lat="50.0429" lon="4.32673">
        <ele>226.4</ele>
        <time>2024-04-28T11:27:55Z</time>
      </trkpt>
      <trkpt lat="50.04286" lon="4.32679">
        <ele>226.4</ele>
        <time>2024-04-28T11:27:56Z</time>
      </trkpt>
      <trkpt lat="50.04282" lon="4.32686">
        <ele>226.4</ele>
        <time>2024-04-28T11:27:57Z</time>
      </trkpt>
      <trkpt lat="50.04278" lon="4.32693">
        <ele>226.6</ele>
        <time>2024-04-28T11:27:58Z</time>
      </trkpt>
      <trkpt lat="50.04274" lon="4.327">
        <ele>226.8</ele>
        <time>2024-04-28T11:27:59Z</time>
      </trkpt>
      <trkpt lat="50.0427" lon="4.32707">
        <ele>226.8</ele>
        <time>2024-04-28T11:28:00Z</time>
      </trkpt>
      <trkpt lat="50.04266" lon="4.32715">
        <ele>226.8</ele>
        <time>2024-04-28T11:28:01Z</time>
      </trkpt>
      <trkpt lat="50.04262" lon="4.32722">
        <ele>226.8</ele>
        <time>2024-04-28T11:28:02Z</time>
      </trkpt>
      <trkpt lat="50.04258" lon="4.32729">
        <ele>227</ele>
        <time>2024-04-28T11:28:03Z</time>
      </trkpt>
      <trkpt lat="50.04253" lon="4.32736">
        <ele>227</ele>
        <time>2024-04-28T11:28:04Z</time>
      </trkpt>
      <trkpt lat="50.04249" lon="4.32744">
        <ele>227</ele>
        <time>2024-04-28T11:28:05Z</time>
      </trkpt>
      <trkpt lat="50.04245" lon="4.32752">
        <ele>227</ele>
        <time>2024-04-28T11:28:06Z</time>
      </trkpt>
      <trkpt lat="50.04241" lon="4.32759">
        <ele>227</ele>
        <time>2024-04-28T11:28:07Z</time>
      </trkpt>
      <trkpt lat="50.04236" lon="4.32767">
        <ele>227</ele>
        <time>2024-04-28T11:28:08Z</time>
      </trkpt>
      <trkpt lat="50.04232" lon="4.32775">
        <ele>226.8</ele>
        <time>2024-04-28T11:28:09Z</time>
      </trkpt>
      <trkpt lat="50.04228" lon="4.32782">
        <ele>226.8</ele>
        <time>2024-04-28T11:28:10Z</time>
      </trkpt>
      <trkpt lat="50.04223" lon="4.3279">
        <ele>226.4</ele>
        <time>2024-04-28T11:28:11Z</time>
      </trkpt>
      <trkpt lat="50.04219" lon="4.32798">
        <ele>226.2</ele>
        <time>2024-04-28T11:28:12Z</time>
      </trkpt>
      <trkpt lat="50.04214" lon="4.32806">
        <ele>226</ele>
        <time>2024-04-28T11:28:13Z</time>
      </trkpt>
      <trkpt lat="50.0421" lon="4.32814">
        <ele>225.4</ele>
        <time>2024-04-28T11:28:14Z</time>
      </trkpt>
      <trkpt lat="50.04206" lon="4.32822">
        <ele>225</ele>
        <time>2024-04-28T11:28:15Z</time>
      </trkpt>
      <trkpt lat="50.04201" lon="4.3283">
        <ele>224.6</ele>
        <time>2024-04-28T11:28:16Z</time>
      </trkpt>
      <trkpt lat="50.04197" lon="4.32838">
        <ele>224.8</ele>
        <time>2024-04-28T11:28:17Z</time>
      </trkpt>
      <trkpt lat="50.04192" lon="4.32845">
        <ele>224.6</ele>
        <time>2024-04-28T11:28:18Z</time>
      </trkpt>
      <trkpt lat="50.04188" lon="4.32853">
        <ele>224.4</ele>
        <time>2024-04-28T11:28:19Z</time>
      </trkpt>
      <trkpt lat="50.04184" lon="4.32861">
        <ele>224.4</ele>
        <time>2024-04-28T11:28:20Z</time>
      </trkpt>
      <trkpt lat="50.04179" lon="4.32869">
        <ele>224.4</ele>
        <time>2024-04-28T11:28:21Z</time>
      </trkpt>
      <trkpt lat="50.04175" lon="4.32877">
        <ele>224.2</ele>
        <time>2024-04-28T11:28:22Z</time>
      </trkpt>
      <trkpt lat="50.0417" lon="4.32885">
        <ele>224.2</ele>
        <time>2024-04-28T11:28:23Z</time>
      </trkpt>
      <trkpt lat="50.04166" lon="4.32893">
        <ele>224.2</ele>
        <time>2024-04-28T11:28:24Z</time>
      </trkpt>
      <trkpt lat="50.04161" lon="4.32901">
        <ele>224</ele>
        <time>2024-04-28T11:28:25Z</time>
      </trkpt>
      <trkpt lat="50.04157" lon="4.32909">
        <ele>223.8</ele>
        <time>2024-04-28T11:28:26Z</time>
      </trkpt>
      <trkpt lat="50.04153" lon="4.32918">
        <ele>223.8</ele>
        <time>2024-04-28T11:28:27Z</time>
      </trkpt>
      <trkpt lat="50.04148" lon="4.32926">
        <ele>223.4</ele>
        <time>2024-04-28T11:28:28Z</time>
      </trkpt>
      <trkpt lat="50.04144" lon="4.32934">
        <ele>223.4</ele>
        <time>2024-04-28T11:28:29Z</time>
      </trkpt>
      <trkpt lat="50.04139" lon="4.32942">
        <ele>223</ele>
        <time>2024-04-28T11:28:30Z</time>
      </trkpt>
      <trkpt lat="50.04134" lon="4.3295">
        <ele>223</ele>
        <time>2024-04-28T11:28:31Z</time>
      </trkpt>
      <trkpt lat="50.0413" lon="4.32958">
        <ele>222.6</ele>
        <time>2024-04-28T11:28:32Z</time>
      </trkpt>
      <trkpt lat="50.04125" lon="4.32966">
        <ele>222.6</ele>
        <time>2024-04-28T11:28:33Z</time>
      </trkpt>
      <trkpt lat="50.0412" lon="4.32974">
        <ele>222.2</ele>
        <time>2024-04-28T11:28:34Z</time>
      </trkpt>
      <trkpt lat="50.04116" lon="4.32982">
        <ele>222</ele>
        <time>2024-04-28T11:28:35Z</time>
      </trkpt>
      <trkpt lat="50.04111" lon="4.3299">
        <ele>221.8</ele>
        <time>2024-04-28T11:28:36Z</time>
      </trkpt>
      <trkpt lat="50.04107" lon="4.32998">
        <ele>221.6</ele>
        <time>2024-04-28T11:28:37Z</time>
      </trkpt>
      <trkpt lat="50.04102" lon="4.33006">
        <ele>221.6</ele>
        <time>2024-04-28T11:28:38Z</time>
      </trkpt>
      <trkpt lat="50.04098" lon="4.33015">
        <ele>221.6</ele>
        <time>2024-04-28T11:28:39Z</time>
      </trkpt>
      <trkpt lat="50.04093" lon="4.33023">
        <ele>221.2</ele>
        <time>2024-04-28T11:28:40Z</time>
      </trkpt>
      <trkpt lat="50.04088" lon="4.33031">
        <ele>221.2</ele>
        <time>2024-04-28T11:28:41Z</time>
      </trkpt>
      <trkpt lat="50.04083" lon="4.33039">
        <ele>221.2</ele>
        <time>2024-04-28T11:28:42Z</time>
      </trkpt>
      <trkpt lat="50.04079" lon="4.33047">
        <ele>221.2</ele>
        <time>2024-04-28T11:28:43Z</time>
      </trkpt>
      <trkpt lat="50.04073" lon="4.33055">
        <ele>221</ele>
        <time>2024-04-28T11:28:44Z</time>
      </trkpt>
      <trkpt lat="50.04068" lon="4.33063">
        <ele>221</ele>
        <time>2024-04-28T11:28:45Z</time>
      </trkpt>
      <trkpt lat="50.04063" lon="4.33071">
        <ele>221.2</ele>
        <time>2024-04-28T11:28:46Z</time>
      </trkpt>
      <trkpt lat="50.04057" lon="4.33079">
        <ele>221</ele>
        <time>2024-04-28T11:28:47Z</time>
      </trkpt>
      <trkpt lat="50.04051" lon="4.33086">
        <ele>221.2</ele>
        <time>2024-04-28T11:28:48Z</time>
      </trkpt>
      <trkpt lat="50.04046" lon="4.33094">
        <ele>221</ele>
        <time>2024-04-28T11:28:49Z</time>
      </trkpt>
      <trkpt lat="50.0404" lon="4.33101">
        <ele>221</ele>
        <time>2024-04-28T11:28:50Z</time>
      </trkpt>
      <trkpt lat="50.04034" lon="4.33108">
        <ele>220.8</ele>
        <time>2024-04-28T11:28:51Z</time>
      </trkpt>
      <trkpt lat="50.04028" lon="4.33115">
        <ele>220.8</ele>
        <time>2024-04-28T11:28:52Z</time>
      </trkpt>
      <trkpt lat="50.04022" lon="4.33121">
        <ele>220.6</ele>
        <time>2024-04-28T11:28:53Z</time>
      </trkpt>
      <trkpt lat="50.04016" lon="4.33128">
        <ele>220.4</ele>
        <time>2024-04-28T11:28:54Z</time>
      </trkpt>
      <trkpt lat="50.0401" lon="4.33134">
        <ele>220.4</ele>
        <time>2024-04-28T11:28:55Z</time>
      </trkpt>
      <trkpt lat="50.04004" lon="4.3314">
        <ele>220.4</ele>
        <time>2024-04-28T11:28:56Z</time>
      </trkpt>
      <trkpt lat="50.03998" lon="4.33146">
        <ele>220.4</ele>
        <time>2024-04-28T11:28:57Z</time>
      </trkpt>
      <trkpt lat="50.03992" lon="4.33151">
        <ele>220</ele>
        <time>2024-04-28T11:28:58Z</time>
      </trkpt>
      <trkpt lat="50.03986" lon="4.33157">
        <ele>220</ele>
        <time>2024-04-28T11:28:59Z</time>
      </trkpt>
      <trkpt lat="50.0398" lon="4.33162">
        <ele>219.8</ele>
        <time>2024-04-28T11:29:00Z</time>
      </trkpt>
      <trkpt lat="50.03975" lon="4.33167">
        <ele>219.6</ele>
        <time>2024-04-28T11:29:01Z</time>
      </trkpt>
      <trkpt lat="50.03969" lon="4.33173">
        <ele>219.8</ele>
        <time>2024-04-28T11:29:02Z</time>
      </trkpt>
      <trkpt lat="50.03964" lon="4.33178">
        <ele>219.6</ele>
        <time>2024-04-28T11:29:03Z</time>
      </trkpt>
      <trkpt lat="50.03958" lon="4.33183">
        <ele>219.8</ele>
        <time>2024-04-28T11:29:04Z</time>
      </trkpt>
      <trkpt lat="50.03953" lon="4.33188">
        <ele>219.6</ele>
        <time>2024-04-28T11:29:05Z</time>
      </trkpt>
      <trkpt lat="50.03947" lon="4.33194">
        <ele>219.6</ele>
        <time>2024-04-28T11:29:06Z</time>
      </trkpt>
      <trkpt lat="50.03942" lon="4.33199">
        <ele>219.8</ele>
        <time>2024-04-28T11:29:07Z</time>
      </trkpt>
      <trkpt lat="50.03936" lon="4.33204">
        <ele>220.2</ele>
        <time>2024-04-28T11:29:08Z</time>
      </trkpt>
      <trkpt lat="50.03931" lon="4.33209">
        <ele>220.4</ele>
        <time>2024-04-28T11:29:09Z</time>
      </trkpt>
      <trkpt lat="50.03926" lon="4.33215">
        <ele>220.8</ele>
        <time>2024-04-28T11:29:10Z</time>
      </trkpt>
      <trkpt lat="50.0392" lon="4.3322">
        <ele>221</ele>
        <time>2024-04-28T11:29:11Z</time>
      </trkpt>
      <trkpt lat="50.03915" lon="4.33225">
        <ele>221</ele>
        <time>2024-04-28T11:29:12Z</time>
      </trkpt>
      <trkpt lat="50.0391" lon="4.3323">
        <ele>221</ele>
        <time>2024-04-28T11:29:13Z</time>
      </trkpt>
      <trkpt lat="50.03904" lon="4.33235">
        <ele>221.2</ele>
        <time>2024-04-28T11:29:14Z</time>
      </trkpt>
      <trkpt lat="50.03899" lon="4.3324">
        <ele>221.2</ele>
        <time>2024-04-28T11:29:15Z</time>
      </trkpt>
      <trkpt lat="50.03894" lon="4.33245">
        <ele>221.4</ele>
        <time>2024-04-28T11:29:16Z</time>
      </trkpt>
      <trkpt lat="50.03888" lon="4.33251">
        <ele>221.2</ele>
        <time>2024-04-28T11:29:17Z</time>
      </trkpt>
      <trkpt lat="50.03883" lon="4.33256">
        <ele>221.6</ele>
        <time>2024-04-28T11:29:18Z</time>
      </trkpt>
      <trkpt lat="50.03878" lon="4.33261">
        <ele>221.4</ele>
        <time>2024-04-28T11:29:19Z</time>
      </trkpt>
      <trkpt lat="50.03873" lon="4.33266">
        <ele>221.6</ele>
        <time>2024-04-28T11:29:20Z</time>
      </trkpt>
      <trkpt lat="50.03868" lon="4.33271">
        <ele>221.6</ele>
        <time>2024-04-28T11:29:21Z</time>
      </trkpt>
      <trkpt lat="50.03862" lon="4.33276">
        <ele>221.8</ele>
        <time>2024-04-28T11:29:22Z</time>
      </trkpt>
      <trkpt lat="50.03857" lon="4.33281">
        <ele>221.6</ele>
        <time>2024-04-28T11:29:23Z</time>
      </trkpt>
      <trkpt lat="50.03852" lon="4.33286">
        <ele>221.8</ele>
        <time>2024-04-28T11:29:24Z</time>
      </trkpt>
      <trkpt lat="50.03847" lon="4.33291">
        <ele>221.8</ele>
        <time>2024-04-28T11:29:25Z</time>
      </trkpt>
      <trkpt lat="50.03842" lon="4.33296">
        <ele>221.8</ele>
        <time>2024-04-28T11:29:26Z</time>
      </trkpt>
      <trkpt lat="50.03837" lon="4.33301">
        <ele>221.8</ele>
        <time>2024-04-28T11:29:27Z</time>
      </trkpt>
      <trkpt lat="50.03832" lon="4.33306">
        <ele>221.8</ele>
        <time>2024-04-28T11:29:28Z</time>
      </trkpt>
      <trkpt lat="50.03826" lon="4.33311">
        <ele>221.8</ele>
        <time>2024-04-28T11:29:29Z</time>
      </trkpt>
      <trkpt lat="50.03821" lon="4.33317">
        <ele>222</ele>
        <time>2024-04-28T11:29:30Z</time>
      </trkpt>
      <trkpt lat="50.03816" lon="4.33322">
        <ele>222</ele>
        <time>2024-04-28T11:29:31Z</time>
      </trkpt>
      <trkpt lat="50.03811" lon="4.33326">
        <ele>221.8</ele>
        <time>2024-04-28T11:29:32Z</time>
      </trkpt>
      <trkpt lat="50.03805" lon="4.33332">
        <ele>222</ele>
        <time>2024-04-28T11:29:33Z</time>
      </trkpt>
      <trkpt lat="50.038" lon="4.33337">
        <ele>222</ele>
        <time>2024-04-28T11:29:34Z</time>
      </trkpt>
      <trkpt lat="50.03795" lon="4.33342">
        <ele>222.2</ele>
        <time>2024-04-28T11:29:35Z</time>
      </trkpt>
      <trkpt lat="50.03789" lon="4.33347">
        <ele>222</ele>
        <time>2024-04-28T11:29:36Z</time>
      </trkpt>
      <trkpt lat="50.03783" lon="4.33353">
        <ele>222.2</ele>
        <time>2024-04-28T11:29:37Z</time>
      </trkpt>
      <trkpt lat="50.03777" lon="4.33359">
        <ele>222.2</ele>
        <time>2024-04-28T11:29:38Z</time>
      </trkpt>
      <trkpt lat="50.03771" lon="4.33365">
        <ele>222.4</ele>
        <time>2024-04-28T11:29:39Z</time>
      </trkpt>
      <trkpt lat="50.03765" lon="4.33371">
        <ele>222.4</ele>
        <time>2024-04-28T11:29:40Z</time>
      </trkpt>
      <trkpt lat="50.03759" lon="4.33377">
        <ele>222.4</ele>
        <time>2024-04-28T11:29:41Z</time>
      </trkpt>
      <trkpt lat="50.03752" lon="4.33383">
        <ele>222.4</ele>
        <time>2024-04-28T11:29:42Z</time>
      </trkpt>
      <trkpt lat="50.03746" lon="4.3339">
        <ele>222.4</ele>
        <time>2024-04-28T11:29:43Z</time>
      </trkpt>
      <trkpt lat="50.03739" lon="4.33396">
        <ele>222.4</ele>
        <time>2024-04-28T11:29:44Z</time>
      </trkpt>
      <trkpt lat="50.03732" lon="4.33403">
        <ele>222</ele>
        <time>2024-04-28T11:29:45Z</time>
      </trkpt>
      <trkpt lat="50.03725" lon="4.3341">
        <ele>222</ele>
        <time>2024-04-28T11:29:46Z</time>
      </trkpt>
      <trkpt lat="50.03717" lon="4.33417">
        <ele>222</ele>
        <time>2024-04-28T11:29:47Z</time>
      </trkpt>
      <trkpt lat="50.0371" lon="4.33424">
        <ele>221.8</ele>
        <time>2024-04-28T11:29:48Z</time>
      </trkpt>
      <trkpt lat="50.03702" lon="4.33431">
        <ele>221.4</ele>
        <time>2024-04-28T11:29:49Z</time>
      </trkpt>
      <trkpt lat="50.03695" lon="4.33439">
        <ele>221.2</ele>
        <time>2024-04-28T11:29:50Z</time>
      </trkpt>
      <trkpt lat="50.03687" lon="4.33447">
        <ele>221.2</ele>
        <time>2024-04-28T11:29:51Z</time>
      </trkpt>
      <trkpt lat="50.03679" lon="4.33455">
        <ele>220.8</ele>
        <time>2024-04-28T11:29:52Z</time>
      </trkpt>
      <trkpt lat="50.03671" lon="4.33463">
        <ele>220.4</ele>
        <time>2024-04-28T11:29:53Z</time>
      </trkpt>
      <trkpt lat="50.03662" lon="4.33471">
        <ele>219.6</ele>
        <time>2024-04-28T11:29:54Z</time>
      </trkpt>
      <trkpt lat="50.03654" lon="4.33479">
        <ele>219.2</ele>
        <time>2024-04-28T11:29:55Z</time>
      </trkpt>
      <trkpt lat="50.03646" lon="4.33487">
        <ele>218.8</ele>
        <time>2024-04-28T11:29:56Z</time>
      </trkpt>
      <trkpt lat="50.03637" lon="4.33495">
        <ele>218</ele>
        <time>2024-04-28T11:29:57Z</time>
      </trkpt>
      <trkpt lat="50.03628" lon="4.33503">
        <ele>217.6</ele>
        <time>2024-04-28T11:29:58Z</time>
      </trkpt>
      <trkpt lat="50.0362" lon="4.33512">
        <ele>217.4</ele>
        <time>2024-04-28T11:29:59Z</time>
      </trkpt>
      <trkpt lat="50.03611" lon="4.33521">
        <ele>217</ele>
        <time>2024-04-28T11:30:00Z</time>
      </trkpt>
      <trkpt lat="50.03602" lon="4.33529">
        <ele>217</ele>
        <time>2024-04-28T11:30:01Z</time>
      </trkpt>
      <trkpt lat="50.03594" lon="4.33537">
        <ele>216</ele>
        <time>2024-04-28T11:30:02Z</time>
      </trkpt>
      <trkpt lat="50.03585" lon="4.33546">
        <ele>215.4</ele>
        <time>2024-04-28T11:30:03Z</time>
      </trkpt>
      <trkpt lat="50.03576" lon="4.33555">
        <ele>215.4</ele>
        <time>2024-04-28T11:30:04Z</time>
      </trkpt>
      <trkpt lat="50.03567" lon="4.33563">
        <ele>214.6</ele>
        <time>2024-04-28T11:30:05Z</time>
      </trkpt>
      <trkpt lat="50.03558" lon="4.33572">
        <ele>213.8</ele>
        <time>2024-04-28T11:30:06Z</time>
      </trkpt>
      <trkpt lat="50.03548" lon="4.3358">
        <ele>213.2</ele>
        <time>2024-04-28T11:30:07Z</time>
      </trkpt>
      <trkpt lat="50.03539" lon="4.33589">
        <ele>212.6</ele>
        <time>2024-04-28T11:30:08Z</time>
      </trkpt>
      <trkpt lat="50.03529" lon="4.33596">
        <ele>212.2</ele>
        <time>2024-04-28T11:30:09Z</time>
      </trkpt>
      <trkpt lat="50.03519" lon="4.33603">
        <ele>211.8</ele>
        <time>2024-04-28T11:30:10Z</time>
      </trkpt>
      <trkpt lat="50.03509" lon="4.33609">
        <ele>211.2</ele>
        <time>2024-04-28T11:30:11Z</time>
      </trkpt>
      <trkpt lat="50.03498" lon="4.33614">
        <ele>211</ele>
        <time>2024-04-28T11:30:12Z</time>
      </trkpt>
      <trkpt lat="50.03487" lon="4.33618">
        <ele>210.4</ele>
        <time>2024-04-28T11:30:13Z</time>
      </trkpt>
      <trkpt lat="50.03477" lon="4.33621">
        <ele>209.8</ele>
        <time>2024-04-28T11:30:14Z</time>
      </trkpt>
      <trkpt lat="50.03467" lon="4.33625">
        <ele>209.2</ele>
        <time>2024-04-28T11:30:15Z</time>
      </trkpt>
      <trkpt lat="50.03457" lon="4.33629">
        <ele>208.4</ele>
        <time>2024-04-28T11:30:16Z</time>
      </trkpt>
      <trkpt lat="50.03447" lon="4.33632">
        <ele>208</ele>
        <time>2024-04-28T11:30:17Z</time>
      </trkpt>
      <trkpt lat="50.03438" lon="4.33635">
        <ele>207.6</ele>
        <time>2024-04-28T11:30:18Z</time>
      </trkpt>
      <trkpt lat="50.03429" lon="4.33639">
        <ele>207</ele>
        <time>2024-04-28T11:30:19Z</time>
      </trkpt>
      <trkpt lat="50.0342" lon="4.33642">
        <ele>206.8</ele>
        <time>2024-04-28T11:30:20Z</time>
      </trkpt>
      <trkpt lat="50.03411" lon="4.33645">
        <ele>206.4</ele>
        <time>2024-04-28T11:30:21Z</time>
      </trkpt>
      <trkpt lat="50.03402" lon="4.33648">
        <ele>206.4</ele>
        <time>2024-04-28T11:30:22Z</time>
      </trkpt>
      <trkpt lat="50.03394" lon="4.33651">
        <ele>206.4</ele>
        <time>2024-04-28T11:30:23Z</time>
      </trkpt>
      <trkpt lat="50.03387" lon="4.33653">
        <ele>206.4</ele>
        <time>2024-04-28T11:30:24Z</time>
      </trkpt>
      <trkpt lat="50.0338" lon="4.33655">
        <ele>206.2</ele>
        <time>2024-04-28T11:30:25Z</time>
      </trkpt>
      <trkpt lat="50.03373" lon="4.33658">
        <ele>206.4</ele>
        <time>2024-04-28T11:30:26Z</time>
      </trkpt>
      <trkpt lat="50.03366" lon="4.33661">
        <ele>206.2</ele>
        <time>2024-04-28T11:30:27Z</time>
      </trkpt>
      <trkpt lat="50.03359" lon="4.33663">
        <ele>206.4</ele>
        <time>2024-04-28T11:30:28Z</time>
      </trkpt>
      <trkpt lat="50.03353" lon="4.33665">
        <ele>206.4</ele>
        <time>2024-04-28T11:30:29Z</time>
      </trkpt>
      <trkpt lat="50.03347" lon="4.33667">
        <ele>206.2</ele>
        <time>2024-04-28T11:30:30Z</time>
      </trkpt>
      <trkpt lat="50.03341" lon="4.33669">
        <ele>206.6</ele>
        <time>2024-04-28T11:30:31Z</time>
      </trkpt>
      <trkpt lat="50.03335" lon="4.33671">
        <ele>206.8</ele>
        <time>2024-04-28T11:30:32Z</time>
      </trkpt>
      <trkpt lat="50.03329" lon="4.33673">
        <ele>207.4</ele>
        <time>2024-04-28T11:30:33Z</time>
      </trkpt>
      <trkpt lat="50.03323" lon="4.33675">
        <ele>207.6</ele>
        <time>2024-04-28T11:30:34Z</time>
      </trkpt>
      <trkpt lat="50.03318" lon="4.33677">
        <ele>208.2</ele>
        <time>2024-04-28T11:30:35Z</time>
      </trkpt>
      <trkpt lat="50.03312" lon="4.33679">
        <ele>208.4</ele>
        <time>2024-04-28T11:30:36Z</time>
      </trkpt>
      <trkpt lat="50.03306" lon="4.33681">
        <ele>208.8</ele>
        <time>2024-04-28T11:30:37Z</time>
      </trkpt>
      <trkpt lat="50.03301" lon="4.33683">
        <ele>209</ele>
        <time>2024-04-28T11:30:38Z</time>
      </trkpt>
      <trkpt lat="50.03296" lon="4.33685">
        <ele>209.4</ele>
        <time>2024-04-28T11:30:39Z</time>
      </trkpt>
      <trkpt lat="50.0329" lon="4.33687">
        <ele>209.4</ele>
        <time>2024-04-28T11:30:40Z</time>
      </trkpt>
      <trkpt lat="50.03285" lon="4.33689">
        <ele>209.8</ele>
        <time>2024-04-28T11:30:41Z</time>
      </trkpt>
      <trkpt lat="50.03279" lon="4.33691">
        <ele>210</ele>
        <time>2024-04-28T11:30:42Z</time>
      </trkpt>
      <trkpt lat="50.03274" lon="4.33693">
        <ele>210.2</ele>
        <time>2024-04-28T11:30:43Z</time>
      </trkpt>
      <trkpt lat="50.03269" lon="4.33695">
        <ele>210.4</ele>
        <time>2024-04-28T11:30:44Z</time>
      </trkpt>
      <trkpt lat="50.03264" lon="4.33697">
        <ele>210.6</ele>
        <time>2024-04-28T11:30:45Z</time>
      </trkpt>
      <trkpt lat="50.03258" lon="4.33699">
        <ele>210.8</ele>
        <time>2024-04-28T11:30:46Z</time>
      </trkpt>
      <trkpt lat="50.03253" lon="4.33702">
        <ele>210.8</ele>
        <time>2024-04-28T11:30:47Z</time>
      </trkpt>
      <trkpt lat="50.03247" lon="4.33704">
        <ele>210.8</ele>
        <time>2024-04-28T11:30:48Z</time>
      </trkpt>
      <trkpt lat="50.03242" lon="4.33707">
        <ele>211</ele>
        <time>2024-04-28T11:30:49Z</time>
      </trkpt>
      <trkpt lat="50.03237" lon="4.33711">
        <ele>210.8</ele>
        <time>2024-04-28T11:30:50Z</time>
      </trkpt>
      <trkpt lat="50.03232" lon="4.33714">
        <ele>211</ele>
        <time>2024-04-28T11:30:51Z</time>
      </trkpt>
      <trkpt lat="50.03226" lon="4.33718">
        <ele>211.4</ele>
        <time>2024-04-28T11:30:52Z</time>
      </trkpt>
      <trkpt lat="50.03221" lon="4.33722">
        <ele>211.6</ele>
        <time>2024-04-28T11:30:53Z</time>
      </trkpt>
      <trkpt lat="50.03216" lon="4.33726">
        <ele>212</ele>
        <time>2024-04-28T11:30:54Z</time>
      </trkpt>
      <trkpt lat="50.03211" lon="4.33731">
        <ele>212.4</ele>
        <time>2024-04-28T11:30:55Z</time>
      </trkpt>
      <trkpt lat="50.03205" lon="4.33735">
        <ele>212.8</ele>
        <time>2024-04-28T11:30:56Z</time>
      </trkpt>
      <trkpt lat="50.032" lon="4.3374">
        <ele>213.2</ele>
        <time>2024-04-28T11:30:57Z</time>
      </trkpt>
      <trkpt lat="50.03194" lon="4.33745">
        <ele>213.2</ele>
        <time>2024-04-28T11:30:58Z</time>
      </trkpt>
      <trkpt lat="50.03189" lon="4.3375">
        <ele>213.8</ele>
        <time>2024-04-28T11:30:59Z</time>
      </trkpt>
      <trkpt lat="50.03184" lon="4.33755">
        <ele>214</ele>
        <time>2024-04-28T11:31:00Z</time>
      </trkpt>
      <trkpt lat="50.03178" lon="4.3376">
        <ele>214.2</ele>
        <time>2024-04-28T11:31:01Z</time>
      </trkpt>
      <trkpt lat="50.03172" lon="4.33765">
        <ele>214.4</ele>
        <time>2024-04-28T11:31:02Z</time>
      </trkpt>
      <trkpt lat="50.03167" lon="4.3377">
        <ele>214.4</ele>
        <time>2024-04-28T11:31:03Z</time>
      </trkpt>
      <trkpt lat="50.03161" lon="4.33775">
        <ele>214.4</ele>
        <time>2024-04-28T11:31:04Z</time>
      </trkpt>
      <trkpt lat="50.03156" lon="4.3378">
        <ele>214.4</ele>
        <time>2024-04-28T11:31:05Z</time>
      </trkpt>
      <trkpt lat="50.0315" lon="4.33785">
        <ele>214.2</ele>
        <time>2024-04-28T11:31:06Z</time>
      </trkpt>
      <trkpt lat="50.03145" lon="4.33791">
        <ele>214.4</ele>
        <time>2024-04-28T11:31:07Z</time>
      </trkpt>
      <trkpt lat="50.03139" lon="4.33796">
        <ele>214.4</ele>
        <time>2024-04-28T11:31:08Z</time>
      </trkpt>
      <trkpt lat="50.03134" lon="4.33801">
        <ele>214.4</ele>
        <time>2024-04-28T11:31:09Z</time>
      </trkpt>
      <trkpt lat="50.03128" lon="4.33805">
        <ele>214.2</ele>
        <time>2024-04-28T11:31:10Z</time>
      </trkpt>
      <trkpt lat="50.03123" lon="4.3381">
        <ele>214</ele>
        <time>2024-04-28T11:31:11Z</time>
      </trkpt>
      <trkpt lat="50.03118" lon="4.33815">
        <ele>214</ele>
        <time>2024-04-28T11:31:12Z</time>
      </trkpt>
      <trkpt lat="50.03113" lon="4.33819">
        <ele>213.6</ele>
        <time>2024-04-28T11:31:13Z</time>
      </trkpt>
      <trkpt lat="50.03107" lon="4.33824">
        <ele>213.4</ele>
        <time>2024-04-28T11:31:14Z</time>
      </trkpt>
      <trkpt lat="50.03102" lon="4.33829">
        <ele>213.2</ele>
        <time>2024-04-28T11:31:15Z</time>
      </trkpt>
      <trkpt lat="50.03097" lon="4.33834">
        <ele>213.2</ele>
        <time>2024-04-28T11:31:16Z</time>
      </trkpt>
      <trkpt lat="50.03091" lon="4.33839">
        <ele>213</ele>
        <time>2024-04-28T11:31:17Z</time>
      </trkpt>
      <trkpt lat="50.03086" lon="4.33844">
        <ele>213</ele>
        <time>2024-04-28T11:31:18Z</time>
      </trkpt>
      <trkpt lat="50.0308" lon="4.33849">
        <ele>213</ele>
        <time>2024-04-28T11:31:19Z</time>
      </trkpt>
      <trkpt lat="50.03075" lon="4.33854">
        <ele>213</ele>
        <time>2024-04-28T11:31:20Z</time>
      </trkpt>
      <trkpt lat="50.03069" lon="4.33859">
        <ele>213</ele>
        <time>2024-04-28T11:31:21Z</time>
      </trkpt>
      <trkpt lat="50.03064" lon="4.33864">
        <ele>213</ele>
        <time>2024-04-28T11:31:22Z</time>
      </trkpt>
      <trkpt lat="50.03058" lon="4.3387">
        <ele>213</ele>
        <time>2024-04-28T11:31:23Z</time>
      </trkpt>
      <trkpt lat="50.03053" lon="4.33875">
        <ele>213</ele>
        <time>2024-04-28T11:31:24Z</time>
      </trkpt>
      <trkpt lat="50.03047" lon="4.3388">
        <ele>213.8</ele>
        <time>2024-04-28T11:31:25Z</time>
      </trkpt>
      <trkpt lat="50.03042" lon="4.33885">
        <ele>214</ele>
        <time>2024-04-28T11:31:26Z</time>
      </trkpt>
      <trkpt lat="50.03036" lon="4.3389">
        <ele>214.2</ele>
        <time>2024-04-28T11:31:27Z</time>
      </trkpt>
      <trkpt lat="50.0303" lon="4.33895">
        <ele>214.2</ele>
        <time>2024-04-28T11:31:28Z</time>
      </trkpt>
      <trkpt lat="50.03025" lon="4.339">
        <ele>214.2</ele>
        <time>2024-04-28T11:31:29Z</time>
      </trkpt>
      <trkpt lat="50.03019" lon="4.33905">
        <ele>214.4</ele>
        <time>2024-04-28T11:31:30Z</time>
      </trkpt>
      <trkpt lat="50.03013" lon="4.3391">
        <ele>214.4</ele>
        <time>2024-04-28T11:31:31Z</time>
      </trkpt>
      <trkpt lat="50.03008" lon="4.33915">
        <ele>214.2</ele>
        <time>2024-04-28T11:31:32Z</time>
      </trkpt>
      <trkpt lat="50.03003" lon="4.33919">
        <ele>214.2</ele>
        <time>2024-04-28T11:31:33Z</time>
      </trkpt>
      <trkpt lat="50.02997" lon="4.33924">
        <ele>214.2</ele>
        <time>2024-04-28T11:31:34Z</time>
      </trkpt>
      <trkpt lat="50.02992" lon="4.33929">
        <ele>214.4</ele>
        <time>2024-04-28T11:31:35Z</time>
      </trkpt>
      <trkpt lat="50.02986" lon="4.33934">
        <ele>214.4</ele>
        <time>2024-04-28T11:31:36Z</time>
      </trkpt>
      <trkpt lat="50.02981" lon="4.33939">
        <ele>214</ele>
        <time>2024-04-28T11:31:37Z</time>
      </trkpt>
      <trkpt lat="50.02976" lon="4.33943">
        <ele>214</ele>
        <time>2024-04-28T11:31:38Z</time>
      </trkpt>
      <trkpt lat="50.0297" lon="4.33948">
        <ele>214</ele>
        <time>2024-04-28T11:31:39Z</time>
      </trkpt>
      <trkpt lat="50.02965" lon="4.33954">
        <ele>214</ele>
        <time>2024-04-28T11:31:40Z</time>
      </trkpt>
      <trkpt lat="50.02959" lon="4.33959">
        <ele>213.8</ele>
        <time>2024-04-28T11:31:41Z</time>
      </trkpt>
      <trkpt lat="50.02954" lon="4.33965">
        <ele>214</ele>
        <time>2024-04-28T11:31:42Z</time>
      </trkpt>
      <trkpt lat="50.02949" lon="4.3397">
        <ele>214</ele>
        <time>2024-04-28T11:31:43Z</time>
      </trkpt>
      <trkpt lat="50.02943" lon="4.33976">
        <ele>213.8</ele>
        <time>2024-04-28T11:31:44Z</time>
      </trkpt>
      <trkpt lat="50.02938" lon="4.33981">
        <ele>213.8</ele>
        <time>2024-04-28T11:31:45Z</time>
      </trkpt>
      <trkpt lat="50.02932" lon="4.33986">
        <ele>213.8</ele>
        <time>2024-04-28T11:31:46Z</time>
      </trkpt>
      <trkpt lat="50.02926" lon="4.33991">
        <ele>213.8</ele>
        <time>2024-04-28T11:31:47Z</time>
      </trkpt>
      <trkpt lat="50.02921" lon="4.33996">
        <ele>213.8</ele>
        <time>2024-04-28T11:31:48Z</time>
      </trkpt>
      <trkpt lat="50.02915" lon="4.34001">
        <ele>213.8</ele>
        <time>2024-04-28T11:31:49Z</time>
      </trkpt>
      <trkpt lat="50.0291" lon="4.34006">
        <ele>214</ele>
        <time>2024-04-28T11:31:50Z</time>
      </trkpt>
      <trkpt lat="50.02904" lon="4.3401">
        <ele>213.8</ele>
        <time>2024-04-28T11:31:51Z</time>
      </trkpt>
      <trkpt lat="50.02898" lon="4.34015">
        <ele>213.8</ele>
        <time>2024-04-28T11:31:52Z</time>
      </trkpt>
      <trkpt lat="50.02893" lon="4.3402">
        <ele>213.8</ele>
        <time>2024-04-28T11:31:53Z</time>
      </trkpt>
      <trkpt lat="50.02887" lon="4.34025">
        <ele>213.8</ele>
        <time>2024-04-28T11:31:54Z</time>
      </trkpt>
      <trkpt lat="50.02882" lon="4.3403">
        <ele>213.8</ele>
        <time>2024-04-28T11:31:55Z</time>
      </trkpt>
      <trkpt lat="50.02876" lon="4.34035">
        <ele>213.8</ele>
        <time>2024-04-28T11:31:56Z</time>
      </trkpt>
      <trkpt lat="50.02871" lon="4.3404">
        <ele>214</ele>
        <time>2024-04-28T11:31:57Z</time>
      </trkpt>
      <trkpt lat="50.02865" lon="4.34044">
        <ele>213.8</ele>
        <time>2024-04-28T11:31:58Z</time>
      </trkpt>
      <trkpt lat="50.0286" lon="4.34049">
        <ele>213.8</ele>
        <time>2024-04-28T11:31:59Z</time>
      </trkpt>
      <trkpt lat="50.02854" lon="4.34054">
        <ele>213.8</ele>
        <time>2024-04-28T11:32:00Z</time>
      </trkpt>
      <trkpt lat="50.02848" lon="4.34058">
        <ele>213.8</ele>
        <time>2024-04-28T11:32:01Z</time>
      </trkpt>
      <trkpt lat="50.02842" lon="4.34061">
        <ele>214</ele>
        <time>2024-04-28T11:32:02Z</time>
      </trkpt>
      <trkpt lat="50.02836" lon="4.34064">
        <ele>213.8</ele>
        <time>2024-04-28T11:32:03Z</time>
      </trkpt>
      <trkpt lat="50.02829" lon="4.34067">
        <ele>213.8</ele>
        <time>2024-04-28T11:32:04Z</time>
      </trkpt>
      <trkpt lat="50.02823" lon="4.3407">
        <ele>213.8</ele>
        <time>2024-04-28T11:32:05Z</time>
      </trkpt>
      <trkpt lat="50.02816" lon="4.34072">
        <ele>213.8</ele>
        <time>2024-04-28T11:32:06Z</time>
      </trkpt>
      <trkpt lat="50.0281" lon="4.34073">
        <ele>213.8</ele>
        <time>2024-04-28T11:32:07Z</time>
      </trkpt>
      <trkpt lat="50.02804" lon="4.34075">
        <ele>214</ele>
        <time>2024-04-28T11:32:08Z</time>
      </trkpt>
      <trkpt lat="50.02797" lon="4.34076">
        <ele>214.2</ele>
        <time>2024-04-28T11:32:09Z</time>
      </trkpt>
      <trkpt lat="50.02791" lon="4.34078">
        <ele>214.2</ele>
        <time>2024-04-28T11:32:10Z</time>
      </trkpt>
      <trkpt lat="50.02785" lon="4.34079">
        <ele>214</ele>
        <time>2024-04-28T11:32:11Z</time>
      </trkpt>
      <trkpt lat="50.02779" lon="4.34081">
        <ele>214</ele>
        <time>2024-04-28T11:32:12Z</time>
      </trkpt>
      <trkpt lat="50.02773" lon="4.34082">
        <ele>214.2</ele>
        <time>2024-04-28T11:32:13Z</time>
      </trkpt>
      <trkpt lat="50.02768" lon="4.34083">
        <ele>214.2</ele>
        <time>2024-04-28T11:32:14Z</time>
      </trkpt>
      <trkpt lat="50.02762" lon="4.34085">
        <ele>214.2</ele>
        <time>2024-04-28T11:32:15Z</time>
      </trkpt>
      <trkpt lat="50.02756" lon="4.34086">
        <ele>214.2</ele>
        <time>2024-04-28T11:32:16Z</time>
      </trkpt>
      <trkpt lat="50.02751" lon="4.34088">
        <ele>214.2</ele>
        <time>2024-04-28T11:32:17Z</time>
      </trkpt>
      <trkpt lat="50.02745" lon="4.34091">
        <ele>214.2</ele>
        <time>2024-04-28T11:32:18Z</time>
      </trkpt>
      <trkpt lat="50.0274" lon="4.34093">
        <ele>214.2</ele>
        <time>2024-04-28T11:32:19Z</time>
      </trkpt>
      <trkpt lat="50.02735" lon="4.34093">
        <ele>214.2</ele>
        <time>2024-04-28T11:32:20Z</time>
      </trkpt>
      <trkpt lat="50.0273" lon="4.34089">
        <ele>214.2</ele>
        <time>2024-04-28T11:32:21Z</time>
      </trkpt>
      <trkpt lat="50.02726" lon="4.34084">
        <ele>214.4</ele>
        <time>2024-04-28T11:32:22Z</time>
      </trkpt>
      <trkpt lat="50.02723" lon="4.34077">
        <ele>214.2</ele>
        <time>2024-04-28T11:32:23Z</time>
      </trkpt>
      <trkpt lat="50.02722" lon="4.34068">
        <ele>214.2</ele>
        <time>2024-04-28T11:32:24Z</time>
      </trkpt>
      <trkpt lat="50.02722" lon="4.34059">
        <ele>214</ele>
        <time>2024-04-28T11:32:25Z</time>
      </trkpt>
      <trkpt lat="50.02721" lon="4.34049">
        <ele>214</ele>
        <time>2024-04-28T11:32:26Z</time>
      </trkpt>
      <trkpt lat="50.0272" lon="4.34039">
        <ele>214</ele>
        <time>2024-04-28T11:32:27Z</time>
      </trkpt>
      <trkpt lat="50.0272" lon="4.34029">
        <ele>214</ele>
        <time>2024-04-28T11:32:28Z</time>
      </trkpt>
      <trkpt lat="50.02719" lon="4.3402">
        <ele>214</ele>
        <time>2024-04-28T11:32:29Z</time>
      </trkpt>
      <trkpt lat="50.02719" lon="4.3401">
        <ele>214</ele>
        <time>2024-04-28T11:32:30Z</time>
      </trkpt>
      <trkpt lat="50.02718" lon="4.34">
        <ele>214.2</ele>
        <time>2024-04-28T11:32:31Z</time>
      </trkpt>
      <trkpt lat="50.02718" lon="4.3399">
        <ele>214.2</ele>
        <time>2024-04-28T11:32:32Z</time>
      </trkpt>
      <trkpt lat="50.02718" lon="4.3398">
        <ele>214.2</ele>
        <time>2024-04-28T11:32:33Z</time>
      </trkpt>
      <trkpt lat="50.02718" lon="4.3397">
        <ele>214.2</ele>
        <time>2024-04-28T11:32:34Z</time>
      </trkpt>
      <trkpt lat="50.02719" lon="4.3396">
        <ele>214.4</ele>
        <time>2024-04-28T11:32:35Z</time>
      </trkpt>
      <trkpt lat="50.02719" lon="4.33949">
        <ele>214.4</ele>
        <time>2024-04-28T11:32:36Z</time>
      </trkpt>
      <trkpt lat="50.0272" lon="4.33939">
        <ele>214.4</ele>
        <time>2024-04-28T11:32:37Z</time>
      </trkpt>
      <trkpt lat="50.0272" lon="4.33928">
        <ele>214.6</ele>
        <time>2024-04-28T11:32:38Z</time>
      </trkpt>
      <trkpt lat="50.02721" lon="4.33917">
        <ele>214.8</ele>
        <time>2024-04-28T11:32:39Z</time>
      </trkpt>
      <trkpt lat="50.02722" lon="4.33907">
        <ele>214.8</ele>
        <time>2024-04-28T11:32:40Z</time>
      </trkpt>
      <trkpt lat="50.02723" lon="4.33896">
        <ele>215</ele>
        <time>2024-04-28T11:32:41Z</time>
      </trkpt>
      <trkpt lat="50.02724" lon="4.33886">
        <ele>215.4</ele>
        <time>2024-04-28T11:32:42Z</time>
      </trkpt>
      <trkpt lat="50.02725" lon="4.33875">
        <ele>215.4</ele>
        <time>2024-04-28T11:32:43Z</time>
      </trkpt>
      <trkpt lat="50.02727" lon="4.33866">
        <ele>215.4</ele>
        <time>2024-04-28T11:32:44Z</time>
      </trkpt>
      <trkpt lat="50.02729" lon="4.33856">
        <ele>215.6</ele>
        <time>2024-04-28T11:32:45Z</time>
      </trkpt>
      <trkpt lat="50.0273" lon="4.33846">
        <ele>215.6</ele>
        <time>2024-04-28T11:32:46Z</time>
      </trkpt>
      <trkpt lat="50.02732" lon="4.33837">
        <ele>215.6</ele>
        <time>2024-04-28T11:32:47Z</time>
      </trkpt>
      <trkpt lat="50.02733" lon="4.33827">
        <ele>215.6</ele>
        <time>2024-04-28T11:32:48Z</time>
      </trkpt>
      <trkpt lat="50.02734" lon="4.33818">
        <ele>215.6</ele>
        <time>2024-04-28T11:32:49Z</time>
      </trkpt>
      <trkpt lat="50.02736" lon="4.33809">
        <ele>215.6</ele>
        <time>2024-04-28T11:32:50Z</time>
      </trkpt>
      <trkpt lat="50.02737" lon="4.338">
        <ele>215.8</ele>
        <time>2024-04-28T11:32:51Z</time>
      </trkpt>
      <trkpt lat="50.02739" lon="4.33792">
        <ele>216</ele>
        <time>2024-04-28T11:32:52Z</time>
      </trkpt>
      <trkpt lat="50.02741" lon="4.33783">
        <ele>216</ele>
        <time>2024-04-28T11:32:53Z</time>
      </trkpt>
      <trkpt lat="50.02742" lon="4.33774">
        <ele>216.2</ele>
        <time>2024-04-28T11:32:54Z</time>
      </trkpt>
      <trkpt lat="50.02744" lon="4.33765">
        <ele>216</ele>
        <time>2024-04-28T11:32:55Z</time>
      </trkpt>
      <trkpt lat="50.02745" lon="4.33756">
        <ele>216</ele>
        <time>2024-04-28T11:32:56Z</time>
      </trkpt>
      <trkpt lat="50.02746" lon="4.33747">
        <ele>216.2</ele>
        <time>2024-04-28T11:32:57Z</time>
      </trkpt>
      <trkpt lat="50.02747" lon="4.33738">
        <ele>216</ele>
        <time>2024-04-28T11:32:58Z</time>
      </trkpt>
      <trkpt lat="50.02748" lon="4.33729">
        <ele>216.4</ele>
        <time>2024-04-28T11:32:59Z</time>
      </trkpt>
      <trkpt lat="50.02749" lon="4.3372">
        <ele>216.6</ele>
        <time>2024-04-28T11:33:00Z</time>
      </trkpt>
      <trkpt lat="50.02749" lon="4.33711">
        <ele>216.6</ele>
        <time>2024-04-28T11:33:01Z</time>
      </trkpt>
      <trkpt lat="50.0275" lon="4.33702">
        <ele>216.6</ele>
        <time>2024-04-28T11:33:02Z</time>
      </trkpt>
      <trkpt lat="50.0275" lon="4.33693">
        <ele>216.8</ele>
        <time>2024-04-28T11:33:03Z</time>
      </trkpt>
      <trkpt lat="50.0275" lon="4.33685">
        <ele>216.8</ele>
        <time>2024-04-28T11:33:04Z</time>
      </trkpt>
      <trkpt lat="50.0275" lon="4.33676">
        <ele>217.2</ele>
        <time>2024-04-28T11:33:05Z</time>
      </trkpt>
      <trkpt lat="50.02749" lon="4.33668">
        <ele>217.4</ele>
        <time>2024-04-28T11:33:06Z</time>
      </trkpt>
      <trkpt lat="50.02749" lon="4.33659">
        <ele>217.8</ele>
        <time>2024-04-28T11:33:07Z</time>
      </trkpt>
      <trkpt lat="50.02748" lon="4.33651">
        <ele>217.8</ele>
        <time>2024-04-28T11:33:08Z</time>
      </trkpt>
      <trkpt lat="50.02748" lon="4.33642">
        <ele>218.2</ele>
        <time>2024-04-28T11:33:09Z</time>
      </trkpt>
      <trkpt lat="50.02748" lon="4.33634">
        <ele>218.6</ele>
        <time>2024-04-28T11:33:10Z</time>
      </trkpt>
      <trkpt lat="50.02747" lon="4.33626">
        <ele>218.8</ele>
        <time>2024-04-28T11:33:11Z</time>
      </trkpt>
      <trkpt lat="50.02747" lon="4.33619">
        <ele>219</ele>
        <time>2024-04-28T11:33:12Z</time>
      </trkpt>
      <trkpt lat="50.02746" lon="4.33611">
        <ele>219</ele>
        <time>2024-04-28T11:33:13Z</time>
      </trkpt>
      <trkpt lat="50.02746" lon="4.33604">
        <ele>219.2</ele>
        <time>2024-04-28T11:33:14Z</time>
      </trkpt>
      <trkpt lat="50.02745" lon="4.33596">
        <ele>219.2</ele>
        <time>2024-04-28T11:33:15Z</time>
      </trkpt>
      <trkpt lat="50.02745" lon="4.33589">
        <ele>219.4</ele>
        <time>2024-04-28T11:33:16Z</time>
      </trkpt>
      <trkpt lat="50.02744" lon="4.33581">
        <ele>219.4</ele>
        <time>2024-04-28T11:33:17Z</time>
      </trkpt>
      <trkpt lat="50.02744" lon="4.33574">
        <ele>219.4</ele>
        <time>2024-04-28T11:33:18Z</time>
      </trkpt>
      <trkpt lat="50.02743" lon="4.33566">
        <ele>219.4</ele>
        <time>2024-04-28T11:33:19Z</time>
      </trkpt>
      <trkpt lat="50.02743" lon="4.33559">
        <ele>219.6</ele>
        <time>2024-04-28T11:33:20Z</time>
      </trkpt>
      <trkpt lat="50.02742" lon="4.33551">
        <ele>219.6</ele>
        <time>2024-04-28T11:33:21Z</time>
      </trkpt>
      <trkpt lat="50.02742" lon="4.33544">
        <ele>219.8</ele>
        <time>2024-04-28T11:33:22Z</time>
      </trkpt>
      <trkpt lat="50.02742" lon="4.33536">
        <ele>220</ele>
        <time>2024-04-28T11:33:23Z</time>
      </trkpt>
      <trkpt lat="50.02741" lon="4.33529">
        <ele>220.2</ele>
        <time>2024-04-28T11:33:24Z</time>
      </trkpt>
      <trkpt lat="50.02741" lon="4.33521">
        <ele>220.2</ele>
        <time>2024-04-28T11:33:25Z</time>
      </trkpt>
      <trkpt lat="50.0274" lon="4.33514">
        <ele>220.4</ele>
        <time>2024-04-28T11:33:26Z</time>
      </trkpt>
      <trkpt lat="50.0274" lon="4.33506">
        <ele>220.8</ele>
        <time>2024-04-28T11:33:27Z</time>
      </trkpt>
      <trkpt lat="50.0274" lon="4.33499">
        <ele>221</ele>
        <time>2024-04-28T11:33:28Z</time>
      </trkpt>
      <trkpt lat="50.02739" lon="4.33492">
        <ele>221.2</ele>
        <time>2024-04-28T11:33:29Z</time>
      </trkpt>
      <trkpt lat="50.02739" lon="4.33485">
        <ele>221.4</ele>
        <time>2024-04-28T11:33:30Z</time>
      </trkpt>
      <trkpt lat="50.02739" lon="4.33478">
        <ele>221.6</ele>
        <time>2024-04-28T11:33:31Z</time>
      </trkpt>
      <trkpt lat="50.02738" lon="4.3347">
        <ele>221.6</ele>
        <time>2024-04-28T11:33:32Z</time>
      </trkpt>
      <trkpt lat="50.02738" lon="4.33463">
        <ele>221.8</ele>
        <time>2024-04-28T11:33:33Z</time>
      </trkpt>
      <trkpt lat="50.02737" lon="4.33455">
        <ele>222</ele>
        <time>2024-04-28T11:33:34Z</time>
      </trkpt>
      <trkpt lat="50.02737" lon="4.33448">
        <ele>222.4</ele>
        <time>2024-04-28T11:33:35Z</time>
      </trkpt>
      <trkpt lat="50.02736" lon="4.33441">
        <ele>222.4</ele>
        <time>2024-04-28T11:33:36Z</time>
      </trkpt>
      <trkpt lat="50.02735" lon="4.33433">
        <ele>222.6</ele>
        <time>2024-04-28T11:33:37Z</time>
      </trkpt>
      <trkpt lat="50.02735" lon="4.33426">
        <ele>222.8</ele>
        <time>2024-04-28T11:33:38Z</time>
      </trkpt>
      <trkpt lat="50.02734" lon="4.33418">
        <ele>223</ele>
        <time>2024-04-28T11:33:39Z</time>
      </trkpt>
      <trkpt lat="50.02734" lon="4.3341">
        <ele>223.2</ele>
        <time>2024-04-28T11:33:40Z</time>
      </trkpt>
      <trkpt lat="50.02734" lon="4.33403">
        <ele>223.6</ele>
        <time>2024-04-28T11:33:41Z</time>
      </trkpt>
      <trkpt lat="50.02733" lon="4.33395">
        <ele>223.8</ele>
        <time>2024-04-28T11:33:42Z</time>
      </trkpt>
      <trkpt lat="50.02733" lon="4.33387">
        <ele>224</ele>
        <time>2024-04-28T11:33:43Z</time>
      </trkpt>
      <trkpt lat="50.02732" lon="4.3338">
        <ele>224.2</ele>
        <time>2024-04-28T11:33:44Z</time>
      </trkpt>
      <trkpt lat="50.02732" lon="4.33372">
        <ele>224.4</ele>
        <time>2024-04-28T11:33:45Z</time>
      </trkpt>
      <trkpt lat="50.02731" lon="4.33365">
        <ele>224.6</ele>
        <time>2024-04-28T11:33:46Z</time>
      </trkpt>
      <trkpt lat="50.02731" lon="4.33358">
        <ele>224.8</ele>
        <time>2024-04-28T11:33:47Z</time>
      </trkpt>
      <trkpt lat="50.0273" lon="4.33351">
        <ele>225.2</ele>
        <time>2024-04-28T11:33:48Z</time>
      </trkpt>
      <trkpt lat="50.0273" lon="4.33343">
        <ele>225.2</ele>
        <time>2024-04-28T11:33:49Z</time>
      </trkpt>
      <trkpt lat="50.02729" lon="4.33336">
        <ele>225.4</ele>
        <time>2024-04-28T11:33:50Z</time>
      </trkpt>
      <trkpt lat="50.02729" lon="4.33329">
        <ele>225.6</ele>
        <time>2024-04-28T11:33:51Z</time>
      </trkpt>
      <trkpt lat="50.02728" lon="4.33322">
        <ele>225.6</ele>
        <time>2024-04-28T11:33:52Z</time>
      </trkpt>
      <trkpt lat="50.02728" lon="4.33314">
        <ele>225.6</ele>
        <time>2024-04-28T11:33:53Z</time>
      </trkpt>
      <trkpt lat="50.02727" lon="4.33307">
        <ele>225.8</ele>
        <time>2024-04-28T11:33:54Z</time>
      </trkpt>
      <trkpt lat="50.02727" lon="4.333">
        <ele>225.8</ele>
        <time>2024-04-28T11:33:55Z</time>
      </trkpt>
      <trkpt lat="50.02726" lon="4.33293">
        <ele>226</ele>
        <time>2024-04-28T11:33:56Z</time>
      </trkpt>
      <trkpt lat="50.02725" lon="4.33286">
        <ele>226</ele>
        <time>2024-04-28T11:33:57Z</time>
      </trkpt>
      <trkpt lat="50.02724" lon="4.33279">
        <ele>225.8</ele>
        <time>2024-04-28T11:33:58Z</time>
      </trkpt>
      <trkpt lat="50.02724" lon="4.33272">
        <ele>225.8</ele>
        <time>2024-04-28T11:33:59Z</time>
      </trkpt>
      <trkpt lat="50.02723" lon="4.33265">
        <ele>226</ele>
        <time>2024-04-28T11:34:00Z</time>
      </trkpt>
      <trkpt lat="50.02722" lon="4.33258">
        <ele>226</ele>
        <time>2024-04-28T11:34:01Z</time>
      </trkpt>
      <trkpt lat="50.02721" lon="4.33251">
        <ele>225.8</ele>
        <time>2024-04-28T11:34:02Z</time>
      </trkpt>
      <trkpt lat="50.0272" lon="4.33244">
        <ele>225.8</ele>
        <time>2024-04-28T11:34:03Z</time>
      </trkpt>
      <trkpt lat="50.02719" lon="4.33237">
        <ele>226</ele>
        <time>2024-04-28T11:34:04Z</time>
      </trkpt>
      <trkpt lat="50.02718" lon="4.3323">
        <ele>226</ele>
        <time>2024-04-28T11:34:05Z</time>
      </trkpt>
      <trkpt lat="50.02717" lon="4.33223">
        <ele>226</ele>
        <time>2024-04-28T11:34:06Z</time>
      </trkpt>
      <trkpt lat="50.02715" lon="4.33215">
        <ele>226.2</ele>
        <time>2024-04-28T11:34:07Z</time>
      </trkpt>
      <trkpt lat="50.02714" lon="4.33208">
        <ele>226.4</ele>
        <time>2024-04-28T11:34:08Z</time>
      </trkpt>
      <trkpt lat="50.02713" lon="4.33201">
        <ele>226.4</ele>
        <time>2024-04-28T11:34:09Z</time>
      </trkpt>
      <trkpt lat="50.02711" lon="4.33193">
        <ele>226.4</ele>
        <time>2024-04-28T11:34:10Z</time>
      </trkpt>
      <trkpt lat="50.0271" lon="4.33186">
        <ele>226.2</ele>
        <time>2024-04-28T11:34:11Z</time>
      </trkpt>
      <trkpt lat="50.02708" lon="4.33179">
        <ele>226.2</ele>
        <time>2024-04-28T11:34:12Z</time>
      </trkpt>
      <trkpt lat="50.02707" lon="4.33173">
        <ele>226.2</ele>
        <time>2024-04-28T11:34:13Z</time>
      </trkpt>
      <trkpt lat="50.02705" lon="4.33166">
        <ele>226.2</ele>
        <time>2024-04-28T11:34:14Z</time>
      </trkpt>
      <trkpt lat="50.02704" lon="4.33159">
        <ele>226</ele>
        <time>2024-04-28T11:34:15Z</time>
      </trkpt>
      <trkpt lat="50.02702" lon="4.33153">
        <ele>226</ele>
        <time>2024-04-28T11:34:16Z</time>
      </trkpt>
      <trkpt lat="50.02701" lon="4.33146">
        <ele>226.2</ele>
        <time>2024-04-28T11:34:17Z</time>
      </trkpt>
      <trkpt lat="50.02699" lon="4.3314">
        <ele>226.2</ele>
        <time>2024-04-28T11:34:18Z</time>
      </trkpt>
      <trkpt lat="50.02698" lon="4.33133">
        <ele>226.6</ele>
        <time>2024-04-28T11:34:19Z</time>
      </trkpt>
      <trkpt lat="50.02697" lon="4.33126">
        <ele>226.8</ele>
        <time>2024-04-28T11:34:20Z</time>
      </trkpt>
      <trkpt lat="50.02695" lon="4.33119">
        <ele>227</ele>
        <time>2024-04-28T11:34:21Z</time>
      </trkpt>
      <trkpt lat="50.02693" lon="4.33112">
        <ele>227.4</ele>
        <time>2024-04-28T11:34:22Z</time>
      </trkpt>
      <trkpt lat="50.02692" lon="4.33106">
        <ele>227.2</ele>
        <time>2024-04-28T11:34:23Z</time>
      </trkpt>
      <trkpt lat="50.0269" lon="4.33099">
        <ele>227.4</ele>
        <time>2024-04-28T11:34:24Z</time>
      </trkpt>
      <trkpt lat="50.02689" lon="4.33092">
        <ele>227.4</ele>
        <time>2024-04-28T11:34:25Z</time>
      </trkpt>
      <trkpt lat="50.02687" lon="4.33085">
        <ele>227.4</ele>
        <time>2024-04-28T11:34:26Z</time>
      </trkpt>
      <trkpt lat="50.02686" lon="4.33079">
        <ele>227.6</ele>
        <time>2024-04-28T11:34:27Z</time>
      </trkpt>
      <trkpt lat="50.02685" lon="4.33072">
        <ele>227.4</ele>
        <time>2024-04-28T11:34:28Z</time>
      </trkpt>
      <trkpt lat="50.02683" lon="4.33065">
        <ele>227.6</ele>
        <time>2024-04-28T11:34:29Z</time>
      </trkpt>
      <trkpt lat="50.02682" lon="4.33058">
        <ele>227.6</ele>
        <time>2024-04-28T11:34:30Z</time>
      </trkpt>
      <trkpt lat="50.0268" lon="4.3305">
        <ele>228</ele>
        <time>2024-04-28T11:34:31Z</time>
      </trkpt>
      <trkpt lat="50.02678" lon="4.33043">
        <ele>228</ele>
        <time>2024-04-28T11:34:32Z</time>
      </trkpt>
      <trkpt lat="50.02676" lon="4.33036">
        <ele>228.2</ele>
        <time>2024-04-28T11:34:33Z</time>
      </trkpt>
      <trkpt lat="50.02674" lon="4.33029">
        <ele>228.2</ele>
        <time>2024-04-28T11:34:34Z</time>
      </trkpt>
      <trkpt lat="50.02672" lon="4.33022">
        <ele>228.6</ele>
        <time>2024-04-28T11:34:35Z</time>
      </trkpt>
      <trkpt lat="50.0267" lon="4.33015">
        <ele>228.6</ele>
        <time>2024-04-28T11:34:36Z</time>
      </trkpt>
      <trkpt lat="50.02667" lon="4.33008">
        <ele>228.8</ele>
        <time>2024-04-28T11:34:37Z</time>
      </trkpt>
      <trkpt lat="50.02664" lon="4.33">
        <ele>228.8</ele>
        <time>2024-04-28T11:34:38Z</time>
      </trkpt>
      <trkpt lat="50.02661" lon="4.32993">
        <ele>228.8</ele>
        <time>2024-04-28T11:34:39Z</time>
      </trkpt>
      <trkpt lat="50.02658" lon="4.32985">
        <ele>229</ele>
        <time>2024-04-28T11:34:40Z</time>
      </trkpt>
      <trkpt lat="50.02655" lon="4.32978">
        <ele>229</ele>
        <time>2024-04-28T11:34:41Z</time>
      </trkpt>
      <trkpt lat="50.02652" lon="4.3297">
        <ele>229</ele>
        <time>2024-04-28T11:34:42Z</time>
      </trkpt>
      <trkpt lat="50.02649" lon="4.32962">
        <ele>229</ele>
        <time>2024-04-28T11:34:43Z</time>
      </trkpt>
      <trkpt lat="50.02646" lon="4.32954">
        <ele>229</ele>
        <time>2024-04-28T11:34:44Z</time>
      </trkpt>
      <trkpt lat="50.02643" lon="4.32946">
        <ele>229</ele>
        <time>2024-04-28T11:34:45Z</time>
      </trkpt>
      <trkpt lat="50.0264" lon="4.32938">
        <ele>229</ele>
        <time>2024-04-28T11:34:46Z</time>
      </trkpt>
      <trkpt lat="50.02636" lon="4.32929">
        <ele>229</ele>
        <time>2024-04-28T11:34:47Z</time>
      </trkpt>
      <trkpt lat="50.02633" lon="4.3292">
        <ele>229</ele>
        <time>2024-04-28T11:34:48Z</time>
      </trkpt>
      <trkpt lat="50.02629" lon="4.32911">
        <ele>229</ele>
        <time>2024-04-28T11:34:49Z</time>
      </trkpt>
      <trkpt lat="50.02626" lon="4.32901">
        <ele>229</ele>
        <time>2024-04-28T11:34:50Z</time>
      </trkpt>
      <trkpt lat="50.02622" lon="4.32892">
        <ele>228.8</ele>
        <time>2024-04-28T11:34:51Z</time>
      </trkpt>
      <trkpt lat="50.02618" lon="4.32882">
        <ele>228.8</ele>
        <time>2024-04-28T11:34:52Z</time>
      </trkpt>
      <trkpt lat="50.02615" lon="4.32873">
        <ele>228.6</ele>
        <time>2024-04-28T11:34:53Z</time>
      </trkpt>
      <trkpt lat="50.02611" lon="4.32863">
        <ele>228.2</ele>
        <time>2024-04-28T11:34:54Z</time>
      </trkpt>
      <trkpt lat="50.02607" lon="4.32854">
        <ele>227.8</ele>
        <time>2024-04-28T11:34:55Z</time>
      </trkpt>
      <trkpt lat="50.02604" lon="4.32844">
        <ele>227.6</ele>
        <time>2024-04-28T11:34:56Z</time>
      </trkpt>
      <trkpt lat="50.026" lon="4.32834">
        <ele>227.6</ele>
        <time>2024-04-28T11:34:57Z</time>
      </trkpt>
      <trkpt lat="50.02596" lon="4.32825">
        <ele>227.4</ele>
        <time>2024-04-28T11:34:58Z</time>
      </trkpt>
      <trkpt lat="50.02592" lon="4.32815">
        <ele>227</ele>
        <time>2024-04-28T11:34:59Z</time>
      </trkpt>
      <trkpt lat="50.02589" lon="4.32805">
        <ele>226.4</ele>
        <time>2024-04-28T11:35:00Z</time>
      </trkpt>
      <trkpt lat="50.02586" lon="4.32796">
        <ele>226.4</ele>
        <time>2024-04-28T11:35:01Z</time>
      </trkpt>
      <trkpt lat="50.02584" lon="4.32786">
        <ele>225.8</ele>
        <time>2024-04-28T11:35:02Z</time>
      </trkpt>
      <trkpt lat="50.02584" lon="4.32775">
        <ele>225.8</ele>
        <time>2024-04-28T11:35:03Z</time>
      </trkpt>
      <trkpt lat="50.02585" lon="4.32763">
        <ele>225.4</ele>
        <time>2024-04-28T11:35:04Z</time>
      </trkpt>
      <trkpt lat="50.02588" lon="4.32753">
        <ele>225</ele>
        <time>2024-04-28T11:35:05Z</time>
      </trkpt>
      <trkpt lat="50.0259" lon="4.32742">
        <ele>224.4</ele>
        <time>2024-04-28T11:35:06Z</time>
      </trkpt>
      <trkpt lat="50.02591" lon="4.32731">
        <ele>224.2</ele>
        <time>2024-04-28T11:35:07Z</time>
      </trkpt>
      <trkpt lat="50.0259" lon="4.3272">
        <ele>223.8</ele>
        <time>2024-04-28T11:35:08Z</time>
      </trkpt>
      <trkpt lat="50.02586" lon="4.3271">
        <ele>223.6</ele>
        <time>2024-04-28T11:35:09Z</time>
      </trkpt>
      <trkpt lat="50.02581" lon="4.32701">
        <ele>223.2</ele>
        <time>2024-04-28T11:35:10Z</time>
      </trkpt>
      <trkpt lat="50.02576" lon="4.32693">
        <ele>223.2</ele>
        <time>2024-04-28T11:35:11Z</time>
      </trkpt>
      <trkpt lat="50.0257" lon="4.32684">
        <ele>222.8</ele>
        <time>2024-04-28T11:35:12Z</time>
      </trkpt>
      <trkpt lat="50.02565" lon="4.32676">
        <ele>222.8</ele>
        <time>2024-04-28T11:35:13Z</time>
      </trkpt>
      <trkpt lat="50.0256" lon="4.32667">
        <ele>222.6</ele>
        <time>2024-04-28T11:35:14Z</time>
      </trkpt>
      <trkpt lat="50.02555" lon="4.32658">
        <ele>222.4</ele>
        <time>2024-04-28T11:35:15Z</time>
      </trkpt>
      <trkpt lat="50.02551" lon="4.32649">
        <ele>222.2</ele>
        <time>2024-04-28T11:35:16Z</time>
      </trkpt>
      <trkpt lat="50.02546" lon="4.3264">
        <ele>221.4</ele>
        <time>2024-04-28T11:35:17Z</time>
      </trkpt>
      <trkpt lat="50.02541" lon="4.32631">
        <ele>221.4</ele>
        <time>2024-04-28T11:35:18Z</time>
      </trkpt>
      <trkpt lat="50.02536" lon="4.32623">
        <ele>220.4</ele>
        <time>2024-04-28T11:35:19Z</time>
      </trkpt>
      <trkpt lat="50.02532" lon="4.32614">
        <ele>220</ele>
        <time>2024-04-28T11:35:20Z</time>
      </trkpt>
      <trkpt lat="50.02527" lon="4.32605">
        <ele>219.6</ele>
        <time>2024-04-28T11:35:21Z</time>
      </trkpt>
      <trkpt lat="50.02522" lon="4.32597">
        <ele>219.4</ele>
        <time>2024-04-28T11:35:22Z</time>
      </trkpt>
      <trkpt lat="50.02517" lon="4.32588">
        <ele>219.2</ele>
        <time>2024-04-28T11:35:23Z</time>
      </trkpt>
      <trkpt lat="50.02513" lon="4.32579">
        <ele>219.2</ele>
        <time>2024-04-28T11:35:24Z</time>
      </trkpt>
      <trkpt lat="50.02508" lon="4.3257">
        <ele>219.2</ele>
        <time>2024-04-28T11:35:25Z</time>
      </trkpt>
      <trkpt lat="50.02503" lon="4.32561">
        <ele>219</ele>
        <time>2024-04-28T11:35:26Z</time>
      </trkpt>
      <trkpt lat="50.02498" lon="4.32553">
        <ele>219</ele>
        <time>2024-04-28T11:35:27Z</time>
      </trkpt>
      <trkpt lat="50.02493" lon="4.32544">
        <ele>218.6</ele>
        <time>2024-04-28T11:35:28Z</time>
      </trkpt>
      <trkpt lat="50.02489" lon="4.32535">
        <ele>218.6</ele>
        <time>2024-04-28T11:35:29Z</time>
      </trkpt>
      <trkpt lat="50.02484" lon="4.32526">
        <ele>218.2</ele>
        <time>2024-04-28T11:35:30Z</time>
      </trkpt>
      <trkpt lat="50.02479" lon="4.32517">
        <ele>218</ele>
        <time>2024-04-28T11:35:31Z</time>
      </trkpt>
      <trkpt lat="50.02474" lon="4.32508">
        <ele>218</ele>
        <time>2024-04-28T11:35:32Z</time>
      </trkpt>
      <trkpt lat="50.02469" lon="4.32499">
        <ele>218</ele>
        <time>2024-04-28T11:35:33Z</time>
      </trkpt>
      <trkpt lat="50.02464" lon="4.32491">
        <ele>217.8</ele>
        <time>2024-04-28T11:35:34Z</time>
      </trkpt>
      <trkpt lat="50.0246" lon="4.32482">
        <ele>217.8</ele>
        <time>2024-04-28T11:35:35Z</time>
      </trkpt>
      <trkpt lat="50.02455" lon="4.32474">
        <ele>217.6</ele>
        <time>2024-04-28T11:35:36Z</time>
      </trkpt>
      <trkpt lat="50.02451" lon="4.32466">
        <ele>217.6</ele>
        <time>2024-04-28T11:35:37Z</time>
      </trkpt>
      <trkpt lat="50.02446" lon="4.32458">
        <ele>217.4</ele>
        <time>2024-04-28T11:35:38Z</time>
      </trkpt>
      <trkpt lat="50.02442" lon="4.3245">
        <ele>217.4</ele>
        <time>2024-04-28T11:35:39Z</time>
      </trkpt>
      <trkpt lat="50.02438" lon="4.32443">
        <ele>217.6</ele>
        <time>2024-04-28T11:35:40Z</time>
      </trkpt>
      <trkpt lat="50.02434" lon="4.32435">
        <ele>217.6</ele>
        <time>2024-04-28T11:35:41Z</time>
      </trkpt>
      <trkpt lat="50.0243" lon="4.32427">
        <ele>217.6</ele>
        <time>2024-04-28T11:35:42Z</time>
      </trkpt>
      <trkpt lat="50.02426" lon="4.3242">
        <ele>217.8</ele>
        <time>2024-04-28T11:35:43Z</time>
      </trkpt>
      <trkpt lat="50.02422" lon="4.32413">
        <ele>217.6</ele>
        <time>2024-04-28T11:35:44Z</time>
      </trkpt>
      <trkpt lat="50.02418" lon="4.32405">
        <ele>217.6</ele>
        <time>2024-04-28T11:35:45Z</time>
      </trkpt>
      <trkpt lat="50.02414" lon="4.32398">
        <ele>217.6</ele>
        <time>2024-04-28T11:35:46Z</time>
      </trkpt>
      <trkpt lat="50.02409" lon="4.32391">
        <ele>217.6</ele>
        <time>2024-04-28T11:35:47Z</time>
      </trkpt>
      <trkpt lat="50.02405" lon="4.32384">
        <ele>217.8</ele>
        <time>2024-04-28T11:35:48Z</time>
      </trkpt>
      <trkpt lat="50.02401" lon="4.32377">
        <ele>218</ele>
        <time>2024-04-28T11:35:49Z</time>
      </trkpt>
      <trkpt lat="50.02397" lon="4.3237">
        <ele>218.2</ele>
        <time>2024-04-28T11:35:50Z</time>
      </trkpt>
      <trkpt lat="50.02393" lon="4.32364">
        <ele>218.2</ele>
        <time>2024-04-28T11:35:51Z</time>
      </trkpt>
      <trkpt lat="50.02388" lon="4.32358">
        <ele>218.2</ele>
        <time>2024-04-28T11:35:52Z</time>
      </trkpt>
      <trkpt lat="50.02384" lon="4.32352">
        <ele>218.4</ele>
        <time>2024-04-28T11:35:53Z</time>
      </trkpt>
      <trkpt lat="50.0238" lon="4.32346">
        <ele>218.2</ele>
        <time>2024-04-28T11:35:54Z</time>
      </trkpt>
      <trkpt lat="50.02375" lon="4.3234">
        <ele>218.4</ele>
        <time>2024-04-28T11:35:55Z</time>
      </trkpt>
      <trkpt lat="50.02371" lon="4.32335">
        <ele>218.4</ele>
        <time>2024-04-28T11:35:56Z</time>
      </trkpt>
      <trkpt lat="50.02366" lon="4.3233">
        <ele>218.4</ele>
        <time>2024-04-28T11:35:57Z</time>
      </trkpt>
      <trkpt lat="50.02361" lon="4.32325">
        <ele>218.8</ele>
        <time>2024-04-28T11:35:58Z</time>
      </trkpt>
      <trkpt lat="50.02357" lon="4.3232">
        <ele>218.8</ele>
        <time>2024-04-28T11:35:59Z</time>
      </trkpt>
      <trkpt lat="50.02352" lon="4.32315">
        <ele>218.8</ele>
        <time>2024-04-28T11:36:00Z</time>
      </trkpt>
      <trkpt lat="50.02347" lon="4.32309">
        <ele>218.8</ele>
        <time>2024-04-28T11:36:01Z</time>
      </trkpt>
      <trkpt lat="50.02343" lon="4.32304">
        <ele>218.8</ele>
        <time>2024-04-28T11:36:02Z</time>
      </trkpt>
      <trkpt lat="50.02338" lon="4.32299">
        <ele>219</ele>
        <time>2024-04-28T11:36:03Z</time>
      </trkpt>
      <trkpt lat="50.02334" lon="4.32293">
        <ele>219</ele>
        <time>2024-04-28T11:36:04Z</time>
      </trkpt>
      <trkpt lat="50.02329" lon="4.32287">
        <ele>218.8</ele>
        <time>2024-04-28T11:36:05Z</time>
      </trkpt>
      <trkpt lat="50.02325" lon="4.3228">
        <ele>218.8</ele>
        <time>2024-04-28T11:36:06Z</time>
      </trkpt>
      <trkpt lat="50.02321" lon="4.32272">
        <ele>218.8</ele>
        <time>2024-04-28T11:36:07Z</time>
      </trkpt>
      <trkpt lat="50.02318" lon="4.32263">
        <ele>218.8</ele>
        <time>2024-04-28T11:36:08Z</time>
      </trkpt>
      <trkpt lat="50.02315" lon="4.32254">
        <ele>218.8</ele>
        <time>2024-04-28T11:36:09Z</time>
      </trkpt>
      <trkpt lat="50.02312" lon="4.32244">
        <ele>218.8</ele>
        <time>2024-04-28T11:36:10Z</time>
      </trkpt>
      <trkpt lat="50.0231" lon="4.32234">
        <ele>218.8</ele>
        <time>2024-04-28T11:36:11Z</time>
      </trkpt>
      <trkpt lat="50.02307" lon="4.32224">
        <ele>218.8</ele>
        <time>2024-04-28T11:36:12Z</time>
      </trkpt>
      <trkpt lat="50.02305" lon="4.32214">
        <ele>218.6</ele>
        <time>2024-04-28T11:36:13Z</time>
      </trkpt>
      <trkpt lat="50.02303" lon="4.32203">
        <ele>218.8</ele>
        <time>2024-04-28T11:36:14Z</time>
      </trkpt>
      <trkpt lat="50.023" lon="4.32192">
        <ele>218.8</ele>
        <time>2024-04-28T11:36:15Z</time>
      </trkpt>
      <trkpt lat="50.02298" lon="4.32182">
        <ele>218.8</ele>
        <time>2024-04-28T11:36:16Z</time>
      </trkpt>
      <trkpt lat="50.02296" lon="4.32172">
        <ele>218.6</ele>
        <time>2024-04-28T11:36:17Z</time>
      </trkpt>
      <trkpt lat="50.02295" lon="4.32162">
        <ele>218.4</ele>
        <time>2024-04-28T11:36:18Z</time>
      </trkpt>
      <trkpt lat="50.02294" lon="4.32153">
        <ele>218</ele>
        <time>2024-04-28T11:36:19Z</time>
      </trkpt>
      <trkpt lat="50.02293" lon="4.32145">
        <ele>218</ele>
        <time>2024-04-28T11:36:20Z</time>
      </trkpt>
      <trkpt lat="50.02292" lon="4.32136">
        <ele>218</ele>
        <time>2024-04-28T11:36:21Z</time>
      </trkpt>
      <trkpt lat="50.0229" lon="4.3213">
        <ele>217.8</ele>
        <time>2024-04-28T11:36:22Z</time>
      </trkpt>
      <trkpt lat="50.02289" lon="4.32124">
        <ele>217.8</ele>
        <time>2024-04-28T11:36:23Z</time>
      </trkpt>
      <trkpt lat="50.02287" lon="4.32119">
        <ele>217.6</ele>
        <time>2024-04-28T11:36:24Z</time>
      </trkpt>
      <trkpt lat="50.02286" lon="4.32115">
        <ele>217.6</ele>
        <time>2024-04-28T11:36:25Z</time>
      </trkpt>
      <trkpt lat="50.02285" lon="4.32111">
        <ele>217.8</ele>
        <time>2024-04-28T11:36:26Z</time>
      </trkpt>
      <trkpt lat="50.02285" lon="4.32107">
        <ele>217.8</ele>
        <time>2024-04-28T11:36:27Z</time>
      </trkpt>
      <trkpt lat="50.02286" lon="4.32104">
        <ele>217.8</ele>
        <time>2024-04-28T11:36:28Z</time>
      </trkpt>
      <trkpt lat="50.02287" lon="4.32102">
        <ele>217.8</ele>
        <time>2024-04-28T11:36:29Z</time>
      </trkpt>
      <trkpt lat="50.02288" lon="4.321">
        <ele>217.8</ele>
        <time>2024-04-28T11:36:30Z</time>
      </trkpt>
      <trkpt lat="50.02288" lon="4.32099">
        <ele>217.8</ele>
        <time>2024-04-28T11:36:31Z</time>
      </trkpt>
      <trkpt lat="50.02288" lon="4.32099">
        <ele>218</ele>
        <time>2024-04-28T11:36:32Z</time>
      </trkpt>
      <trkpt lat="50.02297" lon="4.32091">
        <ele>220.2</ele>
        <time>2024-04-28T11:37:00Z</time>
      </trkpt>
      <trkpt lat="50.02299" lon="4.3209">
        <ele>220.2</ele>
        <time>2024-04-28T11:37:01Z</time>
      </trkpt>
      <trkpt lat="50.023" lon="4.32088">
        <ele>220.2</ele>
        <time>2024-04-28T11:37:02Z</time>
      </trkpt>
      <trkpt lat="50.02301" lon="4.32086">
        <ele>220.2</ele>
        <time>2024-04-28T11:37:03Z</time>
      </trkpt>
      <trkpt lat="50.02302" lon="4.32084">
        <ele>220.2</ele>
        <time>2024-04-28T11:37:04Z</time>
      </trkpt>
      <trkpt lat="50.02302" lon="4.32083">
        <ele>220.2</ele>
        <time>2024-04-28T11:37:05Z</time>
      </trkpt>
      <trkpt lat="50.02303" lon="4.32082">
        <ele>220.2</ele>
        <time>2024-04-28T11:37:06Z</time>
      </trkpt>
      <trkpt lat="50.02304" lon="4.32082">
        <ele>220.2</ele>
        <time>2024-04-28T11:37:07Z</time>
      </trkpt>
      <trkpt lat="50.02304" lon="4.32081">
        <ele>220.2</ele>
        <time>2024-04-28T11:37:08Z</time>
      </trkpt>
      <trkpt lat="50.02305" lon="4.32081">
        <ele>220</ele>
        <time>2024-04-28T11:37:09Z</time>
      </trkpt>
      <trkpt lat="50.02306" lon="4.3208">
        <ele>220</ele>
        <time>2024-04-28T11:37:10Z</time>
      </trkpt>
      <trkpt lat="50.02306" lon="4.3208">
        <ele>220</ele>
        <time>2024-04-28T11:37:11Z</time>
      </trkpt>
      <trkpt lat="50.02306" lon="4.3208">
        <ele>220</ele>
        <time>2024-04-28T11:37:12Z</time>
      </trkpt>
      <trkpt lat="50.02307" lon="4.3208">
        <ele>220</ele>
        <time>2024-04-28T11:37:13Z</time>
      </trkpt>
    </trkseg>
  </trk>
</gpx>